<?xml version="1.0" encoding="UTF-8"?>
<gpx version="1.1" creator="https://www.youtrack.es" xsi:schemaLocation="http://www.topografix.com/GPX/1/1 http://www.topografix.com/GPX/1/1/gpx.xsd http://www.garmin.com/xmlschemas/GpxExtensions/v3 http://www.garmin.com/xmlschemas/GpxExtensionsv3.xsd http://www.garmin.com/xmlschemas/TrackPointExtension/v1 http://www.garmin.com/xmlschemas/TrackPointExtensionv1.xsd" xmlns:gpxtpx="http://www.garmin.com/xmlschemas/TrackPointExtension/v1" xmlns:gpxx="http://www.garmin.com/xmlschemas/GpxExtensions/v3" xmlns:xsi="http://www.w3.org/2001/XMLSchema-instance">
  <metadata>
    <link href="https://www.youtrack.es">
      <text>YouTrack.es</text>
    </link>
    <time>2026-05-07T18:44:11Z</time>
  </metadata>
  <trk>
    <src>https://www.youtrack.es</src>
    <link href="https://www.youtrack.es/ruta/20128-sabadell-mura">
      <text>YouTrack.es</text>
    </link>
    <trkseg>
      <trkpt lat="41.564659" lon="2.101156">
        <ele>265.09</ele>
        <time>2012-04-07T08:19:58Z</time>
      </trkpt>
      <trkpt lat="41.564709" lon="2.101185">
        <ele>265.02</ele>
        <time>2012-04-07T08:20:21Z</time>
      </trkpt>
      <trkpt lat="41.564805" lon="2.101263">
        <ele>259.03</ele>
        <time>2012-04-07T08:20:27Z</time>
      </trkpt>
      <trkpt lat="41.564905" lon="2.101302">
        <ele>257.07</ele>
        <time>2012-04-07T08:20:32Z</time>
      </trkpt>
      <trkpt lat="41.565016" lon="2.101351">
        <ele>257.03</ele>
        <time>2012-04-07T08:20:40Z</time>
      </trkpt>
      <trkpt lat="41.565124" lon="2.101298">
        <ele>257.01</ele>
        <time>2012-04-07T08:20:46Z</time>
      </trkpt>
      <trkpt lat="41.565227" lon="2.101258">
        <ele>256.02</ele>
        <time>2012-04-07T08:20:51Z</time>
      </trkpt>
      <trkpt lat="41.565338" lon="2.101259">
        <ele>257.06</ele>
        <time>2012-04-07T08:20:55Z</time>
      </trkpt>
      <trkpt lat="41.565462" lon="2.101256">
        <ele>259.09</ele>
        <time>2012-04-07T08:21:00Z</time>
      </trkpt>
      <trkpt lat="41.565568" lon="2.101257">
        <ele>257.05</ele>
        <time>2012-04-07T08:21:04Z</time>
      </trkpt>
      <trkpt lat="41.565688" lon="2.101262">
        <ele>256.05</ele>
        <time>2012-04-07T08:21:09Z</time>
      </trkpt>
      <trkpt lat="41.565803" lon="2.101258">
        <ele>257.05</ele>
        <time>2012-04-07T08:21:14Z</time>
      </trkpt>
      <trkpt lat="41.565902" lon="2.101258">
        <ele>258.09</ele>
        <time>2012-04-07T08:21:18Z</time>
      </trkpt>
      <trkpt lat="41.566018" lon="2.101259">
        <ele>257.06</ele>
        <time>2012-04-07T08:21:24Z</time>
      </trkpt>
      <trkpt lat="41.566123" lon="2.101258">
        <ele>254.01</ele>
        <time>2012-04-07T08:21:29Z</time>
      </trkpt>
      <trkpt lat="41.566227" lon="2.101247">
        <ele>254.09</ele>
        <time>2012-04-07T08:21:34Z</time>
      </trkpt>
      <trkpt lat="41.566330" lon="2.101219">
        <ele>255.01</ele>
        <time>2012-04-07T08:21:40Z</time>
      </trkpt>
      <trkpt lat="41.566429" lon="2.101193">
        <ele>256.02</ele>
        <time>2012-04-07T08:21:45Z</time>
      </trkpt>
      <trkpt lat="41.566540" lon="2.101213">
        <ele>258.09</ele>
        <time>2012-04-07T08:21:50Z</time>
      </trkpt>
      <trkpt lat="41.566619" lon="2.101312">
        <ele>247.05</ele>
        <time>2012-04-07T08:21:56Z</time>
      </trkpt>
      <trkpt lat="41.566588" lon="2.101451">
        <ele>243.03</ele>
        <time>2012-04-07T08:22:01Z</time>
      </trkpt>
      <trkpt lat="41.566510" lon="2.101559">
        <ele>246.04</ele>
        <time>2012-04-07T08:22:06Z</time>
      </trkpt>
      <trkpt lat="41.566448" lon="2.101663">
        <ele>241.07</ele>
        <time>2012-04-07T08:22:11Z</time>
      </trkpt>
      <trkpt lat="41.566359" lon="2.101745">
        <ele>237.02</ele>
        <time>2012-04-07T08:22:17Z</time>
      </trkpt>
      <trkpt lat="41.566259" lon="2.101805">
        <ele>236.04</ele>
        <time>2012-04-07T08:22:22Z</time>
      </trkpt>
      <trkpt lat="41.566158" lon="2.101843">
        <ele>241.07</ele>
        <time>2012-04-07T08:22:27Z</time>
      </trkpt>
      <trkpt lat="41.566044" lon="2.101893">
        <ele>238.07</ele>
        <time>2012-04-07T08:22:33Z</time>
      </trkpt>
      <trkpt lat="41.565949" lon="2.101942">
        <ele>235.01</ele>
        <time>2012-04-07T08:22:38Z</time>
      </trkpt>
      <trkpt lat="41.565858" lon="2.102006">
        <ele>234.02</ele>
        <time>2012-04-07T08:22:43Z</time>
      </trkpt>
      <trkpt lat="41.565760" lon="2.102086">
        <ele>243.05</ele>
        <time>2012-04-07T08:22:47Z</time>
      </trkpt>
      <trkpt lat="41.565775" lon="2.102229">
        <ele>242.10</ele>
        <time>2012-04-07T08:22:51Z</time>
      </trkpt>
      <trkpt lat="41.565743" lon="2.102368">
        <ele>244.04</ele>
        <time>2012-04-07T08:22:56Z</time>
      </trkpt>
      <trkpt lat="41.565713" lon="2.102511">
        <ele>239.02</ele>
        <time>2012-04-07T08:23:00Z</time>
      </trkpt>
      <trkpt lat="41.565697" lon="2.102664">
        <ele>237.04</ele>
        <time>2012-04-07T08:23:04Z</time>
      </trkpt>
      <trkpt lat="41.565694" lon="2.102812">
        <ele>234.04</ele>
        <time>2012-04-07T08:23:08Z</time>
      </trkpt>
      <trkpt lat="41.565699" lon="2.102944">
        <ele>239.01</ele>
        <time>2012-04-07T08:23:12Z</time>
      </trkpt>
      <trkpt lat="41.565700" lon="2.103088">
        <ele>238.05</ele>
        <time>2012-04-07T08:23:16Z</time>
      </trkpt>
      <trkpt lat="41.565737" lon="2.103237">
        <ele>242.06</ele>
        <time>2012-04-07T08:23:20Z</time>
      </trkpt>
      <trkpt lat="41.565785" lon="2.103361">
        <ele>250.01</ele>
        <time>2012-04-07T08:23:23Z</time>
      </trkpt>
      <trkpt lat="41.565851" lon="2.103475">
        <ele>249.02</ele>
        <time>2012-04-07T08:23:26Z</time>
      </trkpt>
      <trkpt lat="41.565936" lon="2.103567">
        <ele>246.10</ele>
        <time>2012-04-07T08:23:29Z</time>
      </trkpt>
      <trkpt lat="41.566041" lon="2.103599">
        <ele>239.02</ele>
        <time>2012-04-07T08:23:32Z</time>
      </trkpt>
      <trkpt lat="41.566159" lon="2.103592">
        <ele>237.10</ele>
        <time>2012-04-07T08:23:35Z</time>
      </trkpt>
      <trkpt lat="41.566285" lon="2.103549">
        <ele>244.08</ele>
        <time>2012-04-07T08:23:37Z</time>
      </trkpt>
      <trkpt lat="41.566429" lon="2.103464">
        <ele>249.03</ele>
        <time>2012-04-07T08:23:41Z</time>
      </trkpt>
      <trkpt lat="41.566520" lon="2.103552">
        <ele>252.05</ele>
        <time>2012-04-07T08:23:45Z</time>
      </trkpt>
      <trkpt lat="41.566613" lon="2.103646">
        <ele>245.04</ele>
        <time>2012-04-07T08:23:49Z</time>
      </trkpt>
      <trkpt lat="41.566728" lon="2.103721">
        <ele>246.05</ele>
        <time>2012-04-07T08:23:54Z</time>
      </trkpt>
      <trkpt lat="41.566827" lon="2.103768">
        <ele>253.04</ele>
        <time>2012-04-07T08:23:58Z</time>
      </trkpt>
      <trkpt lat="41.566934" lon="2.103810">
        <ele>248.01</ele>
        <time>2012-04-07T08:24:02Z</time>
      </trkpt>
      <trkpt lat="41.567050" lon="2.103863">
        <ele>249.02</ele>
        <time>2012-04-07T08:24:06Z</time>
      </trkpt>
      <trkpt lat="41.567141" lon="2.103945">
        <ele>252.08</ele>
        <time>2012-04-07T08:24:10Z</time>
      </trkpt>
      <trkpt lat="41.567226" lon="2.104022">
        <ele>247.07</ele>
        <time>2012-04-07T08:24:15Z</time>
      </trkpt>
      <trkpt lat="41.567318" lon="2.104085">
        <ele>248.09</ele>
        <time>2012-04-07T08:24:20Z</time>
      </trkpt>
      <trkpt lat="41.567392" lon="2.104187">
        <ele>248.06</ele>
        <time>2012-04-07T08:24:25Z</time>
      </trkpt>
      <trkpt lat="41.567491" lon="2.104253">
        <ele>252.04</ele>
        <time>2012-04-07T08:24:30Z</time>
      </trkpt>
      <trkpt lat="41.567541" lon="2.104380">
        <ele>240.03</ele>
        <time>2012-04-07T08:24:39Z</time>
      </trkpt>
      <trkpt lat="41.567620" lon="2.104481">
        <ele>239.05</ele>
        <time>2012-04-07T08:24:45Z</time>
      </trkpt>
      <trkpt lat="41.567730" lon="2.104469">
        <ele>238.06</ele>
        <time>2012-04-07T08:24:50Z</time>
      </trkpt>
      <trkpt lat="41.567827" lon="2.104411">
        <ele>241.07</ele>
        <time>2012-04-07T08:24:54Z</time>
      </trkpt>
      <trkpt lat="41.567928" lon="2.104338">
        <ele>239.01</ele>
        <time>2012-04-07T08:24:59Z</time>
      </trkpt>
      <trkpt lat="41.568022" lon="2.104284">
        <ele>239.02</ele>
        <time>2012-04-07T08:25:03Z</time>
      </trkpt>
      <trkpt lat="41.568128" lon="2.104217">
        <ele>240.06</ele>
        <time>2012-04-07T08:25:08Z</time>
      </trkpt>
      <trkpt lat="41.568234" lon="2.104167">
        <ele>243.05</ele>
        <time>2012-04-07T08:25:12Z</time>
      </trkpt>
      <trkpt lat="41.568330" lon="2.104112">
        <ele>241.09</ele>
        <time>2012-04-07T08:25:17Z</time>
      </trkpt>
      <trkpt lat="41.568431" lon="2.104033">
        <ele>242.04</ele>
        <time>2012-04-07T08:25:22Z</time>
      </trkpt>
      <trkpt lat="41.568525" lon="2.103955">
        <ele>235.02</ele>
        <time>2012-04-07T08:25:28Z</time>
      </trkpt>
      <trkpt lat="41.568640" lon="2.103937">
        <ele>239.06</ele>
        <time>2012-04-07T08:25:33Z</time>
      </trkpt>
      <trkpt lat="41.568752" lon="2.103935">
        <ele>243.04</ele>
        <time>2012-04-07T08:25:39Z</time>
      </trkpt>
      <trkpt lat="41.568851" lon="2.103905">
        <ele>245.06</ele>
        <time>2012-04-07T08:25:45Z</time>
      </trkpt>
      <trkpt lat="41.568948" lon="2.103835">
        <ele>242.10</ele>
        <time>2012-04-07T08:25:53Z</time>
      </trkpt>
      <trkpt lat="41.569028" lon="2.103751">
        <ele>238.01</ele>
        <time>2012-04-07T08:26:01Z</time>
      </trkpt>
      <trkpt lat="41.569085" lon="2.103636">
        <ele>239.02</ele>
        <time>2012-04-07T08:26:07Z</time>
      </trkpt>
      <trkpt lat="41.569142" lon="2.103519">
        <ele>231.09</ele>
        <time>2012-04-07T08:26:14Z</time>
      </trkpt>
      <trkpt lat="41.569199" lon="2.103400">
        <ele>234.08</ele>
        <time>2012-04-07T08:26:20Z</time>
      </trkpt>
      <trkpt lat="41.569267" lon="2.103280">
        <ele>231.10</ele>
        <time>2012-04-07T08:26:26Z</time>
      </trkpt>
      <trkpt lat="41.569283" lon="2.103147">
        <ele>217.09</ele>
        <time>2012-04-07T08:26:32Z</time>
      </trkpt>
      <trkpt lat="41.569239" lon="2.103004">
        <ele>224.02</ele>
        <time>2012-04-07T08:26:37Z</time>
      </trkpt>
      <trkpt lat="41.569184" lon="2.102854">
        <ele>226.07</ele>
        <time>2012-04-07T08:26:42Z</time>
      </trkpt>
      <trkpt lat="41.569160" lon="2.102711">
        <ele>228.09</ele>
        <time>2012-04-07T08:26:46Z</time>
      </trkpt>
      <trkpt lat="41.569145" lon="2.102575">
        <ele>230.04</ele>
        <time>2012-04-07T08:26:50Z</time>
      </trkpt>
      <trkpt lat="41.569148" lon="2.102413">
        <ele>231.04</ele>
        <time>2012-04-07T08:26:55Z</time>
      </trkpt>
      <trkpt lat="41.569168" lon="2.102283">
        <ele>232.01</ele>
        <time>2012-04-07T08:26:59Z</time>
      </trkpt>
      <trkpt lat="41.569198" lon="2.102130">
        <ele>229.01</ele>
        <time>2012-04-07T08:27:03Z</time>
      </trkpt>
      <trkpt lat="41.569247" lon="2.101979">
        <ele>236.02</ele>
        <time>2012-04-07T08:27:08Z</time>
      </trkpt>
      <trkpt lat="41.569305" lon="2.101858">
        <ele>225.03</ele>
        <time>2012-04-07T08:27:12Z</time>
      </trkpt>
      <trkpt lat="41.569404" lon="2.101766">
        <ele>230.07</ele>
        <time>2012-04-07T08:27:18Z</time>
      </trkpt>
      <trkpt lat="41.569512" lon="2.101767">
        <ele>221.09</ele>
        <time>2012-04-07T08:27:23Z</time>
      </trkpt>
      <trkpt lat="41.569621" lon="2.101703">
        <ele>223.07</ele>
        <time>2012-04-07T08:27:28Z</time>
      </trkpt>
      <trkpt lat="41.569735" lon="2.101659">
        <ele>221.05</ele>
        <time>2012-04-07T08:27:32Z</time>
      </trkpt>
      <trkpt lat="41.569848" lon="2.101617">
        <ele>223.04</ele>
        <time>2012-04-07T08:27:36Z</time>
      </trkpt>
      <trkpt lat="41.569949" lon="2.101611">
        <ele>222.02</ele>
        <time>2012-04-07T08:27:40Z</time>
      </trkpt>
      <trkpt lat="41.570059" lon="2.101560">
        <ele>218.07</ele>
        <time>2012-04-07T08:27:46Z</time>
      </trkpt>
      <trkpt lat="41.570143" lon="2.101461">
        <ele>216.01</ele>
        <time>2012-04-07T08:27:52Z</time>
      </trkpt>
      <trkpt lat="41.570175" lon="2.101332">
        <ele>216.01</ele>
        <time>2012-04-07T08:27:57Z</time>
      </trkpt>
      <trkpt lat="41.570221" lon="2.101191">
        <ele>221.08</ele>
        <time>2012-04-07T08:28:03Z</time>
      </trkpt>
      <trkpt lat="41.570210" lon="2.101205">
        <ele>228.06</ele>
        <time>2012-04-07T08:28:33Z</time>
      </trkpt>
      <trkpt lat="41.570245" lon="2.101243">
        <ele>212.09</ele>
        <time>2012-04-07T08:29:03Z</time>
      </trkpt>
      <trkpt lat="41.570248" lon="2.101241">
        <ele>214.01</ele>
        <time>2012-04-07T08:29:33Z</time>
      </trkpt>
      <trkpt lat="41.570278" lon="2.101275">
        <ele>218.03</ele>
        <time>2012-04-07T08:30:03Z</time>
      </trkpt>
      <trkpt lat="41.570376" lon="2.101336">
        <ele>217.01</ele>
        <time>2012-04-07T08:30:08Z</time>
      </trkpt>
      <trkpt lat="41.570498" lon="2.101366">
        <ele>216.06</ele>
        <time>2012-04-07T08:30:12Z</time>
      </trkpt>
      <trkpt lat="41.570632" lon="2.101334">
        <ele>216.07</ele>
        <time>2012-04-07T08:30:15Z</time>
      </trkpt>
      <trkpt lat="41.570718" lon="2.101263">
        <ele>216.02</ele>
        <time>2012-04-07T08:30:17Z</time>
      </trkpt>
      <trkpt lat="41.570838" lon="2.101138">
        <ele>216.01</ele>
        <time>2012-04-07T08:30:20Z</time>
      </trkpt>
      <trkpt lat="41.570938" lon="2.101000">
        <ele>215.03</ele>
        <time>2012-04-07T08:30:23Z</time>
      </trkpt>
      <trkpt lat="41.571022" lon="2.100856">
        <ele>219.01</ele>
        <time>2012-04-07T08:30:26Z</time>
      </trkpt>
      <trkpt lat="41.571080" lon="2.100745">
        <ele>220.10</ele>
        <time>2012-04-07T08:30:28Z</time>
      </trkpt>
      <trkpt lat="41.571137" lon="2.100637">
        <ele>218.02</ele>
        <time>2012-04-07T08:30:30Z</time>
      </trkpt>
      <trkpt lat="41.571212" lon="2.100487">
        <ele>218.02</ele>
        <time>2012-04-07T08:30:33Z</time>
      </trkpt>
      <trkpt lat="41.571271" lon="2.100376">
        <ele>218.03</ele>
        <time>2012-04-07T08:30:35Z</time>
      </trkpt>
      <trkpt lat="41.571332" lon="2.100255">
        <ele>218.07</ele>
        <time>2012-04-07T08:30:37Z</time>
      </trkpt>
      <trkpt lat="41.571413" lon="2.100088">
        <ele>216.08</ele>
        <time>2012-04-07T08:30:40Z</time>
      </trkpt>
      <trkpt lat="41.571474" lon="2.099972">
        <ele>218.09</ele>
        <time>2012-04-07T08:30:42Z</time>
      </trkpt>
      <trkpt lat="41.571544" lon="2.099845">
        <ele>220.07</ele>
        <time>2012-04-07T08:30:44Z</time>
      </trkpt>
      <trkpt lat="41.571604" lon="2.099728">
        <ele>219.01</ele>
        <time>2012-04-07T08:30:46Z</time>
      </trkpt>
      <trkpt lat="41.571694" lon="2.099573">
        <ele>219.01</ele>
        <time>2012-04-07T08:30:49Z</time>
      </trkpt>
      <trkpt lat="41.571758" lon="2.099459">
        <ele>219.03</ele>
        <time>2012-04-07T08:30:51Z</time>
      </trkpt>
      <trkpt lat="41.571826" lon="2.099339">
        <ele>220.01</ele>
        <time>2012-04-07T08:30:53Z</time>
      </trkpt>
      <trkpt lat="41.571898" lon="2.099222">
        <ele>221.07</ele>
        <time>2012-04-07T08:30:55Z</time>
      </trkpt>
      <trkpt lat="41.571963" lon="2.099105">
        <ele>221.03</ele>
        <time>2012-04-07T08:30:57Z</time>
      </trkpt>
      <trkpt lat="41.572025" lon="2.098985">
        <ele>222.09</ele>
        <time>2012-04-07T08:30:59Z</time>
      </trkpt>
      <trkpt lat="41.572087" lon="2.098870">
        <ele>221.07</ele>
        <time>2012-04-07T08:31:01Z</time>
      </trkpt>
      <trkpt lat="41.572155" lon="2.098742">
        <ele>221.03</ele>
        <time>2012-04-07T08:31:03Z</time>
      </trkpt>
      <trkpt lat="41.572231" lon="2.098591">
        <ele>220.01</ele>
        <time>2012-04-07T08:31:05Z</time>
      </trkpt>
      <trkpt lat="41.572302" lon="2.098476">
        <ele>217.09</ele>
        <time>2012-04-07T08:31:07Z</time>
      </trkpt>
      <trkpt lat="41.572362" lon="2.098364">
        <ele>218.01</ele>
        <time>2012-04-07T08:31:09Z</time>
      </trkpt>
      <trkpt lat="41.572420" lon="2.098247">
        <ele>217.03</ele>
        <time>2012-04-07T08:31:11Z</time>
      </trkpt>
      <trkpt lat="41.572500" lon="2.098090">
        <ele>217.04</ele>
        <time>2012-04-07T08:31:14Z</time>
      </trkpt>
      <trkpt lat="41.572557" lon="2.097982">
        <ele>219.07</ele>
        <time>2012-04-07T08:31:16Z</time>
      </trkpt>
      <trkpt lat="41.572617" lon="2.097869">
        <ele>221.03</ele>
        <time>2012-04-07T08:31:18Z</time>
      </trkpt>
      <trkpt lat="41.572705" lon="2.097706">
        <ele>224.05</ele>
        <time>2012-04-07T08:31:21Z</time>
      </trkpt>
      <trkpt lat="41.572791" lon="2.097549">
        <ele>224.05</ele>
        <time>2012-04-07T08:31:24Z</time>
      </trkpt>
      <trkpt lat="41.572854" lon="2.097438">
        <ele>224.04</ele>
        <time>2012-04-07T08:31:26Z</time>
      </trkpt>
      <trkpt lat="41.572935" lon="2.097274">
        <ele>225.06</ele>
        <time>2012-04-07T08:31:29Z</time>
      </trkpt>
      <trkpt lat="41.572993" lon="2.097164">
        <ele>226.10</ele>
        <time>2012-04-07T08:31:31Z</time>
      </trkpt>
      <trkpt lat="41.573074" lon="2.097022">
        <ele>223.07</ele>
        <time>2012-04-07T08:31:34Z</time>
      </trkpt>
      <trkpt lat="41.573154" lon="2.096875">
        <ele>222.01</ele>
        <time>2012-04-07T08:31:37Z</time>
      </trkpt>
      <trkpt lat="41.573229" lon="2.096740">
        <ele>221.02</ele>
        <time>2012-04-07T08:31:40Z</time>
      </trkpt>
      <trkpt lat="41.573290" lon="2.096625">
        <ele>222.05</ele>
        <time>2012-04-07T08:31:42Z</time>
      </trkpt>
      <trkpt lat="41.573350" lon="2.096515">
        <ele>222.10</ele>
        <time>2012-04-07T08:31:44Z</time>
      </trkpt>
      <trkpt lat="41.573441" lon="2.096369">
        <ele>221.04</ele>
        <time>2012-04-07T08:31:47Z</time>
      </trkpt>
      <trkpt lat="41.573508" lon="2.096255">
        <ele>222.05</ele>
        <time>2012-04-07T08:31:49Z</time>
      </trkpt>
      <trkpt lat="41.573573" lon="2.096146">
        <ele>222.06</ele>
        <time>2012-04-07T08:31:51Z</time>
      </trkpt>
      <trkpt lat="41.573649" lon="2.095992">
        <ele>223.05</ele>
        <time>2012-04-07T08:31:54Z</time>
      </trkpt>
      <trkpt lat="41.573705" lon="2.095883">
        <ele>223.03</ele>
        <time>2012-04-07T08:31:56Z</time>
      </trkpt>
      <trkpt lat="41.573782" lon="2.095732">
        <ele>223.09</ele>
        <time>2012-04-07T08:31:59Z</time>
      </trkpt>
      <trkpt lat="41.573850" lon="2.095606">
        <ele>222.08</ele>
        <time>2012-04-07T08:32:02Z</time>
      </trkpt>
      <trkpt lat="41.573930" lon="2.095476">
        <ele>224.01</ele>
        <time>2012-04-07T08:32:05Z</time>
      </trkpt>
      <trkpt lat="41.574011" lon="2.095327">
        <ele>223.02</ele>
        <time>2012-04-07T08:32:08Z</time>
      </trkpt>
      <trkpt lat="41.574073" lon="2.095220">
        <ele>226.03</ele>
        <time>2012-04-07T08:32:10Z</time>
      </trkpt>
      <trkpt lat="41.574159" lon="2.095072">
        <ele>224.05</ele>
        <time>2012-04-07T08:32:13Z</time>
      </trkpt>
      <trkpt lat="41.574229" lon="2.094935">
        <ele>226.07</ele>
        <time>2012-04-07T08:32:16Z</time>
      </trkpt>
      <trkpt lat="41.574313" lon="2.094800">
        <ele>229.03</ele>
        <time>2012-04-07T08:32:19Z</time>
      </trkpt>
      <trkpt lat="41.574408" lon="2.094666">
        <ele>232.02</ele>
        <time>2012-04-07T08:32:22Z</time>
      </trkpt>
      <trkpt lat="41.574473" lon="2.094565">
        <ele>234.08</ele>
        <time>2012-04-07T08:32:24Z</time>
      </trkpt>
      <trkpt lat="41.574553" lon="2.094449">
        <ele>230.07</ele>
        <time>2012-04-07T08:32:26Z</time>
      </trkpt>
      <trkpt lat="41.574632" lon="2.094344">
        <ele>228.10</ele>
        <time>2012-04-07T08:32:28Z</time>
      </trkpt>
      <trkpt lat="41.574744" lon="2.094216">
        <ele>226.08</ele>
        <time>2012-04-07T08:32:30Z</time>
      </trkpt>
      <trkpt lat="41.574832" lon="2.094111">
        <ele>225.01</ele>
        <time>2012-04-07T08:32:32Z</time>
      </trkpt>
      <trkpt lat="41.574908" lon="2.094017">
        <ele>226.01</ele>
        <time>2012-04-07T08:32:34Z</time>
      </trkpt>
      <trkpt lat="41.574991" lon="2.093908">
        <ele>230.03</ele>
        <time>2012-04-07T08:32:39Z</time>
      </trkpt>
      <trkpt lat="41.575066" lon="2.093818">
        <ele>230.03</ele>
        <time>2012-04-07T08:32:41Z</time>
      </trkpt>
      <trkpt lat="41.575167" lon="2.093709">
        <ele>231.07</ele>
        <time>2012-04-07T08:32:45Z</time>
      </trkpt>
      <trkpt lat="41.575277" lon="2.093594">
        <ele>230.05</ele>
        <time>2012-04-07T08:32:48Z</time>
      </trkpt>
      <trkpt lat="41.575359" lon="2.093511">
        <ele>230.07</ele>
        <time>2012-04-07T08:32:50Z</time>
      </trkpt>
      <trkpt lat="41.575446" lon="2.093425">
        <ele>229.09</ele>
        <time>2012-04-07T08:32:52Z</time>
      </trkpt>
      <trkpt lat="41.575538" lon="2.093339">
        <ele>229.04</ele>
        <time>2012-04-07T08:32:54Z</time>
      </trkpt>
      <trkpt lat="41.575652" lon="2.093234">
        <ele>228.09</ele>
        <time>2012-04-07T08:32:57Z</time>
      </trkpt>
      <trkpt lat="41.575731" lon="2.093155">
        <ele>229.07</ele>
        <time>2012-04-07T08:32:59Z</time>
      </trkpt>
      <trkpt lat="41.575815" lon="2.093071">
        <ele>228.01</ele>
        <time>2012-04-07T08:33:01Z</time>
      </trkpt>
      <trkpt lat="41.575902" lon="2.092994">
        <ele>228.02</ele>
        <time>2012-04-07T08:33:03Z</time>
      </trkpt>
      <trkpt lat="41.575984" lon="2.092918">
        <ele>227.03</ele>
        <time>2012-04-07T08:33:05Z</time>
      </trkpt>
      <trkpt lat="41.576068" lon="2.092837">
        <ele>226.07</ele>
        <time>2012-04-07T08:33:07Z</time>
      </trkpt>
      <trkpt lat="41.576150" lon="2.092762">
        <ele>226.04</ele>
        <time>2012-04-07T08:33:09Z</time>
      </trkpt>
      <trkpt lat="41.576269" lon="2.092657">
        <ele>227.08</ele>
        <time>2012-04-07T08:33:12Z</time>
      </trkpt>
      <trkpt lat="41.576388" lon="2.092557">
        <ele>229.09</ele>
        <time>2012-04-07T08:33:15Z</time>
      </trkpt>
      <trkpt lat="41.576513" lon="2.092453">
        <ele>229.04</ele>
        <time>2012-04-07T08:33:18Z</time>
      </trkpt>
      <trkpt lat="41.576627" lon="2.092361">
        <ele>232.04</ele>
        <time>2012-04-07T08:33:21Z</time>
      </trkpt>
      <trkpt lat="41.576715" lon="2.092280">
        <ele>231.04</ele>
        <time>2012-04-07T08:33:23Z</time>
      </trkpt>
      <trkpt lat="41.576798" lon="2.092197">
        <ele>231.05</ele>
        <time>2012-04-07T08:33:25Z</time>
      </trkpt>
      <trkpt lat="41.576885" lon="2.092110">
        <ele>232.01</ele>
        <time>2012-04-07T08:33:27Z</time>
      </trkpt>
      <trkpt lat="41.577008" lon="2.092001">
        <ele>229.02</ele>
        <time>2012-04-07T08:33:30Z</time>
      </trkpt>
      <trkpt lat="41.577090" lon="2.091919">
        <ele>230.09</ele>
        <time>2012-04-07T08:33:32Z</time>
      </trkpt>
      <trkpt lat="41.577171" lon="2.091827">
        <ele>231.08</ele>
        <time>2012-04-07T08:33:34Z</time>
      </trkpt>
      <trkpt lat="41.577249" lon="2.091723">
        <ele>230.08</ele>
        <time>2012-04-07T08:33:36Z</time>
      </trkpt>
      <trkpt lat="41.577319" lon="2.091626">
        <ele>230.01</ele>
        <time>2012-04-07T08:33:38Z</time>
      </trkpt>
      <trkpt lat="41.577403" lon="2.091481">
        <ele>231.06</ele>
        <time>2012-04-07T08:33:41Z</time>
      </trkpt>
      <trkpt lat="41.577458" lon="2.091370">
        <ele>231.07</ele>
        <time>2012-04-07T08:33:43Z</time>
      </trkpt>
      <trkpt lat="41.577541" lon="2.091227">
        <ele>230.03</ele>
        <time>2012-04-07T08:33:46Z</time>
      </trkpt>
      <trkpt lat="41.577623" lon="2.091068">
        <ele>230.07</ele>
        <time>2012-04-07T08:33:49Z</time>
      </trkpt>
      <trkpt lat="41.577678" lon="2.090952">
        <ele>230.01</ele>
        <time>2012-04-07T08:33:51Z</time>
      </trkpt>
      <trkpt lat="41.577752" lon="2.090778">
        <ele>231.01</ele>
        <time>2012-04-07T08:33:54Z</time>
      </trkpt>
      <trkpt lat="41.577795" lon="2.090645">
        <ele>232.02</ele>
        <time>2012-04-07T08:33:56Z</time>
      </trkpt>
      <trkpt lat="41.577834" lon="2.090514">
        <ele>234.05</ele>
        <time>2012-04-07T08:33:58Z</time>
      </trkpt>
      <trkpt lat="41.577873" lon="2.090387">
        <ele>234.10</ele>
        <time>2012-04-07T08:34:00Z</time>
      </trkpt>
      <trkpt lat="41.577924" lon="2.090213">
        <ele>231.04</ele>
        <time>2012-04-07T08:34:03Z</time>
      </trkpt>
      <trkpt lat="41.577954" lon="2.090087">
        <ele>230.10</ele>
        <time>2012-04-07T08:34:05Z</time>
      </trkpt>
      <trkpt lat="41.577994" lon="2.089947">
        <ele>230.05</ele>
        <time>2012-04-07T08:34:07Z</time>
      </trkpt>
      <trkpt lat="41.578055" lon="2.089767">
        <ele>228.03</ele>
        <time>2012-04-07T08:34:10Z</time>
      </trkpt>
      <trkpt lat="41.578100" lon="2.089638">
        <ele>228.04</ele>
        <time>2012-04-07T08:34:12Z</time>
      </trkpt>
      <trkpt lat="41.578179" lon="2.089480">
        <ele>229.04</ele>
        <time>2012-04-07T08:34:15Z</time>
      </trkpt>
      <trkpt lat="41.578231" lon="2.089350">
        <ele>229.01</ele>
        <time>2012-04-07T08:34:17Z</time>
      </trkpt>
      <trkpt lat="41.578283" lon="2.089221">
        <ele>232.01</ele>
        <time>2012-04-07T08:34:19Z</time>
      </trkpt>
      <trkpt lat="41.578334" lon="2.089085">
        <ele>233.02</ele>
        <time>2012-04-07T08:34:21Z</time>
      </trkpt>
      <trkpt lat="41.578378" lon="2.088964">
        <ele>235.07</ele>
        <time>2012-04-07T08:34:23Z</time>
      </trkpt>
      <trkpt lat="41.578424" lon="2.088837">
        <ele>233.04</ele>
        <time>2012-04-07T08:34:25Z</time>
      </trkpt>
      <trkpt lat="41.578477" lon="2.088683">
        <ele>231.06</ele>
        <time>2012-04-07T08:34:28Z</time>
      </trkpt>
      <trkpt lat="41.578519" lon="2.088561">
        <ele>230.06</ele>
        <time>2012-04-07T08:34:30Z</time>
      </trkpt>
      <trkpt lat="41.578557" lon="2.088438">
        <ele>231.07</ele>
        <time>2012-04-07T08:34:32Z</time>
      </trkpt>
      <trkpt lat="41.578601" lon="2.088294">
        <ele>231.09</ele>
        <time>2012-04-07T08:34:34Z</time>
      </trkpt>
      <trkpt lat="41.578634" lon="2.088162">
        <ele>231.08</ele>
        <time>2012-04-07T08:34:36Z</time>
      </trkpt>
      <trkpt lat="41.578676" lon="2.088021">
        <ele>230.09</ele>
        <time>2012-04-07T08:34:38Z</time>
      </trkpt>
      <trkpt lat="41.578729" lon="2.087887">
        <ele>231.02</ele>
        <time>2012-04-07T08:34:40Z</time>
      </trkpt>
      <trkpt lat="41.578787" lon="2.087763">
        <ele>230.01</ele>
        <time>2012-04-07T08:34:42Z</time>
      </trkpt>
      <trkpt lat="41.578842" lon="2.087648">
        <ele>228.03</ele>
        <time>2012-04-07T08:34:44Z</time>
      </trkpt>
      <trkpt lat="41.578904" lon="2.087538">
        <ele>228.01</ele>
        <time>2012-04-07T08:34:46Z</time>
      </trkpt>
      <trkpt lat="41.578968" lon="2.087429">
        <ele>228.10</ele>
        <time>2012-04-07T08:34:48Z</time>
      </trkpt>
      <trkpt lat="41.579033" lon="2.087300">
        <ele>226.08</ele>
        <time>2012-04-07T08:34:50Z</time>
      </trkpt>
      <trkpt lat="41.579129" lon="2.087171">
        <ele>228.09</ele>
        <time>2012-04-07T08:34:53Z</time>
      </trkpt>
      <trkpt lat="41.579200" lon="2.087065">
        <ele>233.10</ele>
        <time>2012-04-07T08:34:55Z</time>
      </trkpt>
      <trkpt lat="41.579278" lon="2.086939">
        <ele>230.05</ele>
        <time>2012-04-07T08:34:57Z</time>
      </trkpt>
      <trkpt lat="41.579348" lon="2.086841">
        <ele>233.03</ele>
        <time>2012-04-07T08:34:59Z</time>
      </trkpt>
      <trkpt lat="41.579423" lon="2.086720">
        <ele>233.04</ele>
        <time>2012-04-07T08:35:01Z</time>
      </trkpt>
      <trkpt lat="41.579498" lon="2.086605">
        <ele>235.07</ele>
        <time>2012-04-07T08:35:03Z</time>
      </trkpt>
      <trkpt lat="41.579569" lon="2.086496">
        <ele>235.01</ele>
        <time>2012-04-07T08:35:05Z</time>
      </trkpt>
      <trkpt lat="41.579651" lon="2.086369">
        <ele>234.02</ele>
        <time>2012-04-07T08:35:07Z</time>
      </trkpt>
      <trkpt lat="41.579724" lon="2.086260">
        <ele>234.00</ele>
        <time>2012-04-07T08:35:09Z</time>
      </trkpt>
      <trkpt lat="41.579798" lon="2.086157">
        <ele>233.07</ele>
        <time>2012-04-07T08:35:11Z</time>
      </trkpt>
      <trkpt lat="41.579892" lon="2.086045">
        <ele>234.02</ele>
        <time>2012-04-07T08:35:13Z</time>
      </trkpt>
      <trkpt lat="41.579986" lon="2.085939">
        <ele>236.02</ele>
        <time>2012-04-07T08:35:15Z</time>
      </trkpt>
      <trkpt lat="41.580067" lon="2.085855">
        <ele>237.07</ele>
        <time>2012-04-07T08:35:17Z</time>
      </trkpt>
      <trkpt lat="41.580183" lon="2.085732">
        <ele>238.05</ele>
        <time>2012-04-07T08:35:20Z</time>
      </trkpt>
      <trkpt lat="41.580262" lon="2.085649">
        <ele>238.04</ele>
        <time>2012-04-07T08:35:22Z</time>
      </trkpt>
      <trkpt lat="41.580347" lon="2.085567">
        <ele>239.01</ele>
        <time>2012-04-07T08:35:24Z</time>
      </trkpt>
      <trkpt lat="41.580448" lon="2.085478">
        <ele>237.05</ele>
        <time>2012-04-07T08:35:26Z</time>
      </trkpt>
      <trkpt lat="41.580543" lon="2.085402">
        <ele>236.01</ele>
        <time>2012-04-07T08:35:28Z</time>
      </trkpt>
      <trkpt lat="41.580629" lon="2.085334">
        <ele>237.01</ele>
        <time>2012-04-07T08:35:30Z</time>
      </trkpt>
      <trkpt lat="41.580759" lon="2.085231">
        <ele>238.04</ele>
        <time>2012-04-07T08:35:33Z</time>
      </trkpt>
      <trkpt lat="41.580855" lon="2.085163">
        <ele>236.07</ele>
        <time>2012-04-07T08:35:35Z</time>
      </trkpt>
      <trkpt lat="41.580960" lon="2.085087">
        <ele>238.04</ele>
        <time>2012-04-07T08:35:37Z</time>
      </trkpt>
      <trkpt lat="41.581068" lon="2.085001">
        <ele>237.07</ele>
        <time>2012-04-07T08:35:39Z</time>
      </trkpt>
      <trkpt lat="41.581175" lon="2.084911">
        <ele>237.07</ele>
        <time>2012-04-07T08:35:41Z</time>
      </trkpt>
      <trkpt lat="41.581285" lon="2.084816">
        <ele>237.07</ele>
        <time>2012-04-07T08:35:43Z</time>
      </trkpt>
      <trkpt lat="41.581386" lon="2.084731">
        <ele>241.06</ele>
        <time>2012-04-07T08:35:45Z</time>
      </trkpt>
      <trkpt lat="41.581480" lon="2.084650">
        <ele>239.06</ele>
        <time>2012-04-07T08:35:47Z</time>
      </trkpt>
      <trkpt lat="41.581581" lon="2.084566">
        <ele>238.02</ele>
        <time>2012-04-07T08:35:49Z</time>
      </trkpt>
      <trkpt lat="41.581692" lon="2.084481">
        <ele>238.01</ele>
        <time>2012-04-07T08:35:51Z</time>
      </trkpt>
      <trkpt lat="41.581799" lon="2.084399">
        <ele>238.03</ele>
        <time>2012-04-07T08:35:53Z</time>
      </trkpt>
      <trkpt lat="41.581902" lon="2.084316">
        <ele>238.01</ele>
        <time>2012-04-07T08:35:55Z</time>
      </trkpt>
      <trkpt lat="41.582000" lon="2.084237">
        <ele>237.09</ele>
        <time>2012-04-07T08:35:57Z</time>
      </trkpt>
      <trkpt lat="41.582097" lon="2.084155">
        <ele>238.05</ele>
        <time>2012-04-07T08:35:59Z</time>
      </trkpt>
      <trkpt lat="41.582206" lon="2.084061">
        <ele>238.04</ele>
        <time>2012-04-07T08:36:01Z</time>
      </trkpt>
      <trkpt lat="41.582304" lon="2.083968">
        <ele>237.03</ele>
        <time>2012-04-07T08:36:03Z</time>
      </trkpt>
      <trkpt lat="41.582407" lon="2.083838">
        <ele>235.05</ele>
        <time>2012-04-07T08:36:05Z</time>
      </trkpt>
      <trkpt lat="41.582495" lon="2.083653">
        <ele>236.04</ele>
        <time>2012-04-07T08:36:07Z</time>
      </trkpt>
      <trkpt lat="41.582552" lon="2.083444">
        <ele>237.03</ele>
        <time>2012-04-07T08:36:09Z</time>
      </trkpt>
      <trkpt lat="41.582573" lon="2.083229">
        <ele>238.07</ele>
        <time>2012-04-07T08:36:11Z</time>
      </trkpt>
      <trkpt lat="41.582576" lon="2.083020">
        <ele>239.01</ele>
        <time>2012-04-07T08:36:13Z</time>
      </trkpt>
      <trkpt lat="41.582566" lon="2.082834">
        <ele>239.01</ele>
        <time>2012-04-07T08:36:15Z</time>
      </trkpt>
      <trkpt lat="41.582555" lon="2.082642">
        <ele>236.09</ele>
        <time>2012-04-07T08:36:17Z</time>
      </trkpt>
      <trkpt lat="41.582534" lon="2.082446">
        <ele>234.04</ele>
        <time>2012-04-07T08:36:19Z</time>
      </trkpt>
      <trkpt lat="41.582523" lon="2.082269">
        <ele>236.03</ele>
        <time>2012-04-07T08:36:21Z</time>
      </trkpt>
      <trkpt lat="41.582532" lon="2.082098">
        <ele>237.05</ele>
        <time>2012-04-07T08:36:23Z</time>
      </trkpt>
      <trkpt lat="41.582551" lon="2.081915">
        <ele>239.01</ele>
        <time>2012-04-07T08:36:25Z</time>
      </trkpt>
      <trkpt lat="41.582572" lon="2.081744">
        <ele>240.06</ele>
        <time>2012-04-07T08:36:27Z</time>
      </trkpt>
      <trkpt lat="41.582596" lon="2.081603">
        <ele>237.09</ele>
        <time>2012-04-07T08:36:29Z</time>
      </trkpt>
      <trkpt lat="41.582609" lon="2.081455">
        <ele>239.03</ele>
        <time>2012-04-07T08:36:31Z</time>
      </trkpt>
      <trkpt lat="41.582615" lon="2.081299">
        <ele>238.04</ele>
        <time>2012-04-07T08:36:33Z</time>
      </trkpt>
      <trkpt lat="41.582614" lon="2.081144">
        <ele>243.01</ele>
        <time>2012-04-07T08:36:35Z</time>
      </trkpt>
      <trkpt lat="41.582607" lon="2.080969">
        <ele>243.01</ele>
        <time>2012-04-07T08:36:37Z</time>
      </trkpt>
      <trkpt lat="41.582608" lon="2.080790">
        <ele>245.05</ele>
        <time>2012-04-07T08:36:40Z</time>
      </trkpt>
      <trkpt lat="41.582612" lon="2.080638">
        <ele>244.03</ele>
        <time>2012-04-07T08:36:43Z</time>
      </trkpt>
      <trkpt lat="41.582600" lon="2.080505">
        <ele>243.03</ele>
        <time>2012-04-07T08:36:45Z</time>
      </trkpt>
      <trkpt lat="41.582598" lon="2.080322">
        <ele>242.10</ele>
        <time>2012-04-07T08:36:48Z</time>
      </trkpt>
      <trkpt lat="41.582595" lon="2.080181">
        <ele>245.05</ele>
        <time>2012-04-07T08:36:51Z</time>
      </trkpt>
      <trkpt lat="41.582594" lon="2.080042">
        <ele>246.05</ele>
        <time>2012-04-07T08:36:54Z</time>
      </trkpt>
      <trkpt lat="41.582626" lon="2.079890">
        <ele>251.07</ele>
        <time>2012-04-07T08:36:57Z</time>
      </trkpt>
      <trkpt lat="41.582675" lon="2.079756">
        <ele>249.02</ele>
        <time>2012-04-07T08:37:00Z</time>
      </trkpt>
      <trkpt lat="41.582727" lon="2.079600">
        <ele>250.06</ele>
        <time>2012-04-07T08:37:03Z</time>
      </trkpt>
      <trkpt lat="41.582766" lon="2.079461">
        <ele>246.01</ele>
        <time>2012-04-07T08:37:06Z</time>
      </trkpt>
      <trkpt lat="41.582808" lon="2.079322">
        <ele>244.01</ele>
        <time>2012-04-07T08:37:09Z</time>
      </trkpt>
      <trkpt lat="41.582838" lon="2.079196">
        <ele>240.04</ele>
        <time>2012-04-07T08:37:12Z</time>
      </trkpt>
      <trkpt lat="41.582894" lon="2.079045">
        <ele>242.07</ele>
        <time>2012-04-07T08:37:15Z</time>
      </trkpt>
      <trkpt lat="41.582932" lon="2.078907">
        <ele>243.09</ele>
        <time>2012-04-07T08:37:19Z</time>
      </trkpt>
      <trkpt lat="41.582986" lon="2.078791">
        <ele>243.07</ele>
        <time>2012-04-07T08:37:22Z</time>
      </trkpt>
      <trkpt lat="41.583049" lon="2.078662">
        <ele>236.08</ele>
        <time>2012-04-07T08:37:26Z</time>
      </trkpt>
      <trkpt lat="41.583119" lon="2.078554">
        <ele>234.05</ele>
        <time>2012-04-07T08:37:30Z</time>
      </trkpt>
      <trkpt lat="41.583187" lon="2.078446">
        <ele>233.07</ele>
        <time>2012-04-07T08:37:34Z</time>
      </trkpt>
      <trkpt lat="41.583262" lon="2.078337">
        <ele>236.04</ele>
        <time>2012-04-07T08:37:38Z</time>
      </trkpt>
      <trkpt lat="41.583330" lon="2.078240">
        <ele>238.06</ele>
        <time>2012-04-07T08:37:41Z</time>
      </trkpt>
      <trkpt lat="41.583427" lon="2.078117">
        <ele>242.01</ele>
        <time>2012-04-07T08:37:44Z</time>
      </trkpt>
      <trkpt lat="41.583507" lon="2.078019">
        <ele>243.01</ele>
        <time>2012-04-07T08:37:46Z</time>
      </trkpt>
      <trkpt lat="41.583599" lon="2.077924">
        <ele>245.02</ele>
        <time>2012-04-07T08:37:48Z</time>
      </trkpt>
      <trkpt lat="41.583691" lon="2.077836">
        <ele>251.03</ele>
        <time>2012-04-07T08:37:50Z</time>
      </trkpt>
      <trkpt lat="41.583792" lon="2.077762">
        <ele>250.07</ele>
        <time>2012-04-07T08:37:52Z</time>
      </trkpt>
      <trkpt lat="41.583897" lon="2.077730">
        <ele>246.04</ele>
        <time>2012-04-07T08:37:57Z</time>
      </trkpt>
      <trkpt lat="41.584017" lon="2.077731">
        <ele>238.04</ele>
        <time>2012-04-07T08:38:02Z</time>
      </trkpt>
      <trkpt lat="41.584117" lon="2.077747">
        <ele>237.07</ele>
        <time>2012-04-07T08:38:06Z</time>
      </trkpt>
      <trkpt lat="41.584227" lon="2.077760">
        <ele>238.01</ele>
        <time>2012-04-07T08:38:10Z</time>
      </trkpt>
      <trkpt lat="41.584340" lon="2.077792">
        <ele>245.01</ele>
        <time>2012-04-07T08:38:14Z</time>
      </trkpt>
      <trkpt lat="41.584429" lon="2.077876">
        <ele>245.07</ele>
        <time>2012-04-07T08:38:19Z</time>
      </trkpt>
      <trkpt lat="41.584539" lon="2.077943">
        <ele>246.01</ele>
        <time>2012-04-07T08:38:23Z</time>
      </trkpt>
      <trkpt lat="41.584658" lon="2.077957">
        <ele>249.02</ele>
        <time>2012-04-07T08:38:26Z</time>
      </trkpt>
      <trkpt lat="41.584751" lon="2.078018">
        <ele>248.08</ele>
        <time>2012-04-07T08:38:29Z</time>
      </trkpt>
      <trkpt lat="41.584872" lon="2.078082">
        <ele>245.07</ele>
        <time>2012-04-07T08:38:33Z</time>
      </trkpt>
      <trkpt lat="41.584966" lon="2.078151">
        <ele>243.09</ele>
        <time>2012-04-07T08:38:36Z</time>
      </trkpt>
      <trkpt lat="41.585070" lon="2.078213">
        <ele>249.03</ele>
        <time>2012-04-07T08:38:39Z</time>
      </trkpt>
      <trkpt lat="41.585158" lon="2.078290">
        <ele>247.01</ele>
        <time>2012-04-07T08:38:42Z</time>
      </trkpt>
      <trkpt lat="41.585246" lon="2.078400">
        <ele>248.02</ele>
        <time>2012-04-07T08:38:45Z</time>
      </trkpt>
      <trkpt lat="41.585332" lon="2.078525">
        <ele>249.04</ele>
        <time>2012-04-07T08:38:48Z</time>
      </trkpt>
      <trkpt lat="41.585413" lon="2.078672">
        <ele>247.09</ele>
        <time>2012-04-07T08:38:51Z</time>
      </trkpt>
      <trkpt lat="41.585501" lon="2.078806">
        <ele>247.03</ele>
        <time>2012-04-07T08:38:54Z</time>
      </trkpt>
      <trkpt lat="41.585584" lon="2.078899">
        <ele>247.01</ele>
        <time>2012-04-07T08:38:56Z</time>
      </trkpt>
      <trkpt lat="41.585692" lon="2.079035">
        <ele>248.01</ele>
        <time>2012-04-07T08:38:59Z</time>
      </trkpt>
      <trkpt lat="41.585778" lon="2.079157">
        <ele>245.00</ele>
        <time>2012-04-07T08:39:02Z</time>
      </trkpt>
      <trkpt lat="41.585857" lon="2.079258">
        <ele>243.02</ele>
        <time>2012-04-07T08:39:04Z</time>
      </trkpt>
      <trkpt lat="41.585945" lon="2.079332">
        <ele>247.10</ele>
        <time>2012-04-07T08:39:06Z</time>
      </trkpt>
      <trkpt lat="41.586031" lon="2.079410">
        <ele>244.03</ele>
        <time>2012-04-07T08:39:08Z</time>
      </trkpt>
      <trkpt lat="41.586123" lon="2.079487">
        <ele>241.10</ele>
        <time>2012-04-07T08:39:10Z</time>
      </trkpt>
      <trkpt lat="41.586230" lon="2.079594">
        <ele>246.10</ele>
        <time>2012-04-07T08:39:13Z</time>
      </trkpt>
      <trkpt lat="41.586308" lon="2.079686">
        <ele>249.09</ele>
        <time>2012-04-07T08:39:15Z</time>
      </trkpt>
      <trkpt lat="41.586385" lon="2.079804">
        <ele>252.01</ele>
        <time>2012-04-07T08:39:17Z</time>
      </trkpt>
      <trkpt lat="41.586453" lon="2.079929">
        <ele>250.05</ele>
        <time>2012-04-07T08:39:19Z</time>
      </trkpt>
      <trkpt lat="41.586522" lon="2.080051">
        <ele>249.01</ele>
        <time>2012-04-07T08:39:21Z</time>
      </trkpt>
      <trkpt lat="41.586602" lon="2.080182">
        <ele>250.02</ele>
        <time>2012-04-07T08:39:23Z</time>
      </trkpt>
      <trkpt lat="41.586663" lon="2.080317">
        <ele>250.00</ele>
        <time>2012-04-07T08:39:25Z</time>
      </trkpt>
      <trkpt lat="41.586730" lon="2.080431">
        <ele>246.06</ele>
        <time>2012-04-07T08:39:27Z</time>
      </trkpt>
      <trkpt lat="41.586812" lon="2.080545">
        <ele>249.03</ele>
        <time>2012-04-07T08:39:29Z</time>
      </trkpt>
      <trkpt lat="41.586884" lon="2.080684">
        <ele>251.08</ele>
        <time>2012-04-07T08:39:31Z</time>
      </trkpt>
      <trkpt lat="41.586962" lon="2.080807">
        <ele>253.04</ele>
        <time>2012-04-07T08:39:33Z</time>
      </trkpt>
      <trkpt lat="41.587042" lon="2.080908">
        <ele>254.04</ele>
        <time>2012-04-07T08:39:35Z</time>
      </trkpt>
      <trkpt lat="41.587146" lon="2.081021">
        <ele>256.04</ele>
        <time>2012-04-07T08:39:38Z</time>
      </trkpt>
      <trkpt lat="41.587262" lon="2.081130">
        <ele>253.07</ele>
        <time>2012-04-07T08:39:41Z</time>
      </trkpt>
      <trkpt lat="41.587338" lon="2.081236">
        <ele>253.07</ele>
        <time>2012-04-07T08:39:43Z</time>
      </trkpt>
      <trkpt lat="41.587409" lon="2.081343">
        <ele>254.01</ele>
        <time>2012-04-07T08:39:45Z</time>
      </trkpt>
      <trkpt lat="41.587480" lon="2.081445">
        <ele>252.01</ele>
        <time>2012-04-07T08:39:47Z</time>
      </trkpt>
      <trkpt lat="41.587574" lon="2.081559">
        <ele>253.05</ele>
        <time>2012-04-07T08:39:50Z</time>
      </trkpt>
      <trkpt lat="41.587662" lon="2.081652">
        <ele>253.01</ele>
        <time>2012-04-07T08:39:53Z</time>
      </trkpt>
      <trkpt lat="41.587755" lon="2.081768">
        <ele>252.02</ele>
        <time>2012-04-07T08:39:56Z</time>
      </trkpt>
      <trkpt lat="41.587856" lon="2.081871">
        <ele>253.05</ele>
        <time>2012-04-07T08:39:59Z</time>
      </trkpt>
      <trkpt lat="41.587977" lon="2.081965">
        <ele>250.01</ele>
        <time>2012-04-07T08:40:02Z</time>
      </trkpt>
      <trkpt lat="41.588094" lon="2.082030">
        <ele>248.05</ele>
        <time>2012-04-07T08:40:05Z</time>
      </trkpt>
      <trkpt lat="41.588194" lon="2.082055">
        <ele>248.10</ele>
        <time>2012-04-07T08:40:07Z</time>
      </trkpt>
      <trkpt lat="41.588303" lon="2.082061">
        <ele>248.10</ele>
        <time>2012-04-07T08:40:09Z</time>
      </trkpt>
      <trkpt lat="41.588405" lon="2.082062">
        <ele>248.08</ele>
        <time>2012-04-07T08:40:11Z</time>
      </trkpt>
      <trkpt lat="41.588518" lon="2.082055">
        <ele>250.01</ele>
        <time>2012-04-07T08:40:13Z</time>
      </trkpt>
      <trkpt lat="41.588624" lon="2.082048">
        <ele>250.02</ele>
        <time>2012-04-07T08:40:15Z</time>
      </trkpt>
      <trkpt lat="41.588732" lon="2.082042">
        <ele>255.07</ele>
        <time>2012-04-07T08:40:17Z</time>
      </trkpt>
      <trkpt lat="41.588833" lon="2.082037">
        <ele>254.09</ele>
        <time>2012-04-07T08:40:19Z</time>
      </trkpt>
      <trkpt lat="41.588933" lon="2.082027">
        <ele>251.09</ele>
        <time>2012-04-07T08:40:21Z</time>
      </trkpt>
      <trkpt lat="41.589035" lon="2.082015">
        <ele>250.03</ele>
        <time>2012-04-07T08:40:23Z</time>
      </trkpt>
      <trkpt lat="41.589177" lon="2.082004">
        <ele>250.03</ele>
        <time>2012-04-07T08:40:26Z</time>
      </trkpt>
      <trkpt lat="41.589283" lon="2.082002">
        <ele>250.01</ele>
        <time>2012-04-07T08:40:28Z</time>
      </trkpt>
      <trkpt lat="41.589392" lon="2.082016">
        <ele>251.09</ele>
        <time>2012-04-07T08:40:30Z</time>
      </trkpt>
      <trkpt lat="41.589494" lon="2.082052">
        <ele>254.07</ele>
        <time>2012-04-07T08:40:32Z</time>
      </trkpt>
      <trkpt lat="41.589615" lon="2.082113">
        <ele>252.09</ele>
        <time>2012-04-07T08:40:35Z</time>
      </trkpt>
      <trkpt lat="41.589740" lon="2.082152">
        <ele>250.01</ele>
        <time>2012-04-07T08:40:38Z</time>
      </trkpt>
      <trkpt lat="41.589871" lon="2.082169">
        <ele>251.03</ele>
        <time>2012-04-07T08:40:41Z</time>
      </trkpt>
      <trkpt lat="41.590005" lon="2.082162">
        <ele>253.01</ele>
        <time>2012-04-07T08:40:44Z</time>
      </trkpt>
      <trkpt lat="41.590144" lon="2.082123">
        <ele>251.09</ele>
        <time>2012-04-07T08:40:47Z</time>
      </trkpt>
      <trkpt lat="41.590269" lon="2.082080">
        <ele>254.02</ele>
        <time>2012-04-07T08:40:50Z</time>
      </trkpt>
      <trkpt lat="41.590385" lon="2.082075">
        <ele>254.04</ele>
        <time>2012-04-07T08:40:53Z</time>
      </trkpt>
      <trkpt lat="41.590515" lon="2.082121">
        <ele>256.03</ele>
        <time>2012-04-07T08:40:56Z</time>
      </trkpt>
      <trkpt lat="41.590627" lon="2.082176">
        <ele>255.05</ele>
        <time>2012-04-07T08:40:59Z</time>
      </trkpt>
      <trkpt lat="41.590752" lon="2.082226">
        <ele>255.03</ele>
        <time>2012-04-07T08:41:03Z</time>
      </trkpt>
      <trkpt lat="41.590883" lon="2.082284">
        <ele>258.09</ele>
        <time>2012-04-07T08:41:07Z</time>
      </trkpt>
      <trkpt lat="41.590980" lon="2.082315">
        <ele>259.10</ele>
        <time>2012-04-07T08:41:10Z</time>
      </trkpt>
      <trkpt lat="41.591096" lon="2.082364">
        <ele>259.01</ele>
        <time>2012-04-07T08:41:14Z</time>
      </trkpt>
      <trkpt lat="41.591205" lon="2.082421">
        <ele>257.01</ele>
        <time>2012-04-07T08:41:18Z</time>
      </trkpt>
      <trkpt lat="41.591311" lon="2.082492">
        <ele>261.01</ele>
        <time>2012-04-07T08:41:22Z</time>
      </trkpt>
      <trkpt lat="41.591428" lon="2.082543">
        <ele>258.07</ele>
        <time>2012-04-07T08:41:27Z</time>
      </trkpt>
      <trkpt lat="41.591534" lon="2.082600">
        <ele>255.07</ele>
        <time>2012-04-07T08:41:34Z</time>
      </trkpt>
      <trkpt lat="41.591557" lon="2.082589">
        <ele>252.06</ele>
        <time>2012-04-07T08:42:04Z</time>
      </trkpt>
      <trkpt lat="41.591587" lon="2.082597">
        <ele>253.09</ele>
        <time>2012-04-07T08:42:34Z</time>
      </trkpt>
      <trkpt lat="41.591587" lon="2.082597">
        <ele>253.10</ele>
        <time>2012-04-07T08:43:04Z</time>
      </trkpt>
      <trkpt lat="41.591587" lon="2.082597">
        <ele>253.01</ele>
        <time>2012-04-07T08:43:34Z</time>
      </trkpt>
      <trkpt lat="41.591587" lon="2.082597">
        <ele>253.10</ele>
        <time>2012-04-07T08:44:04Z</time>
      </trkpt>
      <trkpt lat="41.591587" lon="2.082597">
        <ele>253.04</ele>
        <time>2012-04-07T08:44:34Z</time>
      </trkpt>
      <trkpt lat="41.591601" lon="2.082597">
        <ele>254.01</ele>
        <time>2012-04-07T08:45:04Z</time>
      </trkpt>
      <trkpt lat="41.591710" lon="2.082602">
        <ele>254.01</ele>
        <time>2012-04-07T08:45:07Z</time>
      </trkpt>
      <trkpt lat="41.591849" lon="2.082603">
        <ele>257.04</ele>
        <time>2012-04-07T08:45:10Z</time>
      </trkpt>
      <trkpt lat="41.591972" lon="2.082590">
        <ele>259.02</ele>
        <time>2012-04-07T08:45:13Z</time>
      </trkpt>
      <trkpt lat="41.592085" lon="2.082577">
        <ele>253.07</ele>
        <time>2012-04-07T08:45:16Z</time>
      </trkpt>
      <trkpt lat="41.592199" lon="2.082564">
        <ele>256.05</ele>
        <time>2012-04-07T08:45:19Z</time>
      </trkpt>
      <trkpt lat="41.592322" lon="2.082560">
        <ele>257.09</ele>
        <time>2012-04-07T08:45:22Z</time>
      </trkpt>
      <trkpt lat="41.592437" lon="2.082553">
        <ele>257.03</ele>
        <time>2012-04-07T08:45:25Z</time>
      </trkpt>
      <trkpt lat="41.592557" lon="2.082547">
        <ele>257.04</ele>
        <time>2012-04-07T08:45:28Z</time>
      </trkpt>
      <trkpt lat="41.592674" lon="2.082538">
        <ele>258.09</ele>
        <time>2012-04-07T08:45:31Z</time>
      </trkpt>
      <trkpt lat="41.592781" lon="2.082524">
        <ele>250.05</ele>
        <time>2012-04-07T08:45:34Z</time>
      </trkpt>
      <trkpt lat="41.592916" lon="2.082509">
        <ele>252.01</ele>
        <time>2012-04-07T08:45:37Z</time>
      </trkpt>
      <trkpt lat="41.593036" lon="2.082501">
        <ele>252.01</ele>
        <time>2012-04-07T08:45:40Z</time>
      </trkpt>
      <trkpt lat="41.593155" lon="2.082496">
        <ele>254.00</ele>
        <time>2012-04-07T08:45:43Z</time>
      </trkpt>
      <trkpt lat="41.593279" lon="2.082492">
        <ele>257.02</ele>
        <time>2012-04-07T08:45:47Z</time>
      </trkpt>
      <trkpt lat="41.593385" lon="2.082512">
        <ele>259.04</ele>
        <time>2012-04-07T08:45:50Z</time>
      </trkpt>
      <trkpt lat="41.593501" lon="2.082547">
        <ele>258.02</ele>
        <time>2012-04-07T08:45:53Z</time>
      </trkpt>
      <trkpt lat="41.593612" lon="2.082566">
        <ele>256.03</ele>
        <time>2012-04-07T08:45:56Z</time>
      </trkpt>
      <trkpt lat="41.593722" lon="2.082573">
        <ele>257.02</ele>
        <time>2012-04-07T08:45:59Z</time>
      </trkpt>
      <trkpt lat="41.593852" lon="2.082567">
        <ele>256.08</ele>
        <time>2012-04-07T08:46:03Z</time>
      </trkpt>
      <trkpt lat="41.593966" lon="2.082532">
        <ele>256.04</ele>
        <time>2012-04-07T08:46:06Z</time>
      </trkpt>
      <trkpt lat="41.594077" lon="2.082479">
        <ele>260.07</ele>
        <time>2012-04-07T08:46:09Z</time>
      </trkpt>
      <trkpt lat="41.594179" lon="2.082415">
        <ele>260.01</ele>
        <time>2012-04-07T08:46:13Z</time>
      </trkpt>
      <trkpt lat="41.594281" lon="2.082361">
        <ele>262.01</ele>
        <time>2012-04-07T08:46:18Z</time>
      </trkpt>
      <trkpt lat="41.594391" lon="2.082319">
        <ele>259.09</ele>
        <time>2012-04-07T08:46:23Z</time>
      </trkpt>
      <trkpt lat="41.594485" lon="2.082273">
        <ele>259.03</ele>
        <time>2012-04-07T08:46:30Z</time>
      </trkpt>
      <trkpt lat="41.594532" lon="2.082151">
        <ele>254.07</ele>
        <time>2012-04-07T08:46:35Z</time>
      </trkpt>
      <trkpt lat="41.594497" lon="2.082020">
        <ele>254.05</ele>
        <time>2012-04-07T08:46:39Z</time>
      </trkpt>
      <trkpt lat="41.594468" lon="2.081863">
        <ele>251.08</ele>
        <time>2012-04-07T08:46:44Z</time>
      </trkpt>
      <trkpt lat="41.594501" lon="2.081725">
        <ele>249.02</ele>
        <time>2012-04-07T08:46:48Z</time>
      </trkpt>
      <trkpt lat="41.594594" lon="2.081639">
        <ele>248.01</ele>
        <time>2012-04-07T08:46:52Z</time>
      </trkpt>
      <trkpt lat="41.594672" lon="2.081539">
        <ele>251.06</ele>
        <time>2012-04-07T08:46:55Z</time>
      </trkpt>
      <trkpt lat="41.594721" lon="2.081371">
        <ele>256.10</ele>
        <time>2012-04-07T08:46:58Z</time>
      </trkpt>
      <trkpt lat="41.594735" lon="2.081210">
        <ele>255.01</ele>
        <time>2012-04-07T08:47:00Z</time>
      </trkpt>
      <trkpt lat="41.594740" lon="2.081066">
        <ele>253.02</ele>
        <time>2012-04-07T08:47:02Z</time>
      </trkpt>
      <trkpt lat="41.594800" lon="2.080901">
        <ele>255.00</ele>
        <time>2012-04-07T08:47:05Z</time>
      </trkpt>
      <trkpt lat="41.594905" lon="2.080774">
        <ele>256.06</ele>
        <time>2012-04-07T08:47:07Z</time>
      </trkpt>
      <trkpt lat="41.595040" lon="2.080638">
        <ele>256.06</ele>
        <time>2012-04-07T08:47:09Z</time>
      </trkpt>
      <trkpt lat="41.595174" lon="2.080522">
        <ele>257.03</ele>
        <time>2012-04-07T08:47:11Z</time>
      </trkpt>
      <trkpt lat="41.595308" lon="2.080413">
        <ele>257.02</ele>
        <time>2012-04-07T08:47:13Z</time>
      </trkpt>
      <trkpt lat="41.595437" lon="2.080313">
        <ele>257.07</ele>
        <time>2012-04-07T08:47:15Z</time>
      </trkpt>
      <trkpt lat="41.595557" lon="2.080227">
        <ele>256.04</ele>
        <time>2012-04-07T08:47:17Z</time>
      </trkpt>
      <trkpt lat="41.595679" lon="2.080160">
        <ele>257.02</ele>
        <time>2012-04-07T08:47:19Z</time>
      </trkpt>
      <trkpt lat="41.595807" lon="2.080102">
        <ele>258.09</ele>
        <time>2012-04-07T08:47:21Z</time>
      </trkpt>
      <trkpt lat="41.595934" lon="2.080048">
        <ele>256.01</ele>
        <time>2012-04-07T08:47:23Z</time>
      </trkpt>
      <trkpt lat="41.596059" lon="2.079988">
        <ele>256.02</ele>
        <time>2012-04-07T08:47:25Z</time>
      </trkpt>
      <trkpt lat="41.596185" lon="2.079921">
        <ele>259.01</ele>
        <time>2012-04-07T08:47:27Z</time>
      </trkpt>
      <trkpt lat="41.596306" lon="2.079852">
        <ele>259.06</ele>
        <time>2012-04-07T08:47:29Z</time>
      </trkpt>
      <trkpt lat="41.596426" lon="2.079795">
        <ele>258.10</ele>
        <time>2012-04-07T08:47:31Z</time>
      </trkpt>
      <trkpt lat="41.596556" lon="2.079752">
        <ele>257.03</ele>
        <time>2012-04-07T08:47:33Z</time>
      </trkpt>
      <trkpt lat="41.596694" lon="2.079726">
        <ele>257.09</ele>
        <time>2012-04-07T08:47:35Z</time>
      </trkpt>
      <trkpt lat="41.596838" lon="2.079703">
        <ele>259.05</ele>
        <time>2012-04-07T08:47:37Z</time>
      </trkpt>
      <trkpt lat="41.596975" lon="2.079678">
        <ele>261.01</ele>
        <time>2012-04-07T08:47:39Z</time>
      </trkpt>
      <trkpt lat="41.597107" lon="2.079650">
        <ele>265.07</ele>
        <time>2012-04-07T08:47:41Z</time>
      </trkpt>
      <trkpt lat="41.597253" lon="2.079614">
        <ele>267.04</ele>
        <time>2012-04-07T08:47:43Z</time>
      </trkpt>
      <trkpt lat="41.597418" lon="2.079568">
        <ele>268.01</ele>
        <time>2012-04-07T08:47:45Z</time>
      </trkpt>
      <trkpt lat="41.597588" lon="2.079528">
        <ele>270.01</ele>
        <time>2012-04-07T08:47:47Z</time>
      </trkpt>
      <trkpt lat="41.597763" lon="2.079503">
        <ele>274.06</ele>
        <time>2012-04-07T08:47:49Z</time>
      </trkpt>
      <trkpt lat="41.597905" lon="2.079519">
        <ele>274.06</ele>
        <time>2012-04-07T08:47:51Z</time>
      </trkpt>
      <trkpt lat="41.598029" lon="2.079550">
        <ele>274.04</ele>
        <time>2012-04-07T08:47:53Z</time>
      </trkpt>
      <trkpt lat="41.598163" lon="2.079602">
        <ele>276.06</ele>
        <time>2012-04-07T08:47:55Z</time>
      </trkpt>
      <trkpt lat="41.598284" lon="2.079679">
        <ele>277.03</ele>
        <time>2012-04-07T08:47:57Z</time>
      </trkpt>
      <trkpt lat="41.598387" lon="2.079769">
        <ele>278.03</ele>
        <time>2012-04-07T08:47:59Z</time>
      </trkpt>
      <trkpt lat="41.598479" lon="2.079863">
        <ele>281.01</ele>
        <time>2012-04-07T08:48:01Z</time>
      </trkpt>
      <trkpt lat="41.598570" lon="2.079932">
        <ele>282.07</ele>
        <time>2012-04-07T08:48:03Z</time>
      </trkpt>
      <trkpt lat="41.598562" lon="2.080104">
        <ele>280.03</ele>
        <time>2012-04-07T08:48:08Z</time>
      </trkpt>
      <trkpt lat="41.598502" lon="2.080224">
        <ele>281.01</ele>
        <time>2012-04-07T08:48:11Z</time>
      </trkpt>
      <trkpt lat="41.598456" lon="2.080373">
        <ele>279.01</ele>
        <time>2012-04-07T08:48:17Z</time>
      </trkpt>
      <trkpt lat="41.598575" lon="2.080381">
        <ele>281.06</ele>
        <time>2012-04-07T08:48:20Z</time>
      </trkpt>
      <trkpt lat="41.598713" lon="2.080366">
        <ele>281.02</ele>
        <time>2012-04-07T08:48:22Z</time>
      </trkpt>
      <trkpt lat="41.598869" lon="2.080356">
        <ele>283.04</ele>
        <time>2012-04-07T08:48:24Z</time>
      </trkpt>
      <trkpt lat="41.599056" lon="2.080358">
        <ele>288.06</ele>
        <time>2012-04-07T08:48:26Z</time>
      </trkpt>
      <trkpt lat="41.599159" lon="2.080358">
        <ele>288.05</ele>
        <time>2012-04-07T08:48:27Z</time>
      </trkpt>
      <trkpt lat="41.599264" lon="2.080361">
        <ele>291.10</ele>
        <time>2012-04-07T08:48:28Z</time>
      </trkpt>
      <trkpt lat="41.599375" lon="2.080362">
        <ele>294.06</ele>
        <time>2012-04-07T08:48:29Z</time>
      </trkpt>
      <trkpt lat="41.599503" lon="2.080366">
        <ele>292.07</ele>
        <time>2012-04-07T08:48:30Z</time>
      </trkpt>
      <trkpt lat="41.599633" lon="2.080371">
        <ele>294.04</ele>
        <time>2012-04-07T08:48:31Z</time>
      </trkpt>
      <trkpt lat="41.599760" lon="2.080376">
        <ele>294.01</ele>
        <time>2012-04-07T08:48:32Z</time>
      </trkpt>
      <trkpt lat="41.599880" lon="2.080386">
        <ele>295.01</ele>
        <time>2012-04-07T08:48:33Z</time>
      </trkpt>
      <trkpt lat="41.599998" lon="2.080408">
        <ele>296.06</ele>
        <time>2012-04-07T08:48:34Z</time>
      </trkpt>
      <trkpt lat="41.600113" lon="2.080436">
        <ele>299.02</ele>
        <time>2012-04-07T08:48:35Z</time>
      </trkpt>
      <trkpt lat="41.600223" lon="2.080473">
        <ele>301.05</ele>
        <time>2012-04-07T08:48:36Z</time>
      </trkpt>
      <trkpt lat="41.600326" lon="2.080513">
        <ele>301.06</ele>
        <time>2012-04-07T08:48:37Z</time>
      </trkpt>
      <trkpt lat="41.600414" lon="2.080579">
        <ele>302.03</ele>
        <time>2012-04-07T08:48:38Z</time>
      </trkpt>
      <trkpt lat="41.600579" lon="2.080713">
        <ele>305.04</ele>
        <time>2012-04-07T08:48:40Z</time>
      </trkpt>
      <trkpt lat="41.600746" lon="2.080849">
        <ele>305.04</ele>
        <time>2012-04-07T08:48:42Z</time>
      </trkpt>
      <trkpt lat="41.600836" lon="2.080913">
        <ele>304.07</ele>
        <time>2012-04-07T08:48:43Z</time>
      </trkpt>
      <trkpt lat="41.600933" lon="2.080971">
        <ele>303.07</ele>
        <time>2012-04-07T08:48:44Z</time>
      </trkpt>
      <trkpt lat="41.601028" lon="2.081020">
        <ele>303.01</ele>
        <time>2012-04-07T08:48:45Z</time>
      </trkpt>
      <trkpt lat="41.601132" lon="2.081064">
        <ele>305.02</ele>
        <time>2012-04-07T08:48:46Z</time>
      </trkpt>
      <trkpt lat="41.601237" lon="2.081108">
        <ele>307.01</ele>
        <time>2012-04-07T08:48:47Z</time>
      </trkpt>
      <trkpt lat="41.601341" lon="2.081151">
        <ele>309.06</ele>
        <time>2012-04-07T08:48:48Z</time>
      </trkpt>
      <trkpt lat="41.601458" lon="2.081203">
        <ele>310.07</ele>
        <time>2012-04-07T08:48:49Z</time>
      </trkpt>
      <trkpt lat="41.601574" lon="2.081254">
        <ele>311.05</ele>
        <time>2012-04-07T08:48:50Z</time>
      </trkpt>
      <trkpt lat="41.601687" lon="2.081308">
        <ele>313.06</ele>
        <time>2012-04-07T08:48:51Z</time>
      </trkpt>
      <trkpt lat="41.601795" lon="2.081360">
        <ele>316.08</ele>
        <time>2012-04-07T08:48:52Z</time>
      </trkpt>
      <trkpt lat="41.601902" lon="2.081409">
        <ele>321.07</ele>
        <time>2012-04-07T08:48:53Z</time>
      </trkpt>
      <trkpt lat="41.602010" lon="2.081433">
        <ele>323.05</ele>
        <time>2012-04-07T08:48:54Z</time>
      </trkpt>
      <trkpt lat="41.602113" lon="2.081454">
        <ele>323.05</ele>
        <time>2012-04-07T08:48:55Z</time>
      </trkpt>
      <trkpt lat="41.602213" lon="2.081468">
        <ele>324.01</ele>
        <time>2012-04-07T08:48:56Z</time>
      </trkpt>
      <trkpt lat="41.602316" lon="2.081474">
        <ele>325.02</ele>
        <time>2012-04-07T08:48:57Z</time>
      </trkpt>
      <trkpt lat="41.602421" lon="2.081479">
        <ele>325.08</ele>
        <time>2012-04-07T08:48:58Z</time>
      </trkpt>
      <trkpt lat="41.602535" lon="2.081481">
        <ele>323.07</ele>
        <time>2012-04-07T08:48:59Z</time>
      </trkpt>
      <trkpt lat="41.602639" lon="2.081484">
        <ele>325.06</ele>
        <time>2012-04-07T08:49:00Z</time>
      </trkpt>
      <trkpt lat="41.602747" lon="2.081494">
        <ele>324.08</ele>
        <time>2012-04-07T08:49:01Z</time>
      </trkpt>
      <trkpt lat="41.602854" lon="2.081504">
        <ele>325.08</ele>
        <time>2012-04-07T08:49:02Z</time>
      </trkpt>
      <trkpt lat="41.603022" lon="2.081608">
        <ele>321.04</ele>
        <time>2012-04-07T08:49:04Z</time>
      </trkpt>
      <trkpt lat="41.603086" lon="2.081785">
        <ele>323.05</ele>
        <time>2012-04-07T08:49:06Z</time>
      </trkpt>
      <trkpt lat="41.603091" lon="2.081986">
        <ele>325.03</ele>
        <time>2012-04-07T08:49:08Z</time>
      </trkpt>
      <trkpt lat="41.603030" lon="2.082165">
        <ele>326.05</ele>
        <time>2012-04-07T08:49:10Z</time>
      </trkpt>
      <trkpt lat="41.602972" lon="2.082332">
        <ele>332.01</ele>
        <time>2012-04-07T08:49:12Z</time>
      </trkpt>
      <trkpt lat="41.602917" lon="2.082550">
        <ele>330.02</ele>
        <time>2012-04-07T08:49:14Z</time>
      </trkpt>
      <trkpt lat="41.602880" lon="2.082741">
        <ele>332.09</ele>
        <time>2012-04-07T08:49:16Z</time>
      </trkpt>
      <trkpt lat="41.602905" lon="2.082906">
        <ele>333.08</ele>
        <time>2012-04-07T08:49:18Z</time>
      </trkpt>
      <trkpt lat="41.602975" lon="2.083037">
        <ele>333.03</ele>
        <time>2012-04-07T08:49:20Z</time>
      </trkpt>
      <trkpt lat="41.603089" lon="2.083122">
        <ele>334.06</ele>
        <time>2012-04-07T08:49:22Z</time>
      </trkpt>
      <trkpt lat="41.603198" lon="2.083192">
        <ele>335.07</ele>
        <time>2012-04-07T08:49:24Z</time>
      </trkpt>
      <trkpt lat="41.603293" lon="2.083248">
        <ele>336.07</ele>
        <time>2012-04-07T08:49:26Z</time>
      </trkpt>
      <trkpt lat="41.603414" lon="2.083347">
        <ele>336.03</ele>
        <time>2012-04-07T08:49:29Z</time>
      </trkpt>
      <trkpt lat="41.603437" lon="2.083518">
        <ele>339.04</ele>
        <time>2012-04-07T08:49:32Z</time>
      </trkpt>
      <trkpt lat="41.603434" lon="2.083693">
        <ele>343.08</ele>
        <time>2012-04-07T08:49:35Z</time>
      </trkpt>
      <trkpt lat="41.603439" lon="2.083851">
        <ele>341.01</ele>
        <time>2012-04-07T08:49:38Z</time>
      </trkpt>
      <trkpt lat="41.603485" lon="2.083972">
        <ele>336.02</ele>
        <time>2012-04-07T08:49:41Z</time>
      </trkpt>
      <trkpt lat="41.603596" lon="2.084003">
        <ele>335.07</ele>
        <time>2012-04-07T08:49:45Z</time>
      </trkpt>
      <trkpt lat="41.603713" lon="2.083983">
        <ele>335.09</ele>
        <time>2012-04-07T08:49:48Z</time>
      </trkpt>
      <trkpt lat="41.603842" lon="2.083942">
        <ele>336.08</ele>
        <time>2012-04-07T08:49:51Z</time>
      </trkpt>
      <trkpt lat="41.603948" lon="2.083909">
        <ele>337.06</ele>
        <time>2012-04-07T08:49:53Z</time>
      </trkpt>
      <trkpt lat="41.604054" lon="2.083881">
        <ele>338.10</ele>
        <time>2012-04-07T08:49:55Z</time>
      </trkpt>
      <trkpt lat="41.604186" lon="2.083844">
        <ele>335.09</ele>
        <time>2012-04-07T08:49:58Z</time>
      </trkpt>
      <trkpt lat="41.604304" lon="2.083809">
        <ele>334.06</ele>
        <time>2012-04-07T08:50:01Z</time>
      </trkpt>
      <trkpt lat="41.604401" lon="2.083776">
        <ele>339.09</ele>
        <time>2012-04-07T08:50:03Z</time>
      </trkpt>
      <trkpt lat="41.604502" lon="2.083735">
        <ele>339.04</ele>
        <time>2012-04-07T08:50:05Z</time>
      </trkpt>
      <trkpt lat="41.604639" lon="2.083684">
        <ele>339.01</ele>
        <time>2012-04-07T08:50:08Z</time>
      </trkpt>
      <trkpt lat="41.604738" lon="2.083674">
        <ele>341.02</ele>
        <time>2012-04-07T08:50:10Z</time>
      </trkpt>
      <trkpt lat="41.604877" lon="2.083677">
        <ele>343.03</ele>
        <time>2012-04-07T08:50:13Z</time>
      </trkpt>
      <trkpt lat="41.604991" lon="2.083682">
        <ele>343.07</ele>
        <time>2012-04-07T08:50:15Z</time>
      </trkpt>
      <trkpt lat="41.605098" lon="2.083677">
        <ele>342.08</ele>
        <time>2012-04-07T08:50:17Z</time>
      </trkpt>
      <trkpt lat="41.605208" lon="2.083676">
        <ele>343.06</ele>
        <time>2012-04-07T08:50:19Z</time>
      </trkpt>
      <trkpt lat="41.605312" lon="2.083676">
        <ele>348.07</ele>
        <time>2012-04-07T08:50:21Z</time>
      </trkpt>
      <trkpt lat="41.605418" lon="2.083675">
        <ele>346.06</ele>
        <time>2012-04-07T08:50:23Z</time>
      </trkpt>
      <trkpt lat="41.605519" lon="2.083691">
        <ele>347.08</ele>
        <time>2012-04-07T08:50:25Z</time>
      </trkpt>
      <trkpt lat="41.605628" lon="2.083702">
        <ele>347.09</ele>
        <time>2012-04-07T08:50:27Z</time>
      </trkpt>
      <trkpt lat="41.605755" lon="2.083706">
        <ele>344.04</ele>
        <time>2012-04-07T08:50:29Z</time>
      </trkpt>
      <trkpt lat="41.605873" lon="2.083703">
        <ele>346.01</ele>
        <time>2012-04-07T08:50:31Z</time>
      </trkpt>
      <trkpt lat="41.606023" lon="2.083680">
        <ele>344.03</ele>
        <time>2012-04-07T08:50:34Z</time>
      </trkpt>
      <trkpt lat="41.606143" lon="2.083659">
        <ele>347.06</ele>
        <time>2012-04-07T08:50:37Z</time>
      </trkpt>
      <trkpt lat="41.606282" lon="2.083639">
        <ele>347.09</ele>
        <time>2012-04-07T08:50:40Z</time>
      </trkpt>
      <trkpt lat="41.606416" lon="2.083601">
        <ele>343.04</ele>
        <time>2012-04-07T08:50:43Z</time>
      </trkpt>
      <trkpt lat="41.606515" lon="2.083566">
        <ele>346.03</ele>
        <time>2012-04-07T08:50:45Z</time>
      </trkpt>
      <trkpt lat="41.606614" lon="2.083539">
        <ele>342.08</ele>
        <time>2012-04-07T08:50:47Z</time>
      </trkpt>
      <trkpt lat="41.606754" lon="2.083478">
        <ele>344.04</ele>
        <time>2012-04-07T08:50:50Z</time>
      </trkpt>
      <trkpt lat="41.606885" lon="2.083428">
        <ele>340.07</ele>
        <time>2012-04-07T08:50:53Z</time>
      </trkpt>
      <trkpt lat="41.607008" lon="2.083381">
        <ele>342.07</ele>
        <time>2012-04-07T08:50:56Z</time>
      </trkpt>
      <trkpt lat="41.607135" lon="2.083348">
        <ele>343.05</ele>
        <time>2012-04-07T08:50:59Z</time>
      </trkpt>
      <trkpt lat="41.607233" lon="2.083316">
        <ele>345.01</ele>
        <time>2012-04-07T08:51:01Z</time>
      </trkpt>
      <trkpt lat="41.607339" lon="2.083286">
        <ele>347.02</ele>
        <time>2012-04-07T08:51:03Z</time>
      </trkpt>
      <trkpt lat="41.607448" lon="2.083261">
        <ele>349.02</ele>
        <time>2012-04-07T08:51:05Z</time>
      </trkpt>
      <trkpt lat="41.607548" lon="2.083239">
        <ele>351.10</ele>
        <time>2012-04-07T08:51:07Z</time>
      </trkpt>
      <trkpt lat="41.607688" lon="2.083202">
        <ele>346.07</ele>
        <time>2012-04-07T08:51:10Z</time>
      </trkpt>
      <trkpt lat="41.607794" lon="2.083175">
        <ele>345.02</ele>
        <time>2012-04-07T08:51:12Z</time>
      </trkpt>
      <trkpt lat="41.607910" lon="2.083146">
        <ele>345.09</ele>
        <time>2012-04-07T08:51:14Z</time>
      </trkpt>
      <trkpt lat="41.608007" lon="2.083115">
        <ele>346.07</ele>
        <time>2012-04-07T08:51:16Z</time>
      </trkpt>
      <trkpt lat="41.608111" lon="2.083075">
        <ele>346.03</ele>
        <time>2012-04-07T08:51:18Z</time>
      </trkpt>
      <trkpt lat="41.608195" lon="2.082998">
        <ele>346.07</ele>
        <time>2012-04-07T08:51:20Z</time>
      </trkpt>
      <trkpt lat="41.608279" lon="2.082915">
        <ele>347.06</ele>
        <time>2012-04-07T08:51:22Z</time>
      </trkpt>
      <trkpt lat="41.608372" lon="2.082836">
        <ele>347.01</ele>
        <time>2012-04-07T08:51:24Z</time>
      </trkpt>
      <trkpt lat="41.608471" lon="2.082767">
        <ele>348.02</ele>
        <time>2012-04-07T08:51:26Z</time>
      </trkpt>
      <trkpt lat="41.608579" lon="2.082723">
        <ele>349.10</ele>
        <time>2012-04-07T08:51:28Z</time>
      </trkpt>
      <trkpt lat="41.608692" lon="2.082689">
        <ele>349.02</ele>
        <time>2012-04-07T08:51:30Z</time>
      </trkpt>
      <trkpt lat="41.608808" lon="2.082673">
        <ele>348.04</ele>
        <time>2012-04-07T08:51:32Z</time>
      </trkpt>
      <trkpt lat="41.608917" lon="2.082674">
        <ele>347.07</ele>
        <time>2012-04-07T08:51:34Z</time>
      </trkpt>
      <trkpt lat="41.609025" lon="2.082684">
        <ele>348.04</ele>
        <time>2012-04-07T08:51:36Z</time>
      </trkpt>
      <trkpt lat="41.609132" lon="2.082693">
        <ele>349.02</ele>
        <time>2012-04-07T08:51:38Z</time>
      </trkpt>
      <trkpt lat="41.609272" lon="2.082631">
        <ele>350.09</ele>
        <time>2012-04-07T08:51:41Z</time>
      </trkpt>
      <trkpt lat="41.609406" lon="2.082557">
        <ele>351.05</ele>
        <time>2012-04-07T08:51:44Z</time>
      </trkpt>
      <trkpt lat="41.609502" lon="2.082498">
        <ele>353.07</ele>
        <time>2012-04-07T08:51:46Z</time>
      </trkpt>
      <trkpt lat="41.609591" lon="2.082439">
        <ele>352.01</ele>
        <time>2012-04-07T08:51:48Z</time>
      </trkpt>
      <trkpt lat="41.609720" lon="2.082358">
        <ele>352.02</ele>
        <time>2012-04-07T08:51:51Z</time>
      </trkpt>
      <trkpt lat="41.609852" lon="2.082292">
        <ele>353.02</ele>
        <time>2012-04-07T08:51:54Z</time>
      </trkpt>
      <trkpt lat="41.609988" lon="2.082253">
        <ele>353.04</ele>
        <time>2012-04-07T08:51:57Z</time>
      </trkpt>
      <trkpt lat="41.610119" lon="2.082219">
        <ele>353.09</ele>
        <time>2012-04-07T08:52:00Z</time>
      </trkpt>
      <trkpt lat="41.610222" lon="2.082181">
        <ele>351.06</ele>
        <time>2012-04-07T08:52:03Z</time>
      </trkpt>
      <trkpt lat="41.610348" lon="2.082146">
        <ele>349.05</ele>
        <time>2012-04-07T08:52:06Z</time>
      </trkpt>
      <trkpt lat="41.610447" lon="2.082121">
        <ele>349.07</ele>
        <time>2012-04-07T08:52:08Z</time>
      </trkpt>
      <trkpt lat="41.610556" lon="2.082100">
        <ele>349.05</ele>
        <time>2012-04-07T08:52:10Z</time>
      </trkpt>
      <trkpt lat="41.610670" lon="2.082071">
        <ele>349.02</ele>
        <time>2012-04-07T08:52:12Z</time>
      </trkpt>
      <trkpt lat="41.610769" lon="2.082037">
        <ele>347.04</ele>
        <time>2012-04-07T08:52:14Z</time>
      </trkpt>
      <trkpt lat="41.610867" lon="2.082006">
        <ele>347.01</ele>
        <time>2012-04-07T08:52:16Z</time>
      </trkpt>
      <trkpt lat="41.611010" lon="2.081961">
        <ele>342.02</ele>
        <time>2012-04-07T08:52:19Z</time>
      </trkpt>
      <trkpt lat="41.611151" lon="2.081920">
        <ele>346.06</ele>
        <time>2012-04-07T08:52:22Z</time>
      </trkpt>
      <trkpt lat="41.611286" lon="2.081875">
        <ele>348.09</ele>
        <time>2012-04-07T08:52:25Z</time>
      </trkpt>
      <trkpt lat="41.611410" lon="2.081821">
        <ele>345.02</ele>
        <time>2012-04-07T08:52:28Z</time>
      </trkpt>
      <trkpt lat="41.611536" lon="2.081755">
        <ele>346.05</ele>
        <time>2012-04-07T08:52:31Z</time>
      </trkpt>
      <trkpt lat="41.611665" lon="2.081704">
        <ele>347.09</ele>
        <time>2012-04-07T08:52:34Z</time>
      </trkpt>
      <trkpt lat="41.611787" lon="2.081664">
        <ele>348.04</ele>
        <time>2012-04-07T08:52:37Z</time>
      </trkpt>
      <trkpt lat="41.611889" lon="2.081628">
        <ele>350.05</ele>
        <time>2012-04-07T08:52:40Z</time>
      </trkpt>
      <trkpt lat="41.611988" lon="2.081577">
        <ele>351.09</ele>
        <time>2012-04-07T08:52:43Z</time>
      </trkpt>
      <trkpt lat="41.612083" lon="2.081513">
        <ele>353.05</ele>
        <time>2012-04-07T08:52:47Z</time>
      </trkpt>
      <trkpt lat="41.612158" lon="2.081413">
        <ele>358.01</ele>
        <time>2012-04-07T08:52:51Z</time>
      </trkpt>
      <trkpt lat="41.612259" lon="2.081339">
        <ele>360.02</ele>
        <time>2012-04-07T08:52:57Z</time>
      </trkpt>
      <trkpt lat="41.612364" lon="2.081307">
        <ele>356.01</ele>
        <time>2012-04-07T08:53:01Z</time>
      </trkpt>
      <trkpt lat="41.612476" lon="2.081268">
        <ele>354.02</ele>
        <time>2012-04-07T08:53:05Z</time>
      </trkpt>
      <trkpt lat="41.612600" lon="2.081212">
        <ele>356.04</ele>
        <time>2012-04-07T08:53:08Z</time>
      </trkpt>
      <trkpt lat="41.612735" lon="2.081134">
        <ele>353.03</ele>
        <time>2012-04-07T08:53:11Z</time>
      </trkpt>
      <trkpt lat="41.612835" lon="2.081119">
        <ele>354.10</ele>
        <time>2012-04-07T08:53:13Z</time>
      </trkpt>
      <trkpt lat="41.612955" lon="2.081157">
        <ele>355.05</ele>
        <time>2012-04-07T08:53:16Z</time>
      </trkpt>
      <trkpt lat="41.613051" lon="2.081268">
        <ele>355.05</ele>
        <time>2012-04-07T08:53:19Z</time>
      </trkpt>
      <trkpt lat="41.613119" lon="2.081365">
        <ele>350.02</ele>
        <time>2012-04-07T08:53:21Z</time>
      </trkpt>
      <trkpt lat="41.613220" lon="2.081475">
        <ele>350.04</ele>
        <time>2012-04-07T08:53:24Z</time>
      </trkpt>
      <trkpt lat="41.613310" lon="2.081580">
        <ele>354.01</ele>
        <time>2012-04-07T08:53:27Z</time>
      </trkpt>
      <trkpt lat="41.613387" lon="2.081686">
        <ele>350.02</ele>
        <time>2012-04-07T08:53:30Z</time>
      </trkpt>
      <trkpt lat="41.613483" lon="2.081814">
        <ele>348.03</ele>
        <time>2012-04-07T08:53:34Z</time>
      </trkpt>
      <trkpt lat="41.613556" lon="2.081912">
        <ele>348.05</ele>
        <time>2012-04-07T08:53:37Z</time>
      </trkpt>
      <trkpt lat="41.613625" lon="2.082015">
        <ele>353.05</ele>
        <time>2012-04-07T08:53:40Z</time>
      </trkpt>
      <trkpt lat="41.613701" lon="2.082143">
        <ele>351.02</ele>
        <time>2012-04-07T08:53:44Z</time>
      </trkpt>
      <trkpt lat="41.613762" lon="2.082252">
        <ele>352.08</ele>
        <time>2012-04-07T08:53:47Z</time>
      </trkpt>
      <trkpt lat="41.613822" lon="2.082368">
        <ele>351.09</ele>
        <time>2012-04-07T08:53:50Z</time>
      </trkpt>
      <trkpt lat="41.613881" lon="2.082489">
        <ele>352.07</ele>
        <time>2012-04-07T08:53:53Z</time>
      </trkpt>
      <trkpt lat="41.613948" lon="2.082597">
        <ele>354.02</ele>
        <time>2012-04-07T08:53:56Z</time>
      </trkpt>
      <trkpt lat="41.614020" lon="2.082739">
        <ele>358.04</ele>
        <time>2012-04-07T08:54:00Z</time>
      </trkpt>
      <trkpt lat="41.614091" lon="2.082846">
        <ele>360.01</ele>
        <time>2012-04-07T08:54:05Z</time>
      </trkpt>
      <trkpt lat="41.614180" lon="2.083020">
        <ele>368.02</ele>
        <time>2012-04-07T08:54:13Z</time>
      </trkpt>
      <trkpt lat="41.614270" lon="2.083122">
        <ele>368.08</ele>
        <time>2012-04-07T08:54:17Z</time>
      </trkpt>
      <trkpt lat="41.614354" lon="2.083200">
        <ele>365.07</ele>
        <time>2012-04-07T08:54:20Z</time>
      </trkpt>
      <trkpt lat="41.614436" lon="2.083293">
        <ele>362.07</ele>
        <time>2012-04-07T08:54:23Z</time>
      </trkpt>
      <trkpt lat="41.614517" lon="2.083432">
        <ele>363.08</ele>
        <time>2012-04-07T08:54:26Z</time>
      </trkpt>
      <trkpt lat="41.614576" lon="2.083551">
        <ele>363.06</ele>
        <time>2012-04-07T08:54:28Z</time>
      </trkpt>
      <trkpt lat="41.614655" lon="2.083703">
        <ele>360.08</ele>
        <time>2012-04-07T08:54:30Z</time>
      </trkpt>
      <trkpt lat="41.614742" lon="2.083838">
        <ele>359.01</ele>
        <time>2012-04-07T08:54:32Z</time>
      </trkpt>
      <trkpt lat="41.614841" lon="2.083946">
        <ele>360.04</ele>
        <time>2012-04-07T08:54:34Z</time>
      </trkpt>
      <trkpt lat="41.614935" lon="2.084050">
        <ele>369.04</ele>
        <time>2012-04-07T08:54:36Z</time>
      </trkpt>
      <trkpt lat="41.615029" lon="2.084183">
        <ele>369.01</ele>
        <time>2012-04-07T08:54:38Z</time>
      </trkpt>
      <trkpt lat="41.615113" lon="2.084323">
        <ele>371.02</ele>
        <time>2012-04-07T08:54:40Z</time>
      </trkpt>
      <trkpt lat="41.615190" lon="2.084480">
        <ele>370.09</ele>
        <time>2012-04-07T08:54:42Z</time>
      </trkpt>
      <trkpt lat="41.615255" lon="2.084641">
        <ele>371.03</ele>
        <time>2012-04-07T08:54:44Z</time>
      </trkpt>
      <trkpt lat="41.615312" lon="2.084782">
        <ele>370.04</ele>
        <time>2012-04-07T08:54:46Z</time>
      </trkpt>
      <trkpt lat="41.615370" lon="2.084908">
        <ele>369.02</ele>
        <time>2012-04-07T08:54:48Z</time>
      </trkpt>
      <trkpt lat="41.615430" lon="2.085016">
        <ele>369.03</ele>
        <time>2012-04-07T08:54:50Z</time>
      </trkpt>
      <trkpt lat="41.615514" lon="2.085169">
        <ele>374.06</ele>
        <time>2012-04-07T08:54:52Z</time>
      </trkpt>
      <trkpt lat="41.615614" lon="2.085329">
        <ele>378.07</ele>
        <time>2012-04-07T08:54:54Z</time>
      </trkpt>
      <trkpt lat="41.615714" lon="2.085478">
        <ele>378.07</ele>
        <time>2012-04-07T08:54:56Z</time>
      </trkpt>
      <trkpt lat="41.615811" lon="2.085610">
        <ele>377.07</ele>
        <time>2012-04-07T08:54:58Z</time>
      </trkpt>
      <trkpt lat="41.615895" lon="2.085726">
        <ele>379.01</ele>
        <time>2012-04-07T08:55:00Z</time>
      </trkpt>
      <trkpt lat="41.615970" lon="2.085838">
        <ele>379.02</ele>
        <time>2012-04-07T08:55:02Z</time>
      </trkpt>
      <trkpt lat="41.616047" lon="2.085938">
        <ele>379.03</ele>
        <time>2012-04-07T08:55:04Z</time>
      </trkpt>
      <trkpt lat="41.616141" lon="2.086082">
        <ele>376.10</ele>
        <time>2012-04-07T08:55:07Z</time>
      </trkpt>
      <trkpt lat="41.616208" lon="2.086206">
        <ele>377.03</ele>
        <time>2012-04-07T08:55:10Z</time>
      </trkpt>
      <trkpt lat="41.616287" lon="2.086292">
        <ele>378.02</ele>
        <time>2012-04-07T08:55:13Z</time>
      </trkpt>
      <trkpt lat="41.616370" lon="2.086390">
        <ele>380.07</ele>
        <time>2012-04-07T08:55:16Z</time>
      </trkpt>
      <trkpt lat="41.616447" lon="2.086498">
        <ele>383.02</ele>
        <time>2012-04-07T08:55:18Z</time>
      </trkpt>
      <trkpt lat="41.616525" lon="2.086595">
        <ele>384.01</ele>
        <time>2012-04-07T08:55:20Z</time>
      </trkpt>
      <trkpt lat="41.616611" lon="2.086681">
        <ele>383.07</ele>
        <time>2012-04-07T08:55:22Z</time>
      </trkpt>
      <trkpt lat="41.616726" lon="2.086753">
        <ele>384.01</ele>
        <time>2012-04-07T08:55:24Z</time>
      </trkpt>
      <trkpt lat="41.616833" lon="2.086811">
        <ele>385.01</ele>
        <time>2012-04-07T08:55:26Z</time>
      </trkpt>
      <trkpt lat="41.616943" lon="2.086864">
        <ele>387.01</ele>
        <time>2012-04-07T08:55:28Z</time>
      </trkpt>
      <trkpt lat="41.617077" lon="2.086902">
        <ele>388.08</ele>
        <time>2012-04-07T08:55:30Z</time>
      </trkpt>
      <trkpt lat="41.617219" lon="2.086928">
        <ele>388.02</ele>
        <time>2012-04-07T08:55:32Z</time>
      </trkpt>
      <trkpt lat="41.617371" lon="2.086948">
        <ele>391.10</ele>
        <time>2012-04-07T08:55:34Z</time>
      </trkpt>
      <trkpt lat="41.617523" lon="2.086985">
        <ele>391.01</ele>
        <time>2012-04-07T08:55:36Z</time>
      </trkpt>
      <trkpt lat="41.617676" lon="2.086986">
        <ele>391.04</ele>
        <time>2012-04-07T08:55:38Z</time>
      </trkpt>
      <trkpt lat="41.617838" lon="2.086982">
        <ele>390.08</ele>
        <time>2012-04-07T08:55:40Z</time>
      </trkpt>
      <trkpt lat="41.617997" lon="2.087027">
        <ele>390.02</ele>
        <time>2012-04-07T08:55:42Z</time>
      </trkpt>
      <trkpt lat="41.618148" lon="2.087095">
        <ele>389.04</ele>
        <time>2012-04-07T08:55:44Z</time>
      </trkpt>
      <trkpt lat="41.618251" lon="2.087214">
        <ele>389.07</ele>
        <time>2012-04-07T08:55:46Z</time>
      </trkpt>
      <trkpt lat="41.618328" lon="2.087356">
        <ele>390.01</ele>
        <time>2012-04-07T08:55:48Z</time>
      </trkpt>
      <trkpt lat="41.618446" lon="2.087445">
        <ele>390.01</ele>
        <time>2012-04-07T08:55:50Z</time>
      </trkpt>
      <trkpt lat="41.618551" lon="2.087454">
        <ele>393.02</ele>
        <time>2012-04-07T08:55:52Z</time>
      </trkpt>
      <trkpt lat="41.618661" lon="2.087449">
        <ele>392.03</ele>
        <time>2012-04-07T08:55:54Z</time>
      </trkpt>
      <trkpt lat="41.618768" lon="2.087435">
        <ele>387.10</ele>
        <time>2012-04-07T08:55:56Z</time>
      </trkpt>
      <trkpt lat="41.618868" lon="2.087413">
        <ele>388.10</ele>
        <time>2012-04-07T08:55:58Z</time>
      </trkpt>
      <trkpt lat="41.619007" lon="2.087389">
        <ele>393.06</ele>
        <time>2012-04-07T08:56:01Z</time>
      </trkpt>
      <trkpt lat="41.619152" lon="2.087413">
        <ele>398.03</ele>
        <time>2012-04-07T08:56:04Z</time>
      </trkpt>
      <trkpt lat="41.619261" lon="2.087444">
        <ele>397.05</ele>
        <time>2012-04-07T08:56:06Z</time>
      </trkpt>
      <trkpt lat="41.619361" lon="2.087488">
        <ele>398.09</ele>
        <time>2012-04-07T08:56:08Z</time>
      </trkpt>
      <trkpt lat="41.619455" lon="2.087557">
        <ele>397.03</ele>
        <time>2012-04-07T08:56:10Z</time>
      </trkpt>
      <trkpt lat="41.619550" lon="2.087617">
        <ele>394.01</ele>
        <time>2012-04-07T08:56:12Z</time>
      </trkpt>
      <trkpt lat="41.619648" lon="2.087669">
        <ele>394.01</ele>
        <time>2012-04-07T08:56:14Z</time>
      </trkpt>
      <trkpt lat="41.619749" lon="2.087713">
        <ele>395.01</ele>
        <time>2012-04-07T08:56:16Z</time>
      </trkpt>
      <trkpt lat="41.619863" lon="2.087758">
        <ele>394.04</ele>
        <time>2012-04-07T08:56:18Z</time>
      </trkpt>
      <trkpt lat="41.619975" lon="2.087802">
        <ele>392.04</ele>
        <time>2012-04-07T08:56:20Z</time>
      </trkpt>
      <trkpt lat="41.620116" lon="2.087884">
        <ele>390.09</ele>
        <time>2012-04-07T08:56:23Z</time>
      </trkpt>
      <trkpt lat="41.620211" lon="2.087958">
        <ele>392.08</ele>
        <time>2012-04-07T08:56:26Z</time>
      </trkpt>
      <trkpt lat="41.620351" lon="2.087942">
        <ele>398.09</ele>
        <time>2012-04-07T08:56:30Z</time>
      </trkpt>
      <trkpt lat="41.620435" lon="2.087856">
        <ele>398.02</ele>
        <time>2012-04-07T08:56:37Z</time>
      </trkpt>
      <trkpt lat="41.620505" lon="2.087939">
        <ele>396.03</ele>
        <time>2012-04-07T08:56:47Z</time>
      </trkpt>
      <trkpt lat="41.620594" lon="2.088030">
        <ele>395.10</ele>
        <time>2012-04-07T08:56:52Z</time>
      </trkpt>
      <trkpt lat="41.620665" lon="2.088155">
        <ele>391.01</ele>
        <time>2012-04-07T08:56:56Z</time>
      </trkpt>
      <trkpt lat="41.620725" lon="2.088291">
        <ele>392.01</ele>
        <time>2012-04-07T08:56:59Z</time>
      </trkpt>
      <trkpt lat="41.620800" lon="2.088446">
        <ele>392.04</ele>
        <time>2012-04-07T08:57:02Z</time>
      </trkpt>
      <trkpt lat="41.620933" lon="2.088516">
        <ele>392.07</ele>
        <time>2012-04-07T08:57:05Z</time>
      </trkpt>
      <trkpt lat="41.621042" lon="2.088517">
        <ele>390.03</ele>
        <time>2012-04-07T08:57:07Z</time>
      </trkpt>
      <trkpt lat="41.621155" lon="2.088481">
        <ele>392.07</ele>
        <time>2012-04-07T08:57:09Z</time>
      </trkpt>
      <trkpt lat="41.621260" lon="2.088441">
        <ele>394.08</ele>
        <time>2012-04-07T08:57:11Z</time>
      </trkpt>
      <trkpt lat="41.621356" lon="2.088408">
        <ele>394.04</ele>
        <time>2012-04-07T08:57:13Z</time>
      </trkpt>
      <trkpt lat="41.621498" lon="2.088418">
        <ele>397.06</ele>
        <time>2012-04-07T08:57:16Z</time>
      </trkpt>
      <trkpt lat="41.621637" lon="2.088467">
        <ele>395.04</ele>
        <time>2012-04-07T08:57:19Z</time>
      </trkpt>
      <trkpt lat="41.621766" lon="2.088543">
        <ele>396.08</ele>
        <time>2012-04-07T08:57:22Z</time>
      </trkpt>
      <trkpt lat="41.621875" lon="2.088629">
        <ele>400.01</ele>
        <time>2012-04-07T08:57:25Z</time>
      </trkpt>
      <trkpt lat="41.621956" lon="2.088706">
        <ele>401.03</ele>
        <time>2012-04-07T08:57:29Z</time>
      </trkpt>
      <trkpt lat="41.622017" lon="2.088741">
        <ele>397.03</ele>
        <time>2012-04-07T08:57:40Z</time>
      </trkpt>
      <trkpt lat="41.622101" lon="2.088659">
        <ele>399.08</ele>
        <time>2012-04-07T08:57:44Z</time>
      </trkpt>
      <trkpt lat="41.622184" lon="2.088568">
        <ele>399.05</ele>
        <time>2012-04-07T08:57:46Z</time>
      </trkpt>
      <trkpt lat="41.622277" lon="2.088466">
        <ele>399.03</ele>
        <time>2012-04-07T08:57:48Z</time>
      </trkpt>
      <trkpt lat="41.622381" lon="2.088367">
        <ele>399.03</ele>
        <time>2012-04-07T08:57:50Z</time>
      </trkpt>
      <trkpt lat="41.622490" lon="2.088275">
        <ele>400.02</ele>
        <time>2012-04-07T08:57:52Z</time>
      </trkpt>
      <trkpt lat="41.622615" lon="2.088191">
        <ele>401.01</ele>
        <time>2012-04-07T08:57:54Z</time>
      </trkpt>
      <trkpt lat="41.622751" lon="2.088156">
        <ele>401.01</ele>
        <time>2012-04-07T08:57:56Z</time>
      </trkpt>
      <trkpt lat="41.622896" lon="2.088146">
        <ele>403.03</ele>
        <time>2012-04-07T08:57:58Z</time>
      </trkpt>
      <trkpt lat="41.623035" lon="2.088161">
        <ele>404.01</ele>
        <time>2012-04-07T08:58:00Z</time>
      </trkpt>
      <trkpt lat="41.623186" lon="2.088195">
        <ele>404.01</ele>
        <time>2012-04-07T08:58:02Z</time>
      </trkpt>
      <trkpt lat="41.623337" lon="2.088230">
        <ele>406.00</ele>
        <time>2012-04-07T08:58:04Z</time>
      </trkpt>
      <trkpt lat="41.623476" lon="2.088274">
        <ele>406.05</ele>
        <time>2012-04-07T08:58:06Z</time>
      </trkpt>
      <trkpt lat="41.623590" lon="2.088312">
        <ele>405.10</ele>
        <time>2012-04-07T08:58:08Z</time>
      </trkpt>
      <trkpt lat="41.623698" lon="2.088351">
        <ele>406.04</ele>
        <time>2012-04-07T08:58:10Z</time>
      </trkpt>
      <trkpt lat="41.623806" lon="2.088382">
        <ele>407.01</ele>
        <time>2012-04-07T08:58:12Z</time>
      </trkpt>
      <trkpt lat="41.623920" lon="2.088402">
        <ele>407.08</ele>
        <time>2012-04-07T08:58:14Z</time>
      </trkpt>
      <trkpt lat="41.624045" lon="2.088420">
        <ele>412.02</ele>
        <time>2012-04-07T08:58:16Z</time>
      </trkpt>
      <trkpt lat="41.624192" lon="2.088442">
        <ele>417.06</ele>
        <time>2012-04-07T08:58:18Z</time>
      </trkpt>
      <trkpt lat="41.624341" lon="2.088504">
        <ele>418.03</ele>
        <time>2012-04-07T08:58:20Z</time>
      </trkpt>
      <trkpt lat="41.624473" lon="2.088605">
        <ele>418.01</ele>
        <time>2012-04-07T08:58:22Z</time>
      </trkpt>
      <trkpt lat="41.624620" lon="2.088698">
        <ele>416.02</ele>
        <time>2012-04-07T08:58:24Z</time>
      </trkpt>
      <trkpt lat="41.624748" lon="2.088764">
        <ele>415.00</ele>
        <time>2012-04-07T08:58:26Z</time>
      </trkpt>
      <trkpt lat="41.624887" lon="2.088850">
        <ele>420.03</ele>
        <time>2012-04-07T08:58:28Z</time>
      </trkpt>
      <trkpt lat="41.625026" lon="2.088933">
        <ele>426.09</ele>
        <time>2012-04-07T08:58:30Z</time>
      </trkpt>
      <trkpt lat="41.625171" lon="2.089017">
        <ele>427.04</ele>
        <time>2012-04-07T08:58:32Z</time>
      </trkpt>
      <trkpt lat="41.625319" lon="2.089109">
        <ele>426.09</ele>
        <time>2012-04-07T08:58:34Z</time>
      </trkpt>
      <trkpt lat="41.625463" lon="2.089199">
        <ele>425.05</ele>
        <time>2012-04-07T08:58:36Z</time>
      </trkpt>
      <trkpt lat="41.625616" lon="2.089298">
        <ele>424.02</ele>
        <time>2012-04-07T08:58:38Z</time>
      </trkpt>
      <trkpt lat="41.625765" lon="2.089406">
        <ele>425.09</ele>
        <time>2012-04-07T08:58:40Z</time>
      </trkpt>
      <trkpt lat="41.625932" lon="2.089511">
        <ele>424.02</ele>
        <time>2012-04-07T08:58:42Z</time>
      </trkpt>
      <trkpt lat="41.626094" lon="2.089597">
        <ele>423.01</ele>
        <time>2012-04-07T08:58:44Z</time>
      </trkpt>
      <trkpt lat="41.626243" lon="2.089664">
        <ele>424.02</ele>
        <time>2012-04-07T08:58:46Z</time>
      </trkpt>
      <trkpt lat="41.626390" lon="2.089682">
        <ele>422.02</ele>
        <time>2012-04-07T08:58:48Z</time>
      </trkpt>
      <trkpt lat="41.626542" lon="2.089665">
        <ele>423.08</ele>
        <time>2012-04-07T08:58:50Z</time>
      </trkpt>
      <trkpt lat="41.626691" lon="2.089619">
        <ele>424.08</ele>
        <time>2012-04-07T08:58:52Z</time>
      </trkpt>
      <trkpt lat="41.626849" lon="2.089595">
        <ele>427.05</ele>
        <time>2012-04-07T08:58:54Z</time>
      </trkpt>
      <trkpt lat="41.627002" lon="2.089603">
        <ele>427.07</ele>
        <time>2012-04-07T08:58:56Z</time>
      </trkpt>
      <trkpt lat="41.627159" lon="2.089635">
        <ele>427.01</ele>
        <time>2012-04-07T08:58:58Z</time>
      </trkpt>
      <trkpt lat="41.627331" lon="2.089676">
        <ele>431.04</ele>
        <time>2012-04-07T08:59:00Z</time>
      </trkpt>
      <trkpt lat="41.627508" lon="2.089746">
        <ele>430.04</ele>
        <time>2012-04-07T08:59:02Z</time>
      </trkpt>
      <trkpt lat="41.627683" lon="2.089819">
        <ele>431.06</ele>
        <time>2012-04-07T08:59:04Z</time>
      </trkpt>
      <trkpt lat="41.627853" lon="2.089889">
        <ele>430.01</ele>
        <time>2012-04-07T08:59:06Z</time>
      </trkpt>
      <trkpt lat="41.628007" lon="2.089946">
        <ele>429.02</ele>
        <time>2012-04-07T08:59:08Z</time>
      </trkpt>
      <trkpt lat="41.628169" lon="2.090006">
        <ele>429.01</ele>
        <time>2012-04-07T08:59:10Z</time>
      </trkpt>
      <trkpt lat="41.628333" lon="2.090012">
        <ele>430.08</ele>
        <time>2012-04-07T08:59:12Z</time>
      </trkpt>
      <trkpt lat="41.628497" lon="2.089949">
        <ele>436.06</ele>
        <time>2012-04-07T08:59:14Z</time>
      </trkpt>
      <trkpt lat="41.628677" lon="2.089858">
        <ele>439.02</ele>
        <time>2012-04-07T08:59:16Z</time>
      </trkpt>
      <trkpt lat="41.628825" lon="2.089779">
        <ele>444.10</ele>
        <time>2012-04-07T08:59:18Z</time>
      </trkpt>
      <trkpt lat="41.628964" lon="2.089708">
        <ele>441.07</ele>
        <time>2012-04-07T08:59:20Z</time>
      </trkpt>
      <trkpt lat="41.629094" lon="2.089657">
        <ele>444.10</ele>
        <time>2012-04-07T08:59:22Z</time>
      </trkpt>
      <trkpt lat="41.629232" lon="2.089624">
        <ele>446.04</ele>
        <time>2012-04-07T08:59:24Z</time>
      </trkpt>
      <trkpt lat="41.629365" lon="2.089680">
        <ele>448.06</ele>
        <time>2012-04-07T08:59:26Z</time>
      </trkpt>
      <trkpt lat="41.629495" lon="2.089773">
        <ele>449.01</ele>
        <time>2012-04-07T08:59:28Z</time>
      </trkpt>
      <trkpt lat="41.629598" lon="2.089896">
        <ele>446.02</ele>
        <time>2012-04-07T08:59:30Z</time>
      </trkpt>
      <trkpt lat="41.629718" lon="2.090015">
        <ele>446.04</ele>
        <time>2012-04-07T08:59:32Z</time>
      </trkpt>
      <trkpt lat="41.629861" lon="2.090072">
        <ele>445.06</ele>
        <time>2012-04-07T08:59:37Z</time>
      </trkpt>
      <trkpt lat="41.629987" lon="2.090000">
        <ele>446.09</ele>
        <time>2012-04-07T08:59:39Z</time>
      </trkpt>
      <trkpt lat="41.630120" lon="2.089938">
        <ele>447.06</ele>
        <time>2012-04-07T08:59:41Z</time>
      </trkpt>
      <trkpt lat="41.630276" lon="2.089878">
        <ele>447.04</ele>
        <time>2012-04-07T08:59:43Z</time>
      </trkpt>
      <trkpt lat="41.630448" lon="2.089815">
        <ele>448.04</ele>
        <time>2012-04-07T08:59:45Z</time>
      </trkpt>
      <trkpt lat="41.630544" lon="2.089780">
        <ele>448.08</ele>
        <time>2012-04-07T08:59:46Z</time>
      </trkpt>
      <trkpt lat="41.630728" lon="2.089696">
        <ele>451.06</ele>
        <time>2012-04-07T08:59:48Z</time>
      </trkpt>
      <trkpt lat="41.630824" lon="2.089649">
        <ele>453.06</ele>
        <time>2012-04-07T08:59:49Z</time>
      </trkpt>
      <trkpt lat="41.630917" lon="2.089604">
        <ele>454.01</ele>
        <time>2012-04-07T08:59:50Z</time>
      </trkpt>
      <trkpt lat="41.631092" lon="2.089527">
        <ele>456.01</ele>
        <time>2012-04-07T08:59:52Z</time>
      </trkpt>
      <trkpt lat="41.631264" lon="2.089468">
        <ele>457.09</ele>
        <time>2012-04-07T08:59:54Z</time>
      </trkpt>
      <trkpt lat="41.631416" lon="2.089421">
        <ele>459.02</ele>
        <time>2012-04-07T08:59:56Z</time>
      </trkpt>
      <trkpt lat="41.631586" lon="2.089393">
        <ele>464.08</ele>
        <time>2012-04-07T08:59:58Z</time>
      </trkpt>
      <trkpt lat="41.631754" lon="2.089428">
        <ele>466.07</ele>
        <time>2012-04-07T09:00:00Z</time>
      </trkpt>
      <trkpt lat="41.631861" lon="2.089557">
        <ele>468.05</ele>
        <time>2012-04-07T09:00:02Z</time>
      </trkpt>
      <trkpt lat="41.631956" lon="2.089710">
        <ele>465.08</ele>
        <time>2012-04-07T09:00:04Z</time>
      </trkpt>
      <trkpt lat="41.632054" lon="2.089761">
        <ele>466.05</ele>
        <time>2012-04-07T09:00:06Z</time>
      </trkpt>
      <trkpt lat="41.632174" lon="2.089804">
        <ele>469.06</ele>
        <time>2012-04-07T09:00:08Z</time>
      </trkpt>
      <trkpt lat="41.632310" lon="2.089754">
        <ele>479.04</ele>
        <time>2012-04-07T09:00:10Z</time>
      </trkpt>
      <trkpt lat="41.632427" lon="2.089727">
        <ele>481.01</ele>
        <time>2012-04-07T09:00:12Z</time>
      </trkpt>
      <trkpt lat="41.632537" lon="2.089756">
        <ele>483.02</ele>
        <time>2012-04-07T09:00:14Z</time>
      </trkpt>
      <trkpt lat="41.632666" lon="2.089793">
        <ele>489.09</ele>
        <time>2012-04-07T09:00:16Z</time>
      </trkpt>
      <trkpt lat="41.632828" lon="2.089840">
        <ele>490.08</ele>
        <time>2012-04-07T09:00:18Z</time>
      </trkpt>
      <trkpt lat="41.633000" lon="2.089903">
        <ele>493.03</ele>
        <time>2012-04-07T09:00:20Z</time>
      </trkpt>
      <trkpt lat="41.633151" lon="2.090006">
        <ele>492.05</ele>
        <time>2012-04-07T09:00:22Z</time>
      </trkpt>
      <trkpt lat="41.633282" lon="2.090146">
        <ele>490.06</ele>
        <time>2012-04-07T09:00:24Z</time>
      </trkpt>
      <trkpt lat="41.633408" lon="2.090294">
        <ele>490.04</ele>
        <time>2012-04-07T09:00:26Z</time>
      </trkpt>
      <trkpt lat="41.633534" lon="2.090405">
        <ele>493.10</ele>
        <time>2012-04-07T09:00:28Z</time>
      </trkpt>
      <trkpt lat="41.633644" lon="2.090550">
        <ele>492.01</ele>
        <time>2012-04-07T09:00:30Z</time>
      </trkpt>
      <trkpt lat="41.633783" lon="2.090623">
        <ele>491.08</ele>
        <time>2012-04-07T09:00:32Z</time>
      </trkpt>
      <trkpt lat="41.633902" lon="2.090666">
        <ele>490.01</ele>
        <time>2012-04-07T09:00:34Z</time>
      </trkpt>
      <trkpt lat="41.634006" lon="2.090730">
        <ele>488.02</ele>
        <time>2012-04-07T09:00:36Z</time>
      </trkpt>
      <trkpt lat="41.634083" lon="2.090830">
        <ele>484.07</ele>
        <time>2012-04-07T09:00:38Z</time>
      </trkpt>
      <trkpt lat="41.634207" lon="2.090810">
        <ele>484.09</ele>
        <time>2012-04-07T09:00:40Z</time>
      </trkpt>
      <trkpt lat="41.634344" lon="2.090738">
        <ele>485.08</ele>
        <time>2012-04-07T09:00:42Z</time>
      </trkpt>
      <trkpt lat="41.634480" lon="2.090678">
        <ele>483.08</ele>
        <time>2012-04-07T09:00:44Z</time>
      </trkpt>
      <trkpt lat="41.634624" lon="2.090652">
        <ele>484.07</ele>
        <time>2012-04-07T09:00:46Z</time>
      </trkpt>
      <trkpt lat="41.634773" lon="2.090658">
        <ele>485.06</ele>
        <time>2012-04-07T09:00:48Z</time>
      </trkpt>
      <trkpt lat="41.634946" lon="2.090665">
        <ele>493.02</ele>
        <time>2012-04-07T09:00:50Z</time>
      </trkpt>
      <trkpt lat="41.635120" lon="2.090653">
        <ele>494.06</ele>
        <time>2012-04-07T09:00:52Z</time>
      </trkpt>
      <trkpt lat="41.635299" lon="2.090617">
        <ele>496.03</ele>
        <time>2012-04-07T09:00:54Z</time>
      </trkpt>
      <trkpt lat="41.635480" lon="2.090561">
        <ele>500.01</ele>
        <time>2012-04-07T09:00:56Z</time>
      </trkpt>
      <trkpt lat="41.635657" lon="2.090579">
        <ele>501.02</ele>
        <time>2012-04-07T09:00:58Z</time>
      </trkpt>
      <trkpt lat="41.635822" lon="2.090624">
        <ele>504.00</ele>
        <time>2012-04-07T09:01:00Z</time>
      </trkpt>
      <trkpt lat="41.635972" lon="2.090648">
        <ele>503.05</ele>
        <time>2012-04-07T09:01:02Z</time>
      </trkpt>
      <trkpt lat="41.636105" lon="2.090641">
        <ele>505.07</ele>
        <time>2012-04-07T09:01:04Z</time>
      </trkpt>
      <trkpt lat="41.636219" lon="2.090542">
        <ele>508.06</ele>
        <time>2012-04-07T09:01:06Z</time>
      </trkpt>
      <trkpt lat="41.636327" lon="2.090405">
        <ele>505.03</ele>
        <time>2012-04-07T09:01:08Z</time>
      </trkpt>
      <trkpt lat="41.636422" lon="2.090249">
        <ele>503.01</ele>
        <time>2012-04-07T09:01:10Z</time>
      </trkpt>
      <trkpt lat="41.636506" lon="2.090120">
        <ele>508.09</ele>
        <time>2012-04-07T09:01:12Z</time>
      </trkpt>
      <trkpt lat="41.636604" lon="2.090019">
        <ele>509.07</ele>
        <time>2012-04-07T09:01:14Z</time>
      </trkpt>
      <trkpt lat="41.636745" lon="2.089958">
        <ele>511.05</ele>
        <time>2012-04-07T09:01:17Z</time>
      </trkpt>
      <trkpt lat="41.636861" lon="2.089963">
        <ele>517.01</ele>
        <time>2012-04-07T09:01:19Z</time>
      </trkpt>
      <trkpt lat="41.636983" lon="2.089983">
        <ele>519.02</ele>
        <time>2012-04-07T09:01:21Z</time>
      </trkpt>
      <trkpt lat="41.637116" lon="2.090014">
        <ele>516.06</ele>
        <time>2012-04-07T09:01:23Z</time>
      </trkpt>
      <trkpt lat="41.637252" lon="2.090079">
        <ele>517.07</ele>
        <time>2012-04-07T09:01:25Z</time>
      </trkpt>
      <trkpt lat="41.637356" lon="2.090186">
        <ele>519.07</ele>
        <time>2012-04-07T09:01:27Z</time>
      </trkpt>
      <trkpt lat="41.637453" lon="2.090334">
        <ele>519.10</ele>
        <time>2012-04-07T09:01:30Z</time>
      </trkpt>
      <trkpt lat="41.637464" lon="2.090498">
        <ele>524.09</ele>
        <time>2012-04-07T09:01:33Z</time>
      </trkpt>
      <trkpt lat="41.637524" lon="2.090659">
        <ele>523.02</ele>
        <time>2012-04-07T09:01:36Z</time>
      </trkpt>
      <trkpt lat="41.637639" lon="2.090703">
        <ele>522.09</ele>
        <time>2012-04-07T09:01:38Z</time>
      </trkpt>
      <trkpt lat="41.637780" lon="2.090670">
        <ele>526.06</ele>
        <time>2012-04-07T09:01:40Z</time>
      </trkpt>
      <trkpt lat="41.637920" lon="2.090682">
        <ele>525.08</ele>
        <time>2012-04-07T09:01:42Z</time>
      </trkpt>
      <trkpt lat="41.638067" lon="2.090701">
        <ele>529.01</ele>
        <time>2012-04-07T09:01:44Z</time>
      </trkpt>
      <trkpt lat="41.638214" lon="2.090712">
        <ele>529.01</ele>
        <time>2012-04-07T09:01:46Z</time>
      </trkpt>
      <trkpt lat="41.638366" lon="2.090663">
        <ele>533.05</ele>
        <time>2012-04-07T09:01:48Z</time>
      </trkpt>
      <trkpt lat="41.638505" lon="2.090613">
        <ele>532.05</ele>
        <time>2012-04-07T09:01:50Z</time>
      </trkpt>
      <trkpt lat="41.638646" lon="2.090607">
        <ele>534.07</ele>
        <time>2012-04-07T09:01:52Z</time>
      </trkpt>
      <trkpt lat="41.638774" lon="2.090622">
        <ele>532.02</ele>
        <time>2012-04-07T09:01:54Z</time>
      </trkpt>
      <trkpt lat="41.638874" lon="2.090612">
        <ele>532.02</ele>
        <time>2012-04-07T09:01:56Z</time>
      </trkpt>
      <trkpt lat="41.638967" lon="2.090490">
        <ele>529.09</ele>
        <time>2012-04-07T09:01:59Z</time>
      </trkpt>
      <trkpt lat="41.639069" lon="2.090367">
        <ele>533.04</ele>
        <time>2012-04-07T09:02:02Z</time>
      </trkpt>
      <trkpt lat="41.639187" lon="2.090313">
        <ele>533.03</ele>
        <time>2012-04-07T09:02:04Z</time>
      </trkpt>
      <trkpt lat="41.639330" lon="2.090249">
        <ele>534.06</ele>
        <time>2012-04-07T09:02:06Z</time>
      </trkpt>
      <trkpt lat="41.639467" lon="2.090177">
        <ele>531.01</ele>
        <time>2012-04-07T09:02:08Z</time>
      </trkpt>
      <trkpt lat="41.639582" lon="2.090057">
        <ele>529.02</ele>
        <time>2012-04-07T09:02:10Z</time>
      </trkpt>
      <trkpt lat="41.639697" lon="2.089956">
        <ele>531.07</ele>
        <time>2012-04-07T09:02:12Z</time>
      </trkpt>
      <trkpt lat="41.639812" lon="2.089892">
        <ele>531.09</ele>
        <time>2012-04-07T09:02:14Z</time>
      </trkpt>
      <trkpt lat="41.639942" lon="2.089884">
        <ele>531.05</ele>
        <time>2012-04-07T09:02:16Z</time>
      </trkpt>
      <trkpt lat="41.640107" lon="2.089872">
        <ele>535.03</ele>
        <time>2012-04-07T09:02:18Z</time>
      </trkpt>
      <trkpt lat="41.640307" lon="2.089855">
        <ele>540.02</ele>
        <time>2012-04-07T09:02:20Z</time>
      </trkpt>
      <trkpt lat="41.640493" lon="2.089844">
        <ele>545.09</ele>
        <time>2012-04-07T09:02:22Z</time>
      </trkpt>
      <trkpt lat="41.640677" lon="2.089891">
        <ele>547.04</ele>
        <time>2012-04-07T09:02:24Z</time>
      </trkpt>
      <trkpt lat="41.640844" lon="2.089952">
        <ele>549.02</ele>
        <time>2012-04-07T09:02:26Z</time>
      </trkpt>
      <trkpt lat="41.640988" lon="2.090020">
        <ele>550.09</ele>
        <time>2012-04-07T09:02:28Z</time>
      </trkpt>
      <trkpt lat="41.641126" lon="2.090091">
        <ele>551.01</ele>
        <time>2012-04-07T09:02:30Z</time>
      </trkpt>
      <trkpt lat="41.641262" lon="2.090130">
        <ele>553.01</ele>
        <time>2012-04-07T09:02:32Z</time>
      </trkpt>
      <trkpt lat="41.641398" lon="2.090153">
        <ele>553.05</ele>
        <time>2012-04-07T09:02:34Z</time>
      </trkpt>
      <trkpt lat="41.641516" lon="2.090235">
        <ele>555.04</ele>
        <time>2012-04-07T09:02:36Z</time>
      </trkpt>
      <trkpt lat="41.641617" lon="2.090333">
        <ele>559.06</ele>
        <time>2012-04-07T09:02:38Z</time>
      </trkpt>
      <trkpt lat="41.641683" lon="2.090475">
        <ele>556.04</ele>
        <time>2012-04-07T09:02:40Z</time>
      </trkpt>
      <trkpt lat="41.641725" lon="2.090624">
        <ele>554.06</ele>
        <time>2012-04-07T09:02:42Z</time>
      </trkpt>
      <trkpt lat="41.641766" lon="2.090751">
        <ele>556.01</ele>
        <time>2012-04-07T09:02:44Z</time>
      </trkpt>
      <trkpt lat="41.641897" lon="2.090803">
        <ele>554.04</ele>
        <time>2012-04-07T09:02:47Z</time>
      </trkpt>
      <trkpt lat="41.642000" lon="2.090765">
        <ele>556.02</ele>
        <time>2012-04-07T09:02:49Z</time>
      </trkpt>
      <trkpt lat="41.642113" lon="2.090698">
        <ele>559.03</ele>
        <time>2012-04-07T09:02:51Z</time>
      </trkpt>
      <trkpt lat="41.642221" lon="2.090675">
        <ele>563.01</ele>
        <time>2012-04-07T09:02:53Z</time>
      </trkpt>
      <trkpt lat="41.642332" lon="2.090727">
        <ele>568.02</ele>
        <time>2012-04-07T09:02:55Z</time>
      </trkpt>
      <trkpt lat="41.642439" lon="2.090847">
        <ele>571.08</ele>
        <time>2012-04-07T09:02:57Z</time>
      </trkpt>
      <trkpt lat="41.642493" lon="2.091014">
        <ele>575.09</ele>
        <time>2012-04-07T09:02:59Z</time>
      </trkpt>
      <trkpt lat="41.642552" lon="2.091205">
        <ele>573.10</ele>
        <time>2012-04-07T09:03:04Z</time>
      </trkpt>
      <trkpt lat="41.642642" lon="2.091270">
        <ele>575.10</ele>
        <time>2012-04-07T09:03:06Z</time>
      </trkpt>
      <trkpt lat="41.642751" lon="2.091333">
        <ele>579.04</ele>
        <time>2012-04-07T09:03:08Z</time>
      </trkpt>
      <trkpt lat="41.642855" lon="2.091459">
        <ele>583.08</ele>
        <time>2012-04-07T09:03:10Z</time>
      </trkpt>
      <trkpt lat="41.642932" lon="2.091642">
        <ele>584.06</ele>
        <time>2012-04-07T09:03:12Z</time>
      </trkpt>
      <trkpt lat="41.642968" lon="2.091840">
        <ele>585.09</ele>
        <time>2012-04-07T09:03:14Z</time>
      </trkpt>
      <trkpt lat="41.643013" lon="2.091989">
        <ele>585.09</ele>
        <time>2012-04-07T09:03:16Z</time>
      </trkpt>
      <trkpt lat="41.643079" lon="2.092117">
        <ele>587.01</ele>
        <time>2012-04-07T09:03:18Z</time>
      </trkpt>
      <trkpt lat="41.643160" lon="2.092276">
        <ele>591.02</ele>
        <time>2012-04-07T09:03:20Z</time>
      </trkpt>
      <trkpt lat="41.643197" lon="2.092439">
        <ele>592.00</ele>
        <time>2012-04-07T09:03:22Z</time>
      </trkpt>
      <trkpt lat="41.643168" lon="2.092594">
        <ele>592.06</ele>
        <time>2012-04-07T09:03:24Z</time>
      </trkpt>
      <trkpt lat="41.643129" lon="2.092735">
        <ele>592.06</ele>
        <time>2012-04-07T09:03:26Z</time>
      </trkpt>
      <trkpt lat="41.643165" lon="2.092925">
        <ele>592.06</ele>
        <time>2012-04-07T09:03:29Z</time>
      </trkpt>
      <trkpt lat="41.643272" lon="2.093004">
        <ele>592.10</ele>
        <time>2012-04-07T09:03:31Z</time>
      </trkpt>
      <trkpt lat="41.643374" lon="2.093120">
        <ele>592.08</ele>
        <time>2012-04-07T09:03:33Z</time>
      </trkpt>
      <trkpt lat="41.643426" lon="2.093281">
        <ele>591.04</ele>
        <time>2012-04-07T09:03:35Z</time>
      </trkpt>
      <trkpt lat="41.643438" lon="2.093474">
        <ele>591.06</ele>
        <time>2012-04-07T09:03:37Z</time>
      </trkpt>
      <trkpt lat="41.643464" lon="2.093694">
        <ele>592.10</ele>
        <time>2012-04-07T09:03:40Z</time>
      </trkpt>
      <trkpt lat="41.643546" lon="2.093818">
        <ele>593.01</ele>
        <time>2012-04-07T09:03:43Z</time>
      </trkpt>
      <trkpt lat="41.643660" lon="2.093838">
        <ele>599.03</ele>
        <time>2012-04-07T09:03:45Z</time>
      </trkpt>
      <trkpt lat="41.643789" lon="2.093879">
        <ele>601.06</ele>
        <time>2012-04-07T09:03:47Z</time>
      </trkpt>
      <trkpt lat="41.643904" lon="2.094025">
        <ele>607.08</ele>
        <time>2012-04-07T09:03:49Z</time>
      </trkpt>
      <trkpt lat="41.644001" lon="2.094217">
        <ele>607.07</ele>
        <time>2012-04-07T09:03:51Z</time>
      </trkpt>
      <trkpt lat="41.644058" lon="2.094424">
        <ele>609.06</ele>
        <time>2012-04-07T09:03:53Z</time>
      </trkpt>
      <trkpt lat="41.644083" lon="2.094620">
        <ele>608.03</ele>
        <time>2012-04-07T09:03:55Z</time>
      </trkpt>
      <trkpt lat="41.644090" lon="2.094786">
        <ele>607.02</ele>
        <time>2012-04-07T09:03:57Z</time>
      </trkpt>
      <trkpt lat="41.644108" lon="2.094953">
        <ele>610.10</ele>
        <time>2012-04-07T09:03:59Z</time>
      </trkpt>
      <trkpt lat="41.644166" lon="2.095102">
        <ele>609.07</ele>
        <time>2012-04-07T09:04:01Z</time>
      </trkpt>
      <trkpt lat="41.644232" lon="2.095217">
        <ele>609.07</ele>
        <time>2012-04-07T09:04:03Z</time>
      </trkpt>
      <trkpt lat="41.644359" lon="2.095284">
        <ele>609.01</ele>
        <time>2012-04-07T09:04:07Z</time>
      </trkpt>
      <trkpt lat="41.644437" lon="2.095188">
        <ele>610.03</ele>
        <time>2012-04-07T09:04:09Z</time>
      </trkpt>
      <trkpt lat="41.644526" lon="2.095085">
        <ele>612.01</ele>
        <time>2012-04-07T09:04:11Z</time>
      </trkpt>
      <trkpt lat="41.644632" lon="2.094992">
        <ele>614.10</ele>
        <time>2012-04-07T09:04:13Z</time>
      </trkpt>
      <trkpt lat="41.644731" lon="2.094914">
        <ele>613.07</ele>
        <time>2012-04-07T09:04:15Z</time>
      </trkpt>
      <trkpt lat="41.644833" lon="2.094832">
        <ele>618.06</ele>
        <time>2012-04-07T09:04:17Z</time>
      </trkpt>
      <trkpt lat="41.644924" lon="2.094732">
        <ele>619.06</ele>
        <time>2012-04-07T09:04:19Z</time>
      </trkpt>
      <trkpt lat="41.645020" lon="2.094642">
        <ele>618.04</ele>
        <time>2012-04-07T09:04:22Z</time>
      </trkpt>
      <trkpt lat="41.645123" lon="2.094679">
        <ele>620.04</ele>
        <time>2012-04-07T09:04:24Z</time>
      </trkpt>
      <trkpt lat="41.645215" lon="2.094813">
        <ele>619.09</ele>
        <time>2012-04-07T09:04:27Z</time>
      </trkpt>
      <trkpt lat="41.645250" lon="2.094945">
        <ele>621.01</ele>
        <time>2012-04-07T09:04:29Z</time>
      </trkpt>
      <trkpt lat="41.645276" lon="2.095098">
        <ele>618.01</ele>
        <time>2012-04-07T09:04:31Z</time>
      </trkpt>
      <trkpt lat="41.645287" lon="2.095249">
        <ele>618.03</ele>
        <time>2012-04-07T09:04:33Z</time>
      </trkpt>
      <trkpt lat="41.645320" lon="2.095401">
        <ele>617.06</ele>
        <time>2012-04-07T09:04:35Z</time>
      </trkpt>
      <trkpt lat="41.645451" lon="2.095490">
        <ele>617.09</ele>
        <time>2012-04-07T09:04:38Z</time>
      </trkpt>
      <trkpt lat="41.645561" lon="2.095533">
        <ele>616.08</ele>
        <time>2012-04-07T09:04:40Z</time>
      </trkpt>
      <trkpt lat="41.645700" lon="2.095523">
        <ele>620.07</ele>
        <time>2012-04-07T09:04:42Z</time>
      </trkpt>
      <trkpt lat="41.645849" lon="2.095467">
        <ele>623.04</ele>
        <time>2012-04-07T09:04:44Z</time>
      </trkpt>
      <trkpt lat="41.645987" lon="2.095402">
        <ele>622.01</ele>
        <time>2012-04-07T09:04:46Z</time>
      </trkpt>
      <trkpt lat="41.646111" lon="2.095323">
        <ele>624.02</ele>
        <time>2012-04-07T09:04:48Z</time>
      </trkpt>
      <trkpt lat="41.646212" lon="2.095236">
        <ele>625.04</ele>
        <time>2012-04-07T09:04:50Z</time>
      </trkpt>
      <trkpt lat="41.646303" lon="2.095148">
        <ele>628.07</ele>
        <time>2012-04-07T09:04:52Z</time>
      </trkpt>
      <trkpt lat="41.646389" lon="2.095039">
        <ele>629.01</ele>
        <time>2012-04-07T09:04:54Z</time>
      </trkpt>
      <trkpt lat="41.646502" lon="2.094942">
        <ele>627.01</ele>
        <time>2012-04-07T09:04:57Z</time>
      </trkpt>
      <trkpt lat="41.646616" lon="2.094949">
        <ele>626.09</ele>
        <time>2012-04-07T09:05:01Z</time>
      </trkpt>
      <trkpt lat="41.646727" lon="2.094972">
        <ele>625.07</ele>
        <time>2012-04-07T09:05:04Z</time>
      </trkpt>
      <trkpt lat="41.646832" lon="2.094994">
        <ele>624.07</ele>
        <time>2012-04-07T09:05:07Z</time>
      </trkpt>
      <trkpt lat="41.646959" lon="2.094975">
        <ele>625.09</ele>
        <time>2012-04-07T09:05:10Z</time>
      </trkpt>
      <trkpt lat="41.647090" lon="2.094894">
        <ele>622.06</ele>
        <time>2012-04-07T09:05:13Z</time>
      </trkpt>
      <trkpt lat="41.647199" lon="2.094801">
        <ele>624.05</ele>
        <time>2012-04-07T09:05:16Z</time>
      </trkpt>
      <trkpt lat="41.647287" lon="2.094731">
        <ele>623.04</ele>
        <time>2012-04-07T09:05:18Z</time>
      </trkpt>
      <trkpt lat="41.647408" lon="2.094655">
        <ele>620.02</ele>
        <time>2012-04-07T09:05:20Z</time>
      </trkpt>
      <trkpt lat="41.647532" lon="2.094504">
        <ele>623.02</ele>
        <time>2012-04-07T09:05:22Z</time>
      </trkpt>
      <trkpt lat="41.647596" lon="2.094397">
        <ele>624.01</ele>
        <time>2012-04-07T09:05:23Z</time>
      </trkpt>
      <trkpt lat="41.647648" lon="2.094263">
        <ele>628.03</ele>
        <time>2012-04-07T09:05:24Z</time>
      </trkpt>
      <trkpt lat="41.647696" lon="2.094131">
        <ele>629.01</ele>
        <time>2012-04-07T09:05:25Z</time>
      </trkpt>
      <trkpt lat="41.647738" lon="2.093989">
        <ele>630.09</ele>
        <time>2012-04-07T09:05:26Z</time>
      </trkpt>
      <trkpt lat="41.647765" lon="2.093843">
        <ele>629.06</ele>
        <time>2012-04-07T09:05:27Z</time>
      </trkpt>
      <trkpt lat="41.647793" lon="2.093712">
        <ele>629.08</ele>
        <time>2012-04-07T09:05:28Z</time>
      </trkpt>
      <trkpt lat="41.647819" lon="2.093581">
        <ele>630.05</ele>
        <time>2012-04-07T09:05:29Z</time>
      </trkpt>
      <trkpt lat="41.647850" lon="2.093444">
        <ele>631.02</ele>
        <time>2012-04-07T09:05:30Z</time>
      </trkpt>
      <trkpt lat="41.647884" lon="2.093300">
        <ele>631.02</ele>
        <time>2012-04-07T09:05:31Z</time>
      </trkpt>
      <trkpt lat="41.647920" lon="2.093166">
        <ele>633.05</ele>
        <time>2012-04-07T09:05:32Z</time>
      </trkpt>
      <trkpt lat="41.647959" lon="2.093033">
        <ele>633.02</ele>
        <time>2012-04-07T09:05:33Z</time>
      </trkpt>
      <trkpt lat="41.648000" lon="2.092908">
        <ele>636.01</ele>
        <time>2012-04-07T09:05:34Z</time>
      </trkpt>
      <trkpt lat="41.648087" lon="2.092672">
        <ele>640.02</ele>
        <time>2012-04-07T09:05:36Z</time>
      </trkpt>
      <trkpt lat="41.648170" lon="2.092450">
        <ele>645.01</ele>
        <time>2012-04-07T09:05:38Z</time>
      </trkpt>
      <trkpt lat="41.648253" lon="2.092225">
        <ele>648.02</ele>
        <time>2012-04-07T09:05:40Z</time>
      </trkpt>
      <trkpt lat="41.648320" lon="2.092008">
        <ele>652.05</ele>
        <time>2012-04-07T09:05:42Z</time>
      </trkpt>
      <trkpt lat="41.648377" lon="2.091806">
        <ele>653.06</ele>
        <time>2012-04-07T09:05:44Z</time>
      </trkpt>
      <trkpt lat="41.648441" lon="2.091631">
        <ele>653.08</ele>
        <time>2012-04-07T09:05:46Z</time>
      </trkpt>
      <trkpt lat="41.648522" lon="2.091433">
        <ele>655.02</ele>
        <time>2012-04-07T09:05:48Z</time>
      </trkpt>
      <trkpt lat="41.648593" lon="2.091267">
        <ele>658.03</ele>
        <time>2012-04-07T09:05:50Z</time>
      </trkpt>
      <trkpt lat="41.648664" lon="2.091136">
        <ele>657.07</ele>
        <time>2012-04-07T09:05:52Z</time>
      </trkpt>
      <trkpt lat="41.648739" lon="2.090984">
        <ele>657.07</ele>
        <time>2012-04-07T09:05:54Z</time>
      </trkpt>
      <trkpt lat="41.648779" lon="2.090806">
        <ele>662.01</ele>
        <time>2012-04-07T09:05:56Z</time>
      </trkpt>
      <trkpt lat="41.648790" lon="2.090625">
        <ele>660.02</ele>
        <time>2012-04-07T09:05:58Z</time>
      </trkpt>
      <trkpt lat="41.648766" lon="2.090459">
        <ele>656.08</ele>
        <time>2012-04-07T09:06:00Z</time>
      </trkpt>
      <trkpt lat="41.648701" lon="2.090334">
        <ele>655.09</ele>
        <time>2012-04-07T09:06:02Z</time>
      </trkpt>
      <trkpt lat="41.648616" lon="2.090239">
        <ele>655.06</ele>
        <time>2012-04-07T09:06:04Z</time>
      </trkpt>
      <trkpt lat="41.648523" lon="2.090100">
        <ele>660.01</ele>
        <time>2012-04-07T09:06:07Z</time>
      </trkpt>
      <trkpt lat="41.648529" lon="2.089951">
        <ele>661.07</ele>
        <time>2012-04-07T09:06:10Z</time>
      </trkpt>
      <trkpt lat="41.648614" lon="2.089863">
        <ele>656.04</ele>
        <time>2012-04-07T09:06:13Z</time>
      </trkpt>
      <trkpt lat="41.648693" lon="2.089759">
        <ele>652.09</ele>
        <time>2012-04-07T09:06:16Z</time>
      </trkpt>
      <trkpt lat="41.648730" lon="2.089618">
        <ele>655.01</ele>
        <time>2012-04-07T09:06:19Z</time>
      </trkpt>
      <trkpt lat="41.648745" lon="2.089467">
        <ele>659.03</ele>
        <time>2012-04-07T09:06:22Z</time>
      </trkpt>
      <trkpt lat="41.648752" lon="2.089288">
        <ele>660.01</ele>
        <time>2012-04-07T09:06:25Z</time>
      </trkpt>
      <trkpt lat="41.648814" lon="2.089149">
        <ele>658.02</ele>
        <time>2012-04-07T09:06:29Z</time>
      </trkpt>
      <trkpt lat="41.648905" lon="2.089083">
        <ele>661.05</ele>
        <time>2012-04-07T09:06:32Z</time>
      </trkpt>
      <trkpt lat="41.649011" lon="2.089061">
        <ele>658.10</ele>
        <time>2012-04-07T09:06:35Z</time>
      </trkpt>
      <trkpt lat="41.649117" lon="2.089030">
        <ele>660.02</ele>
        <time>2012-04-07T09:06:38Z</time>
      </trkpt>
      <trkpt lat="41.649222" lon="2.089027">
        <ele>658.08</ele>
        <time>2012-04-07T09:06:41Z</time>
      </trkpt>
      <trkpt lat="41.649331" lon="2.089054">
        <ele>658.07</ele>
        <time>2012-04-07T09:06:44Z</time>
      </trkpt>
      <trkpt lat="41.649442" lon="2.089085">
        <ele>658.09</ele>
        <time>2012-04-07T09:06:47Z</time>
      </trkpt>
      <trkpt lat="41.649549" lon="2.089099">
        <ele>658.03</ele>
        <time>2012-04-07T09:06:50Z</time>
      </trkpt>
      <trkpt lat="41.649669" lon="2.089137">
        <ele>663.07</ele>
        <time>2012-04-07T09:06:54Z</time>
      </trkpt>
      <trkpt lat="41.649772" lon="2.089137">
        <ele>663.04</ele>
        <time>2012-04-07T09:06:57Z</time>
      </trkpt>
      <trkpt lat="41.649885" lon="2.089148">
        <ele>659.01</ele>
        <time>2012-04-07T09:07:01Z</time>
      </trkpt>
      <trkpt lat="41.650002" lon="2.089122">
        <ele>658.01</ele>
        <time>2012-04-07T09:07:08Z</time>
      </trkpt>
      <trkpt lat="41.650107" lon="2.089095">
        <ele>660.00</ele>
        <time>2012-04-07T09:07:13Z</time>
      </trkpt>
      <trkpt lat="41.650222" lon="2.089101">
        <ele>662.02</ele>
        <time>2012-04-07T09:07:17Z</time>
      </trkpt>
      <trkpt lat="41.650344" lon="2.089133">
        <ele>659.06</ele>
        <time>2012-04-07T09:07:22Z</time>
      </trkpt>
      <trkpt lat="41.650446" lon="2.089155">
        <ele>656.04</ele>
        <time>2012-04-07T09:07:27Z</time>
      </trkpt>
      <trkpt lat="41.650569" lon="2.089146">
        <ele>655.07</ele>
        <time>2012-04-07T09:07:31Z</time>
      </trkpt>
      <trkpt lat="41.650685" lon="2.089087">
        <ele>653.09</ele>
        <time>2012-04-07T09:07:35Z</time>
      </trkpt>
      <trkpt lat="41.650790" lon="2.089040">
        <ele>657.08</ele>
        <time>2012-04-07T09:07:40Z</time>
      </trkpt>
      <trkpt lat="41.650896" lon="2.089023">
        <ele>663.01</ele>
        <time>2012-04-07T09:07:45Z</time>
      </trkpt>
      <trkpt lat="41.651015" lon="2.089020">
        <ele>659.06</ele>
        <time>2012-04-07T09:07:50Z</time>
      </trkpt>
      <trkpt lat="41.651133" lon="2.089005">
        <ele>654.01</ele>
        <time>2012-04-07T09:07:55Z</time>
      </trkpt>
      <trkpt lat="41.651232" lon="2.088982">
        <ele>655.02</ele>
        <time>2012-04-07T09:07:59Z</time>
      </trkpt>
      <trkpt lat="41.651328" lon="2.088941">
        <ele>653.02</ele>
        <time>2012-04-07T09:08:03Z</time>
      </trkpt>
      <trkpt lat="41.651422" lon="2.088869">
        <ele>656.08</ele>
        <time>2012-04-07T09:08:07Z</time>
      </trkpt>
      <trkpt lat="41.651472" lon="2.088723">
        <ele>653.07</ele>
        <time>2012-04-07T09:08:11Z</time>
      </trkpt>
      <trkpt lat="41.651474" lon="2.088579">
        <ele>653.02</ele>
        <time>2012-04-07T09:08:14Z</time>
      </trkpt>
      <trkpt lat="41.651448" lon="2.088418">
        <ele>655.05</ele>
        <time>2012-04-07T09:08:18Z</time>
      </trkpt>
      <trkpt lat="41.651417" lon="2.088264">
        <ele>655.04</ele>
        <time>2012-04-07T09:08:21Z</time>
      </trkpt>
      <trkpt lat="41.651439" lon="2.088104">
        <ele>655.09</ele>
        <time>2012-04-07T09:08:24Z</time>
      </trkpt>
      <trkpt lat="41.651475" lon="2.087966">
        <ele>655.06</ele>
        <time>2012-04-07T09:08:27Z</time>
      </trkpt>
      <trkpt lat="41.651507" lon="2.087839">
        <ele>655.04</ele>
        <time>2012-04-07T09:08:30Z</time>
      </trkpt>
      <trkpt lat="41.651558" lon="2.087708">
        <ele>656.01</ele>
        <time>2012-04-07T09:08:33Z</time>
      </trkpt>
      <trkpt lat="41.651610" lon="2.087585">
        <ele>655.01</ele>
        <time>2012-04-07T09:08:36Z</time>
      </trkpt>
      <trkpt lat="41.651695" lon="2.087439">
        <ele>656.06</ele>
        <time>2012-04-07T09:08:39Z</time>
      </trkpt>
      <trkpt lat="41.651770" lon="2.087343">
        <ele>658.04</ele>
        <time>2012-04-07T09:08:41Z</time>
      </trkpt>
      <trkpt lat="41.651837" lon="2.087241">
        <ele>656.07</ele>
        <time>2012-04-07T09:08:43Z</time>
      </trkpt>
      <trkpt lat="41.651951" lon="2.087123">
        <ele>659.02</ele>
        <time>2012-04-07T09:08:46Z</time>
      </trkpt>
      <trkpt lat="41.652038" lon="2.087054">
        <ele>656.07</ele>
        <time>2012-04-07T09:08:48Z</time>
      </trkpt>
      <trkpt lat="41.652156" lon="2.086954">
        <ele>655.03</ele>
        <time>2012-04-07T09:08:51Z</time>
      </trkpt>
      <trkpt lat="41.652244" lon="2.086893">
        <ele>656.03</ele>
        <time>2012-04-07T09:08:54Z</time>
      </trkpt>
      <trkpt lat="41.652340" lon="2.086833">
        <ele>653.07</ele>
        <time>2012-04-07T09:08:57Z</time>
      </trkpt>
      <trkpt lat="41.652446" lon="2.086767">
        <ele>656.02</ele>
        <time>2012-04-07T09:09:00Z</time>
      </trkpt>
      <trkpt lat="41.652565" lon="2.086702">
        <ele>659.01</ele>
        <time>2012-04-07T09:09:03Z</time>
      </trkpt>
      <trkpt lat="41.652668" lon="2.086619">
        <ele>653.02</ele>
        <time>2012-04-07T09:09:06Z</time>
      </trkpt>
      <trkpt lat="41.652771" lon="2.086532">
        <ele>656.01</ele>
        <time>2012-04-07T09:09:10Z</time>
      </trkpt>
      <trkpt lat="41.652862" lon="2.086468">
        <ele>655.06</ele>
        <time>2012-04-07T09:09:15Z</time>
      </trkpt>
      <trkpt lat="41.652962" lon="2.086413">
        <ele>653.04</ele>
        <time>2012-04-07T09:09:19Z</time>
      </trkpt>
      <trkpt lat="41.653065" lon="2.086343">
        <ele>655.06</ele>
        <time>2012-04-07T09:09:24Z</time>
      </trkpt>
      <trkpt lat="41.653163" lon="2.086308">
        <ele>654.06</ele>
        <time>2012-04-07T09:09:28Z</time>
      </trkpt>
      <trkpt lat="41.653266" lon="2.086324">
        <ele>653.04</ele>
        <time>2012-04-07T09:09:32Z</time>
      </trkpt>
      <trkpt lat="41.653381" lon="2.086358">
        <ele>655.03</ele>
        <time>2012-04-07T09:09:37Z</time>
      </trkpt>
      <trkpt lat="41.653475" lon="2.086442">
        <ele>658.04</ele>
        <time>2012-04-07T09:09:42Z</time>
      </trkpt>
      <trkpt lat="41.653565" lon="2.086512">
        <ele>655.03</ele>
        <time>2012-04-07T09:09:46Z</time>
      </trkpt>
      <trkpt lat="41.653646" lon="2.086594">
        <ele>657.01</ele>
        <time>2012-04-07T09:09:51Z</time>
      </trkpt>
      <trkpt lat="41.653731" lon="2.086670">
        <ele>659.02</ele>
        <time>2012-04-07T09:09:57Z</time>
      </trkpt>
      <trkpt lat="41.653834" lon="2.086735">
        <ele>656.00</ele>
        <time>2012-04-07T09:10:02Z</time>
      </trkpt>
      <trkpt lat="41.653925" lon="2.086826">
        <ele>649.06</ele>
        <time>2012-04-07T09:10:06Z</time>
      </trkpt>
      <trkpt lat="41.654003" lon="2.086914">
        <ele>655.06</ele>
        <time>2012-04-07T09:10:11Z</time>
      </trkpt>
      <trkpt lat="41.654091" lon="2.087023">
        <ele>650.08</ele>
        <time>2012-04-07T09:10:16Z</time>
      </trkpt>
      <trkpt lat="41.654169" lon="2.087122">
        <ele>651.08</ele>
        <time>2012-04-07T09:10:21Z</time>
      </trkpt>
      <trkpt lat="41.654252" lon="2.087218">
        <ele>648.05</ele>
        <time>2012-04-07T09:10:26Z</time>
      </trkpt>
      <trkpt lat="41.654362" lon="2.087284">
        <ele>649.05</ele>
        <time>2012-04-07T09:10:32Z</time>
      </trkpt>
      <trkpt lat="41.654474" lon="2.087323">
        <ele>649.09</ele>
        <time>2012-04-07T09:10:38Z</time>
      </trkpt>
      <trkpt lat="41.654581" lon="2.087333">
        <ele>648.07</ele>
        <time>2012-04-07T09:10:43Z</time>
      </trkpt>
      <trkpt lat="41.654682" lon="2.087332">
        <ele>646.01</ele>
        <time>2012-04-07T09:10:48Z</time>
      </trkpt>
      <trkpt lat="41.654795" lon="2.087326">
        <ele>646.02</ele>
        <time>2012-04-07T09:10:53Z</time>
      </trkpt>
      <trkpt lat="41.654896" lon="2.087310">
        <ele>646.04</ele>
        <time>2012-04-07T09:10:57Z</time>
      </trkpt>
      <trkpt lat="41.655007" lon="2.087297">
        <ele>646.06</ele>
        <time>2012-04-07T09:11:00Z</time>
      </trkpt>
      <trkpt lat="41.655133" lon="2.087298">
        <ele>646.05</ele>
        <time>2012-04-07T09:11:04Z</time>
      </trkpt>
      <trkpt lat="41.655260" lon="2.087299">
        <ele>645.08</ele>
        <time>2012-04-07T09:11:08Z</time>
      </trkpt>
      <trkpt lat="41.655363" lon="2.087312">
        <ele>646.07</ele>
        <time>2012-04-07T09:11:11Z</time>
      </trkpt>
      <trkpt lat="41.655476" lon="2.087339">
        <ele>645.08</ele>
        <time>2012-04-07T09:11:16Z</time>
      </trkpt>
      <trkpt lat="41.655514" lon="2.087399">
        <ele>644.05</ele>
        <time>2012-04-07T09:11:27Z</time>
      </trkpt>
      <trkpt lat="41.655557" lon="2.087367">
        <ele>647.05</ele>
        <time>2012-04-07T09:11:57Z</time>
      </trkpt>
      <trkpt lat="41.655564" lon="2.087372">
        <ele>645.03</ele>
        <time>2012-04-07T09:12:27Z</time>
      </trkpt>
      <trkpt lat="41.655537" lon="2.087376">
        <ele>651.01</ele>
        <time>2012-04-07T09:12:57Z</time>
      </trkpt>
      <trkpt lat="41.655525" lon="2.087381">
        <ele>646.03</ele>
        <time>2012-04-07T09:13:27Z</time>
      </trkpt>
      <trkpt lat="41.655519" lon="2.087387">
        <ele>644.01</ele>
        <time>2012-04-07T09:13:57Z</time>
      </trkpt>
      <trkpt lat="41.655521" lon="2.087394">
        <ele>641.10</ele>
        <time>2012-04-07T09:14:27Z</time>
      </trkpt>
      <trkpt lat="41.655516" lon="2.087393">
        <ele>641.03</ele>
        <time>2012-04-07T09:14:57Z</time>
      </trkpt>
      <trkpt lat="41.655567" lon="2.087427">
        <ele>645.09</ele>
        <time>2012-04-07T09:15:27Z</time>
      </trkpt>
      <trkpt lat="41.655672" lon="2.087443">
        <ele>642.09</ele>
        <time>2012-04-07T09:15:34Z</time>
      </trkpt>
      <trkpt lat="41.655776" lon="2.087490">
        <ele>642.09</ele>
        <time>2012-04-07T09:15:39Z</time>
      </trkpt>
      <trkpt lat="41.655860" lon="2.087573">
        <ele>642.09</ele>
        <time>2012-04-07T09:15:43Z</time>
      </trkpt>
      <trkpt lat="41.655931" lon="2.087676">
        <ele>641.10</ele>
        <time>2012-04-07T09:15:47Z</time>
      </trkpt>
      <trkpt lat="41.656010" lon="2.087781">
        <ele>639.03</ele>
        <time>2012-04-07T09:15:51Z</time>
      </trkpt>
      <trkpt lat="41.656073" lon="2.087922">
        <ele>639.01</ele>
        <time>2012-04-07T09:15:54Z</time>
      </trkpt>
      <trkpt lat="41.656133" lon="2.088042">
        <ele>640.02</ele>
        <time>2012-04-07T09:15:57Z</time>
      </trkpt>
      <trkpt lat="41.656204" lon="2.088147">
        <ele>639.07</ele>
        <time>2012-04-07T09:16:00Z</time>
      </trkpt>
      <trkpt lat="41.656301" lon="2.088261">
        <ele>638.09</ele>
        <time>2012-04-07T09:16:04Z</time>
      </trkpt>
      <trkpt lat="41.656412" lon="2.088320">
        <ele>638.02</ele>
        <time>2012-04-07T09:16:13Z</time>
      </trkpt>
      <trkpt lat="41.656505" lon="2.088377">
        <ele>638.08</ele>
        <time>2012-04-07T09:16:19Z</time>
      </trkpt>
      <trkpt lat="41.656604" lon="2.088451">
        <ele>638.04</ele>
        <time>2012-04-07T09:16:24Z</time>
      </trkpt>
      <trkpt lat="41.656694" lon="2.088520">
        <ele>638.07</ele>
        <time>2012-04-07T09:16:28Z</time>
      </trkpt>
      <trkpt lat="41.656790" lon="2.088594">
        <ele>638.05</ele>
        <time>2012-04-07T09:16:32Z</time>
      </trkpt>
      <trkpt lat="41.656873" lon="2.088677">
        <ele>638.02</ele>
        <time>2012-04-07T09:16:36Z</time>
      </trkpt>
      <trkpt lat="41.656956" lon="2.088778">
        <ele>640.07</ele>
        <time>2012-04-07T09:16:40Z</time>
      </trkpt>
      <trkpt lat="41.657050" lon="2.088871">
        <ele>638.01</ele>
        <time>2012-04-07T09:16:45Z</time>
      </trkpt>
      <trkpt lat="41.657150" lon="2.088900">
        <ele>634.01</ele>
        <time>2012-04-07T09:16:49Z</time>
      </trkpt>
      <trkpt lat="41.657259" lon="2.088880">
        <ele>636.08</ele>
        <time>2012-04-07T09:16:53Z</time>
      </trkpt>
      <trkpt lat="41.657363" lon="2.088820">
        <ele>638.06</ele>
        <time>2012-04-07T09:16:58Z</time>
      </trkpt>
      <trkpt lat="41.657463" lon="2.088729">
        <ele>635.09</ele>
        <time>2012-04-07T09:17:03Z</time>
      </trkpt>
      <trkpt lat="41.657548" lon="2.088646">
        <ele>634.05</ele>
        <time>2012-04-07T09:17:07Z</time>
      </trkpt>
      <trkpt lat="41.657630" lon="2.088568">
        <ele>634.10</ele>
        <time>2012-04-07T09:17:11Z</time>
      </trkpt>
      <trkpt lat="41.657707" lon="2.088477">
        <ele>636.09</ele>
        <time>2012-04-07T09:17:15Z</time>
      </trkpt>
      <trkpt lat="41.657799" lon="2.088372">
        <ele>634.05</ele>
        <time>2012-04-07T09:17:20Z</time>
      </trkpt>
      <trkpt lat="41.657883" lon="2.088280">
        <ele>631.01</ele>
        <time>2012-04-07T09:17:24Z</time>
      </trkpt>
      <trkpt lat="41.657999" lon="2.088217">
        <ele>629.06</ele>
        <time>2012-04-07T09:17:28Z</time>
      </trkpt>
      <trkpt lat="41.658099" lon="2.088204">
        <ele>629.01</ele>
        <time>2012-04-07T09:17:31Z</time>
      </trkpt>
      <trkpt lat="41.658209" lon="2.088160">
        <ele>630.01</ele>
        <time>2012-04-07T09:17:34Z</time>
      </trkpt>
      <trkpt lat="41.658305" lon="2.088102">
        <ele>630.05</ele>
        <time>2012-04-07T09:17:37Z</time>
      </trkpt>
      <trkpt lat="41.658395" lon="2.088042">
        <ele>634.04</ele>
        <time>2012-04-07T09:17:40Z</time>
      </trkpt>
      <trkpt lat="41.658485" lon="2.087971">
        <ele>634.02</ele>
        <time>2012-04-07T09:17:43Z</time>
      </trkpt>
      <trkpt lat="41.658575" lon="2.087913">
        <ele>635.08</ele>
        <time>2012-04-07T09:17:46Z</time>
      </trkpt>
      <trkpt lat="41.658676" lon="2.087856">
        <ele>633.05</ele>
        <time>2012-04-07T09:17:49Z</time>
      </trkpt>
      <trkpt lat="41.658775" lon="2.087803">
        <ele>636.06</ele>
        <time>2012-04-07T09:17:52Z</time>
      </trkpt>
      <trkpt lat="41.658885" lon="2.087745">
        <ele>633.05</ele>
        <time>2012-04-07T09:17:56Z</time>
      </trkpt>
      <trkpt lat="41.658986" lon="2.087710">
        <ele>636.08</ele>
        <time>2012-04-07T09:18:00Z</time>
      </trkpt>
      <trkpt lat="41.659112" lon="2.087735">
        <ele>633.02</ele>
        <time>2012-04-07T09:18:04Z</time>
      </trkpt>
      <trkpt lat="41.659218" lon="2.087812">
        <ele>630.01</ele>
        <time>2012-04-07T09:18:08Z</time>
      </trkpt>
      <trkpt lat="41.659318" lon="2.087889">
        <ele>631.01</ele>
        <time>2012-04-07T09:18:12Z</time>
      </trkpt>
      <trkpt lat="41.659423" lon="2.087927">
        <ele>632.09</ele>
        <time>2012-04-07T09:18:16Z</time>
      </trkpt>
      <trkpt lat="41.659534" lon="2.087905">
        <ele>629.07</ele>
        <time>2012-04-07T09:18:20Z</time>
      </trkpt>
      <trkpt lat="41.659637" lon="2.087874">
        <ele>628.03</ele>
        <time>2012-04-07T09:18:23Z</time>
      </trkpt>
      <trkpt lat="41.659742" lon="2.087816">
        <ele>632.08</ele>
        <time>2012-04-07T09:18:27Z</time>
      </trkpt>
      <trkpt lat="41.659828" lon="2.087744">
        <ele>632.08</ele>
        <time>2012-04-07T09:18:30Z</time>
      </trkpt>
      <trkpt lat="41.659903" lon="2.087633">
        <ele>631.09</ele>
        <time>2012-04-07T09:18:33Z</time>
      </trkpt>
      <trkpt lat="41.659960" lon="2.087500">
        <ele>632.08</ele>
        <time>2012-04-07T09:18:36Z</time>
      </trkpt>
      <trkpt lat="41.660042" lon="2.087386">
        <ele>634.05</ele>
        <time>2012-04-07T09:18:39Z</time>
      </trkpt>
      <trkpt lat="41.660162" lon="2.087354">
        <ele>631.03</ele>
        <time>2012-04-07T09:18:42Z</time>
      </trkpt>
      <trkpt lat="41.660276" lon="2.087394">
        <ele>631.01</ele>
        <time>2012-04-07T09:18:45Z</time>
      </trkpt>
      <trkpt lat="41.660377" lon="2.087442">
        <ele>628.01</ele>
        <time>2012-04-07T09:18:48Z</time>
      </trkpt>
      <trkpt lat="41.660487" lon="2.087485">
        <ele>630.00</ele>
        <time>2012-04-07T09:18:52Z</time>
      </trkpt>
      <trkpt lat="41.660601" lon="2.087495">
        <ele>630.05</ele>
        <time>2012-04-07T09:18:56Z</time>
      </trkpt>
      <trkpt lat="41.660711" lon="2.087474">
        <ele>629.06</ele>
        <time>2012-04-07T09:19:00Z</time>
      </trkpt>
      <trkpt lat="41.660829" lon="2.087436">
        <ele>627.10</ele>
        <time>2012-04-07T09:19:04Z</time>
      </trkpt>
      <trkpt lat="41.660935" lon="2.087405">
        <ele>629.10</ele>
        <time>2012-04-07T09:19:08Z</time>
      </trkpt>
      <trkpt lat="41.661058" lon="2.087397">
        <ele>626.07</ele>
        <time>2012-04-07T09:19:12Z</time>
      </trkpt>
      <trkpt lat="41.661164" lon="2.087427">
        <ele>626.05</ele>
        <time>2012-04-07T09:19:16Z</time>
      </trkpt>
      <trkpt lat="41.661264" lon="2.087519">
        <ele>628.02</ele>
        <time>2012-04-07T09:19:21Z</time>
      </trkpt>
      <trkpt lat="41.661339" lon="2.087621">
        <ele>631.10</ele>
        <time>2012-04-07T09:19:25Z</time>
      </trkpt>
      <trkpt lat="41.661404" lon="2.087722">
        <ele>627.01</ele>
        <time>2012-04-07T09:19:28Z</time>
      </trkpt>
      <trkpt lat="41.661474" lon="2.087848">
        <ele>622.01</ele>
        <time>2012-04-07T09:19:32Z</time>
      </trkpt>
      <trkpt lat="41.661569" lon="2.087930">
        <ele>619.01</ele>
        <time>2012-04-07T09:19:35Z</time>
      </trkpt>
      <trkpt lat="41.661663" lon="2.087971">
        <ele>617.04</ele>
        <time>2012-04-07T09:19:42Z</time>
      </trkpt>
      <trkpt lat="41.661680" lon="2.087928">
        <ele>614.10</ele>
        <time>2012-04-07T09:20:12Z</time>
      </trkpt>
      <trkpt lat="41.661689" lon="2.087885">
        <ele>615.10</ele>
        <time>2012-04-07T09:20:42Z</time>
      </trkpt>
      <trkpt lat="41.661719" lon="2.087882">
        <ele>624.06</ele>
        <time>2012-04-07T09:21:12Z</time>
      </trkpt>
      <trkpt lat="41.661831" lon="2.087880">
        <ele>621.07</ele>
        <time>2012-04-07T09:21:18Z</time>
      </trkpt>
      <trkpt lat="41.661939" lon="2.087828">
        <ele>624.06</ele>
        <time>2012-04-07T09:21:25Z</time>
      </trkpt>
      <trkpt lat="41.662039" lon="2.087758">
        <ele>622.05</ele>
        <time>2012-04-07T09:21:32Z</time>
      </trkpt>
      <trkpt lat="41.662141" lon="2.087694">
        <ele>622.08</ele>
        <time>2012-04-07T09:21:37Z</time>
      </trkpt>
      <trkpt lat="41.662251" lon="2.087685">
        <ele>619.01</ele>
        <time>2012-04-07T09:21:42Z</time>
      </trkpt>
      <trkpt lat="41.662345" lon="2.087754">
        <ele>617.01</ele>
        <time>2012-04-07T09:21:46Z</time>
      </trkpt>
      <trkpt lat="41.662412" lon="2.087871">
        <ele>618.09</ele>
        <time>2012-04-07T09:21:51Z</time>
      </trkpt>
      <trkpt lat="41.662501" lon="2.087961">
        <ele>615.03</ele>
        <time>2012-04-07T09:21:58Z</time>
      </trkpt>
      <trkpt lat="41.662549" lon="2.088009">
        <ele>609.05</ele>
        <time>2012-04-07T09:22:20Z</time>
      </trkpt>
      <trkpt lat="41.662572" lon="2.088016">
        <ele>623.05</ele>
        <time>2012-04-07T09:22:50Z</time>
      </trkpt>
      <trkpt lat="41.662670" lon="2.087992">
        <ele>621.03</ele>
        <time>2012-04-07T09:22:57Z</time>
      </trkpt>
      <trkpt lat="41.662756" lon="2.087908">
        <ele>616.02</ele>
        <time>2012-04-07T09:23:02Z</time>
      </trkpt>
      <trkpt lat="41.662794" lon="2.087764">
        <ele>618.10</ele>
        <time>2012-04-07T09:23:08Z</time>
      </trkpt>
      <trkpt lat="41.662834" lon="2.087619">
        <ele>620.05</ele>
        <time>2012-04-07T09:23:14Z</time>
      </trkpt>
      <trkpt lat="41.662891" lon="2.087485">
        <ele>617.08</ele>
        <time>2012-04-07T09:23:20Z</time>
      </trkpt>
      <trkpt lat="41.662972" lon="2.087405">
        <ele>622.01</ele>
        <time>2012-04-07T09:23:26Z</time>
      </trkpt>
      <trkpt lat="41.663062" lon="2.087340">
        <ele>620.02</ele>
        <time>2012-04-07T09:23:31Z</time>
      </trkpt>
      <trkpt lat="41.663154" lon="2.087261">
        <ele>618.06</ele>
        <time>2012-04-07T09:23:36Z</time>
      </trkpt>
      <trkpt lat="41.663231" lon="2.087169">
        <ele>618.09</ele>
        <time>2012-04-07T09:23:41Z</time>
      </trkpt>
      <trkpt lat="41.663320" lon="2.087081">
        <ele>617.07</ele>
        <time>2012-04-07T09:23:47Z</time>
      </trkpt>
      <trkpt lat="41.663400" lon="2.086984">
        <ele>616.08</ele>
        <time>2012-04-07T09:23:54Z</time>
      </trkpt>
      <trkpt lat="41.663491" lon="2.086902">
        <ele>618.03</ele>
        <time>2012-04-07T09:24:01Z</time>
      </trkpt>
      <trkpt lat="41.663590" lon="2.086841">
        <ele>615.05</ele>
        <time>2012-04-07T09:24:08Z</time>
      </trkpt>
      <trkpt lat="41.663686" lon="2.086769">
        <ele>614.02</ele>
        <time>2012-04-07T09:24:13Z</time>
      </trkpt>
      <trkpt lat="41.663758" lon="2.086676">
        <ele>610.05</ele>
        <time>2012-04-07T09:24:18Z</time>
      </trkpt>
      <trkpt lat="41.663812" lon="2.086559">
        <ele>612.04</ele>
        <time>2012-04-07T09:24:22Z</time>
      </trkpt>
      <trkpt lat="41.663839" lon="2.086426">
        <ele>612.01</ele>
        <time>2012-04-07T09:24:27Z</time>
      </trkpt>
      <trkpt lat="41.663839" lon="2.086288">
        <ele>607.02</ele>
        <time>2012-04-07T09:24:32Z</time>
      </trkpt>
      <trkpt lat="41.663803" lon="2.086156">
        <ele>605.07</ele>
        <time>2012-04-07T09:24:37Z</time>
      </trkpt>
      <trkpt lat="41.663748" lon="2.086019">
        <ele>602.04</ele>
        <time>2012-04-07T09:24:43Z</time>
      </trkpt>
      <trkpt lat="41.663709" lon="2.085879">
        <ele>603.04</ele>
        <time>2012-04-07T09:24:48Z</time>
      </trkpt>
      <trkpt lat="41.663653" lon="2.085761">
        <ele>603.02</ele>
        <time>2012-04-07T09:24:52Z</time>
      </trkpt>
      <trkpt lat="41.663586" lon="2.085643">
        <ele>606.10</ele>
        <time>2012-04-07T09:24:56Z</time>
      </trkpt>
      <trkpt lat="41.663505" lon="2.085513">
        <ele>607.09</ele>
        <time>2012-04-07T09:25:00Z</time>
      </trkpt>
      <trkpt lat="41.663432" lon="2.085386">
        <ele>608.04</ele>
        <time>2012-04-07T09:25:04Z</time>
      </trkpt>
      <trkpt lat="41.663383" lon="2.085269">
        <ele>609.08</ele>
        <time>2012-04-07T09:25:07Z</time>
      </trkpt>
      <trkpt lat="41.663345" lon="2.085134">
        <ele>608.06</ele>
        <time>2012-04-07T09:25:10Z</time>
      </trkpt>
      <trkpt lat="41.663320" lon="2.084964">
        <ele>604.01</ele>
        <time>2012-04-07T09:25:14Z</time>
      </trkpt>
      <trkpt lat="41.663343" lon="2.084821">
        <ele>603.03</ele>
        <time>2012-04-07T09:25:18Z</time>
      </trkpt>
      <trkpt lat="41.663404" lon="2.084709">
        <ele>606.02</ele>
        <time>2012-04-07T09:25:24Z</time>
      </trkpt>
      <trkpt lat="41.663508" lon="2.084676">
        <ele>603.09</ele>
        <time>2012-04-07T09:25:29Z</time>
      </trkpt>
      <trkpt lat="41.663631" lon="2.084667">
        <ele>603.04</ele>
        <time>2012-04-07T09:25:34Z</time>
      </trkpt>
      <trkpt lat="41.663745" lon="2.084686">
        <ele>602.03</ele>
        <time>2012-04-07T09:25:39Z</time>
      </trkpt>
      <trkpt lat="41.663855" lon="2.084728">
        <ele>599.02</ele>
        <time>2012-04-07T09:25:44Z</time>
      </trkpt>
      <trkpt lat="41.663953" lon="2.084784">
        <ele>602.03</ele>
        <time>2012-04-07T09:25:49Z</time>
      </trkpt>
      <trkpt lat="41.664054" lon="2.084841">
        <ele>603.08</ele>
        <time>2012-04-07T09:25:54Z</time>
      </trkpt>
      <trkpt lat="41.664166" lon="2.084880">
        <ele>603.04</ele>
        <time>2012-04-07T09:25:59Z</time>
      </trkpt>
      <trkpt lat="41.664273" lon="2.084853">
        <ele>603.05</ele>
        <time>2012-04-07T09:26:04Z</time>
      </trkpt>
      <trkpt lat="41.664365" lon="2.084772">
        <ele>602.01</ele>
        <time>2012-04-07T09:26:10Z</time>
      </trkpt>
      <trkpt lat="41.664426" lon="2.084667">
        <ele>606.02</ele>
        <time>2012-04-07T09:26:19Z</time>
      </trkpt>
      <trkpt lat="41.664522" lon="2.084614">
        <ele>601.09</ele>
        <time>2012-04-07T09:26:26Z</time>
      </trkpt>
      <trkpt lat="41.664629" lon="2.084686">
        <ele>600.05</ele>
        <time>2012-04-07T09:26:31Z</time>
      </trkpt>
      <trkpt lat="41.664740" lon="2.084738">
        <ele>601.07</ele>
        <time>2012-04-07T09:26:35Z</time>
      </trkpt>
      <trkpt lat="41.664854" lon="2.084768">
        <ele>601.08</ele>
        <time>2012-04-07T09:26:39Z</time>
      </trkpt>
      <trkpt lat="41.664950" lon="2.084732">
        <ele>601.06</ele>
        <time>2012-04-07T09:26:42Z</time>
      </trkpt>
      <trkpt lat="41.665035" lon="2.084620">
        <ele>597.03</ele>
        <time>2012-04-07T09:26:45Z</time>
      </trkpt>
      <trkpt lat="41.665054" lon="2.084464">
        <ele>597.08</ele>
        <time>2012-04-07T09:26:47Z</time>
      </trkpt>
      <trkpt lat="41.665044" lon="2.084302">
        <ele>598.02</ele>
        <time>2012-04-07T09:26:49Z</time>
      </trkpt>
      <trkpt lat="41.665037" lon="2.084154">
        <ele>593.02</ele>
        <time>2012-04-07T09:26:51Z</time>
      </trkpt>
      <trkpt lat="41.665032" lon="2.083955">
        <ele>593.01</ele>
        <time>2012-04-07T09:26:54Z</time>
      </trkpt>
      <trkpt lat="41.665041" lon="2.083762">
        <ele>595.01</ele>
        <time>2012-04-07T09:26:57Z</time>
      </trkpt>
      <trkpt lat="41.665062" lon="2.083616">
        <ele>596.05</ele>
        <time>2012-04-07T09:27:00Z</time>
      </trkpt>
      <trkpt lat="41.665128" lon="2.083503">
        <ele>599.04</ele>
        <time>2012-04-07T09:27:04Z</time>
      </trkpt>
      <trkpt lat="41.665223" lon="2.083412">
        <ele>601.03</ele>
        <time>2012-04-07T09:27:10Z</time>
      </trkpt>
      <trkpt lat="41.665298" lon="2.083315">
        <ele>602.07</ele>
        <time>2012-04-07T09:27:16Z</time>
      </trkpt>
      <trkpt lat="41.665353" lon="2.083192">
        <ele>598.03</ele>
        <time>2012-04-07T09:27:21Z</time>
      </trkpt>
      <trkpt lat="41.665363" lon="2.083056">
        <ele>596.05</ele>
        <time>2012-04-07T09:27:25Z</time>
      </trkpt>
      <trkpt lat="41.665326" lon="2.082909">
        <ele>595.07</ele>
        <time>2012-04-07T09:27:30Z</time>
      </trkpt>
      <trkpt lat="41.665237" lon="2.082807">
        <ele>597.09</ele>
        <time>2012-04-07T09:27:35Z</time>
      </trkpt>
      <trkpt lat="41.665140" lon="2.082738">
        <ele>597.10</ele>
        <time>2012-04-07T09:27:40Z</time>
      </trkpt>
      <trkpt lat="41.665053" lon="2.082646">
        <ele>597.01</ele>
        <time>2012-04-07T09:27:45Z</time>
      </trkpt>
      <trkpt lat="41.664973" lon="2.082534">
        <ele>598.01</ele>
        <time>2012-04-07T09:27:50Z</time>
      </trkpt>
      <trkpt lat="41.664950" lon="2.082396">
        <ele>600.01</ele>
        <time>2012-04-07T09:27:55Z</time>
      </trkpt>
      <trkpt lat="41.665021" lon="2.082295">
        <ele>600.04</ele>
        <time>2012-04-07T09:28:00Z</time>
      </trkpt>
      <trkpt lat="41.665124" lon="2.082277">
        <ele>599.02</ele>
        <time>2012-04-07T09:28:05Z</time>
      </trkpt>
      <trkpt lat="41.665224" lon="2.082280">
        <ele>596.06</ele>
        <time>2012-04-07T09:28:09Z</time>
      </trkpt>
      <trkpt lat="41.665337" lon="2.082274">
        <ele>599.06</ele>
        <time>2012-04-07T09:28:13Z</time>
      </trkpt>
      <trkpt lat="41.665443" lon="2.082244">
        <ele>599.08</ele>
        <time>2012-04-07T09:28:17Z</time>
      </trkpt>
      <trkpt lat="41.665526" lon="2.082161">
        <ele>591.03</ele>
        <time>2012-04-07T09:28:22Z</time>
      </trkpt>
      <trkpt lat="41.665603" lon="2.082064">
        <ele>593.06</ele>
        <time>2012-04-07T09:28:26Z</time>
      </trkpt>
      <trkpt lat="41.665637" lon="2.081921">
        <ele>592.03</ele>
        <time>2012-04-07T09:28:30Z</time>
      </trkpt>
      <trkpt lat="41.665587" lon="2.081788">
        <ele>593.01</ele>
        <time>2012-04-07T09:28:35Z</time>
      </trkpt>
      <trkpt lat="41.665500" lon="2.081697">
        <ele>589.01</ele>
        <time>2012-04-07T09:28:40Z</time>
      </trkpt>
      <trkpt lat="41.665419" lon="2.081604">
        <ele>588.09</ele>
        <time>2012-04-07T09:28:45Z</time>
      </trkpt>
      <trkpt lat="41.665330" lon="2.081498">
        <ele>593.02</ele>
        <time>2012-04-07T09:28:49Z</time>
      </trkpt>
      <trkpt lat="41.665254" lon="2.081411">
        <ele>593.03</ele>
        <time>2012-04-07T09:28:55Z</time>
      </trkpt>
      <trkpt lat="41.665174" lon="2.081327">
        <ele>594.07</ele>
        <time>2012-04-07T09:29:04Z</time>
      </trkpt>
      <trkpt lat="41.665107" lon="2.081216">
        <ele>593.07</ele>
        <time>2012-04-07T09:29:08Z</time>
      </trkpt>
      <trkpt lat="41.665058" lon="2.081099">
        <ele>592.04</ele>
        <time>2012-04-07T09:29:11Z</time>
      </trkpt>
      <trkpt lat="41.665058" lon="2.080947">
        <ele>587.02</ele>
        <time>2012-04-07T09:29:15Z</time>
      </trkpt>
      <trkpt lat="41.665136" lon="2.080843">
        <ele>587.07</ele>
        <time>2012-04-07T09:29:19Z</time>
      </trkpt>
      <trkpt lat="41.665230" lon="2.080761">
        <ele>590.09</ele>
        <time>2012-04-07T09:29:22Z</time>
      </trkpt>
      <trkpt lat="41.665323" lon="2.080665">
        <ele>588.01</ele>
        <time>2012-04-07T09:29:24Z</time>
      </trkpt>
      <trkpt lat="41.665417" lon="2.080537">
        <ele>586.01</ele>
        <time>2012-04-07T09:29:26Z</time>
      </trkpt>
      <trkpt lat="41.665496" lon="2.080390">
        <ele>587.05</ele>
        <time>2012-04-07T09:29:28Z</time>
      </trkpt>
      <trkpt lat="41.665502" lon="2.080229">
        <ele>589.01</ele>
        <time>2012-04-07T09:29:30Z</time>
      </trkpt>
      <trkpt lat="41.665439" lon="2.080111">
        <ele>590.05</ele>
        <time>2012-04-07T09:29:32Z</time>
      </trkpt>
      <trkpt lat="41.665364" lon="2.080023">
        <ele>593.05</ele>
        <time>2012-04-07T09:29:34Z</time>
      </trkpt>
      <trkpt lat="41.665270" lon="2.079966">
        <ele>593.01</ele>
        <time>2012-04-07T09:29:36Z</time>
      </trkpt>
      <trkpt lat="41.665136" lon="2.079887">
        <ele>591.07</ele>
        <time>2012-04-07T09:29:39Z</time>
      </trkpt>
      <trkpt lat="41.665035" lon="2.079813">
        <ele>592.09</ele>
        <time>2012-04-07T09:29:42Z</time>
      </trkpt>
      <trkpt lat="41.664942" lon="2.079710">
        <ele>592.08</ele>
        <time>2012-04-07T09:29:46Z</time>
      </trkpt>
      <trkpt lat="41.664882" lon="2.079573">
        <ele>592.07</ele>
        <time>2012-04-07T09:29:51Z</time>
      </trkpt>
      <trkpt lat="41.664855" lon="2.079436">
        <ele>591.01</ele>
        <time>2012-04-07T09:29:56Z</time>
      </trkpt>
      <trkpt lat="41.664845" lon="2.079287">
        <ele>592.01</ele>
        <time>2012-04-07T09:30:01Z</time>
      </trkpt>
      <trkpt lat="41.664855" lon="2.079131">
        <ele>596.04</ele>
        <time>2012-04-07T09:30:06Z</time>
      </trkpt>
      <trkpt lat="41.664859" lon="2.078997">
        <ele>593.02</ele>
        <time>2012-04-07T09:30:10Z</time>
      </trkpt>
      <trkpt lat="41.664882" lon="2.078846">
        <ele>590.08</ele>
        <time>2012-04-07T09:30:14Z</time>
      </trkpt>
      <trkpt lat="41.664882" lon="2.078693">
        <ele>585.09</ele>
        <time>2012-04-07T09:30:18Z</time>
      </trkpt>
      <trkpt lat="41.664862" lon="2.078539">
        <ele>586.02</ele>
        <time>2012-04-07T09:30:22Z</time>
      </trkpt>
      <trkpt lat="41.664829" lon="2.078371">
        <ele>589.07</ele>
        <time>2012-04-07T09:30:26Z</time>
      </trkpt>
      <trkpt lat="41.664812" lon="2.078214">
        <ele>584.02</ele>
        <time>2012-04-07T09:30:30Z</time>
      </trkpt>
      <trkpt lat="41.664811" lon="2.078059">
        <ele>583.09</ele>
        <time>2012-04-07T09:30:34Z</time>
      </trkpt>
      <trkpt lat="41.664807" lon="2.077908">
        <ele>585.07</ele>
        <time>2012-04-07T09:30:38Z</time>
      </trkpt>
      <trkpt lat="41.664799" lon="2.077756">
        <ele>580.01</ele>
        <time>2012-04-07T09:30:41Z</time>
      </trkpt>
      <trkpt lat="41.664775" lon="2.077586">
        <ele>579.01</ele>
        <time>2012-04-07T09:30:44Z</time>
      </trkpt>
      <trkpt lat="41.664707" lon="2.077472">
        <ele>580.08</ele>
        <time>2012-04-07T09:30:46Z</time>
      </trkpt>
      <trkpt lat="41.664611" lon="2.077386">
        <ele>580.04</ele>
        <time>2012-04-07T09:30:48Z</time>
      </trkpt>
      <trkpt lat="41.664496" lon="2.077305">
        <ele>582.10</ele>
        <time>2012-04-07T09:30:51Z</time>
      </trkpt>
      <trkpt lat="41.664390" lon="2.077268">
        <ele>584.03</ele>
        <time>2012-04-07T09:30:54Z</time>
      </trkpt>
      <trkpt lat="41.664266" lon="2.077224">
        <ele>584.05</ele>
        <time>2012-04-07T09:30:58Z</time>
      </trkpt>
      <trkpt lat="41.664223" lon="2.077075">
        <ele>584.02</ele>
        <time>2012-04-07T09:31:03Z</time>
      </trkpt>
      <trkpt lat="41.664205" lon="2.076912">
        <ele>583.02</ele>
        <time>2012-04-07T09:31:06Z</time>
      </trkpt>
      <trkpt lat="41.664159" lon="2.076755">
        <ele>585.05</ele>
        <time>2012-04-07T09:31:09Z</time>
      </trkpt>
      <trkpt lat="41.664098" lon="2.076642">
        <ele>586.08</ele>
        <time>2012-04-07T09:31:11Z</time>
      </trkpt>
      <trkpt lat="41.664017" lon="2.076508">
        <ele>586.01</ele>
        <time>2012-04-07T09:31:14Z</time>
      </trkpt>
      <trkpt lat="41.663944" lon="2.076389">
        <ele>587.02</ele>
        <time>2012-04-07T09:31:17Z</time>
      </trkpt>
      <trkpt lat="41.663897" lon="2.076229">
        <ele>588.01</ele>
        <time>2012-04-07T09:31:21Z</time>
      </trkpt>
      <trkpt lat="41.663926" lon="2.076102">
        <ele>589.06</ele>
        <time>2012-04-07T09:31:25Z</time>
      </trkpt>
      <trkpt lat="41.664009" lon="2.075992">
        <ele>588.09</ele>
        <time>2012-04-07T09:31:29Z</time>
      </trkpt>
      <trkpt lat="41.664088" lon="2.075867">
        <ele>592.01</ele>
        <time>2012-04-07T09:31:33Z</time>
      </trkpt>
      <trkpt lat="41.664152" lon="2.075734">
        <ele>593.07</ele>
        <time>2012-04-07T09:31:37Z</time>
      </trkpt>
      <trkpt lat="41.664162" lon="2.075565">
        <ele>592.01</ele>
        <time>2012-04-07T09:31:42Z</time>
      </trkpt>
      <trkpt lat="41.664145" lon="2.075398">
        <ele>594.03</ele>
        <time>2012-04-07T09:31:45Z</time>
      </trkpt>
      <trkpt lat="41.664160" lon="2.075219">
        <ele>592.01</ele>
        <time>2012-04-07T09:31:47Z</time>
      </trkpt>
      <trkpt lat="41.664156" lon="2.074998">
        <ele>590.08</ele>
        <time>2012-04-07T09:31:49Z</time>
      </trkpt>
      <trkpt lat="41.664114" lon="2.074784">
        <ele>594.01</ele>
        <time>2012-04-07T09:31:51Z</time>
      </trkpt>
      <trkpt lat="41.664043" lon="2.074578">
        <ele>597.02</ele>
        <time>2012-04-07T09:31:53Z</time>
      </trkpt>
      <trkpt lat="41.663939" lon="2.074396">
        <ele>598.05</ele>
        <time>2012-04-07T09:31:55Z</time>
      </trkpt>
      <trkpt lat="41.663833" lon="2.074262">
        <ele>597.10</ele>
        <time>2012-04-07T09:31:57Z</time>
      </trkpt>
      <trkpt lat="41.663738" lon="2.074182">
        <ele>596.05</ele>
        <time>2012-04-07T09:31:59Z</time>
      </trkpt>
      <trkpt lat="41.663601" lon="2.074081">
        <ele>598.02</ele>
        <time>2012-04-07T09:32:02Z</time>
      </trkpt>
      <trkpt lat="41.663504" lon="2.073993">
        <ele>598.03</ele>
        <time>2012-04-07T09:32:05Z</time>
      </trkpt>
      <trkpt lat="41.663426" lon="2.073836">
        <ele>595.08</ele>
        <time>2012-04-07T09:32:09Z</time>
      </trkpt>
      <trkpt lat="41.663389" lon="2.073708">
        <ele>594.07</ele>
        <time>2012-04-07T09:32:13Z</time>
      </trkpt>
      <trkpt lat="41.663371" lon="2.073555">
        <ele>603.04</ele>
        <time>2012-04-07T09:32:21Z</time>
      </trkpt>
      <trkpt lat="41.663357" lon="2.073491">
        <ele>607.08</ele>
        <time>2012-04-07T09:32:51Z</time>
      </trkpt>
      <trkpt lat="41.663355" lon="2.073519">
        <ele>608.01</ele>
        <time>2012-04-07T09:33:21Z</time>
      </trkpt>
      <trkpt lat="41.663327" lon="2.073497">
        <ele>592.02</ele>
        <time>2012-04-07T09:33:51Z</time>
      </trkpt>
      <trkpt lat="41.663327" lon="2.073497">
        <ele>592.01</ele>
        <time>2012-04-07T09:34:21Z</time>
      </trkpt>
      <trkpt lat="41.663327" lon="2.073497">
        <ele>592.05</ele>
        <time>2012-04-07T09:34:51Z</time>
      </trkpt>
      <trkpt lat="41.663327" lon="2.073497">
        <ele>592.04</ele>
        <time>2012-04-07T09:35:21Z</time>
      </trkpt>
      <trkpt lat="41.663327" lon="2.073497">
        <ele>592.07</ele>
        <time>2012-04-07T09:35:51Z</time>
      </trkpt>
      <trkpt lat="41.663327" lon="2.073497">
        <ele>592.09</ele>
        <time>2012-04-07T09:36:21Z</time>
      </trkpt>
      <trkpt lat="41.663327" lon="2.073497">
        <ele>592.02</ele>
        <time>2012-04-07T09:36:51Z</time>
      </trkpt>
      <trkpt lat="41.663330" lon="2.073460">
        <ele>608.09</ele>
        <time>2012-04-07T09:37:21Z</time>
      </trkpt>
      <trkpt lat="41.663335" lon="2.073412">
        <ele>607.06</ele>
        <time>2012-04-07T09:37:51Z</time>
      </trkpt>
      <trkpt lat="41.663362" lon="2.073279">
        <ele>607.02</ele>
        <time>2012-04-07T09:37:55Z</time>
      </trkpt>
      <trkpt lat="41.663398" lon="2.073139">
        <ele>605.01</ele>
        <time>2012-04-07T09:38:01Z</time>
      </trkpt>
      <trkpt lat="41.663433" lon="2.072996">
        <ele>604.01</ele>
        <time>2012-04-07T09:38:08Z</time>
      </trkpt>
      <trkpt lat="41.663460" lon="2.072856">
        <ele>604.05</ele>
        <time>2012-04-07T09:38:14Z</time>
      </trkpt>
      <trkpt lat="41.663478" lon="2.072708">
        <ele>605.03</ele>
        <time>2012-04-07T09:38:19Z</time>
      </trkpt>
      <trkpt lat="41.663474" lon="2.072555">
        <ele>604.02</ele>
        <time>2012-04-07T09:38:24Z</time>
      </trkpt>
      <trkpt lat="41.663441" lon="2.072410">
        <ele>605.03</ele>
        <time>2012-04-07T09:38:29Z</time>
      </trkpt>
      <trkpt lat="41.663370" lon="2.072295">
        <ele>604.07</ele>
        <time>2012-04-07T09:38:34Z</time>
      </trkpt>
      <trkpt lat="41.663271" lon="2.072223">
        <ele>603.08</ele>
        <time>2012-04-07T09:38:39Z</time>
      </trkpt>
      <trkpt lat="41.663164" lon="2.072168">
        <ele>605.10</ele>
        <time>2012-04-07T09:38:44Z</time>
      </trkpt>
      <trkpt lat="41.663058" lon="2.072123">
        <ele>606.03</ele>
        <time>2012-04-07T09:38:49Z</time>
      </trkpt>
      <trkpt lat="41.662957" lon="2.072096">
        <ele>605.06</ele>
        <time>2012-04-07T09:38:54Z</time>
      </trkpt>
      <trkpt lat="41.662857" lon="2.072082">
        <ele>600.01</ele>
        <time>2012-04-07T09:38:59Z</time>
      </trkpt>
      <trkpt lat="41.662806" lon="2.071954">
        <ele>598.02</ele>
        <time>2012-04-07T09:39:09Z</time>
      </trkpt>
      <trkpt lat="41.662915" lon="2.071986">
        <ele>598.02</ele>
        <time>2012-04-07T09:39:15Z</time>
      </trkpt>
      <trkpt lat="41.663019" lon="2.071996">
        <ele>597.08</ele>
        <time>2012-04-07T09:39:21Z</time>
      </trkpt>
      <trkpt lat="41.663117" lon="2.071918">
        <ele>594.10</ele>
        <time>2012-04-07T09:39:27Z</time>
      </trkpt>
      <trkpt lat="41.663197" lon="2.071839">
        <ele>592.07</ele>
        <time>2012-04-07T09:39:32Z</time>
      </trkpt>
      <trkpt lat="41.663292" lon="2.071786">
        <ele>592.04</ele>
        <time>2012-04-07T09:39:37Z</time>
      </trkpt>
      <trkpt lat="41.663396" lon="2.071768">
        <ele>590.06</ele>
        <time>2012-04-07T09:39:41Z</time>
      </trkpt>
      <trkpt lat="41.663506" lon="2.071798">
        <ele>589.02</ele>
        <time>2012-04-07T09:39:45Z</time>
      </trkpt>
      <trkpt lat="41.663616" lon="2.071835">
        <ele>592.09</ele>
        <time>2012-04-07T09:39:49Z</time>
      </trkpt>
      <trkpt lat="41.663722" lon="2.071863">
        <ele>592.07</ele>
        <time>2012-04-07T09:39:53Z</time>
      </trkpt>
      <trkpt lat="41.663825" lon="2.071808">
        <ele>595.01</ele>
        <time>2012-04-07T09:39:56Z</time>
      </trkpt>
      <trkpt lat="41.663886" lon="2.071637">
        <ele>595.02</ele>
        <time>2012-04-07T09:39:59Z</time>
      </trkpt>
      <trkpt lat="41.663866" lon="2.071470">
        <ele>596.00</ele>
        <time>2012-04-07T09:40:02Z</time>
      </trkpt>
      <trkpt lat="41.663821" lon="2.071329">
        <ele>597.04</ele>
        <time>2012-04-07T09:40:05Z</time>
      </trkpt>
      <trkpt lat="41.663809" lon="2.071187">
        <ele>598.06</ele>
        <time>2012-04-07T09:40:08Z</time>
      </trkpt>
      <trkpt lat="41.663812" lon="2.071036">
        <ele>599.10</ele>
        <time>2012-04-07T09:40:12Z</time>
      </trkpt>
      <trkpt lat="41.663780" lon="2.070900">
        <ele>599.03</ele>
        <time>2012-04-07T09:40:16Z</time>
      </trkpt>
      <trkpt lat="41.663740" lon="2.070765">
        <ele>600.05</ele>
        <time>2012-04-07T09:40:21Z</time>
      </trkpt>
      <trkpt lat="41.663686" lon="2.070628">
        <ele>598.05</ele>
        <time>2012-04-07T09:40:26Z</time>
      </trkpt>
      <trkpt lat="41.663649" lon="2.070501">
        <ele>593.06</ele>
        <time>2012-04-07T09:40:29Z</time>
      </trkpt>
      <trkpt lat="41.663634" lon="2.070363">
        <ele>593.04</ele>
        <time>2012-04-07T09:40:32Z</time>
      </trkpt>
      <trkpt lat="41.663614" lon="2.070212">
        <ele>594.01</ele>
        <time>2012-04-07T09:40:35Z</time>
      </trkpt>
      <trkpt lat="41.663571" lon="2.070081">
        <ele>594.02</ele>
        <time>2012-04-07T09:40:37Z</time>
      </trkpt>
      <trkpt lat="41.663508" lon="2.069960">
        <ele>594.03</ele>
        <time>2012-04-07T09:40:39Z</time>
      </trkpt>
      <trkpt lat="41.663428" lon="2.069827">
        <ele>594.07</ele>
        <time>2012-04-07T09:40:41Z</time>
      </trkpt>
      <trkpt lat="41.663339" lon="2.069703">
        <ele>596.07</ele>
        <time>2012-04-07T09:40:43Z</time>
      </trkpt>
      <trkpt lat="41.663245" lon="2.069592">
        <ele>597.05</ele>
        <time>2012-04-07T09:40:46Z</time>
      </trkpt>
      <trkpt lat="41.663130" lon="2.069550">
        <ele>598.06</ele>
        <time>2012-04-07T09:40:50Z</time>
      </trkpt>
      <trkpt lat="41.663019" lon="2.069529">
        <ele>593.02</ele>
        <time>2012-04-07T09:40:54Z</time>
      </trkpt>
      <trkpt lat="41.662945" lon="2.069417">
        <ele>591.08</ele>
        <time>2012-04-07T09:40:57Z</time>
      </trkpt>
      <trkpt lat="41.662934" lon="2.069276">
        <ele>593.05</ele>
        <time>2012-04-07T09:40:59Z</time>
      </trkpt>
      <trkpt lat="41.662942" lon="2.069106">
        <ele>596.05</ele>
        <time>2012-04-07T09:41:01Z</time>
      </trkpt>
      <trkpt lat="41.662950" lon="2.068937">
        <ele>595.01</ele>
        <time>2012-04-07T09:41:03Z</time>
      </trkpt>
      <trkpt lat="41.662958" lon="2.068755">
        <ele>599.02</ele>
        <time>2012-04-07T09:41:05Z</time>
      </trkpt>
      <trkpt lat="41.662961" lon="2.068611">
        <ele>600.05</ele>
        <time>2012-04-07T09:41:07Z</time>
      </trkpt>
      <trkpt lat="41.662971" lon="2.068454">
        <ele>601.06</ele>
        <time>2012-04-07T09:41:10Z</time>
      </trkpt>
      <trkpt lat="41.662975" lon="2.068295">
        <ele>601.09</ele>
        <time>2012-04-07T09:41:13Z</time>
      </trkpt>
      <trkpt lat="41.662974" lon="2.068158">
        <ele>601.07</ele>
        <time>2012-04-07T09:41:15Z</time>
      </trkpt>
      <trkpt lat="41.662968" lon="2.068025">
        <ele>599.02</ele>
        <time>2012-04-07T09:41:17Z</time>
      </trkpt>
      <trkpt lat="41.662936" lon="2.067856">
        <ele>599.02</ele>
        <time>2012-04-07T09:41:19Z</time>
      </trkpt>
      <trkpt lat="41.662895" lon="2.067684">
        <ele>601.05</ele>
        <time>2012-04-07T09:41:21Z</time>
      </trkpt>
      <trkpt lat="41.662888" lon="2.067503">
        <ele>602.07</ele>
        <time>2012-04-07T09:41:23Z</time>
      </trkpt>
      <trkpt lat="41.662914" lon="2.067340">
        <ele>606.05</ele>
        <time>2012-04-07T09:41:25Z</time>
      </trkpt>
      <trkpt lat="41.662929" lon="2.067187">
        <ele>608.01</ele>
        <time>2012-04-07T09:41:28Z</time>
      </trkpt>
      <trkpt lat="41.662920" lon="2.067008">
        <ele>611.01</ele>
        <time>2012-04-07T09:41:32Z</time>
      </trkpt>
      <trkpt lat="41.662911" lon="2.066851">
        <ele>612.09</ele>
        <time>2012-04-07T09:41:38Z</time>
      </trkpt>
      <trkpt lat="41.662895" lon="2.066696">
        <ele>608.02</ele>
        <time>2012-04-07T09:41:44Z</time>
      </trkpt>
      <trkpt lat="41.662899" lon="2.066551">
        <ele>605.05</ele>
        <time>2012-04-07T09:41:49Z</time>
      </trkpt>
      <trkpt lat="41.662907" lon="2.066391">
        <ele>605.10</ele>
        <time>2012-04-07T09:41:54Z</time>
      </trkpt>
      <trkpt lat="41.662912" lon="2.066252">
        <ele>609.08</ele>
        <time>2012-04-07T09:41:58Z</time>
      </trkpt>
      <trkpt lat="41.662938" lon="2.066114">
        <ele>609.04</ele>
        <time>2012-04-07T09:42:02Z</time>
      </trkpt>
      <trkpt lat="41.662993" lon="2.065973">
        <ele>606.01</ele>
        <time>2012-04-07T09:42:07Z</time>
      </trkpt>
      <trkpt lat="41.663043" lon="2.065848">
        <ele>606.06</ele>
        <time>2012-04-07T09:42:11Z</time>
      </trkpt>
      <trkpt lat="41.663102" lon="2.065705">
        <ele>605.06</ele>
        <time>2012-04-07T09:42:16Z</time>
      </trkpt>
      <trkpt lat="41.663167" lon="2.065578">
        <ele>606.01</ele>
        <time>2012-04-07T09:42:21Z</time>
      </trkpt>
      <trkpt lat="41.663207" lon="2.065448">
        <ele>606.02</ele>
        <time>2012-04-07T09:42:27Z</time>
      </trkpt>
      <trkpt lat="41.663235" lon="2.065307">
        <ele>606.00</ele>
        <time>2012-04-07T09:42:33Z</time>
      </trkpt>
      <trkpt lat="41.663267" lon="2.065156">
        <ele>605.05</ele>
        <time>2012-04-07T09:42:40Z</time>
      </trkpt>
      <trkpt lat="41.663291" lon="2.065015">
        <ele>604.07</ele>
        <time>2012-04-07T09:42:46Z</time>
      </trkpt>
      <trkpt lat="41.663317" lon="2.064887">
        <ele>603.07</ele>
        <time>2012-04-07T09:42:50Z</time>
      </trkpt>
      <trkpt lat="41.663370" lon="2.064757">
        <ele>601.06</ele>
        <time>2012-04-07T09:42:55Z</time>
      </trkpt>
      <trkpt lat="41.663427" lon="2.064624">
        <ele>602.10</ele>
        <time>2012-04-07T09:43:00Z</time>
      </trkpt>
      <trkpt lat="41.663494" lon="2.064508">
        <ele>600.05</ele>
        <time>2012-04-07T09:43:04Z</time>
      </trkpt>
      <trkpt lat="41.663569" lon="2.064382">
        <ele>602.06</ele>
        <time>2012-04-07T09:43:09Z</time>
      </trkpt>
      <trkpt lat="41.663676" lon="2.064305">
        <ele>599.09</ele>
        <time>2012-04-07T09:43:14Z</time>
      </trkpt>
      <trkpt lat="41.663774" lon="2.064260">
        <ele>600.01</ele>
        <time>2012-04-07T09:43:19Z</time>
      </trkpt>
      <trkpt lat="41.663883" lon="2.064217">
        <ele>598.01</ele>
        <time>2012-04-07T09:43:25Z</time>
      </trkpt>
      <trkpt lat="41.663989" lon="2.064181">
        <ele>598.05</ele>
        <time>2012-04-07T09:43:29Z</time>
      </trkpt>
      <trkpt lat="41.664095" lon="2.064157">
        <ele>597.03</ele>
        <time>2012-04-07T09:43:33Z</time>
      </trkpt>
      <trkpt lat="41.664220" lon="2.064124">
        <ele>595.01</ele>
        <time>2012-04-07T09:43:37Z</time>
      </trkpt>
      <trkpt lat="41.664329" lon="2.064095">
        <ele>596.08</ele>
        <time>2012-04-07T09:43:41Z</time>
      </trkpt>
      <trkpt lat="41.664435" lon="2.064064">
        <ele>597.07</ele>
        <time>2012-04-07T09:43:45Z</time>
      </trkpt>
      <trkpt lat="41.664539" lon="2.064031">
        <ele>596.03</ele>
        <time>2012-04-07T09:43:49Z</time>
      </trkpt>
      <trkpt lat="41.664656" lon="2.064000">
        <ele>596.07</ele>
        <time>2012-04-07T09:43:54Z</time>
      </trkpt>
      <trkpt lat="41.664778" lon="2.064026">
        <ele>595.07</ele>
        <time>2012-04-07T09:43:58Z</time>
      </trkpt>
      <trkpt lat="41.664898" lon="2.064015">
        <ele>595.06</ele>
        <time>2012-04-07T09:44:03Z</time>
      </trkpt>
      <trkpt lat="41.664992" lon="2.063963">
        <ele>595.01</ele>
        <time>2012-04-07T09:44:08Z</time>
      </trkpt>
      <trkpt lat="41.665091" lon="2.063877">
        <ele>596.02</ele>
        <time>2012-04-07T09:44:14Z</time>
      </trkpt>
      <trkpt lat="41.665187" lon="2.063778">
        <ele>593.03</ele>
        <time>2012-04-07T09:44:20Z</time>
      </trkpt>
      <trkpt lat="41.665276" lon="2.063692">
        <ele>593.08</ele>
        <time>2012-04-07T09:44:24Z</time>
      </trkpt>
      <trkpt lat="41.665364" lon="2.063627">
        <ele>593.03</ele>
        <time>2012-04-07T09:44:27Z</time>
      </trkpt>
      <trkpt lat="41.665477" lon="2.063576">
        <ele>591.08</ele>
        <time>2012-04-07T09:44:30Z</time>
      </trkpt>
      <trkpt lat="41.665605" lon="2.063531">
        <ele>591.09</ele>
        <time>2012-04-07T09:44:32Z</time>
      </trkpt>
      <trkpt lat="41.665745" lon="2.063487">
        <ele>594.02</ele>
        <time>2012-04-07T09:44:35Z</time>
      </trkpt>
      <trkpt lat="41.665864" lon="2.063431">
        <ele>597.03</ele>
        <time>2012-04-07T09:44:38Z</time>
      </trkpt>
      <trkpt lat="41.665962" lon="2.063375">
        <ele>596.08</ele>
        <time>2012-04-07T09:44:41Z</time>
      </trkpt>
      <trkpt lat="41.666070" lon="2.063302">
        <ele>593.07</ele>
        <time>2012-04-07T09:44:45Z</time>
      </trkpt>
      <trkpt lat="41.666176" lon="2.063237">
        <ele>593.01</ele>
        <time>2012-04-07T09:44:48Z</time>
      </trkpt>
      <trkpt lat="41.666234" lon="2.063212">
        <ele>594.01</ele>
        <time>2012-04-07T09:45:16Z</time>
      </trkpt>
      <trkpt lat="41.666288" lon="2.063207">
        <ele>593.08</ele>
        <time>2012-04-07T09:45:34Z</time>
      </trkpt>
      <trkpt lat="41.666392" lon="2.063162">
        <ele>599.06</ele>
        <time>2012-04-07T09:45:38Z</time>
      </trkpt>
      <trkpt lat="41.666486" lon="2.063083">
        <ele>598.08</ele>
        <time>2012-04-07T09:45:42Z</time>
      </trkpt>
      <trkpt lat="41.666577" lon="2.062989">
        <ele>597.04</ele>
        <time>2012-04-07T09:45:47Z</time>
      </trkpt>
      <trkpt lat="41.666636" lon="2.062876">
        <ele>599.03</ele>
        <time>2012-04-07T09:45:51Z</time>
      </trkpt>
      <trkpt lat="41.666683" lon="2.062734">
        <ele>599.05</ele>
        <time>2012-04-07T09:45:57Z</time>
      </trkpt>
      <trkpt lat="41.666730" lon="2.062589">
        <ele>597.09</ele>
        <time>2012-04-07T09:46:03Z</time>
      </trkpt>
      <trkpt lat="41.666812" lon="2.062499">
        <ele>597.09</ele>
        <time>2012-04-07T09:46:09Z</time>
      </trkpt>
      <trkpt lat="41.666897" lon="2.062420">
        <ele>595.05</ele>
        <time>2012-04-07T09:46:15Z</time>
      </trkpt>
      <trkpt lat="41.666988" lon="2.062358">
        <ele>594.01</ele>
        <time>2012-04-07T09:46:20Z</time>
      </trkpt>
      <trkpt lat="41.667084" lon="2.062294">
        <ele>594.02</ele>
        <time>2012-04-07T09:46:25Z</time>
      </trkpt>
      <trkpt lat="41.667177" lon="2.062236">
        <ele>594.05</ele>
        <time>2012-04-07T09:46:30Z</time>
      </trkpt>
      <trkpt lat="41.667272" lon="2.062180">
        <ele>595.06</ele>
        <time>2012-04-07T09:46:35Z</time>
      </trkpt>
      <trkpt lat="41.667366" lon="2.062128">
        <ele>590.04</ele>
        <time>2012-04-07T09:46:40Z</time>
      </trkpt>
      <trkpt lat="41.667462" lon="2.062079">
        <ele>591.04</ele>
        <time>2012-04-07T09:46:45Z</time>
      </trkpt>
      <trkpt lat="41.667551" lon="2.062009">
        <ele>590.09</ele>
        <time>2012-04-07T09:46:50Z</time>
      </trkpt>
      <trkpt lat="41.667657" lon="2.061944">
        <ele>591.03</ele>
        <time>2012-04-07T09:46:56Z</time>
      </trkpt>
      <trkpt lat="41.667751" lon="2.061893">
        <ele>591.03</ele>
        <time>2012-04-07T09:47:01Z</time>
      </trkpt>
      <trkpt lat="41.667859" lon="2.061874">
        <ele>588.05</ele>
        <time>2012-04-07T09:47:07Z</time>
      </trkpt>
      <trkpt lat="41.667964" lon="2.061872">
        <ele>589.09</ele>
        <time>2012-04-07T09:47:13Z</time>
      </trkpt>
      <trkpt lat="41.668073" lon="2.061893">
        <ele>591.01</ele>
        <time>2012-04-07T09:47:21Z</time>
      </trkpt>
      <trkpt lat="41.668171" lon="2.061929">
        <ele>589.01</ele>
        <time>2012-04-07T09:47:29Z</time>
      </trkpt>
      <trkpt lat="41.668269" lon="2.061986">
        <ele>586.06</ele>
        <time>2012-04-07T09:47:37Z</time>
      </trkpt>
      <trkpt lat="41.668360" lon="2.062041">
        <ele>585.02</ele>
        <time>2012-04-07T09:47:44Z</time>
      </trkpt>
      <trkpt lat="41.668458" lon="2.062101">
        <ele>582.04</ele>
        <time>2012-04-07T09:47:52Z</time>
      </trkpt>
      <trkpt lat="41.668551" lon="2.062158">
        <ele>582.02</ele>
        <time>2012-04-07T09:47:59Z</time>
      </trkpt>
      <trkpt lat="41.668652" lon="2.062215">
        <ele>581.08</ele>
        <time>2012-04-07T09:48:07Z</time>
      </trkpt>
      <trkpt lat="41.668754" lon="2.062221">
        <ele>578.05</ele>
        <time>2012-04-07T09:48:14Z</time>
      </trkpt>
      <trkpt lat="41.668868" lon="2.062199">
        <ele>577.07</ele>
        <time>2012-04-07T09:48:22Z</time>
      </trkpt>
      <trkpt lat="41.668980" lon="2.062214">
        <ele>575.06</ele>
        <time>2012-04-07T09:48:30Z</time>
      </trkpt>
      <trkpt lat="41.669088" lon="2.062239">
        <ele>575.06</ele>
        <time>2012-04-07T09:48:38Z</time>
      </trkpt>
      <trkpt lat="41.669194" lon="2.062256">
        <ele>575.01</ele>
        <time>2012-04-07T09:48:44Z</time>
      </trkpt>
      <trkpt lat="41.669293" lon="2.062245">
        <ele>573.01</ele>
        <time>2012-04-07T09:48:52Z</time>
      </trkpt>
      <trkpt lat="41.669376" lon="2.062172">
        <ele>574.08</ele>
        <time>2012-04-07T09:48:58Z</time>
      </trkpt>
      <trkpt lat="41.669457" lon="2.062071">
        <ele>579.04</ele>
        <time>2012-04-07T09:49:03Z</time>
      </trkpt>
      <trkpt lat="41.669492" lon="2.061998">
        <ele>578.08</ele>
        <time>2012-04-07T09:49:30Z</time>
      </trkpt>
      <trkpt lat="41.669526" lon="2.061862">
        <ele>576.05</ele>
        <time>2012-04-07T09:49:40Z</time>
      </trkpt>
      <trkpt lat="41.669561" lon="2.061723">
        <ele>575.02</ele>
        <time>2012-04-07T09:49:50Z</time>
      </trkpt>
      <trkpt lat="41.669607" lon="2.061604">
        <ele>571.10</ele>
        <time>2012-04-07T09:49:59Z</time>
      </trkpt>
      <trkpt lat="41.669652" lon="2.061492">
        <ele>571.04</ele>
        <time>2012-04-07T09:50:09Z</time>
      </trkpt>
      <trkpt lat="41.669683" lon="2.061360">
        <ele>569.09</ele>
        <time>2012-04-07T09:50:18Z</time>
      </trkpt>
      <trkpt lat="41.669725" lon="2.061233">
        <ele>566.03</ele>
        <time>2012-04-07T09:50:28Z</time>
      </trkpt>
      <trkpt lat="41.669768" lon="2.061114">
        <ele>566.01</ele>
        <time>2012-04-07T09:50:36Z</time>
      </trkpt>
      <trkpt lat="41.669811" lon="2.060978">
        <ele>568.02</ele>
        <time>2012-04-07T09:50:44Z</time>
      </trkpt>
      <trkpt lat="41.669859" lon="2.060848">
        <ele>564.09</ele>
        <time>2012-04-07T09:50:53Z</time>
      </trkpt>
      <trkpt lat="41.669899" lon="2.060716">
        <ele>565.03</ele>
        <time>2012-04-07T09:51:02Z</time>
      </trkpt>
      <trkpt lat="41.669926" lon="2.060646">
        <ele>561.10</ele>
        <time>2012-04-07T09:51:21Z</time>
      </trkpt>
      <trkpt lat="41.669941" lon="2.060526">
        <ele>562.06</ele>
        <time>2012-04-07T09:51:31Z</time>
      </trkpt>
      <trkpt lat="41.669953" lon="2.060400">
        <ele>561.09</ele>
        <time>2012-04-07T09:51:41Z</time>
      </trkpt>
      <trkpt lat="41.670016" lon="2.060314">
        <ele>556.05</ele>
        <time>2012-04-07T09:51:51Z</time>
      </trkpt>
      <trkpt lat="41.670108" lon="2.060354">
        <ele>566.05</ele>
        <time>2012-04-07T09:52:01Z</time>
      </trkpt>
      <trkpt lat="41.670136" lon="2.060464">
        <ele>564.06</ele>
        <time>2012-04-07T09:52:11Z</time>
      </trkpt>
      <trkpt lat="41.670146" lon="2.060587">
        <ele>553.05</ele>
        <time>2012-04-07T09:52:21Z</time>
      </trkpt>
      <trkpt lat="41.670166" lon="2.060720">
        <ele>553.01</ele>
        <time>2012-04-07T09:52:31Z</time>
      </trkpt>
      <trkpt lat="41.670195" lon="2.060854">
        <ele>547.01</ele>
        <time>2012-04-07T09:52:41Z</time>
      </trkpt>
      <trkpt lat="41.670241" lon="2.060983">
        <ele>540.08</ele>
        <time>2012-04-07T09:52:51Z</time>
      </trkpt>
      <trkpt lat="41.670285" lon="2.061045">
        <ele>551.06</ele>
        <time>2012-04-07T09:53:16Z</time>
      </trkpt>
      <trkpt lat="41.670295" lon="2.061049">
        <ele>558.07</ele>
        <time>2012-04-07T09:53:46Z</time>
      </trkpt>
      <trkpt lat="41.670341" lon="2.061131">
        <ele>555.10</ele>
        <time>2012-04-07T09:53:56Z</time>
      </trkpt>
      <trkpt lat="41.670368" lon="2.061234">
        <ele>553.04</ele>
        <time>2012-04-07T09:54:06Z</time>
      </trkpt>
      <trkpt lat="41.670367" lon="2.061358">
        <ele>555.09</ele>
        <time>2012-04-07T09:54:16Z</time>
      </trkpt>
      <trkpt lat="41.670344" lon="2.061464">
        <ele>555.07</ele>
        <time>2012-04-07T09:54:26Z</time>
      </trkpt>
      <trkpt lat="41.670293" lon="2.061535">
        <ele>547.05</ele>
        <time>2012-04-07T09:54:36Z</time>
      </trkpt>
      <trkpt lat="41.670288" lon="2.061617">
        <ele>541.06</ele>
        <time>2012-04-07T09:54:52Z</time>
      </trkpt>
      <trkpt lat="41.670356" lon="2.061624">
        <ele>539.01</ele>
        <time>2012-04-07T09:55:02Z</time>
      </trkpt>
      <trkpt lat="41.670407" lon="2.061509">
        <ele>538.01</ele>
        <time>2012-04-07T09:55:09Z</time>
      </trkpt>
      <trkpt lat="41.670485" lon="2.061408">
        <ele>537.00</ele>
        <time>2012-04-07T09:55:16Z</time>
      </trkpt>
      <trkpt lat="41.670575" lon="2.061321">
        <ele>533.05</ele>
        <time>2012-04-07T09:55:25Z</time>
      </trkpt>
      <trkpt lat="41.670642" lon="2.061220">
        <ele>535.02</ele>
        <time>2012-04-07T09:55:32Z</time>
      </trkpt>
      <trkpt lat="41.670697" lon="2.061108">
        <ele>535.07</ele>
        <time>2012-04-07T09:55:40Z</time>
      </trkpt>
      <trkpt lat="41.670741" lon="2.060988">
        <ele>533.09</ele>
        <time>2012-04-07T09:55:47Z</time>
      </trkpt>
      <trkpt lat="41.670749" lon="2.060852">
        <ele>536.10</ele>
        <time>2012-04-07T09:55:55Z</time>
      </trkpt>
      <trkpt lat="41.670726" lon="2.060721">
        <ele>536.03</ele>
        <time>2012-04-07T09:56:02Z</time>
      </trkpt>
      <trkpt lat="41.670672" lon="2.060609">
        <ele>533.01</ele>
        <time>2012-04-07T09:56:09Z</time>
      </trkpt>
      <trkpt lat="41.670678" lon="2.060477">
        <ele>526.08</ele>
        <time>2012-04-07T09:56:16Z</time>
      </trkpt>
      <trkpt lat="41.670739" lon="2.060350">
        <ele>523.01</ele>
        <time>2012-04-07T09:56:24Z</time>
      </trkpt>
      <trkpt lat="41.670807" lon="2.060247">
        <ele>524.02</ele>
        <time>2012-04-07T09:56:30Z</time>
      </trkpt>
      <trkpt lat="41.670842" lon="2.060116">
        <ele>524.06</ele>
        <time>2012-04-07T09:56:38Z</time>
      </trkpt>
      <trkpt lat="41.670858" lon="2.059982">
        <ele>523.05</ele>
        <time>2012-04-07T09:56:46Z</time>
      </trkpt>
      <trkpt lat="41.670900" lon="2.059845">
        <ele>520.03</ele>
        <time>2012-04-07T09:56:54Z</time>
      </trkpt>
      <trkpt lat="41.670937" lon="2.059722">
        <ele>518.04</ele>
        <time>2012-04-07T09:57:01Z</time>
      </trkpt>
      <trkpt lat="41.670961" lon="2.059582">
        <ele>518.08</ele>
        <time>2012-04-07T09:57:07Z</time>
      </trkpt>
      <trkpt lat="41.671001" lon="2.059438">
        <ele>516.03</ele>
        <time>2012-04-07T09:57:13Z</time>
      </trkpt>
      <trkpt lat="41.671012" lon="2.059283">
        <ele>516.08</ele>
        <time>2012-04-07T09:57:18Z</time>
      </trkpt>
      <trkpt lat="41.671023" lon="2.059125">
        <ele>516.08</ele>
        <time>2012-04-07T09:57:23Z</time>
      </trkpt>
      <trkpt lat="41.671022" lon="2.058983">
        <ele>517.01</ele>
        <time>2012-04-07T09:57:28Z</time>
      </trkpt>
      <trkpt lat="41.671013" lon="2.058839">
        <ele>517.01</ele>
        <time>2012-04-07T09:57:34Z</time>
      </trkpt>
      <trkpt lat="41.670993" lon="2.058693">
        <ele>519.02</ele>
        <time>2012-04-07T09:57:40Z</time>
      </trkpt>
      <trkpt lat="41.670974" lon="2.058556">
        <ele>515.00</ele>
        <time>2012-04-07T09:57:49Z</time>
      </trkpt>
      <trkpt lat="41.670952" lon="2.058420">
        <ele>513.03</ele>
        <time>2012-04-07T09:57:58Z</time>
      </trkpt>
      <trkpt lat="41.670944" lon="2.058271">
        <ele>512.04</ele>
        <time>2012-04-07T09:58:06Z</time>
      </trkpt>
      <trkpt lat="41.670962" lon="2.058133">
        <ele>505.05</ele>
        <time>2012-04-07T09:58:14Z</time>
      </trkpt>
      <trkpt lat="41.671058" lon="2.058184">
        <ele>505.09</ele>
        <time>2012-04-07T09:58:21Z</time>
      </trkpt>
      <trkpt lat="41.671089" lon="2.058257">
        <ele>508.05</ele>
        <time>2012-04-07T09:58:36Z</time>
      </trkpt>
      <trkpt lat="41.671115" lon="2.058337">
        <ele>507.06</ele>
        <time>2012-04-07T09:58:46Z</time>
      </trkpt>
      <trkpt lat="41.671157" lon="2.058460">
        <ele>508.10</ele>
        <time>2012-04-07T09:58:51Z</time>
      </trkpt>
      <trkpt lat="41.671218" lon="2.058567">
        <ele>507.03</ele>
        <time>2012-04-07T09:58:56Z</time>
      </trkpt>
      <trkpt lat="41.671287" lon="2.058693">
        <ele>501.01</ele>
        <time>2012-04-07T09:59:03Z</time>
      </trkpt>
      <trkpt lat="41.671393" lon="2.058674">
        <ele>504.02</ele>
        <time>2012-04-07T09:59:09Z</time>
      </trkpt>
      <trkpt lat="41.671409" lon="2.058516">
        <ele>508.00</ele>
        <time>2012-04-07T09:59:13Z</time>
      </trkpt>
      <trkpt lat="41.671390" lon="2.058356">
        <ele>509.03</ele>
        <time>2012-04-07T09:59:16Z</time>
      </trkpt>
      <trkpt lat="41.671387" lon="2.058208">
        <ele>511.08</ele>
        <time>2012-04-07T09:59:18Z</time>
      </trkpt>
      <trkpt lat="41.671395" lon="2.058044">
        <ele>514.02</ele>
        <time>2012-04-07T09:59:20Z</time>
      </trkpt>
      <trkpt lat="41.671395" lon="2.057889">
        <ele>514.01</ele>
        <time>2012-04-07T09:59:22Z</time>
      </trkpt>
      <trkpt lat="41.671346" lon="2.057693">
        <ele>516.05</ele>
        <time>2012-04-07T09:59:25Z</time>
      </trkpt>
      <trkpt lat="41.671285" lon="2.057531">
        <ele>515.08</ele>
        <time>2012-04-07T09:59:28Z</time>
      </trkpt>
      <trkpt lat="41.671243" lon="2.057375">
        <ele>517.08</ele>
        <time>2012-04-07T09:59:31Z</time>
      </trkpt>
      <trkpt lat="41.671199" lon="2.057212">
        <ele>517.07</ele>
        <time>2012-04-07T09:59:34Z</time>
      </trkpt>
      <trkpt lat="41.671166" lon="2.057067">
        <ele>516.01</ele>
        <time>2012-04-07T09:59:37Z</time>
      </trkpt>
      <trkpt lat="41.671122" lon="2.056893">
        <ele>515.01</ele>
        <time>2012-04-07T09:59:40Z</time>
      </trkpt>
      <trkpt lat="41.671052" lon="2.056735">
        <ele>514.07</ele>
        <time>2012-04-07T09:59:43Z</time>
      </trkpt>
      <trkpt lat="41.670950" lon="2.056609">
        <ele>514.03</ele>
        <time>2012-04-07T09:59:46Z</time>
      </trkpt>
      <trkpt lat="41.670827" lon="2.056515">
        <ele>513.07</ele>
        <time>2012-04-07T09:59:49Z</time>
      </trkpt>
      <trkpt lat="41.670724" lon="2.056470">
        <ele>512.04</ele>
        <time>2012-04-07T09:59:51Z</time>
      </trkpt>
      <trkpt lat="41.670616" lon="2.056441">
        <ele>511.05</ele>
        <time>2012-04-07T09:59:53Z</time>
      </trkpt>
      <trkpt lat="41.670501" lon="2.056436">
        <ele>511.10</ele>
        <time>2012-04-07T09:59:55Z</time>
      </trkpt>
      <trkpt lat="41.670396" lon="2.056444">
        <ele>510.03</ele>
        <time>2012-04-07T09:59:57Z</time>
      </trkpt>
      <trkpt lat="41.670269" lon="2.056465">
        <ele>512.06</ele>
        <time>2012-04-07T10:00:00Z</time>
      </trkpt>
      <trkpt lat="41.670171" lon="2.056380">
        <ele>509.06</ele>
        <time>2012-04-07T10:00:04Z</time>
      </trkpt>
      <trkpt lat="41.670209" lon="2.056232">
        <ele>506.01</ele>
        <time>2012-04-07T10:00:07Z</time>
      </trkpt>
      <trkpt lat="41.670287" lon="2.056134">
        <ele>507.02</ele>
        <time>2012-04-07T10:00:10Z</time>
      </trkpt>
      <trkpt lat="41.670379" lon="2.056073">
        <ele>511.00</ele>
        <time>2012-04-07T10:00:13Z</time>
      </trkpt>
      <trkpt lat="41.670494" lon="2.056043">
        <ele>509.06</ele>
        <time>2012-04-07T10:00:16Z</time>
      </trkpt>
      <trkpt lat="41.670604" lon="2.056025">
        <ele>508.02</ele>
        <time>2012-04-07T10:00:19Z</time>
      </trkpt>
      <trkpt lat="41.670715" lon="2.056008">
        <ele>509.06</ele>
        <time>2012-04-07T10:00:22Z</time>
      </trkpt>
      <trkpt lat="41.670844" lon="2.055998">
        <ele>509.04</ele>
        <time>2012-04-07T10:00:26Z</time>
      </trkpt>
      <trkpt lat="41.670977" lon="2.056014">
        <ele>513.02</ele>
        <time>2012-04-07T10:00:30Z</time>
      </trkpt>
      <trkpt lat="41.671108" lon="2.056052">
        <ele>512.07</ele>
        <time>2012-04-07T10:00:33Z</time>
      </trkpt>
      <trkpt lat="41.671237" lon="2.056080">
        <ele>510.02</ele>
        <time>2012-04-07T10:00:36Z</time>
      </trkpt>
      <trkpt lat="41.671353" lon="2.056093">
        <ele>515.04</ele>
        <time>2012-04-07T10:00:39Z</time>
      </trkpt>
      <trkpt lat="41.671469" lon="2.056088">
        <ele>517.01</ele>
        <time>2012-04-07T10:00:42Z</time>
      </trkpt>
      <trkpt lat="41.671582" lon="2.056058">
        <ele>512.02</ele>
        <time>2012-04-07T10:00:45Z</time>
      </trkpt>
      <trkpt lat="41.671723" lon="2.056041">
        <ele>513.09</ele>
        <time>2012-04-07T10:00:48Z</time>
      </trkpt>
      <trkpt lat="41.671845" lon="2.056054">
        <ele>511.03</ele>
        <time>2012-04-07T10:00:51Z</time>
      </trkpt>
      <trkpt lat="41.671943" lon="2.056080">
        <ele>512.05</ele>
        <time>2012-04-07T10:00:54Z</time>
      </trkpt>
      <trkpt lat="41.672049" lon="2.056094">
        <ele>510.03</ele>
        <time>2012-04-07T10:00:57Z</time>
      </trkpt>
      <trkpt lat="41.672147" lon="2.056070">
        <ele>509.05</ele>
        <time>2012-04-07T10:01:00Z</time>
      </trkpt>
      <trkpt lat="41.672290" lon="2.056053">
        <ele>508.08</ele>
        <time>2012-04-07T10:01:03Z</time>
      </trkpt>
      <trkpt lat="41.672406" lon="2.056088">
        <ele>507.03</ele>
        <time>2012-04-07T10:01:05Z</time>
      </trkpt>
      <trkpt lat="41.672506" lon="2.056192">
        <ele>509.05</ele>
        <time>2012-04-07T10:01:07Z</time>
      </trkpt>
      <trkpt lat="41.672587" lon="2.056312">
        <ele>512.08</ele>
        <time>2012-04-07T10:01:09Z</time>
      </trkpt>
      <trkpt lat="41.672653" lon="2.056414">
        <ele>513.01</ele>
        <time>2012-04-07T10:01:11Z</time>
      </trkpt>
      <trkpt lat="41.672733" lon="2.056542">
        <ele>512.03</ele>
        <time>2012-04-07T10:01:14Z</time>
      </trkpt>
      <trkpt lat="41.672807" lon="2.056665">
        <ele>512.03</ele>
        <time>2012-04-07T10:01:17Z</time>
      </trkpt>
      <trkpt lat="41.672876" lon="2.056781">
        <ele>512.08</ele>
        <time>2012-04-07T10:01:20Z</time>
      </trkpt>
      <trkpt lat="41.672945" lon="2.056909">
        <ele>513.04</ele>
        <time>2012-04-07T10:01:23Z</time>
      </trkpt>
      <trkpt lat="41.673017" lon="2.057041">
        <ele>514.07</ele>
        <time>2012-04-07T10:01:26Z</time>
      </trkpt>
      <trkpt lat="41.673079" lon="2.057158">
        <ele>513.03</ele>
        <time>2012-04-07T10:01:29Z</time>
      </trkpt>
      <trkpt lat="41.673135" lon="2.057272">
        <ele>513.09</ele>
        <time>2012-04-07T10:01:32Z</time>
      </trkpt>
      <trkpt lat="41.673193" lon="2.057391">
        <ele>513.03</ele>
        <time>2012-04-07T10:01:35Z</time>
      </trkpt>
      <trkpt lat="41.673258" lon="2.057500">
        <ele>514.07</ele>
        <time>2012-04-07T10:01:38Z</time>
      </trkpt>
      <trkpt lat="41.673354" lon="2.057611">
        <ele>510.03</ele>
        <time>2012-04-07T10:01:42Z</time>
      </trkpt>
      <trkpt lat="41.673445" lon="2.057672">
        <ele>513.01</ele>
        <time>2012-04-07T10:01:45Z</time>
      </trkpt>
      <trkpt lat="41.673548" lon="2.057743">
        <ele>512.02</ele>
        <time>2012-04-07T10:01:48Z</time>
      </trkpt>
      <trkpt lat="41.673670" lon="2.057829">
        <ele>512.07</ele>
        <time>2012-04-07T10:01:52Z</time>
      </trkpt>
      <trkpt lat="41.673761" lon="2.057898">
        <ele>513.09</ele>
        <time>2012-04-07T10:01:55Z</time>
      </trkpt>
      <trkpt lat="41.673859" lon="2.057955">
        <ele>515.03</ele>
        <time>2012-04-07T10:01:58Z</time>
      </trkpt>
      <trkpt lat="41.673957" lon="2.057999">
        <ele>513.03</ele>
        <time>2012-04-07T10:02:01Z</time>
      </trkpt>
      <trkpt lat="41.674078" lon="2.058069">
        <ele>512.08</ele>
        <time>2012-04-07T10:02:05Z</time>
      </trkpt>
      <trkpt lat="41.674194" lon="2.058142">
        <ele>512.03</ele>
        <time>2012-04-07T10:02:09Z</time>
      </trkpt>
      <trkpt lat="41.674284" lon="2.058206">
        <ele>513.04</ele>
        <time>2012-04-07T10:02:12Z</time>
      </trkpt>
      <trkpt lat="41.674375" lon="2.058264">
        <ele>511.02</ele>
        <time>2012-04-07T10:02:15Z</time>
      </trkpt>
      <trkpt lat="41.674499" lon="2.058318">
        <ele>511.06</ele>
        <time>2012-04-07T10:02:19Z</time>
      </trkpt>
      <trkpt lat="41.674600" lon="2.058353">
        <ele>512.01</ele>
        <time>2012-04-07T10:02:22Z</time>
      </trkpt>
      <trkpt lat="41.674719" lon="2.058399">
        <ele>511.02</ele>
        <time>2012-04-07T10:02:26Z</time>
      </trkpt>
      <trkpt lat="41.674819" lon="2.058432">
        <ele>513.09</ele>
        <time>2012-04-07T10:02:30Z</time>
      </trkpt>
      <trkpt lat="41.674918" lon="2.058444">
        <ele>514.03</ele>
        <time>2012-04-07T10:02:34Z</time>
      </trkpt>
      <trkpt lat="41.675020" lon="2.058441">
        <ele>515.03</ele>
        <time>2012-04-07T10:02:38Z</time>
      </trkpt>
      <trkpt lat="41.675134" lon="2.058462">
        <ele>513.01</ele>
        <time>2012-04-07T10:02:42Z</time>
      </trkpt>
      <trkpt lat="41.675244" lon="2.058511">
        <ele>510.01</ele>
        <time>2012-04-07T10:02:46Z</time>
      </trkpt>
      <trkpt lat="41.675349" lon="2.058588">
        <ele>509.07</ele>
        <time>2012-04-07T10:02:50Z</time>
      </trkpt>
      <trkpt lat="41.675440" lon="2.058708">
        <ele>510.01</ele>
        <time>2012-04-07T10:02:54Z</time>
      </trkpt>
      <trkpt lat="41.675479" lon="2.058832">
        <ele>510.04</ele>
        <time>2012-04-07T10:02:57Z</time>
      </trkpt>
      <trkpt lat="41.675496" lon="2.058989">
        <ele>512.01</ele>
        <time>2012-04-07T10:03:01Z</time>
      </trkpt>
      <trkpt lat="41.675526" lon="2.059136">
        <ele>512.01</ele>
        <time>2012-04-07T10:03:05Z</time>
      </trkpt>
      <trkpt lat="41.675557" lon="2.059267">
        <ele>515.02</ele>
        <time>2012-04-07T10:03:10Z</time>
      </trkpt>
      <trkpt lat="41.675593" lon="2.059396">
        <ele>516.00</ele>
        <time>2012-04-07T10:03:18Z</time>
      </trkpt>
      <trkpt lat="41.675570" lon="2.059285">
        <ele>513.04</ele>
        <time>2012-04-07T10:03:28Z</time>
      </trkpt>
      <trkpt lat="41.675519" lon="2.059155">
        <ele>511.02</ele>
        <time>2012-04-07T10:03:33Z</time>
      </trkpt>
      <trkpt lat="41.675471" lon="2.059002">
        <ele>508.06</ele>
        <time>2012-04-07T10:03:38Z</time>
      </trkpt>
      <trkpt lat="41.675444" lon="2.058854">
        <ele>506.03</ele>
        <time>2012-04-07T10:03:42Z</time>
      </trkpt>
      <trkpt lat="41.675458" lon="2.058706">
        <ele>506.06</ele>
        <time>2012-04-07T10:03:45Z</time>
      </trkpt>
      <trkpt lat="41.675560" lon="2.058610">
        <ele>507.05</ele>
        <time>2012-04-07T10:03:48Z</time>
      </trkpt>
      <trkpt lat="41.675655" lon="2.058567">
        <ele>507.07</ele>
        <time>2012-04-07T10:03:50Z</time>
      </trkpt>
      <trkpt lat="41.675767" lon="2.058514">
        <ele>510.02</ele>
        <time>2012-04-07T10:03:52Z</time>
      </trkpt>
      <trkpt lat="41.675876" lon="2.058469">
        <ele>512.01</ele>
        <time>2012-04-07T10:03:54Z</time>
      </trkpt>
      <trkpt lat="41.676019" lon="2.058425">
        <ele>510.02</ele>
        <time>2012-04-07T10:03:57Z</time>
      </trkpt>
      <trkpt lat="41.676149" lon="2.058407">
        <ele>511.08</ele>
        <time>2012-04-07T10:04:00Z</time>
      </trkpt>
      <trkpt lat="41.676283" lon="2.058401">
        <ele>514.09</ele>
        <time>2012-04-07T10:04:03Z</time>
      </trkpt>
      <trkpt lat="41.676401" lon="2.058424">
        <ele>521.05</ele>
        <time>2012-04-07T10:04:06Z</time>
      </trkpt>
      <trkpt lat="41.676518" lon="2.058441">
        <ele>519.04</ele>
        <time>2012-04-07T10:04:09Z</time>
      </trkpt>
      <trkpt lat="41.676630" lon="2.058448">
        <ele>515.02</ele>
        <time>2012-04-07T10:04:12Z</time>
      </trkpt>
      <trkpt lat="41.676736" lon="2.058435">
        <ele>514.09</ele>
        <time>2012-04-07T10:04:15Z</time>
      </trkpt>
      <trkpt lat="41.676853" lon="2.058415">
        <ele>514.05</ele>
        <time>2012-04-07T10:04:18Z</time>
      </trkpt>
      <trkpt lat="41.676966" lon="2.058393">
        <ele>513.04</ele>
        <time>2012-04-07T10:04:21Z</time>
      </trkpt>
      <trkpt lat="41.677091" lon="2.058356">
        <ele>516.08</ele>
        <time>2012-04-07T10:04:25Z</time>
      </trkpt>
      <trkpt lat="41.677210" lon="2.058346">
        <ele>516.01</ele>
        <time>2012-04-07T10:04:28Z</time>
      </trkpt>
      <trkpt lat="41.677336" lon="2.058318">
        <ele>515.02</ele>
        <time>2012-04-07T10:04:31Z</time>
      </trkpt>
      <trkpt lat="41.677461" lon="2.058293">
        <ele>513.02</ele>
        <time>2012-04-07T10:04:34Z</time>
      </trkpt>
      <trkpt lat="41.677596" lon="2.058269">
        <ele>513.04</ele>
        <time>2012-04-07T10:04:37Z</time>
      </trkpt>
      <trkpt lat="41.677715" lon="2.058233">
        <ele>511.03</ele>
        <time>2012-04-07T10:04:40Z</time>
      </trkpt>
      <trkpt lat="41.677858" lon="2.058192">
        <ele>509.04</ele>
        <time>2012-04-07T10:04:43Z</time>
      </trkpt>
      <trkpt lat="41.677957" lon="2.058124">
        <ele>510.02</ele>
        <time>2012-04-07T10:04:45Z</time>
      </trkpt>
      <trkpt lat="41.678057" lon="2.058049">
        <ele>513.10</ele>
        <time>2012-04-07T10:04:47Z</time>
      </trkpt>
      <trkpt lat="41.678188" lon="2.057961">
        <ele>514.03</ele>
        <time>2012-04-07T10:04:50Z</time>
      </trkpt>
      <trkpt lat="41.678310" lon="2.057929">
        <ele>516.01</ele>
        <time>2012-04-07T10:04:53Z</time>
      </trkpt>
      <trkpt lat="41.678412" lon="2.057970">
        <ele>520.10</ele>
        <time>2012-04-07T10:04:56Z</time>
      </trkpt>
      <trkpt lat="41.678506" lon="2.058039">
        <ele>521.01</ele>
        <time>2012-04-07T10:04:59Z</time>
      </trkpt>
      <trkpt lat="41.678609" lon="2.058099">
        <ele>523.02</ele>
        <time>2012-04-07T10:05:02Z</time>
      </trkpt>
      <trkpt lat="41.678710" lon="2.058175">
        <ele>523.01</ele>
        <time>2012-04-07T10:05:06Z</time>
      </trkpt>
      <trkpt lat="41.678775" lon="2.058328">
        <ele>524.05</ele>
        <time>2012-04-07T10:05:19Z</time>
      </trkpt>
      <trkpt lat="41.678775" lon="2.058328">
        <ele>524.03</ele>
        <time>2012-04-07T10:05:49Z</time>
      </trkpt>
      <trkpt lat="41.678775" lon="2.058328">
        <ele>524.10</ele>
        <time>2012-04-07T10:06:19Z</time>
      </trkpt>
      <trkpt lat="41.678775" lon="2.058328">
        <ele>524.03</ele>
        <time>2012-04-07T10:06:49Z</time>
      </trkpt>
      <trkpt lat="41.678775" lon="2.058328">
        <ele>524.07</ele>
        <time>2012-04-07T10:07:19Z</time>
      </trkpt>
      <trkpt lat="41.678775" lon="2.058328">
        <ele>524.01</ele>
        <time>2012-04-07T10:07:49Z</time>
      </trkpt>
      <trkpt lat="41.678789" lon="2.058368">
        <ele>524.08</ele>
        <time>2012-04-07T10:08:19Z</time>
      </trkpt>
      <trkpt lat="41.678856" lon="2.058496">
        <ele>523.09</ele>
        <time>2012-04-07T10:08:24Z</time>
      </trkpt>
      <trkpt lat="41.678914" lon="2.058604">
        <ele>523.01</ele>
        <time>2012-04-07T10:08:27Z</time>
      </trkpt>
      <trkpt lat="41.678977" lon="2.058743">
        <ele>526.01</ele>
        <time>2012-04-07T10:08:30Z</time>
      </trkpt>
      <trkpt lat="41.679030" lon="2.058900">
        <ele>526.09</ele>
        <time>2012-04-07T10:08:33Z</time>
      </trkpt>
      <trkpt lat="41.679072" lon="2.059039">
        <ele>525.03</ele>
        <time>2012-04-07T10:08:35Z</time>
      </trkpt>
      <trkpt lat="41.679113" lon="2.059205">
        <ele>523.09</ele>
        <time>2012-04-07T10:08:37Z</time>
      </trkpt>
      <trkpt lat="41.679161" lon="2.059389">
        <ele>523.02</ele>
        <time>2012-04-07T10:08:39Z</time>
      </trkpt>
      <trkpt lat="41.679223" lon="2.059580">
        <ele>525.01</ele>
        <time>2012-04-07T10:08:41Z</time>
      </trkpt>
      <trkpt lat="41.679288" lon="2.059766">
        <ele>526.04</ele>
        <time>2012-04-07T10:08:43Z</time>
      </trkpt>
      <trkpt lat="41.679361" lon="2.059947">
        <ele>526.03</ele>
        <time>2012-04-07T10:08:45Z</time>
      </trkpt>
      <trkpt lat="41.679452" lon="2.060119">
        <ele>526.08</ele>
        <time>2012-04-07T10:08:47Z</time>
      </trkpt>
      <trkpt lat="41.679574" lon="2.060262">
        <ele>527.09</ele>
        <time>2012-04-07T10:08:49Z</time>
      </trkpt>
      <trkpt lat="41.679712" lon="2.060371">
        <ele>528.01</ele>
        <time>2012-04-07T10:08:51Z</time>
      </trkpt>
      <trkpt lat="41.679851" lon="2.060480">
        <ele>529.02</ele>
        <time>2012-04-07T10:08:53Z</time>
      </trkpt>
      <trkpt lat="41.679983" lon="2.060582">
        <ele>528.06</ele>
        <time>2012-04-07T10:08:55Z</time>
      </trkpt>
      <trkpt lat="41.680120" lon="2.060691">
        <ele>528.05</ele>
        <time>2012-04-07T10:08:57Z</time>
      </trkpt>
      <trkpt lat="41.680261" lon="2.060802">
        <ele>531.06</ele>
        <time>2012-04-07T10:08:59Z</time>
      </trkpt>
      <trkpt lat="41.680396" lon="2.060908">
        <ele>531.05</ele>
        <time>2012-04-07T10:09:01Z</time>
      </trkpt>
      <trkpt lat="41.680528" lon="2.061012">
        <ele>533.05</ele>
        <time>2012-04-07T10:09:03Z</time>
      </trkpt>
      <trkpt lat="41.680659" lon="2.061117">
        <ele>533.07</ele>
        <time>2012-04-07T10:09:05Z</time>
      </trkpt>
      <trkpt lat="41.680785" lon="2.061218">
        <ele>534.07</ele>
        <time>2012-04-07T10:09:07Z</time>
      </trkpt>
      <trkpt lat="41.680907" lon="2.061314">
        <ele>535.10</ele>
        <time>2012-04-07T10:09:09Z</time>
      </trkpt>
      <trkpt lat="41.681029" lon="2.061406">
        <ele>536.03</ele>
        <time>2012-04-07T10:09:11Z</time>
      </trkpt>
      <trkpt lat="41.681144" lon="2.061492">
        <ele>537.01</ele>
        <time>2012-04-07T10:09:13Z</time>
      </trkpt>
      <trkpt lat="41.681255" lon="2.061575">
        <ele>538.02</ele>
        <time>2012-04-07T10:09:15Z</time>
      </trkpt>
      <trkpt lat="41.681361" lon="2.061653">
        <ele>540.03</ele>
        <time>2012-04-07T10:09:17Z</time>
      </trkpt>
      <trkpt lat="41.681455" lon="2.061719">
        <ele>540.10</ele>
        <time>2012-04-07T10:09:19Z</time>
      </trkpt>
      <trkpt lat="41.681543" lon="2.061786">
        <ele>538.10</ele>
        <time>2012-04-07T10:09:21Z</time>
      </trkpt>
      <trkpt lat="41.681632" lon="2.061854">
        <ele>538.03</ele>
        <time>2012-04-07T10:09:23Z</time>
      </trkpt>
      <trkpt lat="41.681755" lon="2.061951">
        <ele>537.02</ele>
        <time>2012-04-07T10:09:26Z</time>
      </trkpt>
      <trkpt lat="41.681875" lon="2.062050">
        <ele>537.09</ele>
        <time>2012-04-07T10:09:29Z</time>
      </trkpt>
      <trkpt lat="41.681995" lon="2.062145">
        <ele>537.07</ele>
        <time>2012-04-07T10:09:32Z</time>
      </trkpt>
      <trkpt lat="41.682120" lon="2.062246">
        <ele>540.10</ele>
        <time>2012-04-07T10:09:35Z</time>
      </trkpt>
      <trkpt lat="41.682257" lon="2.062291">
        <ele>539.10</ele>
        <time>2012-04-07T10:09:38Z</time>
      </trkpt>
      <trkpt lat="41.682346" lon="2.062231">
        <ele>540.01</ele>
        <time>2012-04-07T10:09:40Z</time>
      </trkpt>
      <trkpt lat="41.682474" lon="2.062144">
        <ele>542.02</ele>
        <time>2012-04-07T10:09:43Z</time>
      </trkpt>
      <trkpt lat="41.682561" lon="2.062071">
        <ele>543.02</ele>
        <time>2012-04-07T10:09:45Z</time>
      </trkpt>
      <trkpt lat="41.682658" lon="2.061968">
        <ele>545.04</ele>
        <time>2012-04-07T10:09:47Z</time>
      </trkpt>
      <trkpt lat="41.682750" lon="2.061863">
        <ele>546.05</ele>
        <time>2012-04-07T10:09:49Z</time>
      </trkpt>
      <trkpt lat="41.682844" lon="2.061756">
        <ele>548.07</ele>
        <time>2012-04-07T10:09:51Z</time>
      </trkpt>
      <trkpt lat="41.682940" lon="2.061660">
        <ele>549.02</ele>
        <time>2012-04-07T10:09:53Z</time>
      </trkpt>
      <trkpt lat="41.683037" lon="2.061570">
        <ele>551.07</ele>
        <time>2012-04-07T10:09:55Z</time>
      </trkpt>
      <trkpt lat="41.683131" lon="2.061483">
        <ele>552.09</ele>
        <time>2012-04-07T10:09:57Z</time>
      </trkpt>
      <trkpt lat="41.683254" lon="2.061367">
        <ele>554.08</ele>
        <time>2012-04-07T10:10:00Z</time>
      </trkpt>
      <trkpt lat="41.683302" lon="2.061239">
        <ele>555.08</ele>
        <time>2012-04-07T10:10:03Z</time>
      </trkpt>
      <trkpt lat="41.683319" lon="2.061090">
        <ele>554.01</ele>
        <time>2012-04-07T10:10:06Z</time>
      </trkpt>
      <trkpt lat="41.683342" lon="2.060913">
        <ele>555.02</ele>
        <time>2012-04-07T10:10:09Z</time>
      </trkpt>
      <trkpt lat="41.683390" lon="2.060750">
        <ele>557.09</ele>
        <time>2012-04-07T10:10:12Z</time>
      </trkpt>
      <trkpt lat="41.683429" lon="2.060663">
        <ele>557.05</ele>
        <time>2012-04-07T10:10:28Z</time>
      </trkpt>
      <trkpt lat="41.683512" lon="2.060568">
        <ele>557.07</ele>
        <time>2012-04-07T10:10:38Z</time>
      </trkpt>
      <trkpt lat="41.683588" lon="2.060478">
        <ele>556.05</ele>
        <time>2012-04-07T10:10:46Z</time>
      </trkpt>
      <trkpt lat="41.683663" lon="2.060385">
        <ele>555.07</ele>
        <time>2012-04-07T10:10:53Z</time>
      </trkpt>
      <trkpt lat="41.683728" lon="2.060280">
        <ele>553.09</ele>
        <time>2012-04-07T10:10:58Z</time>
      </trkpt>
      <trkpt lat="41.683788" lon="2.060172">
        <ele>549.04</ele>
        <time>2012-04-07T10:11:03Z</time>
      </trkpt>
      <trkpt lat="41.683850" lon="2.060060">
        <ele>550.07</ele>
        <time>2012-04-07T10:11:07Z</time>
      </trkpt>
      <trkpt lat="41.683907" lon="2.059952">
        <ele>549.09</ele>
        <time>2012-04-07T10:11:11Z</time>
      </trkpt>
      <trkpt lat="41.683960" lon="2.059806">
        <ele>548.01</ele>
        <time>2012-04-07T10:11:16Z</time>
      </trkpt>
      <trkpt lat="41.683989" lon="2.059647">
        <ele>547.01</ele>
        <time>2012-04-07T10:11:21Z</time>
      </trkpt>
      <trkpt lat="41.684008" lon="2.059507">
        <ele>547.02</ele>
        <time>2012-04-07T10:11:25Z</time>
      </trkpt>
      <trkpt lat="41.684036" lon="2.059372">
        <ele>546.06</ele>
        <time>2012-04-07T10:11:29Z</time>
      </trkpt>
      <trkpt lat="41.684081" lon="2.059236">
        <ele>545.02</ele>
        <time>2012-04-07T10:11:33Z</time>
      </trkpt>
      <trkpt lat="41.684136" lon="2.059100">
        <ele>546.02</ele>
        <time>2012-04-07T10:11:37Z</time>
      </trkpt>
      <trkpt lat="41.684188" lon="2.058986">
        <ele>546.06</ele>
        <time>2012-04-07T10:11:41Z</time>
      </trkpt>
      <trkpt lat="41.684258" lon="2.058876">
        <ele>546.03</ele>
        <time>2012-04-07T10:11:46Z</time>
      </trkpt>
      <trkpt lat="41.684326" lon="2.058765">
        <ele>545.04</ele>
        <time>2012-04-07T10:11:51Z</time>
      </trkpt>
      <trkpt lat="41.684387" lon="2.058641">
        <ele>544.03</ele>
        <time>2012-04-07T10:11:57Z</time>
      </trkpt>
      <trkpt lat="41.684451" lon="2.058514">
        <ele>543.04</ele>
        <time>2012-04-07T10:12:04Z</time>
      </trkpt>
      <trkpt lat="41.684516" lon="2.058401">
        <ele>537.01</ele>
        <time>2012-04-07T10:12:12Z</time>
      </trkpt>
      <trkpt lat="41.684559" lon="2.058379">
        <ele>542.01</ele>
        <time>2012-04-07T10:12:42Z</time>
      </trkpt>
      <trkpt lat="41.684586" lon="2.058342">
        <ele>542.09</ele>
        <time>2012-04-07T10:13:12Z</time>
      </trkpt>
      <trkpt lat="41.684654" lon="2.058239">
        <ele>542.02</ele>
        <time>2012-04-07T10:13:19Z</time>
      </trkpt>
      <trkpt lat="41.684740" lon="2.058156">
        <ele>541.04</ele>
        <time>2012-04-07T10:13:26Z</time>
      </trkpt>
      <trkpt lat="41.684805" lon="2.058036">
        <ele>538.02</ele>
        <time>2012-04-07T10:13:35Z</time>
      </trkpt>
      <trkpt lat="41.684865" lon="2.057917">
        <ele>539.02</ele>
        <time>2012-04-07T10:13:42Z</time>
      </trkpt>
      <trkpt lat="41.684933" lon="2.057796">
        <ele>537.05</ele>
        <time>2012-04-07T10:13:50Z</time>
      </trkpt>
      <trkpt lat="41.685038" lon="2.057769">
        <ele>537.04</ele>
        <time>2012-04-07T10:13:57Z</time>
      </trkpt>
      <trkpt lat="41.685131" lon="2.057839">
        <ele>536.07</ele>
        <time>2012-04-07T10:14:02Z</time>
      </trkpt>
      <trkpt lat="41.685222" lon="2.057916">
        <ele>530.09</ele>
        <time>2012-04-07T10:14:08Z</time>
      </trkpt>
      <trkpt lat="41.685311" lon="2.057837">
        <ele>530.01</ele>
        <time>2012-04-07T10:14:15Z</time>
      </trkpt>
      <trkpt lat="41.685384" lon="2.057719">
        <ele>528.01</ele>
        <time>2012-04-07T10:14:20Z</time>
      </trkpt>
      <trkpt lat="41.685472" lon="2.057649">
        <ele>526.05</ele>
        <time>2012-04-07T10:14:25Z</time>
      </trkpt>
      <trkpt lat="41.685575" lon="2.057650">
        <ele>525.04</ele>
        <time>2012-04-07T10:14:29Z</time>
      </trkpt>
      <trkpt lat="41.685682" lon="2.057601">
        <ele>524.02</ele>
        <time>2012-04-07T10:14:32Z</time>
      </trkpt>
      <trkpt lat="41.685794" lon="2.057528">
        <ele>523.05</ele>
        <time>2012-04-07T10:14:35Z</time>
      </trkpt>
      <trkpt lat="41.685896" lon="2.057570">
        <ele>524.07</ele>
        <time>2012-04-07T10:14:37Z</time>
      </trkpt>
      <trkpt lat="41.686014" lon="2.057577">
        <ele>524.03</ele>
        <time>2012-04-07T10:14:39Z</time>
      </trkpt>
      <trkpt lat="41.686153" lon="2.057549">
        <ele>526.05</ele>
        <time>2012-04-07T10:14:41Z</time>
      </trkpt>
      <trkpt lat="41.686302" lon="2.057537">
        <ele>528.03</ele>
        <time>2012-04-07T10:14:43Z</time>
      </trkpt>
      <trkpt lat="41.686450" lon="2.057526">
        <ele>530.04</ele>
        <time>2012-04-07T10:14:45Z</time>
      </trkpt>
      <trkpt lat="41.686583" lon="2.057482">
        <ele>532.01</ele>
        <time>2012-04-07T10:14:47Z</time>
      </trkpt>
      <trkpt lat="41.686691" lon="2.057420">
        <ele>535.03</ele>
        <time>2012-04-07T10:14:49Z</time>
      </trkpt>
      <trkpt lat="41.686796" lon="2.057396">
        <ele>535.04</ele>
        <time>2012-04-07T10:14:51Z</time>
      </trkpt>
      <trkpt lat="41.686925" lon="2.057371">
        <ele>534.07</ele>
        <time>2012-04-07T10:14:54Z</time>
      </trkpt>
      <trkpt lat="41.687047" lon="2.057313">
        <ele>533.05</ele>
        <time>2012-04-07T10:14:59Z</time>
      </trkpt>
      <trkpt lat="41.687145" lon="2.057267">
        <ele>535.09</ele>
        <time>2012-04-07T10:15:03Z</time>
      </trkpt>
      <trkpt lat="41.687249" lon="2.057215">
        <ele>533.09</ele>
        <time>2012-04-07T10:15:06Z</time>
      </trkpt>
      <trkpt lat="41.687371" lon="2.057189">
        <ele>533.03</ele>
        <time>2012-04-07T10:15:09Z</time>
      </trkpt>
      <trkpt lat="41.687507" lon="2.057251">
        <ele>533.05</ele>
        <time>2012-04-07T10:15:12Z</time>
      </trkpt>
      <trkpt lat="41.687632" lon="2.057341">
        <ele>532.01</ele>
        <time>2012-04-07T10:15:15Z</time>
      </trkpt>
      <trkpt lat="41.687769" lon="2.057370">
        <ele>534.06</ele>
        <time>2012-04-07T10:15:18Z</time>
      </trkpt>
      <trkpt lat="41.687881" lon="2.057301">
        <ele>535.01</ele>
        <time>2012-04-07T10:15:21Z</time>
      </trkpt>
      <trkpt lat="41.688001" lon="2.057229">
        <ele>533.02</ele>
        <time>2012-04-07T10:15:25Z</time>
      </trkpt>
      <trkpt lat="41.688086" lon="2.057127">
        <ele>534.07</ele>
        <time>2012-04-07T10:15:28Z</time>
      </trkpt>
      <trkpt lat="41.688148" lon="2.056985">
        <ele>534.09</ele>
        <time>2012-04-07T10:15:31Z</time>
      </trkpt>
      <trkpt lat="41.688213" lon="2.056838">
        <ele>534.05</ele>
        <time>2012-04-07T10:15:34Z</time>
      </trkpt>
      <trkpt lat="41.688291" lon="2.056715">
        <ele>533.06</ele>
        <time>2012-04-07T10:15:37Z</time>
      </trkpt>
      <trkpt lat="41.688400" lon="2.056661">
        <ele>530.07</ele>
        <time>2012-04-07T10:15:40Z</time>
      </trkpt>
      <trkpt lat="41.688539" lon="2.056650">
        <ele>528.03</ele>
        <time>2012-04-07T10:15:43Z</time>
      </trkpt>
      <trkpt lat="41.688624" lon="2.056560">
        <ele>528.10</ele>
        <time>2012-04-07T10:15:45Z</time>
      </trkpt>
      <trkpt lat="41.688705" lon="2.056481">
        <ele>529.09</ele>
        <time>2012-04-07T10:15:47Z</time>
      </trkpt>
      <trkpt lat="41.688808" lon="2.056455">
        <ele>530.04</ele>
        <time>2012-04-07T10:15:49Z</time>
      </trkpt>
      <trkpt lat="41.688933" lon="2.056519">
        <ele>531.01</ele>
        <time>2012-04-07T10:15:51Z</time>
      </trkpt>
      <trkpt lat="41.689037" lon="2.056573">
        <ele>532.02</ele>
        <time>2012-04-07T10:15:53Z</time>
      </trkpt>
      <trkpt lat="41.689153" lon="2.056489">
        <ele>535.03</ele>
        <time>2012-04-07T10:15:56Z</time>
      </trkpt>
      <trkpt lat="41.689234" lon="2.056370">
        <ele>538.08</ele>
        <time>2012-04-07T10:15:58Z</time>
      </trkpt>
      <trkpt lat="41.689323" lon="2.056267">
        <ele>544.02</ele>
        <time>2012-04-07T10:16:00Z</time>
      </trkpt>
      <trkpt lat="41.689438" lon="2.056141">
        <ele>541.03</ele>
        <time>2012-04-07T10:16:03Z</time>
      </trkpt>
      <trkpt lat="41.689524" lon="2.056038">
        <ele>541.04</ele>
        <time>2012-04-07T10:16:05Z</time>
      </trkpt>
      <trkpt lat="41.689605" lon="2.055940">
        <ele>541.08</ele>
        <time>2012-04-07T10:16:07Z</time>
      </trkpt>
      <trkpt lat="41.689708" lon="2.055818">
        <ele>541.06</ele>
        <time>2012-04-07T10:16:10Z</time>
      </trkpt>
      <trkpt lat="41.689794" lon="2.055697">
        <ele>540.02</ele>
        <time>2012-04-07T10:16:13Z</time>
      </trkpt>
      <trkpt lat="41.689872" lon="2.055586">
        <ele>541.08</ele>
        <time>2012-04-07T10:16:16Z</time>
      </trkpt>
      <trkpt lat="41.689968" lon="2.055466">
        <ele>543.01</ele>
        <time>2012-04-07T10:16:20Z</time>
      </trkpt>
      <trkpt lat="41.690034" lon="2.055368">
        <ele>546.02</ele>
        <time>2012-04-07T10:16:24Z</time>
      </trkpt>
      <trkpt lat="41.690132" lon="2.055279">
        <ele>547.05</ele>
        <time>2012-04-07T10:16:30Z</time>
      </trkpt>
      <trkpt lat="41.690198" lon="2.055153">
        <ele>549.10</ele>
        <time>2012-04-07T10:16:37Z</time>
      </trkpt>
      <trkpt lat="41.690226" lon="2.055017">
        <ele>547.03</ele>
        <time>2012-04-07T10:16:42Z</time>
      </trkpt>
      <trkpt lat="41.690274" lon="2.054882">
        <ele>545.06</ele>
        <time>2012-04-07T10:16:49Z</time>
      </trkpt>
      <trkpt lat="41.690340" lon="2.054761">
        <ele>544.07</ele>
        <time>2012-04-07T10:16:55Z</time>
      </trkpt>
      <trkpt lat="41.690413" lon="2.054642">
        <ele>543.03</ele>
        <time>2012-04-07T10:17:01Z</time>
      </trkpt>
      <trkpt lat="41.690497" lon="2.054532">
        <ele>543.05</ele>
        <time>2012-04-07T10:17:07Z</time>
      </trkpt>
      <trkpt lat="41.690581" lon="2.054449">
        <ele>545.07</ele>
        <time>2012-04-07T10:17:12Z</time>
      </trkpt>
      <trkpt lat="41.690660" lon="2.054364">
        <ele>543.01</ele>
        <time>2012-04-07T10:17:16Z</time>
      </trkpt>
      <trkpt lat="41.690752" lon="2.054265">
        <ele>539.01</ele>
        <time>2012-04-07T10:17:20Z</time>
      </trkpt>
      <trkpt lat="41.690845" lon="2.054156">
        <ele>540.03</ele>
        <time>2012-04-07T10:17:24Z</time>
      </trkpt>
      <trkpt lat="41.690935" lon="2.054013">
        <ele>541.04</ele>
        <time>2012-04-07T10:17:27Z</time>
      </trkpt>
      <trkpt lat="41.690998" lon="2.053859">
        <ele>541.09</ele>
        <time>2012-04-07T10:17:29Z</time>
      </trkpt>
      <trkpt lat="41.691049" lon="2.053717">
        <ele>542.04</ele>
        <time>2012-04-07T10:17:33Z</time>
      </trkpt>
      <trkpt lat="41.691068" lon="2.053624">
        <ele>543.05</ele>
        <time>2012-04-07T10:17:43Z</time>
      </trkpt>
      <trkpt lat="41.691049" lon="2.053641">
        <ele>541.06</ele>
        <time>2012-04-07T10:18:13Z</time>
      </trkpt>
      <trkpt lat="41.691090" lon="2.053589">
        <ele>544.03</ele>
        <time>2012-04-07T10:18:23Z</time>
      </trkpt>
      <trkpt lat="41.691120" lon="2.053456">
        <ele>550.01</ele>
        <time>2012-04-07T10:18:31Z</time>
      </trkpt>
      <trkpt lat="41.691155" lon="2.053399">
        <ele>547.02</ele>
        <time>2012-04-07T10:18:41Z</time>
      </trkpt>
      <trkpt lat="41.691135" lon="2.053330">
        <ele>547.02</ele>
        <time>2012-04-07T10:18:56Z</time>
      </trkpt>
      <trkpt lat="41.691147" lon="2.053259">
        <ele>546.01</ele>
        <time>2012-04-07T10:19:13Z</time>
      </trkpt>
      <trkpt lat="41.691225" lon="2.053209">
        <ele>548.01</ele>
        <time>2012-04-07T10:19:23Z</time>
      </trkpt>
      <trkpt lat="41.691327" lon="2.053240">
        <ele>552.00</ele>
        <time>2012-04-07T10:19:29Z</time>
      </trkpt>
      <trkpt lat="41.691438" lon="2.053260">
        <ele>550.05</ele>
        <time>2012-04-07T10:19:39Z</time>
      </trkpt>
      <trkpt lat="41.691470" lon="2.053222">
        <ele>556.07</ele>
        <time>2012-04-07T10:20:09Z</time>
      </trkpt>
      <trkpt lat="41.691500" lon="2.053095">
        <ele>555.04</ele>
        <time>2012-04-07T10:20:15Z</time>
      </trkpt>
      <trkpt lat="41.691574" lon="2.052979">
        <ele>554.03</ele>
        <time>2012-04-07T10:20:20Z</time>
      </trkpt>
      <trkpt lat="41.691640" lon="2.052857">
        <ele>555.07</ele>
        <time>2012-04-07T10:20:24Z</time>
      </trkpt>
      <trkpt lat="41.691737" lon="2.052775">
        <ele>554.03</ele>
        <time>2012-04-07T10:20:28Z</time>
      </trkpt>
      <trkpt lat="41.691836" lon="2.052736">
        <ele>556.10</ele>
        <time>2012-04-07T10:20:33Z</time>
      </trkpt>
      <trkpt lat="41.691936" lon="2.052726">
        <ele>556.05</ele>
        <time>2012-04-07T10:20:37Z</time>
      </trkpt>
      <trkpt lat="41.692064" lon="2.052687">
        <ele>557.01</ele>
        <time>2012-04-07T10:20:42Z</time>
      </trkpt>
      <trkpt lat="41.692170" lon="2.052686">
        <ele>556.02</ele>
        <time>2012-04-07T10:20:49Z</time>
      </trkpt>
      <trkpt lat="41.692280" lon="2.052676">
        <ele>555.08</ele>
        <time>2012-04-07T10:20:56Z</time>
      </trkpt>
      <trkpt lat="41.692379" lon="2.052700">
        <ele>553.09</ele>
        <time>2012-04-07T10:21:01Z</time>
      </trkpt>
      <trkpt lat="41.692486" lon="2.052662">
        <ele>554.08</ele>
        <time>2012-04-07T10:21:07Z</time>
      </trkpt>
      <trkpt lat="41.692584" lon="2.052593">
        <ele>550.08</ele>
        <time>2012-04-07T10:21:13Z</time>
      </trkpt>
      <trkpt lat="41.692686" lon="2.052560">
        <ele>549.04</ele>
        <time>2012-04-07T10:21:18Z</time>
      </trkpt>
      <trkpt lat="41.692783" lon="2.052523">
        <ele>548.09</ele>
        <time>2012-04-07T10:21:23Z</time>
      </trkpt>
      <trkpt lat="41.692894" lon="2.052474">
        <ele>545.06</ele>
        <time>2012-04-07T10:21:29Z</time>
      </trkpt>
      <trkpt lat="41.692983" lon="2.052402">
        <ele>546.04</ele>
        <time>2012-04-07T10:21:34Z</time>
      </trkpt>
      <trkpt lat="41.693072" lon="2.052320">
        <ele>546.06</ele>
        <time>2012-04-07T10:21:41Z</time>
      </trkpt>
      <trkpt lat="41.693164" lon="2.052266">
        <ele>546.01</ele>
        <time>2012-04-07T10:21:46Z</time>
      </trkpt>
      <trkpt lat="41.693260" lon="2.052189">
        <ele>546.02</ele>
        <time>2012-04-07T10:21:54Z</time>
      </trkpt>
      <trkpt lat="41.693334" lon="2.052072">
        <ele>546.05</ele>
        <time>2012-04-07T10:22:00Z</time>
      </trkpt>
      <trkpt lat="41.693443" lon="2.052031">
        <ele>545.06</ele>
        <time>2012-04-07T10:22:05Z</time>
      </trkpt>
      <trkpt lat="41.693538" lon="2.051973">
        <ele>541.06</ele>
        <time>2012-04-07T10:22:10Z</time>
      </trkpt>
      <trkpt lat="41.693624" lon="2.051897">
        <ele>541.05</ele>
        <time>2012-04-07T10:22:15Z</time>
      </trkpt>
      <trkpt lat="41.693659" lon="2.051838">
        <ele>540.03</ele>
        <time>2012-04-07T10:22:27Z</time>
      </trkpt>
      <trkpt lat="41.693707" lon="2.051801">
        <ele>542.03</ele>
        <time>2012-04-07T10:22:38Z</time>
      </trkpt>
      <trkpt lat="41.693783" lon="2.051737">
        <ele>542.05</ele>
        <time>2012-04-07T10:22:48Z</time>
      </trkpt>
      <trkpt lat="41.693865" lon="2.051653">
        <ele>540.01</ele>
        <time>2012-04-07T10:22:53Z</time>
      </trkpt>
      <trkpt lat="41.693916" lon="2.051524">
        <ele>539.05</ele>
        <time>2012-04-07T10:22:57Z</time>
      </trkpt>
      <trkpt lat="41.693997" lon="2.051443">
        <ele>540.01</ele>
        <time>2012-04-07T10:23:00Z</time>
      </trkpt>
      <trkpt lat="41.694085" lon="2.051330">
        <ele>544.02</ele>
        <time>2012-04-07T10:23:04Z</time>
      </trkpt>
      <trkpt lat="41.694166" lon="2.051249">
        <ele>543.09</ele>
        <time>2012-04-07T10:23:07Z</time>
      </trkpt>
      <trkpt lat="41.694258" lon="2.051140">
        <ele>545.09</ele>
        <time>2012-04-07T10:23:11Z</time>
      </trkpt>
      <trkpt lat="41.694337" lon="2.051054">
        <ele>546.08</ele>
        <time>2012-04-07T10:23:15Z</time>
      </trkpt>
      <trkpt lat="41.694435" lon="2.051010">
        <ele>540.03</ele>
        <time>2012-04-07T10:23:20Z</time>
      </trkpt>
      <trkpt lat="41.694473" lon="2.050936">
        <ele>543.10</ele>
        <time>2012-04-07T10:23:30Z</time>
      </trkpt>
      <trkpt lat="41.694431" lon="2.050839">
        <ele>553.01</ele>
        <time>2012-04-07T10:23:40Z</time>
      </trkpt>
      <trkpt lat="41.694431" lon="2.050839">
        <ele>553.10</ele>
        <time>2012-04-07T10:24:10Z</time>
      </trkpt>
      <trkpt lat="41.694401" lon="2.050844">
        <ele>553.07</ele>
        <time>2012-04-07T10:24:40Z</time>
      </trkpt>
      <trkpt lat="41.694341" lon="2.050851">
        <ele>547.04</ele>
        <time>2012-04-07T10:24:50Z</time>
      </trkpt>
      <trkpt lat="41.694415" lon="2.050814">
        <ele>548.01</ele>
        <time>2012-04-07T10:25:00Z</time>
      </trkpt>
      <trkpt lat="41.694470" lon="2.050699">
        <ele>547.02</ele>
        <time>2012-04-07T10:25:05Z</time>
      </trkpt>
      <trkpt lat="41.694526" lon="2.050585">
        <ele>548.04</ele>
        <time>2012-04-07T10:25:10Z</time>
      </trkpt>
      <trkpt lat="41.694596" lon="2.050551">
        <ele>549.06</ele>
        <time>2012-04-07T10:25:20Z</time>
      </trkpt>
      <trkpt lat="41.694694" lon="2.050497">
        <ele>550.07</ele>
        <time>2012-04-07T10:25:23Z</time>
      </trkpt>
      <trkpt lat="41.694787" lon="2.050424">
        <ele>552.06</ele>
        <time>2012-04-07T10:25:26Z</time>
      </trkpt>
      <trkpt lat="41.694853" lon="2.050313">
        <ele>553.06</ele>
        <time>2012-04-07T10:25:29Z</time>
      </trkpt>
      <trkpt lat="41.694934" lon="2.050214">
        <ele>556.06</ele>
        <time>2012-04-07T10:25:32Z</time>
      </trkpt>
      <trkpt lat="41.695037" lon="2.050163">
        <ele>556.01</ele>
        <time>2012-04-07T10:25:35Z</time>
      </trkpt>
      <trkpt lat="41.695163" lon="2.050139">
        <ele>556.02</ele>
        <time>2012-04-07T10:25:38Z</time>
      </trkpt>
      <trkpt lat="41.695291" lon="2.050088">
        <ele>557.05</ele>
        <time>2012-04-07T10:25:41Z</time>
      </trkpt>
      <trkpt lat="41.695399" lon="2.050044">
        <ele>558.01</ele>
        <time>2012-04-07T10:25:45Z</time>
      </trkpt>
      <trkpt lat="41.695489" lon="2.049944">
        <ele>559.01</ele>
        <time>2012-04-07T10:25:48Z</time>
      </trkpt>
      <trkpt lat="41.695566" lon="2.049832">
        <ele>558.00</ele>
        <time>2012-04-07T10:25:51Z</time>
      </trkpt>
      <trkpt lat="41.695664" lon="2.049796">
        <ele>563.05</ele>
        <time>2012-04-07T10:26:01Z</time>
      </trkpt>
      <trkpt lat="41.695767" lon="2.049792">
        <ele>567.09</ele>
        <time>2012-04-07T10:26:08Z</time>
      </trkpt>
      <trkpt lat="41.695869" lon="2.049783">
        <ele>566.08</ele>
        <time>2012-04-07T10:26:14Z</time>
      </trkpt>
      <trkpt lat="41.695970" lon="2.049729">
        <ele>565.06</ele>
        <time>2012-04-07T10:26:19Z</time>
      </trkpt>
      <trkpt lat="41.696049" lon="2.049606">
        <ele>567.05</ele>
        <time>2012-04-07T10:26:24Z</time>
      </trkpt>
      <trkpt lat="41.696105" lon="2.049509">
        <ele>568.03</ele>
        <time>2012-04-07T10:26:34Z</time>
      </trkpt>
      <trkpt lat="41.696163" lon="2.049383">
        <ele>568.02</ele>
        <time>2012-04-07T10:26:39Z</time>
      </trkpt>
      <trkpt lat="41.696204" lon="2.049256">
        <ele>567.04</ele>
        <time>2012-04-07T10:26:44Z</time>
      </trkpt>
      <trkpt lat="41.696231" lon="2.049116">
        <ele>565.01</ele>
        <time>2012-04-07T10:26:48Z</time>
      </trkpt>
      <trkpt lat="41.696254" lon="2.048963">
        <ele>564.01</ele>
        <time>2012-04-07T10:26:52Z</time>
      </trkpt>
      <trkpt lat="41.696302" lon="2.048885">
        <ele>565.09</ele>
        <time>2012-04-07T10:27:02Z</time>
      </trkpt>
      <trkpt lat="41.696407" lon="2.048818">
        <ele>567.03</ele>
        <time>2012-04-07T10:27:10Z</time>
      </trkpt>
      <trkpt lat="41.696523" lon="2.048820">
        <ele>569.10</ele>
        <time>2012-04-07T10:27:13Z</time>
      </trkpt>
      <trkpt lat="41.696659" lon="2.048798">
        <ele>565.05</ele>
        <time>2012-04-07T10:27:16Z</time>
      </trkpt>
      <trkpt lat="41.696750" lon="2.048694">
        <ele>566.09</ele>
        <time>2012-04-07T10:27:18Z</time>
      </trkpt>
      <trkpt lat="41.696798" lon="2.048558">
        <ele>567.06</ele>
        <time>2012-04-07T10:27:20Z</time>
      </trkpt>
      <trkpt lat="41.696802" lon="2.048369">
        <ele>567.07</ele>
        <time>2012-04-07T10:27:23Z</time>
      </trkpt>
      <trkpt lat="41.696741" lon="2.048231">
        <ele>568.01</ele>
        <time>2012-04-07T10:27:25Z</time>
      </trkpt>
      <trkpt lat="41.696707" lon="2.048070">
        <ele>569.04</ele>
        <time>2012-04-07T10:27:27Z</time>
      </trkpt>
      <trkpt lat="41.696711" lon="2.047901">
        <ele>571.01</ele>
        <time>2012-04-07T10:27:29Z</time>
      </trkpt>
      <trkpt lat="41.696748" lon="2.047763">
        <ele>570.01</ele>
        <time>2012-04-07T10:27:31Z</time>
      </trkpt>
      <trkpt lat="41.696805" lon="2.047609">
        <ele>571.06</ele>
        <time>2012-04-07T10:27:33Z</time>
      </trkpt>
      <trkpt lat="41.696886" lon="2.047439">
        <ele>573.05</ele>
        <time>2012-04-07T10:27:36Z</time>
      </trkpt>
      <trkpt lat="41.696941" lon="2.047281">
        <ele>573.09</ele>
        <time>2012-04-07T10:27:40Z</time>
      </trkpt>
      <trkpt lat="41.696998" lon="2.047121">
        <ele>572.04</ele>
        <time>2012-04-07T10:27:43Z</time>
      </trkpt>
      <trkpt lat="41.697082" lon="2.046995">
        <ele>571.08</ele>
        <time>2012-04-07T10:27:46Z</time>
      </trkpt>
      <trkpt lat="41.697154" lon="2.046898">
        <ele>574.03</ele>
        <time>2012-04-07T10:27:48Z</time>
      </trkpt>
      <trkpt lat="41.697222" lon="2.046737">
        <ele>576.07</ele>
        <time>2012-04-07T10:27:51Z</time>
      </trkpt>
      <trkpt lat="41.697287" lon="2.046619">
        <ele>576.06</ele>
        <time>2012-04-07T10:27:54Z</time>
      </trkpt>
      <trkpt lat="41.697380" lon="2.046541">
        <ele>574.04</ele>
        <time>2012-04-07T10:27:57Z</time>
      </trkpt>
      <trkpt lat="41.697498" lon="2.046504">
        <ele>575.01</ele>
        <time>2012-04-07T10:28:00Z</time>
      </trkpt>
      <trkpt lat="41.697617" lon="2.046495">
        <ele>575.02</ele>
        <time>2012-04-07T10:28:04Z</time>
      </trkpt>
      <trkpt lat="41.697689" lon="2.046514">
        <ele>573.02</ele>
        <time>2012-04-07T10:28:33Z</time>
      </trkpt>
      <trkpt lat="41.697780" lon="2.046546">
        <ele>574.04</ele>
        <time>2012-04-07T10:28:43Z</time>
      </trkpt>
      <trkpt lat="41.697879" lon="2.046588">
        <ele>574.02</ele>
        <time>2012-04-07T10:28:46Z</time>
      </trkpt>
      <trkpt lat="41.697999" lon="2.046601">
        <ele>576.04</ele>
        <time>2012-04-07T10:28:49Z</time>
      </trkpt>
      <trkpt lat="41.698134" lon="2.046600">
        <ele>577.03</ele>
        <time>2012-04-07T10:28:52Z</time>
      </trkpt>
      <trkpt lat="41.698237" lon="2.046604">
        <ele>578.06</ele>
        <time>2012-04-07T10:28:55Z</time>
      </trkpt>
      <trkpt lat="41.698355" lon="2.046614">
        <ele>576.05</ele>
        <time>2012-04-07T10:29:00Z</time>
      </trkpt>
      <trkpt lat="41.698465" lon="2.046659">
        <ele>575.07</ele>
        <time>2012-04-07T10:29:05Z</time>
      </trkpt>
      <trkpt lat="41.698577" lon="2.046674">
        <ele>573.05</ele>
        <time>2012-04-07T10:29:11Z</time>
      </trkpt>
      <trkpt lat="41.698658" lon="2.046599">
        <ele>573.01</ele>
        <time>2012-04-07T10:29:16Z</time>
      </trkpt>
      <trkpt lat="41.698652" lon="2.046467">
        <ele>575.01</ele>
        <time>2012-04-07T10:29:21Z</time>
      </trkpt>
      <trkpt lat="41.698610" lon="2.046333">
        <ele>574.05</ele>
        <time>2012-04-07T10:29:31Z</time>
      </trkpt>
      <trkpt lat="41.698554" lon="2.046221">
        <ele>572.04</ele>
        <time>2012-04-07T10:29:38Z</time>
      </trkpt>
      <trkpt lat="41.698480" lon="2.046120">
        <ele>571.03</ele>
        <time>2012-04-07T10:29:46Z</time>
      </trkpt>
      <trkpt lat="41.698417" lon="2.046014">
        <ele>568.01</ele>
        <time>2012-04-07T10:29:53Z</time>
      </trkpt>
      <trkpt lat="41.698396" lon="2.045880">
        <ele>566.06</ele>
        <time>2012-04-07T10:29:59Z</time>
      </trkpt>
      <trkpt lat="41.698466" lon="2.045767">
        <ele>563.06</ele>
        <time>2012-04-07T10:30:05Z</time>
      </trkpt>
      <trkpt lat="41.698568" lon="2.045676">
        <ele>562.01</ele>
        <time>2012-04-07T10:30:09Z</time>
      </trkpt>
      <trkpt lat="41.698645" lon="2.045573">
        <ele>562.05</ele>
        <time>2012-04-07T10:30:12Z</time>
      </trkpt>
      <trkpt lat="41.698697" lon="2.045431">
        <ele>561.05</ele>
        <time>2012-04-07T10:30:15Z</time>
      </trkpt>
      <trkpt lat="41.698720" lon="2.045284">
        <ele>560.01</ele>
        <time>2012-04-07T10:30:18Z</time>
      </trkpt>
      <trkpt lat="41.698717" lon="2.045112">
        <ele>562.02</ele>
        <time>2012-04-07T10:30:22Z</time>
      </trkpt>
      <trkpt lat="41.698736" lon="2.044977">
        <ele>563.00</ele>
        <time>2012-04-07T10:30:25Z</time>
      </trkpt>
      <trkpt lat="41.698815" lon="2.044858">
        <ele>562.04</ele>
        <time>2012-04-07T10:30:31Z</time>
      </trkpt>
      <trkpt lat="41.698909" lon="2.044774">
        <ele>563.08</ele>
        <time>2012-04-07T10:30:36Z</time>
      </trkpt>
      <trkpt lat="41.699004" lon="2.044697">
        <ele>559.07</ele>
        <time>2012-04-07T10:30:40Z</time>
      </trkpt>
      <trkpt lat="41.699072" lon="2.044592">
        <ele>563.02</ele>
        <time>2012-04-07T10:30:49Z</time>
      </trkpt>
      <trkpt lat="41.699066" lon="2.044512">
        <ele>562.08</ele>
        <time>2012-04-07T10:31:15Z</time>
      </trkpt>
      <trkpt lat="41.699038" lon="2.044437">
        <ele>563.09</ele>
        <time>2012-04-07T10:31:25Z</time>
      </trkpt>
      <trkpt lat="41.699077" lon="2.044304">
        <ele>567.06</ele>
        <time>2012-04-07T10:31:28Z</time>
      </trkpt>
      <trkpt lat="41.699163" lon="2.044214">
        <ele>569.05</ele>
        <time>2012-04-07T10:31:30Z</time>
      </trkpt>
      <trkpt lat="41.699255" lon="2.044102">
        <ele>570.01</ele>
        <time>2012-04-07T10:31:32Z</time>
      </trkpt>
      <trkpt lat="41.699335" lon="2.043991">
        <ele>570.03</ele>
        <time>2012-04-07T10:31:34Z</time>
      </trkpt>
      <trkpt lat="41.699407" lon="2.043892">
        <ele>572.04</ele>
        <time>2012-04-07T10:31:36Z</time>
      </trkpt>
      <trkpt lat="41.699521" lon="2.043761">
        <ele>577.07</ele>
        <time>2012-04-07T10:31:39Z</time>
      </trkpt>
      <trkpt lat="41.699630" lon="2.043671">
        <ele>576.03</ele>
        <time>2012-04-07T10:31:42Z</time>
      </trkpt>
      <trkpt lat="41.699748" lon="2.043643">
        <ele>573.04</ele>
        <time>2012-04-07T10:31:46Z</time>
      </trkpt>
      <trkpt lat="41.699856" lon="2.043579">
        <ele>570.09</ele>
        <time>2012-04-07T10:31:51Z</time>
      </trkpt>
      <trkpt lat="41.699958" lon="2.043510">
        <ele>569.07</ele>
        <time>2012-04-07T10:31:55Z</time>
      </trkpt>
      <trkpt lat="41.700038" lon="2.043407">
        <ele>566.02</ele>
        <time>2012-04-07T10:31:59Z</time>
      </trkpt>
      <trkpt lat="41.700102" lon="2.043270">
        <ele>569.02</ele>
        <time>2012-04-07T10:32:03Z</time>
      </trkpt>
      <trkpt lat="41.700102" lon="2.043131">
        <ele>568.10</ele>
        <time>2012-04-07T10:32:07Z</time>
      </trkpt>
      <trkpt lat="41.700146" lon="2.042995">
        <ele>567.01</ele>
        <time>2012-04-07T10:32:11Z</time>
      </trkpt>
      <trkpt lat="41.700207" lon="2.042857">
        <ele>567.02</ele>
        <time>2012-04-07T10:32:15Z</time>
      </trkpt>
      <trkpt lat="41.700257" lon="2.042737">
        <ele>568.00</ele>
        <time>2012-04-07T10:32:18Z</time>
      </trkpt>
      <trkpt lat="41.700358" lon="2.042735">
        <ele>569.06</ele>
        <time>2012-04-07T10:32:21Z</time>
      </trkpt>
      <trkpt lat="41.700460" lon="2.042746">
        <ele>570.02</ele>
        <time>2012-04-07T10:32:24Z</time>
      </trkpt>
      <trkpt lat="41.700559" lon="2.042648">
        <ele>571.09</ele>
        <time>2012-04-07T10:32:27Z</time>
      </trkpt>
      <trkpt lat="41.700687" lon="2.042651">
        <ele>576.07</ele>
        <time>2012-04-07T10:32:32Z</time>
      </trkpt>
      <trkpt lat="41.700636" lon="2.042781">
        <ele>582.05</ele>
        <time>2012-04-07T10:32:36Z</time>
      </trkpt>
      <trkpt lat="41.700639" lon="2.042921">
        <ele>576.09</ele>
        <time>2012-04-07T10:32:46Z</time>
      </trkpt>
      <trkpt lat="41.700671" lon="2.042857">
        <ele>576.02</ele>
        <time>2012-04-07T10:32:56Z</time>
      </trkpt>
      <trkpt lat="41.700713" lon="2.042699">
        <ele>577.10</ele>
        <time>2012-04-07T10:32:59Z</time>
      </trkpt>
      <trkpt lat="41.700745" lon="2.042562">
        <ele>577.01</ele>
        <time>2012-04-07T10:33:01Z</time>
      </trkpt>
      <trkpt lat="41.700781" lon="2.042419">
        <ele>578.02</ele>
        <time>2012-04-07T10:33:03Z</time>
      </trkpt>
      <trkpt lat="41.700829" lon="2.042274">
        <ele>578.01</ele>
        <time>2012-04-07T10:33:05Z</time>
      </trkpt>
      <trkpt lat="41.700881" lon="2.042133">
        <ele>577.06</ele>
        <time>2012-04-07T10:33:07Z</time>
      </trkpt>
      <trkpt lat="41.700943" lon="2.042000">
        <ele>577.04</ele>
        <time>2012-04-07T10:33:09Z</time>
      </trkpt>
      <trkpt lat="41.701013" lon="2.041872">
        <ele>576.04</ele>
        <time>2012-04-07T10:33:11Z</time>
      </trkpt>
      <trkpt lat="41.701110" lon="2.041771">
        <ele>576.10</ele>
        <time>2012-04-07T10:33:13Z</time>
      </trkpt>
      <trkpt lat="41.701230" lon="2.041677">
        <ele>576.02</ele>
        <time>2012-04-07T10:33:15Z</time>
      </trkpt>
      <trkpt lat="41.701361" lon="2.041573">
        <ele>576.03</ele>
        <time>2012-04-07T10:33:17Z</time>
      </trkpt>
      <trkpt lat="41.701491" lon="2.041475">
        <ele>576.09</ele>
        <time>2012-04-07T10:33:19Z</time>
      </trkpt>
      <trkpt lat="41.701608" lon="2.041402">
        <ele>577.05</ele>
        <time>2012-04-07T10:33:21Z</time>
      </trkpt>
      <trkpt lat="41.701731" lon="2.041324">
        <ele>578.01</ele>
        <time>2012-04-07T10:33:23Z</time>
      </trkpt>
      <trkpt lat="41.701864" lon="2.041239">
        <ele>578.02</ele>
        <time>2012-04-07T10:33:25Z</time>
      </trkpt>
      <trkpt lat="41.702009" lon="2.041150">
        <ele>578.03</ele>
        <time>2012-04-07T10:33:27Z</time>
      </trkpt>
      <trkpt lat="41.702154" lon="2.041063">
        <ele>579.05</ele>
        <time>2012-04-07T10:33:29Z</time>
      </trkpt>
      <trkpt lat="41.702279" lon="2.040987">
        <ele>582.03</ele>
        <time>2012-04-07T10:33:31Z</time>
      </trkpt>
      <trkpt lat="41.702397" lon="2.040913">
        <ele>582.10</ele>
        <time>2012-04-07T10:33:33Z</time>
      </trkpt>
      <trkpt lat="41.702507" lon="2.040824">
        <ele>583.05</ele>
        <time>2012-04-07T10:33:35Z</time>
      </trkpt>
      <trkpt lat="41.702616" lon="2.040713">
        <ele>584.07</ele>
        <time>2012-04-07T10:33:37Z</time>
      </trkpt>
      <trkpt lat="41.702723" lon="2.040584">
        <ele>584.06</ele>
        <time>2012-04-07T10:33:39Z</time>
      </trkpt>
      <trkpt lat="41.702831" lon="2.040444">
        <ele>585.01</ele>
        <time>2012-04-07T10:33:41Z</time>
      </trkpt>
      <trkpt lat="41.702930" lon="2.040311">
        <ele>585.02</ele>
        <time>2012-04-07T10:33:43Z</time>
      </trkpt>
      <trkpt lat="41.703019" lon="2.040183">
        <ele>586.01</ele>
        <time>2012-04-07T10:33:45Z</time>
      </trkpt>
      <trkpt lat="41.703106" lon="2.040064">
        <ele>586.01</ele>
        <time>2012-04-07T10:33:47Z</time>
      </trkpt>
      <trkpt lat="41.703187" lon="2.039966">
        <ele>587.06</ele>
        <time>2012-04-07T10:33:49Z</time>
      </trkpt>
      <trkpt lat="41.703303" lon="2.039848">
        <ele>587.04</ele>
        <time>2012-04-07T10:33:52Z</time>
      </trkpt>
      <trkpt lat="41.703409" lon="2.039741">
        <ele>589.05</ele>
        <time>2012-04-07T10:33:55Z</time>
      </trkpt>
      <trkpt lat="41.703498" lon="2.039643">
        <ele>590.10</ele>
        <time>2012-04-07T10:33:58Z</time>
      </trkpt>
      <trkpt lat="41.703576" lon="2.039535">
        <ele>590.10</ele>
        <time>2012-04-07T10:34:03Z</time>
      </trkpt>
      <trkpt lat="41.703648" lon="2.039391">
        <ele>591.01</ele>
        <time>2012-04-07T10:34:07Z</time>
      </trkpt>
      <trkpt lat="41.703722" lon="2.039274">
        <ele>590.09</ele>
        <time>2012-04-07T10:34:10Z</time>
      </trkpt>
      <trkpt lat="41.703810" lon="2.039139">
        <ele>589.09</ele>
        <time>2012-04-07T10:34:13Z</time>
      </trkpt>
      <trkpt lat="41.703857" lon="2.038994">
        <ele>589.10</ele>
        <time>2012-04-07T10:34:16Z</time>
      </trkpt>
      <trkpt lat="41.703859" lon="2.038835">
        <ele>590.01</ele>
        <time>2012-04-07T10:34:23Z</time>
      </trkpt>
      <trkpt lat="41.703859" lon="2.038835">
        <ele>590.01</ele>
        <time>2012-04-07T10:34:53Z</time>
      </trkpt>
      <trkpt lat="41.703958" lon="2.038811">
        <ele>589.02</ele>
        <time>2012-04-07T10:35:00Z</time>
      </trkpt>
      <trkpt lat="41.704068" lon="2.038776">
        <ele>589.06</ele>
        <time>2012-04-07T10:35:02Z</time>
      </trkpt>
      <trkpt lat="41.704210" lon="2.038711">
        <ele>589.06</ele>
        <time>2012-04-07T10:35:04Z</time>
      </trkpt>
      <trkpt lat="41.704369" lon="2.038634">
        <ele>591.04</ele>
        <time>2012-04-07T10:35:06Z</time>
      </trkpt>
      <trkpt lat="41.704526" lon="2.038564">
        <ele>593.03</ele>
        <time>2012-04-07T10:35:08Z</time>
      </trkpt>
      <trkpt lat="41.704677" lon="2.038507">
        <ele>594.08</ele>
        <time>2012-04-07T10:35:10Z</time>
      </trkpt>
      <trkpt lat="41.704828" lon="2.038454">
        <ele>596.05</ele>
        <time>2012-04-07T10:35:12Z</time>
      </trkpt>
      <trkpt lat="41.704984" lon="2.038418">
        <ele>598.04</ele>
        <time>2012-04-07T10:35:14Z</time>
      </trkpt>
      <trkpt lat="41.705138" lon="2.038436">
        <ele>597.08</ele>
        <time>2012-04-07T10:35:16Z</time>
      </trkpt>
      <trkpt lat="41.705298" lon="2.038452">
        <ele>596.01</ele>
        <time>2012-04-07T10:35:18Z</time>
      </trkpt>
      <trkpt lat="41.705450" lon="2.038425">
        <ele>596.02</ele>
        <time>2012-04-07T10:35:20Z</time>
      </trkpt>
      <trkpt lat="41.705604" lon="2.038375">
        <ele>597.10</ele>
        <time>2012-04-07T10:35:22Z</time>
      </trkpt>
      <trkpt lat="41.705758" lon="2.038324">
        <ele>598.02</ele>
        <time>2012-04-07T10:35:24Z</time>
      </trkpt>
      <trkpt lat="41.705903" lon="2.038263">
        <ele>598.06</ele>
        <time>2012-04-07T10:35:26Z</time>
      </trkpt>
      <trkpt lat="41.706058" lon="2.038191">
        <ele>598.07</ele>
        <time>2012-04-07T10:35:28Z</time>
      </trkpt>
      <trkpt lat="41.706222" lon="2.038132">
        <ele>599.06</ele>
        <time>2012-04-07T10:35:30Z</time>
      </trkpt>
      <trkpt lat="41.706378" lon="2.038079">
        <ele>600.06</ele>
        <time>2012-04-07T10:35:32Z</time>
      </trkpt>
      <trkpt lat="41.706513" lon="2.038028">
        <ele>601.01</ele>
        <time>2012-04-07T10:35:34Z</time>
      </trkpt>
      <trkpt lat="41.706632" lon="2.037977">
        <ele>602.05</ele>
        <time>2012-04-07T10:35:36Z</time>
      </trkpt>
      <trkpt lat="41.706739" lon="2.037921">
        <ele>602.06</ele>
        <time>2012-04-07T10:35:38Z</time>
      </trkpt>
      <trkpt lat="41.706841" lon="2.037868">
        <ele>603.01</ele>
        <time>2012-04-07T10:35:40Z</time>
      </trkpt>
      <trkpt lat="41.706935" lon="2.037819">
        <ele>604.02</ele>
        <time>2012-04-07T10:35:42Z</time>
      </trkpt>
      <trkpt lat="41.707046" lon="2.037773">
        <ele>605.00</ele>
        <time>2012-04-07T10:35:45Z</time>
      </trkpt>
      <trkpt lat="41.707143" lon="2.037746">
        <ele>605.06</ele>
        <time>2012-04-07T10:35:48Z</time>
      </trkpt>
      <trkpt lat="41.707246" lon="2.037731">
        <ele>606.09</ele>
        <time>2012-04-07T10:35:51Z</time>
      </trkpt>
      <trkpt lat="41.707358" lon="2.037733">
        <ele>604.07</ele>
        <time>2012-04-07T10:35:54Z</time>
      </trkpt>
      <trkpt lat="41.707461" lon="2.037711">
        <ele>604.05</ele>
        <time>2012-04-07T10:35:57Z</time>
      </trkpt>
      <trkpt lat="41.707589" lon="2.037699">
        <ele>604.03</ele>
        <time>2012-04-07T10:36:01Z</time>
      </trkpt>
      <trkpt lat="41.707713" lon="2.037691">
        <ele>604.10</ele>
        <time>2012-04-07T10:36:04Z</time>
      </trkpt>
      <trkpt lat="41.707850" lon="2.037672">
        <ele>605.06</ele>
        <time>2012-04-07T10:36:07Z</time>
      </trkpt>
      <trkpt lat="41.707963" lon="2.037642">
        <ele>606.10</ele>
        <time>2012-04-07T10:36:09Z</time>
      </trkpt>
      <trkpt lat="41.708068" lon="2.037597">
        <ele>607.01</ele>
        <time>2012-04-07T10:36:11Z</time>
      </trkpt>
      <trkpt lat="41.708164" lon="2.037534">
        <ele>607.02</ele>
        <time>2012-04-07T10:36:13Z</time>
      </trkpt>
      <trkpt lat="41.708262" lon="2.037456">
        <ele>608.03</ele>
        <time>2012-04-07T10:36:15Z</time>
      </trkpt>
      <trkpt lat="41.708351" lon="2.037392">
        <ele>609.08</ele>
        <time>2012-04-07T10:36:17Z</time>
      </trkpt>
      <trkpt lat="41.708452" lon="2.037384">
        <ele>609.08</ele>
        <time>2012-04-07T10:36:19Z</time>
      </trkpt>
      <trkpt lat="41.708572" lon="2.037382">
        <ele>609.05</ele>
        <time>2012-04-07T10:36:21Z</time>
      </trkpt>
      <trkpt lat="41.708706" lon="2.037373">
        <ele>610.08</ele>
        <time>2012-04-07T10:36:23Z</time>
      </trkpt>
      <trkpt lat="41.708837" lon="2.037338">
        <ele>611.03</ele>
        <time>2012-04-07T10:36:25Z</time>
      </trkpt>
      <trkpt lat="41.708959" lon="2.037285">
        <ele>614.05</ele>
        <time>2012-04-07T10:36:27Z</time>
      </trkpt>
      <trkpt lat="41.709070" lon="2.037300">
        <ele>615.02</ele>
        <time>2012-04-07T10:36:29Z</time>
      </trkpt>
      <trkpt lat="41.709185" lon="2.037333">
        <ele>614.05</ele>
        <time>2012-04-07T10:36:31Z</time>
      </trkpt>
      <trkpt lat="41.709285" lon="2.037363">
        <ele>615.01</ele>
        <time>2012-04-07T10:36:33Z</time>
      </trkpt>
      <trkpt lat="41.709390" lon="2.037389">
        <ele>614.02</ele>
        <time>2012-04-07T10:36:35Z</time>
      </trkpt>
      <trkpt lat="41.709514" lon="2.037414">
        <ele>616.03</ele>
        <time>2012-04-07T10:36:39Z</time>
      </trkpt>
      <trkpt lat="41.709618" lon="2.037412">
        <ele>617.05</ele>
        <time>2012-04-07T10:36:45Z</time>
      </trkpt>
      <trkpt lat="41.709722" lon="2.037425">
        <ele>619.03</ele>
        <time>2012-04-07T10:36:51Z</time>
      </trkpt>
      <trkpt lat="41.709823" lon="2.037430">
        <ele>617.08</ele>
        <time>2012-04-07T10:36:56Z</time>
      </trkpt>
      <trkpt lat="41.709940" lon="2.037420">
        <ele>618.06</ele>
        <time>2012-04-07T10:37:01Z</time>
      </trkpt>
      <trkpt lat="41.710043" lon="2.037392">
        <ele>617.06</ele>
        <time>2012-04-07T10:37:05Z</time>
      </trkpt>
      <trkpt lat="41.710134" lon="2.037331">
        <ele>617.09</ele>
        <time>2012-04-07T10:37:08Z</time>
      </trkpt>
      <trkpt lat="41.710215" lon="2.037247">
        <ele>615.02</ele>
        <time>2012-04-07T10:37:11Z</time>
      </trkpt>
      <trkpt lat="41.710300" lon="2.037147">
        <ele>613.10</ele>
        <time>2012-04-07T10:37:14Z</time>
      </trkpt>
      <trkpt lat="41.710389" lon="2.037068">
        <ele>615.01</ele>
        <time>2012-04-07T10:37:17Z</time>
      </trkpt>
      <trkpt lat="41.710474" lon="2.037149">
        <ele>617.03</ele>
        <time>2012-04-07T10:37:21Z</time>
      </trkpt>
      <trkpt lat="41.710453" lon="2.037327">
        <ele>619.03</ele>
        <time>2012-04-07T10:37:24Z</time>
      </trkpt>
      <trkpt lat="41.710491" lon="2.037462">
        <ele>619.08</ele>
        <time>2012-04-07T10:37:26Z</time>
      </trkpt>
      <trkpt lat="41.710585" lon="2.037541">
        <ele>619.06</ele>
        <time>2012-04-07T10:37:28Z</time>
      </trkpt>
      <trkpt lat="41.710690" lon="2.037568">
        <ele>620.06</ele>
        <time>2012-04-07T10:37:30Z</time>
      </trkpt>
      <trkpt lat="41.710814" lon="2.037574">
        <ele>620.03</ele>
        <time>2012-04-07T10:37:32Z</time>
      </trkpt>
      <trkpt lat="41.710950" lon="2.037576">
        <ele>620.03</ele>
        <time>2012-04-07T10:37:34Z</time>
      </trkpt>
      <trkpt lat="41.711089" lon="2.037579">
        <ele>620.08</ele>
        <time>2012-04-07T10:37:36Z</time>
      </trkpt>
      <trkpt lat="41.711230" lon="2.037581">
        <ele>621.05</ele>
        <time>2012-04-07T10:37:38Z</time>
      </trkpt>
      <trkpt lat="41.711364" lon="2.037575">
        <ele>622.05</ele>
        <time>2012-04-07T10:37:40Z</time>
      </trkpt>
      <trkpt lat="41.711504" lon="2.037558">
        <ele>623.01</ele>
        <time>2012-04-07T10:37:42Z</time>
      </trkpt>
      <trkpt lat="41.711642" lon="2.037522">
        <ele>623.01</ele>
        <time>2012-04-07T10:37:44Z</time>
      </trkpt>
      <trkpt lat="41.711785" lon="2.037464">
        <ele>624.00</ele>
        <time>2012-04-07T10:37:46Z</time>
      </trkpt>
      <trkpt lat="41.711925" lon="2.037392">
        <ele>624.05</ele>
        <time>2012-04-07T10:37:48Z</time>
      </trkpt>
      <trkpt lat="41.712047" lon="2.037303">
        <ele>626.05</ele>
        <time>2012-04-07T10:37:50Z</time>
      </trkpt>
      <trkpt lat="41.712145" lon="2.037165">
        <ele>626.01</ele>
        <time>2012-04-07T10:37:52Z</time>
      </trkpt>
      <trkpt lat="41.712209" lon="2.036996">
        <ele>628.10</ele>
        <time>2012-04-07T10:37:54Z</time>
      </trkpt>
      <trkpt lat="41.712256" lon="2.036833">
        <ele>629.07</ele>
        <time>2012-04-07T10:37:56Z</time>
      </trkpt>
      <trkpt lat="41.712299" lon="2.036658">
        <ele>629.08</ele>
        <time>2012-04-07T10:37:58Z</time>
      </trkpt>
      <trkpt lat="41.712335" lon="2.036487">
        <ele>629.06</ele>
        <time>2012-04-07T10:38:00Z</time>
      </trkpt>
      <trkpt lat="41.712372" lon="2.036336">
        <ele>630.07</ele>
        <time>2012-04-07T10:38:02Z</time>
      </trkpt>
      <trkpt lat="41.712416" lon="2.036169">
        <ele>631.01</ele>
        <time>2012-04-07T10:38:04Z</time>
      </trkpt>
      <trkpt lat="41.712457" lon="2.036004">
        <ele>633.03</ele>
        <time>2012-04-07T10:38:06Z</time>
      </trkpt>
      <trkpt lat="41.712495" lon="2.035860">
        <ele>634.06</ele>
        <time>2012-04-07T10:38:08Z</time>
      </trkpt>
      <trkpt lat="41.712530" lon="2.035728">
        <ele>635.09</ele>
        <time>2012-04-07T10:38:10Z</time>
      </trkpt>
      <trkpt lat="41.712578" lon="2.035591">
        <ele>636.09</ele>
        <time>2012-04-07T10:38:12Z</time>
      </trkpt>
      <trkpt lat="41.712622" lon="2.035442">
        <ele>637.03</ele>
        <time>2012-04-07T10:38:14Z</time>
      </trkpt>
      <trkpt lat="41.712634" lon="2.035285">
        <ele>638.08</ele>
        <time>2012-04-07T10:38:16Z</time>
      </trkpt>
      <trkpt lat="41.712634" lon="2.035120">
        <ele>637.07</ele>
        <time>2012-04-07T10:38:18Z</time>
      </trkpt>
      <trkpt lat="41.712630" lon="2.034956">
        <ele>636.04</ele>
        <time>2012-04-07T10:38:20Z</time>
      </trkpt>
      <trkpt lat="41.712640" lon="2.034800">
        <ele>636.05</ele>
        <time>2012-04-07T10:38:22Z</time>
      </trkpt>
      <trkpt lat="41.712696" lon="2.034634">
        <ele>637.03</ele>
        <time>2012-04-07T10:38:24Z</time>
      </trkpt>
      <trkpt lat="41.712749" lon="2.034467">
        <ele>637.01</ele>
        <time>2012-04-07T10:38:26Z</time>
      </trkpt>
      <trkpt lat="41.712791" lon="2.034307">
        <ele>637.01</ele>
        <time>2012-04-07T10:38:28Z</time>
      </trkpt>
      <trkpt lat="41.712804" lon="2.034124">
        <ele>637.05</ele>
        <time>2012-04-07T10:38:30Z</time>
      </trkpt>
      <trkpt lat="41.712806" lon="2.033958">
        <ele>638.04</ele>
        <time>2012-04-07T10:38:32Z</time>
      </trkpt>
      <trkpt lat="41.712815" lon="2.033785">
        <ele>639.04</ele>
        <time>2012-04-07T10:38:34Z</time>
      </trkpt>
      <trkpt lat="41.712878" lon="2.033620">
        <ele>639.09</ele>
        <time>2012-04-07T10:38:36Z</time>
      </trkpt>
      <trkpt lat="41.712936" lon="2.033465">
        <ele>641.06</ele>
        <time>2012-04-07T10:38:38Z</time>
      </trkpt>
      <trkpt lat="41.712959" lon="2.033300">
        <ele>642.09</ele>
        <time>2012-04-07T10:38:40Z</time>
      </trkpt>
      <trkpt lat="41.712984" lon="2.033137">
        <ele>643.08</ele>
        <time>2012-04-07T10:38:42Z</time>
      </trkpt>
      <trkpt lat="41.713068" lon="2.032992">
        <ele>643.09</ele>
        <time>2012-04-07T10:38:45Z</time>
      </trkpt>
      <trkpt lat="41.713171" lon="2.033008">
        <ele>644.08</ele>
        <time>2012-04-07T10:38:47Z</time>
      </trkpt>
      <trkpt lat="41.713280" lon="2.033033">
        <ele>642.01</ele>
        <time>2012-04-07T10:38:49Z</time>
      </trkpt>
      <trkpt lat="41.713413" lon="2.032981">
        <ele>640.02</ele>
        <time>2012-04-07T10:38:52Z</time>
      </trkpt>
      <trkpt lat="41.713535" lon="2.032966">
        <ele>647.01</ele>
        <time>2012-04-07T10:38:55Z</time>
      </trkpt>
      <trkpt lat="41.713565" lon="2.033110">
        <ele>648.06</ele>
        <time>2012-04-07T10:38:58Z</time>
      </trkpt>
      <trkpt lat="41.713534" lon="2.033267">
        <ele>650.04</ele>
        <time>2012-04-07T10:39:00Z</time>
      </trkpt>
      <trkpt lat="41.713513" lon="2.033427">
        <ele>651.05</ele>
        <time>2012-04-07T10:39:02Z</time>
      </trkpt>
      <trkpt lat="41.713532" lon="2.033568">
        <ele>651.02</ele>
        <time>2012-04-07T10:39:04Z</time>
      </trkpt>
      <trkpt lat="41.713589" lon="2.033729">
        <ele>651.07</ele>
        <time>2012-04-07T10:39:06Z</time>
      </trkpt>
      <trkpt lat="41.713642" lon="2.033894">
        <ele>651.07</ele>
        <time>2012-04-07T10:39:08Z</time>
      </trkpt>
      <trkpt lat="41.713684" lon="2.034048">
        <ele>653.01</ele>
        <time>2012-04-07T10:39:10Z</time>
      </trkpt>
      <trkpt lat="41.713707" lon="2.034204">
        <ele>653.06</ele>
        <time>2012-04-07T10:39:12Z</time>
      </trkpt>
      <trkpt lat="41.713708" lon="2.034347">
        <ele>655.01</ele>
        <time>2012-04-07T10:39:14Z</time>
      </trkpt>
      <trkpt lat="41.713705" lon="2.034548">
        <ele>656.02</ele>
        <time>2012-04-07T10:39:17Z</time>
      </trkpt>
      <trkpt lat="41.713757" lon="2.034691">
        <ele>656.09</ele>
        <time>2012-04-07T10:39:20Z</time>
      </trkpt>
      <trkpt lat="41.713872" lon="2.034714">
        <ele>654.05</ele>
        <time>2012-04-07T10:39:23Z</time>
      </trkpt>
      <trkpt lat="41.713996" lon="2.034676">
        <ele>653.02</ele>
        <time>2012-04-07T10:39:27Z</time>
      </trkpt>
      <trkpt lat="41.714057" lon="2.034668">
        <ele>656.06</ele>
        <time>2012-04-07T10:39:38Z</time>
      </trkpt>
      <trkpt lat="41.714164" lon="2.034649">
        <ele>654.02</ele>
        <time>2012-04-07T10:39:41Z</time>
      </trkpt>
      <trkpt lat="41.714302" lon="2.034581">
        <ele>654.02</ele>
        <time>2012-04-07T10:39:45Z</time>
      </trkpt>
      <trkpt lat="41.714397" lon="2.034538">
        <ele>654.03</ele>
        <time>2012-04-07T10:39:49Z</time>
      </trkpt>
      <trkpt lat="41.714514" lon="2.034496">
        <ele>655.04</ele>
        <time>2012-04-07T10:39:54Z</time>
      </trkpt>
      <trkpt lat="41.714633" lon="2.034524">
        <ele>655.07</ele>
        <time>2012-04-07T10:39:59Z</time>
      </trkpt>
      <trkpt lat="41.714731" lon="2.034576">
        <ele>655.01</ele>
        <time>2012-04-07T10:40:09Z</time>
      </trkpt>
      <trkpt lat="41.714740" lon="2.034639">
        <ele>660.03</ele>
        <time>2012-04-07T10:40:39Z</time>
      </trkpt>
      <trkpt lat="41.714781" lon="2.034752">
        <ele>661.04</ele>
        <time>2012-04-07T10:40:49Z</time>
      </trkpt>
      <trkpt lat="41.714865" lon="2.034832">
        <ele>661.07</ele>
        <time>2012-04-07T10:40:52Z</time>
      </trkpt>
      <trkpt lat="41.715005" lon="2.034849">
        <ele>663.01</ele>
        <time>2012-04-07T10:40:55Z</time>
      </trkpt>
      <trkpt lat="41.715132" lon="2.034859">
        <ele>663.09</ele>
        <time>2012-04-07T10:40:57Z</time>
      </trkpt>
      <trkpt lat="41.715248" lon="2.034874">
        <ele>663.03</ele>
        <time>2012-04-07T10:40:59Z</time>
      </trkpt>
      <trkpt lat="41.715381" lon="2.034871">
        <ele>665.09</ele>
        <time>2012-04-07T10:41:02Z</time>
      </trkpt>
      <trkpt lat="41.715493" lon="2.034836">
        <ele>665.08</ele>
        <time>2012-04-07T10:41:06Z</time>
      </trkpt>
      <trkpt lat="41.715621" lon="2.034878">
        <ele>666.06</ele>
        <time>2012-04-07T10:41:10Z</time>
      </trkpt>
      <trkpt lat="41.715688" lon="2.035022">
        <ele>667.01</ele>
        <time>2012-04-07T10:41:14Z</time>
      </trkpt>
      <trkpt lat="41.715716" lon="2.035150">
        <ele>668.01</ele>
        <time>2012-04-07T10:41:17Z</time>
      </trkpt>
      <trkpt lat="41.715759" lon="2.035289">
        <ele>669.01</ele>
        <time>2012-04-07T10:41:21Z</time>
      </trkpt>
      <trkpt lat="41.715858" lon="2.035385">
        <ele>668.08</ele>
        <time>2012-04-07T10:41:28Z</time>
      </trkpt>
      <trkpt lat="41.715966" lon="2.035417">
        <ele>670.02</ele>
        <time>2012-04-07T10:41:31Z</time>
      </trkpt>
      <trkpt lat="41.716106" lon="2.035463">
        <ele>669.04</ele>
        <time>2012-04-07T10:41:34Z</time>
      </trkpt>
      <trkpt lat="41.716232" lon="2.035503">
        <ele>671.02</ele>
        <time>2012-04-07T10:41:37Z</time>
      </trkpt>
      <trkpt lat="41.716346" lon="2.035551">
        <ele>671.03</ele>
        <time>2012-04-07T10:41:40Z</time>
      </trkpt>
      <trkpt lat="41.716441" lon="2.035620">
        <ele>669.07</ele>
        <time>2012-04-07T10:41:43Z</time>
      </trkpt>
      <trkpt lat="41.716528" lon="2.035691">
        <ele>671.09</ele>
        <time>2012-04-07T10:41:46Z</time>
      </trkpt>
      <trkpt lat="41.716621" lon="2.035744">
        <ele>672.02</ele>
        <time>2012-04-07T10:41:50Z</time>
      </trkpt>
      <trkpt lat="41.716626" lon="2.035769">
        <ele>672.04</ele>
        <time>2012-04-07T10:42:20Z</time>
      </trkpt>
      <trkpt lat="41.716715" lon="2.035836">
        <ele>672.01</ele>
        <time>2012-04-07T10:42:25Z</time>
      </trkpt>
      <trkpt lat="41.716816" lon="2.035919">
        <ele>672.01</ele>
        <time>2012-04-07T10:42:28Z</time>
      </trkpt>
      <trkpt lat="41.716881" lon="2.035962">
        <ele>672.00</ele>
        <time>2012-04-07T10:42:43Z</time>
      </trkpt>
      <trkpt lat="41.716887" lon="2.035965">
        <ele>674.05</ele>
        <time>2012-04-07T10:43:13Z</time>
      </trkpt>
      <trkpt lat="41.716910" lon="2.035967">
        <ele>674.10</ele>
        <time>2012-04-07T10:43:43Z</time>
      </trkpt>
      <trkpt lat="41.716911" lon="2.035965">
        <ele>676.03</ele>
        <time>2012-04-07T10:44:13Z</time>
      </trkpt>
      <trkpt lat="41.716911" lon="2.035963">
        <ele>671.07</ele>
        <time>2012-04-07T10:44:43Z</time>
      </trkpt>
      <trkpt lat="41.716911" lon="2.035963">
        <ele>671.06</ele>
        <time>2012-04-07T10:45:13Z</time>
      </trkpt>
      <trkpt lat="41.716870" lon="2.035965">
        <ele>671.04</ele>
        <time>2012-04-07T10:45:43Z</time>
      </trkpt>
      <trkpt lat="41.716838" lon="2.035980">
        <ele>670.04</ele>
        <time>2012-04-07T10:46:45Z</time>
      </trkpt>
      <trkpt lat="41.716838" lon="2.035980">
        <ele>670.09</ele>
        <time>2012-04-07T10:47:27Z</time>
      </trkpt>
      <trkpt lat="41.716838" lon="2.035980">
        <ele>670.01</ele>
        <time>2012-04-07T10:47:57Z</time>
      </trkpt>
      <trkpt lat="41.716839" lon="2.035982">
        <ele>670.01</ele>
        <time>2012-04-07T10:48:27Z</time>
      </trkpt>
      <trkpt lat="41.716835" lon="2.035976">
        <ele>670.05</ele>
        <time>2012-04-07T10:48:57Z</time>
      </trkpt>
      <trkpt lat="41.716850" lon="2.035999">
        <ele>670.03</ele>
        <time>2012-04-07T10:49:27Z</time>
      </trkpt>
      <trkpt lat="41.716850" lon="2.035999">
        <ele>670.06</ele>
        <time>2012-04-07T10:49:57Z</time>
      </trkpt>
      <trkpt lat="41.716850" lon="2.035999">
        <ele>670.09</ele>
        <time>2012-04-07T10:50:27Z</time>
      </trkpt>
      <trkpt lat="41.716846" lon="2.035999">
        <ele>676.07</ele>
        <time>2012-04-07T10:50:57Z</time>
      </trkpt>
      <trkpt lat="41.716772" lon="2.035886">
        <ele>677.01</ele>
        <time>2012-04-07T10:50:59Z</time>
      </trkpt>
      <trkpt lat="41.716656" lon="2.035709">
        <ele>677.09</ele>
        <time>2012-04-07T10:51:01Z</time>
      </trkpt>
      <trkpt lat="41.716586" lon="2.035600">
        <ele>678.05</ele>
        <time>2012-04-07T10:51:02Z</time>
      </trkpt>
      <trkpt lat="41.716513" lon="2.035474">
        <ele>678.04</ele>
        <time>2012-04-07T10:51:03Z</time>
      </trkpt>
      <trkpt lat="41.716444" lon="2.035341">
        <ele>678.01</ele>
        <time>2012-04-07T10:51:04Z</time>
      </trkpt>
      <trkpt lat="41.716382" lon="2.035217">
        <ele>679.02</ele>
        <time>2012-04-07T10:51:05Z</time>
      </trkpt>
      <trkpt lat="41.716328" lon="2.035096">
        <ele>680.06</ele>
        <time>2012-04-07T10:51:06Z</time>
      </trkpt>
      <trkpt lat="41.716277" lon="2.034969">
        <ele>681.07</ele>
        <time>2012-04-07T10:51:07Z</time>
      </trkpt>
      <trkpt lat="41.716248" lon="2.034829">
        <ele>682.08</ele>
        <time>2012-04-07T10:51:08Z</time>
      </trkpt>
      <trkpt lat="41.716227" lon="2.034678">
        <ele>682.09</ele>
        <time>2012-04-07T10:51:09Z</time>
      </trkpt>
      <trkpt lat="41.716214" lon="2.034521">
        <ele>684.07</ele>
        <time>2012-04-07T10:51:10Z</time>
      </trkpt>
      <trkpt lat="41.716231" lon="2.034379">
        <ele>684.01</ele>
        <time>2012-04-07T10:51:11Z</time>
      </trkpt>
      <trkpt lat="41.716312" lon="2.034137">
        <ele>685.08</ele>
        <time>2012-04-07T10:51:13Z</time>
      </trkpt>
      <trkpt lat="41.716381" lon="2.033934">
        <ele>686.03</ele>
        <time>2012-04-07T10:51:15Z</time>
      </trkpt>
      <trkpt lat="41.716412" lon="2.033751">
        <ele>687.03</ele>
        <time>2012-04-07T10:51:17Z</time>
      </trkpt>
      <trkpt lat="41.716415" lon="2.033598">
        <ele>688.01</ele>
        <time>2012-04-07T10:51:19Z</time>
      </trkpt>
      <trkpt lat="41.716406" lon="2.033407">
        <ele>688.02</ele>
        <time>2012-04-07T10:51:22Z</time>
      </trkpt>
      <trkpt lat="41.716443" lon="2.033247">
        <ele>688.03</ele>
        <time>2012-04-07T10:51:25Z</time>
      </trkpt>
      <trkpt lat="41.716496" lon="2.033086">
        <ele>687.10</ele>
        <time>2012-04-07T10:51:28Z</time>
      </trkpt>
      <trkpt lat="41.716539" lon="2.032959">
        <ele>686.04</ele>
        <time>2012-04-07T10:51:30Z</time>
      </trkpt>
      <trkpt lat="41.716587" lon="2.032806">
        <ele>686.08</ele>
        <time>2012-04-07T10:51:32Z</time>
      </trkpt>
      <trkpt lat="41.716631" lon="2.032632">
        <ele>686.02</ele>
        <time>2012-04-07T10:51:34Z</time>
      </trkpt>
      <trkpt lat="41.716633" lon="2.032463">
        <ele>686.05</ele>
        <time>2012-04-07T10:51:36Z</time>
      </trkpt>
      <trkpt lat="41.716622" lon="2.032307">
        <ele>686.04</ele>
        <time>2012-04-07T10:51:38Z</time>
      </trkpt>
      <trkpt lat="41.716603" lon="2.032173">
        <ele>687.09</ele>
        <time>2012-04-07T10:51:40Z</time>
      </trkpt>
      <trkpt lat="41.716569" lon="2.032036">
        <ele>690.05</ele>
        <time>2012-04-07T10:51:42Z</time>
      </trkpt>
      <trkpt lat="41.716529" lon="2.031913">
        <ele>692.01</ele>
        <time>2012-04-07T10:51:44Z</time>
      </trkpt>
      <trkpt lat="41.716477" lon="2.031785">
        <ele>691.01</ele>
        <time>2012-04-07T10:51:46Z</time>
      </trkpt>
      <trkpt lat="41.716410" lon="2.031657">
        <ele>691.04</ele>
        <time>2012-04-07T10:51:48Z</time>
      </trkpt>
      <trkpt lat="41.716320" lon="2.031524">
        <ele>691.07</ele>
        <time>2012-04-07T10:51:50Z</time>
      </trkpt>
      <trkpt lat="41.716219" lon="2.031420">
        <ele>691.05</ele>
        <time>2012-04-07T10:51:52Z</time>
      </trkpt>
      <trkpt lat="41.716109" lon="2.031343">
        <ele>695.05</ele>
        <time>2012-04-07T10:51:54Z</time>
      </trkpt>
      <trkpt lat="41.715981" lon="2.031263">
        <ele>695.01</ele>
        <time>2012-04-07T10:51:57Z</time>
      </trkpt>
      <trkpt lat="41.715867" lon="2.031189">
        <ele>695.05</ele>
        <time>2012-04-07T10:52:00Z</time>
      </trkpt>
      <trkpt lat="41.715760" lon="2.031132">
        <ele>694.04</ele>
        <time>2012-04-07T10:52:03Z</time>
      </trkpt>
      <trkpt lat="41.715642" lon="2.031094">
        <ele>694.06</ele>
        <time>2012-04-07T10:52:06Z</time>
      </trkpt>
      <trkpt lat="41.715523" lon="2.031057">
        <ele>693.05</ele>
        <time>2012-04-07T10:52:09Z</time>
      </trkpt>
      <trkpt lat="41.715404" lon="2.031018">
        <ele>693.01</ele>
        <time>2012-04-07T10:52:12Z</time>
      </trkpt>
      <trkpt lat="41.715288" lon="2.030981">
        <ele>692.01</ele>
        <time>2012-04-07T10:52:15Z</time>
      </trkpt>
      <trkpt lat="41.715166" lon="2.030942">
        <ele>691.03</ele>
        <time>2012-04-07T10:52:18Z</time>
      </trkpt>
      <trkpt lat="41.715035" lon="2.030902">
        <ele>693.01</ele>
        <time>2012-04-07T10:52:21Z</time>
      </trkpt>
      <trkpt lat="41.714912" lon="2.030873">
        <ele>695.03</ele>
        <time>2012-04-07T10:52:24Z</time>
      </trkpt>
      <trkpt lat="41.714773" lon="2.030849">
        <ele>694.04</ele>
        <time>2012-04-07T10:52:27Z</time>
      </trkpt>
      <trkpt lat="41.714670" lon="2.030832">
        <ele>696.09</ele>
        <time>2012-04-07T10:52:29Z</time>
      </trkpt>
      <trkpt lat="41.714570" lon="2.030815">
        <ele>696.09</ele>
        <time>2012-04-07T10:52:31Z</time>
      </trkpt>
      <trkpt lat="41.714463" lon="2.030799">
        <ele>696.03</ele>
        <time>2012-04-07T10:52:33Z</time>
      </trkpt>
      <trkpt lat="41.714353" lon="2.030781">
        <ele>697.03</ele>
        <time>2012-04-07T10:52:35Z</time>
      </trkpt>
      <trkpt lat="41.714243" lon="2.030759">
        <ele>697.02</ele>
        <time>2012-04-07T10:52:37Z</time>
      </trkpt>
      <trkpt lat="41.714143" lon="2.030728">
        <ele>696.01</ele>
        <time>2012-04-07T10:52:39Z</time>
      </trkpt>
      <trkpt lat="41.714049" lon="2.030688">
        <ele>695.01</ele>
        <time>2012-04-07T10:52:41Z</time>
      </trkpt>
      <trkpt lat="41.713911" lon="2.030613">
        <ele>697.09</ele>
        <time>2012-04-07T10:52:44Z</time>
      </trkpt>
      <trkpt lat="41.713783" lon="2.030532">
        <ele>700.03</ele>
        <time>2012-04-07T10:52:47Z</time>
      </trkpt>
      <trkpt lat="41.713675" lon="2.030477">
        <ele>698.10</ele>
        <time>2012-04-07T10:52:50Z</time>
      </trkpt>
      <trkpt lat="41.713576" lon="2.030449">
        <ele>697.08</ele>
        <time>2012-04-07T10:52:52Z</time>
      </trkpt>
      <trkpt lat="41.713439" lon="2.030414">
        <ele>698.08</ele>
        <time>2012-04-07T10:52:54Z</time>
      </trkpt>
      <trkpt lat="41.713286" lon="2.030377">
        <ele>697.10</ele>
        <time>2012-04-07T10:52:56Z</time>
      </trkpt>
      <trkpt lat="41.713121" lon="2.030331">
        <ele>696.01</ele>
        <time>2012-04-07T10:52:58Z</time>
      </trkpt>
      <trkpt lat="41.712950" lon="2.030255">
        <ele>697.02</ele>
        <time>2012-04-07T10:53:00Z</time>
      </trkpt>
      <trkpt lat="41.712791" lon="2.030140">
        <ele>698.03</ele>
        <time>2012-04-07T10:53:02Z</time>
      </trkpt>
      <trkpt lat="41.712651" lon="2.030041">
        <ele>697.01</ele>
        <time>2012-04-07T10:53:04Z</time>
      </trkpt>
      <trkpt lat="41.712524" lon="2.029983">
        <ele>698.01</ele>
        <time>2012-04-07T10:53:06Z</time>
      </trkpt>
      <trkpt lat="41.712408" lon="2.029965">
        <ele>699.01</ele>
        <time>2012-04-07T10:53:08Z</time>
      </trkpt>
      <trkpt lat="41.712301" lon="2.029966">
        <ele>702.04</ele>
        <time>2012-04-07T10:53:10Z</time>
      </trkpt>
      <trkpt lat="41.712195" lon="2.029965">
        <ele>704.02</ele>
        <time>2012-04-07T10:53:12Z</time>
      </trkpt>
      <trkpt lat="41.712054" lon="2.029938">
        <ele>702.01</ele>
        <time>2012-04-07T10:53:15Z</time>
      </trkpt>
      <trkpt lat="41.711925" lon="2.029857">
        <ele>702.05</ele>
        <time>2012-04-07T10:53:18Z</time>
      </trkpt>
      <trkpt lat="41.711811" lon="2.029774">
        <ele>700.09</ele>
        <time>2012-04-07T10:53:21Z</time>
      </trkpt>
      <trkpt lat="41.711701" lon="2.029652">
        <ele>700.05</ele>
        <time>2012-04-07T10:53:24Z</time>
      </trkpt>
      <trkpt lat="41.711597" lon="2.029537">
        <ele>699.07</ele>
        <time>2012-04-07T10:53:27Z</time>
      </trkpt>
      <trkpt lat="41.711492" lon="2.029425">
        <ele>702.06</ele>
        <time>2012-04-07T10:53:30Z</time>
      </trkpt>
      <trkpt lat="41.711369" lon="2.029350">
        <ele>703.01</ele>
        <time>2012-04-07T10:53:33Z</time>
      </trkpt>
      <trkpt lat="41.711246" lon="2.029283">
        <ele>704.01</ele>
        <time>2012-04-07T10:53:36Z</time>
      </trkpt>
      <trkpt lat="41.711121" lon="2.029201">
        <ele>705.05</ele>
        <time>2012-04-07T10:53:39Z</time>
      </trkpt>
      <trkpt lat="41.711017" lon="2.029104">
        <ele>705.03</ele>
        <time>2012-04-07T10:53:42Z</time>
      </trkpt>
      <trkpt lat="41.710964" lon="2.028955">
        <ele>705.05</ele>
        <time>2012-04-07T10:53:45Z</time>
      </trkpt>
      <trkpt lat="41.710967" lon="2.028815">
        <ele>704.09</ele>
        <time>2012-04-07T10:53:48Z</time>
      </trkpt>
      <trkpt lat="41.710979" lon="2.028659">
        <ele>703.04</ele>
        <time>2012-04-07T10:53:52Z</time>
      </trkpt>
      <trkpt lat="41.710965" lon="2.028515">
        <ele>703.07</ele>
        <time>2012-04-07T10:53:57Z</time>
      </trkpt>
      <trkpt lat="41.710929" lon="2.028387">
        <ele>698.03</ele>
        <time>2012-04-07T10:54:03Z</time>
      </trkpt>
      <trkpt lat="41.710870" lon="2.028274">
        <ele>695.07</ele>
        <time>2012-04-07T10:54:08Z</time>
      </trkpt>
      <trkpt lat="41.710799" lon="2.028149">
        <ele>697.09</ele>
        <time>2012-04-07T10:54:13Z</time>
      </trkpt>
      <trkpt lat="41.710737" lon="2.028013">
        <ele>698.01</ele>
        <time>2012-04-07T10:54:18Z</time>
      </trkpt>
      <trkpt lat="41.710680" lon="2.027864">
        <ele>698.01</ele>
        <time>2012-04-07T10:54:23Z</time>
      </trkpt>
      <trkpt lat="41.710646" lon="2.027736">
        <ele>697.02</ele>
        <time>2012-04-07T10:54:27Z</time>
      </trkpt>
      <trkpt lat="41.710611" lon="2.027602">
        <ele>695.06</ele>
        <time>2012-04-07T10:54:31Z</time>
      </trkpt>
      <trkpt lat="41.710573" lon="2.027469">
        <ele>693.06</ele>
        <time>2012-04-07T10:54:35Z</time>
      </trkpt>
      <trkpt lat="41.710517" lon="2.027356">
        <ele>692.09</ele>
        <time>2012-04-07T10:54:39Z</time>
      </trkpt>
      <trkpt lat="41.710421" lon="2.027250">
        <ele>692.09</ele>
        <time>2012-04-07T10:54:44Z</time>
      </trkpt>
      <trkpt lat="41.710332" lon="2.027165">
        <ele>691.06</ele>
        <time>2012-04-07T10:54:48Z</time>
      </trkpt>
      <trkpt lat="41.710253" lon="2.027066">
        <ele>692.06</ele>
        <time>2012-04-07T10:54:52Z</time>
      </trkpt>
      <trkpt lat="41.710186" lon="2.026943">
        <ele>694.01</ele>
        <time>2012-04-07T10:54:56Z</time>
      </trkpt>
      <trkpt lat="41.710131" lon="2.026800">
        <ele>690.08</ele>
        <time>2012-04-07T10:55:00Z</time>
      </trkpt>
      <trkpt lat="41.710097" lon="2.026661">
        <ele>690.01</ele>
        <time>2012-04-07T10:55:03Z</time>
      </trkpt>
      <trkpt lat="41.710062" lon="2.026527">
        <ele>689.02</ele>
        <time>2012-04-07T10:55:06Z</time>
      </trkpt>
      <trkpt lat="41.710006" lon="2.026373">
        <ele>688.05</ele>
        <time>2012-04-07T10:55:09Z</time>
      </trkpt>
      <trkpt lat="41.709945" lon="2.026261">
        <ele>687.10</ele>
        <time>2012-04-07T10:55:11Z</time>
      </trkpt>
      <trkpt lat="41.709866" lon="2.026177">
        <ele>688.03</ele>
        <time>2012-04-07T10:55:13Z</time>
      </trkpt>
      <trkpt lat="41.709761" lon="2.026109">
        <ele>689.06</ele>
        <time>2012-04-07T10:55:15Z</time>
      </trkpt>
      <trkpt lat="41.709650" lon="2.026057">
        <ele>690.07</ele>
        <time>2012-04-07T10:55:17Z</time>
      </trkpt>
      <trkpt lat="41.709551" lon="2.026019">
        <ele>689.05</ele>
        <time>2012-04-07T10:55:19Z</time>
      </trkpt>
      <trkpt lat="41.709418" lon="2.025953">
        <ele>689.01</ele>
        <time>2012-04-07T10:55:22Z</time>
      </trkpt>
      <trkpt lat="41.709302" lon="2.025854">
        <ele>689.09</ele>
        <time>2012-04-07T10:55:25Z</time>
      </trkpt>
      <trkpt lat="41.709188" lon="2.025775">
        <ele>690.07</ele>
        <time>2012-04-07T10:55:28Z</time>
      </trkpt>
      <trkpt lat="41.709091" lon="2.025685">
        <ele>688.01</ele>
        <time>2012-04-07T10:55:31Z</time>
      </trkpt>
      <trkpt lat="41.708977" lon="2.025584">
        <ele>689.02</ele>
        <time>2012-04-07T10:55:34Z</time>
      </trkpt>
      <trkpt lat="41.708869" lon="2.025465">
        <ele>690.01</ele>
        <time>2012-04-07T10:55:37Z</time>
      </trkpt>
      <trkpt lat="41.708782" lon="2.025328">
        <ele>691.06</ele>
        <time>2012-04-07T10:55:40Z</time>
      </trkpt>
      <trkpt lat="41.708695" lon="2.025175">
        <ele>693.05</ele>
        <time>2012-04-07T10:55:43Z</time>
      </trkpt>
      <trkpt lat="41.708607" lon="2.025034">
        <ele>693.07</ele>
        <time>2012-04-07T10:55:46Z</time>
      </trkpt>
      <trkpt lat="41.708521" lon="2.024929">
        <ele>692.08</ele>
        <time>2012-04-07T10:55:49Z</time>
      </trkpt>
      <trkpt lat="41.708444" lon="2.024843">
        <ele>690.09</ele>
        <time>2012-04-07T10:55:52Z</time>
      </trkpt>
      <trkpt lat="41.708361" lon="2.024749">
        <ele>689.05</ele>
        <time>2012-04-07T10:55:55Z</time>
      </trkpt>
      <trkpt lat="41.708275" lon="2.024622">
        <ele>689.07</ele>
        <time>2012-04-07T10:55:58Z</time>
      </trkpt>
      <trkpt lat="41.708217" lon="2.024474">
        <ele>689.10</ele>
        <time>2012-04-07T10:56:01Z</time>
      </trkpt>
      <trkpt lat="41.708160" lon="2.024336">
        <ele>690.01</ele>
        <time>2012-04-07T10:56:04Z</time>
      </trkpt>
      <trkpt lat="41.708112" lon="2.024194">
        <ele>693.03</ele>
        <time>2012-04-07T10:56:08Z</time>
      </trkpt>
      <trkpt lat="41.708055" lon="2.024060">
        <ele>692.04</ele>
        <time>2012-04-07T10:56:12Z</time>
      </trkpt>
      <trkpt lat="41.707996" lon="2.023929">
        <ele>695.07</ele>
        <time>2012-04-07T10:56:15Z</time>
      </trkpt>
      <trkpt lat="41.707943" lon="2.023808">
        <ele>694.09</ele>
        <time>2012-04-07T10:56:18Z</time>
      </trkpt>
      <trkpt lat="41.707889" lon="2.023664">
        <ele>696.07</ele>
        <time>2012-04-07T10:56:22Z</time>
      </trkpt>
      <trkpt lat="41.707836" lon="2.023515">
        <ele>696.02</ele>
        <time>2012-04-07T10:56:27Z</time>
      </trkpt>
      <trkpt lat="41.707779" lon="2.023396">
        <ele>695.07</ele>
        <time>2012-04-07T10:56:32Z</time>
      </trkpt>
      <trkpt lat="41.707709" lon="2.023289">
        <ele>692.08</ele>
        <time>2012-04-07T10:56:38Z</time>
      </trkpt>
      <trkpt lat="41.707614" lon="2.023214">
        <ele>692.07</ele>
        <time>2012-04-07T10:56:43Z</time>
      </trkpt>
      <trkpt lat="41.707507" lon="2.023169">
        <ele>690.02</ele>
        <time>2012-04-07T10:56:48Z</time>
      </trkpt>
      <trkpt lat="41.707404" lon="2.023141">
        <ele>690.01</ele>
        <time>2012-04-07T10:56:53Z</time>
      </trkpt>
      <trkpt lat="41.707290" lon="2.023103">
        <ele>690.01</ele>
        <time>2012-04-07T10:56:58Z</time>
      </trkpt>
      <trkpt lat="41.707192" lon="2.023068">
        <ele>691.06</ele>
        <time>2012-04-07T10:57:02Z</time>
      </trkpt>
      <trkpt lat="41.707089" lon="2.023046">
        <ele>691.05</ele>
        <time>2012-04-07T10:57:06Z</time>
      </trkpt>
      <trkpt lat="41.706987" lon="2.023045">
        <ele>691.07</ele>
        <time>2012-04-07T10:57:10Z</time>
      </trkpt>
      <trkpt lat="41.706888" lon="2.023057">
        <ele>691.08</ele>
        <time>2012-04-07T10:57:14Z</time>
      </trkpt>
      <trkpt lat="41.706781" lon="2.023075">
        <ele>687.04</ele>
        <time>2012-04-07T10:57:19Z</time>
      </trkpt>
      <trkpt lat="41.706677" lon="2.023047">
        <ele>687.01</ele>
        <time>2012-04-07T10:57:24Z</time>
      </trkpt>
      <trkpt lat="41.706586" lon="2.022942">
        <ele>686.02</ele>
        <time>2012-04-07T10:57:29Z</time>
      </trkpt>
      <trkpt lat="41.706519" lon="2.022816">
        <ele>686.06</ele>
        <time>2012-04-07T10:57:34Z</time>
      </trkpt>
      <trkpt lat="41.706438" lon="2.022695">
        <ele>688.10</ele>
        <time>2012-04-07T10:57:39Z</time>
      </trkpt>
      <trkpt lat="41.706418" lon="2.022612">
        <ele>688.01</ele>
        <time>2012-04-07T10:57:59Z</time>
      </trkpt>
      <trkpt lat="41.706345" lon="2.022534">
        <ele>683.01</ele>
        <time>2012-04-07T10:58:09Z</time>
      </trkpt>
      <trkpt lat="41.706277" lon="2.022420">
        <ele>682.08</ele>
        <time>2012-04-07T10:58:12Z</time>
      </trkpt>
      <trkpt lat="41.706197" lon="2.022266">
        <ele>682.06</ele>
        <time>2012-04-07T10:58:15Z</time>
      </trkpt>
      <trkpt lat="41.706174" lon="2.022106">
        <ele>683.03</ele>
        <time>2012-04-07T10:58:18Z</time>
      </trkpt>
      <trkpt lat="41.706165" lon="2.021973">
        <ele>684.02</ele>
        <time>2012-04-07T10:58:20Z</time>
      </trkpt>
      <trkpt lat="41.706188" lon="2.021807">
        <ele>684.04</ele>
        <time>2012-04-07T10:58:23Z</time>
      </trkpt>
      <trkpt lat="41.706226" lon="2.021645">
        <ele>685.05</ele>
        <time>2012-04-07T10:58:27Z</time>
      </trkpt>
      <trkpt lat="41.706285" lon="2.021505">
        <ele>685.05</ele>
        <time>2012-04-07T10:58:31Z</time>
      </trkpt>
      <trkpt lat="41.706366" lon="2.021368">
        <ele>685.09</ele>
        <time>2012-04-07T10:58:34Z</time>
      </trkpt>
      <trkpt lat="41.706427" lon="2.021199">
        <ele>686.05</ele>
        <time>2012-04-07T10:58:38Z</time>
      </trkpt>
      <trkpt lat="41.706361" lon="2.021100">
        <ele>687.01</ele>
        <time>2012-04-07T10:58:43Z</time>
      </trkpt>
      <trkpt lat="41.706250" lon="2.021044">
        <ele>693.03</ele>
        <time>2012-04-07T10:58:48Z</time>
      </trkpt>
      <trkpt lat="41.706136" lon="2.021029">
        <ele>693.06</ele>
        <time>2012-04-07T10:58:53Z</time>
      </trkpt>
      <trkpt lat="41.706034" lon="2.021013">
        <ele>693.09</ele>
        <time>2012-04-07T10:58:57Z</time>
      </trkpt>
      <trkpt lat="41.705903" lon="2.020963">
        <ele>694.05</ele>
        <time>2012-04-07T10:59:01Z</time>
      </trkpt>
      <trkpt lat="41.705835" lon="2.020930">
        <ele>697.06</ele>
        <time>2012-04-07T10:59:14Z</time>
      </trkpt>
      <trkpt lat="41.705836" lon="2.020903">
        <ele>695.06</ele>
        <time>2012-04-07T10:59:44Z</time>
      </trkpt>
      <trkpt lat="41.705806" lon="2.020927">
        <ele>695.03</ele>
        <time>2012-04-07T11:00:14Z</time>
      </trkpt>
      <trkpt lat="41.705848" lon="2.020891">
        <ele>691.05</ele>
        <time>2012-04-07T11:00:44Z</time>
      </trkpt>
      <trkpt lat="41.705852" lon="2.020893">
        <ele>696.07</ele>
        <time>2012-04-07T11:01:14Z</time>
      </trkpt>
      <trkpt lat="41.705854" lon="2.020898">
        <ele>684.02</ele>
        <time>2012-04-07T11:01:44Z</time>
      </trkpt>
      <trkpt lat="41.705850" lon="2.020895">
        <ele>693.01</ele>
        <time>2012-04-07T11:02:14Z</time>
      </trkpt>
      <trkpt lat="41.705867" lon="2.020906">
        <ele>692.01</ele>
        <time>2012-04-07T11:02:44Z</time>
      </trkpt>
      <trkpt lat="41.705918" lon="2.020941">
        <ele>689.08</ele>
        <time>2012-04-07T11:02:59Z</time>
      </trkpt>
      <trkpt lat="41.705858" lon="2.020925">
        <ele>695.06</ele>
        <time>2012-04-07T11:03:17Z</time>
      </trkpt>
      <trkpt lat="41.705851" lon="2.020964">
        <ele>693.06</ele>
        <time>2012-04-07T11:03:47Z</time>
      </trkpt>
      <trkpt lat="41.705878" lon="2.020977">
        <ele>687.02</ele>
        <time>2012-04-07T11:04:17Z</time>
      </trkpt>
      <trkpt lat="41.705856" lon="2.020978">
        <ele>687.04</ele>
        <time>2012-04-07T11:04:47Z</time>
      </trkpt>
      <trkpt lat="41.705864" lon="2.020959">
        <ele>691.06</ele>
        <time>2012-04-07T11:05:17Z</time>
      </trkpt>
      <trkpt lat="41.705861" lon="2.020955">
        <ele>691.08</ele>
        <time>2012-04-07T11:05:47Z</time>
      </trkpt>
      <trkpt lat="41.705861" lon="2.020955">
        <ele>691.04</ele>
        <time>2012-04-07T11:06:17Z</time>
      </trkpt>
      <trkpt lat="41.705861" lon="2.020955">
        <ele>691.05</ele>
        <time>2012-04-07T11:06:47Z</time>
      </trkpt>
      <trkpt lat="41.705872" lon="2.020971">
        <ele>691.01</ele>
        <time>2012-04-07T11:07:17Z</time>
      </trkpt>
      <trkpt lat="41.705872" lon="2.020971">
        <ele>691.02</ele>
        <time>2012-04-07T11:07:47Z</time>
      </trkpt>
      <trkpt lat="41.705830" lon="2.020912">
        <ele>691.06</ele>
        <time>2012-04-07T11:08:02Z</time>
      </trkpt>
      <trkpt lat="41.705777" lon="2.020837">
        <ele>691.09</ele>
        <time>2012-04-07T11:08:12Z</time>
      </trkpt>
      <trkpt lat="41.705748" lon="2.020700">
        <ele>691.05</ele>
        <time>2012-04-07T11:08:17Z</time>
      </trkpt>
      <trkpt lat="41.705745" lon="2.020563">
        <ele>693.02</ele>
        <time>2012-04-07T11:08:20Z</time>
      </trkpt>
      <trkpt lat="41.705797" lon="2.020448">
        <ele>694.03</ele>
        <time>2012-04-07T11:08:23Z</time>
      </trkpt>
      <trkpt lat="41.705863" lon="2.020303">
        <ele>692.05</ele>
        <time>2012-04-07T11:08:27Z</time>
      </trkpt>
      <trkpt lat="41.705862" lon="2.020170">
        <ele>691.07</ele>
        <time>2012-04-07T11:08:30Z</time>
      </trkpt>
      <trkpt lat="41.705805" lon="2.020049">
        <ele>690.05</ele>
        <time>2012-04-07T11:08:33Z</time>
      </trkpt>
      <trkpt lat="41.705706" lon="2.019949">
        <ele>689.07</ele>
        <time>2012-04-07T11:08:36Z</time>
      </trkpt>
      <trkpt lat="41.705591" lon="2.019887">
        <ele>689.01</ele>
        <time>2012-04-07T11:08:39Z</time>
      </trkpt>
      <trkpt lat="41.705472" lon="2.019849">
        <ele>689.01</ele>
        <time>2012-04-07T11:08:42Z</time>
      </trkpt>
      <trkpt lat="41.705336" lon="2.019831">
        <ele>688.05</ele>
        <time>2012-04-07T11:08:45Z</time>
      </trkpt>
      <trkpt lat="41.705190" lon="2.019815">
        <ele>688.03</ele>
        <time>2012-04-07T11:08:48Z</time>
      </trkpt>
      <trkpt lat="41.705077" lon="2.019795">
        <ele>688.07</ele>
        <time>2012-04-07T11:08:50Z</time>
      </trkpt>
      <trkpt lat="41.704942" lon="2.019756">
        <ele>688.01</ele>
        <time>2012-04-07T11:08:52Z</time>
      </trkpt>
      <trkpt lat="41.704799" lon="2.019667">
        <ele>688.08</ele>
        <time>2012-04-07T11:08:54Z</time>
      </trkpt>
      <trkpt lat="41.704636" lon="2.019594">
        <ele>688.10</ele>
        <time>2012-04-07T11:08:56Z</time>
      </trkpt>
      <trkpt lat="41.704452" lon="2.019599">
        <ele>689.08</ele>
        <time>2012-04-07T11:08:58Z</time>
      </trkpt>
      <trkpt lat="41.704276" lon="2.019614">
        <ele>691.08</ele>
        <time>2012-04-07T11:09:00Z</time>
      </trkpt>
      <trkpt lat="41.704109" lon="2.019639">
        <ele>692.08</ele>
        <time>2012-04-07T11:09:02Z</time>
      </trkpt>
      <trkpt lat="41.703956" lon="2.019624">
        <ele>694.01</ele>
        <time>2012-04-07T11:09:04Z</time>
      </trkpt>
      <trkpt lat="41.703819" lon="2.019575">
        <ele>695.01</ele>
        <time>2012-04-07T11:09:06Z</time>
      </trkpt>
      <trkpt lat="41.703698" lon="2.019515">
        <ele>695.03</ele>
        <time>2012-04-07T11:09:08Z</time>
      </trkpt>
      <trkpt lat="41.703586" lon="2.019447">
        <ele>696.01</ele>
        <time>2012-04-07T11:09:10Z</time>
      </trkpt>
      <trkpt lat="41.703467" lon="2.019390">
        <ele>696.04</ele>
        <time>2012-04-07T11:09:12Z</time>
      </trkpt>
      <trkpt lat="41.703349" lon="2.019336">
        <ele>697.03</ele>
        <time>2012-04-07T11:09:14Z</time>
      </trkpt>
      <trkpt lat="41.703228" lon="2.019294">
        <ele>698.07</ele>
        <time>2012-04-07T11:09:16Z</time>
      </trkpt>
      <trkpt lat="41.703116" lon="2.019263">
        <ele>700.06</ele>
        <time>2012-04-07T11:09:18Z</time>
      </trkpt>
      <trkpt lat="41.703015" lon="2.019227">
        <ele>701.07</ele>
        <time>2012-04-07T11:09:20Z</time>
      </trkpt>
      <trkpt lat="41.702894" lon="2.019188">
        <ele>704.09</ele>
        <time>2012-04-07T11:09:23Z</time>
      </trkpt>
      <trkpt lat="41.702795" lon="2.019122">
        <ele>704.02</ele>
        <time>2012-04-07T11:09:27Z</time>
      </trkpt>
      <trkpt lat="41.702739" lon="2.019062">
        <ele>706.01</ele>
        <time>2012-04-07T11:09:47Z</time>
      </trkpt>
      <trkpt lat="41.702843" lon="2.019097">
        <ele>708.01</ele>
        <time>2012-04-07T11:09:53Z</time>
      </trkpt>
      <trkpt lat="41.702944" lon="2.019039">
        <ele>705.05</ele>
        <time>2012-04-07T11:09:59Z</time>
      </trkpt>
      <trkpt lat="41.703037" lon="2.018989">
        <ele>706.03</ele>
        <time>2012-04-07T11:10:03Z</time>
      </trkpt>
      <trkpt lat="41.703139" lon="2.018929">
        <ele>706.09</ele>
        <time>2012-04-07T11:10:08Z</time>
      </trkpt>
      <trkpt lat="41.703218" lon="2.018820">
        <ele>704.09</ele>
        <time>2012-04-07T11:10:14Z</time>
      </trkpt>
      <trkpt lat="41.703248" lon="2.018681">
        <ele>706.02</ele>
        <time>2012-04-07T11:10:19Z</time>
      </trkpt>
      <trkpt lat="41.703313" lon="2.018564">
        <ele>705.09</ele>
        <time>2012-04-07T11:10:25Z</time>
      </trkpt>
      <trkpt lat="41.703414" lon="2.018540">
        <ele>704.03</ele>
        <time>2012-04-07T11:10:30Z</time>
      </trkpt>
      <trkpt lat="41.703531" lon="2.018553">
        <ele>704.08</ele>
        <time>2012-04-07T11:10:36Z</time>
      </trkpt>
      <trkpt lat="41.703646" lon="2.018545">
        <ele>704.03</ele>
        <time>2012-04-07T11:10:42Z</time>
      </trkpt>
      <trkpt lat="41.703745" lon="2.018534">
        <ele>703.01</ele>
        <time>2012-04-07T11:10:47Z</time>
      </trkpt>
      <trkpt lat="41.703857" lon="2.018499">
        <ele>701.01</ele>
        <time>2012-04-07T11:10:52Z</time>
      </trkpt>
      <trkpt lat="41.703949" lon="2.018441">
        <ele>700.06</ele>
        <time>2012-04-07T11:10:57Z</time>
      </trkpt>
      <trkpt lat="41.704030" lon="2.018355">
        <ele>696.06</ele>
        <time>2012-04-07T11:11:02Z</time>
      </trkpt>
      <trkpt lat="41.704078" lon="2.018220">
        <ele>695.03</ele>
        <time>2012-04-07T11:11:07Z</time>
      </trkpt>
      <trkpt lat="41.704111" lon="2.018076">
        <ele>695.01</ele>
        <time>2012-04-07T11:11:12Z</time>
      </trkpt>
      <trkpt lat="41.704115" lon="2.017934">
        <ele>694.06</ele>
        <time>2012-04-07T11:11:17Z</time>
      </trkpt>
      <trkpt lat="41.704092" lon="2.017778">
        <ele>694.05</ele>
        <time>2012-04-07T11:11:22Z</time>
      </trkpt>
      <trkpt lat="41.704095" lon="2.017613">
        <ele>697.07</ele>
        <time>2012-04-07T11:11:27Z</time>
      </trkpt>
      <trkpt lat="41.704155" lon="2.017495">
        <ele>695.01</ele>
        <time>2012-04-07T11:11:32Z</time>
      </trkpt>
      <trkpt lat="41.704263" lon="2.017432">
        <ele>694.07</ele>
        <time>2012-04-07T11:11:38Z</time>
      </trkpt>
      <trkpt lat="41.704312" lon="2.017295">
        <ele>693.01</ele>
        <time>2012-04-07T11:11:44Z</time>
      </trkpt>
      <trkpt lat="41.704292" lon="2.017146">
        <ele>692.02</ele>
        <time>2012-04-07T11:11:50Z</time>
      </trkpt>
      <trkpt lat="41.704249" lon="2.017023">
        <ele>691.02</ele>
        <time>2012-04-07T11:11:55Z</time>
      </trkpt>
      <trkpt lat="41.704198" lon="2.016905">
        <ele>691.10</ele>
        <time>2012-04-07T11:12:00Z</time>
      </trkpt>
      <trkpt lat="41.704165" lon="2.016778">
        <ele>691.05</ele>
        <time>2012-04-07T11:12:05Z</time>
      </trkpt>
      <trkpt lat="41.704162" lon="2.016640">
        <ele>692.07</ele>
        <time>2012-04-07T11:12:10Z</time>
      </trkpt>
      <trkpt lat="41.704175" lon="2.016498">
        <ele>688.01</ele>
        <time>2012-04-07T11:12:16Z</time>
      </trkpt>
      <trkpt lat="41.704158" lon="2.016353">
        <ele>690.05</ele>
        <time>2012-04-07T11:12:21Z</time>
      </trkpt>
      <trkpt lat="41.704196" lon="2.016214">
        <ele>693.08</ele>
        <time>2012-04-07T11:12:26Z</time>
      </trkpt>
      <trkpt lat="41.704268" lon="2.016111">
        <ele>692.05</ele>
        <time>2012-04-07T11:12:31Z</time>
      </trkpt>
      <trkpt lat="41.704325" lon="2.015998">
        <ele>692.01</ele>
        <time>2012-04-07T11:12:36Z</time>
      </trkpt>
      <trkpt lat="41.704410" lon="2.015910">
        <ele>692.01</ele>
        <time>2012-04-07T11:12:41Z</time>
      </trkpt>
      <trkpt lat="41.704510" lon="2.015855">
        <ele>691.02</ele>
        <time>2012-04-07T11:12:46Z</time>
      </trkpt>
      <trkpt lat="41.704625" lon="2.015897">
        <ele>692.10</ele>
        <time>2012-04-07T11:12:51Z</time>
      </trkpt>
      <trkpt lat="41.704721" lon="2.015944">
        <ele>694.02</ele>
        <time>2012-04-07T11:12:55Z</time>
      </trkpt>
      <trkpt lat="41.704811" lon="2.015997">
        <ele>692.02</ele>
        <time>2012-04-07T11:13:00Z</time>
      </trkpt>
      <trkpt lat="41.704902" lon="2.016069">
        <ele>691.06</ele>
        <time>2012-04-07T11:13:06Z</time>
      </trkpt>
      <trkpt lat="41.704983" lon="2.016175">
        <ele>689.06</ele>
        <time>2012-04-07T11:13:11Z</time>
      </trkpt>
      <trkpt lat="41.705059" lon="2.016288">
        <ele>690.07</ele>
        <time>2012-04-07T11:13:16Z</time>
      </trkpt>
      <trkpt lat="41.705128" lon="2.016392">
        <ele>689.03</ele>
        <time>2012-04-07T11:13:21Z</time>
      </trkpt>
      <trkpt lat="41.705204" lon="2.016501">
        <ele>689.08</ele>
        <time>2012-04-07T11:13:26Z</time>
      </trkpt>
      <trkpt lat="41.705282" lon="2.016618">
        <ele>690.05</ele>
        <time>2012-04-07T11:13:31Z</time>
      </trkpt>
      <trkpt lat="41.705366" lon="2.016718">
        <ele>690.01</ele>
        <time>2012-04-07T11:13:36Z</time>
      </trkpt>
      <trkpt lat="41.705464" lon="2.016781">
        <ele>687.02</ele>
        <time>2012-04-07T11:13:42Z</time>
      </trkpt>
      <trkpt lat="41.705571" lon="2.016750">
        <ele>687.10</ele>
        <time>2012-04-07T11:13:48Z</time>
      </trkpt>
      <trkpt lat="41.705673" lon="2.016686">
        <ele>686.02</ele>
        <time>2012-04-07T11:13:54Z</time>
      </trkpt>
      <trkpt lat="41.705764" lon="2.016618">
        <ele>686.09</ele>
        <time>2012-04-07T11:13:59Z</time>
      </trkpt>
      <trkpt lat="41.705854" lon="2.016533">
        <ele>685.03</ele>
        <time>2012-04-07T11:14:05Z</time>
      </trkpt>
      <trkpt lat="41.705945" lon="2.016446">
        <ele>684.07</ele>
        <time>2012-04-07T11:14:11Z</time>
      </trkpt>
      <trkpt lat="41.706023" lon="2.016362">
        <ele>685.01</ele>
        <time>2012-04-07T11:14:16Z</time>
      </trkpt>
      <trkpt lat="41.706100" lon="2.016252">
        <ele>684.03</ele>
        <time>2012-04-07T11:14:23Z</time>
      </trkpt>
      <trkpt lat="41.706178" lon="2.016154">
        <ele>683.05</ele>
        <time>2012-04-07T11:14:29Z</time>
      </trkpt>
      <trkpt lat="41.706258" lon="2.016045">
        <ele>683.07</ele>
        <time>2012-04-07T11:14:36Z</time>
      </trkpt>
      <trkpt lat="41.706343" lon="2.015960">
        <ele>681.01</ele>
        <time>2012-04-07T11:14:42Z</time>
      </trkpt>
      <trkpt lat="41.706424" lon="2.015868">
        <ele>680.02</ele>
        <time>2012-04-07T11:14:49Z</time>
      </trkpt>
      <trkpt lat="41.706528" lon="2.015826">
        <ele>681.01</ele>
        <time>2012-04-07T11:14:55Z</time>
      </trkpt>
      <trkpt lat="41.706647" lon="2.015814">
        <ele>680.06</ele>
        <time>2012-04-07T11:15:03Z</time>
      </trkpt>
      <trkpt lat="41.706747" lon="2.015808">
        <ele>681.08</ele>
        <time>2012-04-07T11:15:09Z</time>
      </trkpt>
      <trkpt lat="41.706845" lon="2.015786">
        <ele>679.03</ele>
        <time>2012-04-07T11:15:15Z</time>
      </trkpt>
      <trkpt lat="41.706947" lon="2.015744">
        <ele>678.07</ele>
        <time>2012-04-07T11:15:22Z</time>
      </trkpt>
      <trkpt lat="41.707051" lon="2.015718">
        <ele>678.10</ele>
        <time>2012-04-07T11:15:28Z</time>
      </trkpt>
      <trkpt lat="41.707158" lon="2.015693">
        <ele>677.03</ele>
        <time>2012-04-07T11:15:35Z</time>
      </trkpt>
      <trkpt lat="41.707267" lon="2.015700">
        <ele>674.06</ele>
        <time>2012-04-07T11:15:42Z</time>
      </trkpt>
      <trkpt lat="41.707371" lon="2.015694">
        <ele>676.08</ele>
        <time>2012-04-07T11:15:48Z</time>
      </trkpt>
      <trkpt lat="41.707480" lon="2.015700">
        <ele>675.01</ele>
        <time>2012-04-07T11:15:55Z</time>
      </trkpt>
      <trkpt lat="41.707583" lon="2.015696">
        <ele>676.01</ele>
        <time>2012-04-07T11:16:02Z</time>
      </trkpt>
      <trkpt lat="41.707689" lon="2.015730">
        <ele>674.07</ele>
        <time>2012-04-07T11:16:08Z</time>
      </trkpt>
      <trkpt lat="41.707795" lon="2.015777">
        <ele>671.03</ele>
        <time>2012-04-07T11:16:16Z</time>
      </trkpt>
      <trkpt lat="41.707908" lon="2.015788">
        <ele>670.03</ele>
        <time>2012-04-07T11:16:23Z</time>
      </trkpt>
      <trkpt lat="41.708009" lon="2.015778">
        <ele>669.10</ele>
        <time>2012-04-07T11:16:29Z</time>
      </trkpt>
      <trkpt lat="41.708119" lon="2.015777">
        <ele>669.07</ele>
        <time>2012-04-07T11:16:35Z</time>
      </trkpt>
      <trkpt lat="41.708236" lon="2.015795">
        <ele>669.05</ele>
        <time>2012-04-07T11:16:41Z</time>
      </trkpt>
      <trkpt lat="41.708342" lon="2.015814">
        <ele>665.03</ele>
        <time>2012-04-07T11:16:47Z</time>
      </trkpt>
      <trkpt lat="41.708453" lon="2.015791">
        <ele>663.08</ele>
        <time>2012-04-07T11:16:53Z</time>
      </trkpt>
      <trkpt lat="41.708543" lon="2.015693">
        <ele>662.05</ele>
        <time>2012-04-07T11:16:59Z</time>
      </trkpt>
      <trkpt lat="41.708581" lon="2.015569">
        <ele>652.01</ele>
        <time>2012-04-07T11:17:05Z</time>
      </trkpt>
      <trkpt lat="41.708580" lon="2.015434">
        <ele>650.01</ele>
        <time>2012-04-07T11:17:10Z</time>
      </trkpt>
      <trkpt lat="41.708574" lon="2.015351">
        <ele>653.02</ele>
        <time>2012-04-07T11:17:28Z</time>
      </trkpt>
      <trkpt lat="41.708577" lon="2.015345">
        <ele>651.03</ele>
        <time>2012-04-07T11:17:58Z</time>
      </trkpt>
      <trkpt lat="41.708575" lon="2.015335">
        <ele>659.09</ele>
        <time>2012-04-07T11:18:28Z</time>
      </trkpt>
      <trkpt lat="41.708518" lon="2.015222">
        <ele>655.10</ele>
        <time>2012-04-07T11:18:36Z</time>
      </trkpt>
      <trkpt lat="41.708459" lon="2.015114">
        <ele>653.03</ele>
        <time>2012-04-07T11:18:42Z</time>
      </trkpt>
      <trkpt lat="41.708389" lon="2.015002">
        <ele>653.09</ele>
        <time>2012-04-07T11:18:48Z</time>
      </trkpt>
      <trkpt lat="41.708308" lon="2.014896">
        <ele>653.07</ele>
        <time>2012-04-07T11:18:54Z</time>
      </trkpt>
      <trkpt lat="41.708220" lon="2.014802">
        <ele>652.03</ele>
        <time>2012-04-07T11:19:00Z</time>
      </trkpt>
      <trkpt lat="41.708153" lon="2.014700">
        <ele>651.05</ele>
        <time>2012-04-07T11:19:06Z</time>
      </trkpt>
      <trkpt lat="41.708134" lon="2.014549">
        <ele>650.01</ele>
        <time>2012-04-07T11:19:13Z</time>
      </trkpt>
      <trkpt lat="41.708152" lon="2.014418">
        <ele>648.02</ele>
        <time>2012-04-07T11:19:18Z</time>
      </trkpt>
      <trkpt lat="41.708145" lon="2.014284">
        <ele>646.08</ele>
        <time>2012-04-07T11:19:23Z</time>
      </trkpt>
      <trkpt lat="41.708124" lon="2.014131">
        <ele>646.07</ele>
        <time>2012-04-07T11:19:28Z</time>
      </trkpt>
      <trkpt lat="41.708110" lon="2.013980">
        <ele>646.06</ele>
        <time>2012-04-07T11:19:33Z</time>
      </trkpt>
      <trkpt lat="41.708084" lon="2.013835">
        <ele>648.02</ele>
        <time>2012-04-07T11:19:37Z</time>
      </trkpt>
      <trkpt lat="41.708011" lon="2.013721">
        <ele>649.01</ele>
        <time>2012-04-07T11:19:42Z</time>
      </trkpt>
      <trkpt lat="41.707924" lon="2.013650">
        <ele>648.03</ele>
        <time>2012-04-07T11:19:47Z</time>
      </trkpt>
      <trkpt lat="41.707851" lon="2.013559">
        <ele>649.08</ele>
        <time>2012-04-07T11:19:52Z</time>
      </trkpt>
      <trkpt lat="41.707818" lon="2.013423">
        <ele>650.01</ele>
        <time>2012-04-07T11:19:57Z</time>
      </trkpt>
      <trkpt lat="41.707828" lon="2.013282">
        <ele>652.06</ele>
        <time>2012-04-07T11:20:02Z</time>
      </trkpt>
      <trkpt lat="41.707886" lon="2.013146">
        <ele>649.01</ele>
        <time>2012-04-07T11:20:08Z</time>
      </trkpt>
      <trkpt lat="41.707937" lon="2.013016">
        <ele>642.02</ele>
        <time>2012-04-07T11:20:14Z</time>
      </trkpt>
      <trkpt lat="41.707940" lon="2.012875">
        <ele>641.08</ele>
        <time>2012-04-07T11:20:19Z</time>
      </trkpt>
      <trkpt lat="41.707919" lon="2.012735">
        <ele>641.09</ele>
        <time>2012-04-07T11:20:24Z</time>
      </trkpt>
      <trkpt lat="41.707888" lon="2.012592">
        <ele>641.10</ele>
        <time>2012-04-07T11:20:30Z</time>
      </trkpt>
      <trkpt lat="41.707856" lon="2.012456">
        <ele>640.05</ele>
        <time>2012-04-07T11:20:36Z</time>
      </trkpt>
      <trkpt lat="41.707828" lon="2.012321">
        <ele>640.07</ele>
        <time>2012-04-07T11:20:42Z</time>
      </trkpt>
      <trkpt lat="41.707810" lon="2.012185">
        <ele>642.06</ele>
        <time>2012-04-07T11:20:48Z</time>
      </trkpt>
      <trkpt lat="41.707796" lon="2.012047">
        <ele>641.02</ele>
        <time>2012-04-07T11:20:54Z</time>
      </trkpt>
      <trkpt lat="41.707773" lon="2.011912">
        <ele>641.09</ele>
        <time>2012-04-07T11:21:00Z</time>
      </trkpt>
      <trkpt lat="41.707789" lon="2.011763">
        <ele>641.03</ele>
        <time>2012-04-07T11:21:07Z</time>
      </trkpt>
      <trkpt lat="41.707838" lon="2.011637">
        <ele>641.01</ele>
        <time>2012-04-07T11:21:14Z</time>
      </trkpt>
      <trkpt lat="41.707887" lon="2.011513">
        <ele>640.02</ele>
        <time>2012-04-07T11:21:21Z</time>
      </trkpt>
      <trkpt lat="41.707929" lon="2.011383">
        <ele>639.08</ele>
        <time>2012-04-07T11:21:28Z</time>
      </trkpt>
      <trkpt lat="41.707964" lon="2.011257">
        <ele>638.07</ele>
        <time>2012-04-07T11:21:35Z</time>
      </trkpt>
      <trkpt lat="41.707999" lon="2.011115">
        <ele>635.02</ele>
        <time>2012-04-07T11:21:43Z</time>
      </trkpt>
      <trkpt lat="41.708004" lon="2.010979">
        <ele>635.08</ele>
        <time>2012-04-07T11:21:50Z</time>
      </trkpt>
      <trkpt lat="41.707987" lon="2.010841">
        <ele>635.09</ele>
        <time>2012-04-07T11:21:57Z</time>
      </trkpt>
      <trkpt lat="41.707954" lon="2.010715">
        <ele>634.07</ele>
        <time>2012-04-07T11:22:03Z</time>
      </trkpt>
      <trkpt lat="41.707923" lon="2.010568">
        <ele>632.09</ele>
        <time>2012-04-07T11:22:09Z</time>
      </trkpt>
      <trkpt lat="41.707887" lon="2.010422">
        <ele>635.09</ele>
        <time>2012-04-07T11:22:15Z</time>
      </trkpt>
      <trkpt lat="41.707834" lon="2.010286">
        <ele>629.07</ele>
        <time>2012-04-07T11:22:22Z</time>
      </trkpt>
      <trkpt lat="41.707765" lon="2.010178">
        <ele>628.01</ele>
        <time>2012-04-07T11:22:28Z</time>
      </trkpt>
      <trkpt lat="41.707695" lon="2.010063">
        <ele>626.01</ele>
        <time>2012-04-07T11:22:34Z</time>
      </trkpt>
      <trkpt lat="41.707644" lon="2.009942">
        <ele>626.01</ele>
        <time>2012-04-07T11:22:39Z</time>
      </trkpt>
      <trkpt lat="41.707631" lon="2.009798">
        <ele>626.07</ele>
        <time>2012-04-07T11:22:44Z</time>
      </trkpt>
      <trkpt lat="41.707707" lon="2.009677">
        <ele>626.08</ele>
        <time>2012-04-07T11:22:49Z</time>
      </trkpt>
      <trkpt lat="41.707815" lon="2.009610">
        <ele>628.05</ele>
        <time>2012-04-07T11:22:53Z</time>
      </trkpt>
      <trkpt lat="41.707911" lon="2.009565">
        <ele>627.10</ele>
        <time>2012-04-07T11:22:56Z</time>
      </trkpt>
      <trkpt lat="41.708030" lon="2.009505">
        <ele>629.08</ele>
        <time>2012-04-07T11:23:01Z</time>
      </trkpt>
      <trkpt lat="41.708132" lon="2.009462">
        <ele>628.08</ele>
        <time>2012-04-07T11:23:06Z</time>
      </trkpt>
      <trkpt lat="41.708237" lon="2.009413">
        <ele>627.09</ele>
        <time>2012-04-07T11:23:12Z</time>
      </trkpt>
      <trkpt lat="41.708324" lon="2.009341">
        <ele>627.03</ele>
        <time>2012-04-07T11:23:17Z</time>
      </trkpt>
      <trkpt lat="41.708391" lon="2.009241">
        <ele>623.01</ele>
        <time>2012-04-07T11:23:23Z</time>
      </trkpt>
      <trkpt lat="41.708452" lon="2.009113">
        <ele>624.02</ele>
        <time>2012-04-07T11:23:29Z</time>
      </trkpt>
      <trkpt lat="41.708538" lon="2.009014">
        <ele>624.04</ele>
        <time>2012-04-07T11:23:37Z</time>
      </trkpt>
      <trkpt lat="41.708632" lon="2.008943">
        <ele>622.08</ele>
        <time>2012-04-07T11:23:46Z</time>
      </trkpt>
      <trkpt lat="41.708731" lon="2.008863">
        <ele>617.05</ele>
        <time>2012-04-07T11:23:53Z</time>
      </trkpt>
      <trkpt lat="41.708808" lon="2.008771">
        <ele>619.10</ele>
        <time>2012-04-07T11:24:00Z</time>
      </trkpt>
      <trkpt lat="41.708868" lon="2.008661">
        <ele>615.04</ele>
        <time>2012-04-07T11:24:08Z</time>
      </trkpt>
      <trkpt lat="41.708875" lon="2.008523">
        <ele>612.09</ele>
        <time>2012-04-07T11:24:17Z</time>
      </trkpt>
      <trkpt lat="41.708849" lon="2.008389">
        <ele>610.01</ele>
        <time>2012-04-07T11:24:25Z</time>
      </trkpt>
      <trkpt lat="41.708833" lon="2.008255">
        <ele>610.05</ele>
        <time>2012-04-07T11:24:31Z</time>
      </trkpt>
      <trkpt lat="41.708819" lon="2.008100">
        <ele>610.07</ele>
        <time>2012-04-07T11:24:38Z</time>
      </trkpt>
      <trkpt lat="41.708810" lon="2.007957">
        <ele>609.01</ele>
        <time>2012-04-07T11:24:45Z</time>
      </trkpt>
      <trkpt lat="41.708804" lon="2.007804">
        <ele>611.01</ele>
        <time>2012-04-07T11:24:52Z</time>
      </trkpt>
      <trkpt lat="41.708796" lon="2.007669">
        <ele>611.08</ele>
        <time>2012-04-07T11:24:58Z</time>
      </trkpt>
      <trkpt lat="41.708798" lon="2.007524">
        <ele>611.06</ele>
        <time>2012-04-07T11:25:04Z</time>
      </trkpt>
      <trkpt lat="41.708852" lon="2.007400">
        <ele>611.04</ele>
        <time>2012-04-07T11:25:10Z</time>
      </trkpt>
      <trkpt lat="41.708922" lon="2.007276">
        <ele>609.08</ele>
        <time>2012-04-07T11:25:17Z</time>
      </trkpt>
      <trkpt lat="41.708977" lon="2.007158">
        <ele>609.09</ele>
        <time>2012-04-07T11:25:23Z</time>
      </trkpt>
      <trkpt lat="41.709027" lon="2.007028">
        <ele>609.05</ele>
        <time>2012-04-07T11:25:29Z</time>
      </trkpt>
      <trkpt lat="41.709089" lon="2.006915">
        <ele>608.06</ele>
        <time>2012-04-07T11:25:34Z</time>
      </trkpt>
      <trkpt lat="41.709187" lon="2.006833">
        <ele>608.03</ele>
        <time>2012-04-07T11:25:39Z</time>
      </trkpt>
      <trkpt lat="41.709298" lon="2.006832">
        <ele>606.04</ele>
        <time>2012-04-07T11:25:45Z</time>
      </trkpt>
      <trkpt lat="41.709410" lon="2.006863">
        <ele>606.01</ele>
        <time>2012-04-07T11:25:51Z</time>
      </trkpt>
      <trkpt lat="41.709495" lon="2.006783">
        <ele>605.01</ele>
        <time>2012-04-07T11:25:57Z</time>
      </trkpt>
      <trkpt lat="41.709496" lon="2.006650">
        <ele>601.04</ele>
        <time>2012-04-07T11:26:02Z</time>
      </trkpt>
      <trkpt lat="41.709467" lon="2.006523">
        <ele>596.02</ele>
        <time>2012-04-07T11:26:08Z</time>
      </trkpt>
      <trkpt lat="41.709434" lon="2.006379">
        <ele>597.03</ele>
        <time>2012-04-07T11:26:14Z</time>
      </trkpt>
      <trkpt lat="41.709411" lon="2.006243">
        <ele>598.07</ele>
        <time>2012-04-07T11:26:19Z</time>
      </trkpt>
      <trkpt lat="41.709426" lon="2.006106">
        <ele>598.06</ele>
        <time>2012-04-07T11:26:25Z</time>
      </trkpt>
      <trkpt lat="41.709448" lon="2.005973">
        <ele>598.02</ele>
        <time>2012-04-07T11:26:30Z</time>
      </trkpt>
      <trkpt lat="41.709475" lon="2.005843">
        <ele>601.06</ele>
        <time>2012-04-07T11:26:35Z</time>
      </trkpt>
      <trkpt lat="41.709542" lon="2.005734">
        <ele>598.04</ele>
        <time>2012-04-07T11:26:40Z</time>
      </trkpt>
      <trkpt lat="41.709650" lon="2.005677">
        <ele>596.03</ele>
        <time>2012-04-07T11:26:46Z</time>
      </trkpt>
      <trkpt lat="41.709752" lon="2.005690">
        <ele>592.01</ele>
        <time>2012-04-07T11:26:52Z</time>
      </trkpt>
      <trkpt lat="41.709863" lon="2.005661">
        <ele>589.02</ele>
        <time>2012-04-07T11:26:58Z</time>
      </trkpt>
      <trkpt lat="41.709905" lon="2.005535">
        <ele>585.02</ele>
        <time>2012-04-07T11:27:03Z</time>
      </trkpt>
      <trkpt lat="41.709899" lon="2.005389">
        <ele>583.10</ele>
        <time>2012-04-07T11:27:13Z</time>
      </trkpt>
      <trkpt lat="41.709901" lon="2.005284">
        <ele>593.04</ele>
        <time>2012-04-07T11:27:26Z</time>
      </trkpt>
      <trkpt lat="41.709912" lon="2.005272">
        <ele>591.07</ele>
        <time>2012-04-07T11:27:56Z</time>
      </trkpt>
      <trkpt lat="41.710004" lon="2.005219">
        <ele>589.05</ele>
        <time>2012-04-07T11:28:02Z</time>
      </trkpt>
      <trkpt lat="41.710082" lon="2.005114">
        <ele>587.04</ele>
        <time>2012-04-07T11:28:06Z</time>
      </trkpt>
      <trkpt lat="41.710099" lon="2.004982">
        <ele>583.10</ele>
        <time>2012-04-07T11:28:09Z</time>
      </trkpt>
      <trkpt lat="41.710064" lon="2.004841">
        <ele>585.02</ele>
        <time>2012-04-07T11:28:12Z</time>
      </trkpt>
      <trkpt lat="41.709938" lon="2.004800">
        <ele>585.09</ele>
        <time>2012-04-07T11:28:15Z</time>
      </trkpt>
      <trkpt lat="41.709814" lon="2.004769">
        <ele>586.01</ele>
        <time>2012-04-07T11:28:17Z</time>
      </trkpt>
      <trkpt lat="41.709691" lon="2.004739">
        <ele>586.02</ele>
        <time>2012-04-07T11:28:19Z</time>
      </trkpt>
      <trkpt lat="41.709570" lon="2.004706">
        <ele>588.07</ele>
        <time>2012-04-07T11:28:21Z</time>
      </trkpt>
      <trkpt lat="41.709473" lon="2.004635">
        <ele>587.09</ele>
        <time>2012-04-07T11:28:23Z</time>
      </trkpt>
      <trkpt lat="41.709366" lon="2.004530">
        <ele>591.09</ele>
        <time>2012-04-07T11:28:25Z</time>
      </trkpt>
      <trkpt lat="41.709246" lon="2.004424">
        <ele>590.04</ele>
        <time>2012-04-07T11:28:27Z</time>
      </trkpt>
      <trkpt lat="41.709113" lon="2.004328">
        <ele>590.04</ele>
        <time>2012-04-07T11:28:29Z</time>
      </trkpt>
      <trkpt lat="41.708976" lon="2.004247">
        <ele>592.04</ele>
        <time>2012-04-07T11:28:31Z</time>
      </trkpt>
      <trkpt lat="41.708835" lon="2.004183">
        <ele>592.03</ele>
        <time>2012-04-07T11:28:33Z</time>
      </trkpt>
      <trkpt lat="41.708707" lon="2.004125">
        <ele>592.07</ele>
        <time>2012-04-07T11:28:35Z</time>
      </trkpt>
      <trkpt lat="41.708616" lon="2.004009">
        <ele>592.02</ele>
        <time>2012-04-07T11:28:37Z</time>
      </trkpt>
      <trkpt lat="41.708537" lon="2.003906">
        <ele>591.01</ele>
        <time>2012-04-07T11:28:39Z</time>
      </trkpt>
      <trkpt lat="41.708436" lon="2.003809">
        <ele>591.02</ele>
        <time>2012-04-07T11:28:41Z</time>
      </trkpt>
      <trkpt lat="41.708315" lon="2.003762">
        <ele>591.00</ele>
        <time>2012-04-07T11:28:43Z</time>
      </trkpt>
      <trkpt lat="41.708185" lon="2.003769">
        <ele>594.06</ele>
        <time>2012-04-07T11:28:45Z</time>
      </trkpt>
      <trkpt lat="41.708051" lon="2.003779">
        <ele>593.05</ele>
        <time>2012-04-07T11:28:47Z</time>
      </trkpt>
      <trkpt lat="41.707903" lon="2.003790">
        <ele>596.06</ele>
        <time>2012-04-07T11:28:49Z</time>
      </trkpt>
      <trkpt lat="41.707760" lon="2.003805">
        <ele>597.07</ele>
        <time>2012-04-07T11:28:51Z</time>
      </trkpt>
      <trkpt lat="41.707645" lon="2.003827">
        <ele>595.05</ele>
        <time>2012-04-07T11:28:53Z</time>
      </trkpt>
      <trkpt lat="41.707521" lon="2.003838">
        <ele>597.05</ele>
        <time>2012-04-07T11:28:55Z</time>
      </trkpt>
      <trkpt lat="41.707381" lon="2.003841">
        <ele>600.05</ele>
        <time>2012-04-07T11:28:57Z</time>
      </trkpt>
      <trkpt lat="41.707244" lon="2.003841">
        <ele>605.03</ele>
        <time>2012-04-07T11:28:59Z</time>
      </trkpt>
      <trkpt lat="41.707133" lon="2.003804">
        <ele>606.01</ele>
        <time>2012-04-07T11:29:01Z</time>
      </trkpt>
      <trkpt lat="41.707024" lon="2.003745">
        <ele>606.00</ele>
        <time>2012-04-07T11:29:03Z</time>
      </trkpt>
      <trkpt lat="41.706885" lon="2.003681">
        <ele>608.02</ele>
        <time>2012-04-07T11:29:05Z</time>
      </trkpt>
      <trkpt lat="41.706749" lon="2.003671">
        <ele>609.01</ele>
        <time>2012-04-07T11:29:07Z</time>
      </trkpt>
      <trkpt lat="41.706607" lon="2.003708">
        <ele>611.05</ele>
        <time>2012-04-07T11:29:09Z</time>
      </trkpt>
      <trkpt lat="41.706434" lon="2.003759">
        <ele>615.03</ele>
        <time>2012-04-07T11:29:11Z</time>
      </trkpt>
      <trkpt lat="41.706260" lon="2.003810">
        <ele>616.08</ele>
        <time>2012-04-07T11:29:13Z</time>
      </trkpt>
      <trkpt lat="41.706098" lon="2.003844">
        <ele>617.09</ele>
        <time>2012-04-07T11:29:15Z</time>
      </trkpt>
      <trkpt lat="41.705952" lon="2.003853">
        <ele>616.10</ele>
        <time>2012-04-07T11:29:17Z</time>
      </trkpt>
      <trkpt lat="41.705824" lon="2.003837">
        <ele>618.04</ele>
        <time>2012-04-07T11:29:19Z</time>
      </trkpt>
      <trkpt lat="41.705723" lon="2.003780">
        <ele>620.04</ele>
        <time>2012-04-07T11:29:21Z</time>
      </trkpt>
      <trkpt lat="41.705652" lon="2.003672">
        <ele>624.01</ele>
        <time>2012-04-07T11:29:23Z</time>
      </trkpt>
      <trkpt lat="41.705608" lon="2.003526">
        <ele>622.02</ele>
        <time>2012-04-07T11:29:25Z</time>
      </trkpt>
      <trkpt lat="41.705555" lon="2.003379">
        <ele>623.05</ele>
        <time>2012-04-07T11:29:27Z</time>
      </trkpt>
      <trkpt lat="41.705495" lon="2.003259">
        <ele>623.10</ele>
        <time>2012-04-07T11:29:29Z</time>
      </trkpt>
      <trkpt lat="41.705364" lon="2.003196">
        <ele>618.04</ele>
        <time>2012-04-07T11:29:32Z</time>
      </trkpt>
      <trkpt lat="41.705271" lon="2.003245">
        <ele>618.07</ele>
        <time>2012-04-07T11:29:34Z</time>
      </trkpt>
      <trkpt lat="41.705170" lon="2.003294">
        <ele>619.07</ele>
        <time>2012-04-07T11:29:36Z</time>
      </trkpt>
      <trkpt lat="41.705068" lon="2.003297">
        <ele>620.07</ele>
        <time>2012-04-07T11:29:38Z</time>
      </trkpt>
      <trkpt lat="41.704929" lon="2.003279">
        <ele>624.03</ele>
        <time>2012-04-07T11:29:41Z</time>
      </trkpt>
      <trkpt lat="41.704832" lon="2.003241">
        <ele>627.03</ele>
        <time>2012-04-07T11:29:43Z</time>
      </trkpt>
      <trkpt lat="41.704741" lon="2.003179">
        <ele>631.04</ele>
        <time>2012-04-07T11:29:45Z</time>
      </trkpt>
      <trkpt lat="41.704638" lon="2.003124">
        <ele>631.01</ele>
        <time>2012-04-07T11:29:47Z</time>
      </trkpt>
      <trkpt lat="41.704510" lon="2.003154">
        <ele>630.01</ele>
        <time>2012-04-07T11:29:49Z</time>
      </trkpt>
      <trkpt lat="41.704390" lon="2.003263">
        <ele>632.06</ele>
        <time>2012-04-07T11:29:51Z</time>
      </trkpt>
      <trkpt lat="41.704276" lon="2.003379">
        <ele>637.03</ele>
        <time>2012-04-07T11:29:53Z</time>
      </trkpt>
      <trkpt lat="41.704172" lon="2.003391">
        <ele>638.07</ele>
        <time>2012-04-07T11:29:55Z</time>
      </trkpt>
      <trkpt lat="41.704057" lon="2.003399">
        <ele>639.04</ele>
        <time>2012-04-07T11:29:57Z</time>
      </trkpt>
      <trkpt lat="41.703950" lon="2.003395">
        <ele>642.06</ele>
        <time>2012-04-07T11:29:59Z</time>
      </trkpt>
      <trkpt lat="41.703819" lon="2.003346">
        <ele>646.08</ele>
        <time>2012-04-07T11:30:02Z</time>
      </trkpt>
      <trkpt lat="41.703756" lon="2.003238">
        <ele>647.01</ele>
        <time>2012-04-07T11:30:04Z</time>
      </trkpt>
      <trkpt lat="41.703707" lon="2.003119">
        <ele>648.10</ele>
        <time>2012-04-07T11:30:06Z</time>
      </trkpt>
      <trkpt lat="41.703619" lon="2.003007">
        <ele>646.01</ele>
        <time>2012-04-07T11:30:09Z</time>
      </trkpt>
      <trkpt lat="41.703518" lon="2.003029">
        <ele>645.01</ele>
        <time>2012-04-07T11:30:11Z</time>
      </trkpt>
      <trkpt lat="41.703417" lon="2.003098">
        <ele>645.01</ele>
        <time>2012-04-07T11:30:13Z</time>
      </trkpt>
      <trkpt lat="41.703347" lon="2.003198">
        <ele>643.03</ele>
        <time>2012-04-07T11:30:15Z</time>
      </trkpt>
      <trkpt lat="41.703236" lon="2.003307">
        <ele>643.01</ele>
        <time>2012-04-07T11:30:18Z</time>
      </trkpt>
      <trkpt lat="41.703129" lon="2.003272">
        <ele>644.07</ele>
        <time>2012-04-07T11:30:21Z</time>
      </trkpt>
      <trkpt lat="41.703069" lon="2.003156">
        <ele>648.08</ele>
        <time>2012-04-07T11:30:23Z</time>
      </trkpt>
      <trkpt lat="41.702987" lon="2.002996">
        <ele>647.07</ele>
        <time>2012-04-07T11:30:25Z</time>
      </trkpt>
      <trkpt lat="41.702869" lon="2.002868">
        <ele>647.06</ele>
        <time>2012-04-07T11:30:27Z</time>
      </trkpt>
      <trkpt lat="41.702750" lon="2.002765">
        <ele>649.07</ele>
        <time>2012-04-07T11:30:29Z</time>
      </trkpt>
      <trkpt lat="41.702648" lon="2.002705">
        <ele>650.05</ele>
        <time>2012-04-07T11:30:31Z</time>
      </trkpt>
      <trkpt lat="41.702528" lon="2.002700">
        <ele>655.04</ele>
        <time>2012-04-07T11:30:33Z</time>
      </trkpt>
      <trkpt lat="41.702410" lon="2.002726">
        <ele>657.01</ele>
        <time>2012-04-07T11:30:35Z</time>
      </trkpt>
      <trkpt lat="41.702294" lon="2.002749">
        <ele>660.02</ele>
        <time>2012-04-07T11:30:37Z</time>
      </trkpt>
      <trkpt lat="41.702152" lon="2.002778">
        <ele>663.06</ele>
        <time>2012-04-07T11:30:39Z</time>
      </trkpt>
      <trkpt lat="41.702021" lon="2.002881">
        <ele>664.09</ele>
        <time>2012-04-07T11:30:42Z</time>
      </trkpt>
      <trkpt lat="41.701923" lon="2.003006">
        <ele>666.10</ele>
        <time>2012-04-07T11:30:45Z</time>
      </trkpt>
      <trkpt lat="41.701816" lon="2.002986">
        <ele>666.05</ele>
        <time>2012-04-07T11:30:48Z</time>
      </trkpt>
      <trkpt lat="41.701736" lon="2.002893">
        <ele>669.03</ele>
        <time>2012-04-07T11:30:50Z</time>
      </trkpt>
      <trkpt lat="41.701641" lon="2.002783">
        <ele>671.06</ele>
        <time>2012-04-07T11:30:52Z</time>
      </trkpt>
      <trkpt lat="41.701524" lon="2.002690">
        <ele>674.02</ele>
        <time>2012-04-07T11:30:54Z</time>
      </trkpt>
      <trkpt lat="41.701391" lon="2.002647">
        <ele>674.02</ele>
        <time>2012-04-07T11:30:56Z</time>
      </trkpt>
      <trkpt lat="41.701257" lon="2.002650">
        <ele>673.08</ele>
        <time>2012-04-07T11:30:58Z</time>
      </trkpt>
      <trkpt lat="41.701130" lon="2.002730">
        <ele>676.01</ele>
        <time>2012-04-07T11:31:00Z</time>
      </trkpt>
      <trkpt lat="41.701014" lon="2.002821">
        <ele>680.01</ele>
        <time>2012-04-07T11:31:02Z</time>
      </trkpt>
      <trkpt lat="41.700896" lon="2.002917">
        <ele>680.06</ele>
        <time>2012-04-07T11:31:04Z</time>
      </trkpt>
      <trkpt lat="41.700789" lon="2.003009">
        <ele>680.03</ele>
        <time>2012-04-07T11:31:06Z</time>
      </trkpt>
      <trkpt lat="41.700705" lon="2.003089">
        <ele>680.04</ele>
        <time>2012-04-07T11:31:08Z</time>
      </trkpt>
      <trkpt lat="41.700625" lon="2.003001">
        <ele>686.07</ele>
        <time>2012-04-07T11:31:14Z</time>
      </trkpt>
      <trkpt lat="41.700636" lon="2.002900">
        <ele>682.04</ele>
        <time>2012-04-07T11:31:41Z</time>
      </trkpt>
      <trkpt lat="41.700603" lon="2.002804">
        <ele>672.08</ele>
        <time>2012-04-07T11:31:51Z</time>
      </trkpt>
      <trkpt lat="41.700513" lon="2.002735">
        <ele>674.10</ele>
        <time>2012-04-07T11:31:56Z</time>
      </trkpt>
      <trkpt lat="41.700402" lon="2.002701">
        <ele>672.03</ele>
        <time>2012-04-07T11:32:01Z</time>
      </trkpt>
      <trkpt lat="41.700302" lon="2.002615">
        <ele>673.04</ele>
        <time>2012-04-07T11:32:06Z</time>
      </trkpt>
      <trkpt lat="41.700220" lon="2.002520">
        <ele>669.01</ele>
        <time>2012-04-07T11:32:11Z</time>
      </trkpt>
      <trkpt lat="41.700135" lon="2.002420">
        <ele>672.02</ele>
        <time>2012-04-07T11:32:16Z</time>
      </trkpt>
      <trkpt lat="41.700052" lon="2.002324">
        <ele>675.01</ele>
        <time>2012-04-07T11:32:21Z</time>
      </trkpt>
      <trkpt lat="41.699973" lon="2.002220">
        <ele>672.06</ele>
        <time>2012-04-07T11:32:25Z</time>
      </trkpt>
      <trkpt lat="41.699889" lon="2.002096">
        <ele>673.10</ele>
        <time>2012-04-07T11:32:29Z</time>
      </trkpt>
      <trkpt lat="41.699828" lon="2.001989">
        <ele>672.09</ele>
        <time>2012-04-07T11:32:32Z</time>
      </trkpt>
      <trkpt lat="41.699727" lon="2.001887">
        <ele>671.05</ele>
        <time>2012-04-07T11:32:36Z</time>
      </trkpt>
      <trkpt lat="41.699619" lon="2.001887">
        <ele>673.10</ele>
        <time>2012-04-07T11:32:39Z</time>
      </trkpt>
      <trkpt lat="41.699525" lon="2.001948">
        <ele>674.03</ele>
        <time>2012-04-07T11:32:42Z</time>
      </trkpt>
      <trkpt lat="41.699440" lon="2.002049">
        <ele>670.08</ele>
        <time>2012-04-07T11:32:45Z</time>
      </trkpt>
      <trkpt lat="41.699334" lon="2.002143">
        <ele>671.02</ele>
        <time>2012-04-07T11:32:48Z</time>
      </trkpt>
      <trkpt lat="41.699213" lon="2.002164">
        <ele>674.01</ele>
        <time>2012-04-07T11:32:51Z</time>
      </trkpt>
      <trkpt lat="41.699095" lon="2.002129">
        <ele>673.01</ele>
        <time>2012-04-07T11:32:55Z</time>
      </trkpt>
      <trkpt lat="41.698994" lon="2.002086">
        <ele>676.08</ele>
        <time>2012-04-07T11:32:59Z</time>
      </trkpt>
      <trkpt lat="41.698892" lon="2.002041">
        <ele>676.04</ele>
        <time>2012-04-07T11:33:03Z</time>
      </trkpt>
      <trkpt lat="41.698794" lon="2.002003">
        <ele>675.05</ele>
        <time>2012-04-07T11:33:07Z</time>
      </trkpt>
      <trkpt lat="41.698700" lon="2.001946">
        <ele>673.02</ele>
        <time>2012-04-07T11:33:11Z</time>
      </trkpt>
      <trkpt lat="41.698621" lon="2.001851">
        <ele>672.03</ele>
        <time>2012-04-07T11:33:16Z</time>
      </trkpt>
      <trkpt lat="41.698526" lon="2.001760">
        <ele>670.04</ele>
        <time>2012-04-07T11:33:23Z</time>
      </trkpt>
      <trkpt lat="41.698427" lon="2.001750">
        <ele>667.08</ele>
        <time>2012-04-07T11:33:29Z</time>
      </trkpt>
      <trkpt lat="41.698326" lon="2.001807">
        <ele>666.08</ele>
        <time>2012-04-07T11:33:35Z</time>
      </trkpt>
      <trkpt lat="41.698225" lon="2.001878">
        <ele>669.09</ele>
        <time>2012-04-07T11:33:41Z</time>
      </trkpt>
      <trkpt lat="41.698125" lon="2.001904">
        <ele>669.01</ele>
        <time>2012-04-07T11:33:46Z</time>
      </trkpt>
      <trkpt lat="41.698023" lon="2.001856">
        <ele>669.02</ele>
        <time>2012-04-07T11:33:52Z</time>
      </trkpt>
      <trkpt lat="41.697945" lon="2.001743">
        <ele>671.08</ele>
        <time>2012-04-07T11:33:58Z</time>
      </trkpt>
      <trkpt lat="41.697890" lon="2.001620">
        <ele>671.07</ele>
        <time>2012-04-07T11:34:04Z</time>
      </trkpt>
      <trkpt lat="41.697813" lon="2.001508">
        <ele>668.10</ele>
        <time>2012-04-07T11:34:11Z</time>
      </trkpt>
      <trkpt lat="41.697738" lon="2.001419">
        <ele>666.10</ele>
        <time>2012-04-07T11:34:16Z</time>
      </trkpt>
      <trkpt lat="41.697648" lon="2.001332">
        <ele>663.04</ele>
        <time>2012-04-07T11:34:21Z</time>
      </trkpt>
      <trkpt lat="41.697550" lon="2.001269">
        <ele>662.03</ele>
        <time>2012-04-07T11:34:25Z</time>
      </trkpt>
      <trkpt lat="41.697430" lon="2.001252">
        <ele>657.08</ele>
        <time>2012-04-07T11:34:30Z</time>
      </trkpt>
      <trkpt lat="41.697354" lon="2.001363">
        <ele>655.07</ele>
        <time>2012-04-07T11:34:33Z</time>
      </trkpt>
      <trkpt lat="41.697292" lon="2.001475">
        <ele>653.02</ele>
        <time>2012-04-07T11:34:35Z</time>
      </trkpt>
      <trkpt lat="41.697204" lon="2.001577">
        <ele>653.01</ele>
        <time>2012-04-07T11:34:37Z</time>
      </trkpt>
      <trkpt lat="41.697100" lon="2.001652">
        <ele>655.02</ele>
        <time>2012-04-07T11:34:39Z</time>
      </trkpt>
      <trkpt lat="41.697000" lon="2.001728">
        <ele>654.08</ele>
        <time>2012-04-07T11:34:41Z</time>
      </trkpt>
      <trkpt lat="41.696899" lon="2.001815">
        <ele>653.07</ele>
        <time>2012-04-07T11:34:43Z</time>
      </trkpt>
      <trkpt lat="41.696776" lon="2.001855">
        <ele>654.05</ele>
        <time>2012-04-07T11:34:45Z</time>
      </trkpt>
      <trkpt lat="41.696639" lon="2.001884">
        <ele>657.07</ele>
        <time>2012-04-07T11:34:47Z</time>
      </trkpt>
      <trkpt lat="41.696552" lon="2.001950">
        <ele>657.05</ele>
        <time>2012-04-07T11:34:49Z</time>
      </trkpt>
      <trkpt lat="41.696483" lon="2.002072">
        <ele>658.04</ele>
        <time>2012-04-07T11:34:51Z</time>
      </trkpt>
      <trkpt lat="41.696437" lon="2.002195">
        <ele>665.05</ele>
        <time>2012-04-07T11:34:53Z</time>
      </trkpt>
      <trkpt lat="41.696365" lon="2.002314">
        <ele>669.04</ele>
        <time>2012-04-07T11:34:55Z</time>
      </trkpt>
      <trkpt lat="41.696273" lon="2.002418">
        <ele>675.01</ele>
        <time>2012-04-07T11:34:57Z</time>
      </trkpt>
      <trkpt lat="41.696183" lon="2.002548">
        <ele>679.01</ele>
        <time>2012-04-07T11:35:00Z</time>
      </trkpt>
      <trkpt lat="41.696153" lon="2.002685">
        <ele>683.01</ele>
        <time>2012-04-07T11:35:03Z</time>
      </trkpt>
      <trkpt lat="41.696140" lon="2.002825">
        <ele>685.03</ele>
        <time>2012-04-07T11:35:07Z</time>
      </trkpt>
      <trkpt lat="41.696126" lon="2.002936">
        <ele>679.02</ele>
        <time>2012-04-07T11:35:17Z</time>
      </trkpt>
      <trkpt lat="41.696094" lon="2.003088">
        <ele>675.05</ele>
        <time>2012-04-07T11:35:26Z</time>
      </trkpt>
      <trkpt lat="41.696004" lon="2.003155">
        <ele>674.04</ele>
        <time>2012-04-07T11:35:32Z</time>
      </trkpt>
      <trkpt lat="41.695898" lon="2.003163">
        <ele>678.03</ele>
        <time>2012-04-07T11:35:36Z</time>
      </trkpt>
      <trkpt lat="41.695797" lon="2.003175">
        <ele>676.05</ele>
        <time>2012-04-07T11:35:39Z</time>
      </trkpt>
      <trkpt lat="41.695681" lon="2.003239">
        <ele>671.04</ele>
        <time>2012-04-07T11:35:44Z</time>
      </trkpt>
      <trkpt lat="41.695590" lon="2.003327">
        <ele>666.05</ele>
        <time>2012-04-07T11:35:49Z</time>
      </trkpt>
      <trkpt lat="41.695489" lon="2.003370">
        <ele>662.02</ele>
        <time>2012-04-07T11:35:54Z</time>
      </trkpt>
      <trkpt lat="41.695385" lon="2.003333">
        <ele>666.01</ele>
        <time>2012-04-07T11:35:58Z</time>
      </trkpt>
      <trkpt lat="41.695266" lon="2.003294">
        <ele>667.01</ele>
        <time>2012-04-07T11:36:03Z</time>
      </trkpt>
      <trkpt lat="41.695156" lon="2.003313">
        <ele>670.05</ele>
        <time>2012-04-07T11:36:07Z</time>
      </trkpt>
      <trkpt lat="41.695042" lon="2.003360">
        <ele>669.03</ele>
        <time>2012-04-07T11:36:11Z</time>
      </trkpt>
      <trkpt lat="41.694938" lon="2.003404">
        <ele>671.08</ele>
        <time>2012-04-07T11:36:14Z</time>
      </trkpt>
      <trkpt lat="41.694801" lon="2.003450">
        <ele>674.06</ele>
        <time>2012-04-07T11:36:17Z</time>
      </trkpt>
      <trkpt lat="41.694696" lon="2.003476">
        <ele>672.02</ele>
        <time>2012-04-07T11:36:21Z</time>
      </trkpt>
      <trkpt lat="41.694635" lon="2.003361">
        <ele>674.06</ele>
        <time>2012-04-07T11:36:26Z</time>
      </trkpt>
      <trkpt lat="41.694708" lon="2.003240">
        <ele>673.08</ele>
        <time>2012-04-07T11:36:32Z</time>
      </trkpt>
      <trkpt lat="41.694787" lon="2.003149">
        <ele>673.01</ele>
        <time>2012-04-07T11:36:37Z</time>
      </trkpt>
      <trkpt lat="41.694872" lon="2.003051">
        <ele>673.09</ele>
        <time>2012-04-07T11:36:42Z</time>
      </trkpt>
      <trkpt lat="41.694951" lon="2.002964">
        <ele>672.01</ele>
        <time>2012-04-07T11:36:47Z</time>
      </trkpt>
      <trkpt lat="41.695049" lon="2.002898">
        <ele>670.01</ele>
        <time>2012-04-07T11:36:52Z</time>
      </trkpt>
      <trkpt lat="41.695158" lon="2.002844">
        <ele>670.05</ele>
        <time>2012-04-07T11:36:56Z</time>
      </trkpt>
      <trkpt lat="41.695260" lon="2.002745">
        <ele>667.04</ele>
        <time>2012-04-07T11:37:00Z</time>
      </trkpt>
      <trkpt lat="41.695335" lon="2.002629">
        <ele>667.04</ele>
        <time>2012-04-07T11:37:05Z</time>
      </trkpt>
      <trkpt lat="41.695392" lon="2.002519">
        <ele>665.01</ele>
        <time>2012-04-07T11:37:09Z</time>
      </trkpt>
      <trkpt lat="41.695471" lon="2.002398">
        <ele>668.09</ele>
        <time>2012-04-07T11:37:13Z</time>
      </trkpt>
      <trkpt lat="41.695555" lon="2.002290">
        <ele>667.05</ele>
        <time>2012-04-07T11:37:17Z</time>
      </trkpt>
      <trkpt lat="41.695627" lon="2.002189">
        <ele>668.04</ele>
        <time>2012-04-07T11:37:21Z</time>
      </trkpt>
      <trkpt lat="41.695690" lon="2.002072">
        <ele>666.07</ele>
        <time>2012-04-07T11:37:26Z</time>
      </trkpt>
      <trkpt lat="41.695763" lon="2.001946">
        <ele>666.04</ele>
        <time>2012-04-07T11:37:30Z</time>
      </trkpt>
      <trkpt lat="41.695826" lon="2.001841">
        <ele>665.01</ele>
        <time>2012-04-07T11:37:33Z</time>
      </trkpt>
      <trkpt lat="41.695892" lon="2.001723">
        <ele>664.02</ele>
        <time>2012-04-07T11:37:36Z</time>
      </trkpt>
      <trkpt lat="41.695964" lon="2.001594">
        <ele>662.00</ele>
        <time>2012-04-07T11:37:39Z</time>
      </trkpt>
      <trkpt lat="41.696038" lon="2.001461">
        <ele>657.04</ele>
        <time>2012-04-07T11:37:42Z</time>
      </trkpt>
      <trkpt lat="41.696093" lon="2.001326">
        <ele>653.10</ele>
        <time>2012-04-07T11:37:45Z</time>
      </trkpt>
      <trkpt lat="41.696103" lon="2.001138">
        <ele>652.03</ele>
        <time>2012-04-07T11:37:48Z</time>
      </trkpt>
      <trkpt lat="41.696022" lon="2.001025">
        <ele>652.06</ele>
        <time>2012-04-07T11:37:50Z</time>
      </trkpt>
      <trkpt lat="41.695907" lon="2.000985">
        <ele>651.05</ele>
        <time>2012-04-07T11:37:52Z</time>
      </trkpt>
      <trkpt lat="41.695790" lon="2.000938">
        <ele>651.02</ele>
        <time>2012-04-07T11:37:54Z</time>
      </trkpt>
      <trkpt lat="41.695674" lon="2.000879">
        <ele>651.05</ele>
        <time>2012-04-07T11:37:56Z</time>
      </trkpt>
      <trkpt lat="41.695555" lon="2.000829">
        <ele>650.05</ele>
        <time>2012-04-07T11:37:58Z</time>
      </trkpt>
      <trkpt lat="41.695438" lon="2.000789">
        <ele>650.01</ele>
        <time>2012-04-07T11:38:00Z</time>
      </trkpt>
      <trkpt lat="41.695331" lon="2.000764">
        <ele>652.01</ele>
        <time>2012-04-07T11:38:02Z</time>
      </trkpt>
      <trkpt lat="41.695230" lon="2.000753">
        <ele>652.07</ele>
        <time>2012-04-07T11:38:04Z</time>
      </trkpt>
      <trkpt lat="41.695106" lon="2.000751">
        <ele>654.03</ele>
        <time>2012-04-07T11:38:07Z</time>
      </trkpt>
      <trkpt lat="41.694968" lon="2.000757">
        <ele>654.07</ele>
        <time>2012-04-07T11:38:10Z</time>
      </trkpt>
      <trkpt lat="41.694866" lon="2.000752">
        <ele>655.06</ele>
        <time>2012-04-07T11:38:12Z</time>
      </trkpt>
      <trkpt lat="41.694759" lon="2.000735">
        <ele>657.03</ele>
        <time>2012-04-07T11:38:14Z</time>
      </trkpt>
      <trkpt lat="41.694659" lon="2.000721">
        <ele>657.07</ele>
        <time>2012-04-07T11:38:16Z</time>
      </trkpt>
      <trkpt lat="41.694556" lon="2.000718">
        <ele>658.03</ele>
        <time>2012-04-07T11:38:18Z</time>
      </trkpt>
      <trkpt lat="41.694438" lon="2.000767">
        <ele>658.02</ele>
        <time>2012-04-07T11:38:21Z</time>
      </trkpt>
      <trkpt lat="41.694320" lon="2.000688">
        <ele>659.05</ele>
        <time>2012-04-07T11:38:24Z</time>
      </trkpt>
      <trkpt lat="41.694216" lon="2.000609">
        <ele>659.01</ele>
        <time>2012-04-07T11:38:27Z</time>
      </trkpt>
      <trkpt lat="41.694100" lon="2.000538">
        <ele>658.01</ele>
        <time>2012-04-07T11:38:30Z</time>
      </trkpt>
      <trkpt lat="41.694001" lon="2.000492">
        <ele>658.08</ele>
        <time>2012-04-07T11:38:32Z</time>
      </trkpt>
      <trkpt lat="41.693880" lon="2.000455">
        <ele>659.04</ele>
        <time>2012-04-07T11:38:34Z</time>
      </trkpt>
      <trkpt lat="41.693751" lon="2.000433">
        <ele>659.05</ele>
        <time>2012-04-07T11:38:36Z</time>
      </trkpt>
      <trkpt lat="41.693624" lon="2.000432">
        <ele>662.04</ele>
        <time>2012-04-07T11:38:38Z</time>
      </trkpt>
      <trkpt lat="41.693498" lon="2.000445">
        <ele>662.08</ele>
        <time>2012-04-07T11:38:40Z</time>
      </trkpt>
      <trkpt lat="41.693380" lon="2.000456">
        <ele>663.07</ele>
        <time>2012-04-07T11:38:42Z</time>
      </trkpt>
      <trkpt lat="41.693265" lon="2.000464">
        <ele>665.04</ele>
        <time>2012-04-07T11:38:44Z</time>
      </trkpt>
      <trkpt lat="41.693152" lon="2.000402">
        <ele>666.03</ele>
        <time>2012-04-07T11:38:46Z</time>
      </trkpt>
      <trkpt lat="41.693078" lon="2.000263">
        <ele>666.08</ele>
        <time>2012-04-07T11:38:48Z</time>
      </trkpt>
      <trkpt lat="41.692975" lon="2.000174">
        <ele>665.01</ele>
        <time>2012-04-07T11:38:50Z</time>
      </trkpt>
      <trkpt lat="41.692858" lon="2.000142">
        <ele>665.02</ele>
        <time>2012-04-07T11:38:52Z</time>
      </trkpt>
      <trkpt lat="41.692727" lon="2.000127">
        <ele>666.09</ele>
        <time>2012-04-07T11:38:54Z</time>
      </trkpt>
      <trkpt lat="41.692604" lon="2.000135">
        <ele>665.08</ele>
        <time>2012-04-07T11:38:56Z</time>
      </trkpt>
      <trkpt lat="41.692492" lon="2.000150">
        <ele>664.06</ele>
        <time>2012-04-07T11:38:58Z</time>
      </trkpt>
      <trkpt lat="41.692390" lon="2.000160">
        <ele>664.06</ele>
        <time>2012-04-07T11:39:00Z</time>
      </trkpt>
      <trkpt lat="41.692289" lon="2.000164">
        <ele>663.08</ele>
        <time>2012-04-07T11:39:02Z</time>
      </trkpt>
      <trkpt lat="41.692188" lon="2.000179">
        <ele>665.05</ele>
        <time>2012-04-07T11:39:04Z</time>
      </trkpt>
      <trkpt lat="41.692090" lon="2.000217">
        <ele>667.08</ele>
        <time>2012-04-07T11:39:06Z</time>
      </trkpt>
      <trkpt lat="41.691995" lon="2.000270">
        <ele>668.01</ele>
        <time>2012-04-07T11:39:08Z</time>
      </trkpt>
      <trkpt lat="41.691878" lon="2.000317">
        <ele>667.03</ele>
        <time>2012-04-07T11:39:11Z</time>
      </trkpt>
      <trkpt lat="41.691774" lon="2.000297">
        <ele>667.01</ele>
        <time>2012-04-07T11:39:14Z</time>
      </trkpt>
      <trkpt lat="41.691646" lon="2.000279">
        <ele>669.03</ele>
        <time>2012-04-07T11:39:17Z</time>
      </trkpt>
      <trkpt lat="41.691529" lon="2.000335">
        <ele>670.04</ele>
        <time>2012-04-07T11:39:20Z</time>
      </trkpt>
      <trkpt lat="41.691441" lon="2.000435">
        <ele>672.07</ele>
        <time>2012-04-07T11:39:23Z</time>
      </trkpt>
      <trkpt lat="41.691347" lon="2.000485">
        <ele>671.07</ele>
        <time>2012-04-07T11:39:26Z</time>
      </trkpt>
      <trkpt lat="41.691228" lon="2.000540">
        <ele>672.04</ele>
        <time>2012-04-07T11:39:30Z</time>
      </trkpt>
      <trkpt lat="41.691115" lon="2.000611">
        <ele>674.09</ele>
        <time>2012-04-07T11:39:34Z</time>
      </trkpt>
      <trkpt lat="41.691029" lon="2.000682">
        <ele>675.05</ele>
        <time>2012-04-07T11:39:37Z</time>
      </trkpt>
      <trkpt lat="41.690946" lon="2.000762">
        <ele>673.02</ele>
        <time>2012-04-07T11:39:40Z</time>
      </trkpt>
      <trkpt lat="41.690852" lon="2.000854">
        <ele>673.08</ele>
        <time>2012-04-07T11:39:44Z</time>
      </trkpt>
      <trkpt lat="41.690736" lon="2.000910">
        <ele>670.09</ele>
        <time>2012-04-07T11:39:49Z</time>
      </trkpt>
      <trkpt lat="41.690622" lon="2.000966">
        <ele>665.01</ele>
        <time>2012-04-07T11:39:54Z</time>
      </trkpt>
      <trkpt lat="41.690511" lon="2.000986">
        <ele>666.01</ele>
        <time>2012-04-07T11:40:01Z</time>
      </trkpt>
      <trkpt lat="41.690525" lon="2.000835">
        <ele>667.05</ele>
        <time>2012-04-07T11:40:05Z</time>
      </trkpt>
      <trkpt lat="41.690625" lon="2.000734">
        <ele>668.04</ele>
        <time>2012-04-07T11:40:08Z</time>
      </trkpt>
      <trkpt lat="41.690726" lon="2.000628">
        <ele>669.06</ele>
        <time>2012-04-07T11:40:10Z</time>
      </trkpt>
      <trkpt lat="41.690819" lon="2.000520">
        <ele>669.03</ele>
        <time>2012-04-07T11:40:12Z</time>
      </trkpt>
      <trkpt lat="41.690913" lon="2.000413">
        <ele>668.02</ele>
        <time>2012-04-07T11:40:14Z</time>
      </trkpt>
      <trkpt lat="41.690984" lon="2.000282">
        <ele>670.07</ele>
        <time>2012-04-07T11:40:16Z</time>
      </trkpt>
      <trkpt lat="41.691059" lon="2.000148">
        <ele>673.08</ele>
        <time>2012-04-07T11:40:18Z</time>
      </trkpt>
      <trkpt lat="41.691149" lon="2.000010">
        <ele>674.04</ele>
        <time>2012-04-07T11:40:20Z</time>
      </trkpt>
      <trkpt lat="41.691248" lon="1.999881">
        <ele>675.08</ele>
        <time>2012-04-07T11:40:22Z</time>
      </trkpt>
      <trkpt lat="41.691337" lon="1.999774">
        <ele>675.01</ele>
        <time>2012-04-07T11:40:24Z</time>
      </trkpt>
      <trkpt lat="41.691429" lon="1.999672">
        <ele>675.01</ele>
        <time>2012-04-07T11:40:26Z</time>
      </trkpt>
      <trkpt lat="41.691533" lon="1.999562">
        <ele>674.02</ele>
        <time>2012-04-07T11:40:28Z</time>
      </trkpt>
      <trkpt lat="41.691637" lon="1.999459">
        <ele>674.04</ele>
        <time>2012-04-07T11:40:30Z</time>
      </trkpt>
      <trkpt lat="41.691737" lon="1.999363">
        <ele>673.02</ele>
        <time>2012-04-07T11:40:32Z</time>
      </trkpt>
      <trkpt lat="41.691848" lon="1.999280">
        <ele>674.04</ele>
        <time>2012-04-07T11:40:34Z</time>
      </trkpt>
      <trkpt lat="41.691959" lon="1.999206">
        <ele>676.05</ele>
        <time>2012-04-07T11:40:36Z</time>
      </trkpt>
      <trkpt lat="41.692084" lon="1.999089">
        <ele>677.08</ele>
        <time>2012-04-07T11:40:39Z</time>
      </trkpt>
      <trkpt lat="41.692162" lon="1.999004">
        <ele>678.09</ele>
        <time>2012-04-07T11:40:42Z</time>
      </trkpt>
      <trkpt lat="41.692276" lon="1.998990">
        <ele>676.04</ele>
        <time>2012-04-07T11:40:45Z</time>
      </trkpt>
      <trkpt lat="41.692407" lon="1.999053">
        <ele>676.10</ele>
        <time>2012-04-07T11:40:48Z</time>
      </trkpt>
      <trkpt lat="41.692509" lon="1.999078">
        <ele>676.01</ele>
        <time>2012-04-07T11:40:50Z</time>
      </trkpt>
      <trkpt lat="41.692613" lon="1.999092">
        <ele>678.01</ele>
        <time>2012-04-07T11:40:52Z</time>
      </trkpt>
      <trkpt lat="41.692714" lon="1.999079">
        <ele>676.00</ele>
        <time>2012-04-07T11:40:54Z</time>
      </trkpt>
      <trkpt lat="41.692819" lon="1.998961">
        <ele>675.05</ele>
        <time>2012-04-07T11:40:57Z</time>
      </trkpt>
      <trkpt lat="41.692910" lon="1.998840">
        <ele>673.03</ele>
        <time>2012-04-07T11:41:00Z</time>
      </trkpt>
      <trkpt lat="41.693018" lon="1.998791">
        <ele>675.02</ele>
        <time>2012-04-07T11:41:02Z</time>
      </trkpt>
      <trkpt lat="41.693134" lon="1.998816">
        <ele>678.03</ele>
        <time>2012-04-07T11:41:04Z</time>
      </trkpt>
      <trkpt lat="41.693234" lon="1.998884">
        <ele>678.10</ele>
        <time>2012-04-07T11:41:06Z</time>
      </trkpt>
      <trkpt lat="41.693354" lon="1.998978">
        <ele>677.05</ele>
        <time>2012-04-07T11:41:09Z</time>
      </trkpt>
      <trkpt lat="41.693465" lon="1.999017">
        <ele>681.09</ele>
        <time>2012-04-07T11:41:12Z</time>
      </trkpt>
      <trkpt lat="41.693566" lon="1.998963">
        <ele>685.02</ele>
        <time>2012-04-07T11:41:15Z</time>
      </trkpt>
      <trkpt lat="41.693607" lon="1.998842">
        <ele>683.01</ele>
        <time>2012-04-07T11:41:18Z</time>
      </trkpt>
      <trkpt lat="41.693657" lon="1.998710">
        <ele>684.02</ele>
        <time>2012-04-07T11:41:21Z</time>
      </trkpt>
      <trkpt lat="41.693759" lon="1.998634">
        <ele>685.01</ele>
        <time>2012-04-07T11:41:24Z</time>
      </trkpt>
      <trkpt lat="41.693863" lon="1.998644">
        <ele>687.02</ele>
        <time>2012-04-07T11:41:26Z</time>
      </trkpt>
      <trkpt lat="41.694014" lon="1.998662">
        <ele>690.02</ele>
        <time>2012-04-07T11:41:29Z</time>
      </trkpt>
      <trkpt lat="41.694090" lon="1.998547">
        <ele>693.01</ele>
        <time>2012-04-07T11:41:32Z</time>
      </trkpt>
      <trkpt lat="41.694128" lon="1.998396">
        <ele>693.08</ele>
        <time>2012-04-07T11:41:34Z</time>
      </trkpt>
      <trkpt lat="41.694179" lon="1.998214">
        <ele>696.05</ele>
        <time>2012-04-07T11:41:37Z</time>
      </trkpt>
      <trkpt lat="41.694209" lon="1.998047">
        <ele>696.07</ele>
        <time>2012-04-07T11:41:42Z</time>
      </trkpt>
      <trkpt lat="41.694233" lon="1.997892">
        <ele>696.09</ele>
        <time>2012-04-07T11:41:48Z</time>
      </trkpt>
      <trkpt lat="41.694321" lon="1.997795">
        <ele>697.04</ele>
        <time>2012-04-07T11:41:54Z</time>
      </trkpt>
      <trkpt lat="41.694409" lon="1.997694">
        <ele>696.01</ele>
        <time>2012-04-07T11:41:59Z</time>
      </trkpt>
      <trkpt lat="41.694308" lon="1.997679">
        <ele>695.02</ele>
        <time>2012-04-07T11:42:05Z</time>
      </trkpt>
      <trkpt lat="41.694220" lon="1.997757">
        <ele>693.01</ele>
        <time>2012-04-07T11:42:08Z</time>
      </trkpt>
      <trkpt lat="41.694143" lon="1.997870">
        <ele>695.02</ele>
        <time>2012-04-07T11:42:11Z</time>
      </trkpt>
      <trkpt lat="41.694070" lon="1.998007">
        <ele>700.08</ele>
        <time>2012-04-07T11:42:14Z</time>
      </trkpt>
      <trkpt lat="41.693965" lon="1.998136">
        <ele>699.08</ele>
        <time>2012-04-07T11:42:17Z</time>
      </trkpt>
      <trkpt lat="41.693837" lon="1.998227">
        <ele>702.03</ele>
        <time>2012-04-07T11:42:20Z</time>
      </trkpt>
      <trkpt lat="41.693714" lon="1.998265">
        <ele>700.05</ele>
        <time>2012-04-07T11:42:23Z</time>
      </trkpt>
      <trkpt lat="41.693600" lon="1.998282">
        <ele>698.09</ele>
        <time>2012-04-07T11:42:26Z</time>
      </trkpt>
      <trkpt lat="41.693487" lon="1.998294">
        <ele>699.06</ele>
        <time>2012-04-07T11:42:29Z</time>
      </trkpt>
      <trkpt lat="41.693375" lon="1.998304">
        <ele>699.04</ele>
        <time>2012-04-07T11:42:32Z</time>
      </trkpt>
      <trkpt lat="41.693269" lon="1.998310">
        <ele>698.01</ele>
        <time>2012-04-07T11:42:35Z</time>
      </trkpt>
      <trkpt lat="41.693153" lon="1.998313">
        <ele>698.02</ele>
        <time>2012-04-07T11:42:38Z</time>
      </trkpt>
      <trkpt lat="41.693028" lon="1.998310">
        <ele>696.01</ele>
        <time>2012-04-07T11:42:41Z</time>
      </trkpt>
      <trkpt lat="41.692887" lon="1.998316">
        <ele>695.08</ele>
        <time>2012-04-07T11:42:44Z</time>
      </trkpt>
      <trkpt lat="41.692758" lon="1.998309">
        <ele>696.09</ele>
        <time>2012-04-07T11:42:47Z</time>
      </trkpt>
      <trkpt lat="41.692641" lon="1.998287">
        <ele>697.03</ele>
        <time>2012-04-07T11:42:50Z</time>
      </trkpt>
      <trkpt lat="41.692545" lon="1.998239">
        <ele>698.09</ele>
        <time>2012-04-07T11:42:53Z</time>
      </trkpt>
      <trkpt lat="41.692441" lon="1.998197">
        <ele>697.03</ele>
        <time>2012-04-07T11:42:55Z</time>
      </trkpt>
      <trkpt lat="41.692336" lon="1.998173">
        <ele>700.03</ele>
        <time>2012-04-07T11:42:58Z</time>
      </trkpt>
      <trkpt lat="41.692215" lon="1.998169">
        <ele>698.01</ele>
        <time>2012-04-07T11:43:03Z</time>
      </trkpt>
      <trkpt lat="41.692131" lon="1.998095">
        <ele>701.08</ele>
        <time>2012-04-07T11:43:12Z</time>
      </trkpt>
      <trkpt lat="41.692137" lon="1.998081">
        <ele>700.01</ele>
        <time>2012-04-07T11:43:42Z</time>
      </trkpt>
      <trkpt lat="41.692172" lon="1.998077">
        <ele>700.02</ele>
        <time>2012-04-07T11:44:12Z</time>
      </trkpt>
      <trkpt lat="41.692261" lon="1.998018">
        <ele>698.02</ele>
        <time>2012-04-07T11:44:19Z</time>
      </trkpt>
      <trkpt lat="41.692361" lon="1.997947">
        <ele>697.08</ele>
        <time>2012-04-07T11:44:25Z</time>
      </trkpt>
      <trkpt lat="41.692409" lon="1.997913">
        <ele>689.08</ele>
        <time>2012-04-07T11:44:37Z</time>
      </trkpt>
      <trkpt lat="41.692449" lon="1.997855">
        <ele>692.02</ele>
        <time>2012-04-07T11:44:47Z</time>
      </trkpt>
      <trkpt lat="41.692520" lon="1.997776">
        <ele>688.04</ele>
        <time>2012-04-07T11:44:57Z</time>
      </trkpt>
      <trkpt lat="41.692580" lon="1.997692">
        <ele>692.09</ele>
        <time>2012-04-07T11:45:07Z</time>
      </trkpt>
      <trkpt lat="41.692641" lon="1.997637">
        <ele>690.04</ele>
        <time>2012-04-07T11:45:17Z</time>
      </trkpt>
      <trkpt lat="41.692726" lon="1.997568">
        <ele>694.05</ele>
        <time>2012-04-07T11:45:27Z</time>
      </trkpt>
      <trkpt lat="41.692756" lon="1.997469">
        <ele>694.02</ele>
        <time>2012-04-07T11:45:37Z</time>
      </trkpt>
      <trkpt lat="41.692768" lon="1.997380">
        <ele>694.01</ele>
        <time>2012-04-07T11:45:47Z</time>
      </trkpt>
      <trkpt lat="41.692725" lon="1.997323">
        <ele>694.03</ele>
        <time>2012-04-07T11:45:57Z</time>
      </trkpt>
      <trkpt lat="41.692801" lon="1.997276">
        <ele>693.06</ele>
        <time>2012-04-07T11:46:07Z</time>
      </trkpt>
      <trkpt lat="41.692905" lon="1.997307">
        <ele>691.09</ele>
        <time>2012-04-07T11:46:12Z</time>
      </trkpt>
      <trkpt lat="41.692999" lon="1.997392">
        <ele>690.06</ele>
        <time>2012-04-07T11:46:17Z</time>
      </trkpt>
      <trkpt lat="41.693037" lon="1.997364">
        <ele>685.07</ele>
        <time>2012-04-07T11:46:47Z</time>
      </trkpt>
      <trkpt lat="41.693079" lon="1.997314">
        <ele>688.06</ele>
        <time>2012-04-07T11:46:58Z</time>
      </trkpt>
      <trkpt lat="41.693179" lon="1.997296">
        <ele>687.04</ele>
        <time>2012-04-07T11:47:06Z</time>
      </trkpt>
      <trkpt lat="41.693211" lon="1.997218">
        <ele>688.01</ele>
        <time>2012-04-07T11:47:16Z</time>
      </trkpt>
      <trkpt lat="41.693245" lon="1.997160">
        <ele>686.02</ele>
        <time>2012-04-07T11:47:29Z</time>
      </trkpt>
      <trkpt lat="41.693256" lon="1.997082">
        <ele>687.03</ele>
        <time>2012-04-07T11:47:44Z</time>
      </trkpt>
      <trkpt lat="41.693245" lon="1.996990">
        <ele>693.01</ele>
        <time>2012-04-07T11:47:54Z</time>
      </trkpt>
      <trkpt lat="41.693278" lon="1.996846">
        <ele>695.01</ele>
        <time>2012-04-07T11:48:04Z</time>
      </trkpt>
      <trkpt lat="41.693326" lon="1.996717">
        <ele>689.05</ele>
        <time>2012-04-07T11:48:14Z</time>
      </trkpt>
      <trkpt lat="41.693312" lon="1.996644">
        <ele>692.01</ele>
        <time>2012-04-07T11:48:44Z</time>
      </trkpt>
      <trkpt lat="41.693313" lon="1.996648">
        <ele>691.02</ele>
        <time>2012-04-07T11:49:14Z</time>
      </trkpt>
      <trkpt lat="41.693324" lon="1.996625">
        <ele>685.02</ele>
        <time>2012-04-07T11:49:44Z</time>
      </trkpt>
      <trkpt lat="41.693260" lon="1.996535">
        <ele>691.09</ele>
        <time>2012-04-07T11:49:54Z</time>
      </trkpt>
      <trkpt lat="41.693271" lon="1.996392">
        <ele>698.08</ele>
        <time>2012-04-07T11:50:02Z</time>
      </trkpt>
      <trkpt lat="41.693328" lon="1.996381">
        <ele>683.06</ele>
        <time>2012-04-07T11:50:17Z</time>
      </trkpt>
      <trkpt lat="41.693378" lon="1.996315">
        <ele>686.02</ele>
        <time>2012-04-07T11:50:27Z</time>
      </trkpt>
      <trkpt lat="41.693338" lon="1.996233">
        <ele>687.07</ele>
        <time>2012-04-07T11:50:37Z</time>
      </trkpt>
      <trkpt lat="41.693285" lon="1.996172">
        <ele>685.01</ele>
        <time>2012-04-07T11:50:47Z</time>
      </trkpt>
      <trkpt lat="41.693242" lon="1.996122">
        <ele>681.02</ele>
        <time>2012-04-07T11:50:57Z</time>
      </trkpt>
      <trkpt lat="41.693205" lon="1.996060">
        <ele>678.09</ele>
        <time>2012-04-07T11:51:07Z</time>
      </trkpt>
      <trkpt lat="41.693180" lon="1.995993">
        <ele>679.03</ele>
        <time>2012-04-07T11:51:20Z</time>
      </trkpt>
      <trkpt lat="41.693195" lon="1.995965">
        <ele>685.04</ele>
        <time>2012-04-07T11:51:50Z</time>
      </trkpt>
      <trkpt lat="41.693241" lon="1.995910">
        <ele>682.02</ele>
        <time>2012-04-07T11:52:00Z</time>
      </trkpt>
      <trkpt lat="41.693266" lon="1.995838">
        <ele>679.02</ele>
        <time>2012-04-07T11:52:11Z</time>
      </trkpt>
      <trkpt lat="41.693299" lon="1.995755">
        <ele>677.06</ele>
        <time>2012-04-07T11:52:21Z</time>
      </trkpt>
      <trkpt lat="41.693311" lon="1.995685">
        <ele>676.01</ele>
        <time>2012-04-07T11:52:43Z</time>
      </trkpt>
      <trkpt lat="41.693366" lon="1.995673">
        <ele>673.01</ele>
        <time>2012-04-07T11:53:06Z</time>
      </trkpt>
      <trkpt lat="41.693364" lon="1.995691">
        <ele>673.06</ele>
        <time>2012-04-07T11:53:36Z</time>
      </trkpt>
      <trkpt lat="41.693360" lon="1.995635">
        <ele>677.01</ele>
        <time>2012-04-07T11:54:06Z</time>
      </trkpt>
      <trkpt lat="41.693295" lon="1.995515">
        <ele>673.01</ele>
        <time>2012-04-07T11:54:12Z</time>
      </trkpt>
      <trkpt lat="41.693248" lon="1.995380">
        <ele>672.06</ele>
        <time>2012-04-07T11:54:18Z</time>
      </trkpt>
      <trkpt lat="41.693199" lon="1.995261">
        <ele>672.06</ele>
        <time>2012-04-07T11:54:23Z</time>
      </trkpt>
      <trkpt lat="41.693152" lon="1.995214">
        <ele>662.01</ele>
        <time>2012-04-07T11:54:44Z</time>
      </trkpt>
      <trkpt lat="41.693152" lon="1.995214">
        <ele>662.06</ele>
        <time>2012-04-07T11:55:14Z</time>
      </trkpt>
      <trkpt lat="41.693151" lon="1.995208">
        <ele>666.08</ele>
        <time>2012-04-07T11:55:44Z</time>
      </trkpt>
      <trkpt lat="41.693145" lon="1.995211">
        <ele>666.05</ele>
        <time>2012-04-07T11:56:14Z</time>
      </trkpt>
      <trkpt lat="41.693096" lon="1.995222">
        <ele>667.08</ele>
        <time>2012-04-07T11:56:44Z</time>
      </trkpt>
      <trkpt lat="41.693096" lon="1.995148">
        <ele>670.03</ele>
        <time>2012-04-07T11:57:00Z</time>
      </trkpt>
      <trkpt lat="41.693028" lon="1.995050">
        <ele>664.05</ele>
        <time>2012-04-07T11:57:09Z</time>
      </trkpt>
      <trkpt lat="41.692973" lon="1.994940">
        <ele>666.01</ele>
        <time>2012-04-07T11:57:19Z</time>
      </trkpt>
      <trkpt lat="41.692926" lon="1.994821">
        <ele>661.01</ele>
        <time>2012-04-07T11:57:27Z</time>
      </trkpt>
      <trkpt lat="41.692894" lon="1.994694">
        <ele>665.06</ele>
        <time>2012-04-07T11:57:35Z</time>
      </trkpt>
      <trkpt lat="41.692943" lon="1.994571">
        <ele>661.02</ele>
        <time>2012-04-07T11:57:45Z</time>
      </trkpt>
      <trkpt lat="41.693041" lon="1.994543">
        <ele>658.06</ele>
        <time>2012-04-07T11:57:54Z</time>
      </trkpt>
      <trkpt lat="41.693142" lon="1.994532">
        <ele>656.06</ele>
        <time>2012-04-07T11:58:02Z</time>
      </trkpt>
      <trkpt lat="41.693232" lon="1.994575">
        <ele>654.06</ele>
        <time>2012-04-07T11:58:12Z</time>
      </trkpt>
      <trkpt lat="41.693312" lon="1.994676">
        <ele>654.05</ele>
        <time>2012-04-07T11:58:21Z</time>
      </trkpt>
      <trkpt lat="41.693397" lon="1.994746">
        <ele>653.03</ele>
        <time>2012-04-07T11:58:29Z</time>
      </trkpt>
      <trkpt lat="41.693471" lon="1.994835">
        <ele>648.06</ele>
        <time>2012-04-07T11:58:35Z</time>
      </trkpt>
      <trkpt lat="41.693551" lon="1.994935">
        <ele>646.07</ele>
        <time>2012-04-07T11:58:44Z</time>
      </trkpt>
      <trkpt lat="41.693644" lon="1.994995">
        <ele>646.01</ele>
        <time>2012-04-07T11:58:52Z</time>
      </trkpt>
      <trkpt lat="41.693746" lon="1.995053">
        <ele>647.01</ele>
        <time>2012-04-07T11:59:00Z</time>
      </trkpt>
      <trkpt lat="41.693850" lon="1.995054">
        <ele>644.08</ele>
        <time>2012-04-07T11:59:07Z</time>
      </trkpt>
      <trkpt lat="41.693952" lon="1.995010">
        <ele>642.06</ele>
        <time>2012-04-07T11:59:15Z</time>
      </trkpt>
      <trkpt lat="41.694059" lon="1.994989">
        <ele>641.03</ele>
        <time>2012-04-07T11:59:24Z</time>
      </trkpt>
      <trkpt lat="41.694161" lon="1.994950">
        <ele>642.06</ele>
        <time>2012-04-07T11:59:32Z</time>
      </trkpt>
      <trkpt lat="41.694226" lon="1.994838">
        <ele>639.05</ele>
        <time>2012-04-07T11:59:39Z</time>
      </trkpt>
      <trkpt lat="41.694223" lon="1.994688">
        <ele>633.08</ele>
        <time>2012-04-07T11:59:45Z</time>
      </trkpt>
      <trkpt lat="41.694219" lon="1.994528">
        <ele>636.02</ele>
        <time>2012-04-07T11:59:51Z</time>
      </trkpt>
      <trkpt lat="41.694181" lon="1.994385">
        <ele>641.09</ele>
        <time>2012-04-07T12:00:00Z</time>
      </trkpt>
      <trkpt lat="41.694096" lon="1.994316">
        <ele>647.08</ele>
        <time>2012-04-07T12:00:06Z</time>
      </trkpt>
      <trkpt lat="41.694046" lon="1.994268">
        <ele>638.01</ele>
        <time>2012-04-07T12:00:17Z</time>
      </trkpt>
      <trkpt lat="41.693983" lon="1.994204">
        <ele>630.01</ele>
        <time>2012-04-07T12:00:27Z</time>
      </trkpt>
      <trkpt lat="41.693930" lon="1.994179">
        <ele>633.01</ele>
        <time>2012-04-07T12:00:37Z</time>
      </trkpt>
      <trkpt lat="41.693887" lon="1.994116">
        <ele>626.04</ele>
        <time>2012-04-07T12:00:47Z</time>
      </trkpt>
      <trkpt lat="41.693824" lon="1.993994">
        <ele>623.03</ele>
        <time>2012-04-07T12:00:52Z</time>
      </trkpt>
      <trkpt lat="41.693798" lon="1.993853">
        <ele>624.02</ele>
        <time>2012-04-07T12:00:59Z</time>
      </trkpt>
      <trkpt lat="41.693768" lon="1.993713">
        <ele>624.05</ele>
        <time>2012-04-07T12:01:09Z</time>
      </trkpt>
      <trkpt lat="41.693800" lon="1.993583">
        <ele>624.03</ele>
        <time>2012-04-07T12:01:14Z</time>
      </trkpt>
      <trkpt lat="41.693859" lon="1.993477">
        <ele>621.08</ele>
        <time>2012-04-07T12:01:19Z</time>
      </trkpt>
      <trkpt lat="41.693910" lon="1.993336">
        <ele>620.01</ele>
        <time>2012-04-07T12:01:25Z</time>
      </trkpt>
      <trkpt lat="41.693956" lon="1.993199">
        <ele>616.04</ele>
        <time>2012-04-07T12:01:29Z</time>
      </trkpt>
      <trkpt lat="41.693971" lon="1.993098">
        <ele>610.01</ele>
        <time>2012-04-07T12:01:41Z</time>
      </trkpt>
      <trkpt lat="41.694014" lon="1.993061">
        <ele>614.02</ele>
        <time>2012-04-07T12:02:11Z</time>
      </trkpt>
      <trkpt lat="41.694024" lon="1.992968">
        <ele>619.06</ele>
        <time>2012-04-07T12:02:21Z</time>
      </trkpt>
      <trkpt lat="41.694042" lon="1.992895">
        <ele>612.07</ele>
        <time>2012-04-07T12:02:33Z</time>
      </trkpt>
      <trkpt lat="41.694095" lon="1.992826">
        <ele>621.10</ele>
        <time>2012-04-07T12:02:43Z</time>
      </trkpt>
      <trkpt lat="41.694155" lon="1.992715">
        <ele>622.05</ele>
        <time>2012-04-07T12:02:49Z</time>
      </trkpt>
      <trkpt lat="41.694241" lon="1.992626">
        <ele>621.04</ele>
        <time>2012-04-07T12:02:56Z</time>
      </trkpt>
      <trkpt lat="41.694352" lon="1.992627">
        <ele>619.01</ele>
        <time>2012-04-07T12:03:02Z</time>
      </trkpt>
      <trkpt lat="41.694451" lon="1.992650">
        <ele>618.01</ele>
        <time>2012-04-07T12:03:07Z</time>
      </trkpt>
      <trkpt lat="41.694551" lon="1.992670">
        <ele>617.06</ele>
        <time>2012-04-07T12:03:12Z</time>
      </trkpt>
      <trkpt lat="41.694665" lon="1.992653">
        <ele>618.03</ele>
        <time>2012-04-07T12:03:19Z</time>
      </trkpt>
      <trkpt lat="41.694733" lon="1.992578">
        <ele>614.01</ele>
        <time>2012-04-07T12:03:29Z</time>
      </trkpt>
      <trkpt lat="41.694786" lon="1.992565">
        <ele>614.01</ele>
        <time>2012-04-07T12:03:46Z</time>
      </trkpt>
      <trkpt lat="41.694848" lon="1.992435">
        <ele>612.02</ele>
        <time>2012-04-07T12:03:53Z</time>
      </trkpt>
      <trkpt lat="41.694883" lon="1.992308">
        <ele>616.06</ele>
        <time>2012-04-07T12:04:02Z</time>
      </trkpt>
      <trkpt lat="41.694923" lon="1.992179">
        <ele>615.03</ele>
        <time>2012-04-07T12:04:06Z</time>
      </trkpt>
      <trkpt lat="41.694980" lon="1.992045">
        <ele>615.02</ele>
        <time>2012-04-07T12:04:11Z</time>
      </trkpt>
      <trkpt lat="41.695063" lon="1.991966">
        <ele>613.09</ele>
        <time>2012-04-07T12:04:16Z</time>
      </trkpt>
      <trkpt lat="41.695161" lon="1.991926">
        <ele>616.07</ele>
        <time>2012-04-07T12:04:21Z</time>
      </trkpt>
      <trkpt lat="41.695267" lon="1.991899">
        <ele>617.03</ele>
        <time>2012-04-07T12:04:29Z</time>
      </trkpt>
      <trkpt lat="41.695299" lon="1.991837">
        <ele>620.07</ele>
        <time>2012-04-07T12:04:42Z</time>
      </trkpt>
      <trkpt lat="41.695255" lon="1.991711">
        <ele>616.03</ele>
        <time>2012-04-07T12:04:49Z</time>
      </trkpt>
      <trkpt lat="41.695239" lon="1.991574">
        <ele>616.01</ele>
        <time>2012-04-07T12:04:55Z</time>
      </trkpt>
      <trkpt lat="41.695209" lon="1.991424">
        <ele>615.02</ele>
        <time>2012-04-07T12:05:01Z</time>
      </trkpt>
      <trkpt lat="41.695184" lon="1.991286">
        <ele>614.04</ele>
        <time>2012-04-07T12:05:06Z</time>
      </trkpt>
      <trkpt lat="41.695165" lon="1.991155">
        <ele>615.08</ele>
        <time>2012-04-07T12:05:11Z</time>
      </trkpt>
      <trkpt lat="41.695202" lon="1.991007">
        <ele>614.08</ele>
        <time>2012-04-07T12:05:17Z</time>
      </trkpt>
      <trkpt lat="41.695286" lon="1.990904">
        <ele>614.05</ele>
        <time>2012-04-07T12:05:22Z</time>
      </trkpt>
      <trkpt lat="41.695381" lon="1.990815">
        <ele>613.02</ele>
        <time>2012-04-07T12:05:27Z</time>
      </trkpt>
      <trkpt lat="41.695372" lon="1.990661">
        <ele>612.05</ele>
        <time>2012-04-07T12:05:32Z</time>
      </trkpt>
      <trkpt lat="41.695333" lon="1.990538">
        <ele>611.04</ele>
        <time>2012-04-07T12:05:36Z</time>
      </trkpt>
      <trkpt lat="41.695335" lon="1.990383">
        <ele>611.08</ele>
        <time>2012-04-07T12:05:41Z</time>
      </trkpt>
      <trkpt lat="41.695417" lon="1.990277">
        <ele>612.04</ele>
        <time>2012-04-07T12:05:47Z</time>
      </trkpt>
      <trkpt lat="41.695492" lon="1.990183">
        <ele>611.01</ele>
        <time>2012-04-07T12:05:52Z</time>
      </trkpt>
      <trkpt lat="41.695562" lon="1.990067">
        <ele>612.02</ele>
        <time>2012-04-07T12:05:57Z</time>
      </trkpt>
      <trkpt lat="41.695579" lon="1.989923">
        <ele>612.02</ele>
        <time>2012-04-07T12:06:02Z</time>
      </trkpt>
      <trkpt lat="41.695527" lon="1.989787">
        <ele>611.08</ele>
        <time>2012-04-07T12:06:07Z</time>
      </trkpt>
      <trkpt lat="41.695476" lon="1.989639">
        <ele>610.10</ele>
        <time>2012-04-07T12:06:12Z</time>
      </trkpt>
      <trkpt lat="41.695463" lon="1.989502">
        <ele>609.03</ele>
        <time>2012-04-07T12:06:17Z</time>
      </trkpt>
      <trkpt lat="41.695476" lon="1.989345">
        <ele>609.02</ele>
        <time>2012-04-07T12:06:23Z</time>
      </trkpt>
      <trkpt lat="41.695511" lon="1.989212">
        <ele>608.06</ele>
        <time>2012-04-07T12:06:29Z</time>
      </trkpt>
      <trkpt lat="41.695565" lon="1.989079">
        <ele>607.01</ele>
        <time>2012-04-07T12:06:35Z</time>
      </trkpt>
      <trkpt lat="41.695624" lon="1.988947">
        <ele>605.02</ele>
        <time>2012-04-07T12:06:41Z</time>
      </trkpt>
      <trkpt lat="41.695696" lon="1.988852">
        <ele>604.09</ele>
        <time>2012-04-07T12:06:46Z</time>
      </trkpt>
      <trkpt lat="41.695779" lon="1.988754">
        <ele>604.01</ele>
        <time>2012-04-07T12:06:51Z</time>
      </trkpt>
      <trkpt lat="41.695854" lon="1.988655">
        <ele>605.01</ele>
        <time>2012-04-07T12:06:56Z</time>
      </trkpt>
      <trkpt lat="41.695943" lon="1.988561">
        <ele>604.08</ele>
        <time>2012-04-07T12:07:02Z</time>
      </trkpt>
      <trkpt lat="41.696028" lon="1.988460">
        <ele>605.04</ele>
        <time>2012-04-07T12:07:08Z</time>
      </trkpt>
      <trkpt lat="41.696116" lon="1.988370">
        <ele>601.01</ele>
        <time>2012-04-07T12:07:15Z</time>
      </trkpt>
      <trkpt lat="41.696206" lon="1.988289">
        <ele>602.03</ele>
        <time>2012-04-07T12:07:21Z</time>
      </trkpt>
      <trkpt lat="41.696288" lon="1.988207">
        <ele>601.06</ele>
        <time>2012-04-07T12:07:27Z</time>
      </trkpt>
      <trkpt lat="41.696367" lon="1.988114">
        <ele>599.02</ele>
        <time>2012-04-07T12:07:33Z</time>
      </trkpt>
      <trkpt lat="41.696442" lon="1.988011">
        <ele>599.02</ele>
        <time>2012-04-07T12:07:39Z</time>
      </trkpt>
      <trkpt lat="41.696511" lon="1.987901">
        <ele>596.08</ele>
        <time>2012-04-07T12:07:45Z</time>
      </trkpt>
      <trkpt lat="41.696571" lon="1.987790">
        <ele>596.05</ele>
        <time>2012-04-07T12:07:51Z</time>
      </trkpt>
      <trkpt lat="41.696640" lon="1.987669">
        <ele>592.01</ele>
        <time>2012-04-07T12:07:58Z</time>
      </trkpt>
      <trkpt lat="41.696710" lon="1.987573">
        <ele>590.01</ele>
        <time>2012-04-07T12:08:04Z</time>
      </trkpt>
      <trkpt lat="41.696792" lon="1.987481">
        <ele>592.03</ele>
        <time>2012-04-07T12:08:11Z</time>
      </trkpt>
      <trkpt lat="41.696879" lon="1.987398">
        <ele>591.02</ele>
        <time>2012-04-07T12:08:17Z</time>
      </trkpt>
      <trkpt lat="41.696980" lon="1.987327">
        <ele>589.07</ele>
        <time>2012-04-07T12:08:23Z</time>
      </trkpt>
      <trkpt lat="41.697088" lon="1.987319">
        <ele>594.03</ele>
        <time>2012-04-07T12:08:29Z</time>
      </trkpt>
      <trkpt lat="41.697186" lon="1.987381">
        <ele>589.04</ele>
        <time>2012-04-07T12:08:36Z</time>
      </trkpt>
      <trkpt lat="41.697274" lon="1.987472">
        <ele>590.02</ele>
        <time>2012-04-07T12:08:43Z</time>
      </trkpt>
      <trkpt lat="41.697353" lon="1.987567">
        <ele>590.07</ele>
        <time>2012-04-07T12:08:49Z</time>
      </trkpt>
      <trkpt lat="41.697449" lon="1.987649">
        <ele>592.04</ele>
        <time>2012-04-07T12:08:55Z</time>
      </trkpt>
      <trkpt lat="41.697554" lon="1.987694">
        <ele>591.07</ele>
        <time>2012-04-07T12:09:01Z</time>
      </trkpt>
      <trkpt lat="41.697669" lon="1.987677">
        <ele>587.01</ele>
        <time>2012-04-07T12:09:07Z</time>
      </trkpt>
      <trkpt lat="41.697786" lon="1.987666">
        <ele>584.02</ele>
        <time>2012-04-07T12:09:13Z</time>
      </trkpt>
      <trkpt lat="41.697893" lon="1.987691">
        <ele>582.09</ele>
        <time>2012-04-07T12:09:19Z</time>
      </trkpt>
      <trkpt lat="41.697989" lon="1.987736">
        <ele>580.08</ele>
        <time>2012-04-07T12:09:25Z</time>
      </trkpt>
      <trkpt lat="41.698082" lon="1.987780">
        <ele>581.03</ele>
        <time>2012-04-07T12:09:30Z</time>
      </trkpt>
      <trkpt lat="41.698175" lon="1.987837">
        <ele>582.04</ele>
        <time>2012-04-07T12:09:35Z</time>
      </trkpt>
      <trkpt lat="41.698286" lon="1.987873">
        <ele>583.01</ele>
        <time>2012-04-07T12:09:41Z</time>
      </trkpt>
      <trkpt lat="41.698394" lon="1.987854">
        <ele>578.01</ele>
        <time>2012-04-07T12:09:49Z</time>
      </trkpt>
      <trkpt lat="41.698505" lon="1.987861">
        <ele>578.03</ele>
        <time>2012-04-07T12:09:56Z</time>
      </trkpt>
      <trkpt lat="41.698606" lon="1.987842">
        <ele>581.07</ele>
        <time>2012-04-07T12:10:02Z</time>
      </trkpt>
      <trkpt lat="41.698613" lon="1.987692">
        <ele>583.07</ele>
        <time>2012-04-07T12:10:06Z</time>
      </trkpt>
      <trkpt lat="41.698577" lon="1.987562">
        <ele>584.01</ele>
        <time>2012-04-07T12:10:09Z</time>
      </trkpt>
      <trkpt lat="41.698519" lon="1.987421">
        <ele>580.00</ele>
        <time>2012-04-07T12:10:13Z</time>
      </trkpt>
      <trkpt lat="41.698441" lon="1.987324">
        <ele>581.02</ele>
        <time>2012-04-07T12:10:17Z</time>
      </trkpt>
      <trkpt lat="41.698360" lon="1.987219">
        <ele>582.01</ele>
        <time>2012-04-07T12:10:21Z</time>
      </trkpt>
      <trkpt lat="41.698284" lon="1.987092">
        <ele>584.02</ele>
        <time>2012-04-07T12:10:26Z</time>
      </trkpt>
      <trkpt lat="41.698225" lon="1.986955">
        <ele>584.09</ele>
        <time>2012-04-07T12:10:31Z</time>
      </trkpt>
      <trkpt lat="41.698177" lon="1.986817">
        <ele>584.04</ele>
        <time>2012-04-07T12:10:36Z</time>
      </trkpt>
      <trkpt lat="41.698156" lon="1.986682">
        <ele>582.04</ele>
        <time>2012-04-07T12:10:41Z</time>
      </trkpt>
      <trkpt lat="41.698155" lon="1.986532">
        <ele>580.09</ele>
        <time>2012-04-07T12:10:47Z</time>
      </trkpt>
      <trkpt lat="41.698149" lon="1.986398">
        <ele>575.08</ele>
        <time>2012-04-07T12:10:57Z</time>
      </trkpt>
      <trkpt lat="41.698131" lon="1.986376">
        <ele>575.05</ele>
        <time>2012-04-07T12:11:27Z</time>
      </trkpt>
      <trkpt lat="41.698128" lon="1.986378">
        <ele>573.01</ele>
        <time>2012-04-07T12:11:57Z</time>
      </trkpt>
      <trkpt lat="41.698132" lon="1.986382">
        <ele>588.03</ele>
        <time>2012-04-07T12:12:27Z</time>
      </trkpt>
      <trkpt lat="41.698132" lon="1.986382">
        <ele>588.03</ele>
        <time>2012-04-07T12:12:57Z</time>
      </trkpt>
      <trkpt lat="41.698134" lon="1.986382">
        <ele>589.08</ele>
        <time>2012-04-07T12:13:27Z</time>
      </trkpt>
      <trkpt lat="41.698140" lon="1.986379">
        <ele>575.06</ele>
        <time>2012-04-07T12:13:57Z</time>
      </trkpt>
      <trkpt lat="41.698142" lon="1.986335">
        <ele>581.03</ele>
        <time>2012-04-07T12:14:27Z</time>
      </trkpt>
      <trkpt lat="41.698226" lon="1.986237">
        <ele>580.06</ele>
        <time>2012-04-07T12:14:34Z</time>
      </trkpt>
      <trkpt lat="41.698315" lon="1.986143">
        <ele>579.02</ele>
        <time>2012-04-07T12:14:41Z</time>
      </trkpt>
      <trkpt lat="41.698374" lon="1.986035">
        <ele>579.09</ele>
        <time>2012-04-07T12:14:47Z</time>
      </trkpt>
      <trkpt lat="41.698374" lon="1.985884">
        <ele>577.09</ele>
        <time>2012-04-07T12:14:55Z</time>
      </trkpt>
      <trkpt lat="41.698345" lon="1.985753">
        <ele>577.05</ele>
        <time>2012-04-07T12:15:01Z</time>
      </trkpt>
      <trkpt lat="41.698307" lon="1.985624">
        <ele>574.01</ele>
        <time>2012-04-07T12:15:07Z</time>
      </trkpt>
      <trkpt lat="41.698260" lon="1.985486">
        <ele>573.03</ele>
        <time>2012-04-07T12:15:14Z</time>
      </trkpt>
      <trkpt lat="41.698212" lon="1.985368">
        <ele>572.03</ele>
        <time>2012-04-07T12:15:20Z</time>
      </trkpt>
      <trkpt lat="41.698155" lon="1.985228">
        <ele>575.08</ele>
        <time>2012-04-07T12:15:26Z</time>
      </trkpt>
      <trkpt lat="41.698101" lon="1.985104">
        <ele>573.02</ele>
        <time>2012-04-07T12:15:33Z</time>
      </trkpt>
      <trkpt lat="41.698030" lon="1.984989">
        <ele>569.08</ele>
        <time>2012-04-07T12:15:41Z</time>
      </trkpt>
      <trkpt lat="41.697954" lon="1.984886">
        <ele>568.02</ele>
        <time>2012-04-07T12:15:48Z</time>
      </trkpt>
      <trkpt lat="41.697897" lon="1.984759">
        <ele>569.07</ele>
        <time>2012-04-07T12:15:55Z</time>
      </trkpt>
      <trkpt lat="41.697878" lon="1.984617">
        <ele>570.03</ele>
        <time>2012-04-07T12:16:03Z</time>
      </trkpt>
      <trkpt lat="41.697849" lon="1.984487">
        <ele>567.09</ele>
        <time>2012-04-07T12:16:11Z</time>
      </trkpt>
      <trkpt lat="41.697844" lon="1.984336">
        <ele>568.04</ele>
        <time>2012-04-07T12:16:18Z</time>
      </trkpt>
      <trkpt lat="41.697901" lon="1.984223">
        <ele>569.01</ele>
        <time>2012-04-07T12:16:26Z</time>
      </trkpt>
      <trkpt lat="41.698002" lon="1.984161">
        <ele>568.02</ele>
        <time>2012-04-07T12:16:35Z</time>
      </trkpt>
      <trkpt lat="41.698104" lon="1.984132">
        <ele>568.00</ele>
        <time>2012-04-07T12:16:42Z</time>
      </trkpt>
      <trkpt lat="41.698207" lon="1.984095">
        <ele>566.03</ele>
        <time>2012-04-07T12:16:51Z</time>
      </trkpt>
      <trkpt lat="41.698309" lon="1.984054">
        <ele>560.04</ele>
        <time>2012-04-07T12:16:59Z</time>
      </trkpt>
      <trkpt lat="41.698414" lon="1.984024">
        <ele>561.04</ele>
        <time>2012-04-07T12:17:07Z</time>
      </trkpt>
      <trkpt lat="41.698517" lon="1.983983">
        <ele>558.07</ele>
        <time>2012-04-07T12:17:15Z</time>
      </trkpt>
      <trkpt lat="41.698619" lon="1.983971">
        <ele>560.05</ele>
        <time>2012-04-07T12:17:23Z</time>
      </trkpt>
      <trkpt lat="41.698645" lon="1.983840">
        <ele>557.02</ele>
        <time>2012-04-07T12:17:32Z</time>
      </trkpt>
      <trkpt lat="41.698582" lon="1.983728">
        <ele>551.06</ele>
        <time>2012-04-07T12:17:42Z</time>
      </trkpt>
      <trkpt lat="41.698506" lon="1.983630">
        <ele>549.05</ele>
        <time>2012-04-07T12:17:50Z</time>
      </trkpt>
      <trkpt lat="41.698474" lon="1.983492">
        <ele>544.01</ele>
        <time>2012-04-07T12:17:58Z</time>
      </trkpt>
      <trkpt lat="41.698576" lon="1.983458">
        <ele>544.01</ele>
        <time>2012-04-07T12:18:06Z</time>
      </trkpt>
      <trkpt lat="41.698675" lon="1.983516">
        <ele>540.08</ele>
        <time>2012-04-07T12:18:15Z</time>
      </trkpt>
      <trkpt lat="41.698755" lon="1.983602">
        <ele>540.02</ele>
        <time>2012-04-07T12:18:22Z</time>
      </trkpt>
      <trkpt lat="41.698856" lon="1.983629">
        <ele>540.09</ele>
        <time>2012-04-07T12:18:29Z</time>
      </trkpt>
      <trkpt lat="41.698952" lon="1.983588">
        <ele>537.05</ele>
        <time>2012-04-07T12:18:36Z</time>
      </trkpt>
      <trkpt lat="41.699055" lon="1.983565">
        <ele>534.08</ele>
        <time>2012-04-07T12:18:42Z</time>
      </trkpt>
      <trkpt lat="41.699135" lon="1.983456">
        <ele>537.06</ele>
        <time>2012-04-07T12:18:49Z</time>
      </trkpt>
      <trkpt lat="41.699151" lon="1.983317">
        <ele>539.08</ele>
        <time>2012-04-07T12:18:56Z</time>
      </trkpt>
      <trkpt lat="41.699119" lon="1.983188">
        <ele>538.01</ele>
        <time>2012-04-07T12:19:02Z</time>
      </trkpt>
      <trkpt lat="41.699073" lon="1.983049">
        <ele>537.04</ele>
        <time>2012-04-07T12:19:09Z</time>
      </trkpt>
      <trkpt lat="41.699038" lon="1.982922">
        <ele>536.01</ele>
        <time>2012-04-07T12:19:15Z</time>
      </trkpt>
      <trkpt lat="41.699012" lon="1.982783">
        <ele>533.02</ele>
        <time>2012-04-07T12:19:22Z</time>
      </trkpt>
      <trkpt lat="41.699000" lon="1.982635">
        <ele>532.03</ele>
        <time>2012-04-07T12:19:29Z</time>
      </trkpt>
      <trkpt lat="41.699019" lon="1.982486">
        <ele>531.10</ele>
        <time>2012-04-07T12:19:36Z</time>
      </trkpt>
      <trkpt lat="41.699065" lon="1.982354">
        <ele>529.03</ele>
        <time>2012-04-07T12:19:43Z</time>
      </trkpt>
      <trkpt lat="41.699127" lon="1.982244">
        <ele>527.07</ele>
        <time>2012-04-07T12:19:50Z</time>
      </trkpt>
      <trkpt lat="41.699199" lon="1.982135">
        <ele>526.03</ele>
        <time>2012-04-07T12:19:57Z</time>
      </trkpt>
      <trkpt lat="41.699264" lon="1.982025">
        <ele>524.08</ele>
        <time>2012-04-07T12:20:04Z</time>
      </trkpt>
      <trkpt lat="41.699333" lon="1.981910">
        <ele>522.05</ele>
        <time>2012-04-07T12:20:11Z</time>
      </trkpt>
      <trkpt lat="41.699480" lon="1.981722">
        <ele>514.02</ele>
        <time>2012-04-07T12:20:25Z</time>
      </trkpt>
      <trkpt lat="41.699578" lon="1.981530">
        <ele>515.10</ele>
        <time>2012-04-07T12:24:05Z</time>
      </trkpt>
      <trkpt lat="41.699517" lon="1.981404">
        <ele>513.06</ele>
        <time>2012-04-07T12:24:12Z</time>
      </trkpt>
      <trkpt lat="41.699492" lon="1.981257">
        <ele>511.07</ele>
        <time>2012-04-07T12:24:17Z</time>
      </trkpt>
      <trkpt lat="41.699519" lon="1.981100">
        <ele>512.03</ele>
        <time>2012-04-07T12:24:22Z</time>
      </trkpt>
      <trkpt lat="41.699545" lon="1.980972">
        <ele>514.09</ele>
        <time>2012-04-07T12:24:26Z</time>
      </trkpt>
      <trkpt lat="41.699565" lon="1.980834">
        <ele>515.07</ele>
        <time>2012-04-07T12:24:30Z</time>
      </trkpt>
      <trkpt lat="41.699548" lon="1.980686">
        <ele>515.07</ele>
        <time>2012-04-07T12:24:35Z</time>
      </trkpt>
      <trkpt lat="41.699502" lon="1.980555">
        <ele>514.07</ele>
        <time>2012-04-07T12:24:40Z</time>
      </trkpt>
      <trkpt lat="41.699446" lon="1.980428">
        <ele>514.01</ele>
        <time>2012-04-07T12:24:45Z</time>
      </trkpt>
      <trkpt lat="41.699392" lon="1.980315">
        <ele>514.03</ele>
        <time>2012-04-07T12:24:49Z</time>
      </trkpt>
      <trkpt lat="41.699336" lon="1.980201">
        <ele>514.02</ele>
        <time>2012-04-07T12:24:53Z</time>
      </trkpt>
      <trkpt lat="41.699282" lon="1.980087">
        <ele>514.09</ele>
        <time>2012-04-07T12:24:57Z</time>
      </trkpt>
      <trkpt lat="41.699233" lon="1.979970">
        <ele>514.05</ele>
        <time>2012-04-07T12:25:01Z</time>
      </trkpt>
      <trkpt lat="41.699170" lon="1.979834">
        <ele>513.05</ele>
        <time>2012-04-07T12:25:06Z</time>
      </trkpt>
      <trkpt lat="41.699118" lon="1.979717">
        <ele>513.03</ele>
        <time>2012-04-07T12:25:10Z</time>
      </trkpt>
      <trkpt lat="41.699057" lon="1.979589">
        <ele>513.08</ele>
        <time>2012-04-07T12:25:14Z</time>
      </trkpt>
      <trkpt lat="41.699009" lon="1.979462">
        <ele>514.08</ele>
        <time>2012-04-07T12:25:18Z</time>
      </trkpt>
      <trkpt lat="41.698968" lon="1.979337">
        <ele>513.08</ele>
        <time>2012-04-07T12:25:22Z</time>
      </trkpt>
      <trkpt lat="41.698927" lon="1.979184">
        <ele>513.05</ele>
        <time>2012-04-07T12:25:26Z</time>
      </trkpt>
      <trkpt lat="41.698895" lon="1.979032">
        <ele>512.01</ele>
        <time>2012-04-07T12:25:30Z</time>
      </trkpt>
      <trkpt lat="41.698881" lon="1.978868">
        <ele>510.00</ele>
        <time>2012-04-07T12:25:34Z</time>
      </trkpt>
      <trkpt lat="41.698882" lon="1.978705">
        <ele>508.02</ele>
        <time>2012-04-07T12:25:37Z</time>
      </trkpt>
      <trkpt lat="41.698895" lon="1.978557">
        <ele>508.01</ele>
        <time>2012-04-07T12:25:40Z</time>
      </trkpt>
      <trkpt lat="41.698935" lon="1.978416">
        <ele>509.07</ele>
        <time>2012-04-07T12:25:43Z</time>
      </trkpt>
      <trkpt lat="41.698799" lon="1.978559">
        <ele>504.06</ele>
        <time>2012-04-07T15:20:58Z</time>
      </trkpt>
      <trkpt lat="41.698725" lon="1.978549">
        <ele>503.09</ele>
        <time>2012-04-07T15:21:08Z</time>
      </trkpt>
      <trkpt lat="41.698719" lon="1.978561">
        <ele>501.06</ele>
        <time>2012-04-07T15:21:38Z</time>
      </trkpt>
      <trkpt lat="41.698699" lon="1.978628">
        <ele>510.10</ele>
        <time>2012-04-07T15:21:56Z</time>
      </trkpt>
      <trkpt lat="41.698716" lon="1.978769">
        <ele>502.08</ele>
        <time>2012-04-07T15:22:02Z</time>
      </trkpt>
      <trkpt lat="41.698739" lon="1.978907">
        <ele>506.04</ele>
        <time>2012-04-07T15:22:08Z</time>
      </trkpt>
      <trkpt lat="41.698773" lon="1.979060">
        <ele>506.02</ele>
        <time>2012-04-07T15:22:13Z</time>
      </trkpt>
      <trkpt lat="41.698814" lon="1.979193">
        <ele>505.10</ele>
        <time>2012-04-07T15:22:17Z</time>
      </trkpt>
      <trkpt lat="41.698860" lon="1.979328">
        <ele>505.01</ele>
        <time>2012-04-07T15:22:24Z</time>
      </trkpt>
      <trkpt lat="41.698897" lon="1.979460">
        <ele>505.02</ele>
        <time>2012-04-07T15:22:29Z</time>
      </trkpt>
      <trkpt lat="41.698912" lon="1.979590">
        <ele>505.06</ele>
        <time>2012-04-07T15:22:33Z</time>
      </trkpt>
      <trkpt lat="41.698951" lon="1.979701">
        <ele>504.05</ele>
        <time>2012-04-07T15:22:43Z</time>
      </trkpt>
      <trkpt lat="41.698905" lon="1.979762">
        <ele>508.03</ele>
        <time>2012-04-07T15:22:53Z</time>
      </trkpt>
      <trkpt lat="41.698833" lon="1.979662">
        <ele>510.06</ele>
        <time>2012-04-07T15:22:57Z</time>
      </trkpt>
      <trkpt lat="41.698720" lon="1.979596">
        <ele>511.09</ele>
        <time>2012-04-07T15:23:00Z</time>
      </trkpt>
      <trkpt lat="41.698584" lon="1.979664">
        <ele>515.09</ele>
        <time>2012-04-07T15:23:03Z</time>
      </trkpt>
      <trkpt lat="41.698485" lon="1.979755">
        <ele>516.07</ele>
        <time>2012-04-07T15:23:05Z</time>
      </trkpt>
      <trkpt lat="41.698390" lon="1.979820">
        <ele>518.08</ele>
        <time>2012-04-07T15:23:07Z</time>
      </trkpt>
      <trkpt lat="41.698270" lon="1.979882">
        <ele>522.02</ele>
        <time>2012-04-07T15:23:10Z</time>
      </trkpt>
      <trkpt lat="41.698255" lon="1.980023">
        <ele>525.01</ele>
        <time>2012-04-07T15:23:13Z</time>
      </trkpt>
      <trkpt lat="41.698258" lon="1.980193">
        <ele>528.01</ele>
        <time>2012-04-07T15:23:17Z</time>
      </trkpt>
      <trkpt lat="41.698206" lon="1.980335">
        <ele>531.02</ele>
        <time>2012-04-07T15:23:20Z</time>
      </trkpt>
      <trkpt lat="41.698171" lon="1.980498">
        <ele>533.03</ele>
        <time>2012-04-07T15:23:23Z</time>
      </trkpt>
      <trkpt lat="41.698123" lon="1.980627">
        <ele>535.09</ele>
        <time>2012-04-07T15:23:26Z</time>
      </trkpt>
      <trkpt lat="41.698038" lon="1.980753">
        <ele>538.08</ele>
        <time>2012-04-07T15:23:29Z</time>
      </trkpt>
      <trkpt lat="41.698036" lon="1.980953">
        <ele>539.03</ele>
        <time>2012-04-07T15:23:32Z</time>
      </trkpt>
      <trkpt lat="41.698064" lon="1.981082">
        <ele>539.03</ele>
        <time>2012-04-07T15:23:34Z</time>
      </trkpt>
      <trkpt lat="41.698068" lon="1.981263">
        <ele>542.01</ele>
        <time>2012-04-07T15:23:38Z</time>
      </trkpt>
      <trkpt lat="41.697996" lon="1.981358">
        <ele>546.01</ele>
        <time>2012-04-07T15:23:45Z</time>
      </trkpt>
      <trkpt lat="41.697945" lon="1.981230">
        <ele>549.10</ele>
        <time>2012-04-07T15:23:48Z</time>
      </trkpt>
      <trkpt lat="41.697937" lon="1.981129">
        <ele>552.01</ele>
        <time>2012-04-07T15:24:07Z</time>
      </trkpt>
      <trkpt lat="41.697870" lon="1.981235">
        <ele>551.02</ele>
        <time>2012-04-07T15:24:12Z</time>
      </trkpt>
      <trkpt lat="41.697792" lon="1.981388">
        <ele>554.00</ele>
        <time>2012-04-07T15:24:21Z</time>
      </trkpt>
      <trkpt lat="41.697779" lon="1.981363">
        <ele>553.06</ele>
        <time>2012-04-07T15:24:51Z</time>
      </trkpt>
      <trkpt lat="41.697780" lon="1.981220">
        <ele>554.08</ele>
        <time>2012-04-07T15:24:56Z</time>
      </trkpt>
      <trkpt lat="41.697744" lon="1.981067">
        <ele>555.07</ele>
        <time>2012-04-07T15:25:00Z</time>
      </trkpt>
      <trkpt lat="41.697656" lon="1.980979">
        <ele>556.10</ele>
        <time>2012-04-07T15:25:04Z</time>
      </trkpt>
      <trkpt lat="41.697555" lon="1.980929">
        <ele>565.05</ele>
        <time>2012-04-07T15:25:09Z</time>
      </trkpt>
      <trkpt lat="41.697440" lon="1.980902">
        <ele>568.03</ele>
        <time>2012-04-07T15:25:14Z</time>
      </trkpt>
      <trkpt lat="41.697338" lon="1.980891">
        <ele>569.02</ele>
        <time>2012-04-07T15:25:18Z</time>
      </trkpt>
      <trkpt lat="41.697220" lon="1.980851">
        <ele>573.09</ele>
        <time>2012-04-07T15:25:22Z</time>
      </trkpt>
      <trkpt lat="41.697120" lon="1.980849">
        <ele>573.01</ele>
        <time>2012-04-07T15:25:31Z</time>
      </trkpt>
      <trkpt lat="41.697154" lon="1.980981">
        <ele>568.02</ele>
        <time>2012-04-07T15:25:41Z</time>
      </trkpt>
      <trkpt lat="41.697170" lon="1.981055">
        <ele>575.00</ele>
        <time>2012-04-07T15:25:57Z</time>
      </trkpt>
      <trkpt lat="41.697187" lon="1.981092">
        <ele>571.06</ele>
        <time>2012-04-07T15:26:27Z</time>
      </trkpt>
      <trkpt lat="41.697185" lon="1.981083">
        <ele>570.05</ele>
        <time>2012-04-07T15:26:57Z</time>
      </trkpt>
      <trkpt lat="41.697200" lon="1.981140">
        <ele>575.09</ele>
        <time>2012-04-07T15:27:27Z</time>
      </trkpt>
      <trkpt lat="41.697134" lon="1.981255">
        <ele>586.09</ele>
        <time>2012-04-07T15:27:35Z</time>
      </trkpt>
      <trkpt lat="41.697047" lon="1.981213">
        <ele>585.04</ele>
        <time>2012-04-07T15:27:45Z</time>
      </trkpt>
      <trkpt lat="41.696988" lon="1.981191">
        <ele>586.03</ele>
        <time>2012-04-07T15:28:11Z</time>
      </trkpt>
      <trkpt lat="41.696945" lon="1.981056">
        <ele>585.02</ele>
        <time>2012-04-07T15:28:17Z</time>
      </trkpt>
      <trkpt lat="41.696885" lon="1.980952">
        <ele>587.08</ele>
        <time>2012-04-07T15:28:21Z</time>
      </trkpt>
      <trkpt lat="41.696802" lon="1.980857">
        <ele>590.01</ele>
        <time>2012-04-07T15:28:25Z</time>
      </trkpt>
      <trkpt lat="41.696697" lon="1.980768">
        <ele>591.02</ele>
        <time>2012-04-07T15:28:29Z</time>
      </trkpt>
      <trkpt lat="41.696600" lon="1.980682">
        <ele>594.00</ele>
        <time>2012-04-07T15:28:33Z</time>
      </trkpt>
      <trkpt lat="41.696495" lon="1.980617">
        <ele>598.07</ele>
        <time>2012-04-07T15:28:38Z</time>
      </trkpt>
      <trkpt lat="41.696405" lon="1.980573">
        <ele>610.08</ele>
        <time>2012-04-07T15:28:48Z</time>
      </trkpt>
      <trkpt lat="41.696345" lon="1.980565">
        <ele>600.06</ele>
        <time>2012-04-07T15:29:01Z</time>
      </trkpt>
      <trkpt lat="41.696254" lon="1.980523">
        <ele>603.08</ele>
        <time>2012-04-07T15:29:11Z</time>
      </trkpt>
      <trkpt lat="41.696159" lon="1.980479">
        <ele>604.02</ele>
        <time>2012-04-07T15:29:16Z</time>
      </trkpt>
      <trkpt lat="41.696055" lon="1.980447">
        <ele>609.03</ele>
        <time>2012-04-07T15:29:22Z</time>
      </trkpt>
      <trkpt lat="41.695951" lon="1.980437">
        <ele>610.01</ele>
        <time>2012-04-07T15:29:27Z</time>
      </trkpt>
      <trkpt lat="41.695840" lon="1.980408">
        <ele>610.07</ele>
        <time>2012-04-07T15:29:32Z</time>
      </trkpt>
      <trkpt lat="41.695738" lon="1.980350">
        <ele>614.01</ele>
        <time>2012-04-07T15:29:37Z</time>
      </trkpt>
      <trkpt lat="41.695690" lon="1.980226">
        <ele>618.02</ele>
        <time>2012-04-07T15:29:41Z</time>
      </trkpt>
      <trkpt lat="41.695603" lon="1.980122">
        <ele>625.09</ele>
        <time>2012-04-07T15:29:48Z</time>
      </trkpt>
      <trkpt lat="41.695544" lon="1.979990">
        <ele>630.08</ele>
        <time>2012-04-07T15:29:54Z</time>
      </trkpt>
      <trkpt lat="41.695474" lon="1.979871">
        <ele>627.04</ele>
        <time>2012-04-07T15:30:03Z</time>
      </trkpt>
      <trkpt lat="41.695461" lon="1.979797">
        <ele>627.05</ele>
        <time>2012-04-07T15:30:14Z</time>
      </trkpt>
      <trkpt lat="41.695452" lon="1.979694">
        <ele>632.08</ele>
        <time>2012-04-07T15:30:24Z</time>
      </trkpt>
      <trkpt lat="41.695444" lon="1.979541">
        <ele>638.09</ele>
        <time>2012-04-07T15:30:28Z</time>
      </trkpt>
      <trkpt lat="41.695423" lon="1.979412">
        <ele>638.06</ele>
        <time>2012-04-07T15:30:38Z</time>
      </trkpt>
      <trkpt lat="41.695366" lon="1.979372">
        <ele>637.06</ele>
        <time>2012-04-07T15:30:53Z</time>
      </trkpt>
      <trkpt lat="41.695311" lon="1.979341">
        <ele>636.07</ele>
        <time>2012-04-07T15:31:12Z</time>
      </trkpt>
      <trkpt lat="41.695272" lon="1.979364">
        <ele>638.01</ele>
        <time>2012-04-07T15:31:42Z</time>
      </trkpt>
      <trkpt lat="41.695208" lon="1.979432">
        <ele>643.02</ele>
        <time>2012-04-07T15:31:52Z</time>
      </trkpt>
      <trkpt lat="41.695180" lon="1.979408">
        <ele>648.00</ele>
        <time>2012-04-07T15:32:22Z</time>
      </trkpt>
      <trkpt lat="41.695088" lon="1.979320">
        <ele>647.06</ele>
        <time>2012-04-07T15:32:28Z</time>
      </trkpt>
      <trkpt lat="41.694969" lon="1.979263">
        <ele>647.02</ele>
        <time>2012-04-07T15:32:31Z</time>
      </trkpt>
      <trkpt lat="41.694841" lon="1.979211">
        <ele>654.01</ele>
        <time>2012-04-07T15:32:36Z</time>
      </trkpt>
      <trkpt lat="41.694729" lon="1.979178">
        <ele>653.09</ele>
        <time>2012-04-07T15:32:40Z</time>
      </trkpt>
      <trkpt lat="41.694617" lon="1.979108">
        <ele>650.08</ele>
        <time>2012-04-07T15:32:44Z</time>
      </trkpt>
      <trkpt lat="41.694502" lon="1.979038">
        <ele>652.04</ele>
        <time>2012-04-07T15:32:49Z</time>
      </trkpt>
      <trkpt lat="41.694410" lon="1.978972">
        <ele>652.03</ele>
        <time>2012-04-07T15:32:54Z</time>
      </trkpt>
      <trkpt lat="41.694291" lon="1.978927">
        <ele>653.01</ele>
        <time>2012-04-07T15:32:58Z</time>
      </trkpt>
      <trkpt lat="41.694171" lon="1.978905">
        <ele>653.01</ele>
        <time>2012-04-07T15:33:01Z</time>
      </trkpt>
      <trkpt lat="41.694062" lon="1.978894">
        <ele>655.01</ele>
        <time>2012-04-07T15:33:03Z</time>
      </trkpt>
      <trkpt lat="41.693955" lon="1.978907">
        <ele>657.08</ele>
        <time>2012-04-07T15:33:06Z</time>
      </trkpt>
      <trkpt lat="41.693853" lon="1.978884">
        <ele>657.02</ele>
        <time>2012-04-07T15:33:09Z</time>
      </trkpt>
      <trkpt lat="41.693742" lon="1.978856">
        <ele>663.04</ele>
        <time>2012-04-07T15:33:14Z</time>
      </trkpt>
      <trkpt lat="41.693640" lon="1.978813">
        <ele>666.01</ele>
        <time>2012-04-07T15:33:18Z</time>
      </trkpt>
      <trkpt lat="41.693551" lon="1.978731">
        <ele>659.05</ele>
        <time>2012-04-07T15:33:25Z</time>
      </trkpt>
      <trkpt lat="41.693508" lon="1.978603">
        <ele>661.04</ele>
        <time>2012-04-07T15:33:32Z</time>
      </trkpt>
      <trkpt lat="41.693471" lon="1.978538">
        <ele>663.02</ele>
        <time>2012-04-07T15:33:52Z</time>
      </trkpt>
      <trkpt lat="41.693403" lon="1.978568">
        <ele>669.04</ele>
        <time>2012-04-07T15:34:02Z</time>
      </trkpt>
      <trkpt lat="41.693297" lon="1.978533">
        <ele>671.08</ele>
        <time>2012-04-07T15:34:09Z</time>
      </trkpt>
      <trkpt lat="41.693205" lon="1.978445">
        <ele>670.01</ele>
        <time>2012-04-07T15:34:15Z</time>
      </trkpt>
      <trkpt lat="41.693104" lon="1.978404">
        <ele>671.02</ele>
        <time>2012-04-07T15:34:19Z</time>
      </trkpt>
      <trkpt lat="41.693013" lon="1.978347">
        <ele>670.00</ele>
        <time>2012-04-07T15:34:23Z</time>
      </trkpt>
      <trkpt lat="41.692913" lon="1.978306">
        <ele>672.03</ele>
        <time>2012-04-07T15:34:28Z</time>
      </trkpt>
      <trkpt lat="41.692827" lon="1.978233">
        <ele>675.07</ele>
        <time>2012-04-07T15:34:34Z</time>
      </trkpt>
      <trkpt lat="41.692730" lon="1.978199">
        <ele>686.08</ele>
        <time>2012-04-07T15:34:40Z</time>
      </trkpt>
      <trkpt lat="41.692652" lon="1.978120">
        <ele>685.07</ele>
        <time>2012-04-07T15:34:50Z</time>
      </trkpt>
      <trkpt lat="41.692564" lon="1.978104">
        <ele>688.09</ele>
        <time>2012-04-07T15:35:00Z</time>
      </trkpt>
      <trkpt lat="41.692479" lon="1.978111">
        <ele>692.09</ele>
        <time>2012-04-07T15:35:10Z</time>
      </trkpt>
      <trkpt lat="41.692448" lon="1.978128">
        <ele>695.02</ele>
        <time>2012-04-07T15:35:40Z</time>
      </trkpt>
      <trkpt lat="41.692368" lon="1.978120">
        <ele>686.06</ele>
        <time>2012-04-07T15:35:50Z</time>
      </trkpt>
      <trkpt lat="41.692321" lon="1.978079">
        <ele>693.01</ele>
        <time>2012-04-07T15:36:05Z</time>
      </trkpt>
      <trkpt lat="41.692362" lon="1.978086">
        <ele>687.02</ele>
        <time>2012-04-07T15:36:35Z</time>
      </trkpt>
      <trkpt lat="41.692313" lon="1.978047">
        <ele>691.02</ele>
        <time>2012-04-07T15:36:53Z</time>
      </trkpt>
      <trkpt lat="41.692259" lon="1.977924">
        <ele>696.08</ele>
        <time>2012-04-07T15:36:59Z</time>
      </trkpt>
      <trkpt lat="41.692171" lon="1.977817">
        <ele>696.07</ele>
        <time>2012-04-07T15:37:05Z</time>
      </trkpt>
      <trkpt lat="41.692099" lon="1.977705">
        <ele>698.06</ele>
        <time>2012-04-07T15:37:13Z</time>
      </trkpt>
      <trkpt lat="41.692025" lon="1.977677">
        <ele>708.09</ele>
        <time>2012-04-07T15:37:23Z</time>
      </trkpt>
      <trkpt lat="41.692004" lon="1.977595">
        <ele>698.05</ele>
        <time>2012-04-07T15:37:42Z</time>
      </trkpt>
      <trkpt lat="41.691947" lon="1.977602">
        <ele>703.04</ele>
        <time>2012-04-07T15:37:52Z</time>
      </trkpt>
      <trkpt lat="41.691917" lon="1.977501">
        <ele>704.01</ele>
        <time>2012-04-07T15:38:02Z</time>
      </trkpt>
      <trkpt lat="41.691843" lon="1.977411">
        <ele>707.07</ele>
        <time>2012-04-07T15:38:09Z</time>
      </trkpt>
      <trkpt lat="41.691786" lon="1.977409">
        <ele>715.01</ele>
        <time>2012-04-07T15:38:33Z</time>
      </trkpt>
      <trkpt lat="41.691778" lon="1.977409">
        <ele>719.02</ele>
        <time>2012-04-07T15:39:03Z</time>
      </trkpt>
      <trkpt lat="41.691717" lon="1.977468">
        <ele>711.06</ele>
        <time>2012-04-07T15:39:13Z</time>
      </trkpt>
      <trkpt lat="41.691610" lon="1.977543">
        <ele>710.09</ele>
        <time>2012-04-07T15:39:17Z</time>
      </trkpt>
      <trkpt lat="41.691491" lon="1.977587">
        <ele>710.07</ele>
        <time>2012-04-07T15:39:21Z</time>
      </trkpt>
      <trkpt lat="41.691387" lon="1.977591">
        <ele>711.05</ele>
        <time>2012-04-07T15:39:23Z</time>
      </trkpt>
      <trkpt lat="41.691284" lon="1.977578">
        <ele>706.09</ele>
        <time>2012-04-07T15:39:26Z</time>
      </trkpt>
      <trkpt lat="41.691176" lon="1.977590">
        <ele>711.02</ele>
        <time>2012-04-07T15:39:30Z</time>
      </trkpt>
      <trkpt lat="41.691068" lon="1.977580">
        <ele>714.07</ele>
        <time>2012-04-07T15:39:40Z</time>
      </trkpt>
      <trkpt lat="41.690968" lon="1.977554">
        <ele>714.07</ele>
        <time>2012-04-07T15:39:45Z</time>
      </trkpt>
      <trkpt lat="41.690851" lon="1.977566">
        <ele>714.10</ele>
        <time>2012-04-07T15:39:49Z</time>
      </trkpt>
      <trkpt lat="41.690733" lon="1.977542">
        <ele>716.01</ele>
        <time>2012-04-07T15:39:53Z</time>
      </trkpt>
      <trkpt lat="41.690618" lon="1.977515">
        <ele>716.03</ele>
        <time>2012-04-07T15:39:58Z</time>
      </trkpt>
      <trkpt lat="41.690518" lon="1.977509">
        <ele>713.03</ele>
        <time>2012-04-07T15:40:03Z</time>
      </trkpt>
      <trkpt lat="41.690425" lon="1.977484">
        <ele>714.08</ele>
        <time>2012-04-07T15:40:13Z</time>
      </trkpt>
      <trkpt lat="41.690367" lon="1.977473">
        <ele>716.04</ele>
        <time>2012-04-07T15:40:24Z</time>
      </trkpt>
      <trkpt lat="41.690306" lon="1.977472">
        <ele>719.08</ele>
        <time>2012-04-07T15:40:38Z</time>
      </trkpt>
      <trkpt lat="41.690271" lon="1.977466">
        <ele>714.04</ele>
        <time>2012-04-07T15:41:08Z</time>
      </trkpt>
      <trkpt lat="41.690274" lon="1.977460">
        <ele>721.02</ele>
        <time>2012-04-07T15:41:38Z</time>
      </trkpt>
      <trkpt lat="41.690195" lon="1.977405">
        <ele>721.03</ele>
        <time>2012-04-07T15:41:48Z</time>
      </trkpt>
      <trkpt lat="41.690098" lon="1.977309">
        <ele>723.06</ele>
        <time>2012-04-07T15:41:51Z</time>
      </trkpt>
      <trkpt lat="41.690003" lon="1.977219">
        <ele>724.09</ele>
        <time>2012-04-07T15:41:55Z</time>
      </trkpt>
      <trkpt lat="41.689899" lon="1.977181">
        <ele>723.01</ele>
        <time>2012-04-07T15:42:00Z</time>
      </trkpt>
      <trkpt lat="41.689783" lon="1.977137">
        <ele>714.01</ele>
        <time>2012-04-07T15:42:06Z</time>
      </trkpt>
      <trkpt lat="41.689680" lon="1.977088">
        <ele>718.08</ele>
        <time>2012-04-07T15:42:11Z</time>
      </trkpt>
      <trkpt lat="41.689587" lon="1.977022">
        <ele>714.02</ele>
        <time>2012-04-07T15:42:16Z</time>
      </trkpt>
      <trkpt lat="41.689484" lon="1.976979">
        <ele>718.07</ele>
        <time>2012-04-07T15:42:21Z</time>
      </trkpt>
      <trkpt lat="41.689385" lon="1.976924">
        <ele>721.04</ele>
        <time>2012-04-07T15:42:26Z</time>
      </trkpt>
      <trkpt lat="41.689239" lon="1.976806">
        <ele>718.05</ele>
        <time>2012-04-07T15:42:32Z</time>
      </trkpt>
      <trkpt lat="41.689155" lon="1.976723">
        <ele>720.10</ele>
        <time>2012-04-07T15:42:37Z</time>
      </trkpt>
      <trkpt lat="41.689073" lon="1.976645">
        <ele>724.05</ele>
        <time>2012-04-07T15:42:42Z</time>
      </trkpt>
      <trkpt lat="41.688979" lon="1.976556">
        <ele>719.05</ele>
        <time>2012-04-07T15:42:50Z</time>
      </trkpt>
      <trkpt lat="41.688868" lon="1.976517">
        <ele>720.09</ele>
        <time>2012-04-07T15:42:59Z</time>
      </trkpt>
      <trkpt lat="41.688918" lon="1.976438">
        <ele>719.01</ele>
        <time>2012-04-07T15:43:09Z</time>
      </trkpt>
      <trkpt lat="41.688910" lon="1.976360">
        <ele>729.01</ele>
        <time>2012-04-07T15:43:19Z</time>
      </trkpt>
      <trkpt lat="41.688823" lon="1.976284">
        <ele>726.09</ele>
        <time>2012-04-07T15:43:29Z</time>
      </trkpt>
      <trkpt lat="41.688778" lon="1.976187">
        <ele>732.03</ele>
        <time>2012-04-07T15:43:39Z</time>
      </trkpt>
      <trkpt lat="41.688731" lon="1.976136">
        <ele>731.04</ele>
        <time>2012-04-07T15:43:57Z</time>
      </trkpt>
      <trkpt lat="41.688678" lon="1.976104">
        <ele>751.09</ele>
        <time>2012-04-07T15:44:11Z</time>
      </trkpt>
      <trkpt lat="41.688623" lon="1.976106">
        <ele>761.05</ele>
        <time>2012-04-07T15:44:30Z</time>
      </trkpt>
      <trkpt lat="41.688644" lon="1.976118">
        <ele>762.06</ele>
        <time>2012-04-07T15:45:00Z</time>
      </trkpt>
      <trkpt lat="41.688613" lon="1.976116">
        <ele>757.08</ele>
        <time>2012-04-07T15:45:30Z</time>
      </trkpt>
      <trkpt lat="41.688575" lon="1.976062">
        <ele>742.03</ele>
        <time>2012-04-07T15:46:00Z</time>
      </trkpt>
      <trkpt lat="41.688556" lon="1.976065">
        <ele>742.06</ele>
        <time>2012-04-07T15:46:30Z</time>
      </trkpt>
      <trkpt lat="41.688603" lon="1.976027">
        <ele>739.01</ele>
        <time>2012-04-07T15:46:49Z</time>
      </trkpt>
      <trkpt lat="41.688618" lon="1.975955">
        <ele>741.03</ele>
        <time>2012-04-07T15:47:03Z</time>
      </trkpt>
      <trkpt lat="41.688565" lon="1.975902">
        <ele>740.06</ele>
        <time>2012-04-07T15:47:13Z</time>
      </trkpt>
      <trkpt lat="41.688564" lon="1.975917">
        <ele>739.08</ele>
        <time>2012-04-07T15:47:43Z</time>
      </trkpt>
      <trkpt lat="41.688573" lon="1.975904">
        <ele>740.05</ele>
        <time>2012-04-07T15:48:13Z</time>
      </trkpt>
      <trkpt lat="41.688571" lon="1.975905">
        <ele>748.08</ele>
        <time>2012-04-07T15:48:43Z</time>
      </trkpt>
      <trkpt lat="41.688519" lon="1.975869">
        <ele>745.01</ele>
        <time>2012-04-07T15:49:04Z</time>
      </trkpt>
      <trkpt lat="41.688507" lon="1.975852">
        <ele>748.05</ele>
        <time>2012-04-07T15:49:34Z</time>
      </trkpt>
      <trkpt lat="41.688423" lon="1.975770">
        <ele>748.04</ele>
        <time>2012-04-07T15:49:38Z</time>
      </trkpt>
      <trkpt lat="41.688341" lon="1.975679">
        <ele>752.09</ele>
        <time>2012-04-07T15:49:43Z</time>
      </trkpt>
      <trkpt lat="41.688240" lon="1.975630">
        <ele>753.01</ele>
        <time>2012-04-07T15:49:49Z</time>
      </trkpt>
      <trkpt lat="41.688136" lon="1.975665">
        <ele>754.01</ele>
        <time>2012-04-07T15:49:54Z</time>
      </trkpt>
      <trkpt lat="41.688040" lon="1.975732">
        <ele>754.01</ele>
        <time>2012-04-07T15:49:57Z</time>
      </trkpt>
      <trkpt lat="41.687929" lon="1.975811">
        <ele>759.04</ele>
        <time>2012-04-07T15:50:01Z</time>
      </trkpt>
      <trkpt lat="41.687838" lon="1.975876">
        <ele>762.01</ele>
        <time>2012-04-07T15:50:06Z</time>
      </trkpt>
      <trkpt lat="41.687734" lon="1.975936">
        <ele>767.07</ele>
        <time>2012-04-07T15:50:11Z</time>
      </trkpt>
      <trkpt lat="41.687638" lon="1.975986">
        <ele>763.08</ele>
        <time>2012-04-07T15:50:15Z</time>
      </trkpt>
      <trkpt lat="41.687537" lon="1.976010">
        <ele>766.04</ele>
        <time>2012-04-07T15:50:20Z</time>
      </trkpt>
      <trkpt lat="41.687430" lon="1.976010">
        <ele>760.06</ele>
        <time>2012-04-07T15:50:26Z</time>
      </trkpt>
      <trkpt lat="41.687339" lon="1.975922">
        <ele>762.06</ele>
        <time>2012-04-07T15:50:32Z</time>
      </trkpt>
      <trkpt lat="41.687240" lon="1.975902">
        <ele>766.04</ele>
        <time>2012-04-07T15:50:37Z</time>
      </trkpt>
      <trkpt lat="41.687139" lon="1.975879">
        <ele>762.09</ele>
        <time>2012-04-07T15:50:40Z</time>
      </trkpt>
      <trkpt lat="41.687012" lon="1.975876">
        <ele>763.01</ele>
        <time>2012-04-07T15:50:44Z</time>
      </trkpt>
      <trkpt lat="41.686884" lon="1.975880">
        <ele>762.02</ele>
        <time>2012-04-07T15:50:48Z</time>
      </trkpt>
      <trkpt lat="41.686767" lon="1.975884">
        <ele>767.08</ele>
        <time>2012-04-07T15:50:57Z</time>
      </trkpt>
      <trkpt lat="41.686680" lon="1.975951">
        <ele>769.09</ele>
        <time>2012-04-07T15:51:07Z</time>
      </trkpt>
      <trkpt lat="41.686690" lon="1.976025">
        <ele>779.09</ele>
        <time>2012-04-07T15:51:35Z</time>
      </trkpt>
      <trkpt lat="41.686588" lon="1.976003">
        <ele>779.09</ele>
        <time>2012-04-07T15:51:42Z</time>
      </trkpt>
      <trkpt lat="41.686481" lon="1.975970">
        <ele>783.03</ele>
        <time>2012-04-07T15:51:48Z</time>
      </trkpt>
      <trkpt lat="41.686453" lon="1.975941">
        <ele>780.09</ele>
        <time>2012-04-07T15:52:18Z</time>
      </trkpt>
      <trkpt lat="41.686397" lon="1.975923">
        <ele>778.08</ele>
        <time>2012-04-07T15:52:28Z</time>
      </trkpt>
      <trkpt lat="41.686275" lon="1.975847">
        <ele>777.06</ele>
        <time>2012-04-07T15:52:31Z</time>
      </trkpt>
      <trkpt lat="41.686152" lon="1.975801">
        <ele>778.05</ele>
        <time>2012-04-07T15:52:34Z</time>
      </trkpt>
      <trkpt lat="41.686043" lon="1.975774">
        <ele>779.01</ele>
        <time>2012-04-07T15:52:37Z</time>
      </trkpt>
      <trkpt lat="41.685933" lon="1.975768">
        <ele>785.01</ele>
        <time>2012-04-07T15:52:40Z</time>
      </trkpt>
      <trkpt lat="41.685802" lon="1.975732">
        <ele>785.00</ele>
        <time>2012-04-07T15:52:43Z</time>
      </trkpt>
      <trkpt lat="41.685703" lon="1.975688">
        <ele>791.05</ele>
        <time>2012-04-07T15:52:46Z</time>
      </trkpt>
      <trkpt lat="41.685608" lon="1.975620">
        <ele>790.05</ele>
        <time>2012-04-07T15:52:50Z</time>
      </trkpt>
      <trkpt lat="41.685508" lon="1.975608">
        <ele>793.02</ele>
        <time>2012-04-07T15:52:54Z</time>
      </trkpt>
      <trkpt lat="41.685405" lon="1.975592">
        <ele>793.04</ele>
        <time>2012-04-07T15:52:57Z</time>
      </trkpt>
      <trkpt lat="41.685291" lon="1.975557">
        <ele>787.03</ele>
        <time>2012-04-07T15:53:00Z</time>
      </trkpt>
      <trkpt lat="41.685184" lon="1.975526">
        <ele>789.08</ele>
        <time>2012-04-07T15:53:03Z</time>
      </trkpt>
      <trkpt lat="41.685083" lon="1.975485">
        <ele>790.08</ele>
        <time>2012-04-07T15:53:06Z</time>
      </trkpt>
      <trkpt lat="41.684980" lon="1.975436">
        <ele>791.09</ele>
        <time>2012-04-07T15:53:09Z</time>
      </trkpt>
      <trkpt lat="41.684863" lon="1.975368">
        <ele>794.01</ele>
        <time>2012-04-07T15:53:12Z</time>
      </trkpt>
      <trkpt lat="41.684739" lon="1.975288">
        <ele>792.01</ele>
        <time>2012-04-07T15:53:15Z</time>
      </trkpt>
      <trkpt lat="41.684643" lon="1.975244">
        <ele>792.07</ele>
        <time>2012-04-07T15:53:17Z</time>
      </trkpt>
      <trkpt lat="41.684537" lon="1.975196">
        <ele>791.03</ele>
        <time>2012-04-07T15:53:19Z</time>
      </trkpt>
      <trkpt lat="41.684419" lon="1.975139">
        <ele>792.03</ele>
        <time>2012-04-07T15:53:21Z</time>
      </trkpt>
      <trkpt lat="41.684302" lon="1.975088">
        <ele>795.08</ele>
        <time>2012-04-07T15:53:23Z</time>
      </trkpt>
      <trkpt lat="41.684193" lon="1.975046">
        <ele>793.09</ele>
        <time>2012-04-07T15:53:25Z</time>
      </trkpt>
      <trkpt lat="41.684082" lon="1.975048">
        <ele>794.08</ele>
        <time>2012-04-07T15:53:27Z</time>
      </trkpt>
      <trkpt lat="41.683960" lon="1.975105">
        <ele>795.02</ele>
        <time>2012-04-07T15:53:30Z</time>
      </trkpt>
      <trkpt lat="41.683833" lon="1.975141">
        <ele>793.05</ele>
        <time>2012-04-07T15:53:33Z</time>
      </trkpt>
      <trkpt lat="41.683698" lon="1.975179">
        <ele>794.09</ele>
        <time>2012-04-07T15:53:36Z</time>
      </trkpt>
      <trkpt lat="41.683590" lon="1.975200">
        <ele>793.01</ele>
        <time>2012-04-07T15:53:38Z</time>
      </trkpt>
      <trkpt lat="41.683459" lon="1.975227">
        <ele>793.01</ele>
        <time>2012-04-07T15:53:40Z</time>
      </trkpt>
      <trkpt lat="41.683293" lon="1.975245">
        <ele>791.02</ele>
        <time>2012-04-07T15:53:42Z</time>
      </trkpt>
      <trkpt lat="41.683152" lon="1.975263">
        <ele>795.06</ele>
        <time>2012-04-07T15:53:45Z</time>
      </trkpt>
      <trkpt lat="41.683046" lon="1.975269">
        <ele>798.05</ele>
        <time>2012-04-07T15:53:48Z</time>
      </trkpt>
      <trkpt lat="41.682924" lon="1.975284">
        <ele>796.03</ele>
        <time>2012-04-07T15:53:52Z</time>
      </trkpt>
      <trkpt lat="41.682803" lon="1.975281">
        <ele>802.02</ele>
        <time>2012-04-07T15:53:56Z</time>
      </trkpt>
      <trkpt lat="41.682698" lon="1.975288">
        <ele>804.02</ele>
        <time>2012-04-07T15:54:00Z</time>
      </trkpt>
      <trkpt lat="41.682593" lon="1.975275">
        <ele>805.04</ele>
        <time>2012-04-07T15:54:04Z</time>
      </trkpt>
      <trkpt lat="41.682490" lon="1.975251">
        <ele>805.08</ele>
        <time>2012-04-07T15:54:08Z</time>
      </trkpt>
      <trkpt lat="41.682386" lon="1.975218">
        <ele>805.09</ele>
        <time>2012-04-07T15:54:12Z</time>
      </trkpt>
      <trkpt lat="41.682287" lon="1.975208">
        <ele>807.01</ele>
        <time>2012-04-07T15:54:16Z</time>
      </trkpt>
      <trkpt lat="41.682177" lon="1.975194">
        <ele>806.02</ele>
        <time>2012-04-07T15:54:20Z</time>
      </trkpt>
      <trkpt lat="41.682079" lon="1.975218">
        <ele>808.00</ele>
        <time>2012-04-07T15:54:23Z</time>
      </trkpt>
      <trkpt lat="41.681979" lon="1.975285">
        <ele>808.06</ele>
        <time>2012-04-07T15:54:26Z</time>
      </trkpt>
      <trkpt lat="41.681872" lon="1.975353">
        <ele>810.04</ele>
        <time>2012-04-07T15:54:29Z</time>
      </trkpt>
      <trkpt lat="41.681770" lon="1.975432">
        <ele>811.09</ele>
        <time>2012-04-07T15:54:33Z</time>
      </trkpt>
      <trkpt lat="41.681675" lon="1.975501">
        <ele>812.05</ele>
        <time>2012-04-07T15:54:38Z</time>
      </trkpt>
      <trkpt lat="41.681619" lon="1.975527">
        <ele>810.01</ele>
        <time>2012-04-07T15:54:59Z</time>
      </trkpt>
      <trkpt lat="41.681525" lon="1.975576">
        <ele>810.07</ele>
        <time>2012-04-07T15:55:02Z</time>
      </trkpt>
      <trkpt lat="41.681396" lon="1.975633">
        <ele>813.01</ele>
        <time>2012-04-07T15:55:05Z</time>
      </trkpt>
      <trkpt lat="41.681264" lon="1.975673">
        <ele>813.07</ele>
        <time>2012-04-07T15:55:08Z</time>
      </trkpt>
      <trkpt lat="41.681139" lon="1.975706">
        <ele>812.01</ele>
        <time>2012-04-07T15:55:11Z</time>
      </trkpt>
      <trkpt lat="41.681026" lon="1.975716">
        <ele>814.03</ele>
        <time>2012-04-07T15:55:17Z</time>
      </trkpt>
      <trkpt lat="41.680939" lon="1.975653">
        <ele>817.04</ele>
        <time>2012-04-07T15:55:24Z</time>
      </trkpt>
      <trkpt lat="41.680893" lon="1.975606">
        <ele>818.09</ele>
        <time>2012-04-07T15:55:34Z</time>
      </trkpt>
      <trkpt lat="41.680790" lon="1.975553">
        <ele>816.06</ele>
        <time>2012-04-07T15:55:38Z</time>
      </trkpt>
      <trkpt lat="41.680690" lon="1.975501">
        <ele>815.05</ele>
        <time>2012-04-07T15:55:42Z</time>
      </trkpt>
      <trkpt lat="41.680578" lon="1.975439">
        <ele>818.05</ele>
        <time>2012-04-07T15:55:47Z</time>
      </trkpt>
      <trkpt lat="41.680486" lon="1.975361">
        <ele>823.04</ele>
        <time>2012-04-07T15:55:51Z</time>
      </trkpt>
      <trkpt lat="41.680378" lon="1.975312">
        <ele>826.07</ele>
        <time>2012-04-07T15:55:55Z</time>
      </trkpt>
      <trkpt lat="41.680271" lon="1.975272">
        <ele>827.04</ele>
        <time>2012-04-07T15:55:59Z</time>
      </trkpt>
      <trkpt lat="41.680144" lon="1.975277">
        <ele>828.05</ele>
        <time>2012-04-07T15:56:03Z</time>
      </trkpt>
      <trkpt lat="41.680031" lon="1.975263">
        <ele>828.01</ele>
        <time>2012-04-07T15:56:06Z</time>
      </trkpt>
      <trkpt lat="41.679931" lon="1.975240">
        <ele>827.01</ele>
        <time>2012-04-07T15:56:09Z</time>
      </trkpt>
      <trkpt lat="41.679822" lon="1.975220">
        <ele>825.00</ele>
        <time>2012-04-07T15:56:12Z</time>
      </trkpt>
      <trkpt lat="41.679709" lon="1.975195">
        <ele>825.05</ele>
        <time>2012-04-07T15:56:15Z</time>
      </trkpt>
      <trkpt lat="41.679588" lon="1.975164">
        <ele>828.04</ele>
        <time>2012-04-07T15:56:19Z</time>
      </trkpt>
      <trkpt lat="41.679468" lon="1.975121">
        <ele>828.04</ele>
        <time>2012-04-07T15:56:22Z</time>
      </trkpt>
      <trkpt lat="41.679348" lon="1.975088">
        <ele>827.01</ele>
        <time>2012-04-07T15:56:26Z</time>
      </trkpt>
      <trkpt lat="41.679292" lon="1.975034">
        <ele>833.04</ele>
        <time>2012-04-07T15:56:46Z</time>
      </trkpt>
      <trkpt lat="41.679217" lon="1.975027">
        <ele>831.10</ele>
        <time>2012-04-07T15:56:56Z</time>
      </trkpt>
      <trkpt lat="41.679117" lon="1.974976">
        <ele>830.05</ele>
        <time>2012-04-07T15:56:59Z</time>
      </trkpt>
      <trkpt lat="41.678994" lon="1.974940">
        <ele>831.06</ele>
        <time>2012-04-07T15:57:02Z</time>
      </trkpt>
      <trkpt lat="41.678865" lon="1.974891">
        <ele>831.01</ele>
        <time>2012-04-07T15:57:05Z</time>
      </trkpt>
      <trkpt lat="41.678765" lon="1.974871">
        <ele>831.02</ele>
        <time>2012-04-07T15:57:07Z</time>
      </trkpt>
      <trkpt lat="41.678657" lon="1.974841">
        <ele>832.02</ele>
        <time>2012-04-07T15:57:09Z</time>
      </trkpt>
      <trkpt lat="41.678538" lon="1.974807">
        <ele>833.10</ele>
        <time>2012-04-07T15:57:11Z</time>
      </trkpt>
      <trkpt lat="41.678426" lon="1.974775">
        <ele>833.05</ele>
        <time>2012-04-07T15:57:13Z</time>
      </trkpt>
      <trkpt lat="41.678304" lon="1.974732">
        <ele>834.06</ele>
        <time>2012-04-07T15:57:16Z</time>
      </trkpt>
      <trkpt lat="41.678200" lon="1.974685">
        <ele>837.09</ele>
        <time>2012-04-07T15:57:21Z</time>
      </trkpt>
      <trkpt lat="41.678097" lon="1.974636">
        <ele>837.05</ele>
        <time>2012-04-07T15:57:26Z</time>
      </trkpt>
      <trkpt lat="41.678029" lon="1.974617">
        <ele>840.06</ele>
        <time>2012-04-07T15:57:55Z</time>
      </trkpt>
      <trkpt lat="41.677941" lon="1.974581">
        <ele>844.07</ele>
        <time>2012-04-07T15:58:05Z</time>
      </trkpt>
      <trkpt lat="41.677858" lon="1.974569">
        <ele>847.08</ele>
        <time>2012-04-07T15:58:15Z</time>
      </trkpt>
      <trkpt lat="41.677784" lon="1.974565">
        <ele>851.01</ele>
        <time>2012-04-07T15:58:25Z</time>
      </trkpt>
      <trkpt lat="41.677728" lon="1.974532">
        <ele>858.02</ele>
        <time>2012-04-07T15:58:50Z</time>
      </trkpt>
      <trkpt lat="41.677675" lon="1.974547">
        <ele>860.06</ele>
        <time>2012-04-07T15:59:01Z</time>
      </trkpt>
      <trkpt lat="41.677629" lon="1.974505">
        <ele>858.07</ele>
        <time>2012-04-07T15:59:25Z</time>
      </trkpt>
      <trkpt lat="41.677569" lon="1.974485">
        <ele>861.07</ele>
        <time>2012-04-07T15:59:36Z</time>
      </trkpt>
      <trkpt lat="41.677483" lon="1.974431">
        <ele>862.05</ele>
        <time>2012-04-07T15:59:46Z</time>
      </trkpt>
      <trkpt lat="41.677388" lon="1.974370">
        <ele>868.08</ele>
        <time>2012-04-07T15:59:54Z</time>
      </trkpt>
      <trkpt lat="41.677302" lon="1.974303">
        <ele>868.05</ele>
        <time>2012-04-07T16:00:00Z</time>
      </trkpt>
      <trkpt lat="41.677198" lon="1.974223">
        <ele>868.07</ele>
        <time>2012-04-07T16:00:03Z</time>
      </trkpt>
      <trkpt lat="41.677081" lon="1.974141">
        <ele>868.10</ele>
        <time>2012-04-07T16:00:05Z</time>
      </trkpt>
      <trkpt lat="41.676956" lon="1.974058">
        <ele>869.05</ele>
        <time>2012-04-07T16:00:08Z</time>
      </trkpt>
      <trkpt lat="41.676847" lon="1.973980">
        <ele>871.01</ele>
        <time>2012-04-07T16:00:11Z</time>
      </trkpt>
      <trkpt lat="41.676744" lon="1.973883">
        <ele>870.00</ele>
        <time>2012-04-07T16:00:15Z</time>
      </trkpt>
      <trkpt lat="41.676644" lon="1.973828">
        <ele>869.02</ele>
        <time>2012-04-07T16:00:18Z</time>
      </trkpt>
      <trkpt lat="41.676547" lon="1.973804">
        <ele>869.01</ele>
        <time>2012-04-07T16:00:21Z</time>
      </trkpt>
      <trkpt lat="41.676436" lon="1.973794">
        <ele>867.06</ele>
        <time>2012-04-07T16:00:25Z</time>
      </trkpt>
      <trkpt lat="41.676321" lon="1.973778">
        <ele>869.10</ele>
        <time>2012-04-07T16:00:29Z</time>
      </trkpt>
      <trkpt lat="41.676204" lon="1.973771">
        <ele>868.07</ele>
        <time>2012-04-07T16:00:32Z</time>
      </trkpt>
      <trkpt lat="41.676067" lon="1.973785">
        <ele>872.05</ele>
        <time>2012-04-07T16:00:35Z</time>
      </trkpt>
      <trkpt lat="41.675965" lon="1.973816">
        <ele>872.01</ele>
        <time>2012-04-07T16:00:37Z</time>
      </trkpt>
      <trkpt lat="41.675848" lon="1.973867">
        <ele>872.02</ele>
        <time>2012-04-07T16:00:39Z</time>
      </trkpt>
      <trkpt lat="41.675728" lon="1.973920">
        <ele>873.03</ele>
        <time>2012-04-07T16:00:43Z</time>
      </trkpt>
      <trkpt lat="41.675631" lon="1.973969">
        <ele>875.01</ele>
        <time>2012-04-07T16:00:51Z</time>
      </trkpt>
      <trkpt lat="41.675537" lon="1.974018">
        <ele>872.02</ele>
        <time>2012-04-07T16:00:56Z</time>
      </trkpt>
      <trkpt lat="41.675426" lon="1.974086">
        <ele>874.09</ele>
        <time>2012-04-07T16:01:01Z</time>
      </trkpt>
      <trkpt lat="41.675311" lon="1.974128">
        <ele>875.05</ele>
        <time>2012-04-07T16:01:09Z</time>
      </trkpt>
      <trkpt lat="41.675221" lon="1.974156">
        <ele>872.04</ele>
        <time>2012-04-07T16:01:19Z</time>
      </trkpt>
      <trkpt lat="41.675110" lon="1.974164">
        <ele>874.03</ele>
        <time>2012-04-07T16:01:23Z</time>
      </trkpt>
      <trkpt lat="41.674995" lon="1.974131">
        <ele>881.09</ele>
        <time>2012-04-07T16:01:28Z</time>
      </trkpt>
      <trkpt lat="41.674893" lon="1.974069">
        <ele>882.03</ele>
        <time>2012-04-07T16:01:32Z</time>
      </trkpt>
      <trkpt lat="41.674798" lon="1.973992">
        <ele>881.08</ele>
        <time>2012-04-07T16:01:36Z</time>
      </trkpt>
      <trkpt lat="41.674705" lon="1.973923">
        <ele>876.09</ele>
        <time>2012-04-07T16:01:40Z</time>
      </trkpt>
      <trkpt lat="41.674595" lon="1.973896">
        <ele>877.04</ele>
        <time>2012-04-07T16:01:44Z</time>
      </trkpt>
      <trkpt lat="41.674470" lon="1.973896">
        <ele>879.01</ele>
        <time>2012-04-07T16:01:48Z</time>
      </trkpt>
      <trkpt lat="41.674361" lon="1.973894">
        <ele>881.01</ele>
        <time>2012-04-07T16:01:51Z</time>
      </trkpt>
      <trkpt lat="41.674241" lon="1.973889">
        <ele>881.07</ele>
        <time>2012-04-07T16:01:54Z</time>
      </trkpt>
      <trkpt lat="41.674116" lon="1.973887">
        <ele>880.03</ele>
        <time>2012-04-07T16:01:57Z</time>
      </trkpt>
      <trkpt lat="41.673978" lon="1.973880">
        <ele>886.10</ele>
        <time>2012-04-07T16:02:01Z</time>
      </trkpt>
      <trkpt lat="41.673871" lon="1.973907">
        <ele>887.04</ele>
        <time>2012-04-07T16:02:05Z</time>
      </trkpt>
      <trkpt lat="41.673773" lon="1.973964">
        <ele>886.05</ele>
        <time>2012-04-07T16:02:11Z</time>
      </trkpt>
      <trkpt lat="41.673702" lon="1.974062">
        <ele>884.08</ele>
        <time>2012-04-07T16:02:16Z</time>
      </trkpt>
      <trkpt lat="41.673606" lon="1.974135">
        <ele>884.09</ele>
        <time>2012-04-07T16:02:20Z</time>
      </trkpt>
      <trkpt lat="41.673501" lon="1.974148">
        <ele>881.05</ele>
        <time>2012-04-07T16:02:23Z</time>
      </trkpt>
      <trkpt lat="41.673373" lon="1.974120">
        <ele>884.09</ele>
        <time>2012-04-07T16:02:27Z</time>
      </trkpt>
      <trkpt lat="41.673257" lon="1.974050">
        <ele>881.01</ele>
        <time>2012-04-07T16:02:31Z</time>
      </trkpt>
      <trkpt lat="41.673156" lon="1.973990">
        <ele>877.01</ele>
        <time>2012-04-07T16:02:35Z</time>
      </trkpt>
      <trkpt lat="41.673053" lon="1.973969">
        <ele>879.05</ele>
        <time>2012-04-07T16:02:39Z</time>
      </trkpt>
      <trkpt lat="41.672955" lon="1.973920">
        <ele>880.03</ele>
        <time>2012-04-07T16:02:44Z</time>
      </trkpt>
      <trkpt lat="41.672947" lon="1.973883">
        <ele>885.06</ele>
        <time>2012-04-07T16:03:14Z</time>
      </trkpt>
      <trkpt lat="41.672986" lon="1.973910">
        <ele>889.03</ele>
        <time>2012-04-07T16:03:44Z</time>
      </trkpt>
      <trkpt lat="41.672886" lon="1.973889">
        <ele>887.06</ele>
        <time>2012-04-07T16:03:47Z</time>
      </trkpt>
      <trkpt lat="41.672784" lon="1.973850">
        <ele>886.07</ele>
        <time>2012-04-07T16:03:49Z</time>
      </trkpt>
      <trkpt lat="41.672673" lon="1.973797">
        <ele>886.08</ele>
        <time>2012-04-07T16:03:51Z</time>
      </trkpt>
      <trkpt lat="41.672559" lon="1.973758">
        <ele>886.08</ele>
        <time>2012-04-07T16:03:53Z</time>
      </trkpt>
      <trkpt lat="41.672440" lon="1.973733">
        <ele>887.08</ele>
        <time>2012-04-07T16:03:55Z</time>
      </trkpt>
      <trkpt lat="41.672321" lon="1.973713">
        <ele>888.01</ele>
        <time>2012-04-07T16:03:57Z</time>
      </trkpt>
      <trkpt lat="41.672208" lon="1.973688">
        <ele>887.03</ele>
        <time>2012-04-07T16:03:59Z</time>
      </trkpt>
      <trkpt lat="41.672093" lon="1.973657">
        <ele>888.01</ele>
        <time>2012-04-07T16:04:01Z</time>
      </trkpt>
      <trkpt lat="41.671978" lon="1.973646">
        <ele>890.10</ele>
        <time>2012-04-07T16:04:03Z</time>
      </trkpt>
      <trkpt lat="41.671870" lon="1.973611">
        <ele>891.03</ele>
        <time>2012-04-07T16:04:05Z</time>
      </trkpt>
      <trkpt lat="41.671776" lon="1.973554">
        <ele>891.01</ele>
        <time>2012-04-07T16:04:07Z</time>
      </trkpt>
      <trkpt lat="41.671641" lon="1.973490">
        <ele>893.01</ele>
        <time>2012-04-07T16:04:10Z</time>
      </trkpt>
      <trkpt lat="41.671504" lon="1.973453">
        <ele>896.09</ele>
        <time>2012-04-07T16:04:13Z</time>
      </trkpt>
      <trkpt lat="41.671365" lon="1.973441">
        <ele>897.02</ele>
        <time>2012-04-07T16:04:16Z</time>
      </trkpt>
      <trkpt lat="41.671221" lon="1.973416">
        <ele>900.09</ele>
        <time>2012-04-07T16:04:19Z</time>
      </trkpt>
      <trkpt lat="41.671123" lon="1.973376">
        <ele>901.01</ele>
        <time>2012-04-07T16:04:21Z</time>
      </trkpt>
      <trkpt lat="41.671025" lon="1.973323">
        <ele>900.01</ele>
        <time>2012-04-07T16:04:23Z</time>
      </trkpt>
      <trkpt lat="41.670888" lon="1.973240">
        <ele>898.01</ele>
        <time>2012-04-07T16:04:26Z</time>
      </trkpt>
      <trkpt lat="41.670779" lon="1.973197">
        <ele>897.04</ele>
        <time>2012-04-07T16:04:29Z</time>
      </trkpt>
      <trkpt lat="41.670664" lon="1.973160">
        <ele>899.01</ele>
        <time>2012-04-07T16:04:33Z</time>
      </trkpt>
      <trkpt lat="41.670559" lon="1.973126">
        <ele>899.02</ele>
        <time>2012-04-07T16:04:37Z</time>
      </trkpt>
      <trkpt lat="41.670452" lon="1.973103">
        <ele>902.04</ele>
        <time>2012-04-07T16:04:41Z</time>
      </trkpt>
      <trkpt lat="41.670352" lon="1.973093">
        <ele>902.01</ele>
        <time>2012-04-07T16:04:45Z</time>
      </trkpt>
      <trkpt lat="41.670248" lon="1.973078">
        <ele>902.07</ele>
        <time>2012-04-07T16:04:49Z</time>
      </trkpt>
      <trkpt lat="41.670133" lon="1.973063">
        <ele>900.03</ele>
        <time>2012-04-07T16:04:53Z</time>
      </trkpt>
      <trkpt lat="41.670030" lon="1.973036">
        <ele>901.04</ele>
        <time>2012-04-07T16:04:57Z</time>
      </trkpt>
      <trkpt lat="41.669913" lon="1.973026">
        <ele>905.02</ele>
        <time>2012-04-07T16:05:03Z</time>
      </trkpt>
      <trkpt lat="41.669808" lon="1.973014">
        <ele>909.01</ele>
        <time>2012-04-07T16:05:08Z</time>
      </trkpt>
      <trkpt lat="41.669713" lon="1.972971">
        <ele>917.02</ele>
        <time>2012-04-07T16:05:13Z</time>
      </trkpt>
      <trkpt lat="41.669594" lon="1.972950">
        <ele>918.01</ele>
        <time>2012-04-07T16:05:19Z</time>
      </trkpt>
      <trkpt lat="41.669501" lon="1.972902">
        <ele>917.02</ele>
        <time>2012-04-07T16:05:29Z</time>
      </trkpt>
      <trkpt lat="41.669395" lon="1.972878">
        <ele>928.10</ele>
        <time>2012-04-07T16:05:37Z</time>
      </trkpt>
      <trkpt lat="41.669357" lon="1.972822">
        <ele>923.07</ele>
        <time>2012-04-07T16:05:47Z</time>
      </trkpt>
      <trkpt lat="41.669301" lon="1.972827">
        <ele>925.02</ele>
        <time>2012-04-07T16:05:57Z</time>
      </trkpt>
      <trkpt lat="41.669223" lon="1.972825">
        <ele>920.08</ele>
        <time>2012-04-07T16:06:07Z</time>
      </trkpt>
      <trkpt lat="41.669179" lon="1.972765">
        <ele>922.04</ele>
        <time>2012-04-07T16:06:26Z</time>
      </trkpt>
      <trkpt lat="41.669180" lon="1.972745">
        <ele>919.04</ele>
        <time>2012-04-07T16:06:56Z</time>
      </trkpt>
      <trkpt lat="41.669114" lon="1.972726">
        <ele>920.03</ele>
        <time>2012-04-07T16:07:06Z</time>
      </trkpt>
      <trkpt lat="41.669010" lon="1.972730">
        <ele>919.01</ele>
        <time>2012-04-07T16:07:10Z</time>
      </trkpt>
      <trkpt lat="41.668895" lon="1.972708">
        <ele>919.01</ele>
        <time>2012-04-07T16:07:14Z</time>
      </trkpt>
      <trkpt lat="41.668800" lon="1.972671">
        <ele>927.03</ele>
        <time>2012-04-07T16:07:17Z</time>
      </trkpt>
      <trkpt lat="41.668702" lon="1.972593">
        <ele>927.02</ele>
        <time>2012-04-07T16:07:21Z</time>
      </trkpt>
      <trkpt lat="41.668586" lon="1.972552">
        <ele>929.03</ele>
        <time>2012-04-07T16:07:25Z</time>
      </trkpt>
      <trkpt lat="41.668468" lon="1.972507">
        <ele>928.03</ele>
        <time>2012-04-07T16:07:29Z</time>
      </trkpt>
      <trkpt lat="41.668364" lon="1.972475">
        <ele>929.10</ele>
        <time>2012-04-07T16:07:32Z</time>
      </trkpt>
      <trkpt lat="41.668245" lon="1.972456">
        <ele>923.04</ele>
        <time>2012-04-07T16:07:36Z</time>
      </trkpt>
      <trkpt lat="41.668134" lon="1.972482">
        <ele>922.10</ele>
        <time>2012-04-07T16:07:42Z</time>
      </trkpt>
      <trkpt lat="41.668019" lon="1.972444">
        <ele>917.05</ele>
        <time>2012-04-07T16:07:46Z</time>
      </trkpt>
      <trkpt lat="41.667914" lon="1.972377">
        <ele>922.09</ele>
        <time>2012-04-07T16:07:50Z</time>
      </trkpt>
      <trkpt lat="41.667815" lon="1.972300">
        <ele>924.01</ele>
        <time>2012-04-07T16:07:54Z</time>
      </trkpt>
      <trkpt lat="41.667709" lon="1.972255">
        <ele>925.03</ele>
        <time>2012-04-07T16:07:58Z</time>
      </trkpt>
      <trkpt lat="41.667602" lon="1.972178">
        <ele>926.06</ele>
        <time>2012-04-07T16:08:03Z</time>
      </trkpt>
      <trkpt lat="41.667547" lon="1.972061">
        <ele>923.09</ele>
        <time>2012-04-07T16:08:07Z</time>
      </trkpt>
      <trkpt lat="41.667494" lon="1.971933">
        <ele>925.10</ele>
        <time>2012-04-07T16:08:11Z</time>
      </trkpt>
      <trkpt lat="41.667426" lon="1.971793">
        <ele>930.04</ele>
        <time>2012-04-07T16:08:15Z</time>
      </trkpt>
      <trkpt lat="41.667316" lon="1.971719">
        <ele>933.05</ele>
        <time>2012-04-07T16:08:19Z</time>
      </trkpt>
      <trkpt lat="41.667208" lon="1.971718">
        <ele>938.08</ele>
        <time>2012-04-07T16:08:23Z</time>
      </trkpt>
      <trkpt lat="41.667100" lon="1.971708">
        <ele>939.09</ele>
        <time>2012-04-07T16:08:27Z</time>
      </trkpt>
      <trkpt lat="41.667007" lon="1.971624">
        <ele>937.02</ele>
        <time>2012-04-07T16:08:32Z</time>
      </trkpt>
      <trkpt lat="41.666931" lon="1.971527">
        <ele>941.05</ele>
        <time>2012-04-07T16:08:37Z</time>
      </trkpt>
      <trkpt lat="41.666825" lon="1.971517">
        <ele>944.01</ele>
        <time>2012-04-07T16:08:41Z</time>
      </trkpt>
      <trkpt lat="41.666713" lon="1.971542">
        <ele>949.02</ele>
        <time>2012-04-07T16:08:44Z</time>
      </trkpt>
      <trkpt lat="41.666621" lon="1.971600">
        <ele>946.00</ele>
        <time>2012-04-07T16:08:47Z</time>
      </trkpt>
      <trkpt lat="41.666527" lon="1.971689">
        <ele>945.06</ele>
        <time>2012-04-07T16:08:52Z</time>
      </trkpt>
      <trkpt lat="41.666439" lon="1.971782">
        <ele>945.04</ele>
        <time>2012-04-07T16:08:57Z</time>
      </trkpt>
      <trkpt lat="41.666348" lon="1.971871">
        <ele>949.08</ele>
        <time>2012-04-07T16:09:02Z</time>
      </trkpt>
      <trkpt lat="41.666235" lon="1.971917">
        <ele>948.09</ele>
        <time>2012-04-07T16:09:07Z</time>
      </trkpt>
      <trkpt lat="41.666135" lon="1.971956">
        <ele>950.08</ele>
        <time>2012-04-07T16:09:11Z</time>
      </trkpt>
      <trkpt lat="41.666035" lon="1.971980">
        <ele>952.08</ele>
        <time>2012-04-07T16:09:15Z</time>
      </trkpt>
      <trkpt lat="41.665930" lon="1.971995">
        <ele>952.03</ele>
        <time>2012-04-07T16:09:19Z</time>
      </trkpt>
      <trkpt lat="41.665806" lon="1.971973">
        <ele>952.05</ele>
        <time>2012-04-07T16:09:26Z</time>
      </trkpt>
      <trkpt lat="41.665716" lon="1.971904">
        <ele>951.01</ele>
        <time>2012-04-07T16:09:33Z</time>
      </trkpt>
      <trkpt lat="41.665621" lon="1.971843">
        <ele>953.01</ele>
        <time>2012-04-07T16:09:39Z</time>
      </trkpt>
      <trkpt lat="41.665520" lon="1.971813">
        <ele>952.04</ele>
        <time>2012-04-07T16:09:48Z</time>
      </trkpt>
      <trkpt lat="41.665461" lon="1.971839">
        <ele>958.07</ele>
        <time>2012-04-07T16:10:16Z</time>
      </trkpt>
      <trkpt lat="41.665373" lon="1.971754">
        <ele>957.09</ele>
        <time>2012-04-07T16:10:24Z</time>
      </trkpt>
      <trkpt lat="41.665299" lon="1.971642">
        <ele>957.06</ele>
        <time>2012-04-07T16:10:30Z</time>
      </trkpt>
      <trkpt lat="41.665227" lon="1.971538">
        <ele>959.10</ele>
        <time>2012-04-07T16:10:36Z</time>
      </trkpt>
      <trkpt lat="41.665136" lon="1.971446">
        <ele>954.02</ele>
        <time>2012-04-07T16:10:42Z</time>
      </trkpt>
      <trkpt lat="41.665063" lon="1.971356">
        <ele>946.05</ele>
        <time>2012-04-07T16:10:47Z</time>
      </trkpt>
      <trkpt lat="41.664961" lon="1.971293">
        <ele>946.04</ele>
        <time>2012-04-07T16:10:53Z</time>
      </trkpt>
      <trkpt lat="41.664854" lon="1.971297">
        <ele>944.05</ele>
        <time>2012-04-07T16:11:00Z</time>
      </trkpt>
      <trkpt lat="41.664747" lon="1.971317">
        <ele>949.01</ele>
        <time>2012-04-07T16:11:06Z</time>
      </trkpt>
      <trkpt lat="41.664637" lon="1.971334">
        <ele>950.01</ele>
        <time>2012-04-07T16:11:10Z</time>
      </trkpt>
      <trkpt lat="41.664540" lon="1.971382">
        <ele>946.04</ele>
        <time>2012-04-07T16:11:14Z</time>
      </trkpt>
      <trkpt lat="41.664448" lon="1.971431">
        <ele>942.07</ele>
        <time>2012-04-07T16:11:20Z</time>
      </trkpt>
      <trkpt lat="41.665344" lon="1.971705">
        <ele>821.40</ele>
        <time>1970-01-01T02:12:56Z</time>
      </trkpt>
      <trkpt lat="41.665302" lon="1.971651">
        <ele>821.00</ele>
        <time>1970-01-01T02:12:57Z</time>
      </trkpt>
      <trkpt lat="41.665215" lon="1.971541">
        <ele>820.80</ele>
        <time>1970-01-01T02:12:59Z</time>
      </trkpt>
      <trkpt lat="41.665134" lon="1.971440">
        <ele>820.40</ele>
        <time>1970-01-01T02:13:01Z</time>
      </trkpt>
      <trkpt lat="41.665065" lon="1.971361">
        <ele>820.20</ele>
        <time>1970-01-01T02:13:03Z</time>
      </trkpt>
      <trkpt lat="41.665030" lon="1.971330">
        <ele>820.00</ele>
        <time>1970-01-01T02:13:04Z</time>
      </trkpt>
      <trkpt lat="41.664990" lon="1.971308">
        <ele>819.60</ele>
        <time>1970-01-01T02:13:05Z</time>
      </trkpt>
      <trkpt lat="41.664894" lon="1.971287">
        <ele>818.80</ele>
        <time>1970-01-01T02:13:07Z</time>
      </trkpt>
      <trkpt lat="41.664779" lon="1.971286">
        <ele>817.60</ele>
        <time>1970-01-01T02:13:09Z</time>
      </trkpt>
      <trkpt lat="41.664660" lon="1.971302">
        <ele>815.80</ele>
        <time>1970-01-01T02:13:11Z</time>
      </trkpt>
      <trkpt lat="41.664562" lon="1.971345">
        <ele>814.40</ele>
        <time>1970-01-01T02:13:13Z</time>
      </trkpt>
      <trkpt lat="41.664470" lon="1.971392">
        <ele>813.40</ele>
        <time>1970-01-01T02:13:15Z</time>
      </trkpt>
      <trkpt lat="41.664433" lon="1.971419">
        <ele>813.00</ele>
        <time>1970-01-01T02:13:16Z</time>
      </trkpt>
      <trkpt lat="41.664396" lon="1.971448">
        <ele>812.60</ele>
        <time>1970-01-01T02:13:17Z</time>
      </trkpt>
      <trkpt lat="41.664356" lon="1.971474">
        <ele>812.20</ele>
        <time>1970-01-01T02:13:18Z</time>
      </trkpt>
      <trkpt lat="41.664314" lon="1.971493">
        <ele>812.20</ele>
        <time>1970-01-01T02:13:19Z</time>
      </trkpt>
      <trkpt lat="41.664220" lon="1.971512">
        <ele>811.80</ele>
        <time>1970-01-01T02:13:21Z</time>
      </trkpt>
      <trkpt lat="41.664116" lon="1.971509">
        <ele>811.80</ele>
        <time>1970-01-01T02:13:23Z</time>
      </trkpt>
      <trkpt lat="41.664018" lon="1.971488">
        <ele>811.40</ele>
        <time>1970-01-01T02:13:25Z</time>
      </trkpt>
      <trkpt lat="41.663982" lon="1.971487">
        <ele>811.20</ele>
        <time>1970-01-01T02:13:26Z</time>
      </trkpt>
      <trkpt lat="41.663951" lon="1.971497">
        <ele>811.20</ele>
        <time>1970-01-01T02:13:27Z</time>
      </trkpt>
      <trkpt lat="41.663900" lon="1.971537">
        <ele>810.60</ele>
        <time>1970-01-01T02:13:29Z</time>
      </trkpt>
      <trkpt lat="41.663873" lon="1.971561">
        <ele>810.20</ele>
        <time>1970-01-01T02:13:30Z</time>
      </trkpt>
      <trkpt lat="41.663848" lon="1.971581">
        <ele>809.60</ele>
        <time>1970-01-01T02:13:31Z</time>
      </trkpt>
      <trkpt lat="41.663821" lon="1.971597">
        <ele>809.00</ele>
        <time>1970-01-01T02:13:32Z</time>
      </trkpt>
      <trkpt lat="41.663786" lon="1.971604">
        <ele>808.60</ele>
        <time>1970-01-01T02:13:33Z</time>
      </trkpt>
      <trkpt lat="41.663749" lon="1.971607">
        <ele>808.00</ele>
        <time>1970-01-01T02:13:34Z</time>
      </trkpt>
      <trkpt lat="41.663718" lon="1.971622">
        <ele>807.60</ele>
        <time>1970-01-01T02:13:35Z</time>
      </trkpt>
      <trkpt lat="41.663691" lon="1.971647">
        <ele>807.20</ele>
        <time>1970-01-01T02:13:36Z</time>
      </trkpt>
      <trkpt lat="41.663669" lon="1.971680">
        <ele>807.00</ele>
        <time>1970-01-01T02:13:37Z</time>
      </trkpt>
      <trkpt lat="41.663617" lon="1.971734">
        <ele>806.00</ele>
        <time>1970-01-01T02:13:39Z</time>
      </trkpt>
      <trkpt lat="41.663586" lon="1.971754">
        <ele>805.60</ele>
        <time>1970-01-01T02:13:40Z</time>
      </trkpt>
      <trkpt lat="41.663557" lon="1.971772">
        <ele>805.20</ele>
        <time>1970-01-01T02:13:41Z</time>
      </trkpt>
      <trkpt lat="41.663522" lon="1.971809">
        <ele>804.20</ele>
        <time>1970-01-01T02:13:43Z</time>
      </trkpt>
      <trkpt lat="41.663504" lon="1.971820">
        <ele>803.60</ele>
        <time>1970-01-01T02:13:44Z</time>
      </trkpt>
      <trkpt lat="41.663480" lon="1.971824">
        <ele>803.20</ele>
        <time>1970-01-01T02:13:45Z</time>
      </trkpt>
      <trkpt lat="41.663442" lon="1.971850">
        <ele>801.60</ele>
        <time>1970-01-01T02:13:47Z</time>
      </trkpt>
      <trkpt lat="41.663390" lon="1.971890">
        <ele>800.60</ele>
        <time>1970-01-01T02:13:49Z</time>
      </trkpt>
      <trkpt lat="41.663320" lon="1.971907">
        <ele>799.80</ele>
        <time>1970-01-01T02:13:51Z</time>
      </trkpt>
      <trkpt lat="41.663283" lon="1.971916">
        <ele>799.40</ele>
        <time>1970-01-01T02:13:52Z</time>
      </trkpt>
      <trkpt lat="41.663247" lon="1.971918">
        <ele>799.00</ele>
        <time>1970-01-01T02:13:53Z</time>
      </trkpt>
      <trkpt lat="41.663180" lon="1.971917">
        <ele>798.60</ele>
        <time>1970-01-01T02:13:55Z</time>
      </trkpt>
      <trkpt lat="41.663148" lon="1.971918">
        <ele>798.20</ele>
        <time>1970-01-01T02:13:56Z</time>
      </trkpt>
      <trkpt lat="41.663116" lon="1.971916">
        <ele>798.00</ele>
        <time>1970-01-01T02:13:57Z</time>
      </trkpt>
      <trkpt lat="41.663088" lon="1.971913">
        <ele>797.60</ele>
        <time>1970-01-01T02:13:58Z</time>
      </trkpt>
      <trkpt lat="41.663059" lon="1.971909">
        <ele>797.40</ele>
        <time>1970-01-01T02:13:59Z</time>
      </trkpt>
      <trkpt lat="41.663006" lon="1.971906">
        <ele>797.00</ele>
        <time>1970-01-01T02:14:01Z</time>
      </trkpt>
      <trkpt lat="41.662956" lon="1.971910">
        <ele>796.80</ele>
        <time>1970-01-01T02:14:03Z</time>
      </trkpt>
      <trkpt lat="41.662916" lon="1.971921">
        <ele>796.60</ele>
        <time>1970-01-01T02:14:05Z</time>
      </trkpt>
      <trkpt lat="41.662872" lon="1.971929">
        <ele>796.60</ele>
        <time>1970-01-01T02:14:07Z</time>
      </trkpt>
      <trkpt lat="41.662834" lon="1.971936">
        <ele>796.60</ele>
        <time>1970-01-01T02:14:09Z</time>
      </trkpt>
      <trkpt lat="41.662786" lon="1.971941">
        <ele>796.60</ele>
        <time>1970-01-01T02:14:11Z</time>
      </trkpt>
      <trkpt lat="41.662728" lon="1.971920">
        <ele>797.00</ele>
        <time>1970-01-01T02:14:13Z</time>
      </trkpt>
      <trkpt lat="41.662682" lon="1.971889">
        <ele>797.20</ele>
        <time>1970-01-01T02:14:15Z</time>
      </trkpt>
      <trkpt lat="41.662635" lon="1.971872">
        <ele>797.60</ele>
        <time>1970-01-01T02:14:17Z</time>
      </trkpt>
      <trkpt lat="41.662580" lon="1.971852">
        <ele>797.80</ele>
        <time>1970-01-01T02:14:19Z</time>
      </trkpt>
      <trkpt lat="41.662552" lon="1.971843">
        <ele>798.00</ele>
        <time>1970-01-01T02:14:20Z</time>
      </trkpt>
      <trkpt lat="41.662526" lon="1.971834">
        <ele>798.20</ele>
        <time>1970-01-01T02:14:21Z</time>
      </trkpt>
      <trkpt lat="41.662500" lon="1.971826">
        <ele>798.40</ele>
        <time>1970-01-01T02:14:22Z</time>
      </trkpt>
      <trkpt lat="41.662474" lon="1.971828">
        <ele>798.60</ele>
        <time>1970-01-01T02:14:23Z</time>
      </trkpt>
      <trkpt lat="41.662428" lon="1.971868">
        <ele>799.00</ele>
        <time>1970-01-01T02:14:25Z</time>
      </trkpt>
      <trkpt lat="41.662396" lon="1.971920">
        <ele>799.20</ele>
        <time>1970-01-01T02:14:27Z</time>
      </trkpt>
      <trkpt lat="41.662355" lon="1.971938">
        <ele>799.60</ele>
        <time>1970-01-01T02:14:29Z</time>
      </trkpt>
      <trkpt lat="41.662301" lon="1.971943">
        <ele>799.80</ele>
        <time>1970-01-01T02:14:31Z</time>
      </trkpt>
      <trkpt lat="41.662248" lon="1.971974">
        <ele>800.40</ele>
        <time>1970-01-01T02:14:33Z</time>
      </trkpt>
      <trkpt lat="41.662221" lon="1.971987">
        <ele>800.60</ele>
        <time>1970-01-01T02:14:34Z</time>
      </trkpt>
      <trkpt lat="41.662195" lon="1.971994">
        <ele>800.80</ele>
        <time>1970-01-01T02:14:35Z</time>
      </trkpt>
      <trkpt lat="41.662170" lon="1.971996">
        <ele>800.80</ele>
        <time>1970-01-01T02:14:36Z</time>
      </trkpt>
      <trkpt lat="41.662148" lon="1.971997">
        <ele>800.80</ele>
        <time>1970-01-01T02:14:37Z</time>
      </trkpt>
      <trkpt lat="41.662102" lon="1.971997">
        <ele>801.00</ele>
        <time>1970-01-01T02:14:39Z</time>
      </trkpt>
      <trkpt lat="41.662046" lon="1.972016">
        <ele>801.00</ele>
        <time>1970-01-01T02:14:41Z</time>
      </trkpt>
      <trkpt lat="41.661987" lon="1.972016">
        <ele>801.00</ele>
        <time>1970-01-01T02:14:43Z</time>
      </trkpt>
      <trkpt lat="41.661958" lon="1.972013">
        <ele>801.00</ele>
        <time>1970-01-01T02:14:44Z</time>
      </trkpt>
      <trkpt lat="41.661932" lon="1.972007">
        <ele>801.00</ele>
        <time>1970-01-01T02:14:45Z</time>
      </trkpt>
      <trkpt lat="41.661889" lon="1.971996">
        <ele>801.20</ele>
        <time>1970-01-01T02:14:47Z</time>
      </trkpt>
      <trkpt lat="41.661848" lon="1.971994">
        <ele>801.20</ele>
        <time>1970-01-01T02:14:49Z</time>
      </trkpt>
      <trkpt lat="41.661830" lon="1.971997">
        <ele>801.20</ele>
        <time>1970-01-01T02:14:50Z</time>
      </trkpt>
      <trkpt lat="41.661817" lon="1.971995">
        <ele>801.40</ele>
        <time>1970-01-01T02:14:51Z</time>
      </trkpt>
      <trkpt lat="41.661792" lon="1.971976">
        <ele>801.60</ele>
        <time>1970-01-01T02:14:53Z</time>
      </trkpt>
      <trkpt lat="41.661773" lon="1.971958">
        <ele>801.80</ele>
        <time>1970-01-01T02:14:54Z</time>
      </trkpt>
      <trkpt lat="41.661750" lon="1.971939">
        <ele>802.00</ele>
        <time>1970-01-01T02:14:55Z</time>
      </trkpt>
      <trkpt lat="41.661700" lon="1.971908">
        <ele>802.60</ele>
        <time>1970-01-01T02:14:57Z</time>
      </trkpt>
      <trkpt lat="41.661680" lon="1.971895">
        <ele>803.00</ele>
        <time>1970-01-01T02:14:58Z</time>
      </trkpt>
      <trkpt lat="41.661662" lon="1.971882">
        <ele>803.20</ele>
        <time>1970-01-01T02:14:59Z</time>
      </trkpt>
      <trkpt lat="41.661643" lon="1.971868">
        <ele>803.40</ele>
        <time>1970-01-01T02:15:00Z</time>
      </trkpt>
      <trkpt lat="41.661626" lon="1.971855">
        <ele>803.60</ele>
        <time>1970-01-01T02:15:01Z</time>
      </trkpt>
      <trkpt lat="41.661612" lon="1.971840">
        <ele>804.00</ele>
        <time>1970-01-01T02:15:02Z</time>
      </trkpt>
      <trkpt lat="41.661601" lon="1.971817">
        <ele>804.20</ele>
        <time>1970-01-01T02:15:03Z</time>
      </trkpt>
      <trkpt lat="41.661572" lon="1.971773">
        <ele>804.80</ele>
        <time>1970-01-01T02:15:05Z</time>
      </trkpt>
      <trkpt lat="41.661532" lon="1.971739">
        <ele>805.40</ele>
        <time>1970-01-01T02:15:07Z</time>
      </trkpt>
      <trkpt lat="41.661518" lon="1.971718">
        <ele>805.60</ele>
        <time>1970-01-01T02:15:08Z</time>
      </trkpt>
      <trkpt lat="41.661507" lon="1.971692">
        <ele>805.60</ele>
        <time>1970-01-01T02:15:09Z</time>
      </trkpt>
      <trkpt lat="41.661487" lon="1.971641">
        <ele>805.80</ele>
        <time>1970-01-01T02:15:11Z</time>
      </trkpt>
      <trkpt lat="41.661459" lon="1.971590">
        <ele>806.00</ele>
        <time>1970-01-01T02:15:13Z</time>
      </trkpt>
      <trkpt lat="41.661423" lon="1.971553">
        <ele>806.00</ele>
        <time>1970-01-01T02:15:15Z</time>
      </trkpt>
      <trkpt lat="41.661383" lon="1.971533">
        <ele>806.00</ele>
        <time>1970-01-01T02:15:17Z</time>
      </trkpt>
      <trkpt lat="41.661349" lon="1.971518">
        <ele>806.00</ele>
        <time>1970-01-01T02:15:19Z</time>
      </trkpt>
      <trkpt lat="41.661312" lon="1.971506">
        <ele>805.80</ele>
        <time>1970-01-01T02:15:21Z</time>
      </trkpt>
      <trkpt lat="41.661274" lon="1.971490">
        <ele>805.80</ele>
        <time>1970-01-01T02:15:23Z</time>
      </trkpt>
      <trkpt lat="41.661250" lon="1.971480">
        <ele>805.80</ele>
        <time>1970-01-01T02:15:24Z</time>
      </trkpt>
      <trkpt lat="41.661227" lon="1.971470">
        <ele>805.80</ele>
        <time>1970-01-01T02:15:25Z</time>
      </trkpt>
      <trkpt lat="41.661174" lon="1.971461">
        <ele>805.80</ele>
        <time>1970-01-01T02:15:27Z</time>
      </trkpt>
      <trkpt lat="41.661121" lon="1.971451">
        <ele>805.80</ele>
        <time>1970-01-01T02:15:29Z</time>
      </trkpt>
      <trkpt lat="41.661095" lon="1.971446">
        <ele>805.80</ele>
        <time>1970-01-01T02:15:30Z</time>
      </trkpt>
      <trkpt lat="41.661068" lon="1.971445">
        <ele>805.80</ele>
        <time>1970-01-01T02:15:31Z</time>
      </trkpt>
      <trkpt lat="41.661021" lon="1.971441">
        <ele>805.80</ele>
        <time>1970-01-01T02:15:33Z</time>
      </trkpt>
      <trkpt lat="41.660979" lon="1.971432">
        <ele>806.40</ele>
        <time>1970-01-01T02:15:35Z</time>
      </trkpt>
      <trkpt lat="41.660964" lon="1.971421">
        <ele>806.40</ele>
        <time>1970-01-01T02:15:36Z</time>
      </trkpt>
      <trkpt lat="41.660950" lon="1.971410">
        <ele>806.60</ele>
        <time>1970-01-01T02:15:37Z</time>
      </trkpt>
      <trkpt lat="41.660921" lon="1.971368">
        <ele>806.80</ele>
        <time>1970-01-01T02:15:39Z</time>
      </trkpt>
      <trkpt lat="41.660893" lon="1.971329">
        <ele>807.20</ele>
        <time>1970-01-01T02:15:41Z</time>
      </trkpt>
      <trkpt lat="41.660884" lon="1.971310">
        <ele>807.40</ele>
        <time>1970-01-01T02:15:42Z</time>
      </trkpt>
      <trkpt lat="41.660875" lon="1.971283">
        <ele>807.60</ele>
        <time>1970-01-01T02:15:43Z</time>
      </trkpt>
      <trkpt lat="41.660866" lon="1.971216">
        <ele>807.60</ele>
        <time>1970-01-01T02:15:45Z</time>
      </trkpt>
      <trkpt lat="41.660849" lon="1.971140">
        <ele>807.60</ele>
        <time>1970-01-01T02:15:47Z</time>
      </trkpt>
      <trkpt lat="41.660816" lon="1.971056">
        <ele>807.60</ele>
        <time>1970-01-01T02:15:49Z</time>
      </trkpt>
      <trkpt lat="41.660798" lon="1.971019">
        <ele>807.60</ele>
        <time>1970-01-01T02:15:50Z</time>
      </trkpt>
      <trkpt lat="41.660778" lon="1.970988">
        <ele>807.60</ele>
        <time>1970-01-01T02:15:51Z</time>
      </trkpt>
      <trkpt lat="41.660733" lon="1.970925">
        <ele>807.20</ele>
        <time>1970-01-01T02:15:53Z</time>
      </trkpt>
      <trkpt lat="41.660679" lon="1.970872">
        <ele>806.40</ele>
        <time>1970-01-01T02:15:55Z</time>
      </trkpt>
      <trkpt lat="41.660625" lon="1.970819">
        <ele>805.60</ele>
        <time>1970-01-01T02:15:57Z</time>
      </trkpt>
      <trkpt lat="41.660574" lon="1.970763">
        <ele>805.00</ele>
        <time>1970-01-01T02:15:59Z</time>
      </trkpt>
      <trkpt lat="41.660548" lon="1.970742">
        <ele>804.80</ele>
        <time>1970-01-01T02:16:00Z</time>
      </trkpt>
      <trkpt lat="41.660526" lon="1.970724">
        <ele>804.60</ele>
        <time>1970-01-01T02:16:01Z</time>
      </trkpt>
      <trkpt lat="41.660508" lon="1.970706">
        <ele>804.40</ele>
        <time>1970-01-01T02:16:02Z</time>
      </trkpt>
      <trkpt lat="41.660487" lon="1.970693">
        <ele>804.40</ele>
        <time>1970-01-01T02:16:03Z</time>
      </trkpt>
      <trkpt lat="41.660444" lon="1.970660">
        <ele>804.20</ele>
        <time>1970-01-01T02:16:05Z</time>
      </trkpt>
      <trkpt lat="41.660404" lon="1.970622">
        <ele>804.20</ele>
        <time>1970-01-01T02:16:07Z</time>
      </trkpt>
      <trkpt lat="41.660353" lon="1.970583">
        <ele>804.20</ele>
        <time>1970-01-01T02:16:09Z</time>
      </trkpt>
      <trkpt lat="41.660330" lon="1.970564">
        <ele>804.20</ele>
        <time>1970-01-01T02:16:10Z</time>
      </trkpt>
      <trkpt lat="41.660312" lon="1.970542">
        <ele>804.20</ele>
        <time>1970-01-01T02:16:11Z</time>
      </trkpt>
      <trkpt lat="41.660275" lon="1.970478">
        <ele>804.60</ele>
        <time>1970-01-01T02:16:13Z</time>
      </trkpt>
      <trkpt lat="41.660244" lon="1.970445">
        <ele>804.80</ele>
        <time>1970-01-01T02:16:14Z</time>
      </trkpt>
      <trkpt lat="41.660217" lon="1.970412">
        <ele>805.00</ele>
        <time>1970-01-01T02:16:15Z</time>
      </trkpt>
      <trkpt lat="41.660165" lon="1.970350">
        <ele>805.60</ele>
        <time>1970-01-01T02:16:17Z</time>
      </trkpt>
      <trkpt lat="41.660114" lon="1.970302">
        <ele>806.00</ele>
        <time>1970-01-01T02:16:19Z</time>
      </trkpt>
      <trkpt lat="41.660084" lon="1.970252">
        <ele>806.20</ele>
        <time>1970-01-01T02:16:21Z</time>
      </trkpt>
      <trkpt lat="41.660029" lon="1.970215">
        <ele>806.40</ele>
        <time>1970-01-01T02:16:23Z</time>
      </trkpt>
      <trkpt lat="41.659977" lon="1.970178">
        <ele>806.60</ele>
        <time>1970-01-01T02:16:25Z</time>
      </trkpt>
      <trkpt lat="41.659928" lon="1.970123">
        <ele>806.80</ele>
        <time>1970-01-01T02:16:27Z</time>
      </trkpt>
      <trkpt lat="41.659873" lon="1.970067">
        <ele>806.80</ele>
        <time>1970-01-01T02:16:29Z</time>
      </trkpt>
      <trkpt lat="41.659781" lon="1.970004">
        <ele>806.80</ele>
        <time>1970-01-01T02:16:31Z</time>
      </trkpt>
      <trkpt lat="41.659740" lon="1.969972">
        <ele>806.80</ele>
        <time>1970-01-01T02:16:32Z</time>
      </trkpt>
      <trkpt lat="41.659685" lon="1.969935">
        <ele>806.80</ele>
        <time>1970-01-01T02:16:33Z</time>
      </trkpt>
      <trkpt lat="41.659592" lon="1.969863">
        <ele>806.80</ele>
        <time>1970-01-01T02:16:35Z</time>
      </trkpt>
      <trkpt lat="41.659506" lon="1.969780">
        <ele>806.80</ele>
        <time>1970-01-01T02:16:37Z</time>
      </trkpt>
      <trkpt lat="41.659466" lon="1.969733">
        <ele>806.80</ele>
        <time>1970-01-01T02:16:38Z</time>
      </trkpt>
      <trkpt lat="41.659427" lon="1.969685">
        <ele>806.80</ele>
        <time>1970-01-01T02:16:39Z</time>
      </trkpt>
      <trkpt lat="41.659350" lon="1.969590">
        <ele>806.60</ele>
        <time>1970-01-01T02:16:41Z</time>
      </trkpt>
      <trkpt lat="41.659276" lon="1.969519">
        <ele>806.20</ele>
        <time>1970-01-01T02:16:43Z</time>
      </trkpt>
      <trkpt lat="41.659247" lon="1.969497">
        <ele>805.80</ele>
        <time>1970-01-01T02:16:44Z</time>
      </trkpt>
      <trkpt lat="41.659222" lon="1.969480">
        <ele>805.80</ele>
        <time>1970-01-01T02:16:45Z</time>
      </trkpt>
      <trkpt lat="41.659185" lon="1.969448">
        <ele>805.40</ele>
        <time>1970-01-01T02:16:47Z</time>
      </trkpt>
      <trkpt lat="41.659175" lon="1.969435">
        <ele>805.40</ele>
        <time>1970-01-01T02:16:48Z</time>
      </trkpt>
      <trkpt lat="41.659172" lon="1.969431">
        <ele>805.20</ele>
        <time>1970-01-01T02:16:49Z</time>
      </trkpt>
      <trkpt lat="41.659170" lon="1.969430">
        <ele>805.00</ele>
        <time>1970-01-01T02:16:51Z</time>
      </trkpt>
      <trkpt lat="41.659169" lon="1.969429">
        <ele>804.40</ele>
        <time>1970-01-01T02:16:53Z</time>
      </trkpt>
      <trkpt lat="41.659169" lon="1.969429">
        <ele>804.40</ele>
        <time>1970-01-01T02:16:54Z</time>
      </trkpt>
      <trkpt lat="41.659169" lon="1.969430">
        <ele>804.20</ele>
        <time>1970-01-01T02:16:55Z</time>
      </trkpt>
      <trkpt lat="41.659169" lon="1.969429">
        <ele>804.20</ele>
        <time>1970-01-01T02:16:57Z</time>
      </trkpt>
      <trkpt lat="41.659170" lon="1.969430">
        <ele>804.20</ele>
        <time>1970-01-01T02:16:59Z</time>
      </trkpt>
      <trkpt lat="41.659170" lon="1.969426">
        <ele>804.20</ele>
        <time>1970-01-01T02:17:00Z</time>
      </trkpt>
      <trkpt lat="41.659168" lon="1.969416">
        <ele>804.20</ele>
        <time>1970-01-01T02:17:01Z</time>
      </trkpt>
      <trkpt lat="41.659164" lon="1.969406">
        <ele>804.20</ele>
        <time>1970-01-01T02:17:02Z</time>
      </trkpt>
      <trkpt lat="41.659160" lon="1.969396">
        <ele>804.20</ele>
        <time>1970-01-01T02:17:03Z</time>
      </trkpt>
      <trkpt lat="41.659156" lon="1.969393">
        <ele>804.20</ele>
        <time>1970-01-01T02:17:05Z</time>
      </trkpt>
      <trkpt lat="41.659155" lon="1.969391">
        <ele>804.20</ele>
        <time>1970-01-01T02:17:07Z</time>
      </trkpt>
      <trkpt lat="41.659154" lon="1.969390">
        <ele>804.40</ele>
        <time>1970-01-01T02:17:09Z</time>
      </trkpt>
      <trkpt lat="41.659146" lon="1.969385">
        <ele>804.60</ele>
        <time>1970-01-01T02:17:11Z</time>
      </trkpt>
      <trkpt lat="41.659116" lon="1.969351">
        <ele>804.60</ele>
        <time>1970-01-01T02:17:13Z</time>
      </trkpt>
      <trkpt lat="41.659070" lon="1.969303">
        <ele>804.80</ele>
        <time>1970-01-01T02:17:15Z</time>
      </trkpt>
      <trkpt lat="41.659012" lon="1.969256">
        <ele>804.80</ele>
        <time>1970-01-01T02:17:17Z</time>
      </trkpt>
      <trkpt lat="41.658980" lon="1.969229">
        <ele>804.80</ele>
        <time>1970-01-01T02:17:18Z</time>
      </trkpt>
      <trkpt lat="41.658947" lon="1.969199">
        <ele>804.80</ele>
        <time>1970-01-01T02:17:19Z</time>
      </trkpt>
      <trkpt lat="41.658880" lon="1.969144">
        <ele>804.80</ele>
        <time>1970-01-01T02:17:21Z</time>
      </trkpt>
      <trkpt lat="41.658815" lon="1.969090">
        <ele>805.20</ele>
        <time>1970-01-01T02:17:23Z</time>
      </trkpt>
      <trkpt lat="41.658763" lon="1.969038">
        <ele>805.40</ele>
        <time>1970-01-01T02:17:25Z</time>
      </trkpt>
      <trkpt lat="41.658719" lon="1.969001">
        <ele>805.80</ele>
        <time>1970-01-01T02:17:27Z</time>
      </trkpt>
      <trkpt lat="41.658674" lon="1.968985">
        <ele>806.20</ele>
        <time>1970-01-01T02:17:29Z</time>
      </trkpt>
      <trkpt lat="41.658654" lon="1.968973">
        <ele>806.60</ele>
        <time>1970-01-01T02:17:30Z</time>
      </trkpt>
      <trkpt lat="41.658634" lon="1.968959">
        <ele>806.60</ele>
        <time>1970-01-01T02:17:31Z</time>
      </trkpt>
      <trkpt lat="41.658612" lon="1.968937">
        <ele>806.80</ele>
        <time>1970-01-01T02:17:32Z</time>
      </trkpt>
      <trkpt lat="41.658593" lon="1.968912">
        <ele>806.80</ele>
        <time>1970-01-01T02:17:33Z</time>
      </trkpt>
      <trkpt lat="41.658557" lon="1.968862">
        <ele>806.80</ele>
        <time>1970-01-01T02:17:35Z</time>
      </trkpt>
      <trkpt lat="41.658509" lon="1.968814">
        <ele>806.80</ele>
        <time>1970-01-01T02:17:37Z</time>
      </trkpt>
      <trkpt lat="41.658457" lon="1.968799">
        <ele>806.80</ele>
        <time>1970-01-01T02:17:39Z</time>
      </trkpt>
      <trkpt lat="41.658407" lon="1.968777">
        <ele>806.80</ele>
        <time>1970-01-01T02:17:41Z</time>
      </trkpt>
      <trkpt lat="41.658362" lon="1.968756">
        <ele>806.80</ele>
        <time>1970-01-01T02:17:43Z</time>
      </trkpt>
      <trkpt lat="41.658316" lon="1.968748">
        <ele>806.60</ele>
        <time>1970-01-01T02:17:45Z</time>
      </trkpt>
      <trkpt lat="41.658275" lon="1.968731">
        <ele>805.80</ele>
        <time>1970-01-01T02:17:47Z</time>
      </trkpt>
      <trkpt lat="41.658256" lon="1.968730">
        <ele>805.20</ele>
        <time>1970-01-01T02:17:48Z</time>
      </trkpt>
      <trkpt lat="41.658238" lon="1.968734">
        <ele>804.60</ele>
        <time>1970-01-01T02:17:49Z</time>
      </trkpt>
      <trkpt lat="41.658221" lon="1.968740">
        <ele>804.20</ele>
        <time>1970-01-01T02:17:50Z</time>
      </trkpt>
      <trkpt lat="41.658209" lon="1.968752">
        <ele>803.80</ele>
        <time>1970-01-01T02:17:51Z</time>
      </trkpt>
      <trkpt lat="41.658179" lon="1.968760">
        <ele>802.80</ele>
        <time>1970-01-01T02:17:53Z</time>
      </trkpt>
      <trkpt lat="41.658160" lon="1.968752">
        <ele>802.40</ele>
        <time>1970-01-01T02:17:54Z</time>
      </trkpt>
      <trkpt lat="41.658138" lon="1.968738">
        <ele>802.00</ele>
        <time>1970-01-01T02:17:55Z</time>
      </trkpt>
      <trkpt lat="41.658089" lon="1.968697">
        <ele>801.20</ele>
        <time>1970-01-01T02:17:57Z</time>
      </trkpt>
      <trkpt lat="41.658039" lon="1.968667">
        <ele>800.20</ele>
        <time>1970-01-01T02:17:59Z</time>
      </trkpt>
      <trkpt lat="41.658007" lon="1.968649">
        <ele>799.00</ele>
        <time>1970-01-01T02:18:01Z</time>
      </trkpt>
      <trkpt lat="41.657989" lon="1.968647">
        <ele>798.80</ele>
        <time>1970-01-01T02:18:02Z</time>
      </trkpt>
      <trkpt lat="41.657969" lon="1.968647">
        <ele>798.60</ele>
        <time>1970-01-01T02:18:03Z</time>
      </trkpt>
      <trkpt lat="41.657939" lon="1.968659">
        <ele>798.60</ele>
        <time>1970-01-01T02:18:05Z</time>
      </trkpt>
      <trkpt lat="41.657892" lon="1.968655">
        <ele>798.40</ele>
        <time>1970-01-01T02:18:07Z</time>
      </trkpt>
      <trkpt lat="41.657874" lon="1.968656">
        <ele>798.40</ele>
        <time>1970-01-01T02:18:08Z</time>
      </trkpt>
      <trkpt lat="41.657860" lon="1.968662">
        <ele>798.40</ele>
        <time>1970-01-01T02:18:09Z</time>
      </trkpt>
      <trkpt lat="41.657826" lon="1.968678">
        <ele>798.40</ele>
        <time>1970-01-01T02:18:11Z</time>
      </trkpt>
      <trkpt lat="41.657786" lon="1.968693">
        <ele>798.20</ele>
        <time>1970-01-01T02:18:13Z</time>
      </trkpt>
      <trkpt lat="41.657768" lon="1.968709">
        <ele>798.20</ele>
        <time>1970-01-01T02:18:14Z</time>
      </trkpt>
      <trkpt lat="41.657747" lon="1.968733">
        <ele>798.20</ele>
        <time>1970-01-01T02:18:15Z</time>
      </trkpt>
      <trkpt lat="41.657699" lon="1.968782">
        <ele>798.20</ele>
        <time>1970-01-01T02:18:17Z</time>
      </trkpt>
      <trkpt lat="41.657676" lon="1.968802">
        <ele>798.00</ele>
        <time>1970-01-01T02:18:18Z</time>
      </trkpt>
      <trkpt lat="41.657656" lon="1.968825">
        <ele>797.80</ele>
        <time>1970-01-01T02:18:19Z</time>
      </trkpt>
      <trkpt lat="41.657624" lon="1.968854">
        <ele>797.60</ele>
        <time>1970-01-01T02:18:20Z</time>
      </trkpt>
      <trkpt lat="41.657591" lon="1.968886">
        <ele>797.60</ele>
        <time>1970-01-01T02:18:21Z</time>
      </trkpt>
      <trkpt lat="41.657522" lon="1.968936">
        <ele>797.40</ele>
        <time>1970-01-01T02:18:23Z</time>
      </trkpt>
      <trkpt lat="41.657446" lon="1.968961">
        <ele>797.00</ele>
        <time>1970-01-01T02:18:25Z</time>
      </trkpt>
      <trkpt lat="41.657412" lon="1.968968">
        <ele>797.00</ele>
        <time>1970-01-01T02:18:26Z</time>
      </trkpt>
      <trkpt lat="41.657382" lon="1.968981">
        <ele>796.80</ele>
        <time>1970-01-01T02:18:27Z</time>
      </trkpt>
      <trkpt lat="41.657308" lon="1.969014">
        <ele>796.40</ele>
        <time>1970-01-01T02:18:29Z</time>
      </trkpt>
      <trkpt lat="41.657244" lon="1.969045">
        <ele>796.00</ele>
        <time>1970-01-01T02:18:31Z</time>
      </trkpt>
      <trkpt lat="41.657219" lon="1.969054">
        <ele>795.60</ele>
        <time>1970-01-01T02:18:32Z</time>
      </trkpt>
      <trkpt lat="41.657194" lon="1.969065">
        <ele>795.60</ele>
        <time>1970-01-01T02:18:33Z</time>
      </trkpt>
      <trkpt lat="41.657129" lon="1.969070">
        <ele>795.60</ele>
        <time>1970-01-01T02:18:35Z</time>
      </trkpt>
      <trkpt lat="41.657100" lon="1.969079">
        <ele>795.40</ele>
        <time>1970-01-01T02:18:36Z</time>
      </trkpt>
      <trkpt lat="41.657079" lon="1.969092">
        <ele>795.40</ele>
        <time>1970-01-01T02:18:37Z</time>
      </trkpt>
      <trkpt lat="41.657034" lon="1.969135">
        <ele>795.40</ele>
        <time>1970-01-01T02:18:39Z</time>
      </trkpt>
      <trkpt lat="41.656993" lon="1.969206">
        <ele>795.40</ele>
        <time>1970-01-01T02:18:41Z</time>
      </trkpt>
      <trkpt lat="41.656958" lon="1.969265">
        <ele>795.40</ele>
        <time>1970-01-01T02:18:43Z</time>
      </trkpt>
      <trkpt lat="41.656923" lon="1.969344">
        <ele>795.40</ele>
        <time>1970-01-01T02:18:45Z</time>
      </trkpt>
      <trkpt lat="41.656890" lon="1.969433">
        <ele>795.80</ele>
        <time>1970-01-01T02:18:47Z</time>
      </trkpt>
      <trkpt lat="41.656871" lon="1.969467">
        <ele>796.00</ele>
        <time>1970-01-01T02:18:48Z</time>
      </trkpt>
      <trkpt lat="41.656854" lon="1.969511">
        <ele>796.40</ele>
        <time>1970-01-01T02:18:49Z</time>
      </trkpt>
      <trkpt lat="41.656831" lon="1.969542">
        <ele>796.80</ele>
        <time>1970-01-01T02:18:50Z</time>
      </trkpt>
      <trkpt lat="41.656802" lon="1.969574">
        <ele>797.40</ele>
        <time>1970-01-01T02:18:51Z</time>
      </trkpt>
      <trkpt lat="41.656739" lon="1.969639">
        <ele>798.40</ele>
        <time>1970-01-01T02:18:53Z</time>
      </trkpt>
      <trkpt lat="41.656697" lon="1.969672">
        <ele>799.20</ele>
        <time>1970-01-01T02:18:55Z</time>
      </trkpt>
      <trkpt lat="41.656681" lon="1.969677">
        <ele>799.60</ele>
        <time>1970-01-01T02:18:56Z</time>
      </trkpt>
      <trkpt lat="41.656668" lon="1.969690">
        <ele>800.00</ele>
        <time>1970-01-01T02:18:57Z</time>
      </trkpt>
      <trkpt lat="41.656641" lon="1.969713">
        <ele>800.60</ele>
        <time>1970-01-01T02:18:59Z</time>
      </trkpt>
      <trkpt lat="41.656626" lon="1.969722">
        <ele>801.00</ele>
        <time>1970-01-01T02:19:00Z</time>
      </trkpt>
      <trkpt lat="41.656610" lon="1.969730">
        <ele>801.40</ele>
        <time>1970-01-01T02:19:01Z</time>
      </trkpt>
      <trkpt lat="41.656573" lon="1.969729">
        <ele>802.20</ele>
        <time>1970-01-01T02:19:03Z</time>
      </trkpt>
      <trkpt lat="41.656543" lon="1.969720">
        <ele>802.80</ele>
        <time>1970-01-01T02:19:05Z</time>
      </trkpt>
      <trkpt lat="41.656528" lon="1.969695">
        <ele>803.40</ele>
        <time>1970-01-01T02:19:07Z</time>
      </trkpt>
      <trkpt lat="41.656502" lon="1.969683">
        <ele>804.00</ele>
        <time>1970-01-01T02:19:09Z</time>
      </trkpt>
      <trkpt lat="41.656474" lon="1.969696">
        <ele>804.40</ele>
        <time>1970-01-01T02:19:11Z</time>
      </trkpt>
      <trkpt lat="41.656463" lon="1.969710">
        <ele>804.60</ele>
        <time>1970-01-01T02:19:12Z</time>
      </trkpt>
      <trkpt lat="41.656456" lon="1.969726">
        <ele>805.00</ele>
        <time>1970-01-01T02:19:13Z</time>
      </trkpt>
      <trkpt lat="41.656447" lon="1.969740">
        <ele>805.00</ele>
        <time>1970-01-01T02:19:14Z</time>
      </trkpt>
      <trkpt lat="41.656438" lon="1.969750">
        <ele>805.20</ele>
        <time>1970-01-01T02:19:15Z</time>
      </trkpt>
      <trkpt lat="41.656423" lon="1.969771">
        <ele>805.40</ele>
        <time>1970-01-01T02:19:17Z</time>
      </trkpt>
      <trkpt lat="41.656417" lon="1.969795">
        <ele>805.40</ele>
        <time>1970-01-01T02:19:19Z</time>
      </trkpt>
      <trkpt lat="41.656419" lon="1.969808">
        <ele>805.60</ele>
        <time>1970-01-01T02:19:20Z</time>
      </trkpt>
      <trkpt lat="41.656421" lon="1.969812">
        <ele>805.60</ele>
        <time>1970-01-01T02:19:21Z</time>
      </trkpt>
      <trkpt lat="41.656424" lon="1.969817">
        <ele>805.60</ele>
        <time>1970-01-01T02:19:22Z</time>
      </trkpt>
      <trkpt lat="41.656431" lon="1.969828">
        <ele>805.60</ele>
        <time>1970-01-01T02:19:23Z</time>
      </trkpt>
      <trkpt lat="41.656446" lon="1.969859">
        <ele>805.80</ele>
        <time>1970-01-01T02:19:25Z</time>
      </trkpt>
      <trkpt lat="41.656431" lon="1.969898">
        <ele>805.80</ele>
        <time>1970-01-01T02:19:27Z</time>
      </trkpt>
      <trkpt lat="41.656391" lon="1.969916">
        <ele>805.80</ele>
        <time>1970-01-01T02:19:29Z</time>
      </trkpt>
      <trkpt lat="41.656339" lon="1.969910">
        <ele>805.80</ele>
        <time>1970-01-01T02:19:31Z</time>
      </trkpt>
      <trkpt lat="41.656277" lon="1.969883">
        <ele>805.40</ele>
        <time>1970-01-01T02:19:33Z</time>
      </trkpt>
      <trkpt lat="41.656248" lon="1.969861">
        <ele>805.20</ele>
        <time>1970-01-01T02:19:34Z</time>
      </trkpt>
      <trkpt lat="41.656220" lon="1.969838">
        <ele>805.00</ele>
        <time>1970-01-01T02:19:35Z</time>
      </trkpt>
      <trkpt lat="41.656174" lon="1.969798">
        <ele>804.80</ele>
        <time>1970-01-01T02:19:37Z</time>
      </trkpt>
      <trkpt lat="41.656133" lon="1.969766">
        <ele>804.20</ele>
        <time>1970-01-01T02:19:39Z</time>
      </trkpt>
      <trkpt lat="41.656093" lon="1.969725">
        <ele>803.80</ele>
        <time>1970-01-01T02:19:41Z</time>
      </trkpt>
      <trkpt lat="41.656048" lon="1.969689">
        <ele>803.60</ele>
        <time>1970-01-01T02:19:43Z</time>
      </trkpt>
      <trkpt lat="41.655992" lon="1.969654">
        <ele>803.60</ele>
        <time>1970-01-01T02:19:45Z</time>
      </trkpt>
      <trkpt lat="41.655935" lon="1.969613">
        <ele>803.40</ele>
        <time>1970-01-01T02:19:47Z</time>
      </trkpt>
      <trkpt lat="41.655881" lon="1.969573">
        <ele>803.40</ele>
        <time>1970-01-01T02:19:49Z</time>
      </trkpt>
      <trkpt lat="41.655824" lon="1.969553">
        <ele>803.40</ele>
        <time>1970-01-01T02:19:51Z</time>
      </trkpt>
      <trkpt lat="41.655759" lon="1.969524">
        <ele>803.00</ele>
        <time>1970-01-01T02:19:53Z</time>
      </trkpt>
      <trkpt lat="41.655686" lon="1.969506">
        <ele>802.80</ele>
        <time>1970-01-01T02:19:55Z</time>
      </trkpt>
      <trkpt lat="41.655628" lon="1.969513">
        <ele>802.80</ele>
        <time>1970-01-01T02:19:57Z</time>
      </trkpt>
      <trkpt lat="41.655605" lon="1.969507">
        <ele>802.80</ele>
        <time>1970-01-01T02:19:58Z</time>
      </trkpt>
      <trkpt lat="41.655583" lon="1.969495">
        <ele>802.80</ele>
        <time>1970-01-01T02:19:59Z</time>
      </trkpt>
      <trkpt lat="41.655528" lon="1.969471">
        <ele>802.40</ele>
        <time>1970-01-01T02:20:01Z</time>
      </trkpt>
      <trkpt lat="41.655465" lon="1.969443">
        <ele>801.80</ele>
        <time>1970-01-01T02:20:03Z</time>
      </trkpt>
      <trkpt lat="41.655436" lon="1.969429">
        <ele>801.40</ele>
        <time>1970-01-01T02:20:04Z</time>
      </trkpt>
      <trkpt lat="41.655411" lon="1.969416">
        <ele>801.00</ele>
        <time>1970-01-01T02:20:05Z</time>
      </trkpt>
      <trkpt lat="41.655361" lon="1.969396">
        <ele>800.60</ele>
        <time>1970-01-01T02:20:07Z</time>
      </trkpt>
      <trkpt lat="41.655312" lon="1.969395">
        <ele>800.60</ele>
        <time>1970-01-01T02:20:09Z</time>
      </trkpt>
      <trkpt lat="41.655289" lon="1.969398">
        <ele>800.60</ele>
        <time>1970-01-01T02:20:10Z</time>
      </trkpt>
      <trkpt lat="41.655263" lon="1.969404">
        <ele>800.60</ele>
        <time>1970-01-01T02:20:11Z</time>
      </trkpt>
      <trkpt lat="41.655204" lon="1.969414">
        <ele>800.60</ele>
        <time>1970-01-01T02:20:13Z</time>
      </trkpt>
      <trkpt lat="41.655154" lon="1.969435">
        <ele>800.60</ele>
        <time>1970-01-01T02:20:15Z</time>
      </trkpt>
      <trkpt lat="41.655137" lon="1.969450">
        <ele>800.60</ele>
        <time>1970-01-01T02:20:16Z</time>
      </trkpt>
      <trkpt lat="41.655110" lon="1.969465">
        <ele>800.60</ele>
        <time>1970-01-01T02:20:17Z</time>
      </trkpt>
      <trkpt lat="41.655061" lon="1.969500">
        <ele>800.60</ele>
        <time>1970-01-01T02:20:19Z</time>
      </trkpt>
      <trkpt lat="41.655038" lon="1.969514">
        <ele>800.60</ele>
        <time>1970-01-01T02:20:20Z</time>
      </trkpt>
      <trkpt lat="41.655013" lon="1.969530">
        <ele>800.60</ele>
        <time>1970-01-01T02:20:21Z</time>
      </trkpt>
      <trkpt lat="41.654969" lon="1.969573">
        <ele>800.60</ele>
        <time>1970-01-01T02:20:23Z</time>
      </trkpt>
      <trkpt lat="41.654941" lon="1.969625">
        <ele>800.60</ele>
        <time>1970-01-01T02:20:25Z</time>
      </trkpt>
      <trkpt lat="41.654920" lon="1.969645">
        <ele>800.80</ele>
        <time>1970-01-01T02:20:26Z</time>
      </trkpt>
      <trkpt lat="41.654899" lon="1.969667">
        <ele>800.80</ele>
        <time>1970-01-01T02:20:27Z</time>
      </trkpt>
      <trkpt lat="41.654850" lon="1.969741">
        <ele>801.00</ele>
        <time>1970-01-01T02:20:29Z</time>
      </trkpt>
      <trkpt lat="41.654783" lon="1.969825">
        <ele>801.40</ele>
        <time>1970-01-01T02:20:31Z</time>
      </trkpt>
      <trkpt lat="41.654718" lon="1.969894">
        <ele>801.60</ele>
        <time>1970-01-01T02:20:33Z</time>
      </trkpt>
      <trkpt lat="41.654688" lon="1.969914">
        <ele>801.60</ele>
        <time>1970-01-01T02:20:34Z</time>
      </trkpt>
      <trkpt lat="41.654656" lon="1.969927">
        <ele>801.80</ele>
        <time>1970-01-01T02:20:35Z</time>
      </trkpt>
      <trkpt lat="41.654590" lon="1.969928">
        <ele>802.00</ele>
        <time>1970-01-01T02:20:37Z</time>
      </trkpt>
      <trkpt lat="41.654525" lon="1.969903">
        <ele>802.00</ele>
        <time>1970-01-01T02:20:39Z</time>
      </trkpt>
      <trkpt lat="41.654459" lon="1.969870">
        <ele>802.20</ele>
        <time>1970-01-01T02:20:41Z</time>
      </trkpt>
      <trkpt lat="41.654387" lon="1.969856">
        <ele>802.40</ele>
        <time>1970-01-01T02:20:43Z</time>
      </trkpt>
      <trkpt lat="41.654322" lon="1.969839">
        <ele>802.40</ele>
        <time>1970-01-01T02:20:45Z</time>
      </trkpt>
      <trkpt lat="41.654290" lon="1.969830">
        <ele>802.40</ele>
        <time>1970-01-01T02:20:46Z</time>
      </trkpt>
      <trkpt lat="41.654259" lon="1.969821">
        <ele>802.40</ele>
        <time>1970-01-01T02:20:47Z</time>
      </trkpt>
      <trkpt lat="41.654209" lon="1.969799">
        <ele>802.40</ele>
        <time>1970-01-01T02:20:49Z</time>
      </trkpt>
      <trkpt lat="41.654193" lon="1.969784">
        <ele>802.40</ele>
        <time>1970-01-01T02:20:50Z</time>
      </trkpt>
      <trkpt lat="41.654180" lon="1.969769">
        <ele>802.40</ele>
        <time>1970-01-01T02:20:51Z</time>
      </trkpt>
      <trkpt lat="41.654147" lon="1.969746">
        <ele>802.00</ele>
        <time>1970-01-01T02:20:53Z</time>
      </trkpt>
      <trkpt lat="41.654131" lon="1.969733">
        <ele>801.80</ele>
        <time>1970-01-01T02:20:54Z</time>
      </trkpt>
      <trkpt lat="41.654112" lon="1.969717">
        <ele>801.80</ele>
        <time>1970-01-01T02:20:55Z</time>
      </trkpt>
      <trkpt lat="41.654071" lon="1.969685">
        <ele>801.80</ele>
        <time>1970-01-01T02:20:57Z</time>
      </trkpt>
      <trkpt lat="41.654039" lon="1.969653">
        <ele>801.80</ele>
        <time>1970-01-01T02:20:59Z</time>
      </trkpt>
      <trkpt lat="41.654016" lon="1.969633">
        <ele>801.80</ele>
        <time>1970-01-01T02:21:01Z</time>
      </trkpt>
      <trkpt lat="41.653997" lon="1.969622">
        <ele>801.80</ele>
        <time>1970-01-01T02:21:02Z</time>
      </trkpt>
      <trkpt lat="41.653973" lon="1.969615">
        <ele>801.80</ele>
        <time>1970-01-01T02:21:03Z</time>
      </trkpt>
      <trkpt lat="41.653932" lon="1.969593">
        <ele>801.80</ele>
        <time>1970-01-01T02:21:05Z</time>
      </trkpt>
      <trkpt lat="41.653902" lon="1.969574">
        <ele>801.80</ele>
        <time>1970-01-01T02:21:07Z</time>
      </trkpt>
      <trkpt lat="41.653877" lon="1.969540">
        <ele>801.80</ele>
        <time>1970-01-01T02:21:09Z</time>
      </trkpt>
      <trkpt lat="41.653856" lon="1.969528">
        <ele>801.80</ele>
        <time>1970-01-01T02:21:10Z</time>
      </trkpt>
      <trkpt lat="41.653835" lon="1.969519">
        <ele>802.00</ele>
        <time>1970-01-01T02:21:11Z</time>
      </trkpt>
      <trkpt lat="41.653812" lon="1.969513">
        <ele>802.00</ele>
        <time>1970-01-01T02:21:12Z</time>
      </trkpt>
      <trkpt lat="41.653783" lon="1.969505">
        <ele>802.00</ele>
        <time>1970-01-01T02:21:13Z</time>
      </trkpt>
      <trkpt lat="41.653728" lon="1.969478">
        <ele>802.20</ele>
        <time>1970-01-01T02:21:15Z</time>
      </trkpt>
      <trkpt lat="41.653683" lon="1.969450">
        <ele>802.20</ele>
        <time>1970-01-01T02:21:17Z</time>
      </trkpt>
      <trkpt lat="41.653665" lon="1.969438">
        <ele>802.40</ele>
        <time>1970-01-01T02:21:18Z</time>
      </trkpt>
      <trkpt lat="41.653646" lon="1.969433">
        <ele>802.40</ele>
        <time>1970-01-01T02:21:19Z</time>
      </trkpt>
      <trkpt lat="41.653607" lon="1.969425">
        <ele>802.60</ele>
        <time>1970-01-01T02:21:21Z</time>
      </trkpt>
      <trkpt lat="41.653554" lon="1.969414">
        <ele>803.00</ele>
        <time>1970-01-01T02:21:23Z</time>
      </trkpt>
      <trkpt lat="41.653518" lon="1.969405">
        <ele>803.20</ele>
        <time>1970-01-01T02:21:24Z</time>
      </trkpt>
      <trkpt lat="41.653487" lon="1.969400">
        <ele>803.40</ele>
        <time>1970-01-01T02:21:25Z</time>
      </trkpt>
      <trkpt lat="41.653456" lon="1.969389">
        <ele>803.60</ele>
        <time>1970-01-01T02:21:26Z</time>
      </trkpt>
      <trkpt lat="41.653425" lon="1.969377">
        <ele>803.80</ele>
        <time>1970-01-01T02:21:27Z</time>
      </trkpt>
      <trkpt lat="41.653377" lon="1.969353">
        <ele>804.20</ele>
        <time>1970-01-01T02:21:29Z</time>
      </trkpt>
      <trkpt lat="41.653342" lon="1.969327">
        <ele>804.40</ele>
        <time>1970-01-01T02:21:31Z</time>
      </trkpt>
      <trkpt lat="41.653288" lon="1.969299">
        <ele>804.40</ele>
        <time>1970-01-01T02:21:33Z</time>
      </trkpt>
      <trkpt lat="41.653230" lon="1.969277">
        <ele>804.60</ele>
        <time>1970-01-01T02:21:35Z</time>
      </trkpt>
      <trkpt lat="41.653200" lon="1.969267">
        <ele>804.60</ele>
        <time>1970-01-01T02:21:36Z</time>
      </trkpt>
      <trkpt lat="41.653186" lon="1.969261">
        <ele>804.60</ele>
        <time>1970-01-01T02:21:37Z</time>
      </trkpt>
      <trkpt lat="41.653167" lon="1.969255">
        <ele>804.60</ele>
        <time>1970-01-01T02:21:39Z</time>
      </trkpt>
      <trkpt lat="41.653161" lon="1.969251">
        <ele>804.60</ele>
        <time>1970-01-01T02:21:40Z</time>
      </trkpt>
      <trkpt lat="41.653157" lon="1.969250">
        <ele>804.60</ele>
        <time>1970-01-01T02:21:41Z</time>
      </trkpt>
      <trkpt lat="41.653145" lon="1.969242">
        <ele>804.60</ele>
        <time>1970-01-01T02:21:43Z</time>
      </trkpt>
      <trkpt lat="41.653139" lon="1.969240">
        <ele>804.60</ele>
        <time>1970-01-01T02:21:45Z</time>
      </trkpt>
      <trkpt lat="41.653139" lon="1.969242">
        <ele>804.60</ele>
        <time>1970-01-01T02:21:47Z</time>
      </trkpt>
      <trkpt lat="41.653139" lon="1.969242">
        <ele>804.60</ele>
        <time>1970-01-01T02:21:49Z</time>
      </trkpt>
      <trkpt lat="41.653139" lon="1.969242">
        <ele>804.60</ele>
        <time>1970-01-01T02:21:50Z</time>
      </trkpt>
      <trkpt lat="41.653139" lon="1.969244">
        <ele>804.60</ele>
        <time>1970-01-01T02:21:51Z</time>
      </trkpt>
      <trkpt lat="41.653139" lon="1.969248">
        <ele>804.60</ele>
        <time>1970-01-01T02:21:53Z</time>
      </trkpt>
      <trkpt lat="41.653135" lon="1.969249">
        <ele>804.60</ele>
        <time>1970-01-01T02:21:55Z</time>
      </trkpt>
      <trkpt lat="41.653131" lon="1.969248">
        <ele>804.60</ele>
        <time>1970-01-01T02:21:57Z</time>
      </trkpt>
      <trkpt lat="41.653129" lon="1.969249">
        <ele>804.60</ele>
        <time>1970-01-01T02:21:59Z</time>
      </trkpt>
      <trkpt lat="41.653128" lon="1.969249">
        <ele>804.60</ele>
        <time>1970-01-01T02:22:00Z</time>
      </trkpt>
      <trkpt lat="41.653113" lon="1.969245">
        <ele>804.60</ele>
        <time>1970-01-01T02:22:01Z</time>
      </trkpt>
      <trkpt lat="41.653078" lon="1.969235">
        <ele>804.60</ele>
        <time>1970-01-01T02:22:03Z</time>
      </trkpt>
      <trkpt lat="41.653055" lon="1.969227">
        <ele>804.60</ele>
        <time>1970-01-01T02:22:04Z</time>
      </trkpt>
      <trkpt lat="41.653029" lon="1.969217">
        <ele>804.60</ele>
        <time>1970-01-01T02:22:05Z</time>
      </trkpt>
      <trkpt lat="41.652980" lon="1.969201">
        <ele>804.60</ele>
        <time>1970-01-01T02:22:07Z</time>
      </trkpt>
      <trkpt lat="41.652928" lon="1.969184">
        <ele>804.60</ele>
        <time>1970-01-01T02:22:09Z</time>
      </trkpt>
      <trkpt lat="41.652872" lon="1.969169">
        <ele>804.40</ele>
        <time>1970-01-01T02:22:11Z</time>
      </trkpt>
      <trkpt lat="41.652827" lon="1.969154">
        <ele>804.60</ele>
        <time>1970-01-01T02:22:13Z</time>
      </trkpt>
      <trkpt lat="41.652787" lon="1.969141">
        <ele>805.20</ele>
        <time>1970-01-01T02:22:15Z</time>
      </trkpt>
      <trkpt lat="41.652769" lon="1.969133">
        <ele>805.60</ele>
        <time>1970-01-01T02:22:16Z</time>
      </trkpt>
      <trkpt lat="41.652750" lon="1.969127">
        <ele>806.00</ele>
        <time>1970-01-01T02:22:17Z</time>
      </trkpt>
      <trkpt lat="41.652707" lon="1.969126">
        <ele>806.60</ele>
        <time>1970-01-01T02:22:19Z</time>
      </trkpt>
      <trkpt lat="41.652687" lon="1.969122">
        <ele>806.80</ele>
        <time>1970-01-01T02:22:20Z</time>
      </trkpt>
      <trkpt lat="41.652666" lon="1.969113">
        <ele>807.20</ele>
        <time>1970-01-01T02:22:21Z</time>
      </trkpt>
      <trkpt lat="41.652615" lon="1.969102">
        <ele>807.60</ele>
        <time>1970-01-01T02:22:23Z</time>
      </trkpt>
      <trkpt lat="41.652591" lon="1.969099">
        <ele>807.80</ele>
        <time>1970-01-01T02:22:24Z</time>
      </trkpt>
      <trkpt lat="41.652563" lon="1.969093">
        <ele>808.00</ele>
        <time>1970-01-01T02:22:25Z</time>
      </trkpt>
      <trkpt lat="41.652534" lon="1.969088">
        <ele>808.20</ele>
        <time>1970-01-01T02:22:26Z</time>
      </trkpt>
      <trkpt lat="41.652500" lon="1.969084">
        <ele>808.20</ele>
        <time>1970-01-01T02:22:27Z</time>
      </trkpt>
      <trkpt lat="41.652440" lon="1.969071">
        <ele>808.40</ele>
        <time>1970-01-01T02:22:29Z</time>
      </trkpt>
      <trkpt lat="41.652387" lon="1.969055">
        <ele>808.40</ele>
        <time>1970-01-01T02:22:31Z</time>
      </trkpt>
      <trkpt lat="41.652332" lon="1.969037">
        <ele>808.40</ele>
        <time>1970-01-01T02:22:33Z</time>
      </trkpt>
      <trkpt lat="41.652287" lon="1.969027">
        <ele>808.40</ele>
        <time>1970-01-01T02:22:35Z</time>
      </trkpt>
      <trkpt lat="41.652242" lon="1.969020">
        <ele>808.40</ele>
        <time>1970-01-01T02:22:37Z</time>
      </trkpt>
      <trkpt lat="41.652202" lon="1.969014">
        <ele>808.40</ele>
        <time>1970-01-01T02:22:39Z</time>
      </trkpt>
      <trkpt lat="41.652149" lon="1.969001">
        <ele>808.40</ele>
        <time>1970-01-01T02:22:41Z</time>
      </trkpt>
      <trkpt lat="41.652102" lon="1.968993">
        <ele>808.40</ele>
        <time>1970-01-01T02:22:43Z</time>
      </trkpt>
      <trkpt lat="41.652084" lon="1.968992">
        <ele>808.40</ele>
        <time>1970-01-01T02:22:44Z</time>
      </trkpt>
      <trkpt lat="41.652063" lon="1.968991">
        <ele>808.40</ele>
        <time>1970-01-01T02:22:45Z</time>
      </trkpt>
      <trkpt lat="41.652017" lon="1.969005">
        <ele>808.60</ele>
        <time>1970-01-01T02:22:47Z</time>
      </trkpt>
      <trkpt lat="41.651998" lon="1.969015">
        <ele>808.80</ele>
        <time>1970-01-01T02:22:48Z</time>
      </trkpt>
      <trkpt lat="41.651979" lon="1.969026">
        <ele>809.00</ele>
        <time>1970-01-01T02:22:49Z</time>
      </trkpt>
      <trkpt lat="41.651948" lon="1.969044">
        <ele>809.20</ele>
        <time>1970-01-01T02:22:51Z</time>
      </trkpt>
      <trkpt lat="41.651913" lon="1.969069">
        <ele>809.60</ele>
        <time>1970-01-01T02:22:53Z</time>
      </trkpt>
      <trkpt lat="41.651902" lon="1.969092">
        <ele>809.60</ele>
        <time>1970-01-01T02:22:54Z</time>
      </trkpt>
      <trkpt lat="41.651900" lon="1.969120">
        <ele>809.60</ele>
        <time>1970-01-01T02:22:55Z</time>
      </trkpt>
      <trkpt lat="41.651885" lon="1.969190">
        <ele>809.80</ele>
        <time>1970-01-01T02:22:57Z</time>
      </trkpt>
      <trkpt lat="41.651886" lon="1.969259">
        <ele>809.80</ele>
        <time>1970-01-01T02:22:59Z</time>
      </trkpt>
      <trkpt lat="41.651879" lon="1.969325">
        <ele>809.80</ele>
        <time>1970-01-01T02:23:01Z</time>
      </trkpt>
      <trkpt lat="41.651870" lon="1.969362">
        <ele>809.80</ele>
        <time>1970-01-01T02:23:02Z</time>
      </trkpt>
      <trkpt lat="41.651858" lon="1.969396">
        <ele>810.00</ele>
        <time>1970-01-01T02:23:03Z</time>
      </trkpt>
      <trkpt lat="41.651848" lon="1.969422">
        <ele>810.20</ele>
        <time>1970-01-01T02:23:04Z</time>
      </trkpt>
      <trkpt lat="41.651833" lon="1.969439">
        <ele>810.40</ele>
        <time>1970-01-01T02:23:05Z</time>
      </trkpt>
      <trkpt lat="41.651799" lon="1.969497">
        <ele>810.40</ele>
        <time>1970-01-01T02:23:07Z</time>
      </trkpt>
      <trkpt lat="41.651795" lon="1.969534">
        <ele>810.60</ele>
        <time>1970-01-01T02:23:08Z</time>
      </trkpt>
      <trkpt lat="41.651798" lon="1.969575">
        <ele>810.80</ele>
        <time>1970-01-01T02:23:09Z</time>
      </trkpt>
      <trkpt lat="41.651807" lon="1.969617">
        <ele>810.80</ele>
        <time>1970-01-01T02:23:10Z</time>
      </trkpt>
      <trkpt lat="41.651806" lon="1.969661">
        <ele>811.20</ele>
        <time>1970-01-01T02:23:11Z</time>
      </trkpt>
      <trkpt lat="41.651799" lon="1.969704">
        <ele>811.20</ele>
        <time>1970-01-01T02:23:12Z</time>
      </trkpt>
      <trkpt lat="41.651782" lon="1.969743">
        <ele>811.40</ele>
        <time>1970-01-01T02:23:13Z</time>
      </trkpt>
      <trkpt lat="41.651726" lon="1.969794">
        <ele>811.40</ele>
        <time>1970-01-01T02:23:15Z</time>
      </trkpt>
      <trkpt lat="41.651689" lon="1.969807">
        <ele>811.40</ele>
        <time>1970-01-01T02:23:16Z</time>
      </trkpt>
      <trkpt lat="41.651654" lon="1.969818">
        <ele>811.40</ele>
        <time>1970-01-01T02:23:17Z</time>
      </trkpt>
      <trkpt lat="41.651583" lon="1.969841">
        <ele>811.40</ele>
        <time>1970-01-01T02:23:19Z</time>
      </trkpt>
      <trkpt lat="41.651516" lon="1.969874">
        <ele>811.40</ele>
        <time>1970-01-01T02:23:21Z</time>
      </trkpt>
      <trkpt lat="41.651440" lon="1.969901">
        <ele>811.40</ele>
        <time>1970-01-01T02:23:23Z</time>
      </trkpt>
      <trkpt lat="41.651372" lon="1.969945">
        <ele>811.00</ele>
        <time>1970-01-01T02:23:25Z</time>
      </trkpt>
      <trkpt lat="41.651315" lon="1.970006">
        <ele>810.60</ele>
        <time>1970-01-01T02:23:27Z</time>
      </trkpt>
      <trkpt lat="41.651285" lon="1.970041">
        <ele>810.40</ele>
        <time>1970-01-01T02:23:28Z</time>
      </trkpt>
      <trkpt lat="41.651254" lon="1.970079">
        <ele>810.20</ele>
        <time>1970-01-01T02:23:29Z</time>
      </trkpt>
      <trkpt lat="41.651200" lon="1.970160">
        <ele>809.80</ele>
        <time>1970-01-01T02:23:31Z</time>
      </trkpt>
      <trkpt lat="41.651152" lon="1.970227">
        <ele>809.40</ele>
        <time>1970-01-01T02:23:33Z</time>
      </trkpt>
      <trkpt lat="41.651107" lon="1.970285">
        <ele>809.40</ele>
        <time>1970-01-01T02:23:35Z</time>
      </trkpt>
      <trkpt lat="41.651058" lon="1.970321">
        <ele>809.20</ele>
        <time>1970-01-01T02:23:37Z</time>
      </trkpt>
      <trkpt lat="41.651033" lon="1.970336">
        <ele>809.00</ele>
        <time>1970-01-01T02:23:38Z</time>
      </trkpt>
      <trkpt lat="41.651010" lon="1.970349">
        <ele>809.00</ele>
        <time>1970-01-01T02:23:39Z</time>
      </trkpt>
      <trkpt lat="41.650969" lon="1.970367">
        <ele>808.80</ele>
        <time>1970-01-01T02:23:41Z</time>
      </trkpt>
      <trkpt lat="41.650913" lon="1.970375">
        <ele>808.60</ele>
        <time>1970-01-01T02:23:43Z</time>
      </trkpt>
      <trkpt lat="41.650852" lon="1.970398">
        <ele>808.20</ele>
        <time>1970-01-01T02:23:45Z</time>
      </trkpt>
      <trkpt lat="41.650796" lon="1.970419">
        <ele>807.80</ele>
        <time>1970-01-01T02:23:47Z</time>
      </trkpt>
      <trkpt lat="41.650772" lon="1.970430">
        <ele>807.60</ele>
        <time>1970-01-01T02:23:48Z</time>
      </trkpt>
      <trkpt lat="41.650747" lon="1.970444">
        <ele>807.40</ele>
        <time>1970-01-01T02:23:49Z</time>
      </trkpt>
      <trkpt lat="41.650701" lon="1.970486">
        <ele>807.40</ele>
        <time>1970-01-01T02:23:51Z</time>
      </trkpt>
      <trkpt lat="41.650665" lon="1.970528">
        <ele>807.40</ele>
        <time>1970-01-01T02:23:53Z</time>
      </trkpt>
      <trkpt lat="41.650631" lon="1.970569">
        <ele>807.40</ele>
        <time>1970-01-01T02:23:55Z</time>
      </trkpt>
      <trkpt lat="41.650598" lon="1.970611">
        <ele>807.40</ele>
        <time>1970-01-01T02:23:57Z</time>
      </trkpt>
      <trkpt lat="41.650563" lon="1.970655">
        <ele>807.40</ele>
        <time>1970-01-01T02:23:59Z</time>
      </trkpt>
      <trkpt lat="41.650546" lon="1.970678">
        <ele>807.60</ele>
        <time>1970-01-01T02:24:00Z</time>
      </trkpt>
      <trkpt lat="41.650533" lon="1.970705">
        <ele>807.80</ele>
        <time>1970-01-01T02:24:01Z</time>
      </trkpt>
      <trkpt lat="41.650496" lon="1.970755">
        <ele>808.20</ele>
        <time>1970-01-01T02:24:03Z</time>
      </trkpt>
      <trkpt lat="41.650476" lon="1.970773">
        <ele>808.60</ele>
        <time>1970-01-01T02:24:04Z</time>
      </trkpt>
      <trkpt lat="41.650458" lon="1.970785">
        <ele>808.80</ele>
        <time>1970-01-01T02:24:05Z</time>
      </trkpt>
      <trkpt lat="41.650435" lon="1.970802">
        <ele>809.20</ele>
        <time>1970-01-01T02:24:06Z</time>
      </trkpt>
      <trkpt lat="41.650411" lon="1.970824">
        <ele>809.40</ele>
        <time>1970-01-01T02:24:07Z</time>
      </trkpt>
      <trkpt lat="41.650390" lon="1.970852">
        <ele>809.80</ele>
        <time>1970-01-01T02:24:08Z</time>
      </trkpt>
      <trkpt lat="41.650372" lon="1.970883">
        <ele>810.00</ele>
        <time>1970-01-01T02:24:09Z</time>
      </trkpt>
      <trkpt lat="41.650345" lon="1.970949">
        <ele>810.40</ele>
        <time>1970-01-01T02:24:11Z</time>
      </trkpt>
      <trkpt lat="41.650331" lon="1.971016">
        <ele>811.00</ele>
        <time>1970-01-01T02:24:13Z</time>
      </trkpt>
      <trkpt lat="41.650313" lon="1.971085">
        <ele>811.60</ele>
        <time>1970-01-01T02:24:15Z</time>
      </trkpt>
      <trkpt lat="41.650283" lon="1.971142">
        <ele>812.00</ele>
        <time>1970-01-01T02:24:17Z</time>
      </trkpt>
      <trkpt lat="41.650235" lon="1.971168">
        <ele>812.60</ele>
        <time>1970-01-01T02:24:19Z</time>
      </trkpt>
      <trkpt lat="41.650185" lon="1.971185">
        <ele>813.20</ele>
        <time>1970-01-01T02:24:21Z</time>
      </trkpt>
      <trkpt lat="41.650159" lon="1.971193">
        <ele>813.40</ele>
        <time>1970-01-01T02:24:22Z</time>
      </trkpt>
      <trkpt lat="41.650135" lon="1.971198">
        <ele>813.60</ele>
        <time>1970-01-01T02:24:23Z</time>
      </trkpt>
      <trkpt lat="41.650086" lon="1.971191">
        <ele>813.60</ele>
        <time>1970-01-01T02:24:25Z</time>
      </trkpt>
      <trkpt lat="41.650036" lon="1.971174">
        <ele>813.60</ele>
        <time>1970-01-01T02:24:27Z</time>
      </trkpt>
      <trkpt lat="41.649973" lon="1.971148">
        <ele>813.60</ele>
        <time>1970-01-01T02:24:29Z</time>
      </trkpt>
      <trkpt lat="41.649891" lon="1.971110">
        <ele>813.40</ele>
        <time>1970-01-01T02:24:31Z</time>
      </trkpt>
      <trkpt lat="41.649846" lon="1.971092">
        <ele>813.20</ele>
        <time>1970-01-01T02:24:32Z</time>
      </trkpt>
      <trkpt lat="41.649806" lon="1.971075">
        <ele>813.00</ele>
        <time>1970-01-01T02:24:33Z</time>
      </trkpt>
      <trkpt lat="41.649727" lon="1.971050">
        <ele>812.20</ele>
        <time>1970-01-01T02:24:35Z</time>
      </trkpt>
      <trkpt lat="41.649688" lon="1.971042">
        <ele>811.80</ele>
        <time>1970-01-01T02:24:36Z</time>
      </trkpt>
      <trkpt lat="41.649643" lon="1.971047">
        <ele>811.00</ele>
        <time>1970-01-01T02:24:37Z</time>
      </trkpt>
      <trkpt lat="41.649594" lon="1.971064">
        <ele>810.00</ele>
        <time>1970-01-01T02:24:38Z</time>
      </trkpt>
      <trkpt lat="41.649544" lon="1.971094">
        <ele>809.00</ele>
        <time>1970-01-01T02:24:39Z</time>
      </trkpt>
      <trkpt lat="41.649494" lon="1.971127">
        <ele>808.20</ele>
        <time>1970-01-01T02:24:40Z</time>
      </trkpt>
      <trkpt lat="41.649442" lon="1.971161">
        <ele>807.20</ele>
        <time>1970-01-01T02:24:41Z</time>
      </trkpt>
      <trkpt lat="41.649390" lon="1.971198">
        <ele>806.20</ele>
        <time>1970-01-01T02:24:42Z</time>
      </trkpt>
      <trkpt lat="41.649336" lon="1.971237">
        <ele>805.20</ele>
        <time>1970-01-01T02:24:43Z</time>
      </trkpt>
      <trkpt lat="41.649280" lon="1.971277">
        <ele>804.60</ele>
        <time>1970-01-01T02:24:44Z</time>
      </trkpt>
      <trkpt lat="41.649222" lon="1.971315">
        <ele>804.00</ele>
        <time>1970-01-01T02:24:45Z</time>
      </trkpt>
      <trkpt lat="41.649163" lon="1.971357">
        <ele>803.40</ele>
        <time>1970-01-01T02:24:46Z</time>
      </trkpt>
      <trkpt lat="41.649102" lon="1.971401">
        <ele>802.80</ele>
        <time>1970-01-01T02:24:47Z</time>
      </trkpt>
      <trkpt lat="41.649040" lon="1.971442">
        <ele>802.20</ele>
        <time>1970-01-01T02:24:48Z</time>
      </trkpt>
      <trkpt lat="41.648979" lon="1.971477">
        <ele>801.60</ele>
        <time>1970-01-01T02:24:49Z</time>
      </trkpt>
      <trkpt lat="41.648922" lon="1.971504">
        <ele>801.00</ele>
        <time>1970-01-01T02:24:50Z</time>
      </trkpt>
      <trkpt lat="41.648867" lon="1.971520">
        <ele>800.20</ele>
        <time>1970-01-01T02:24:51Z</time>
      </trkpt>
      <trkpt lat="41.648819" lon="1.971530">
        <ele>799.60</ele>
        <time>1970-01-01T02:24:52Z</time>
      </trkpt>
      <trkpt lat="41.648781" lon="1.971538">
        <ele>799.40</ele>
        <time>1970-01-01T02:24:53Z</time>
      </trkpt>
      <trkpt lat="41.648730" lon="1.971547">
        <ele>798.20</ele>
        <time>1970-01-01T02:24:55Z</time>
      </trkpt>
      <trkpt lat="41.648709" lon="1.971553">
        <ele>797.60</ele>
        <time>1970-01-01T02:24:56Z</time>
      </trkpt>
      <trkpt lat="41.648689" lon="1.971559">
        <ele>796.80</ele>
        <time>1970-01-01T02:24:57Z</time>
      </trkpt>
      <trkpt lat="41.648669" lon="1.971570">
        <ele>795.20</ele>
        <time>1970-01-01T02:24:59Z</time>
      </trkpt>
      <trkpt lat="41.648665" lon="1.971571">
        <ele>794.40</ele>
        <time>1970-01-01T02:25:01Z</time>
      </trkpt>
      <trkpt lat="41.648668" lon="1.971571">
        <ele>794.00</ele>
        <time>1970-01-01T02:25:02Z</time>
      </trkpt>
      <trkpt lat="41.648668" lon="1.971572">
        <ele>793.80</ele>
        <time>1970-01-01T02:25:03Z</time>
      </trkpt>
      <trkpt lat="41.648668" lon="1.971572">
        <ele>793.40</ele>
        <time>1970-01-01T02:25:05Z</time>
      </trkpt>
      <trkpt lat="41.648668" lon="1.971572">
        <ele>793.40</ele>
        <time>1970-01-01T02:25:07Z</time>
      </trkpt>
      <trkpt lat="41.648668" lon="1.971572">
        <ele>793.40</ele>
        <time>1970-01-01T02:25:09Z</time>
      </trkpt>
      <trkpt lat="41.648668" lon="1.971572">
        <ele>793.40</ele>
        <time>1970-01-01T02:25:11Z</time>
      </trkpt>
      <trkpt lat="41.648668" lon="1.971572">
        <ele>793.40</ele>
        <time>1970-01-01T02:25:13Z</time>
      </trkpt>
      <trkpt lat="41.648669" lon="1.971573">
        <ele>793.40</ele>
        <time>1970-01-01T02:25:15Z</time>
      </trkpt>
      <trkpt lat="41.648668" lon="1.971573">
        <ele>793.40</ele>
        <time>1970-01-01T02:25:17Z</time>
      </trkpt>
      <trkpt lat="41.648667" lon="1.971573">
        <ele>793.40</ele>
        <time>1970-01-01T02:25:18Z</time>
      </trkpt>
      <trkpt lat="41.648667" lon="1.971573">
        <ele>793.60</ele>
        <time>1970-01-01T02:25:19Z</time>
      </trkpt>
      <trkpt lat="41.648667" lon="1.971573">
        <ele>793.60</ele>
        <time>1970-01-01T02:25:21Z</time>
      </trkpt>
      <trkpt lat="41.648667" lon="1.971573">
        <ele>793.60</ele>
        <time>1970-01-01T02:25:23Z</time>
      </trkpt>
      <trkpt lat="41.648667" lon="1.971572">
        <ele>793.60</ele>
        <time>1970-01-01T02:25:25Z</time>
      </trkpt>
      <trkpt lat="41.648668" lon="1.971573">
        <ele>793.60</ele>
        <time>1970-01-01T02:25:27Z</time>
      </trkpt>
      <trkpt lat="41.648667" lon="1.971573">
        <ele>793.60</ele>
        <time>1970-01-01T02:25:29Z</time>
      </trkpt>
      <trkpt lat="41.648667" lon="1.971573">
        <ele>793.60</ele>
        <time>1970-01-01T02:25:31Z</time>
      </trkpt>
      <trkpt lat="41.648667" lon="1.971573">
        <ele>793.60</ele>
        <time>1970-01-01T02:25:33Z</time>
      </trkpt>
      <trkpt lat="41.648667" lon="1.971573">
        <ele>793.60</ele>
        <time>1970-01-01T02:25:35Z</time>
      </trkpt>
      <trkpt lat="41.648667" lon="1.971573">
        <ele>793.60</ele>
        <time>1970-01-01T02:25:37Z</time>
      </trkpt>
      <trkpt lat="41.648667" lon="1.971574">
        <ele>793.60</ele>
        <time>1970-01-01T02:25:39Z</time>
      </trkpt>
      <trkpt lat="41.648667" lon="1.971574">
        <ele>793.60</ele>
        <time>1970-01-01T02:25:41Z</time>
      </trkpt>
      <trkpt lat="41.648667" lon="1.971574">
        <ele>793.60</ele>
        <time>1970-01-01T02:25:43Z</time>
      </trkpt>
      <trkpt lat="41.648667" lon="1.971574">
        <ele>793.60</ele>
        <time>1970-01-01T02:25:45Z</time>
      </trkpt>
      <trkpt lat="41.648667" lon="1.971574">
        <ele>793.60</ele>
        <time>1970-01-01T02:25:47Z</time>
      </trkpt>
      <trkpt lat="41.648667" lon="1.971574">
        <ele>793.60</ele>
        <time>1970-01-01T02:25:49Z</time>
      </trkpt>
      <trkpt lat="41.648667" lon="1.971574">
        <ele>793.60</ele>
        <time>1970-01-01T02:25:51Z</time>
      </trkpt>
      <trkpt lat="41.648667" lon="1.971574">
        <ele>793.60</ele>
        <time>1970-01-01T02:25:53Z</time>
      </trkpt>
      <trkpt lat="41.648667" lon="1.971575">
        <ele>793.60</ele>
        <time>1970-01-01T02:25:55Z</time>
      </trkpt>
      <trkpt lat="41.648663" lon="1.971578">
        <ele>793.60</ele>
        <time>1970-01-01T02:25:57Z</time>
      </trkpt>
      <trkpt lat="41.648656" lon="1.971583">
        <ele>793.60</ele>
        <time>1970-01-01T02:25:58Z</time>
      </trkpt>
      <trkpt lat="41.648652" lon="1.971583">
        <ele>793.60</ele>
        <time>1970-01-01T02:25:59Z</time>
      </trkpt>
      <trkpt lat="41.648653" lon="1.971582">
        <ele>793.40</ele>
        <time>1970-01-01T02:26:01Z</time>
      </trkpt>
      <trkpt lat="41.648653" lon="1.971581">
        <ele>793.40</ele>
        <time>1970-01-01T02:26:03Z</time>
      </trkpt>
      <trkpt lat="41.648647" lon="1.971578">
        <ele>793.40</ele>
        <time>1970-01-01T02:26:04Z</time>
      </trkpt>
      <trkpt lat="41.648633" lon="1.971572">
        <ele>793.40</ele>
        <time>1970-01-01T02:26:05Z</time>
      </trkpt>
      <trkpt lat="41.648605" lon="1.971562">
        <ele>793.40</ele>
        <time>1970-01-01T02:26:07Z</time>
      </trkpt>
      <trkpt lat="41.648590" lon="1.971557">
        <ele>793.40</ele>
        <time>1970-01-01T02:26:08Z</time>
      </trkpt>
      <trkpt lat="41.648573" lon="1.971561">
        <ele>793.40</ele>
        <time>1970-01-01T02:26:09Z</time>
      </trkpt>
      <trkpt lat="41.648544" lon="1.971562">
        <ele>793.40</ele>
        <time>1970-01-01T02:26:11Z</time>
      </trkpt>
      <trkpt lat="41.648510" lon="1.971560">
        <ele>793.40</ele>
        <time>1970-01-01T02:26:13Z</time>
      </trkpt>
      <trkpt lat="41.648488" lon="1.971564">
        <ele>793.40</ele>
        <time>1970-01-01T02:26:14Z</time>
      </trkpt>
      <trkpt lat="41.648465" lon="1.971562">
        <ele>793.40</ele>
        <time>1970-01-01T02:26:15Z</time>
      </trkpt>
      <trkpt lat="41.648414" lon="1.971539">
        <ele>793.40</ele>
        <time>1970-01-01T02:26:17Z</time>
      </trkpt>
      <trkpt lat="41.648387" lon="1.971524">
        <ele>793.40</ele>
        <time>1970-01-01T02:26:18Z</time>
      </trkpt>
      <trkpt lat="41.648360" lon="1.971511">
        <ele>793.20</ele>
        <time>1970-01-01T02:26:19Z</time>
      </trkpt>
      <trkpt lat="41.648307" lon="1.971488">
        <ele>793.00</ele>
        <time>1970-01-01T02:26:21Z</time>
      </trkpt>
      <trkpt lat="41.648242" lon="1.971472">
        <ele>792.60</ele>
        <time>1970-01-01T02:26:23Z</time>
      </trkpt>
      <trkpt lat="41.648210" lon="1.971469">
        <ele>792.40</ele>
        <time>1970-01-01T02:26:24Z</time>
      </trkpt>
      <trkpt lat="41.648180" lon="1.971471">
        <ele>792.20</ele>
        <time>1970-01-01T02:26:25Z</time>
      </trkpt>
      <trkpt lat="41.648155" lon="1.971474">
        <ele>791.80</ele>
        <time>1970-01-01T02:26:26Z</time>
      </trkpt>
      <trkpt lat="41.648133" lon="1.971478">
        <ele>791.40</ele>
        <time>1970-01-01T02:26:27Z</time>
      </trkpt>
      <trkpt lat="41.648100" lon="1.971482">
        <ele>791.00</ele>
        <time>1970-01-01T02:26:29Z</time>
      </trkpt>
      <trkpt lat="41.648080" lon="1.971479">
        <ele>791.00</ele>
        <time>1970-01-01T02:26:30Z</time>
      </trkpt>
      <trkpt lat="41.648056" lon="1.971467">
        <ele>790.80</ele>
        <time>1970-01-01T02:26:31Z</time>
      </trkpt>
      <trkpt lat="41.648006" lon="1.971450">
        <ele>790.40</ele>
        <time>1970-01-01T02:26:33Z</time>
      </trkpt>
      <trkpt lat="41.647955" lon="1.971442">
        <ele>790.40</ele>
        <time>1970-01-01T02:26:35Z</time>
      </trkpt>
      <trkpt lat="41.647898" lon="1.971426">
        <ele>790.20</ele>
        <time>1970-01-01T02:26:37Z</time>
      </trkpt>
      <trkpt lat="41.647834" lon="1.971416">
        <ele>790.20</ele>
        <time>1970-01-01T02:26:39Z</time>
      </trkpt>
      <trkpt lat="41.647778" lon="1.971399">
        <ele>790.20</ele>
        <time>1970-01-01T02:26:41Z</time>
      </trkpt>
      <trkpt lat="41.647718" lon="1.971376">
        <ele>790.20</ele>
        <time>1970-01-01T02:26:43Z</time>
      </trkpt>
      <trkpt lat="41.647673" lon="1.971367">
        <ele>790.20</ele>
        <time>1970-01-01T02:26:45Z</time>
      </trkpt>
      <trkpt lat="41.647653" lon="1.971355">
        <ele>790.00</ele>
        <time>1970-01-01T02:26:46Z</time>
      </trkpt>
      <trkpt lat="41.647629" lon="1.971340">
        <ele>790.00</ele>
        <time>1970-01-01T02:26:47Z</time>
      </trkpt>
      <trkpt lat="41.647572" lon="1.971344">
        <ele>789.60</ele>
        <time>1970-01-01T02:26:49Z</time>
      </trkpt>
      <trkpt lat="41.647520" lon="1.971364">
        <ele>789.20</ele>
        <time>1970-01-01T02:26:51Z</time>
      </trkpt>
      <trkpt lat="41.647465" lon="1.971364">
        <ele>788.80</ele>
        <time>1970-01-01T02:26:53Z</time>
      </trkpt>
      <trkpt lat="41.647435" lon="1.971370">
        <ele>788.40</ele>
        <time>1970-01-01T02:26:54Z</time>
      </trkpt>
      <trkpt lat="41.647409" lon="1.971374">
        <ele>788.20</ele>
        <time>1970-01-01T02:26:55Z</time>
      </trkpt>
      <trkpt lat="41.647388" lon="1.971374">
        <ele>788.00</ele>
        <time>1970-01-01T02:26:56Z</time>
      </trkpt>
      <trkpt lat="41.647368" lon="1.971370">
        <ele>787.80</ele>
        <time>1970-01-01T02:26:57Z</time>
      </trkpt>
      <trkpt lat="41.647317" lon="1.971359">
        <ele>787.80</ele>
        <time>1970-01-01T02:26:59Z</time>
      </trkpt>
      <trkpt lat="41.647256" lon="1.971349">
        <ele>787.40</ele>
        <time>1970-01-01T02:27:01Z</time>
      </trkpt>
      <trkpt lat="41.647203" lon="1.971336">
        <ele>786.80</ele>
        <time>1970-01-01T02:27:03Z</time>
      </trkpt>
      <trkpt lat="41.647155" lon="1.971325">
        <ele>785.80</ele>
        <time>1970-01-01T02:27:05Z</time>
      </trkpt>
      <trkpt lat="41.647091" lon="1.971332">
        <ele>784.80</ele>
        <time>1970-01-01T02:27:07Z</time>
      </trkpt>
      <trkpt lat="41.647058" lon="1.971336">
        <ele>784.40</ele>
        <time>1970-01-01T02:27:08Z</time>
      </trkpt>
      <trkpt lat="41.647030" lon="1.971339">
        <ele>784.20</ele>
        <time>1970-01-01T02:27:09Z</time>
      </trkpt>
      <trkpt lat="41.646951" lon="1.971329">
        <ele>784.00</ele>
        <time>1970-01-01T02:27:11Z</time>
      </trkpt>
      <trkpt lat="41.646869" lon="1.971320">
        <ele>783.80</ele>
        <time>1970-01-01T02:27:13Z</time>
      </trkpt>
      <trkpt lat="41.646783" lon="1.971304">
        <ele>783.60</ele>
        <time>1970-01-01T02:27:15Z</time>
      </trkpt>
      <trkpt lat="41.646724" lon="1.971281">
        <ele>783.40</ele>
        <time>1970-01-01T02:27:17Z</time>
      </trkpt>
      <trkpt lat="41.646674" lon="1.971248">
        <ele>783.40</ele>
        <time>1970-01-01T02:27:19Z</time>
      </trkpt>
      <trkpt lat="41.646606" lon="1.971241">
        <ele>782.80</ele>
        <time>1970-01-01T02:27:21Z</time>
      </trkpt>
      <trkpt lat="41.646563" lon="1.971256">
        <ele>782.60</ele>
        <time>1970-01-01T02:27:23Z</time>
      </trkpt>
      <trkpt lat="41.646530" lon="1.971231">
        <ele>782.60</ele>
        <time>1970-01-01T02:27:25Z</time>
      </trkpt>
      <trkpt lat="41.646483" lon="1.971181">
        <ele>782.40</ele>
        <time>1970-01-01T02:27:27Z</time>
      </trkpt>
      <trkpt lat="41.646427" lon="1.971141">
        <ele>782.40</ele>
        <time>1970-01-01T02:27:29Z</time>
      </trkpt>
      <trkpt lat="41.646402" lon="1.971123">
        <ele>782.40</ele>
        <time>1970-01-01T02:27:30Z</time>
      </trkpt>
      <trkpt lat="41.646371" lon="1.971101">
        <ele>782.40</ele>
        <time>1970-01-01T02:27:31Z</time>
      </trkpt>
      <trkpt lat="41.646303" lon="1.971067">
        <ele>782.40</ele>
        <time>1970-01-01T02:27:33Z</time>
      </trkpt>
      <trkpt lat="41.646241" lon="1.971030">
        <ele>782.40</ele>
        <time>1970-01-01T02:27:35Z</time>
      </trkpt>
      <trkpt lat="41.646181" lon="1.970994">
        <ele>782.40</ele>
        <time>1970-01-01T02:27:37Z</time>
      </trkpt>
      <trkpt lat="41.646121" lon="1.970963">
        <ele>782.40</ele>
        <time>1970-01-01T02:27:39Z</time>
      </trkpt>
      <trkpt lat="41.646070" lon="1.970952">
        <ele>782.40</ele>
        <time>1970-01-01T02:27:41Z</time>
      </trkpt>
      <trkpt lat="41.646028" lon="1.970943">
        <ele>782.40</ele>
        <time>1970-01-01T02:27:43Z</time>
      </trkpt>
      <trkpt lat="41.645977" lon="1.970926">
        <ele>782.40</ele>
        <time>1970-01-01T02:27:45Z</time>
      </trkpt>
      <trkpt lat="41.645952" lon="1.970918">
        <ele>782.40</ele>
        <time>1970-01-01T02:27:46Z</time>
      </trkpt>
      <trkpt lat="41.645928" lon="1.970905">
        <ele>782.40</ele>
        <time>1970-01-01T02:27:47Z</time>
      </trkpt>
      <trkpt lat="41.645880" lon="1.970886">
        <ele>782.60</ele>
        <time>1970-01-01T02:27:49Z</time>
      </trkpt>
      <trkpt lat="41.645832" lon="1.970846">
        <ele>782.80</ele>
        <time>1970-01-01T02:27:51Z</time>
      </trkpt>
      <trkpt lat="41.645779" lon="1.970776">
        <ele>783.20</ele>
        <time>1970-01-01T02:27:53Z</time>
      </trkpt>
      <trkpt lat="41.645718" lon="1.970717">
        <ele>783.40</ele>
        <time>1970-01-01T02:27:55Z</time>
      </trkpt>
      <trkpt lat="41.645696" lon="1.970691">
        <ele>783.40</ele>
        <time>1970-01-01T02:27:56Z</time>
      </trkpt>
      <trkpt lat="41.645676" lon="1.970671">
        <ele>783.60</ele>
        <time>1970-01-01T02:27:57Z</time>
      </trkpt>
      <trkpt lat="41.645633" lon="1.970639">
        <ele>783.60</ele>
        <time>1970-01-01T02:27:59Z</time>
      </trkpt>
      <trkpt lat="41.645591" lon="1.970601">
        <ele>783.60</ele>
        <time>1970-01-01T02:28:01Z</time>
      </trkpt>
      <trkpt lat="41.645575" lon="1.970577">
        <ele>783.60</ele>
        <time>1970-01-01T02:28:02Z</time>
      </trkpt>
      <trkpt lat="41.645554" lon="1.970538">
        <ele>783.40</ele>
        <time>1970-01-01T02:28:03Z</time>
      </trkpt>
      <trkpt lat="41.645521" lon="1.970472">
        <ele>782.80</ele>
        <time>1970-01-01T02:28:05Z</time>
      </trkpt>
      <trkpt lat="41.645510" lon="1.970447">
        <ele>782.60</ele>
        <time>1970-01-01T02:28:06Z</time>
      </trkpt>
      <trkpt lat="41.645494" lon="1.970426">
        <ele>782.40</ele>
        <time>1970-01-01T02:28:07Z</time>
      </trkpt>
      <trkpt lat="41.645452" lon="1.970396">
        <ele>782.20</ele>
        <time>1970-01-01T02:28:09Z</time>
      </trkpt>
      <trkpt lat="41.645418" lon="1.970361">
        <ele>782.00</ele>
        <time>1970-01-01T02:28:11Z</time>
      </trkpt>
      <trkpt lat="41.645377" lon="1.970280">
        <ele>782.00</ele>
        <time>1970-01-01T02:28:13Z</time>
      </trkpt>
      <trkpt lat="41.645355" lon="1.970238">
        <ele>782.00</ele>
        <time>1970-01-01T02:28:14Z</time>
      </trkpt>
      <trkpt lat="41.645344" lon="1.970206">
        <ele>782.00</ele>
        <time>1970-01-01T02:28:15Z</time>
      </trkpt>
      <trkpt lat="41.645331" lon="1.970165">
        <ele>782.00</ele>
        <time>1970-01-01T02:28:16Z</time>
      </trkpt>
      <trkpt lat="41.645312" lon="1.970132">
        <ele>781.80</ele>
        <time>1970-01-01T02:28:17Z</time>
      </trkpt>
      <trkpt lat="41.645283" lon="1.970057">
        <ele>781.80</ele>
        <time>1970-01-01T02:28:19Z</time>
      </trkpt>
      <trkpt lat="41.645252" lon="1.969988">
        <ele>781.80</ele>
        <time>1970-01-01T02:28:21Z</time>
      </trkpt>
      <trkpt lat="41.645249" lon="1.969955">
        <ele>781.60</ele>
        <time>1970-01-01T02:28:22Z</time>
      </trkpt>
      <trkpt lat="41.645236" lon="1.969909">
        <ele>781.20</ele>
        <time>1970-01-01T02:28:23Z</time>
      </trkpt>
      <trkpt lat="41.645226" lon="1.969859">
        <ele>781.00</ele>
        <time>1970-01-01T02:28:24Z</time>
      </trkpt>
      <trkpt lat="41.645209" lon="1.969813">
        <ele>780.80</ele>
        <time>1970-01-01T02:28:25Z</time>
      </trkpt>
      <trkpt lat="41.645175" lon="1.969754">
        <ele>780.40</ele>
        <time>1970-01-01T02:28:27Z</time>
      </trkpt>
      <trkpt lat="41.645126" lon="1.969692">
        <ele>780.40</ele>
        <time>1970-01-01T02:28:29Z</time>
      </trkpt>
      <trkpt lat="41.645114" lon="1.969658">
        <ele>780.20</ele>
        <time>1970-01-01T02:28:30Z</time>
      </trkpt>
      <trkpt lat="41.645094" lon="1.969626">
        <ele>780.20</ele>
        <time>1970-01-01T02:28:31Z</time>
      </trkpt>
      <trkpt lat="41.645048" lon="1.969540">
        <ele>780.20</ele>
        <time>1970-01-01T02:28:33Z</time>
      </trkpt>
      <trkpt lat="41.645027" lon="1.969506">
        <ele>780.20</ele>
        <time>1970-01-01T02:28:34Z</time>
      </trkpt>
      <trkpt lat="41.645007" lon="1.969473">
        <ele>780.20</ele>
        <time>1970-01-01T02:28:35Z</time>
      </trkpt>
      <trkpt lat="41.644891" lon="1.969397">
        <ele>780.20</ele>
        <time>1970-01-01T02:28:37Z</time>
      </trkpt>
      <trkpt lat="41.644825" lon="1.969323">
        <ele>780.40</ele>
        <time>1970-01-01T02:28:39Z</time>
      </trkpt>
      <trkpt lat="41.644781" lon="1.969259">
        <ele>780.80</ele>
        <time>1970-01-01T02:28:41Z</time>
      </trkpt>
      <trkpt lat="41.644748" lon="1.969210">
        <ele>781.40</ele>
        <time>1970-01-01T02:28:43Z</time>
      </trkpt>
      <trkpt lat="41.644732" lon="1.969194">
        <ele>781.60</ele>
        <time>1970-01-01T02:28:44Z</time>
      </trkpt>
      <trkpt lat="41.644716" lon="1.969184">
        <ele>781.60</ele>
        <time>1970-01-01T02:28:45Z</time>
      </trkpt>
      <trkpt lat="41.644692" lon="1.969199">
        <ele>781.60</ele>
        <time>1970-01-01T02:28:47Z</time>
      </trkpt>
      <trkpt lat="41.644679" lon="1.969215">
        <ele>781.60</ele>
        <time>1970-01-01T02:28:48Z</time>
      </trkpt>
      <trkpt lat="41.644666" lon="1.969237">
        <ele>781.60</ele>
        <time>1970-01-01T02:28:49Z</time>
      </trkpt>
      <trkpt lat="41.644635" lon="1.969281">
        <ele>781.60</ele>
        <time>1970-01-01T02:28:51Z</time>
      </trkpt>
      <trkpt lat="41.644598" lon="1.969324">
        <ele>781.40</ele>
        <time>1970-01-01T02:28:53Z</time>
      </trkpt>
      <trkpt lat="41.644581" lon="1.969340">
        <ele>781.40</ele>
        <time>1970-01-01T02:28:54Z</time>
      </trkpt>
      <trkpt lat="41.644563" lon="1.969348">
        <ele>781.40</ele>
        <time>1970-01-01T02:28:55Z</time>
      </trkpt>
      <trkpt lat="41.644516" lon="1.969382">
        <ele>781.00</ele>
        <time>1970-01-01T02:28:57Z</time>
      </trkpt>
      <trkpt lat="41.644486" lon="1.969406">
        <ele>780.60</ele>
        <time>1970-01-01T02:28:58Z</time>
      </trkpt>
      <trkpt lat="41.644452" lon="1.969422">
        <ele>780.20</ele>
        <time>1970-01-01T02:28:59Z</time>
      </trkpt>
      <trkpt lat="41.644421" lon="1.969431">
        <ele>779.60</ele>
        <time>1970-01-01T02:29:00Z</time>
      </trkpt>
      <trkpt lat="41.644388" lon="1.969441">
        <ele>779.20</ele>
        <time>1970-01-01T02:29:01Z</time>
      </trkpt>
      <trkpt lat="41.644354" lon="1.969451">
        <ele>778.60</ele>
        <time>1970-01-01T02:29:02Z</time>
      </trkpt>
      <trkpt lat="41.644317" lon="1.969462">
        <ele>778.00</ele>
        <time>1970-01-01T02:29:03Z</time>
      </trkpt>
      <trkpt lat="41.644282" lon="1.969472">
        <ele>777.40</ele>
        <time>1970-01-01T02:29:04Z</time>
      </trkpt>
      <trkpt lat="41.644247" lon="1.969488">
        <ele>777.00</ele>
        <time>1970-01-01T02:29:05Z</time>
      </trkpt>
      <trkpt lat="41.644184" lon="1.969522">
        <ele>776.00</ele>
        <time>1970-01-01T02:29:07Z</time>
      </trkpt>
      <trkpt lat="41.644121" lon="1.969543">
        <ele>774.80</ele>
        <time>1970-01-01T02:29:09Z</time>
      </trkpt>
      <trkpt lat="41.644071" lon="1.969559">
        <ele>774.00</ele>
        <time>1970-01-01T02:29:11Z</time>
      </trkpt>
      <trkpt lat="41.644055" lon="1.969568">
        <ele>773.40</ele>
        <time>1970-01-01T02:29:12Z</time>
      </trkpt>
      <trkpt lat="41.644040" lon="1.969574">
        <ele>773.20</ele>
        <time>1970-01-01T02:29:13Z</time>
      </trkpt>
      <trkpt lat="41.644024" lon="1.969584">
        <ele>772.80</ele>
        <time>1970-01-01T02:29:14Z</time>
      </trkpt>
      <trkpt lat="41.644008" lon="1.969590">
        <ele>772.60</ele>
        <time>1970-01-01T02:29:15Z</time>
      </trkpt>
      <trkpt lat="41.643967" lon="1.969579">
        <ele>772.20</ele>
        <time>1970-01-01T02:29:17Z</time>
      </trkpt>
      <trkpt lat="41.643941" lon="1.969571">
        <ele>772.00</ele>
        <time>1970-01-01T02:29:18Z</time>
      </trkpt>
      <trkpt lat="41.643906" lon="1.969561">
        <ele>771.80</ele>
        <time>1970-01-01T02:29:19Z</time>
      </trkpt>
      <trkpt lat="41.643843" lon="1.969553">
        <ele>771.40</ele>
        <time>1970-01-01T02:29:21Z</time>
      </trkpt>
      <trkpt lat="41.643786" lon="1.969551">
        <ele>771.20</ele>
        <time>1970-01-01T02:29:23Z</time>
      </trkpt>
      <trkpt lat="41.643763" lon="1.969556">
        <ele>771.00</ele>
        <time>1970-01-01T02:29:24Z</time>
      </trkpt>
      <trkpt lat="41.643747" lon="1.969565">
        <ele>770.80</ele>
        <time>1970-01-01T02:29:25Z</time>
      </trkpt>
      <trkpt lat="41.643730" lon="1.969565">
        <ele>770.20</ele>
        <time>1970-01-01T02:29:26Z</time>
      </trkpt>
      <trkpt lat="41.643714" lon="1.969565">
        <ele>769.60</ele>
        <time>1970-01-01T02:29:27Z</time>
      </trkpt>
      <trkpt lat="41.643702" lon="1.969576">
        <ele>769.20</ele>
        <time>1970-01-01T02:29:28Z</time>
      </trkpt>
      <trkpt lat="41.643695" lon="1.969583">
        <ele>768.60</ele>
        <time>1970-01-01T02:29:29Z</time>
      </trkpt>
      <trkpt lat="41.643682" lon="1.969590">
        <ele>768.00</ele>
        <time>1970-01-01T02:29:31Z</time>
      </trkpt>
      <trkpt lat="41.643671" lon="1.969597">
        <ele>767.80</ele>
        <time>1970-01-01T02:29:33Z</time>
      </trkpt>
      <trkpt lat="41.643663" lon="1.969600">
        <ele>767.60</ele>
        <time>1970-01-01T02:29:35Z</time>
      </trkpt>
      <trkpt lat="41.643660" lon="1.969598">
        <ele>767.40</ele>
        <time>1970-01-01T02:29:37Z</time>
      </trkpt>
      <trkpt lat="41.643657" lon="1.969602">
        <ele>767.40</ele>
        <time>1970-01-01T02:29:39Z</time>
      </trkpt>
      <trkpt lat="41.643652" lon="1.969606">
        <ele>767.40</ele>
        <time>1970-01-01T02:29:41Z</time>
      </trkpt>
      <trkpt lat="41.643651" lon="1.969604">
        <ele>767.40</ele>
        <time>1970-01-01T02:29:43Z</time>
      </trkpt>
      <trkpt lat="41.643649" lon="1.969601">
        <ele>767.40</ele>
        <time>1970-01-01T02:29:45Z</time>
      </trkpt>
      <trkpt lat="41.643646" lon="1.969601">
        <ele>767.40</ele>
        <time>1970-01-01T02:29:46Z</time>
      </trkpt>
      <trkpt lat="41.643642" lon="1.969605">
        <ele>767.40</ele>
        <time>1970-01-01T02:29:47Z</time>
      </trkpt>
      <trkpt lat="41.643617" lon="1.969613">
        <ele>767.40</ele>
        <time>1970-01-01T02:29:49Z</time>
      </trkpt>
      <trkpt lat="41.643589" lon="1.969619">
        <ele>767.40</ele>
        <time>1970-01-01T02:29:51Z</time>
      </trkpt>
      <trkpt lat="41.643560" lon="1.969633">
        <ele>767.40</ele>
        <time>1970-01-01T02:29:53Z</time>
      </trkpt>
      <trkpt lat="41.643521" lon="1.969643">
        <ele>767.60</ele>
        <time>1970-01-01T02:29:55Z</time>
      </trkpt>
      <trkpt lat="41.643470" lon="1.969636">
        <ele>767.80</ele>
        <time>1970-01-01T02:29:57Z</time>
      </trkpt>
      <trkpt lat="41.643407" lon="1.969611">
        <ele>768.00</ele>
        <time>1970-01-01T02:29:59Z</time>
      </trkpt>
      <trkpt lat="41.643342" lon="1.969585">
        <ele>768.40</ele>
        <time>1970-01-01T02:30:01Z</time>
      </trkpt>
      <trkpt lat="41.643268" lon="1.969558">
        <ele>768.60</ele>
        <time>1970-01-01T02:30:03Z</time>
      </trkpt>
      <trkpt lat="41.643194" lon="1.969548">
        <ele>768.80</ele>
        <time>1970-01-01T02:30:05Z</time>
      </trkpt>
      <trkpt lat="41.643130" lon="1.969550">
        <ele>768.80</ele>
        <time>1970-01-01T02:30:07Z</time>
      </trkpt>
      <trkpt lat="41.643069" lon="1.969565">
        <ele>768.80</ele>
        <time>1970-01-01T02:30:09Z</time>
      </trkpt>
      <trkpt lat="41.643042" lon="1.969585">
        <ele>768.80</ele>
        <time>1970-01-01T02:30:10Z</time>
      </trkpt>
      <trkpt lat="41.643017" lon="1.969603">
        <ele>768.80</ele>
        <time>1970-01-01T02:30:11Z</time>
      </trkpt>
      <trkpt lat="41.642972" lon="1.969646">
        <ele>768.60</ele>
        <time>1970-01-01T02:30:13Z</time>
      </trkpt>
      <trkpt lat="41.642948" lon="1.969681">
        <ele>768.20</ele>
        <time>1970-01-01T02:30:15Z</time>
      </trkpt>
      <trkpt lat="41.642919" lon="1.969724">
        <ele>767.60</ele>
        <time>1970-01-01T02:30:17Z</time>
      </trkpt>
      <trkpt lat="41.642905" lon="1.969757">
        <ele>767.40</ele>
        <time>1970-01-01T02:30:18Z</time>
      </trkpt>
      <trkpt lat="41.642886" lon="1.969784">
        <ele>766.80</ele>
        <time>1970-01-01T02:30:19Z</time>
      </trkpt>
      <trkpt lat="41.642847" lon="1.969842">
        <ele>766.00</ele>
        <time>1970-01-01T02:30:21Z</time>
      </trkpt>
      <trkpt lat="41.642815" lon="1.969883">
        <ele>765.40</ele>
        <time>1970-01-01T02:30:23Z</time>
      </trkpt>
      <trkpt lat="41.642798" lon="1.969889">
        <ele>765.00</ele>
        <time>1970-01-01T02:30:24Z</time>
      </trkpt>
      <trkpt lat="41.642781" lon="1.969889">
        <ele>764.60</ele>
        <time>1970-01-01T02:30:25Z</time>
      </trkpt>
      <trkpt lat="41.642756" lon="1.969894">
        <ele>764.20</ele>
        <time>1970-01-01T02:30:27Z</time>
      </trkpt>
      <trkpt lat="41.642744" lon="1.969895">
        <ele>764.00</ele>
        <time>1970-01-01T02:30:29Z</time>
      </trkpt>
      <trkpt lat="41.642725" lon="1.969897">
        <ele>764.00</ele>
        <time>1970-01-01T02:30:31Z</time>
      </trkpt>
      <trkpt lat="41.642697" lon="1.969913">
        <ele>764.00</ele>
        <time>1970-01-01T02:30:33Z</time>
      </trkpt>
      <trkpt lat="41.642672" lon="1.969933">
        <ele>764.00</ele>
        <time>1970-01-01T02:30:35Z</time>
      </trkpt>
      <trkpt lat="41.642641" lon="1.969948">
        <ele>764.20</ele>
        <time>1970-01-01T02:30:37Z</time>
      </trkpt>
      <trkpt lat="41.642615" lon="1.969956">
        <ele>764.40</ele>
        <time>1970-01-01T02:30:39Z</time>
      </trkpt>
      <trkpt lat="41.642606" lon="1.969959">
        <ele>764.60</ele>
        <time>1970-01-01T02:30:41Z</time>
      </trkpt>
      <trkpt lat="41.642601" lon="1.969958">
        <ele>764.60</ele>
        <time>1970-01-01T02:30:42Z</time>
      </trkpt>
      <trkpt lat="41.642589" lon="1.969959">
        <ele>764.60</ele>
        <time>1970-01-01T02:30:43Z</time>
      </trkpt>
      <trkpt lat="41.642551" lon="1.969969">
        <ele>765.00</ele>
        <time>1970-01-01T02:30:45Z</time>
      </trkpt>
      <trkpt lat="41.642528" lon="1.969971">
        <ele>765.00</ele>
        <time>1970-01-01T02:30:46Z</time>
      </trkpt>
      <trkpt lat="41.642504" lon="1.969970">
        <ele>765.20</ele>
        <time>1970-01-01T02:30:47Z</time>
      </trkpt>
      <trkpt lat="41.642459" lon="1.969970">
        <ele>765.20</ele>
        <time>1970-01-01T02:30:49Z</time>
      </trkpt>
      <trkpt lat="41.642438" lon="1.969968">
        <ele>765.20</ele>
        <time>1970-01-01T02:30:50Z</time>
      </trkpt>
      <trkpt lat="41.642415" lon="1.969963">
        <ele>765.40</ele>
        <time>1970-01-01T02:30:51Z</time>
      </trkpt>
      <trkpt lat="41.642393" lon="1.969964">
        <ele>765.20</ele>
        <time>1970-01-01T02:30:52Z</time>
      </trkpt>
      <trkpt lat="41.642372" lon="1.969968">
        <ele>765.40</ele>
        <time>1970-01-01T02:30:53Z</time>
      </trkpt>
      <trkpt lat="41.642324" lon="1.969978">
        <ele>766.00</ele>
        <time>1970-01-01T02:30:55Z</time>
      </trkpt>
      <trkpt lat="41.642276" lon="1.969967">
        <ele>766.20</ele>
        <time>1970-01-01T02:30:57Z</time>
      </trkpt>
      <trkpt lat="41.642227" lon="1.969936">
        <ele>766.60</ele>
        <time>1970-01-01T02:30:59Z</time>
      </trkpt>
      <trkpt lat="41.642162" lon="1.969892">
        <ele>766.80</ele>
        <time>1970-01-01T02:31:01Z</time>
      </trkpt>
      <trkpt lat="41.642122" lon="1.969869">
        <ele>767.00</ele>
        <time>1970-01-01T02:31:02Z</time>
      </trkpt>
      <trkpt lat="41.642080" lon="1.969848">
        <ele>767.20</ele>
        <time>1970-01-01T02:31:03Z</time>
      </trkpt>
      <trkpt lat="41.641996" lon="1.969808">
        <ele>767.60</ele>
        <time>1970-01-01T02:31:05Z</time>
      </trkpt>
      <trkpt lat="41.641915" lon="1.969798">
        <ele>767.80</ele>
        <time>1970-01-01T02:31:07Z</time>
      </trkpt>
      <trkpt lat="41.641847" lon="1.969806">
        <ele>767.80</ele>
        <time>1970-01-01T02:31:09Z</time>
      </trkpt>
      <trkpt lat="41.641818" lon="1.969814">
        <ele>768.00</ele>
        <time>1970-01-01T02:31:10Z</time>
      </trkpt>
      <trkpt lat="41.641788" lon="1.969818">
        <ele>768.00</ele>
        <time>1970-01-01T02:31:11Z</time>
      </trkpt>
      <trkpt lat="41.641724" lon="1.969824">
        <ele>768.40</ele>
        <time>1970-01-01T02:31:13Z</time>
      </trkpt>
      <trkpt lat="41.641671" lon="1.969828">
        <ele>768.80</ele>
        <time>1970-01-01T02:31:15Z</time>
      </trkpt>
      <trkpt lat="41.641651" lon="1.969835">
        <ele>769.20</ele>
        <time>1970-01-01T02:31:16Z</time>
      </trkpt>
      <trkpt lat="41.641630" lon="1.969845">
        <ele>769.60</ele>
        <time>1970-01-01T02:31:17Z</time>
      </trkpt>
      <trkpt lat="41.641592" lon="1.969874">
        <ele>770.20</ele>
        <time>1970-01-01T02:31:19Z</time>
      </trkpt>
      <trkpt lat="41.641573" lon="1.969894">
        <ele>770.40</ele>
        <time>1970-01-01T02:31:20Z</time>
      </trkpt>
      <trkpt lat="41.641554" lon="1.969914">
        <ele>770.60</ele>
        <time>1970-01-01T02:31:21Z</time>
      </trkpt>
      <trkpt lat="41.641525" lon="1.969953">
        <ele>771.20</ele>
        <time>1970-01-01T02:31:23Z</time>
      </trkpt>
      <trkpt lat="41.641517" lon="1.969969">
        <ele>771.60</ele>
        <time>1970-01-01T02:31:24Z</time>
      </trkpt>
      <trkpt lat="41.641513" lon="1.969982">
        <ele>772.00</ele>
        <time>1970-01-01T02:31:25Z</time>
      </trkpt>
      <trkpt lat="41.641510" lon="1.969995">
        <ele>772.60</ele>
        <time>1970-01-01T02:31:27Z</time>
      </trkpt>
      <trkpt lat="41.641510" lon="1.969996">
        <ele>772.80</ele>
        <time>1970-01-01T02:31:28Z</time>
      </trkpt>
      <trkpt lat="41.641509" lon="1.969997">
        <ele>773.00</ele>
        <time>1970-01-01T02:31:29Z</time>
      </trkpt>
      <trkpt lat="41.641509" lon="1.969997">
        <ele>773.60</ele>
        <time>1970-01-01T02:31:31Z</time>
      </trkpt>
      <trkpt lat="41.641509" lon="1.969997">
        <ele>773.80</ele>
        <time>1970-01-01T02:31:32Z</time>
      </trkpt>
      <trkpt lat="41.641509" lon="1.969997">
        <ele>774.00</ele>
        <time>1970-01-01T02:31:33Z</time>
      </trkpt>
      <trkpt lat="41.641509" lon="1.969997">
        <ele>774.40</ele>
        <time>1970-01-01T02:31:35Z</time>
      </trkpt>
      <trkpt lat="41.641509" lon="1.969997">
        <ele>774.40</ele>
        <time>1970-01-01T02:31:37Z</time>
      </trkpt>
      <trkpt lat="41.641509" lon="1.969997">
        <ele>774.60</ele>
        <time>1970-01-01T02:31:39Z</time>
      </trkpt>
      <trkpt lat="41.641509" lon="1.969997">
        <ele>774.60</ele>
        <time>1970-01-01T02:31:41Z</time>
      </trkpt>
      <trkpt lat="41.641509" lon="1.969997">
        <ele>774.60</ele>
        <time>1970-01-01T02:31:43Z</time>
      </trkpt>
      <trkpt lat="41.641509" lon="1.969997">
        <ele>774.60</ele>
        <time>1970-01-01T02:31:45Z</time>
      </trkpt>
      <trkpt lat="41.641509" lon="1.969997">
        <ele>774.60</ele>
        <time>1970-01-01T02:31:47Z</time>
      </trkpt>
      <trkpt lat="41.641509" lon="1.969997">
        <ele>774.60</ele>
        <time>1970-01-01T02:31:49Z</time>
      </trkpt>
      <trkpt lat="41.641509" lon="1.969997">
        <ele>774.60</ele>
        <time>1970-01-01T02:31:51Z</time>
      </trkpt>
      <trkpt lat="41.641509" lon="1.969998">
        <ele>774.60</ele>
        <time>1970-01-01T02:31:53Z</time>
      </trkpt>
      <trkpt lat="41.641509" lon="1.969998">
        <ele>774.60</ele>
        <time>1970-01-01T02:31:55Z</time>
      </trkpt>
      <trkpt lat="41.641509" lon="1.969997">
        <ele>774.60</ele>
        <time>1970-01-01T02:31:57Z</time>
      </trkpt>
      <trkpt lat="41.641509" lon="1.969997">
        <ele>774.60</ele>
        <time>1970-01-01T02:31:59Z</time>
      </trkpt>
      <trkpt lat="41.641509" lon="1.969997">
        <ele>774.60</ele>
        <time>1970-01-01T02:32:01Z</time>
      </trkpt>
      <trkpt lat="41.641509" lon="1.969997">
        <ele>774.60</ele>
        <time>1970-01-01T02:32:03Z</time>
      </trkpt>
      <trkpt lat="41.641509" lon="1.969997">
        <ele>774.60</ele>
        <time>1970-01-01T02:32:05Z</time>
      </trkpt>
      <trkpt lat="41.641509" lon="1.969997">
        <ele>774.60</ele>
        <time>1970-01-01T02:32:07Z</time>
      </trkpt>
      <trkpt lat="41.641509" lon="1.969997">
        <ele>774.60</ele>
        <time>1970-01-01T02:32:08Z</time>
      </trkpt>
      <trkpt lat="41.641509" lon="1.969997">
        <ele>774.60</ele>
        <time>1970-01-01T02:32:09Z</time>
      </trkpt>
      <trkpt lat="41.641510" lon="1.969996">
        <ele>774.60</ele>
        <time>1970-01-01T02:32:11Z</time>
      </trkpt>
      <trkpt lat="41.641510" lon="1.969996">
        <ele>774.60</ele>
        <time>1970-01-01T02:32:13Z</time>
      </trkpt>
      <trkpt lat="41.641510" lon="1.969996">
        <ele>774.60</ele>
        <time>1970-01-01T02:32:15Z</time>
      </trkpt>
      <trkpt lat="41.641510" lon="1.969996">
        <ele>774.60</ele>
        <time>1970-01-01T02:32:17Z</time>
      </trkpt>
      <trkpt lat="41.641510" lon="1.969996">
        <ele>774.60</ele>
        <time>1970-01-01T02:32:19Z</time>
      </trkpt>
      <trkpt lat="41.641510" lon="1.969996">
        <ele>774.60</ele>
        <time>1970-01-01T02:32:21Z</time>
      </trkpt>
      <trkpt lat="41.641510" lon="1.969996">
        <ele>774.60</ele>
        <time>1970-01-01T02:32:23Z</time>
      </trkpt>
      <trkpt lat="41.641510" lon="1.969996">
        <ele>774.60</ele>
        <time>1970-01-01T02:32:25Z</time>
      </trkpt>
      <trkpt lat="41.641510" lon="1.969996">
        <ele>774.40</ele>
        <time>1970-01-01T02:32:27Z</time>
      </trkpt>
      <trkpt lat="41.641510" lon="1.969996">
        <ele>774.40</ele>
        <time>1970-01-01T02:32:29Z</time>
      </trkpt>
      <trkpt lat="41.641510" lon="1.969996">
        <ele>774.40</ele>
        <time>1970-01-01T02:32:31Z</time>
      </trkpt>
      <trkpt lat="41.641510" lon="1.969996">
        <ele>774.40</ele>
        <time>1970-01-01T02:32:33Z</time>
      </trkpt>
      <trkpt lat="41.641510" lon="1.969996">
        <ele>774.40</ele>
        <time>1970-01-01T02:32:35Z</time>
      </trkpt>
      <trkpt lat="41.641510" lon="1.969997">
        <ele>774.40</ele>
        <time>1970-01-01T02:32:37Z</time>
      </trkpt>
      <trkpt lat="41.641510" lon="1.969997">
        <ele>774.60</ele>
        <time>1970-01-01T02:32:39Z</time>
      </trkpt>
      <trkpt lat="41.641510" lon="1.969997">
        <ele>774.60</ele>
        <time>1970-01-01T02:32:41Z</time>
      </trkpt>
      <trkpt lat="41.641510" lon="1.969997">
        <ele>774.60</ele>
        <time>1970-01-01T02:32:43Z</time>
      </trkpt>
      <trkpt lat="41.641510" lon="1.969997">
        <ele>774.60</ele>
        <time>1970-01-01T02:32:45Z</time>
      </trkpt>
      <trkpt lat="41.641510" lon="1.969997">
        <ele>774.60</ele>
        <time>1970-01-01T02:32:47Z</time>
      </trkpt>
      <trkpt lat="41.641510" lon="1.969997">
        <ele>774.60</ele>
        <time>1970-01-01T02:32:49Z</time>
      </trkpt>
      <trkpt lat="41.641510" lon="1.969997">
        <ele>774.60</ele>
        <time>1970-01-01T02:32:51Z</time>
      </trkpt>
      <trkpt lat="41.641510" lon="1.969997">
        <ele>774.60</ele>
        <time>1970-01-01T02:32:53Z</time>
      </trkpt>
      <trkpt lat="41.641510" lon="1.969998">
        <ele>774.60</ele>
        <time>1970-01-01T02:32:55Z</time>
      </trkpt>
      <trkpt lat="41.641510" lon="1.969998">
        <ele>774.60</ele>
        <time>1970-01-01T02:32:57Z</time>
      </trkpt>
      <trkpt lat="41.641510" lon="1.969998">
        <ele>774.60</ele>
        <time>1970-01-01T02:32:59Z</time>
      </trkpt>
      <trkpt lat="41.641510" lon="1.969998">
        <ele>774.40</ele>
        <time>1970-01-01T02:33:01Z</time>
      </trkpt>
      <trkpt lat="41.641510" lon="1.969998">
        <ele>774.40</ele>
        <time>1970-01-01T02:33:03Z</time>
      </trkpt>
      <trkpt lat="41.641510" lon="1.969999">
        <ele>774.40</ele>
        <time>1970-01-01T02:33:05Z</time>
      </trkpt>
      <trkpt lat="41.641508" lon="1.970007">
        <ele>774.40</ele>
        <time>1970-01-01T02:33:07Z</time>
      </trkpt>
      <trkpt lat="41.641503" lon="1.970014">
        <ele>774.40</ele>
        <time>1970-01-01T02:33:08Z</time>
      </trkpt>
      <trkpt lat="41.641497" lon="1.970027">
        <ele>774.40</ele>
        <time>1970-01-01T02:33:09Z</time>
      </trkpt>
      <trkpt lat="41.641485" lon="1.970061">
        <ele>774.40</ele>
        <time>1970-01-01T02:33:11Z</time>
      </trkpt>
      <trkpt lat="41.641477" lon="1.970098">
        <ele>774.20</ele>
        <time>1970-01-01T02:33:13Z</time>
      </trkpt>
      <trkpt lat="41.641470" lon="1.970122">
        <ele>774.20</ele>
        <time>1970-01-01T02:33:14Z</time>
      </trkpt>
      <trkpt lat="41.641464" lon="1.970147">
        <ele>774.20</ele>
        <time>1970-01-01T02:33:15Z</time>
      </trkpt>
      <trkpt lat="41.641449" lon="1.970194">
        <ele>774.20</ele>
        <time>1970-01-01T02:33:17Z</time>
      </trkpt>
      <trkpt lat="41.641422" lon="1.970241">
        <ele>774.00</ele>
        <time>1970-01-01T02:33:19Z</time>
      </trkpt>
      <trkpt lat="41.641408" lon="1.970259">
        <ele>774.00</ele>
        <time>1970-01-01T02:33:20Z</time>
      </trkpt>
      <trkpt lat="41.641392" lon="1.970270">
        <ele>774.00</ele>
        <time>1970-01-01T02:33:21Z</time>
      </trkpt>
      <trkpt lat="41.641358" lon="1.970295">
        <ele>774.00</ele>
        <time>1970-01-01T02:33:23Z</time>
      </trkpt>
      <trkpt lat="41.641338" lon="1.970307">
        <ele>774.00</ele>
        <time>1970-01-01T02:33:24Z</time>
      </trkpt>
      <trkpt lat="41.641316" lon="1.970318">
        <ele>774.00</ele>
        <time>1970-01-01T02:33:25Z</time>
      </trkpt>
      <trkpt lat="41.641261" lon="1.970351">
        <ele>774.00</ele>
        <time>1970-01-01T02:33:27Z</time>
      </trkpt>
      <trkpt lat="41.641209" lon="1.970373">
        <ele>774.00</ele>
        <time>1970-01-01T02:33:29Z</time>
      </trkpt>
      <trkpt lat="41.641181" lon="1.970379">
        <ele>774.20</ele>
        <time>1970-01-01T02:33:30Z</time>
      </trkpt>
      <trkpt lat="41.641155" lon="1.970387">
        <ele>774.40</ele>
        <time>1970-01-01T02:33:31Z</time>
      </trkpt>
      <trkpt lat="41.641094" lon="1.970416">
        <ele>774.60</ele>
        <time>1970-01-01T02:33:33Z</time>
      </trkpt>
      <trkpt lat="41.641032" lon="1.970453">
        <ele>774.80</ele>
        <time>1970-01-01T02:33:35Z</time>
      </trkpt>
      <trkpt lat="41.641005" lon="1.970476">
        <ele>774.80</ele>
        <time>1970-01-01T02:33:36Z</time>
      </trkpt>
      <trkpt lat="41.640981" lon="1.970503">
        <ele>775.00</ele>
        <time>1970-01-01T02:33:37Z</time>
      </trkpt>
      <trkpt lat="41.640932" lon="1.970561">
        <ele>775.40</ele>
        <time>1970-01-01T02:33:39Z</time>
      </trkpt>
      <trkpt lat="41.640881" lon="1.970632">
        <ele>776.00</ele>
        <time>1970-01-01T02:33:41Z</time>
      </trkpt>
      <trkpt lat="41.640837" lon="1.970714">
        <ele>776.60</ele>
        <time>1970-01-01T02:33:43Z</time>
      </trkpt>
      <trkpt lat="41.640808" lon="1.970772">
        <ele>776.80</ele>
        <time>1970-01-01T02:33:45Z</time>
      </trkpt>
      <trkpt lat="41.640802" lon="1.970785">
        <ele>776.80</ele>
        <time>1970-01-01T02:33:47Z</time>
      </trkpt>
      <trkpt lat="41.640800" lon="1.970788">
        <ele>776.80</ele>
        <time>1970-01-01T02:33:49Z</time>
      </trkpt>
      <trkpt lat="41.640798" lon="1.970788">
        <ele>776.80</ele>
        <time>1970-01-01T02:33:51Z</time>
      </trkpt>
      <trkpt lat="41.640798" lon="1.970788">
        <ele>776.80</ele>
        <time>1970-01-01T02:33:53Z</time>
      </trkpt>
      <trkpt lat="41.640796" lon="1.970796">
        <ele>776.60</ele>
        <time>1970-01-01T02:33:55Z</time>
      </trkpt>
      <trkpt lat="41.640793" lon="1.970809">
        <ele>776.60</ele>
        <time>1970-01-01T02:33:57Z</time>
      </trkpt>
      <trkpt lat="41.640792" lon="1.970813">
        <ele>776.40</ele>
        <time>1970-01-01T02:33:59Z</time>
      </trkpt>
      <trkpt lat="41.640791" lon="1.970814">
        <ele>776.40</ele>
        <time>1970-01-01T02:34:01Z</time>
      </trkpt>
      <trkpt lat="41.640791" lon="1.970814">
        <ele>776.40</ele>
        <time>1970-01-01T02:34:03Z</time>
      </trkpt>
      <trkpt lat="41.640791" lon="1.970814">
        <ele>776.40</ele>
        <time>1970-01-01T02:34:05Z</time>
      </trkpt>
      <trkpt lat="41.640791" lon="1.970814">
        <ele>776.20</ele>
        <time>1970-01-01T02:34:07Z</time>
      </trkpt>
      <trkpt lat="41.640791" lon="1.970814">
        <ele>776.20</ele>
        <time>1970-01-01T02:34:09Z</time>
      </trkpt>
      <trkpt lat="41.640796" lon="1.970816">
        <ele>776.20</ele>
        <time>1970-01-01T02:34:11Z</time>
      </trkpt>
      <trkpt lat="41.640797" lon="1.970817">
        <ele>776.20</ele>
        <time>1970-01-01T02:34:13Z</time>
      </trkpt>
      <trkpt lat="41.640797" lon="1.970818">
        <ele>776.20</ele>
        <time>1970-01-01T02:34:15Z</time>
      </trkpt>
      <trkpt lat="41.640800" lon="1.970817">
        <ele>776.20</ele>
        <time>1970-01-01T02:34:17Z</time>
      </trkpt>
      <trkpt lat="41.640800" lon="1.970818">
        <ele>776.20</ele>
        <time>1970-01-01T02:34:19Z</time>
      </trkpt>
      <trkpt lat="41.640800" lon="1.970818">
        <ele>776.20</ele>
        <time>1970-01-01T02:34:21Z</time>
      </trkpt>
      <trkpt lat="41.640799" lon="1.970818">
        <ele>776.20</ele>
        <time>1970-01-01T02:34:23Z</time>
      </trkpt>
      <trkpt lat="41.640799" lon="1.970818">
        <ele>776.20</ele>
        <time>1970-01-01T02:34:24Z</time>
      </trkpt>
      <trkpt lat="41.640799" lon="1.970818">
        <ele>776.20</ele>
        <time>1970-01-01T02:34:25Z</time>
      </trkpt>
      <trkpt lat="41.640800" lon="1.970818">
        <ele>776.20</ele>
        <time>1970-01-01T02:34:27Z</time>
      </trkpt>
      <trkpt lat="41.640799" lon="1.970817">
        <ele>776.20</ele>
        <time>1970-01-01T02:34:29Z</time>
      </trkpt>
      <trkpt lat="41.640799" lon="1.970817">
        <ele>776.20</ele>
        <time>1970-01-01T02:34:31Z</time>
      </trkpt>
      <trkpt lat="41.640799" lon="1.970817">
        <ele>776.20</ele>
        <time>1970-01-01T02:34:33Z</time>
      </trkpt>
      <trkpt lat="41.640799" lon="1.970831">
        <ele>776.20</ele>
        <time>1970-01-01T02:34:35Z</time>
      </trkpt>
      <trkpt lat="41.640806" lon="1.970877">
        <ele>776.20</ele>
        <time>1970-01-01T02:34:37Z</time>
      </trkpt>
      <trkpt lat="41.640824" lon="1.970939">
        <ele>776.20</ele>
        <time>1970-01-01T02:34:39Z</time>
      </trkpt>
      <trkpt lat="41.640846" lon="1.971012">
        <ele>776.20</ele>
        <time>1970-01-01T02:34:41Z</time>
      </trkpt>
      <trkpt lat="41.640877" lon="1.971088">
        <ele>776.40</ele>
        <time>1970-01-01T02:34:43Z</time>
      </trkpt>
      <trkpt lat="41.640904" lon="1.971182">
        <ele>776.40</ele>
        <time>1970-01-01T02:34:45Z</time>
      </trkpt>
      <trkpt lat="41.640939" lon="1.971279">
        <ele>776.40</ele>
        <time>1970-01-01T02:34:47Z</time>
      </trkpt>
      <trkpt lat="41.640977" lon="1.971373">
        <ele>776.40</ele>
        <time>1970-01-01T02:34:49Z</time>
      </trkpt>
      <trkpt lat="41.641009" lon="1.971476">
        <ele>776.40</ele>
        <time>1970-01-01T02:34:51Z</time>
      </trkpt>
      <trkpt lat="41.641041" lon="1.971576">
        <ele>776.40</ele>
        <time>1970-01-01T02:34:53Z</time>
      </trkpt>
      <trkpt lat="41.641082" lon="1.971672">
        <ele>776.40</ele>
        <time>1970-01-01T02:34:55Z</time>
      </trkpt>
      <trkpt lat="41.641117" lon="1.971769">
        <ele>776.40</ele>
        <time>1970-01-01T02:34:57Z</time>
      </trkpt>
      <trkpt lat="41.641162" lon="1.971845">
        <ele>776.40</ele>
        <time>1970-01-01T02:34:59Z</time>
      </trkpt>
      <trkpt lat="41.641183" lon="1.971881">
        <ele>776.40</ele>
        <time>1970-01-01T02:35:00Z</time>
      </trkpt>
      <trkpt lat="41.641201" lon="1.971924">
        <ele>776.40</ele>
        <time>1970-01-01T02:35:01Z</time>
      </trkpt>
      <trkpt lat="41.641233" lon="1.972012">
        <ele>776.20</ele>
        <time>1970-01-01T02:35:03Z</time>
      </trkpt>
      <trkpt lat="41.641240" lon="1.972050">
        <ele>776.40</ele>
        <time>1970-01-01T02:35:04Z</time>
      </trkpt>
      <trkpt lat="41.641239" lon="1.972089">
        <ele>776.20</ele>
        <time>1970-01-01T02:35:05Z</time>
      </trkpt>
      <trkpt lat="41.641225" lon="1.972144">
        <ele>776.20</ele>
        <time>1970-01-01T02:35:07Z</time>
      </trkpt>
      <trkpt lat="41.641199" lon="1.972194">
        <ele>776.20</ele>
        <time>1970-01-01T02:35:09Z</time>
      </trkpt>
      <trkpt lat="41.641170" lon="1.972234">
        <ele>776.20</ele>
        <time>1970-01-01T02:35:11Z</time>
      </trkpt>
      <trkpt lat="41.641147" lon="1.972255">
        <ele>776.20</ele>
        <time>1970-01-01T02:35:13Z</time>
      </trkpt>
      <trkpt lat="41.641144" lon="1.972260">
        <ele>776.20</ele>
        <time>1970-01-01T02:35:14Z</time>
      </trkpt>
      <trkpt lat="41.641140" lon="1.972261">
        <ele>776.00</ele>
        <time>1970-01-01T02:35:15Z</time>
      </trkpt>
      <trkpt lat="41.641115" lon="1.972276">
        <ele>775.80</ele>
        <time>1970-01-01T02:35:17Z</time>
      </trkpt>
      <trkpt lat="41.641076" lon="1.972311">
        <ele>775.40</ele>
        <time>1970-01-01T02:35:19Z</time>
      </trkpt>
      <trkpt lat="41.641034" lon="1.972335">
        <ele>775.40</ele>
        <time>1970-01-01T02:35:21Z</time>
      </trkpt>
      <trkpt lat="41.640979" lon="1.972374">
        <ele>775.40</ele>
        <time>1970-01-01T02:35:23Z</time>
      </trkpt>
      <trkpt lat="41.640924" lon="1.972417">
        <ele>775.40</ele>
        <time>1970-01-01T02:35:25Z</time>
      </trkpt>
      <trkpt lat="41.640896" lon="1.972432">
        <ele>775.40</ele>
        <time>1970-01-01T02:35:26Z</time>
      </trkpt>
      <trkpt lat="41.640867" lon="1.972448">
        <ele>775.40</ele>
        <time>1970-01-01T02:35:27Z</time>
      </trkpt>
      <trkpt lat="41.640806" lon="1.972472">
        <ele>775.60</ele>
        <time>1970-01-01T02:35:29Z</time>
      </trkpt>
      <trkpt lat="41.640749" lon="1.972501">
        <ele>776.20</ele>
        <time>1970-01-01T02:35:31Z</time>
      </trkpt>
      <trkpt lat="41.640728" lon="1.972508">
        <ele>776.40</ele>
        <time>1970-01-01T02:35:32Z</time>
      </trkpt>
      <trkpt lat="41.640709" lon="1.972513">
        <ele>776.40</ele>
        <time>1970-01-01T02:35:33Z</time>
      </trkpt>
      <trkpt lat="41.640673" lon="1.972530">
        <ele>776.60</ele>
        <time>1970-01-01T02:35:35Z</time>
      </trkpt>
      <trkpt lat="41.640630" lon="1.972547">
        <ele>777.20</ele>
        <time>1970-01-01T02:35:37Z</time>
      </trkpt>
      <trkpt lat="41.640579" lon="1.972553">
        <ele>777.80</ele>
        <time>1970-01-01T02:35:39Z</time>
      </trkpt>
      <trkpt lat="41.640522" lon="1.972564">
        <ele>778.40</ele>
        <time>1970-01-01T02:35:41Z</time>
      </trkpt>
      <trkpt lat="41.640496" lon="1.972570">
        <ele>778.60</ele>
        <time>1970-01-01T02:35:42Z</time>
      </trkpt>
      <trkpt lat="41.640460" lon="1.972568">
        <ele>778.80</ele>
        <time>1970-01-01T02:35:43Z</time>
      </trkpt>
      <trkpt lat="41.640396" lon="1.972598">
        <ele>779.40</ele>
        <time>1970-01-01T02:35:45Z</time>
      </trkpt>
      <trkpt lat="41.640370" lon="1.972621">
        <ele>779.60</ele>
        <time>1970-01-01T02:35:46Z</time>
      </trkpt>
      <trkpt lat="41.640346" lon="1.972647">
        <ele>779.60</ele>
        <time>1970-01-01T02:35:47Z</time>
      </trkpt>
      <trkpt lat="41.640296" lon="1.972694">
        <ele>779.80</ele>
        <time>1970-01-01T02:35:49Z</time>
      </trkpt>
      <trkpt lat="41.640254" lon="1.972741">
        <ele>780.20</ele>
        <time>1970-01-01T02:35:51Z</time>
      </trkpt>
      <trkpt lat="41.640221" lon="1.972810">
        <ele>780.60</ele>
        <time>1970-01-01T02:35:53Z</time>
      </trkpt>
      <trkpt lat="41.640196" lon="1.972883">
        <ele>781.00</ele>
        <time>1970-01-01T02:35:55Z</time>
      </trkpt>
      <trkpt lat="41.640176" lon="1.972956">
        <ele>781.40</ele>
        <time>1970-01-01T02:35:57Z</time>
      </trkpt>
      <trkpt lat="41.640165" lon="1.972992">
        <ele>781.60</ele>
        <time>1970-01-01T02:35:58Z</time>
      </trkpt>
      <trkpt lat="41.640153" lon="1.973027">
        <ele>782.00</ele>
        <time>1970-01-01T02:35:59Z</time>
      </trkpt>
      <trkpt lat="41.640120" lon="1.973094">
        <ele>782.20</ele>
        <time>1970-01-01T02:36:01Z</time>
      </trkpt>
      <trkpt lat="41.640093" lon="1.973163">
        <ele>782.60</ele>
        <time>1970-01-01T02:36:03Z</time>
      </trkpt>
      <trkpt lat="41.640077" lon="1.973195">
        <ele>782.60</ele>
        <time>1970-01-01T02:36:04Z</time>
      </trkpt>
      <trkpt lat="41.640059" lon="1.973220">
        <ele>782.80</ele>
        <time>1970-01-01T02:36:05Z</time>
      </trkpt>
      <trkpt lat="41.640017" lon="1.973259">
        <ele>783.20</ele>
        <time>1970-01-01T02:36:07Z</time>
      </trkpt>
      <trkpt lat="41.639968" lon="1.973287">
        <ele>783.40</ele>
        <time>1970-01-01T02:36:09Z</time>
      </trkpt>
      <trkpt lat="41.639942" lon="1.973295">
        <ele>783.40</ele>
        <time>1970-01-01T02:36:10Z</time>
      </trkpt>
      <trkpt lat="41.639918" lon="1.973302">
        <ele>783.60</ele>
        <time>1970-01-01T02:36:11Z</time>
      </trkpt>
      <trkpt lat="41.639895" lon="1.973302">
        <ele>783.60</ele>
        <time>1970-01-01T02:36:12Z</time>
      </trkpt>
      <trkpt lat="41.639871" lon="1.973307">
        <ele>783.80</ele>
        <time>1970-01-01T02:36:13Z</time>
      </trkpt>
      <trkpt lat="41.639826" lon="1.973318">
        <ele>784.20</ele>
        <time>1970-01-01T02:36:15Z</time>
      </trkpt>
      <trkpt lat="41.639804" lon="1.973326">
        <ele>784.60</ele>
        <time>1970-01-01T02:36:16Z</time>
      </trkpt>
      <trkpt lat="41.639785" lon="1.973334">
        <ele>784.60</ele>
        <time>1970-01-01T02:36:17Z</time>
      </trkpt>
      <trkpt lat="41.639770" lon="1.973344">
        <ele>784.80</ele>
        <time>1970-01-01T02:36:18Z</time>
      </trkpt>
      <trkpt lat="41.639753" lon="1.973354">
        <ele>785.20</ele>
        <time>1970-01-01T02:36:19Z</time>
      </trkpt>
      <trkpt lat="41.639720" lon="1.973365">
        <ele>785.60</ele>
        <time>1970-01-01T02:36:21Z</time>
      </trkpt>
      <trkpt lat="41.639703" lon="1.973367">
        <ele>785.80</ele>
        <time>1970-01-01T02:36:22Z</time>
      </trkpt>
      <trkpt lat="41.639688" lon="1.973371">
        <ele>785.80</ele>
        <time>1970-01-01T02:36:23Z</time>
      </trkpt>
      <trkpt lat="41.639647" lon="1.973385">
        <ele>786.00</ele>
        <time>1970-01-01T02:36:25Z</time>
      </trkpt>
      <trkpt lat="41.639604" lon="1.973409">
        <ele>786.00</ele>
        <time>1970-01-01T02:36:27Z</time>
      </trkpt>
      <trkpt lat="41.639560" lon="1.973443">
        <ele>786.20</ele>
        <time>1970-01-01T02:36:29Z</time>
      </trkpt>
      <trkpt lat="41.639515" lon="1.973478">
        <ele>786.20</ele>
        <time>1970-01-01T02:36:31Z</time>
      </trkpt>
      <trkpt lat="41.639463" lon="1.973511">
        <ele>786.20</ele>
        <time>1970-01-01T02:36:33Z</time>
      </trkpt>
      <trkpt lat="41.639415" lon="1.973559">
        <ele>786.20</ele>
        <time>1970-01-01T02:36:35Z</time>
      </trkpt>
      <trkpt lat="41.639378" lon="1.973622">
        <ele>786.20</ele>
        <time>1970-01-01T02:36:37Z</time>
      </trkpt>
      <trkpt lat="41.639371" lon="1.973662">
        <ele>786.20</ele>
        <time>1970-01-01T02:36:38Z</time>
      </trkpt>
      <trkpt lat="41.639370" lon="1.973698">
        <ele>786.20</ele>
        <time>1970-01-01T02:36:39Z</time>
      </trkpt>
      <trkpt lat="41.639375" lon="1.973760">
        <ele>786.20</ele>
        <time>1970-01-01T02:36:41Z</time>
      </trkpt>
      <trkpt lat="41.639388" lon="1.973816">
        <ele>786.40</ele>
        <time>1970-01-01T02:36:43Z</time>
      </trkpt>
      <trkpt lat="41.639389" lon="1.973841">
        <ele>786.40</ele>
        <time>1970-01-01T02:36:44Z</time>
      </trkpt>
      <trkpt lat="41.639386" lon="1.973864">
        <ele>786.40</ele>
        <time>1970-01-01T02:36:45Z</time>
      </trkpt>
      <trkpt lat="41.639379" lon="1.973915">
        <ele>786.40</ele>
        <time>1970-01-01T02:36:47Z</time>
      </trkpt>
      <trkpt lat="41.639372" lon="1.973946">
        <ele>786.40</ele>
        <time>1970-01-01T02:36:48Z</time>
      </trkpt>
      <trkpt lat="41.639362" lon="1.973980">
        <ele>786.40</ele>
        <time>1970-01-01T02:36:49Z</time>
      </trkpt>
      <trkpt lat="41.639338" lon="1.974059">
        <ele>786.40</ele>
        <time>1970-01-01T02:36:51Z</time>
      </trkpt>
      <trkpt lat="41.639328" lon="1.974102">
        <ele>786.40</ele>
        <time>1970-01-01T02:36:52Z</time>
      </trkpt>
      <trkpt lat="41.639319" lon="1.974143">
        <ele>786.20</ele>
        <time>1970-01-01T02:36:53Z</time>
      </trkpt>
      <trkpt lat="41.639315" lon="1.974212">
        <ele>785.40</ele>
        <time>1970-01-01T02:36:55Z</time>
      </trkpt>
      <trkpt lat="41.639326" lon="1.974257">
        <ele>784.60</ele>
        <time>1970-01-01T02:36:57Z</time>
      </trkpt>
      <trkpt lat="41.639350" lon="1.974318">
        <ele>784.00</ele>
        <time>1970-01-01T02:36:59Z</time>
      </trkpt>
      <trkpt lat="41.639366" lon="1.974345">
        <ele>783.60</ele>
        <time>1970-01-01T02:37:00Z</time>
      </trkpt>
      <trkpt lat="41.639381" lon="1.974373">
        <ele>783.40</ele>
        <time>1970-01-01T02:37:01Z</time>
      </trkpt>
      <trkpt lat="41.639393" lon="1.974404">
        <ele>783.20</ele>
        <time>1970-01-01T02:37:02Z</time>
      </trkpt>
      <trkpt lat="41.639400" lon="1.974434">
        <ele>783.00</ele>
        <time>1970-01-01T02:37:03Z</time>
      </trkpt>
      <trkpt lat="41.639406" lon="1.974496">
        <ele>782.60</ele>
        <time>1970-01-01T02:37:05Z</time>
      </trkpt>
      <trkpt lat="41.639410" lon="1.974533">
        <ele>782.40</ele>
        <time>1970-01-01T02:37:06Z</time>
      </trkpt>
      <trkpt lat="41.639411" lon="1.974574">
        <ele>781.80</ele>
        <time>1970-01-01T02:37:07Z</time>
      </trkpt>
      <trkpt lat="41.639411" lon="1.974613">
        <ele>781.20</ele>
        <time>1970-01-01T02:37:08Z</time>
      </trkpt>
      <trkpt lat="41.639410" lon="1.974657">
        <ele>780.40</ele>
        <time>1970-01-01T02:37:09Z</time>
      </trkpt>
      <trkpt lat="41.639407" lon="1.974707">
        <ele>779.80</ele>
        <time>1970-01-01T02:37:10Z</time>
      </trkpt>
      <trkpt lat="41.639409" lon="1.974755">
        <ele>779.20</ele>
        <time>1970-01-01T02:37:11Z</time>
      </trkpt>
      <trkpt lat="41.639420" lon="1.974797">
        <ele>778.60</ele>
        <time>1970-01-01T02:37:12Z</time>
      </trkpt>
      <trkpt lat="41.639440" lon="1.974836">
        <ele>778.00</ele>
        <time>1970-01-01T02:37:13Z</time>
      </trkpt>
      <trkpt lat="41.639469" lon="1.974876">
        <ele>777.40</ele>
        <time>1970-01-01T02:37:14Z</time>
      </trkpt>
      <trkpt lat="41.639499" lon="1.974916">
        <ele>776.80</ele>
        <time>1970-01-01T02:37:15Z</time>
      </trkpt>
      <trkpt lat="41.639520" lon="1.974958">
        <ele>776.00</ele>
        <time>1970-01-01T02:37:16Z</time>
      </trkpt>
      <trkpt lat="41.639539" lon="1.975007">
        <ele>775.60</ele>
        <time>1970-01-01T02:37:17Z</time>
      </trkpt>
      <trkpt lat="41.639552" lon="1.975054">
        <ele>775.00</ele>
        <time>1970-01-01T02:37:18Z</time>
      </trkpt>
      <trkpt lat="41.639562" lon="1.975097">
        <ele>774.40</ele>
        <time>1970-01-01T02:37:19Z</time>
      </trkpt>
      <trkpt lat="41.639570" lon="1.975144">
        <ele>773.80</ele>
        <time>1970-01-01T02:37:20Z</time>
      </trkpt>
      <trkpt lat="41.639573" lon="1.975197">
        <ele>773.00</ele>
        <time>1970-01-01T02:37:21Z</time>
      </trkpt>
      <trkpt lat="41.639577" lon="1.975252">
        <ele>772.40</ele>
        <time>1970-01-01T02:37:22Z</time>
      </trkpt>
      <trkpt lat="41.639587" lon="1.975307">
        <ele>771.00</ele>
        <time>1970-01-01T02:37:23Z</time>
      </trkpt>
      <trkpt lat="41.639606" lon="1.975404">
        <ele>770.00</ele>
        <time>1970-01-01T02:37:25Z</time>
      </trkpt>
      <trkpt lat="41.639626" lon="1.975505">
        <ele>769.40</ele>
        <time>1970-01-01T02:37:27Z</time>
      </trkpt>
      <trkpt lat="41.639637" lon="1.975557">
        <ele>769.00</ele>
        <time>1970-01-01T02:37:28Z</time>
      </trkpt>
      <trkpt lat="41.639642" lon="1.975603">
        <ele>768.80</ele>
        <time>1970-01-01T02:37:29Z</time>
      </trkpt>
      <trkpt lat="41.639656" lon="1.975673">
        <ele>768.40</ele>
        <time>1970-01-01T02:37:31Z</time>
      </trkpt>
      <trkpt lat="41.639662" lon="1.975701">
        <ele>768.20</ele>
        <time>1970-01-01T02:37:32Z</time>
      </trkpt>
      <trkpt lat="41.639661" lon="1.975720">
        <ele>768.00</ele>
        <time>1970-01-01T02:37:33Z</time>
      </trkpt>
      <trkpt lat="41.639659" lon="1.975727">
        <ele>767.80</ele>
        <time>1970-01-01T02:37:34Z</time>
      </trkpt>
      <trkpt lat="41.639658" lon="1.975728">
        <ele>767.60</ele>
        <time>1970-01-01T02:37:35Z</time>
      </trkpt>
      <trkpt lat="41.639658" lon="1.975728">
        <ele>767.40</ele>
        <time>1970-01-01T02:37:36Z</time>
      </trkpt>
      <trkpt lat="41.639659" lon="1.975727">
        <ele>767.20</ele>
        <time>1970-01-01T02:37:37Z</time>
      </trkpt>
      <trkpt lat="41.639661" lon="1.975726">
        <ele>766.60</ele>
        <time>1970-01-01T02:37:39Z</time>
      </trkpt>
      <trkpt lat="41.639661" lon="1.975727">
        <ele>766.00</ele>
        <time>1970-01-01T02:37:41Z</time>
      </trkpt>
      <trkpt lat="41.639661" lon="1.975727">
        <ele>765.80</ele>
        <time>1970-01-01T02:37:43Z</time>
      </trkpt>
      <trkpt lat="41.639661" lon="1.975727">
        <ele>765.60</ele>
        <time>1970-01-01T02:37:44Z</time>
      </trkpt>
      <trkpt lat="41.639661" lon="1.975727">
        <ele>765.60</ele>
        <time>1970-01-01T02:37:45Z</time>
      </trkpt>
      <trkpt lat="41.639661" lon="1.975728">
        <ele>765.60</ele>
        <time>1970-01-01T02:37:47Z</time>
      </trkpt>
      <trkpt lat="41.639662" lon="1.975728">
        <ele>765.60</ele>
        <time>1970-01-01T02:37:49Z</time>
      </trkpt>
      <trkpt lat="41.639662" lon="1.975728">
        <ele>765.60</ele>
        <time>1970-01-01T02:37:51Z</time>
      </trkpt>
      <trkpt lat="41.639662" lon="1.975729">
        <ele>765.80</ele>
        <time>1970-01-01T02:37:53Z</time>
      </trkpt>
      <trkpt lat="41.639662" lon="1.975729">
        <ele>765.80</ele>
        <time>1970-01-01T02:37:55Z</time>
      </trkpt>
      <trkpt lat="41.639662" lon="1.975729">
        <ele>765.80</ele>
        <time>1970-01-01T02:37:57Z</time>
      </trkpt>
      <trkpt lat="41.639662" lon="1.975729">
        <ele>765.80</ele>
        <time>1970-01-01T02:37:59Z</time>
      </trkpt>
      <trkpt lat="41.639661" lon="1.975730">
        <ele>765.80</ele>
        <time>1970-01-01T02:38:01Z</time>
      </trkpt>
      <trkpt lat="41.639661" lon="1.975730">
        <ele>765.60</ele>
        <time>1970-01-01T02:38:03Z</time>
      </trkpt>
      <trkpt lat="41.639661" lon="1.975730">
        <ele>765.60</ele>
        <time>1970-01-01T02:38:04Z</time>
      </trkpt>
      <trkpt lat="41.639660" lon="1.975730">
        <ele>765.60</ele>
        <time>1970-01-01T02:38:05Z</time>
      </trkpt>
      <trkpt lat="41.639660" lon="1.975730">
        <ele>765.40</ele>
        <time>1970-01-01T02:38:06Z</time>
      </trkpt>
      <trkpt lat="41.639660" lon="1.975731">
        <ele>765.40</ele>
        <time>1970-01-01T02:38:07Z</time>
      </trkpt>
      <trkpt lat="41.639660" lon="1.975730">
        <ele>765.40</ele>
        <time>1970-01-01T02:38:09Z</time>
      </trkpt>
      <trkpt lat="41.639661" lon="1.975731">
        <ele>765.20</ele>
        <time>1970-01-01T02:38:11Z</time>
      </trkpt>
      <trkpt lat="41.639660" lon="1.975731">
        <ele>765.20</ele>
        <time>1970-01-01T02:38:13Z</time>
      </trkpt>
      <trkpt lat="41.639660" lon="1.975731">
        <ele>765.20</ele>
        <time>1970-01-01T02:38:15Z</time>
      </trkpt>
      <trkpt lat="41.639660" lon="1.975731">
        <ele>765.20</ele>
        <time>1970-01-01T02:38:17Z</time>
      </trkpt>
      <trkpt lat="41.639660" lon="1.975731">
        <ele>765.20</ele>
        <time>1970-01-01T02:38:19Z</time>
      </trkpt>
      <trkpt lat="41.639660" lon="1.975732">
        <ele>765.20</ele>
        <time>1970-01-01T02:38:21Z</time>
      </trkpt>
      <trkpt lat="41.639660" lon="1.975732">
        <ele>765.20</ele>
        <time>1970-01-01T02:38:23Z</time>
      </trkpt>
      <trkpt lat="41.639660" lon="1.975732">
        <ele>765.20</ele>
        <time>1970-01-01T02:38:25Z</time>
      </trkpt>
      <trkpt lat="41.639660" lon="1.975732">
        <ele>765.20</ele>
        <time>1970-01-01T02:38:27Z</time>
      </trkpt>
      <trkpt lat="41.639660" lon="1.975732">
        <ele>765.20</ele>
        <time>1970-01-01T02:38:29Z</time>
      </trkpt>
      <trkpt lat="41.639660" lon="1.975733">
        <ele>765.20</ele>
        <time>1970-01-01T02:38:31Z</time>
      </trkpt>
      <trkpt lat="41.639660" lon="1.975733">
        <ele>765.20</ele>
        <time>1970-01-01T02:38:32Z</time>
      </trkpt>
      <trkpt lat="41.639660" lon="1.975733">
        <ele>765.20</ele>
        <time>1970-01-01T02:38:33Z</time>
      </trkpt>
      <trkpt lat="41.639660" lon="1.975733">
        <ele>765.20</ele>
        <time>1970-01-01T02:38:35Z</time>
      </trkpt>
      <trkpt lat="41.639660" lon="1.975733">
        <ele>765.20</ele>
        <time>1970-01-01T02:38:37Z</time>
      </trkpt>
      <trkpt lat="41.639659" lon="1.975734">
        <ele>765.20</ele>
        <time>1970-01-01T02:38:39Z</time>
      </trkpt>
      <trkpt lat="41.639659" lon="1.975734">
        <ele>765.20</ele>
        <time>1970-01-01T02:38:41Z</time>
      </trkpt>
      <trkpt lat="41.639659" lon="1.975734">
        <ele>765.20</ele>
        <time>1970-01-01T02:38:43Z</time>
      </trkpt>
      <trkpt lat="41.639659" lon="1.975734">
        <ele>765.20</ele>
        <time>1970-01-01T02:38:45Z</time>
      </trkpt>
      <trkpt lat="41.639659" lon="1.975734">
        <ele>765.20</ele>
        <time>1970-01-01T02:38:47Z</time>
      </trkpt>
      <trkpt lat="41.639659" lon="1.975734">
        <ele>765.40</ele>
        <time>1970-01-01T02:38:49Z</time>
      </trkpt>
      <trkpt lat="41.639659" lon="1.975734">
        <ele>765.40</ele>
        <time>1970-01-01T02:38:51Z</time>
      </trkpt>
      <trkpt lat="41.639659" lon="1.975735">
        <ele>765.40</ele>
        <time>1970-01-01T02:38:53Z</time>
      </trkpt>
      <trkpt lat="41.639659" lon="1.975735">
        <ele>765.40</ele>
        <time>1970-01-01T02:38:55Z</time>
      </trkpt>
      <trkpt lat="41.639659" lon="1.975735">
        <ele>765.40</ele>
        <time>1970-01-01T02:38:57Z</time>
      </trkpt>
      <trkpt lat="41.639659" lon="1.975735">
        <ele>765.60</ele>
        <time>1970-01-01T02:38:59Z</time>
      </trkpt>
      <trkpt lat="41.639659" lon="1.975735">
        <ele>765.60</ele>
        <time>1970-01-01T02:39:01Z</time>
      </trkpt>
      <trkpt lat="41.639659" lon="1.975735">
        <ele>765.60</ele>
        <time>1970-01-01T02:39:03Z</time>
      </trkpt>
      <trkpt lat="41.639659" lon="1.975735">
        <ele>765.60</ele>
        <time>1970-01-01T02:39:05Z</time>
      </trkpt>
      <trkpt lat="41.639659" lon="1.975736">
        <ele>765.60</ele>
        <time>1970-01-01T02:39:07Z</time>
      </trkpt>
      <trkpt lat="41.639659" lon="1.975736">
        <ele>765.60</ele>
        <time>1970-01-01T02:39:09Z</time>
      </trkpt>
      <trkpt lat="41.639659" lon="1.975736">
        <ele>765.60</ele>
        <time>1970-01-01T02:39:11Z</time>
      </trkpt>
      <trkpt lat="41.639659" lon="1.975736">
        <ele>765.60</ele>
        <time>1970-01-01T02:39:13Z</time>
      </trkpt>
      <trkpt lat="41.639659" lon="1.975736">
        <ele>765.60</ele>
        <time>1970-01-01T02:39:15Z</time>
      </trkpt>
      <trkpt lat="41.639659" lon="1.975736">
        <ele>765.60</ele>
        <time>1970-01-01T02:39:17Z</time>
      </trkpt>
      <trkpt lat="41.639659" lon="1.975736">
        <ele>765.60</ele>
        <time>1970-01-01T02:39:19Z</time>
      </trkpt>
      <trkpt lat="41.639659" lon="1.975736">
        <ele>765.60</ele>
        <time>1970-01-01T02:39:21Z</time>
      </trkpt>
      <trkpt lat="41.639659" lon="1.975736">
        <ele>765.40</ele>
        <time>1970-01-01T02:39:23Z</time>
      </trkpt>
      <trkpt lat="41.639659" lon="1.975737">
        <ele>765.40</ele>
        <time>1970-01-01T02:39:25Z</time>
      </trkpt>
      <trkpt lat="41.639659" lon="1.975737">
        <ele>765.40</ele>
        <time>1970-01-01T02:39:27Z</time>
      </trkpt>
      <trkpt lat="41.639659" lon="1.975737">
        <ele>765.40</ele>
        <time>1970-01-01T02:39:29Z</time>
      </trkpt>
      <trkpt lat="41.639659" lon="1.975737">
        <ele>765.40</ele>
        <time>1970-01-01T02:39:31Z</time>
      </trkpt>
      <trkpt lat="41.639659" lon="1.975737">
        <ele>765.40</ele>
        <time>1970-01-01T02:39:33Z</time>
      </trkpt>
      <trkpt lat="41.639659" lon="1.975738">
        <ele>765.40</ele>
        <time>1970-01-01T02:39:35Z</time>
      </trkpt>
      <trkpt lat="41.639659" lon="1.975738">
        <ele>765.40</ele>
        <time>1970-01-01T02:39:37Z</time>
      </trkpt>
      <trkpt lat="41.639658" lon="1.975738">
        <ele>765.40</ele>
        <time>1970-01-01T02:39:39Z</time>
      </trkpt>
      <trkpt lat="41.639658" lon="1.975738">
        <ele>765.40</ele>
        <time>1970-01-01T02:39:41Z</time>
      </trkpt>
      <trkpt lat="41.639659" lon="1.975738">
        <ele>765.40</ele>
        <time>1970-01-01T02:39:43Z</time>
      </trkpt>
      <trkpt lat="41.639657" lon="1.975739">
        <ele>765.40</ele>
        <time>1970-01-01T02:39:45Z</time>
      </trkpt>
      <trkpt lat="41.639656" lon="1.975740">
        <ele>765.20</ele>
        <time>1970-01-01T02:39:47Z</time>
      </trkpt>
      <trkpt lat="41.639651" lon="1.975751">
        <ele>765.20</ele>
        <time>1970-01-01T02:39:48Z</time>
      </trkpt>
      <trkpt lat="41.639643" lon="1.975760">
        <ele>765.20</ele>
        <time>1970-01-01T02:39:49Z</time>
      </trkpt>
      <trkpt lat="41.639635" lon="1.975769">
        <ele>765.20</ele>
        <time>1970-01-01T02:39:51Z</time>
      </trkpt>
      <trkpt lat="41.639619" lon="1.975777">
        <ele>765.20</ele>
        <time>1970-01-01T02:39:53Z</time>
      </trkpt>
      <trkpt lat="41.639598" lon="1.975798">
        <ele>765.00</ele>
        <time>1970-01-01T02:39:55Z</time>
      </trkpt>
      <trkpt lat="41.639588" lon="1.975812">
        <ele>765.00</ele>
        <time>1970-01-01T02:39:57Z</time>
      </trkpt>
      <trkpt lat="41.639588" lon="1.975813">
        <ele>765.00</ele>
        <time>1970-01-01T02:39:58Z</time>
      </trkpt>
      <trkpt lat="41.639588" lon="1.975812">
        <ele>765.00</ele>
        <time>1970-01-01T02:39:59Z</time>
      </trkpt>
      <trkpt lat="41.639578" lon="1.975818">
        <ele>765.20</ele>
        <time>1970-01-01T02:40:01Z</time>
      </trkpt>
      <trkpt lat="41.639556" lon="1.975820">
        <ele>765.20</ele>
        <time>1970-01-01T02:40:03Z</time>
      </trkpt>
      <trkpt lat="41.639540" lon="1.975821">
        <ele>765.20</ele>
        <time>1970-01-01T02:40:04Z</time>
      </trkpt>
      <trkpt lat="41.639521" lon="1.975822">
        <ele>765.20</ele>
        <time>1970-01-01T02:40:05Z</time>
      </trkpt>
      <trkpt lat="41.639475" lon="1.975817">
        <ele>765.40</ele>
        <time>1970-01-01T02:40:07Z</time>
      </trkpt>
      <trkpt lat="41.639423" lon="1.975802">
        <ele>765.40</ele>
        <time>1970-01-01T02:40:09Z</time>
      </trkpt>
      <trkpt lat="41.639396" lon="1.975785">
        <ele>765.40</ele>
        <time>1970-01-01T02:40:10Z</time>
      </trkpt>
      <trkpt lat="41.639367" lon="1.975767">
        <ele>765.40</ele>
        <time>1970-01-01T02:40:11Z</time>
      </trkpt>
      <trkpt lat="41.639307" lon="1.975727">
        <ele>765.60</ele>
        <time>1970-01-01T02:40:13Z</time>
      </trkpt>
      <trkpt lat="41.639254" lon="1.975686">
        <ele>765.60</ele>
        <time>1970-01-01T02:40:15Z</time>
      </trkpt>
      <trkpt lat="41.639193" lon="1.975657">
        <ele>765.60</ele>
        <time>1970-01-01T02:40:17Z</time>
      </trkpt>
      <trkpt lat="41.639131" lon="1.975641">
        <ele>765.60</ele>
        <time>1970-01-01T02:40:19Z</time>
      </trkpt>
      <trkpt lat="41.639105" lon="1.975627">
        <ele>765.60</ele>
        <time>1970-01-01T02:40:20Z</time>
      </trkpt>
      <trkpt lat="41.639077" lon="1.975605">
        <ele>765.60</ele>
        <time>1970-01-01T02:40:21Z</time>
      </trkpt>
      <trkpt lat="41.639015" lon="1.975567">
        <ele>765.60</ele>
        <time>1970-01-01T02:40:23Z</time>
      </trkpt>
      <trkpt lat="41.638940" lon="1.975548">
        <ele>765.60</ele>
        <time>1970-01-01T02:40:25Z</time>
      </trkpt>
      <trkpt lat="41.638871" lon="1.975551">
        <ele>765.60</ele>
        <time>1970-01-01T02:40:27Z</time>
      </trkpt>
      <trkpt lat="41.638844" lon="1.975545">
        <ele>765.60</ele>
        <time>1970-01-01T02:40:28Z</time>
      </trkpt>
      <trkpt lat="41.638816" lon="1.975533">
        <ele>765.60</ele>
        <time>1970-01-01T02:40:29Z</time>
      </trkpt>
      <trkpt lat="41.638753" lon="1.975512">
        <ele>765.40</ele>
        <time>1970-01-01T02:40:31Z</time>
      </trkpt>
      <trkpt lat="41.638703" lon="1.975494">
        <ele>765.40</ele>
        <time>1970-01-01T02:40:33Z</time>
      </trkpt>
      <trkpt lat="41.638682" lon="1.975493">
        <ele>765.40</ele>
        <time>1970-01-01T02:40:34Z</time>
      </trkpt>
      <trkpt lat="41.638657" lon="1.975497">
        <ele>765.40</ele>
        <time>1970-01-01T02:40:35Z</time>
      </trkpt>
      <trkpt lat="41.638602" lon="1.975488">
        <ele>765.40</ele>
        <time>1970-01-01T02:40:37Z</time>
      </trkpt>
      <trkpt lat="41.638552" lon="1.975483">
        <ele>765.40</ele>
        <time>1970-01-01T02:40:39Z</time>
      </trkpt>
      <trkpt lat="41.638508" lon="1.975489">
        <ele>765.40</ele>
        <time>1970-01-01T02:40:41Z</time>
      </trkpt>
      <trkpt lat="41.638467" lon="1.975498">
        <ele>765.40</ele>
        <time>1970-01-01T02:40:43Z</time>
      </trkpt>
      <trkpt lat="41.638426" lon="1.975503">
        <ele>765.60</ele>
        <time>1970-01-01T02:40:45Z</time>
      </trkpt>
      <trkpt lat="41.638374" lon="1.975511">
        <ele>766.00</ele>
        <time>1970-01-01T02:40:47Z</time>
      </trkpt>
      <trkpt lat="41.638315" lon="1.975521">
        <ele>766.80</ele>
        <time>1970-01-01T02:40:49Z</time>
      </trkpt>
      <trkpt lat="41.638289" lon="1.975522">
        <ele>766.80</ele>
        <time>1970-01-01T02:40:50Z</time>
      </trkpt>
      <trkpt lat="41.638270" lon="1.975519">
        <ele>767.20</ele>
        <time>1970-01-01T02:40:51Z</time>
      </trkpt>
      <trkpt lat="41.638243" lon="1.975503">
        <ele>767.40</ele>
        <time>1970-01-01T02:40:53Z</time>
      </trkpt>
      <trkpt lat="41.638227" lon="1.975502">
        <ele>767.60</ele>
        <time>1970-01-01T02:40:54Z</time>
      </trkpt>
      <trkpt lat="41.638209" lon="1.975503">
        <ele>767.60</ele>
        <time>1970-01-01T02:40:55Z</time>
      </trkpt>
      <trkpt lat="41.638193" lon="1.975504">
        <ele>767.80</ele>
        <time>1970-01-01T02:40:56Z</time>
      </trkpt>
      <trkpt lat="41.638181" lon="1.975511">
        <ele>768.00</ele>
        <time>1970-01-01T02:40:57Z</time>
      </trkpt>
      <trkpt lat="41.638158" lon="1.975515">
        <ele>768.40</ele>
        <time>1970-01-01T02:40:59Z</time>
      </trkpt>
      <trkpt lat="41.638136" lon="1.975524">
        <ele>769.00</ele>
        <time>1970-01-01T02:41:01Z</time>
      </trkpt>
      <trkpt lat="41.638109" lon="1.975541">
        <ele>769.80</ele>
        <time>1970-01-01T02:41:03Z</time>
      </trkpt>
      <trkpt lat="41.638104" lon="1.975555">
        <ele>770.40</ele>
        <time>1970-01-01T02:41:05Z</time>
      </trkpt>
      <trkpt lat="41.638100" lon="1.975559">
        <ele>770.60</ele>
        <time>1970-01-01T02:41:06Z</time>
      </trkpt>
      <trkpt lat="41.638093" lon="1.975561">
        <ele>770.80</ele>
        <time>1970-01-01T02:41:07Z</time>
      </trkpt>
      <trkpt lat="41.638080" lon="1.975565">
        <ele>771.20</ele>
        <time>1970-01-01T02:41:09Z</time>
      </trkpt>
      <trkpt lat="41.638072" lon="1.975565">
        <ele>771.40</ele>
        <time>1970-01-01T02:41:10Z</time>
      </trkpt>
      <trkpt lat="41.638066" lon="1.975564">
        <ele>771.60</ele>
        <time>1970-01-01T02:41:11Z</time>
      </trkpt>
      <trkpt lat="41.638051" lon="1.975558">
        <ele>771.80</ele>
        <time>1970-01-01T02:41:13Z</time>
      </trkpt>
      <trkpt lat="41.638036" lon="1.975555">
        <ele>772.00</ele>
        <time>1970-01-01T02:41:15Z</time>
      </trkpt>
      <trkpt lat="41.638023" lon="1.975558">
        <ele>772.40</ele>
        <time>1970-01-01T02:41:17Z</time>
      </trkpt>
      <trkpt lat="41.638015" lon="1.975560">
        <ele>772.80</ele>
        <time>1970-01-01T02:41:19Z</time>
      </trkpt>
      <trkpt lat="41.638006" lon="1.975563">
        <ele>773.20</ele>
        <time>1970-01-01T02:41:21Z</time>
      </trkpt>
      <trkpt lat="41.638000" lon="1.975564">
        <ele>773.40</ele>
        <time>1970-01-01T02:41:22Z</time>
      </trkpt>
      <trkpt lat="41.637995" lon="1.975563">
        <ele>773.60</ele>
        <time>1970-01-01T02:41:23Z</time>
      </trkpt>
      <trkpt lat="41.637987" lon="1.975561">
        <ele>773.60</ele>
        <time>1970-01-01T02:41:24Z</time>
      </trkpt>
      <trkpt lat="41.637976" lon="1.975555">
        <ele>773.80</ele>
        <time>1970-01-01T02:41:25Z</time>
      </trkpt>
      <trkpt lat="41.637963" lon="1.975550">
        <ele>774.20</ele>
        <time>1970-01-01T02:41:27Z</time>
      </trkpt>
      <trkpt lat="41.637962" lon="1.975551">
        <ele>774.40</ele>
        <time>1970-01-01T02:41:29Z</time>
      </trkpt>
      <trkpt lat="41.637964" lon="1.975552">
        <ele>774.40</ele>
        <time>1970-01-01T02:41:30Z</time>
      </trkpt>
      <trkpt lat="41.637965" lon="1.975554">
        <ele>774.60</ele>
        <time>1970-01-01T02:41:31Z</time>
      </trkpt>
      <trkpt lat="41.637965" lon="1.975554">
        <ele>774.80</ele>
        <time>1970-01-01T02:41:32Z</time>
      </trkpt>
      <trkpt lat="41.637965" lon="1.975554">
        <ele>775.00</ele>
        <time>1970-01-01T02:41:33Z</time>
      </trkpt>
      <trkpt lat="41.637965" lon="1.975554">
        <ele>775.00</ele>
        <time>1970-01-01T02:41:35Z</time>
      </trkpt>
      <trkpt lat="41.637963" lon="1.975553">
        <ele>775.20</ele>
        <time>1970-01-01T02:41:37Z</time>
      </trkpt>
      <trkpt lat="41.637944" lon="1.975560">
        <ele>775.20</ele>
        <time>1970-01-01T02:41:39Z</time>
      </trkpt>
      <trkpt lat="41.637928" lon="1.975558">
        <ele>775.20</ele>
        <time>1970-01-01T02:41:41Z</time>
      </trkpt>
      <trkpt lat="41.637917" lon="1.975548">
        <ele>775.20</ele>
        <time>1970-01-01T02:41:43Z</time>
      </trkpt>
      <trkpt lat="41.637909" lon="1.975540">
        <ele>775.40</ele>
        <time>1970-01-01T02:41:45Z</time>
      </trkpt>
      <trkpt lat="41.637898" lon="1.975537">
        <ele>775.40</ele>
        <time>1970-01-01T02:41:47Z</time>
      </trkpt>
      <trkpt lat="41.637898" lon="1.975535">
        <ele>775.60</ele>
        <time>1970-01-01T02:41:48Z</time>
      </trkpt>
      <trkpt lat="41.637899" lon="1.975530">
        <ele>775.80</ele>
        <time>1970-01-01T02:41:49Z</time>
      </trkpt>
      <trkpt lat="41.637890" lon="1.975514">
        <ele>776.60</ele>
        <time>1970-01-01T02:41:51Z</time>
      </trkpt>
      <trkpt lat="41.637877" lon="1.975498">
        <ele>777.20</ele>
        <time>1970-01-01T02:41:53Z</time>
      </trkpt>
      <trkpt lat="41.637870" lon="1.975493">
        <ele>777.40</ele>
        <time>1970-01-01T02:41:54Z</time>
      </trkpt>
      <trkpt lat="41.637858" lon="1.975493">
        <ele>777.60</ele>
        <time>1970-01-01T02:41:55Z</time>
      </trkpt>
      <trkpt lat="41.637840" lon="1.975497">
        <ele>778.00</ele>
        <time>1970-01-01T02:41:57Z</time>
      </trkpt>
      <trkpt lat="41.637830" lon="1.975494">
        <ele>778.40</ele>
        <time>1970-01-01T02:41:59Z</time>
      </trkpt>
      <trkpt lat="41.637811" lon="1.975488">
        <ele>778.80</ele>
        <time>1970-01-01T02:42:01Z</time>
      </trkpt>
      <trkpt lat="41.637799" lon="1.975487">
        <ele>779.20</ele>
        <time>1970-01-01T02:42:03Z</time>
      </trkpt>
      <trkpt lat="41.637780" lon="1.975489">
        <ele>779.60</ele>
        <time>1970-01-01T02:42:05Z</time>
      </trkpt>
      <trkpt lat="41.637765" lon="1.975489">
        <ele>780.00</ele>
        <time>1970-01-01T02:42:07Z</time>
      </trkpt>
      <trkpt lat="41.637747" lon="1.975482">
        <ele>780.40</ele>
        <time>1970-01-01T02:42:09Z</time>
      </trkpt>
      <trkpt lat="41.637729" lon="1.975473">
        <ele>780.80</ele>
        <time>1970-01-01T02:42:11Z</time>
      </trkpt>
      <trkpt lat="41.637709" lon="1.975465">
        <ele>781.20</ele>
        <time>1970-01-01T02:42:13Z</time>
      </trkpt>
      <trkpt lat="41.637696" lon="1.975456">
        <ele>781.60</ele>
        <time>1970-01-01T02:42:15Z</time>
      </trkpt>
      <trkpt lat="41.637686" lon="1.975437">
        <ele>782.00</ele>
        <time>1970-01-01T02:42:17Z</time>
      </trkpt>
      <trkpt lat="41.637682" lon="1.975429">
        <ele>782.20</ele>
        <time>1970-01-01T02:42:18Z</time>
      </trkpt>
      <trkpt lat="41.637678" lon="1.975421">
        <ele>782.60</ele>
        <time>1970-01-01T02:42:19Z</time>
      </trkpt>
      <trkpt lat="41.637666" lon="1.975401">
        <ele>783.00</ele>
        <time>1970-01-01T02:42:21Z</time>
      </trkpt>
      <trkpt lat="41.637653" lon="1.975390">
        <ele>783.20</ele>
        <time>1970-01-01T02:42:22Z</time>
      </trkpt>
      <trkpt lat="41.637642" lon="1.975380">
        <ele>783.40</ele>
        <time>1970-01-01T02:42:23Z</time>
      </trkpt>
      <trkpt lat="41.637623" lon="1.975372">
        <ele>783.80</ele>
        <time>1970-01-01T02:42:25Z</time>
      </trkpt>
      <trkpt lat="41.637616" lon="1.975371">
        <ele>784.40</ele>
        <time>1970-01-01T02:42:27Z</time>
      </trkpt>
      <trkpt lat="41.637613" lon="1.975370">
        <ele>784.60</ele>
        <time>1970-01-01T02:42:28Z</time>
      </trkpt>
      <trkpt lat="41.637609" lon="1.975369">
        <ele>784.60</ele>
        <time>1970-01-01T02:42:29Z</time>
      </trkpt>
      <trkpt lat="41.637606" lon="1.975368">
        <ele>784.80</ele>
        <time>1970-01-01T02:42:31Z</time>
      </trkpt>
      <trkpt lat="41.637605" lon="1.975368">
        <ele>784.80</ele>
        <time>1970-01-01T02:42:33Z</time>
      </trkpt>
      <trkpt lat="41.637606" lon="1.975368">
        <ele>784.80</ele>
        <time>1970-01-01T02:42:35Z</time>
      </trkpt>
      <trkpt lat="41.637606" lon="1.975368">
        <ele>784.80</ele>
        <time>1970-01-01T02:42:37Z</time>
      </trkpt>
      <trkpt lat="41.637606" lon="1.975368">
        <ele>785.00</ele>
        <time>1970-01-01T02:42:39Z</time>
      </trkpt>
      <trkpt lat="41.637606" lon="1.975368">
        <ele>785.00</ele>
        <time>1970-01-01T02:42:41Z</time>
      </trkpt>
      <trkpt lat="41.637606" lon="1.975368">
        <ele>785.00</ele>
        <time>1970-01-01T02:42:43Z</time>
      </trkpt>
      <trkpt lat="41.637606" lon="1.975367">
        <ele>785.00</ele>
        <time>1970-01-01T02:42:45Z</time>
      </trkpt>
      <trkpt lat="41.637606" lon="1.975367">
        <ele>785.00</ele>
        <time>1970-01-01T02:42:47Z</time>
      </trkpt>
      <trkpt lat="41.637606" lon="1.975367">
        <ele>785.00</ele>
        <time>1970-01-01T02:42:49Z</time>
      </trkpt>
      <trkpt lat="41.637606" lon="1.975367">
        <ele>785.00</ele>
        <time>1970-01-01T02:42:51Z</time>
      </trkpt>
      <trkpt lat="41.637606" lon="1.975367">
        <ele>785.00</ele>
        <time>1970-01-01T02:42:53Z</time>
      </trkpt>
      <trkpt lat="41.637601" lon="1.975370">
        <ele>785.20</ele>
        <time>1970-01-01T02:42:55Z</time>
      </trkpt>
      <trkpt lat="41.637589" lon="1.975378">
        <ele>785.20</ele>
        <time>1970-01-01T02:42:57Z</time>
      </trkpt>
      <trkpt lat="41.637573" lon="1.975382">
        <ele>785.40</ele>
        <time>1970-01-01T02:42:59Z</time>
      </trkpt>
      <trkpt lat="41.637563" lon="1.975382">
        <ele>785.40</ele>
        <time>1970-01-01T02:43:01Z</time>
      </trkpt>
      <trkpt lat="41.637543" lon="1.975387">
        <ele>785.40</ele>
        <time>1970-01-01T02:43:03Z</time>
      </trkpt>
      <trkpt lat="41.637531" lon="1.975392">
        <ele>785.60</ele>
        <time>1970-01-01T02:43:04Z</time>
      </trkpt>
      <trkpt lat="41.637515" lon="1.975399">
        <ele>785.80</ele>
        <time>1970-01-01T02:43:05Z</time>
      </trkpt>
      <trkpt lat="41.637498" lon="1.975408">
        <ele>786.00</ele>
        <time>1970-01-01T02:43:06Z</time>
      </trkpt>
      <trkpt lat="41.637480" lon="1.975416">
        <ele>786.00</ele>
        <time>1970-01-01T02:43:07Z</time>
      </trkpt>
      <trkpt lat="41.637447" lon="1.975420">
        <ele>786.20</ele>
        <time>1970-01-01T02:43:09Z</time>
      </trkpt>
      <trkpt lat="41.637429" lon="1.975401">
        <ele>786.20</ele>
        <time>1970-01-01T02:43:11Z</time>
      </trkpt>
      <trkpt lat="41.637398" lon="1.975378">
        <ele>786.20</ele>
        <time>1970-01-01T02:43:13Z</time>
      </trkpt>
      <trkpt lat="41.637361" lon="1.975366">
        <ele>786.40</ele>
        <time>1970-01-01T02:43:15Z</time>
      </trkpt>
      <trkpt lat="41.637355" lon="1.975364">
        <ele>786.40</ele>
        <time>1970-01-01T02:43:16Z</time>
      </trkpt>
      <trkpt lat="41.637351" lon="1.975364">
        <ele>786.40</ele>
        <time>1970-01-01T02:43:17Z</time>
      </trkpt>
      <trkpt lat="41.637340" lon="1.975358">
        <ele>786.40</ele>
        <time>1970-01-01T02:43:19Z</time>
      </trkpt>
      <trkpt lat="41.637326" lon="1.975353">
        <ele>786.40</ele>
        <time>1970-01-01T02:43:21Z</time>
      </trkpt>
      <trkpt lat="41.637317" lon="1.975349">
        <ele>786.60</ele>
        <time>1970-01-01T02:43:23Z</time>
      </trkpt>
      <trkpt lat="41.637309" lon="1.975348">
        <ele>786.60</ele>
        <time>1970-01-01T02:43:24Z</time>
      </trkpt>
      <trkpt lat="41.637301" lon="1.975340">
        <ele>786.60</ele>
        <time>1970-01-01T02:43:25Z</time>
      </trkpt>
      <trkpt lat="41.637269" lon="1.975321">
        <ele>786.80</ele>
        <time>1970-01-01T02:43:27Z</time>
      </trkpt>
      <trkpt lat="41.637224" lon="1.975303">
        <ele>786.80</ele>
        <time>1970-01-01T02:43:29Z</time>
      </trkpt>
      <trkpt lat="41.637188" lon="1.975295">
        <ele>787.00</ele>
        <time>1970-01-01T02:43:31Z</time>
      </trkpt>
      <trkpt lat="41.637146" lon="1.975277">
        <ele>787.00</ele>
        <time>1970-01-01T02:43:33Z</time>
      </trkpt>
      <trkpt lat="41.637120" lon="1.975263">
        <ele>787.00</ele>
        <time>1970-01-01T02:43:34Z</time>
      </trkpt>
      <trkpt lat="41.637098" lon="1.975252">
        <ele>787.20</ele>
        <time>1970-01-01T02:43:35Z</time>
      </trkpt>
      <trkpt lat="41.637059" lon="1.975223">
        <ele>787.40</ele>
        <time>1970-01-01T02:43:37Z</time>
      </trkpt>
      <trkpt lat="41.637038" lon="1.975214">
        <ele>787.60</ele>
        <time>1970-01-01T02:43:38Z</time>
      </trkpt>
      <trkpt lat="41.637013" lon="1.975204">
        <ele>787.60</ele>
        <time>1970-01-01T02:43:39Z</time>
      </trkpt>
      <trkpt lat="41.636977" lon="1.975176">
        <ele>787.80</ele>
        <time>1970-01-01T02:43:41Z</time>
      </trkpt>
      <trkpt lat="41.636939" lon="1.975150">
        <ele>788.00</ele>
        <time>1970-01-01T02:43:43Z</time>
      </trkpt>
      <trkpt lat="41.636886" lon="1.975137">
        <ele>788.00</ele>
        <time>1970-01-01T02:43:45Z</time>
      </trkpt>
      <trkpt lat="41.636839" lon="1.975130">
        <ele>788.00</ele>
        <time>1970-01-01T02:43:47Z</time>
      </trkpt>
      <trkpt lat="41.636817" lon="1.975122">
        <ele>788.00</ele>
        <time>1970-01-01T02:43:48Z</time>
      </trkpt>
      <trkpt lat="41.636800" lon="1.975107">
        <ele>788.00</ele>
        <time>1970-01-01T02:43:49Z</time>
      </trkpt>
      <trkpt lat="41.636785" lon="1.975066">
        <ele>788.20</ele>
        <time>1970-01-01T02:43:51Z</time>
      </trkpt>
      <trkpt lat="41.636776" lon="1.975039">
        <ele>788.20</ele>
        <time>1970-01-01T02:43:52Z</time>
      </trkpt>
      <trkpt lat="41.636764" lon="1.975013">
        <ele>788.20</ele>
        <time>1970-01-01T02:43:53Z</time>
      </trkpt>
      <trkpt lat="41.636737" lon="1.974949">
        <ele>788.60</ele>
        <time>1970-01-01T02:43:55Z</time>
      </trkpt>
      <trkpt lat="41.636718" lon="1.974921">
        <ele>788.80</ele>
        <time>1970-01-01T02:43:56Z</time>
      </trkpt>
      <trkpt lat="41.636701" lon="1.974897">
        <ele>789.00</ele>
        <time>1970-01-01T02:43:57Z</time>
      </trkpt>
      <trkpt lat="41.636684" lon="1.974874">
        <ele>789.00</ele>
        <time>1970-01-01T02:43:58Z</time>
      </trkpt>
      <trkpt lat="41.636669" lon="1.974856">
        <ele>789.00</ele>
        <time>1970-01-01T02:43:59Z</time>
      </trkpt>
      <trkpt lat="41.636655" lon="1.974831">
        <ele>789.20</ele>
        <time>1970-01-01T02:44:01Z</time>
      </trkpt>
      <trkpt lat="41.636649" lon="1.974820">
        <ele>789.40</ele>
        <time>1970-01-01T02:44:03Z</time>
      </trkpt>
      <trkpt lat="41.636640" lon="1.974808">
        <ele>789.80</ele>
        <time>1970-01-01T02:44:05Z</time>
      </trkpt>
      <trkpt lat="41.636621" lon="1.974797">
        <ele>790.40</ele>
        <time>1970-01-01T02:44:07Z</time>
      </trkpt>
      <trkpt lat="41.636589" lon="1.974784">
        <ele>790.80</ele>
        <time>1970-01-01T02:44:09Z</time>
      </trkpt>
      <trkpt lat="41.636559" lon="1.974770">
        <ele>791.00</ele>
        <time>1970-01-01T02:44:11Z</time>
      </trkpt>
      <trkpt lat="41.636533" lon="1.974759">
        <ele>791.00</ele>
        <time>1970-01-01T02:44:12Z</time>
      </trkpt>
      <trkpt lat="41.636517" lon="1.974749">
        <ele>791.20</ele>
        <time>1970-01-01T02:44:13Z</time>
      </trkpt>
      <trkpt lat="41.636484" lon="1.974723">
        <ele>791.40</ele>
        <time>1970-01-01T02:44:15Z</time>
      </trkpt>
      <trkpt lat="41.636472" lon="1.974705">
        <ele>791.40</ele>
        <time>1970-01-01T02:44:16Z</time>
      </trkpt>
      <trkpt lat="41.636459" lon="1.974682">
        <ele>791.80</ele>
        <time>1970-01-01T02:44:17Z</time>
      </trkpt>
      <trkpt lat="41.636452" lon="1.974664">
        <ele>791.80</ele>
        <time>1970-01-01T02:44:18Z</time>
      </trkpt>
      <trkpt lat="41.636445" lon="1.974650">
        <ele>792.00</ele>
        <time>1970-01-01T02:44:19Z</time>
      </trkpt>
      <trkpt lat="41.636434" lon="1.974616">
        <ele>792.20</ele>
        <time>1970-01-01T02:44:21Z</time>
      </trkpt>
      <trkpt lat="41.636415" lon="1.974573">
        <ele>792.60</ele>
        <time>1970-01-01T02:44:23Z</time>
      </trkpt>
      <trkpt lat="41.636405" lon="1.974555">
        <ele>793.00</ele>
        <time>1970-01-01T02:44:24Z</time>
      </trkpt>
      <trkpt lat="41.636394" lon="1.974531">
        <ele>793.40</ele>
        <time>1970-01-01T02:44:25Z</time>
      </trkpt>
      <trkpt lat="41.636384" lon="1.974512">
        <ele>793.80</ele>
        <time>1970-01-01T02:44:26Z</time>
      </trkpt>
      <trkpt lat="41.636369" lon="1.974494">
        <ele>794.00</ele>
        <time>1970-01-01T02:44:27Z</time>
      </trkpt>
      <trkpt lat="41.636348" lon="1.974481">
        <ele>794.40</ele>
        <time>1970-01-01T02:44:28Z</time>
      </trkpt>
      <trkpt lat="41.636340" lon="1.974473">
        <ele>794.60</ele>
        <time>1970-01-01T02:44:29Z</time>
      </trkpt>
      <trkpt lat="41.636317" lon="1.974450">
        <ele>795.20</ele>
        <time>1970-01-01T02:44:31Z</time>
      </trkpt>
      <trkpt lat="41.636291" lon="1.974412">
        <ele>795.60</ele>
        <time>1970-01-01T02:44:33Z</time>
      </trkpt>
      <trkpt lat="41.636263" lon="1.974372">
        <ele>795.80</ele>
        <time>1970-01-01T02:44:35Z</time>
      </trkpt>
      <trkpt lat="41.636240" lon="1.974346">
        <ele>796.00</ele>
        <time>1970-01-01T02:44:37Z</time>
      </trkpt>
      <trkpt lat="41.636221" lon="1.974331">
        <ele>796.20</ele>
        <time>1970-01-01T02:44:39Z</time>
      </trkpt>
      <trkpt lat="41.636216" lon="1.974329">
        <ele>796.20</ele>
        <time>1970-01-01T02:44:40Z</time>
      </trkpt>
      <trkpt lat="41.636212" lon="1.974328">
        <ele>796.20</ele>
        <time>1970-01-01T02:44:41Z</time>
      </trkpt>
      <trkpt lat="41.636202" lon="1.974329">
        <ele>796.40</ele>
        <time>1970-01-01T02:44:42Z</time>
      </trkpt>
      <trkpt lat="41.636196" lon="1.974332">
        <ele>796.40</ele>
        <time>1970-01-01T02:44:43Z</time>
      </trkpt>
      <trkpt lat="41.636184" lon="1.974330">
        <ele>796.80</ele>
        <time>1970-01-01T02:44:45Z</time>
      </trkpt>
      <trkpt lat="41.636177" lon="1.974323">
        <ele>797.20</ele>
        <time>1970-01-01T02:44:47Z</time>
      </trkpt>
      <trkpt lat="41.636162" lon="1.974302">
        <ele>797.60</ele>
        <time>1970-01-01T02:44:49Z</time>
      </trkpt>
      <trkpt lat="41.636144" lon="1.974277">
        <ele>798.00</ele>
        <time>1970-01-01T02:44:51Z</time>
      </trkpt>
      <trkpt lat="41.636125" lon="1.974260">
        <ele>798.40</ele>
        <time>1970-01-01T02:44:53Z</time>
      </trkpt>
      <trkpt lat="41.636118" lon="1.974257">
        <ele>798.80</ele>
        <time>1970-01-01T02:44:55Z</time>
      </trkpt>
      <trkpt lat="41.636120" lon="1.974255">
        <ele>799.40</ele>
        <time>1970-01-01T02:44:57Z</time>
      </trkpt>
      <trkpt lat="41.636114" lon="1.974255">
        <ele>799.60</ele>
        <time>1970-01-01T02:44:58Z</time>
      </trkpt>
      <trkpt lat="41.636114" lon="1.974254">
        <ele>799.80</ele>
        <time>1970-01-01T02:44:59Z</time>
      </trkpt>
      <trkpt lat="41.636114" lon="1.974254">
        <ele>800.20</ele>
        <time>1970-01-01T02:45:01Z</time>
      </trkpt>
      <trkpt lat="41.636113" lon="1.974253">
        <ele>800.40</ele>
        <time>1970-01-01T02:45:03Z</time>
      </trkpt>
      <trkpt lat="41.636113" lon="1.974252">
        <ele>800.40</ele>
        <time>1970-01-01T02:45:05Z</time>
      </trkpt>
      <trkpt lat="41.636114" lon="1.974252">
        <ele>800.60</ele>
        <time>1970-01-01T02:45:07Z</time>
      </trkpt>
      <trkpt lat="41.636113" lon="1.974251">
        <ele>800.60</ele>
        <time>1970-01-01T02:45:09Z</time>
      </trkpt>
      <trkpt lat="41.636113" lon="1.974251">
        <ele>800.60</ele>
        <time>1970-01-01T02:45:10Z</time>
      </trkpt>
      <trkpt lat="41.636113" lon="1.974251">
        <ele>800.60</ele>
        <time>1970-01-01T02:45:11Z</time>
      </trkpt>
      <trkpt lat="41.636113" lon="1.974251">
        <ele>800.60</ele>
        <time>1970-01-01T02:45:13Z</time>
      </trkpt>
      <trkpt lat="41.636113" lon="1.974251">
        <ele>800.60</ele>
        <time>1970-01-01T02:45:15Z</time>
      </trkpt>
      <trkpt lat="41.636113" lon="1.974251">
        <ele>800.60</ele>
        <time>1970-01-01T02:45:17Z</time>
      </trkpt>
      <trkpt lat="41.636111" lon="1.974247">
        <ele>800.60</ele>
        <time>1970-01-01T02:45:19Z</time>
      </trkpt>
      <trkpt lat="41.636109" lon="1.974237">
        <ele>800.80</ele>
        <time>1970-01-01T02:45:21Z</time>
      </trkpt>
      <trkpt lat="41.636108" lon="1.974223">
        <ele>800.80</ele>
        <time>1970-01-01T02:45:22Z</time>
      </trkpt>
      <trkpt lat="41.636104" lon="1.974206">
        <ele>800.80</ele>
        <time>1970-01-01T02:45:23Z</time>
      </trkpt>
      <trkpt lat="41.636095" lon="1.974186">
        <ele>800.80</ele>
        <time>1970-01-01T02:45:24Z</time>
      </trkpt>
      <trkpt lat="41.636086" lon="1.974168">
        <ele>800.60</ele>
        <time>1970-01-01T02:45:25Z</time>
      </trkpt>
      <trkpt lat="41.636077" lon="1.974151">
        <ele>800.60</ele>
        <time>1970-01-01T02:45:26Z</time>
      </trkpt>
      <trkpt lat="41.636068" lon="1.974132">
        <ele>800.60</ele>
        <time>1970-01-01T02:45:27Z</time>
      </trkpt>
      <trkpt lat="41.636056" lon="1.974118">
        <ele>800.60</ele>
        <time>1970-01-01T02:45:28Z</time>
      </trkpt>
      <trkpt lat="41.636044" lon="1.974111">
        <ele>800.60</ele>
        <time>1970-01-01T02:45:29Z</time>
      </trkpt>
      <trkpt lat="41.636036" lon="1.974106">
        <ele>800.80</ele>
        <time>1970-01-01T02:45:30Z</time>
      </trkpt>
      <trkpt lat="41.636033" lon="1.974103">
        <ele>800.80</ele>
        <time>1970-01-01T02:45:31Z</time>
      </trkpt>
      <trkpt lat="41.636022" lon="1.974093">
        <ele>801.00</ele>
        <time>1970-01-01T02:45:33Z</time>
      </trkpt>
      <trkpt lat="41.635996" lon="1.974075">
        <ele>801.00</ele>
        <time>1970-01-01T02:45:35Z</time>
      </trkpt>
      <trkpt lat="41.635961" lon="1.974056">
        <ele>801.20</ele>
        <time>1970-01-01T02:45:37Z</time>
      </trkpt>
      <trkpt lat="41.635912" lon="1.974034">
        <ele>801.20</ele>
        <time>1970-01-01T02:45:39Z</time>
      </trkpt>
      <trkpt lat="41.635866" lon="1.974019">
        <ele>801.40</ele>
        <time>1970-01-01T02:45:41Z</time>
      </trkpt>
      <trkpt lat="41.635825" lon="1.974029">
        <ele>801.60</ele>
        <time>1970-01-01T02:45:43Z</time>
      </trkpt>
      <trkpt lat="41.635759" lon="1.974043">
        <ele>802.00</ele>
        <time>1970-01-01T02:45:45Z</time>
      </trkpt>
      <trkpt lat="41.635688" lon="1.974068">
        <ele>801.80</ele>
        <time>1970-01-01T02:45:47Z</time>
      </trkpt>
      <trkpt lat="41.635623" lon="1.974096">
        <ele>801.80</ele>
        <time>1970-01-01T02:45:49Z</time>
      </trkpt>
      <trkpt lat="41.635594" lon="1.974101">
        <ele>801.80</ele>
        <time>1970-01-01T02:45:50Z</time>
      </trkpt>
      <trkpt lat="41.635568" lon="1.974093">
        <ele>801.80</ele>
        <time>1970-01-01T02:45:51Z</time>
      </trkpt>
      <trkpt lat="41.635513" lon="1.974075">
        <ele>802.00</ele>
        <time>1970-01-01T02:45:53Z</time>
      </trkpt>
      <trkpt lat="41.635489" lon="1.974077">
        <ele>802.00</ele>
        <time>1970-01-01T02:45:54Z</time>
      </trkpt>
      <trkpt lat="41.635467" lon="1.974080">
        <ele>802.00</ele>
        <time>1970-01-01T02:45:55Z</time>
      </trkpt>
      <trkpt lat="41.635434" lon="1.974083">
        <ele>802.00</ele>
        <time>1970-01-01T02:45:57Z</time>
      </trkpt>
      <trkpt lat="41.635417" lon="1.974079">
        <ele>802.00</ele>
        <time>1970-01-01T02:45:58Z</time>
      </trkpt>
      <trkpt lat="41.635393" lon="1.974070">
        <ele>802.00</ele>
        <time>1970-01-01T02:45:59Z</time>
      </trkpt>
      <trkpt lat="41.635335" lon="1.974057">
        <ele>802.00</ele>
        <time>1970-01-01T02:46:01Z</time>
      </trkpt>
      <trkpt lat="41.635290" lon="1.974034">
        <ele>802.00</ele>
        <time>1970-01-01T02:46:03Z</time>
      </trkpt>
      <trkpt lat="41.635273" lon="1.974014">
        <ele>802.20</ele>
        <time>1970-01-01T02:46:04Z</time>
      </trkpt>
      <trkpt lat="41.635257" lon="1.973986">
        <ele>802.20</ele>
        <time>1970-01-01T02:46:05Z</time>
      </trkpt>
      <trkpt lat="41.635218" lon="1.973907">
        <ele>802.20</ele>
        <time>1970-01-01T02:46:07Z</time>
      </trkpt>
      <trkpt lat="41.635190" lon="1.973864">
        <ele>802.40</ele>
        <time>1970-01-01T02:46:08Z</time>
      </trkpt>
      <trkpt lat="41.635159" lon="1.973821">
        <ele>802.40</ele>
        <time>1970-01-01T02:46:09Z</time>
      </trkpt>
      <trkpt lat="41.635099" lon="1.973713">
        <ele>802.40</ele>
        <time>1970-01-01T02:46:11Z</time>
      </trkpt>
      <trkpt lat="41.635038" lon="1.973611">
        <ele>802.40</ele>
        <time>1970-01-01T02:46:13Z</time>
      </trkpt>
      <trkpt lat="41.635005" lon="1.973574">
        <ele>802.20</ele>
        <time>1970-01-01T02:46:14Z</time>
      </trkpt>
      <trkpt lat="41.634974" lon="1.973542">
        <ele>802.00</ele>
        <time>1970-01-01T02:46:15Z</time>
      </trkpt>
      <trkpt lat="41.634922" lon="1.973485">
        <ele>801.40</ele>
        <time>1970-01-01T02:46:17Z</time>
      </trkpt>
      <trkpt lat="41.634899" lon="1.973458">
        <ele>801.20</ele>
        <time>1970-01-01T02:46:18Z</time>
      </trkpt>
      <trkpt lat="41.634881" lon="1.973439">
        <ele>800.80</ele>
        <time>1970-01-01T02:46:19Z</time>
      </trkpt>
      <trkpt lat="41.634866" lon="1.973430">
        <ele>800.20</ele>
        <time>1970-01-01T02:46:21Z</time>
      </trkpt>
      <trkpt lat="41.634862" lon="1.973431">
        <ele>800.00</ele>
        <time>1970-01-01T02:46:23Z</time>
      </trkpt>
      <trkpt lat="41.634859" lon="1.973432">
        <ele>800.00</ele>
        <time>1970-01-01T02:46:25Z</time>
      </trkpt>
      <trkpt lat="41.634859" lon="1.973432">
        <ele>799.80</ele>
        <time>1970-01-01T02:46:27Z</time>
      </trkpt>
      <trkpt lat="41.634859" lon="1.973433">
        <ele>799.60</ele>
        <time>1970-01-01T02:46:29Z</time>
      </trkpt>
      <trkpt lat="41.634859" lon="1.973433">
        <ele>799.60</ele>
        <time>1970-01-01T02:46:31Z</time>
      </trkpt>
      <trkpt lat="41.634859" lon="1.973433">
        <ele>799.60</ele>
        <time>1970-01-01T02:46:33Z</time>
      </trkpt>
      <trkpt lat="41.634859" lon="1.973433">
        <ele>799.40</ele>
        <time>1970-01-01T02:46:35Z</time>
      </trkpt>
      <trkpt lat="41.634859" lon="1.973433">
        <ele>799.40</ele>
        <time>1970-01-01T02:46:37Z</time>
      </trkpt>
      <trkpt lat="41.634858" lon="1.973434">
        <ele>799.40</ele>
        <time>1970-01-01T02:46:39Z</time>
      </trkpt>
      <trkpt lat="41.634858" lon="1.973434">
        <ele>799.40</ele>
        <time>1970-01-01T02:46:41Z</time>
      </trkpt>
      <trkpt lat="41.634859" lon="1.973433">
        <ele>799.40</ele>
        <time>1970-01-01T02:46:43Z</time>
      </trkpt>
      <trkpt lat="41.634858" lon="1.973433">
        <ele>799.40</ele>
        <time>1970-01-01T02:46:45Z</time>
      </trkpt>
      <trkpt lat="41.634858" lon="1.973434">
        <ele>799.40</ele>
        <time>1970-01-01T02:46:47Z</time>
      </trkpt>
      <trkpt lat="41.634858" lon="1.973434">
        <ele>799.40</ele>
        <time>1970-01-01T02:46:49Z</time>
      </trkpt>
      <trkpt lat="41.634858" lon="1.973434">
        <ele>799.40</ele>
        <time>1970-01-01T02:46:51Z</time>
      </trkpt>
      <trkpt lat="41.634860" lon="1.973434">
        <ele>799.40</ele>
        <time>1970-01-01T02:46:53Z</time>
      </trkpt>
      <trkpt lat="41.634859" lon="1.973434">
        <ele>799.40</ele>
        <time>1970-01-01T02:46:55Z</time>
      </trkpt>
      <trkpt lat="41.634861" lon="1.973431">
        <ele>799.40</ele>
        <time>1970-01-01T02:46:56Z</time>
      </trkpt>
      <trkpt lat="41.634860" lon="1.973431">
        <ele>799.40</ele>
        <time>1970-01-01T02:46:57Z</time>
      </trkpt>
      <trkpt lat="41.634860" lon="1.973431">
        <ele>799.40</ele>
        <time>1970-01-01T02:46:59Z</time>
      </trkpt>
      <trkpt lat="41.634860" lon="1.973431">
        <ele>799.40</ele>
        <time>1970-01-01T02:47:01Z</time>
      </trkpt>
      <trkpt lat="41.634860" lon="1.973431">
        <ele>799.40</ele>
        <time>1970-01-01T02:47:03Z</time>
      </trkpt>
      <trkpt lat="41.634857" lon="1.973426">
        <ele>799.40</ele>
        <time>1970-01-01T02:47:05Z</time>
      </trkpt>
      <trkpt lat="41.634854" lon="1.973419">
        <ele>799.40</ele>
        <time>1970-01-01T02:47:07Z</time>
      </trkpt>
      <trkpt lat="41.634856" lon="1.973419">
        <ele>799.40</ele>
        <time>1970-01-01T02:47:09Z</time>
      </trkpt>
      <trkpt lat="41.634856" lon="1.973417">
        <ele>799.40</ele>
        <time>1970-01-01T02:47:11Z</time>
      </trkpt>
      <trkpt lat="41.634856" lon="1.973417">
        <ele>799.40</ele>
        <time>1970-01-01T02:47:13Z</time>
      </trkpt>
      <trkpt lat="41.634856" lon="1.973417">
        <ele>799.20</ele>
        <time>1970-01-01T02:47:15Z</time>
      </trkpt>
      <trkpt lat="41.634856" lon="1.973417">
        <ele>799.40</ele>
        <time>1970-01-01T02:47:17Z</time>
      </trkpt>
      <trkpt lat="41.634856" lon="1.973417">
        <ele>799.20</ele>
        <time>1970-01-01T02:47:18Z</time>
      </trkpt>
      <trkpt lat="41.634856" lon="1.973417">
        <ele>799.20</ele>
        <time>1970-01-01T02:47:19Z</time>
      </trkpt>
      <trkpt lat="41.634856" lon="1.973417">
        <ele>799.40</ele>
        <time>1970-01-01T02:47:21Z</time>
      </trkpt>
      <trkpt lat="41.634856" lon="1.973418">
        <ele>799.20</ele>
        <time>1970-01-01T02:47:23Z</time>
      </trkpt>
      <trkpt lat="41.634856" lon="1.973418">
        <ele>799.40</ele>
        <time>1970-01-01T02:47:25Z</time>
      </trkpt>
      <trkpt lat="41.634856" lon="1.973418">
        <ele>799.40</ele>
        <time>1970-01-01T02:47:27Z</time>
      </trkpt>
      <trkpt lat="41.634856" lon="1.973418">
        <ele>799.20</ele>
        <time>1970-01-01T02:47:29Z</time>
      </trkpt>
      <trkpt lat="41.634856" lon="1.973417">
        <ele>799.20</ele>
        <time>1970-01-01T02:47:31Z</time>
      </trkpt>
      <trkpt lat="41.634856" lon="1.973417">
        <ele>799.20</ele>
        <time>1970-01-01T02:47:33Z</time>
      </trkpt>
      <trkpt lat="41.634857" lon="1.973418">
        <ele>799.20</ele>
        <time>1970-01-01T02:47:35Z</time>
      </trkpt>
      <trkpt lat="41.634857" lon="1.973418">
        <ele>799.20</ele>
        <time>1970-01-01T02:47:37Z</time>
      </trkpt>
      <trkpt lat="41.634857" lon="1.973418">
        <ele>799.20</ele>
        <time>1970-01-01T02:47:38Z</time>
      </trkpt>
      <trkpt lat="41.634857" lon="1.973418">
        <ele>799.20</ele>
        <time>1970-01-01T02:47:39Z</time>
      </trkpt>
      <trkpt lat="41.634857" lon="1.973418">
        <ele>799.20</ele>
        <time>1970-01-01T02:47:41Z</time>
      </trkpt>
      <trkpt lat="41.634857" lon="1.973418">
        <ele>799.20</ele>
        <time>1970-01-01T02:47:43Z</time>
      </trkpt>
      <trkpt lat="41.634857" lon="1.973418">
        <ele>799.20</ele>
        <time>1970-01-01T02:47:45Z</time>
      </trkpt>
      <trkpt lat="41.634858" lon="1.973418">
        <ele>799.20</ele>
        <time>1970-01-01T02:47:47Z</time>
      </trkpt>
      <trkpt lat="41.634858" lon="1.973418">
        <ele>799.20</ele>
        <time>1970-01-01T02:47:49Z</time>
      </trkpt>
      <trkpt lat="41.634858" lon="1.973419">
        <ele>799.20</ele>
        <time>1970-01-01T02:47:51Z</time>
      </trkpt>
      <trkpt lat="41.634858" lon="1.973419">
        <ele>799.00</ele>
        <time>1970-01-01T02:47:53Z</time>
      </trkpt>
      <trkpt lat="41.634858" lon="1.973419">
        <ele>799.00</ele>
        <time>1970-01-01T02:47:55Z</time>
      </trkpt>
      <trkpt lat="41.634858" lon="1.973419">
        <ele>799.00</ele>
        <time>1970-01-01T02:47:57Z</time>
      </trkpt>
      <trkpt lat="41.634858" lon="1.973419">
        <ele>799.00</ele>
        <time>1970-01-01T02:47:59Z</time>
      </trkpt>
      <trkpt lat="41.634858" lon="1.973419">
        <ele>799.00</ele>
        <time>1970-01-01T02:48:01Z</time>
      </trkpt>
      <trkpt lat="41.634857" lon="1.973419">
        <ele>799.00</ele>
        <time>1970-01-01T02:48:03Z</time>
      </trkpt>
      <trkpt lat="41.634857" lon="1.973419">
        <ele>799.00</ele>
        <time>1970-01-01T02:48:04Z</time>
      </trkpt>
      <trkpt lat="41.634857" lon="1.973419">
        <ele>799.00</ele>
        <time>1970-01-01T02:48:05Z</time>
      </trkpt>
      <trkpt lat="41.634857" lon="1.973419">
        <ele>799.20</ele>
        <time>1970-01-01T02:48:07Z</time>
      </trkpt>
      <trkpt lat="41.634857" lon="1.973419">
        <ele>799.00</ele>
        <time>1970-01-01T02:48:09Z</time>
      </trkpt>
      <trkpt lat="41.634857" lon="1.973419">
        <ele>799.00</ele>
        <time>1970-01-01T02:48:11Z</time>
      </trkpt>
      <trkpt lat="41.634856" lon="1.973421">
        <ele>799.00</ele>
        <time>1970-01-01T02:48:13Z</time>
      </trkpt>
      <trkpt lat="41.634843" lon="1.973421">
        <ele>799.00</ele>
        <time>1970-01-01T02:48:15Z</time>
      </trkpt>
      <trkpt lat="41.634822" lon="1.973411">
        <ele>799.00</ele>
        <time>1970-01-01T02:48:17Z</time>
      </trkpt>
      <trkpt lat="41.634805" lon="1.973397">
        <ele>799.00</ele>
        <time>1970-01-01T02:48:18Z</time>
      </trkpt>
      <trkpt lat="41.634785" lon="1.973379">
        <ele>799.20</ele>
        <time>1970-01-01T02:48:19Z</time>
      </trkpt>
      <trkpt lat="41.634740" lon="1.973342">
        <ele>799.40</ele>
        <time>1970-01-01T02:48:21Z</time>
      </trkpt>
      <trkpt lat="41.634703" lon="1.973277">
        <ele>799.60</ele>
        <time>1970-01-01T02:48:23Z</time>
      </trkpt>
      <trkpt lat="41.634680" lon="1.973181">
        <ele>799.60</ele>
        <time>1970-01-01T02:48:25Z</time>
      </trkpt>
      <trkpt lat="41.634653" lon="1.973095">
        <ele>799.60</ele>
        <time>1970-01-01T02:48:27Z</time>
      </trkpt>
      <trkpt lat="41.634623" lon="1.973014">
        <ele>799.60</ele>
        <time>1970-01-01T02:48:29Z</time>
      </trkpt>
      <trkpt lat="41.634593" lon="1.972932">
        <ele>799.60</ele>
        <time>1970-01-01T02:48:31Z</time>
      </trkpt>
      <trkpt lat="41.634568" lon="1.972833">
        <ele>799.00</ele>
        <time>1970-01-01T02:48:33Z</time>
      </trkpt>
      <trkpt lat="41.634551" lon="1.972779">
        <ele>798.80</ele>
        <time>1970-01-01T02:48:34Z</time>
      </trkpt>
      <trkpt lat="41.634531" lon="1.972731">
        <ele>798.60</ele>
        <time>1970-01-01T02:48:35Z</time>
      </trkpt>
      <trkpt lat="41.634501" lon="1.972669">
        <ele>798.00</ele>
        <time>1970-01-01T02:48:37Z</time>
      </trkpt>
      <trkpt lat="41.634498" lon="1.972650">
        <ele>797.60</ele>
        <time>1970-01-01T02:48:38Z</time>
      </trkpt>
      <trkpt lat="41.634498" lon="1.972631">
        <ele>797.20</ele>
        <time>1970-01-01T02:48:39Z</time>
      </trkpt>
      <trkpt lat="41.634499" lon="1.972579">
        <ele>796.80</ele>
        <time>1970-01-01T02:48:41Z</time>
      </trkpt>
      <trkpt lat="41.634497" lon="1.972550">
        <ele>796.40</ele>
        <time>1970-01-01T02:48:42Z</time>
      </trkpt>
      <trkpt lat="41.634496" lon="1.972519">
        <ele>796.20</ele>
        <time>1970-01-01T02:48:43Z</time>
      </trkpt>
      <trkpt lat="41.634496" lon="1.972452">
        <ele>795.80</ele>
        <time>1970-01-01T02:48:45Z</time>
      </trkpt>
      <trkpt lat="41.634490" lon="1.972390">
        <ele>795.40</ele>
        <time>1970-01-01T02:48:47Z</time>
      </trkpt>
      <trkpt lat="41.634481" lon="1.972321">
        <ele>794.80</ele>
        <time>1970-01-01T02:48:49Z</time>
      </trkpt>
      <trkpt lat="41.634471" lon="1.972279">
        <ele>794.40</ele>
        <time>1970-01-01T02:48:50Z</time>
      </trkpt>
      <trkpt lat="41.634462" lon="1.972233">
        <ele>794.00</ele>
        <time>1970-01-01T02:48:51Z</time>
      </trkpt>
      <trkpt lat="41.634436" lon="1.972128">
        <ele>793.20</ele>
        <time>1970-01-01T02:48:53Z</time>
      </trkpt>
      <trkpt lat="41.634427" lon="1.972040">
        <ele>792.00</ele>
        <time>1970-01-01T02:48:55Z</time>
      </trkpt>
      <trkpt lat="41.634427" lon="1.972006">
        <ele>791.60</ele>
        <time>1970-01-01T02:48:56Z</time>
      </trkpt>
      <trkpt lat="41.634427" lon="1.971972">
        <ele>791.20</ele>
        <time>1970-01-01T02:48:57Z</time>
      </trkpt>
      <trkpt lat="41.634432" lon="1.971935">
        <ele>790.60</ele>
        <time>1970-01-01T02:48:58Z</time>
      </trkpt>
      <trkpt lat="41.634441" lon="1.971894">
        <ele>790.20</ele>
        <time>1970-01-01T02:48:59Z</time>
      </trkpt>
      <trkpt lat="41.634454" lon="1.971822">
        <ele>789.00</ele>
        <time>1970-01-01T02:49:01Z</time>
      </trkpt>
      <trkpt lat="41.634456" lon="1.971774">
        <ele>787.80</ele>
        <time>1970-01-01T02:49:03Z</time>
      </trkpt>
      <trkpt lat="41.634458" lon="1.971759">
        <ele>787.60</ele>
        <time>1970-01-01T02:49:04Z</time>
      </trkpt>
      <trkpt lat="41.634462" lon="1.971743">
        <ele>787.40</ele>
        <time>1970-01-01T02:49:05Z</time>
      </trkpt>
      <trkpt lat="41.634458" lon="1.971720">
        <ele>787.00</ele>
        <time>1970-01-01T02:49:06Z</time>
      </trkpt>
      <trkpt lat="41.634450" lon="1.971695">
        <ele>786.60</ele>
        <time>1970-01-01T02:49:07Z</time>
      </trkpt>
      <trkpt lat="41.634442" lon="1.971649">
        <ele>786.00</ele>
        <time>1970-01-01T02:49:09Z</time>
      </trkpt>
      <trkpt lat="41.634437" lon="1.971628">
        <ele>785.60</ele>
        <time>1970-01-01T02:49:10Z</time>
      </trkpt>
      <trkpt lat="41.634435" lon="1.971609">
        <ele>785.40</ele>
        <time>1970-01-01T02:49:11Z</time>
      </trkpt>
      <trkpt lat="41.634440" lon="1.971574">
        <ele>784.80</ele>
        <time>1970-01-01T02:49:13Z</time>
      </trkpt>
      <trkpt lat="41.634444" lon="1.971535">
        <ele>784.80</ele>
        <time>1970-01-01T02:49:15Z</time>
      </trkpt>
      <trkpt lat="41.634441" lon="1.971518">
        <ele>784.40</ele>
        <time>1970-01-01T02:49:16Z</time>
      </trkpt>
      <trkpt lat="41.634433" lon="1.971504">
        <ele>784.20</ele>
        <time>1970-01-01T02:49:17Z</time>
      </trkpt>
      <trkpt lat="41.634396" lon="1.971469">
        <ele>784.00</ele>
        <time>1970-01-01T02:49:19Z</time>
      </trkpt>
      <trkpt lat="41.634382" lon="1.971448">
        <ele>783.80</ele>
        <time>1970-01-01T02:49:20Z</time>
      </trkpt>
      <trkpt lat="41.634367" lon="1.971435">
        <ele>783.60</ele>
        <time>1970-01-01T02:49:21Z</time>
      </trkpt>
      <trkpt lat="41.634354" lon="1.971424">
        <ele>783.40</ele>
        <time>1970-01-01T02:49:22Z</time>
      </trkpt>
      <trkpt lat="41.634338" lon="1.971403">
        <ele>783.20</ele>
        <time>1970-01-01T02:49:23Z</time>
      </trkpt>
      <trkpt lat="41.634302" lon="1.971354">
        <ele>783.00</ele>
        <time>1970-01-01T02:49:25Z</time>
      </trkpt>
      <trkpt lat="41.634285" lon="1.971329">
        <ele>782.80</ele>
        <time>1970-01-01T02:49:26Z</time>
      </trkpt>
      <trkpt lat="41.634262" lon="1.971292">
        <ele>782.60</ele>
        <time>1970-01-01T02:49:27Z</time>
      </trkpt>
      <trkpt lat="41.634236" lon="1.971257">
        <ele>782.20</ele>
        <time>1970-01-01T02:49:28Z</time>
      </trkpt>
      <trkpt lat="41.634207" lon="1.971223">
        <ele>781.80</ele>
        <time>1970-01-01T02:49:29Z</time>
      </trkpt>
      <trkpt lat="41.634144" lon="1.971161">
        <ele>781.20</ele>
        <time>1970-01-01T02:49:31Z</time>
      </trkpt>
      <trkpt lat="41.634082" lon="1.971112">
        <ele>780.20</ele>
        <time>1970-01-01T02:49:33Z</time>
      </trkpt>
      <trkpt lat="41.634043" lon="1.971090">
        <ele>779.80</ele>
        <time>1970-01-01T02:49:34Z</time>
      </trkpt>
      <trkpt lat="41.634009" lon="1.971076">
        <ele>779.40</ele>
        <time>1970-01-01T02:49:35Z</time>
      </trkpt>
      <trkpt lat="41.633976" lon="1.971062">
        <ele>778.80</ele>
        <time>1970-01-01T02:49:36Z</time>
      </trkpt>
      <trkpt lat="41.633945" lon="1.971052">
        <ele>778.20</ele>
        <time>1970-01-01T02:49:37Z</time>
      </trkpt>
      <trkpt lat="41.633908" lon="1.971043">
        <ele>777.40</ele>
        <time>1970-01-01T02:49:38Z</time>
      </trkpt>
      <trkpt lat="41.633868" lon="1.971035">
        <ele>776.80</ele>
        <time>1970-01-01T02:49:39Z</time>
      </trkpt>
      <trkpt lat="41.633834" lon="1.971026">
        <ele>776.00</ele>
        <time>1970-01-01T02:49:40Z</time>
      </trkpt>
      <trkpt lat="41.633791" lon="1.971015">
        <ele>774.60</ele>
        <time>1970-01-01T02:49:41Z</time>
      </trkpt>
      <trkpt lat="41.633718" lon="1.971007">
        <ele>773.00</ele>
        <time>1970-01-01T02:49:43Z</time>
      </trkpt>
      <trkpt lat="41.633660" lon="1.971001">
        <ele>771.40</ele>
        <time>1970-01-01T02:49:45Z</time>
      </trkpt>
      <trkpt lat="41.633591" lon="1.970989">
        <ele>770.00</ele>
        <time>1970-01-01T02:49:47Z</time>
      </trkpt>
      <trkpt lat="41.633526" lon="1.970961">
        <ele>768.60</ele>
        <time>1970-01-01T02:49:49Z</time>
      </trkpt>
      <trkpt lat="41.633506" lon="1.970941">
        <ele>768.00</ele>
        <time>1970-01-01T02:49:50Z</time>
      </trkpt>
      <trkpt lat="41.633470" lon="1.970920">
        <ele>767.40</ele>
        <time>1970-01-01T02:49:51Z</time>
      </trkpt>
      <trkpt lat="41.633397" lon="1.970892">
        <ele>766.40</ele>
        <time>1970-01-01T02:49:53Z</time>
      </trkpt>
      <trkpt lat="41.633319" lon="1.970847">
        <ele>765.80</ele>
        <time>1970-01-01T02:49:55Z</time>
      </trkpt>
      <trkpt lat="41.633250" lon="1.970830">
        <ele>765.20</ele>
        <time>1970-01-01T02:49:57Z</time>
      </trkpt>
      <trkpt lat="41.633211" lon="1.970821">
        <ele>764.80</ele>
        <time>1970-01-01T02:49:58Z</time>
      </trkpt>
      <trkpt lat="41.633173" lon="1.970810">
        <ele>764.40</ele>
        <time>1970-01-01T02:49:59Z</time>
      </trkpt>
      <trkpt lat="41.633135" lon="1.970802">
        <ele>763.80</ele>
        <time>1970-01-01T02:50:00Z</time>
      </trkpt>
      <trkpt lat="41.633094" lon="1.970790">
        <ele>763.40</ele>
        <time>1970-01-01T02:50:01Z</time>
      </trkpt>
      <trkpt lat="41.633002" lon="1.970770">
        <ele>762.40</ele>
        <time>1970-01-01T02:50:03Z</time>
      </trkpt>
      <trkpt lat="41.632961" lon="1.970767">
        <ele>762.20</ele>
        <time>1970-01-01T02:50:04Z</time>
      </trkpt>
      <trkpt lat="41.632926" lon="1.970763">
        <ele>761.80</ele>
        <time>1970-01-01T02:50:05Z</time>
      </trkpt>
      <trkpt lat="41.632896" lon="1.970759">
        <ele>761.40</ele>
        <time>1970-01-01T02:50:06Z</time>
      </trkpt>
      <trkpt lat="41.632856" lon="1.970752">
        <ele>760.80</ele>
        <time>1970-01-01T02:50:07Z</time>
      </trkpt>
      <trkpt lat="41.632814" lon="1.970747">
        <ele>760.00</ele>
        <time>1970-01-01T02:50:08Z</time>
      </trkpt>
      <trkpt lat="41.632761" lon="1.970739">
        <ele>758.80</ele>
        <time>1970-01-01T02:50:09Z</time>
      </trkpt>
      <trkpt lat="41.632672" lon="1.970742">
        <ele>757.80</ele>
        <time>1970-01-01T02:50:11Z</time>
      </trkpt>
      <trkpt lat="41.632622" lon="1.970739">
        <ele>757.20</ele>
        <time>1970-01-01T02:50:12Z</time>
      </trkpt>
      <trkpt lat="41.632565" lon="1.970729">
        <ele>756.80</ele>
        <time>1970-01-01T02:50:13Z</time>
      </trkpt>
      <trkpt lat="41.632451" lon="1.970708">
        <ele>755.60</ele>
        <time>1970-01-01T02:50:15Z</time>
      </trkpt>
      <trkpt lat="41.632383" lon="1.970697">
        <ele>754.40</ele>
        <time>1970-01-01T02:50:17Z</time>
      </trkpt>
      <trkpt lat="41.632324" lon="1.970639">
        <ele>753.20</ele>
        <time>1970-01-01T02:50:19Z</time>
      </trkpt>
      <trkpt lat="41.632283" lon="1.970598">
        <ele>751.80</ele>
        <time>1970-01-01T02:50:21Z</time>
      </trkpt>
      <trkpt lat="41.632273" lon="1.970594">
        <ele>751.20</ele>
        <time>1970-01-01T02:50:22Z</time>
      </trkpt>
      <trkpt lat="41.632265" lon="1.970594">
        <ele>750.80</ele>
        <time>1970-01-01T02:50:23Z</time>
      </trkpt>
      <trkpt lat="41.632257" lon="1.970594">
        <ele>750.20</ele>
        <time>1970-01-01T02:50:24Z</time>
      </trkpt>
      <trkpt lat="41.632249" lon="1.970589">
        <ele>750.00</ele>
        <time>1970-01-01T02:50:25Z</time>
      </trkpt>
      <trkpt lat="41.632248" lon="1.970589">
        <ele>749.60</ele>
        <time>1970-01-01T02:50:27Z</time>
      </trkpt>
      <trkpt lat="41.632247" lon="1.970588">
        <ele>749.20</ele>
        <time>1970-01-01T02:50:28Z</time>
      </trkpt>
      <trkpt lat="41.632247" lon="1.970588">
        <ele>748.80</ele>
        <time>1970-01-01T02:50:29Z</time>
      </trkpt>
      <trkpt lat="41.632247" lon="1.970587">
        <ele>748.40</ele>
        <time>1970-01-01T02:50:31Z</time>
      </trkpt>
      <trkpt lat="41.632246" lon="1.970587">
        <ele>748.40</ele>
        <time>1970-01-01T02:50:33Z</time>
      </trkpt>
      <trkpt lat="41.632246" lon="1.970587">
        <ele>748.40</ele>
        <time>1970-01-01T02:50:34Z</time>
      </trkpt>
      <trkpt lat="41.632246" lon="1.970586">
        <ele>748.40</ele>
        <time>1970-01-01T02:50:35Z</time>
      </trkpt>
      <trkpt lat="41.632245" lon="1.970586">
        <ele>748.40</ele>
        <time>1970-01-01T02:50:37Z</time>
      </trkpt>
      <trkpt lat="41.632245" lon="1.970586">
        <ele>748.40</ele>
        <time>1970-01-01T02:50:39Z</time>
      </trkpt>
      <trkpt lat="41.632245" lon="1.970584">
        <ele>748.40</ele>
        <time>1970-01-01T02:50:41Z</time>
      </trkpt>
      <trkpt lat="41.632245" lon="1.970574">
        <ele>748.40</ele>
        <time>1970-01-01T02:50:42Z</time>
      </trkpt>
      <trkpt lat="41.632243" lon="1.970551">
        <ele>748.40</ele>
        <time>1970-01-01T02:50:43Z</time>
      </trkpt>
      <trkpt lat="41.632237" lon="1.970517">
        <ele>748.40</ele>
        <time>1970-01-01T02:50:44Z</time>
      </trkpt>
      <trkpt lat="41.632232" lon="1.970478">
        <ele>748.40</ele>
        <time>1970-01-01T02:50:45Z</time>
      </trkpt>
      <trkpt lat="41.632201" lon="1.970415">
        <ele>748.40</ele>
        <time>1970-01-01T02:50:47Z</time>
      </trkpt>
      <trkpt lat="41.632163" lon="1.970370">
        <ele>748.20</ele>
        <time>1970-01-01T02:50:49Z</time>
      </trkpt>
      <trkpt lat="41.632125" lon="1.970303">
        <ele>748.20</ele>
        <time>1970-01-01T02:50:51Z</time>
      </trkpt>
      <trkpt lat="41.632094" lon="1.970260">
        <ele>748.20</ele>
        <time>1970-01-01T02:50:52Z</time>
      </trkpt>
      <trkpt lat="41.632047" lon="1.970214">
        <ele>748.00</ele>
        <time>1970-01-01T02:50:53Z</time>
      </trkpt>
      <trkpt lat="41.631943" lon="1.970118">
        <ele>747.40</ele>
        <time>1970-01-01T02:50:55Z</time>
      </trkpt>
      <trkpt lat="41.631881" lon="1.970072">
        <ele>746.80</ele>
        <time>1970-01-01T02:50:56Z</time>
      </trkpt>
      <trkpt lat="41.631823" lon="1.970029">
        <ele>746.20</ele>
        <time>1970-01-01T02:50:57Z</time>
      </trkpt>
      <trkpt lat="41.631772" lon="1.969985">
        <ele>745.60</ele>
        <time>1970-01-01T02:50:58Z</time>
      </trkpt>
      <trkpt lat="41.631727" lon="1.969941">
        <ele>745.20</ele>
        <time>1970-01-01T02:50:59Z</time>
      </trkpt>
      <trkpt lat="41.631685" lon="1.969910">
        <ele>744.60</ele>
        <time>1970-01-01T02:51:00Z</time>
      </trkpt>
      <trkpt lat="41.631646" lon="1.969897">
        <ele>744.00</ele>
        <time>1970-01-01T02:51:01Z</time>
      </trkpt>
      <trkpt lat="41.631604" lon="1.969896">
        <ele>743.40</ele>
        <time>1970-01-01T02:51:02Z</time>
      </trkpt>
      <trkpt lat="41.631557" lon="1.969897">
        <ele>743.00</ele>
        <time>1970-01-01T02:51:03Z</time>
      </trkpt>
      <trkpt lat="41.631446" lon="1.969902">
        <ele>742.40</ele>
        <time>1970-01-01T02:51:05Z</time>
      </trkpt>
      <trkpt lat="41.631387" lon="1.969897">
        <ele>742.00</ele>
        <time>1970-01-01T02:51:06Z</time>
      </trkpt>
      <trkpt lat="41.631330" lon="1.969880">
        <ele>741.00</ele>
        <time>1970-01-01T02:51:07Z</time>
      </trkpt>
      <trkpt lat="41.631276" lon="1.969853">
        <ele>740.40</ele>
        <time>1970-01-01T02:51:08Z</time>
      </trkpt>
      <trkpt lat="41.631223" lon="1.969827">
        <ele>739.80</ele>
        <time>1970-01-01T02:51:09Z</time>
      </trkpt>
      <trkpt lat="41.631176" lon="1.969799">
        <ele>739.00</ele>
        <time>1970-01-01T02:51:10Z</time>
      </trkpt>
      <trkpt lat="41.631141" lon="1.969762">
        <ele>738.20</ele>
        <time>1970-01-01T02:51:11Z</time>
      </trkpt>
      <trkpt lat="41.631107" lon="1.969717">
        <ele>737.40</ele>
        <time>1970-01-01T02:51:12Z</time>
      </trkpt>
      <trkpt lat="41.631066" lon="1.969672">
        <ele>736.80</ele>
        <time>1970-01-01T02:51:13Z</time>
      </trkpt>
      <trkpt lat="41.631018" lon="1.969635">
        <ele>736.20</ele>
        <time>1970-01-01T02:51:14Z</time>
      </trkpt>
      <trkpt lat="41.630967" lon="1.969608">
        <ele>735.60</ele>
        <time>1970-01-01T02:51:15Z</time>
      </trkpt>
      <trkpt lat="41.630842" lon="1.969615">
        <ele>734.80</ele>
        <time>1970-01-01T02:51:17Z</time>
      </trkpt>
      <trkpt lat="41.630713" lon="1.969624">
        <ele>733.80</ele>
        <time>1970-01-01T02:51:19Z</time>
      </trkpt>
      <trkpt lat="41.630647" lon="1.969625">
        <ele>733.40</ele>
        <time>1970-01-01T02:51:20Z</time>
      </trkpt>
      <trkpt lat="41.630582" lon="1.969612">
        <ele>732.80</ele>
        <time>1970-01-01T02:51:21Z</time>
      </trkpt>
      <trkpt lat="41.630518" lon="1.969584">
        <ele>732.00</ele>
        <time>1970-01-01T02:51:22Z</time>
      </trkpt>
      <trkpt lat="41.630455" lon="1.969548">
        <ele>731.40</ele>
        <time>1970-01-01T02:51:23Z</time>
      </trkpt>
      <trkpt lat="41.630391" lon="1.969505">
        <ele>730.60</ele>
        <time>1970-01-01T02:51:24Z</time>
      </trkpt>
      <trkpt lat="41.630324" lon="1.969464">
        <ele>730.00</ele>
        <time>1970-01-01T02:51:25Z</time>
      </trkpt>
      <trkpt lat="41.630259" lon="1.969426">
        <ele>729.40</ele>
        <time>1970-01-01T02:51:26Z</time>
      </trkpt>
      <trkpt lat="41.630193" lon="1.969404">
        <ele>728.60</ele>
        <time>1970-01-01T02:51:27Z</time>
      </trkpt>
      <trkpt lat="41.630129" lon="1.969402">
        <ele>728.00</ele>
        <time>1970-01-01T02:51:28Z</time>
      </trkpt>
      <trkpt lat="41.630065" lon="1.969406">
        <ele>727.20</ele>
        <time>1970-01-01T02:51:29Z</time>
      </trkpt>
      <trkpt lat="41.630003" lon="1.969400">
        <ele>726.60</ele>
        <time>1970-01-01T02:51:30Z</time>
      </trkpt>
      <trkpt lat="41.629947" lon="1.969383">
        <ele>726.20</ele>
        <time>1970-01-01T02:51:31Z</time>
      </trkpt>
      <trkpt lat="41.629853" lon="1.969318">
        <ele>725.40</ele>
        <time>1970-01-01T02:51:33Z</time>
      </trkpt>
      <trkpt lat="41.629794" lon="1.969208">
        <ele>724.00</ele>
        <time>1970-01-01T02:51:35Z</time>
      </trkpt>
      <trkpt lat="41.629766" lon="1.969142">
        <ele>723.00</ele>
        <time>1970-01-01T02:51:36Z</time>
      </trkpt>
      <trkpt lat="41.629737" lon="1.969080">
        <ele>721.80</ele>
        <time>1970-01-01T02:51:37Z</time>
      </trkpt>
      <trkpt lat="41.629703" lon="1.969037">
        <ele>720.40</ele>
        <time>1970-01-01T02:51:38Z</time>
      </trkpt>
      <trkpt lat="41.629660" lon="1.969015">
        <ele>719.00</ele>
        <time>1970-01-01T02:51:39Z</time>
      </trkpt>
      <trkpt lat="41.629607" lon="1.969022">
        <ele>718.00</ele>
        <time>1970-01-01T02:51:40Z</time>
      </trkpt>
      <trkpt lat="41.629554" lon="1.969043">
        <ele>717.20</ele>
        <time>1970-01-01T02:51:41Z</time>
      </trkpt>
      <trkpt lat="41.629501" lon="1.969071">
        <ele>716.40</ele>
        <time>1970-01-01T02:51:42Z</time>
      </trkpt>
      <trkpt lat="41.629447" lon="1.969099">
        <ele>715.60</ele>
        <time>1970-01-01T02:51:43Z</time>
      </trkpt>
      <trkpt lat="41.629389" lon="1.969130">
        <ele>715.00</ele>
        <time>1970-01-01T02:51:44Z</time>
      </trkpt>
      <trkpt lat="41.629331" lon="1.969177">
        <ele>714.20</ele>
        <time>1970-01-01T02:51:45Z</time>
      </trkpt>
      <trkpt lat="41.629289" lon="1.969236">
        <ele>713.60</ele>
        <time>1970-01-01T02:51:46Z</time>
      </trkpt>
      <trkpt lat="41.629256" lon="1.969283">
        <ele>713.00</ele>
        <time>1970-01-01T02:51:47Z</time>
      </trkpt>
      <trkpt lat="41.629225" lon="1.969336">
        <ele>712.40</ele>
        <time>1970-01-01T02:51:48Z</time>
      </trkpt>
      <trkpt lat="41.629189" lon="1.969380">
        <ele>712.00</ele>
        <time>1970-01-01T02:51:49Z</time>
      </trkpt>
      <trkpt lat="41.629149" lon="1.969418">
        <ele>711.40</ele>
        <time>1970-01-01T02:51:50Z</time>
      </trkpt>
      <trkpt lat="41.629109" lon="1.969447">
        <ele>711.00</ele>
        <time>1970-01-01T02:51:51Z</time>
      </trkpt>
      <trkpt lat="41.629029" lon="1.969479">
        <ele>710.00</ele>
        <time>1970-01-01T02:51:53Z</time>
      </trkpt>
      <trkpt lat="41.628987" lon="1.969491">
        <ele>709.00</ele>
        <time>1970-01-01T02:51:54Z</time>
      </trkpt>
      <trkpt lat="41.628942" lon="1.969503">
        <ele>708.00</ele>
        <time>1970-01-01T02:51:55Z</time>
      </trkpt>
      <trkpt lat="41.628857" lon="1.969514">
        <ele>706.20</ele>
        <time>1970-01-01T02:51:57Z</time>
      </trkpt>
      <trkpt lat="41.628782" lon="1.969525">
        <ele>704.60</ele>
        <time>1970-01-01T02:51:59Z</time>
      </trkpt>
      <trkpt lat="41.628750" lon="1.969540">
        <ele>703.80</ele>
        <time>1970-01-01T02:52:00Z</time>
      </trkpt>
      <trkpt lat="41.628723" lon="1.969559">
        <ele>703.20</ele>
        <time>1970-01-01T02:52:01Z</time>
      </trkpt>
      <trkpt lat="41.628667" lon="1.969595">
        <ele>702.00</ele>
        <time>1970-01-01T02:52:03Z</time>
      </trkpt>
      <trkpt lat="41.628639" lon="1.969613">
        <ele>700.80</ele>
        <time>1970-01-01T02:52:04Z</time>
      </trkpt>
      <trkpt lat="41.628611" lon="1.969630">
        <ele>700.20</ele>
        <time>1970-01-01T02:52:05Z</time>
      </trkpt>
      <trkpt lat="41.628584" lon="1.969645">
        <ele>699.80</ele>
        <time>1970-01-01T02:52:06Z</time>
      </trkpt>
      <trkpt lat="41.628559" lon="1.969656">
        <ele>699.20</ele>
        <time>1970-01-01T02:52:07Z</time>
      </trkpt>
      <trkpt lat="41.628536" lon="1.969673">
        <ele>698.60</ele>
        <time>1970-01-01T02:52:08Z</time>
      </trkpt>
      <trkpt lat="41.628514" lon="1.969689">
        <ele>698.20</ele>
        <time>1970-01-01T02:52:09Z</time>
      </trkpt>
      <trkpt lat="41.628494" lon="1.969699">
        <ele>697.60</ele>
        <time>1970-01-01T02:52:10Z</time>
      </trkpt>
      <trkpt lat="41.628472" lon="1.969708">
        <ele>697.20</ele>
        <time>1970-01-01T02:52:11Z</time>
      </trkpt>
      <trkpt lat="41.628449" lon="1.969726">
        <ele>696.60</ele>
        <time>1970-01-01T02:52:12Z</time>
      </trkpt>
      <trkpt lat="41.628426" lon="1.969748">
        <ele>695.80</ele>
        <time>1970-01-01T02:52:13Z</time>
      </trkpt>
      <trkpt lat="41.628403" lon="1.969766">
        <ele>695.00</ele>
        <time>1970-01-01T02:52:14Z</time>
      </trkpt>
      <trkpt lat="41.628378" lon="1.969776">
        <ele>694.20</ele>
        <time>1970-01-01T02:52:15Z</time>
      </trkpt>
      <trkpt lat="41.628353" lon="1.969782">
        <ele>693.60</ele>
        <time>1970-01-01T02:52:16Z</time>
      </trkpt>
      <trkpt lat="41.628327" lon="1.969789">
        <ele>693.00</ele>
        <time>1970-01-01T02:52:17Z</time>
      </trkpt>
      <trkpt lat="41.628294" lon="1.969799">
        <ele>692.20</ele>
        <time>1970-01-01T02:52:18Z</time>
      </trkpt>
      <trkpt lat="41.628251" lon="1.969810">
        <ele>691.60</ele>
        <time>1970-01-01T02:52:19Z</time>
      </trkpt>
      <trkpt lat="41.628199" lon="1.969828">
        <ele>691.00</ele>
        <time>1970-01-01T02:52:20Z</time>
      </trkpt>
      <trkpt lat="41.628141" lon="1.969859">
        <ele>690.60</ele>
        <time>1970-01-01T02:52:21Z</time>
      </trkpt>
      <trkpt lat="41.628079" lon="1.969901">
        <ele>690.00</ele>
        <time>1970-01-01T02:52:22Z</time>
      </trkpt>
      <trkpt lat="41.628016" lon="1.969948">
        <ele>689.40</ele>
        <time>1970-01-01T02:52:23Z</time>
      </trkpt>
      <trkpt lat="41.627949" lon="1.969995">
        <ele>688.80</ele>
        <time>1970-01-01T02:52:24Z</time>
      </trkpt>
      <trkpt lat="41.627879" lon="1.970040">
        <ele>688.40</ele>
        <time>1970-01-01T02:52:25Z</time>
      </trkpt>
      <trkpt lat="41.627803" lon="1.970077">
        <ele>688.00</ele>
        <time>1970-01-01T02:52:26Z</time>
      </trkpt>
      <trkpt lat="41.627722" lon="1.970103">
        <ele>687.40</ele>
        <time>1970-01-01T02:52:27Z</time>
      </trkpt>
      <trkpt lat="41.627580" lon="1.970125">
        <ele>686.00</ele>
        <time>1970-01-01T02:52:29Z</time>
      </trkpt>
      <trkpt lat="41.627478" lon="1.970191">
        <ele>684.60</ele>
        <time>1970-01-01T02:52:31Z</time>
      </trkpt>
      <trkpt lat="41.627441" lon="1.970255">
        <ele>684.00</ele>
        <time>1970-01-01T02:52:32Z</time>
      </trkpt>
      <trkpt lat="41.627407" lon="1.970335">
        <ele>682.20</ele>
        <time>1970-01-01T02:52:33Z</time>
      </trkpt>
      <trkpt lat="41.627376" lon="1.970426">
        <ele>681.20</ele>
        <time>1970-01-01T02:52:34Z</time>
      </trkpt>
      <trkpt lat="41.627339" lon="1.970518">
        <ele>680.40</ele>
        <time>1970-01-01T02:52:35Z</time>
      </trkpt>
      <trkpt lat="41.627294" lon="1.970610">
        <ele>679.60</ele>
        <time>1970-01-01T02:52:36Z</time>
      </trkpt>
      <trkpt lat="41.627244" lon="1.970701">
        <ele>678.60</ele>
        <time>1970-01-01T02:52:37Z</time>
      </trkpt>
      <trkpt lat="41.627199" lon="1.970784">
        <ele>677.60</ele>
        <time>1970-01-01T02:52:38Z</time>
      </trkpt>
      <trkpt lat="41.627159" lon="1.970857">
        <ele>676.80</ele>
        <time>1970-01-01T02:52:39Z</time>
      </trkpt>
      <trkpt lat="41.627124" lon="1.970935">
        <ele>676.00</ele>
        <time>1970-01-01T02:52:40Z</time>
      </trkpt>
      <trkpt lat="41.627087" lon="1.971015">
        <ele>675.20</ele>
        <time>1970-01-01T02:52:41Z</time>
      </trkpt>
      <trkpt lat="41.627053" lon="1.971092">
        <ele>674.40</ele>
        <time>1970-01-01T02:52:42Z</time>
      </trkpt>
      <trkpt lat="41.627014" lon="1.971168">
        <ele>673.80</ele>
        <time>1970-01-01T02:52:43Z</time>
      </trkpt>
      <trkpt lat="41.626964" lon="1.971240">
        <ele>673.20</ele>
        <time>1970-01-01T02:52:44Z</time>
      </trkpt>
      <trkpt lat="41.626912" lon="1.971314">
        <ele>672.60</ele>
        <time>1970-01-01T02:52:45Z</time>
      </trkpt>
      <trkpt lat="41.626795" lon="1.971458">
        <ele>671.80</ele>
        <time>1970-01-01T02:52:47Z</time>
      </trkpt>
      <trkpt lat="41.626726" lon="1.971524">
        <ele>671.00</ele>
        <time>1970-01-01T02:52:48Z</time>
      </trkpt>
      <trkpt lat="41.626663" lon="1.971592">
        <ele>670.20</ele>
        <time>1970-01-01T02:52:49Z</time>
      </trkpt>
      <trkpt lat="41.626602" lon="1.971646">
        <ele>669.20</ele>
        <time>1970-01-01T02:52:50Z</time>
      </trkpt>
      <trkpt lat="41.626547" lon="1.971693">
        <ele>668.20</ele>
        <time>1970-01-01T02:52:51Z</time>
      </trkpt>
      <trkpt lat="41.626437" lon="1.971779">
        <ele>666.40</ele>
        <time>1970-01-01T02:52:53Z</time>
      </trkpt>
      <trkpt lat="41.626378" lon="1.971817">
        <ele>665.20</ele>
        <time>1970-01-01T02:52:54Z</time>
      </trkpt>
      <trkpt lat="41.626320" lon="1.971864">
        <ele>664.20</ele>
        <time>1970-01-01T02:52:55Z</time>
      </trkpt>
      <trkpt lat="41.626267" lon="1.971920">
        <ele>663.20</ele>
        <time>1970-01-01T02:52:56Z</time>
      </trkpt>
      <trkpt lat="41.626215" lon="1.971982">
        <ele>662.20</ele>
        <time>1970-01-01T02:52:57Z</time>
      </trkpt>
      <trkpt lat="41.626162" lon="1.972051">
        <ele>661.20</ele>
        <time>1970-01-01T02:52:58Z</time>
      </trkpt>
      <trkpt lat="41.626113" lon="1.972131">
        <ele>660.20</ele>
        <time>1970-01-01T02:52:59Z</time>
      </trkpt>
      <trkpt lat="41.626067" lon="1.972222">
        <ele>659.20</ele>
        <time>1970-01-01T02:53:00Z</time>
      </trkpt>
      <trkpt lat="41.626022" lon="1.972319">
        <ele>658.20</ele>
        <time>1970-01-01T02:53:01Z</time>
      </trkpt>
      <trkpt lat="41.625980" lon="1.972399">
        <ele>656.80</ele>
        <time>1970-01-01T02:53:02Z</time>
      </trkpt>
      <trkpt lat="41.625940" lon="1.972467">
        <ele>656.20</ele>
        <time>1970-01-01T02:53:03Z</time>
      </trkpt>
      <trkpt lat="41.625896" lon="1.972536">
        <ele>655.60</ele>
        <time>1970-01-01T02:53:04Z</time>
      </trkpt>
      <trkpt lat="41.625851" lon="1.972612">
        <ele>655.20</ele>
        <time>1970-01-01T02:53:05Z</time>
      </trkpt>
      <trkpt lat="41.625756" lon="1.972795">
        <ele>654.60</ele>
        <time>1970-01-01T02:53:07Z</time>
      </trkpt>
      <trkpt lat="41.625715" lon="1.972900">
        <ele>654.00</ele>
        <time>1970-01-01T02:53:08Z</time>
      </trkpt>
      <trkpt lat="41.625681" lon="1.973011">
        <ele>653.00</ele>
        <time>1970-01-01T02:53:09Z</time>
      </trkpt>
      <trkpt lat="41.625650" lon="1.973119">
        <ele>651.80</ele>
        <time>1970-01-01T02:53:10Z</time>
      </trkpt>
      <trkpt lat="41.625624" lon="1.973217">
        <ele>650.60</ele>
        <time>1970-01-01T02:53:11Z</time>
      </trkpt>
      <trkpt lat="41.625603" lon="1.973315">
        <ele>649.80</ele>
        <time>1970-01-01T02:53:12Z</time>
      </trkpt>
      <trkpt lat="41.625577" lon="1.973418">
        <ele>648.80</ele>
        <time>1970-01-01T02:53:13Z</time>
      </trkpt>
      <trkpt lat="41.625501" lon="1.973616">
        <ele>647.00</ele>
        <time>1970-01-01T02:53:15Z</time>
      </trkpt>
      <trkpt lat="41.625396" lon="1.973762">
        <ele>645.80</ele>
        <time>1970-01-01T02:53:17Z</time>
      </trkpt>
      <trkpt lat="41.625263" lon="1.973878">
        <ele>645.20</ele>
        <time>1970-01-01T02:53:19Z</time>
      </trkpt>
      <trkpt lat="41.625140" lon="1.973999">
        <ele>644.60</ele>
        <time>1970-01-01T02:53:21Z</time>
      </trkpt>
      <trkpt lat="41.625096" lon="1.974080">
        <ele>643.80</ele>
        <time>1970-01-01T02:53:22Z</time>
      </trkpt>
      <trkpt lat="41.625061" lon="1.974165">
        <ele>643.00</ele>
        <time>1970-01-01T02:53:23Z</time>
      </trkpt>
      <trkpt lat="41.625025" lon="1.974247">
        <ele>641.80</ele>
        <time>1970-01-01T02:53:24Z</time>
      </trkpt>
      <trkpt lat="41.624990" lon="1.974324">
        <ele>640.80</ele>
        <time>1970-01-01T02:53:25Z</time>
      </trkpt>
      <trkpt lat="41.624954" lon="1.974396">
        <ele>640.00</ele>
        <time>1970-01-01T02:53:26Z</time>
      </trkpt>
      <trkpt lat="41.624920" lon="1.974469">
        <ele>639.20</ele>
        <time>1970-01-01T02:53:27Z</time>
      </trkpt>
      <trkpt lat="41.624888" lon="1.974542">
        <ele>638.60</ele>
        <time>1970-01-01T02:53:28Z</time>
      </trkpt>
      <trkpt lat="41.624860" lon="1.974613">
        <ele>638.00</ele>
        <time>1970-01-01T02:53:29Z</time>
      </trkpt>
      <trkpt lat="41.624835" lon="1.974684">
        <ele>637.20</ele>
        <time>1970-01-01T02:53:30Z</time>
      </trkpt>
      <trkpt lat="41.624811" lon="1.974753">
        <ele>637.00</ele>
        <time>1970-01-01T02:53:31Z</time>
      </trkpt>
      <trkpt lat="41.624791" lon="1.974820">
        <ele>636.80</ele>
        <time>1970-01-01T02:53:32Z</time>
      </trkpt>
      <trkpt lat="41.624776" lon="1.974886">
        <ele>636.80</ele>
        <time>1970-01-01T02:53:33Z</time>
      </trkpt>
      <trkpt lat="41.624744" lon="1.975011">
        <ele>636.80</ele>
        <time>1970-01-01T02:53:35Z</time>
      </trkpt>
      <trkpt lat="41.624698" lon="1.975141">
        <ele>636.80</ele>
        <time>1970-01-01T02:53:37Z</time>
      </trkpt>
      <trkpt lat="41.624642" lon="1.975282">
        <ele>636.80</ele>
        <time>1970-01-01T02:53:39Z</time>
      </trkpt>
      <trkpt lat="41.624570" lon="1.975439">
        <ele>636.60</ele>
        <time>1970-01-01T02:53:41Z</time>
      </trkpt>
      <trkpt lat="41.624480" lon="1.975600">
        <ele>636.60</ele>
        <time>1970-01-01T02:53:43Z</time>
      </trkpt>
      <trkpt lat="41.624432" lon="1.975681">
        <ele>636.60</ele>
        <time>1970-01-01T02:53:44Z</time>
      </trkpt>
      <trkpt lat="41.624382" lon="1.975764">
        <ele>636.60</ele>
        <time>1970-01-01T02:53:45Z</time>
      </trkpt>
      <trkpt lat="41.624285" lon="1.975939">
        <ele>636.60</ele>
        <time>1970-01-01T02:53:47Z</time>
      </trkpt>
      <trkpt lat="41.624199" lon="1.976129">
        <ele>636.20</ele>
        <time>1970-01-01T02:53:49Z</time>
      </trkpt>
      <trkpt lat="41.624166" lon="1.976232">
        <ele>635.80</ele>
        <time>1970-01-01T02:53:50Z</time>
      </trkpt>
      <trkpt lat="41.624142" lon="1.976340">
        <ele>635.60</ele>
        <time>1970-01-01T02:53:51Z</time>
      </trkpt>
      <trkpt lat="41.624103" lon="1.976557">
        <ele>634.80</ele>
        <time>1970-01-01T02:53:53Z</time>
      </trkpt>
      <trkpt lat="41.624078" lon="1.976660">
        <ele>634.20</ele>
        <time>1970-01-01T02:53:54Z</time>
      </trkpt>
      <trkpt lat="41.624055" lon="1.976757">
        <ele>633.60</ele>
        <time>1970-01-01T02:53:55Z</time>
      </trkpt>
      <trkpt lat="41.624029" lon="1.976936">
        <ele>632.20</ele>
        <time>1970-01-01T02:53:57Z</time>
      </trkpt>
      <trkpt lat="41.624017" lon="1.977014">
        <ele>632.00</ele>
        <time>1970-01-01T02:53:58Z</time>
      </trkpt>
      <trkpt lat="41.624007" lon="1.977083">
        <ele>631.60</ele>
        <time>1970-01-01T02:53:59Z</time>
      </trkpt>
      <trkpt lat="41.623992" lon="1.977204">
        <ele>631.40</ele>
        <time>1970-01-01T02:54:01Z</time>
      </trkpt>
      <trkpt lat="41.623987" lon="1.977314">
        <ele>631.40</ele>
        <time>1970-01-01T02:54:03Z</time>
      </trkpt>
      <trkpt lat="41.623982" lon="1.977369">
        <ele>631.40</ele>
        <time>1970-01-01T02:54:04Z</time>
      </trkpt>
      <trkpt lat="41.623970" lon="1.977424">
        <ele>631.40</ele>
        <time>1970-01-01T02:54:05Z</time>
      </trkpt>
      <trkpt lat="41.623935" lon="1.977533">
        <ele>631.60</ele>
        <time>1970-01-01T02:54:07Z</time>
      </trkpt>
      <trkpt lat="41.623879" lon="1.977642">
        <ele>632.20</ele>
        <time>1970-01-01T02:54:09Z</time>
      </trkpt>
      <trkpt lat="41.623841" lon="1.977701">
        <ele>632.20</ele>
        <time>1970-01-01T02:54:10Z</time>
      </trkpt>
      <trkpt lat="41.623796" lon="1.977758">
        <ele>632.20</ele>
        <time>1970-01-01T02:54:11Z</time>
      </trkpt>
      <trkpt lat="41.623697" lon="1.977883">
        <ele>632.40</ele>
        <time>1970-01-01T02:54:13Z</time>
      </trkpt>
      <trkpt lat="41.623610" lon="1.978071">
        <ele>632.40</ele>
        <time>1970-01-01T02:54:15Z</time>
      </trkpt>
      <trkpt lat="41.623538" lon="1.978300">
        <ele>632.40</ele>
        <time>1970-01-01T02:54:17Z</time>
      </trkpt>
      <trkpt lat="41.623499" lon="1.978418">
        <ele>632.40</ele>
        <time>1970-01-01T02:54:18Z</time>
      </trkpt>
      <trkpt lat="41.623450" lon="1.978530">
        <ele>632.20</ele>
        <time>1970-01-01T02:54:19Z</time>
      </trkpt>
      <trkpt lat="41.623352" lon="1.978741">
        <ele>631.40</ele>
        <time>1970-01-01T02:54:21Z</time>
      </trkpt>
      <trkpt lat="41.623323" lon="1.978843">
        <ele>630.80</ele>
        <time>1970-01-01T02:54:22Z</time>
      </trkpt>
      <trkpt lat="41.623311" lon="1.978943">
        <ele>629.80</ele>
        <time>1970-01-01T02:54:23Z</time>
      </trkpt>
      <trkpt lat="41.623306" lon="1.979045">
        <ele>628.80</ele>
        <time>1970-01-01T02:54:24Z</time>
      </trkpt>
      <trkpt lat="41.623294" lon="1.979148">
        <ele>627.80</ele>
        <time>1970-01-01T02:54:25Z</time>
      </trkpt>
      <trkpt lat="41.623272" lon="1.979251">
        <ele>627.00</ele>
        <time>1970-01-01T02:54:26Z</time>
      </trkpt>
      <trkpt lat="41.623247" lon="1.979354">
        <ele>626.40</ele>
        <time>1970-01-01T02:54:27Z</time>
      </trkpt>
      <trkpt lat="41.623217" lon="1.979455">
        <ele>625.20</ele>
        <time>1970-01-01T02:54:28Z</time>
      </trkpt>
      <trkpt lat="41.623180" lon="1.979550">
        <ele>625.00</ele>
        <time>1970-01-01T02:54:29Z</time>
      </trkpt>
      <trkpt lat="41.623141" lon="1.979636">
        <ele>625.00</ele>
        <time>1970-01-01T02:54:30Z</time>
      </trkpt>
      <trkpt lat="41.623101" lon="1.979713">
        <ele>624.80</ele>
        <time>1970-01-01T02:54:31Z</time>
      </trkpt>
      <trkpt lat="41.623027" lon="1.979845">
        <ele>624.00</ele>
        <time>1970-01-01T02:54:33Z</time>
      </trkpt>
      <trkpt lat="41.622993" lon="1.979894">
        <ele>623.80</ele>
        <time>1970-01-01T02:54:34Z</time>
      </trkpt>
      <trkpt lat="41.622963" lon="1.979934">
        <ele>623.60</ele>
        <time>1970-01-01T02:54:35Z</time>
      </trkpt>
      <trkpt lat="41.622902" lon="1.979998">
        <ele>623.60</ele>
        <time>1970-01-01T02:54:37Z</time>
      </trkpt>
      <trkpt lat="41.622842" lon="1.980055">
        <ele>623.40</ele>
        <time>1970-01-01T02:54:39Z</time>
      </trkpt>
      <trkpt lat="41.622779" lon="1.980113">
        <ele>623.40</ele>
        <time>1970-01-01T02:54:41Z</time>
      </trkpt>
      <trkpt lat="41.622715" lon="1.980163">
        <ele>623.40</ele>
        <time>1970-01-01T02:54:43Z</time>
      </trkpt>
      <trkpt lat="41.622651" lon="1.980206">
        <ele>623.80</ele>
        <time>1970-01-01T02:54:45Z</time>
      </trkpt>
      <trkpt lat="41.622583" lon="1.980249">
        <ele>624.20</ele>
        <time>1970-01-01T02:54:47Z</time>
      </trkpt>
      <trkpt lat="41.622522" lon="1.980316">
        <ele>624.80</ele>
        <time>1970-01-01T02:54:49Z</time>
      </trkpt>
      <trkpt lat="41.622491" lon="1.980365">
        <ele>625.00</ele>
        <time>1970-01-01T02:54:50Z</time>
      </trkpt>
      <trkpt lat="41.622459" lon="1.980425">
        <ele>625.20</ele>
        <time>1970-01-01T02:54:51Z</time>
      </trkpt>
      <trkpt lat="41.622384" lon="1.980572">
        <ele>625.20</ele>
        <time>1970-01-01T02:54:53Z</time>
      </trkpt>
      <trkpt lat="41.622339" lon="1.980650">
        <ele>625.20</ele>
        <time>1970-01-01T02:54:54Z</time>
      </trkpt>
      <trkpt lat="41.622285" lon="1.980719">
        <ele>625.20</ele>
        <time>1970-01-01T02:54:55Z</time>
      </trkpt>
      <trkpt lat="41.622185" lon="1.980864">
        <ele>625.20</ele>
        <time>1970-01-01T02:54:57Z</time>
      </trkpt>
      <trkpt lat="41.622150" lon="1.980961">
        <ele>625.20</ele>
        <time>1970-01-01T02:54:58Z</time>
      </trkpt>
      <trkpt lat="41.622122" lon="1.981069">
        <ele>625.00</ele>
        <time>1970-01-01T02:54:59Z</time>
      </trkpt>
      <trkpt lat="41.622047" lon="1.981285">
        <ele>624.40</ele>
        <time>1970-01-01T02:55:01Z</time>
      </trkpt>
      <trkpt lat="41.621993" lon="1.981375">
        <ele>624.00</ele>
        <time>1970-01-01T02:55:02Z</time>
      </trkpt>
      <trkpt lat="41.621936" lon="1.981446">
        <ele>623.60</ele>
        <time>1970-01-01T02:55:03Z</time>
      </trkpt>
      <trkpt lat="41.621843" lon="1.981511">
        <ele>622.20</ele>
        <time>1970-01-01T02:55:05Z</time>
      </trkpt>
      <trkpt lat="41.621786" lon="1.981540">
        <ele>621.40</ele>
        <time>1970-01-01T02:55:07Z</time>
      </trkpt>
      <trkpt lat="41.621767" lon="1.981556">
        <ele>621.20</ele>
        <time>1970-01-01T02:55:08Z</time>
      </trkpt>
      <trkpt lat="41.621750" lon="1.981572">
        <ele>621.20</ele>
        <time>1970-01-01T02:55:09Z</time>
      </trkpt>
      <trkpt lat="41.621716" lon="1.981607">
        <ele>621.20</ele>
        <time>1970-01-01T02:55:11Z</time>
      </trkpt>
      <trkpt lat="41.621692" lon="1.981648">
        <ele>621.00</ele>
        <time>1970-01-01T02:55:13Z</time>
      </trkpt>
      <trkpt lat="41.621673" lon="1.981689">
        <ele>621.00</ele>
        <time>1970-01-01T02:55:15Z</time>
      </trkpt>
      <trkpt lat="41.621651" lon="1.981730">
        <ele>621.80</ele>
        <time>1970-01-01T02:55:17Z</time>
      </trkpt>
      <trkpt lat="41.621624" lon="1.981765">
        <ele>622.60</ele>
        <time>1970-01-01T02:55:19Z</time>
      </trkpt>
      <trkpt lat="41.621591" lon="1.981792">
        <ele>623.40</ele>
        <time>1970-01-01T02:55:21Z</time>
      </trkpt>
      <trkpt lat="41.621575" lon="1.981808">
        <ele>623.80</ele>
        <time>1970-01-01T02:55:22Z</time>
      </trkpt>
      <trkpt lat="41.621559" lon="1.981825">
        <ele>624.40</ele>
        <time>1970-01-01T02:55:23Z</time>
      </trkpt>
      <trkpt lat="41.621543" lon="1.981841">
        <ele>625.20</ele>
        <time>1970-01-01T02:55:24Z</time>
      </trkpt>
      <trkpt lat="41.621528" lon="1.981855">
        <ele>625.60</ele>
        <time>1970-01-01T02:55:25Z</time>
      </trkpt>
      <trkpt lat="41.621502" lon="1.981892">
        <ele>626.60</ele>
        <time>1970-01-01T02:55:27Z</time>
      </trkpt>
      <trkpt lat="41.621478" lon="1.981933">
        <ele>627.60</ele>
        <time>1970-01-01T02:55:29Z</time>
      </trkpt>
      <trkpt lat="41.621455" lon="1.981977">
        <ele>628.80</ele>
        <time>1970-01-01T02:55:31Z</time>
      </trkpt>
      <trkpt lat="41.621444" lon="1.982000">
        <ele>629.20</ele>
        <time>1970-01-01T02:55:32Z</time>
      </trkpt>
      <trkpt lat="41.621435" lon="1.982022">
        <ele>629.60</ele>
        <time>1970-01-01T02:55:33Z</time>
      </trkpt>
      <trkpt lat="41.621417" lon="1.982071">
        <ele>630.20</ele>
        <time>1970-01-01T02:55:35Z</time>
      </trkpt>
      <trkpt lat="41.621398" lon="1.982115">
        <ele>631.00</ele>
        <time>1970-01-01T02:55:37Z</time>
      </trkpt>
      <trkpt lat="41.621389" lon="1.982138">
        <ele>631.40</ele>
        <time>1970-01-01T02:55:38Z</time>
      </trkpt>
      <trkpt lat="41.621382" lon="1.982161">
        <ele>631.60</ele>
        <time>1970-01-01T02:55:39Z</time>
      </trkpt>
      <trkpt lat="41.621374" lon="1.982183">
        <ele>632.00</ele>
        <time>1970-01-01T02:55:40Z</time>
      </trkpt>
      <trkpt lat="41.621367" lon="1.982205">
        <ele>632.40</ele>
        <time>1970-01-01T02:55:41Z</time>
      </trkpt>
      <trkpt lat="41.621356" lon="1.982249">
        <ele>633.20</ele>
        <time>1970-01-01T02:55:43Z</time>
      </trkpt>
      <trkpt lat="41.621349" lon="1.982269">
        <ele>633.60</ele>
        <time>1970-01-01T02:55:44Z</time>
      </trkpt>
      <trkpt lat="41.621342" lon="1.982290">
        <ele>633.80</ele>
        <time>1970-01-01T02:55:45Z</time>
      </trkpt>
      <trkpt lat="41.621328" lon="1.982333">
        <ele>634.60</ele>
        <time>1970-01-01T02:55:47Z</time>
      </trkpt>
      <trkpt lat="41.621317" lon="1.982376">
        <ele>635.20</ele>
        <time>1970-01-01T02:55:49Z</time>
      </trkpt>
      <trkpt lat="41.621315" lon="1.982396">
        <ele>635.60</ele>
        <time>1970-01-01T02:55:50Z</time>
      </trkpt>
      <trkpt lat="41.621314" lon="1.982416">
        <ele>636.00</ele>
        <time>1970-01-01T02:55:51Z</time>
      </trkpt>
      <trkpt lat="41.621311" lon="1.982463">
        <ele>636.80</ele>
        <time>1970-01-01T02:55:53Z</time>
      </trkpt>
      <trkpt lat="41.621305" lon="1.982511">
        <ele>638.00</ele>
        <time>1970-01-01T02:55:55Z</time>
      </trkpt>
      <trkpt lat="41.621298" lon="1.982555">
        <ele>638.60</ele>
        <time>1970-01-01T02:55:57Z</time>
      </trkpt>
      <trkpt lat="41.621295" lon="1.982578">
        <ele>639.00</ele>
        <time>1970-01-01T02:55:58Z</time>
      </trkpt>
      <trkpt lat="41.621291" lon="1.982599">
        <ele>639.20</ele>
        <time>1970-01-01T02:55:59Z</time>
      </trkpt>
      <trkpt lat="41.621282" lon="1.982640">
        <ele>639.60</ele>
        <time>1970-01-01T02:56:01Z</time>
      </trkpt>
      <trkpt lat="41.621275" lon="1.982660">
        <ele>640.00</ele>
        <time>1970-01-01T02:56:02Z</time>
      </trkpt>
      <trkpt lat="41.621265" lon="1.982681">
        <ele>640.20</ele>
        <time>1970-01-01T02:56:03Z</time>
      </trkpt>
      <trkpt lat="41.621247" lon="1.982719">
        <ele>641.00</ele>
        <time>1970-01-01T02:56:05Z</time>
      </trkpt>
      <trkpt lat="41.621223" lon="1.982750">
        <ele>641.60</ele>
        <time>1970-01-01T02:56:07Z</time>
      </trkpt>
      <trkpt lat="41.621190" lon="1.982769">
        <ele>642.20</ele>
        <time>1970-01-01T02:56:09Z</time>
      </trkpt>
      <trkpt lat="41.621172" lon="1.982776">
        <ele>642.60</ele>
        <time>1970-01-01T02:56:10Z</time>
      </trkpt>
      <trkpt lat="41.621154" lon="1.982780">
        <ele>642.80</ele>
        <time>1970-01-01T02:56:11Z</time>
      </trkpt>
      <trkpt lat="41.621117" lon="1.982777">
        <ele>643.80</ele>
        <time>1970-01-01T02:56:13Z</time>
      </trkpt>
      <trkpt lat="41.621077" lon="1.982762">
        <ele>644.80</ele>
        <time>1970-01-01T02:56:15Z</time>
      </trkpt>
      <trkpt lat="41.621057" lon="1.982752">
        <ele>645.20</ele>
        <time>1970-01-01T02:56:16Z</time>
      </trkpt>
      <trkpt lat="41.621037" lon="1.982741">
        <ele>645.40</ele>
        <time>1970-01-01T02:56:17Z</time>
      </trkpt>
      <trkpt lat="41.621004" lon="1.982720">
        <ele>646.20</ele>
        <time>1970-01-01T02:56:19Z</time>
      </trkpt>
      <trkpt lat="41.620974" lon="1.982709">
        <ele>646.60</ele>
        <time>1970-01-01T02:56:21Z</time>
      </trkpt>
      <trkpt lat="41.620957" lon="1.982710">
        <ele>646.60</ele>
        <time>1970-01-01T02:56:22Z</time>
      </trkpt>
      <trkpt lat="41.620934" lon="1.982712">
        <ele>646.80</ele>
        <time>1970-01-01T02:56:23Z</time>
      </trkpt>
      <trkpt lat="41.620879" lon="1.982699">
        <ele>646.80</ele>
        <time>1970-01-01T02:56:25Z</time>
      </trkpt>
      <trkpt lat="41.620849" lon="1.982694">
        <ele>646.80</ele>
        <time>1970-01-01T02:56:26Z</time>
      </trkpt>
      <trkpt lat="41.620818" lon="1.982691">
        <ele>646.80</ele>
        <time>1970-01-01T02:56:27Z</time>
      </trkpt>
      <trkpt lat="41.620753" lon="1.982682">
        <ele>646.80</ele>
        <time>1970-01-01T02:56:29Z</time>
      </trkpt>
      <trkpt lat="41.620695" lon="1.982686">
        <ele>646.80</ele>
        <time>1970-01-01T02:56:31Z</time>
      </trkpt>
      <trkpt lat="41.620648" lon="1.982700">
        <ele>646.80</ele>
        <time>1970-01-01T02:56:33Z</time>
      </trkpt>
      <trkpt lat="41.620600" lon="1.982730">
        <ele>647.00</ele>
        <time>1970-01-01T02:56:35Z</time>
      </trkpt>
      <trkpt lat="41.620542" lon="1.982779">
        <ele>647.20</ele>
        <time>1970-01-01T02:56:37Z</time>
      </trkpt>
      <trkpt lat="41.620513" lon="1.982809">
        <ele>647.20</ele>
        <time>1970-01-01T02:56:38Z</time>
      </trkpt>
      <trkpt lat="41.620481" lon="1.982841">
        <ele>647.20</ele>
        <time>1970-01-01T02:56:39Z</time>
      </trkpt>
      <trkpt lat="41.620408" lon="1.982903">
        <ele>647.20</ele>
        <time>1970-01-01T02:56:41Z</time>
      </trkpt>
      <trkpt lat="41.620321" lon="1.982959">
        <ele>647.00</ele>
        <time>1970-01-01T02:56:43Z</time>
      </trkpt>
      <trkpt lat="41.620278" lon="1.982992">
        <ele>647.00</ele>
        <time>1970-01-01T02:56:44Z</time>
      </trkpt>
      <trkpt lat="41.620239" lon="1.983033">
        <ele>647.00</ele>
        <time>1970-01-01T02:56:45Z</time>
      </trkpt>
      <trkpt lat="41.620173" lon="1.983139">
        <ele>647.00</ele>
        <time>1970-01-01T02:56:47Z</time>
      </trkpt>
      <trkpt lat="41.620144" lon="1.983204">
        <ele>647.00</ele>
        <time>1970-01-01T02:56:48Z</time>
      </trkpt>
      <trkpt lat="41.620111" lon="1.983272">
        <ele>646.80</ele>
        <time>1970-01-01T02:56:49Z</time>
      </trkpt>
      <trkpt lat="41.620023" lon="1.983385">
        <ele>646.40</ele>
        <time>1970-01-01T02:56:51Z</time>
      </trkpt>
      <trkpt lat="41.619973" lon="1.983428">
        <ele>646.20</ele>
        <time>1970-01-01T02:56:52Z</time>
      </trkpt>
      <trkpt lat="41.619922" lon="1.983463">
        <ele>646.00</ele>
        <time>1970-01-01T02:56:53Z</time>
      </trkpt>
      <trkpt lat="41.619830" lon="1.983543">
        <ele>645.60</ele>
        <time>1970-01-01T02:56:55Z</time>
      </trkpt>
      <trkpt lat="41.619792" lon="1.983586">
        <ele>645.40</ele>
        <time>1970-01-01T02:56:56Z</time>
      </trkpt>
      <trkpt lat="41.619758" lon="1.983627">
        <ele>645.20</ele>
        <time>1970-01-01T02:56:57Z</time>
      </trkpt>
      <trkpt lat="41.619703" lon="1.983694">
        <ele>644.80</ele>
        <time>1970-01-01T02:56:59Z</time>
      </trkpt>
      <trkpt lat="41.619655" lon="1.983747">
        <ele>644.60</ele>
        <time>1970-01-01T02:57:01Z</time>
      </trkpt>
      <trkpt lat="41.619631" lon="1.983770">
        <ele>644.60</ele>
        <time>1970-01-01T02:57:02Z</time>
      </trkpt>
      <trkpt lat="41.619607" lon="1.983788">
        <ele>644.60</ele>
        <time>1970-01-01T02:57:03Z</time>
      </trkpt>
      <trkpt lat="41.619563" lon="1.983817">
        <ele>644.60</ele>
        <time>1970-01-01T02:57:05Z</time>
      </trkpt>
      <trkpt lat="41.619525" lon="1.983831">
        <ele>644.60</ele>
        <time>1970-01-01T02:57:07Z</time>
      </trkpt>
      <trkpt lat="41.619504" lon="1.983838">
        <ele>644.60</ele>
        <time>1970-01-01T02:57:08Z</time>
      </trkpt>
      <trkpt lat="41.619481" lon="1.983851">
        <ele>644.60</ele>
        <time>1970-01-01T02:57:09Z</time>
      </trkpt>
      <trkpt lat="41.619433" lon="1.983881">
        <ele>645.00</ele>
        <time>1970-01-01T02:57:11Z</time>
      </trkpt>
      <trkpt lat="41.619384" lon="1.983913">
        <ele>645.40</ele>
        <time>1970-01-01T02:57:13Z</time>
      </trkpt>
      <trkpt lat="41.619337" lon="1.983942">
        <ele>646.00</ele>
        <time>1970-01-01T02:57:15Z</time>
      </trkpt>
      <trkpt lat="41.619315" lon="1.983961">
        <ele>646.40</ele>
        <time>1970-01-01T02:57:16Z</time>
      </trkpt>
      <trkpt lat="41.619295" lon="1.983979">
        <ele>646.60</ele>
        <time>1970-01-01T02:57:17Z</time>
      </trkpt>
      <trkpt lat="41.619258" lon="1.984012">
        <ele>647.00</ele>
        <time>1970-01-01T02:57:19Z</time>
      </trkpt>
      <trkpt lat="41.619218" lon="1.984050">
        <ele>647.40</ele>
        <time>1970-01-01T02:57:21Z</time>
      </trkpt>
      <trkpt lat="41.619200" lon="1.984070">
        <ele>647.60</ele>
        <time>1970-01-01T02:57:22Z</time>
      </trkpt>
      <trkpt lat="41.619181" lon="1.984090">
        <ele>647.60</ele>
        <time>1970-01-01T02:57:23Z</time>
      </trkpt>
      <trkpt lat="41.619143" lon="1.984128">
        <ele>648.20</ele>
        <time>1970-01-01T02:57:25Z</time>
      </trkpt>
      <trkpt lat="41.619111" lon="1.984167">
        <ele>648.40</ele>
        <time>1970-01-01T02:57:27Z</time>
      </trkpt>
      <trkpt lat="41.619076" lon="1.984207">
        <ele>649.00</ele>
        <time>1970-01-01T02:57:29Z</time>
      </trkpt>
      <trkpt lat="41.619056" lon="1.984228">
        <ele>649.20</ele>
        <time>1970-01-01T02:57:30Z</time>
      </trkpt>
      <trkpt lat="41.619037" lon="1.984250">
        <ele>649.40</ele>
        <time>1970-01-01T02:57:31Z</time>
      </trkpt>
      <trkpt lat="41.618991" lon="1.984282">
        <ele>649.80</ele>
        <time>1970-01-01T02:57:33Z</time>
      </trkpt>
      <trkpt lat="41.618966" lon="1.984293">
        <ele>650.00</ele>
        <time>1970-01-01T02:57:34Z</time>
      </trkpt>
      <trkpt lat="41.618942" lon="1.984301">
        <ele>650.40</ele>
        <time>1970-01-01T02:57:35Z</time>
      </trkpt>
      <trkpt lat="41.618917" lon="1.984309">
        <ele>650.60</ele>
        <time>1970-01-01T02:57:36Z</time>
      </trkpt>
      <trkpt lat="41.618891" lon="1.984313">
        <ele>650.80</ele>
        <time>1970-01-01T02:57:37Z</time>
      </trkpt>
      <trkpt lat="41.618840" lon="1.984315">
        <ele>651.20</ele>
        <time>1970-01-01T02:57:39Z</time>
      </trkpt>
      <trkpt lat="41.618790" lon="1.984312">
        <ele>651.80</ele>
        <time>1970-01-01T02:57:41Z</time>
      </trkpt>
      <trkpt lat="41.618739" lon="1.984315">
        <ele>652.00</ele>
        <time>1970-01-01T02:57:43Z</time>
      </trkpt>
      <trkpt lat="41.618712" lon="1.984321">
        <ele>652.20</ele>
        <time>1970-01-01T02:57:44Z</time>
      </trkpt>
      <trkpt lat="41.618682" lon="1.984330">
        <ele>652.40</ele>
        <time>1970-01-01T02:57:45Z</time>
      </trkpt>
      <trkpt lat="41.618620" lon="1.984360">
        <ele>652.80</ele>
        <time>1970-01-01T02:57:47Z</time>
      </trkpt>
      <trkpt lat="41.618561" lon="1.984407">
        <ele>653.20</ele>
        <time>1970-01-01T02:57:49Z</time>
      </trkpt>
      <trkpt lat="41.618533" lon="1.984429">
        <ele>653.60</ele>
        <time>1970-01-01T02:57:50Z</time>
      </trkpt>
      <trkpt lat="41.618505" lon="1.984456">
        <ele>653.80</ele>
        <time>1970-01-01T02:57:51Z</time>
      </trkpt>
      <trkpt lat="41.618437" lon="1.984524">
        <ele>654.00</ele>
        <time>1970-01-01T02:57:53Z</time>
      </trkpt>
      <trkpt lat="41.618399" lon="1.984572">
        <ele>654.20</ele>
        <time>1970-01-01T02:57:54Z</time>
      </trkpt>
      <trkpt lat="41.618359" lon="1.984628">
        <ele>654.20</ele>
        <time>1970-01-01T02:57:55Z</time>
      </trkpt>
      <trkpt lat="41.618280" lon="1.984742">
        <ele>654.20</ele>
        <time>1970-01-01T02:57:57Z</time>
      </trkpt>
      <trkpt lat="41.618211" lon="1.984842">
        <ele>654.20</ele>
        <time>1970-01-01T02:57:59Z</time>
      </trkpt>
      <trkpt lat="41.618181" lon="1.984885">
        <ele>654.20</ele>
        <time>1970-01-01T02:58:00Z</time>
      </trkpt>
      <trkpt lat="41.618151" lon="1.984921">
        <ele>654.20</ele>
        <time>1970-01-01T02:58:01Z</time>
      </trkpt>
      <trkpt lat="41.618092" lon="1.984982">
        <ele>654.40</ele>
        <time>1970-01-01T02:58:03Z</time>
      </trkpt>
      <trkpt lat="41.618032" lon="1.985042">
        <ele>654.60</ele>
        <time>1970-01-01T02:58:05Z</time>
      </trkpt>
      <trkpt lat="41.618007" lon="1.985074">
        <ele>654.60</ele>
        <time>1970-01-01T02:58:06Z</time>
      </trkpt>
      <trkpt lat="41.617987" lon="1.985106">
        <ele>654.60</ele>
        <time>1970-01-01T02:58:07Z</time>
      </trkpt>
      <trkpt lat="41.617950" lon="1.985171">
        <ele>654.60</ele>
        <time>1970-01-01T02:58:09Z</time>
      </trkpt>
      <trkpt lat="41.617911" lon="1.985239">
        <ele>654.60</ele>
        <time>1970-01-01T02:58:11Z</time>
      </trkpt>
      <trkpt lat="41.617892" lon="1.985278">
        <ele>654.60</ele>
        <time>1970-01-01T02:58:12Z</time>
      </trkpt>
      <trkpt lat="41.617874" lon="1.985315">
        <ele>654.80</ele>
        <time>1970-01-01T02:58:13Z</time>
      </trkpt>
      <trkpt lat="41.617836" lon="1.985398">
        <ele>655.20</ele>
        <time>1970-01-01T02:58:15Z</time>
      </trkpt>
      <trkpt lat="41.617797" lon="1.985484">
        <ele>655.40</ele>
        <time>1970-01-01T02:58:17Z</time>
      </trkpt>
      <trkpt lat="41.617756" lon="1.985572">
        <ele>655.60</ele>
        <time>1970-01-01T02:58:19Z</time>
      </trkpt>
      <trkpt lat="41.617723" lon="1.985651">
        <ele>655.80</ele>
        <time>1970-01-01T02:58:21Z</time>
      </trkpt>
      <trkpt lat="41.617702" lon="1.985716">
        <ele>655.80</ele>
        <time>1970-01-01T02:58:23Z</time>
      </trkpt>
      <trkpt lat="41.617691" lon="1.985741">
        <ele>655.80</ele>
        <time>1970-01-01T02:58:24Z</time>
      </trkpt>
      <trkpt lat="41.617675" lon="1.985766">
        <ele>656.00</ele>
        <time>1970-01-01T02:58:25Z</time>
      </trkpt>
      <trkpt lat="41.617632" lon="1.985815">
        <ele>656.00</ele>
        <time>1970-01-01T02:58:27Z</time>
      </trkpt>
      <trkpt lat="41.617579" lon="1.985864">
        <ele>656.00</ele>
        <time>1970-01-01T02:58:29Z</time>
      </trkpt>
      <trkpt lat="41.617535" lon="1.985898">
        <ele>656.20</ele>
        <time>1970-01-01T02:58:31Z</time>
      </trkpt>
      <trkpt lat="41.617531" lon="1.985902">
        <ele>656.40</ele>
        <time>1970-01-01T02:58:33Z</time>
      </trkpt>
      <trkpt lat="41.617532" lon="1.985902">
        <ele>656.40</ele>
        <time>1970-01-01T02:58:35Z</time>
      </trkpt>
      <trkpt lat="41.617532" lon="1.985903">
        <ele>656.40</ele>
        <time>1970-01-01T02:58:37Z</time>
      </trkpt>
      <trkpt lat="41.617532" lon="1.985903">
        <ele>656.40</ele>
        <time>1970-01-01T02:58:39Z</time>
      </trkpt>
      <trkpt lat="41.617532" lon="1.985903">
        <ele>656.40</ele>
        <time>1970-01-01T02:58:40Z</time>
      </trkpt>
      <trkpt lat="41.617532" lon="1.985903">
        <ele>656.40</ele>
        <time>1970-01-01T02:58:41Z</time>
      </trkpt>
      <trkpt lat="41.617532" lon="1.985903">
        <ele>656.20</ele>
        <time>1970-01-01T02:58:43Z</time>
      </trkpt>
      <trkpt lat="41.617532" lon="1.985903">
        <ele>656.20</ele>
        <time>1970-01-01T02:58:45Z</time>
      </trkpt>
      <trkpt lat="41.617532" lon="1.985903">
        <ele>656.20</ele>
        <time>1970-01-01T02:58:47Z</time>
      </trkpt>
      <trkpt lat="41.617532" lon="1.985903">
        <ele>656.20</ele>
        <time>1970-01-01T02:58:49Z</time>
      </trkpt>
      <trkpt lat="41.617532" lon="1.985903">
        <ele>656.20</ele>
        <time>1970-01-01T02:58:51Z</time>
      </trkpt>
      <trkpt lat="41.617532" lon="1.985903">
        <ele>656.20</ele>
        <time>1970-01-01T02:58:53Z</time>
      </trkpt>
      <trkpt lat="41.617532" lon="1.985903">
        <ele>656.20</ele>
        <time>1970-01-01T02:58:55Z</time>
      </trkpt>
      <trkpt lat="41.617532" lon="1.985903">
        <ele>656.20</ele>
        <time>1970-01-01T02:58:57Z</time>
      </trkpt>
      <trkpt lat="41.617532" lon="1.985903">
        <ele>656.20</ele>
        <time>1970-01-01T02:58:59Z</time>
      </trkpt>
      <trkpt lat="41.617532" lon="1.985903">
        <ele>656.20</ele>
        <time>1970-01-01T02:59:01Z</time>
      </trkpt>
      <trkpt lat="41.617532" lon="1.985903">
        <ele>656.00</ele>
        <time>1970-01-01T02:59:03Z</time>
      </trkpt>
      <trkpt lat="41.617532" lon="1.985904">
        <ele>656.00</ele>
        <time>1970-01-01T02:59:05Z</time>
      </trkpt>
      <trkpt lat="41.617532" lon="1.985904">
        <ele>656.00</ele>
        <time>1970-01-01T02:59:07Z</time>
      </trkpt>
      <trkpt lat="41.617532" lon="1.985904">
        <ele>656.00</ele>
        <time>1970-01-01T02:59:09Z</time>
      </trkpt>
      <trkpt lat="41.617532" lon="1.985904">
        <ele>656.00</ele>
        <time>1970-01-01T02:59:11Z</time>
      </trkpt>
      <trkpt lat="41.617532" lon="1.985904">
        <ele>656.00</ele>
        <time>1970-01-01T02:59:13Z</time>
      </trkpt>
      <trkpt lat="41.617532" lon="1.985905">
        <ele>656.00</ele>
        <time>1970-01-01T02:59:15Z</time>
      </trkpt>
      <trkpt lat="41.617532" lon="1.985905">
        <ele>656.00</ele>
        <time>1970-01-01T02:59:17Z</time>
      </trkpt>
      <trkpt lat="41.617532" lon="1.985905">
        <ele>656.00</ele>
        <time>1970-01-01T02:59:19Z</time>
      </trkpt>
      <trkpt lat="41.617532" lon="1.985905">
        <ele>656.00</ele>
        <time>1970-01-01T02:59:21Z</time>
      </trkpt>
      <trkpt lat="41.617532" lon="1.985905">
        <ele>656.00</ele>
        <time>1970-01-01T02:59:23Z</time>
      </trkpt>
      <trkpt lat="41.617532" lon="1.985905">
        <ele>656.00</ele>
        <time>1970-01-01T02:59:25Z</time>
      </trkpt>
      <trkpt lat="41.617532" lon="1.985906">
        <ele>656.20</ele>
        <time>1970-01-01T02:59:27Z</time>
      </trkpt>
      <trkpt lat="41.617525" lon="1.985918">
        <ele>656.20</ele>
        <time>1970-01-01T02:59:28Z</time>
      </trkpt>
      <trkpt lat="41.617515" lon="1.985940">
        <ele>656.20</ele>
        <time>1970-01-01T02:59:29Z</time>
      </trkpt>
      <trkpt lat="41.617483" lon="1.986009">
        <ele>656.40</ele>
        <time>1970-01-01T02:59:31Z</time>
      </trkpt>
      <trkpt lat="41.617453" lon="1.986058">
        <ele>656.40</ele>
        <time>1970-01-01T02:59:32Z</time>
      </trkpt>
      <trkpt lat="41.617414" lon="1.986114">
        <ele>656.00</ele>
        <time>1970-01-01T02:59:33Z</time>
      </trkpt>
      <trkpt lat="41.617330" lon="1.986232">
        <ele>656.20</ele>
        <time>1970-01-01T02:59:35Z</time>
      </trkpt>
      <trkpt lat="41.617234" lon="1.986310">
        <ele>656.20</ele>
        <time>1970-01-01T02:59:37Z</time>
      </trkpt>
      <trkpt lat="41.617137" lon="1.986390">
        <ele>655.80</ele>
        <time>1970-01-01T02:59:39Z</time>
      </trkpt>
      <trkpt lat="41.617106" lon="1.986459">
        <ele>655.60</ele>
        <time>1970-01-01T02:59:40Z</time>
      </trkpt>
      <trkpt lat="41.617088" lon="1.986542">
        <ele>655.00</ele>
        <time>1970-01-01T02:59:41Z</time>
      </trkpt>
      <trkpt lat="41.617074" lon="1.986630">
        <ele>654.40</ele>
        <time>1970-01-01T02:59:42Z</time>
      </trkpt>
      <trkpt lat="41.617044" lon="1.986712">
        <ele>653.60</ele>
        <time>1970-01-01T02:59:43Z</time>
      </trkpt>
      <trkpt lat="41.617001" lon="1.986780">
        <ele>652.60</ele>
        <time>1970-01-01T02:59:44Z</time>
      </trkpt>
      <trkpt lat="41.616953" lon="1.986842">
        <ele>651.80</ele>
        <time>1970-01-01T02:59:45Z</time>
      </trkpt>
      <trkpt lat="41.616907" lon="1.986900">
        <ele>651.20</ele>
        <time>1970-01-01T02:59:46Z</time>
      </trkpt>
      <trkpt lat="41.616866" lon="1.986956">
        <ele>650.80</ele>
        <time>1970-01-01T02:59:47Z</time>
      </trkpt>
      <trkpt lat="41.616791" lon="1.987056">
        <ele>649.80</ele>
        <time>1970-01-01T02:59:49Z</time>
      </trkpt>
      <trkpt lat="41.616732" lon="1.987139">
        <ele>648.60</ele>
        <time>1970-01-01T02:59:51Z</time>
      </trkpt>
      <trkpt lat="41.616707" lon="1.987178">
        <ele>648.00</ele>
        <time>1970-01-01T02:59:52Z</time>
      </trkpt>
      <trkpt lat="41.616683" lon="1.987212">
        <ele>648.00</ele>
        <time>1970-01-01T02:59:53Z</time>
      </trkpt>
      <trkpt lat="41.616658" lon="1.987242">
        <ele>647.60</ele>
        <time>1970-01-01T02:59:54Z</time>
      </trkpt>
      <trkpt lat="41.616633" lon="1.987273">
        <ele>647.40</ele>
        <time>1970-01-01T02:59:55Z</time>
      </trkpt>
      <trkpt lat="41.616583" lon="1.987333">
        <ele>647.40</ele>
        <time>1970-01-01T02:59:57Z</time>
      </trkpt>
      <trkpt lat="41.616556" lon="1.987363">
        <ele>647.40</ele>
        <time>1970-01-01T02:59:58Z</time>
      </trkpt>
      <trkpt lat="41.616524" lon="1.987388">
        <ele>647.40</ele>
        <time>1970-01-01T02:59:59Z</time>
      </trkpt>
      <trkpt lat="41.616458" lon="1.987412">
        <ele>647.40</ele>
        <time>1970-01-01T03:00:01Z</time>
      </trkpt>
      <trkpt lat="41.616424" lon="1.987415">
        <ele>647.40</ele>
        <time>1970-01-01T03:00:02Z</time>
      </trkpt>
      <trkpt lat="41.616391" lon="1.987415">
        <ele>647.40</ele>
        <time>1970-01-01T03:00:03Z</time>
      </trkpt>
      <trkpt lat="41.616357" lon="1.987413">
        <ele>647.60</ele>
        <time>1970-01-01T03:00:04Z</time>
      </trkpt>
      <trkpt lat="41.616326" lon="1.987412">
        <ele>647.80</ele>
        <time>1970-01-01T03:00:05Z</time>
      </trkpt>
      <trkpt lat="41.616256" lon="1.987406">
        <ele>647.80</ele>
        <time>1970-01-01T03:00:07Z</time>
      </trkpt>
      <trkpt lat="41.616217" lon="1.987406">
        <ele>648.00</ele>
        <time>1970-01-01T03:00:08Z</time>
      </trkpt>
      <trkpt lat="41.616177" lon="1.987406">
        <ele>648.20</ele>
        <time>1970-01-01T03:00:09Z</time>
      </trkpt>
      <trkpt lat="41.616091" lon="1.987411">
        <ele>648.40</ele>
        <time>1970-01-01T03:00:11Z</time>
      </trkpt>
      <trkpt lat="41.616040" lon="1.987427">
        <ele>648.60</ele>
        <time>1970-01-01T03:00:12Z</time>
      </trkpt>
      <trkpt lat="41.615978" lon="1.987444">
        <ele>648.60</ele>
        <time>1970-01-01T03:00:13Z</time>
      </trkpt>
      <trkpt lat="41.615838" lon="1.987444">
        <ele>648.80</ele>
        <time>1970-01-01T03:00:15Z</time>
      </trkpt>
      <trkpt lat="41.615766" lon="1.987422">
        <ele>648.80</ele>
        <time>1970-01-01T03:00:16Z</time>
      </trkpt>
      <trkpt lat="41.615691" lon="1.987402">
        <ele>648.80</ele>
        <time>1970-01-01T03:00:17Z</time>
      </trkpt>
      <trkpt lat="41.615537" lon="1.987358">
        <ele>648.80</ele>
        <time>1970-01-01T03:00:19Z</time>
      </trkpt>
      <trkpt lat="41.615384" lon="1.987301">
        <ele>648.80</ele>
        <time>1970-01-01T03:00:21Z</time>
      </trkpt>
      <trkpt lat="41.615309" lon="1.987277">
        <ele>648.80</ele>
        <time>1970-01-01T03:00:22Z</time>
      </trkpt>
      <trkpt lat="41.615242" lon="1.987276">
        <ele>648.40</ele>
        <time>1970-01-01T03:00:23Z</time>
      </trkpt>
      <trkpt lat="41.615190" lon="1.987295">
        <ele>647.80</ele>
        <time>1970-01-01T03:00:24Z</time>
      </trkpt>
      <trkpt lat="41.615148" lon="1.987321">
        <ele>647.40</ele>
        <time>1970-01-01T03:00:25Z</time>
      </trkpt>
      <trkpt lat="41.615087" lon="1.987384">
        <ele>646.40</ele>
        <time>1970-01-01T03:00:27Z</time>
      </trkpt>
      <trkpt lat="41.615057" lon="1.987415">
        <ele>646.40</ele>
        <time>1970-01-01T03:00:28Z</time>
      </trkpt>
      <trkpt lat="41.615026" lon="1.987452">
        <ele>645.80</ele>
        <time>1970-01-01T03:00:29Z</time>
      </trkpt>
      <trkpt lat="41.614962" lon="1.987546">
        <ele>645.20</ele>
        <time>1970-01-01T03:00:31Z</time>
      </trkpt>
      <trkpt lat="41.614923" lon="1.987587">
        <ele>644.80</ele>
        <time>1970-01-01T03:00:32Z</time>
      </trkpt>
      <trkpt lat="41.614889" lon="1.987607">
        <ele>644.60</ele>
        <time>1970-01-01T03:00:33Z</time>
      </trkpt>
      <trkpt lat="41.614869" lon="1.987609">
        <ele>644.20</ele>
        <time>1970-01-01T03:00:34Z</time>
      </trkpt>
      <trkpt lat="41.614863" lon="1.987606">
        <ele>643.80</ele>
        <time>1970-01-01T03:00:35Z</time>
      </trkpt>
      <trkpt lat="41.614862" lon="1.987604">
        <ele>643.20</ele>
        <time>1970-01-01T03:00:37Z</time>
      </trkpt>
      <trkpt lat="41.614861" lon="1.987602">
        <ele>642.60</ele>
        <time>1970-01-01T03:00:39Z</time>
      </trkpt>
      <trkpt lat="41.614838" lon="1.987589">
        <ele>642.00</ele>
        <time>1970-01-01T03:00:41Z</time>
      </trkpt>
      <trkpt lat="41.614807" lon="1.987575">
        <ele>641.20</ele>
        <time>1970-01-01T03:00:42Z</time>
      </trkpt>
      <trkpt lat="41.614774" lon="1.987562">
        <ele>640.60</ele>
        <time>1970-01-01T03:00:43Z</time>
      </trkpt>
      <trkpt lat="41.614715" lon="1.987533">
        <ele>640.20</ele>
        <time>1970-01-01T03:00:45Z</time>
      </trkpt>
      <trkpt lat="41.614664" lon="1.987488">
        <ele>640.00</ele>
        <time>1970-01-01T03:00:47Z</time>
      </trkpt>
      <trkpt lat="41.614611" lon="1.987426">
        <ele>639.80</ele>
        <time>1970-01-01T03:00:49Z</time>
      </trkpt>
      <trkpt lat="41.614587" lon="1.987386">
        <ele>639.20</ele>
        <time>1970-01-01T03:00:50Z</time>
      </trkpt>
      <trkpt lat="41.614560" lon="1.987337">
        <ele>638.40</ele>
        <time>1970-01-01T03:00:51Z</time>
      </trkpt>
      <trkpt lat="41.614531" lon="1.987283">
        <ele>637.40</ele>
        <time>1970-01-01T03:00:52Z</time>
      </trkpt>
      <trkpt lat="41.614502" lon="1.987227">
        <ele>636.40</ele>
        <time>1970-01-01T03:00:53Z</time>
      </trkpt>
      <trkpt lat="41.614471" lon="1.987172">
        <ele>635.60</ele>
        <time>1970-01-01T03:00:54Z</time>
      </trkpt>
      <trkpt lat="41.614437" lon="1.987120">
        <ele>634.60</ele>
        <time>1970-01-01T03:00:55Z</time>
      </trkpt>
      <trkpt lat="41.614404" lon="1.987074">
        <ele>633.60</ele>
        <time>1970-01-01T03:00:56Z</time>
      </trkpt>
      <trkpt lat="41.614375" lon="1.987030">
        <ele>632.60</ele>
        <time>1970-01-01T03:00:57Z</time>
      </trkpt>
      <trkpt lat="41.614351" lon="1.986983">
        <ele>631.60</ele>
        <time>1970-01-01T03:00:58Z</time>
      </trkpt>
      <trkpt lat="41.614328" lon="1.986941">
        <ele>630.60</ele>
        <time>1970-01-01T03:00:59Z</time>
      </trkpt>
      <trkpt lat="41.614305" lon="1.986902">
        <ele>629.20</ele>
        <time>1970-01-01T03:01:00Z</time>
      </trkpt>
      <trkpt lat="41.614281" lon="1.986862">
        <ele>627.80</ele>
        <time>1970-01-01T03:01:01Z</time>
      </trkpt>
      <trkpt lat="41.614258" lon="1.986826">
        <ele>626.20</ele>
        <time>1970-01-01T03:01:02Z</time>
      </trkpt>
      <trkpt lat="41.614233" lon="1.986796">
        <ele>624.80</ele>
        <time>1970-01-01T03:01:03Z</time>
      </trkpt>
      <trkpt lat="41.614208" lon="1.986764">
        <ele>623.40</ele>
        <time>1970-01-01T03:01:04Z</time>
      </trkpt>
      <trkpt lat="41.614181" lon="1.986730">
        <ele>622.20</ele>
        <time>1970-01-01T03:01:05Z</time>
      </trkpt>
      <trkpt lat="41.614152" lon="1.986695">
        <ele>622.20</ele>
        <time>1970-01-01T03:01:06Z</time>
      </trkpt>
      <trkpt lat="41.614117" lon="1.986666">
        <ele>621.00</ele>
        <time>1970-01-01T03:01:07Z</time>
      </trkpt>
      <trkpt lat="41.614084" lon="1.986651">
        <ele>619.80</ele>
        <time>1970-01-01T03:01:08Z</time>
      </trkpt>
      <trkpt lat="41.614057" lon="1.986648">
        <ele>618.60</ele>
        <time>1970-01-01T03:01:09Z</time>
      </trkpt>
      <trkpt lat="41.614033" lon="1.986653">
        <ele>617.00</ele>
        <time>1970-01-01T03:01:10Z</time>
      </trkpt>
      <trkpt lat="41.614007" lon="1.986659">
        <ele>615.60</ele>
        <time>1970-01-01T03:01:11Z</time>
      </trkpt>
      <trkpt lat="41.613981" lon="1.986662">
        <ele>614.20</ele>
        <time>1970-01-01T03:01:12Z</time>
      </trkpt>
      <trkpt lat="41.613958" lon="1.986658">
        <ele>613.00</ele>
        <time>1970-01-01T03:01:13Z</time>
      </trkpt>
      <trkpt lat="41.613936" lon="1.986652">
        <ele>611.80</ele>
        <time>1970-01-01T03:01:14Z</time>
      </trkpt>
      <trkpt lat="41.613918" lon="1.986641">
        <ele>610.40</ele>
        <time>1970-01-01T03:01:15Z</time>
      </trkpt>
      <trkpt lat="41.613899" lon="1.986623">
        <ele>609.20</ele>
        <time>1970-01-01T03:01:16Z</time>
      </trkpt>
      <trkpt lat="41.613882" lon="1.986605">
        <ele>608.00</ele>
        <time>1970-01-01T03:01:17Z</time>
      </trkpt>
      <trkpt lat="41.613862" lon="1.986590">
        <ele>606.80</ele>
        <time>1970-01-01T03:01:18Z</time>
      </trkpt>
      <trkpt lat="41.613841" lon="1.986587">
        <ele>606.00</ele>
        <time>1970-01-01T03:01:19Z</time>
      </trkpt>
      <trkpt lat="41.613823" lon="1.986595">
        <ele>605.20</ele>
        <time>1970-01-01T03:01:20Z</time>
      </trkpt>
      <trkpt lat="41.613806" lon="1.986611">
        <ele>604.20</ele>
        <time>1970-01-01T03:01:21Z</time>
      </trkpt>
      <trkpt lat="41.613789" lon="1.986623">
        <ele>603.40</ele>
        <time>1970-01-01T03:01:22Z</time>
      </trkpt>
      <trkpt lat="41.613772" lon="1.986639">
        <ele>602.60</ele>
        <time>1970-01-01T03:01:23Z</time>
      </trkpt>
      <trkpt lat="41.613753" lon="1.986651">
        <ele>601.60</ele>
        <time>1970-01-01T03:01:24Z</time>
      </trkpt>
      <trkpt lat="41.613731" lon="1.986654">
        <ele>600.80</ele>
        <time>1970-01-01T03:01:25Z</time>
      </trkpt>
      <trkpt lat="41.613704" lon="1.986647">
        <ele>600.00</ele>
        <time>1970-01-01T03:01:26Z</time>
      </trkpt>
      <trkpt lat="41.613671" lon="1.986646">
        <ele>600.00</ele>
        <time>1970-01-01T03:01:27Z</time>
      </trkpt>
      <trkpt lat="41.613614" lon="1.986663">
        <ele>598.60</ele>
        <time>1970-01-01T03:01:29Z</time>
      </trkpt>
      <trkpt lat="41.613553" lon="1.986670">
        <ele>598.00</ele>
        <time>1970-01-01T03:01:31Z</time>
      </trkpt>
      <trkpt lat="41.613517" lon="1.986676">
        <ele>597.60</ele>
        <time>1970-01-01T03:01:32Z</time>
      </trkpt>
      <trkpt lat="41.613483" lon="1.986702">
        <ele>597.40</ele>
        <time>1970-01-01T03:01:33Z</time>
      </trkpt>
      <trkpt lat="41.613416" lon="1.986785">
        <ele>595.80</ele>
        <time>1970-01-01T03:01:35Z</time>
      </trkpt>
      <trkpt lat="41.613311" lon="1.986850">
        <ele>594.00</ele>
        <time>1970-01-01T03:01:37Z</time>
      </trkpt>
      <trkpt lat="41.613255" lon="1.986877">
        <ele>593.00</ele>
        <time>1970-01-01T03:01:38Z</time>
      </trkpt>
      <trkpt lat="41.613196" lon="1.986911">
        <ele>592.00</ele>
        <time>1970-01-01T03:01:39Z</time>
      </trkpt>
      <trkpt lat="41.613139" lon="1.986950">
        <ele>591.20</ele>
        <time>1970-01-01T03:01:40Z</time>
      </trkpt>
      <trkpt lat="41.613092" lon="1.986993">
        <ele>590.40</ele>
        <time>1970-01-01T03:01:41Z</time>
      </trkpt>
      <trkpt lat="41.613060" lon="1.987042">
        <ele>590.40</ele>
        <time>1970-01-01T03:01:42Z</time>
      </trkpt>
      <trkpt lat="41.613037" lon="1.987094">
        <ele>589.60</ele>
        <time>1970-01-01T03:01:43Z</time>
      </trkpt>
      <trkpt lat="41.613015" lon="1.987152">
        <ele>588.60</ele>
        <time>1970-01-01T03:01:44Z</time>
      </trkpt>
      <trkpt lat="41.613000" lon="1.987214">
        <ele>587.60</ele>
        <time>1970-01-01T03:01:45Z</time>
      </trkpt>
      <trkpt lat="41.612992" lon="1.987281">
        <ele>586.60</ele>
        <time>1970-01-01T03:01:46Z</time>
      </trkpt>
      <trkpt lat="41.612988" lon="1.987355">
        <ele>586.60</ele>
        <time>1970-01-01T03:01:47Z</time>
      </trkpt>
      <trkpt lat="41.612975" lon="1.987513">
        <ele>585.00</ele>
        <time>1970-01-01T03:01:49Z</time>
      </trkpt>
      <trkpt lat="41.612972" lon="1.987586">
        <ele>584.40</ele>
        <time>1970-01-01T03:01:50Z</time>
      </trkpt>
      <trkpt lat="41.612972" lon="1.987654">
        <ele>584.00</ele>
        <time>1970-01-01T03:01:51Z</time>
      </trkpt>
      <trkpt lat="41.612958" lon="1.987783">
        <ele>583.20</ele>
        <time>1970-01-01T03:01:53Z</time>
      </trkpt>
      <trkpt lat="41.612890" lon="1.987843">
        <ele>583.00</ele>
        <time>1970-01-01T03:01:55Z</time>
      </trkpt>
      <trkpt lat="41.612851" lon="1.987845">
        <ele>582.40</ele>
        <time>1970-01-01T03:01:56Z</time>
      </trkpt>
      <trkpt lat="41.612814" lon="1.987834">
        <ele>582.00</ele>
        <time>1970-01-01T03:01:57Z</time>
      </trkpt>
      <trkpt lat="41.612777" lon="1.987828">
        <ele>581.80</ele>
        <time>1970-01-01T03:01:58Z</time>
      </trkpt>
      <trkpt lat="41.612732" lon="1.987826">
        <ele>581.60</ele>
        <time>1970-01-01T03:01:59Z</time>
      </trkpt>
      <trkpt lat="41.612679" lon="1.987812">
        <ele>581.40</ele>
        <time>1970-01-01T03:02:00Z</time>
      </trkpt>
      <trkpt lat="41.612625" lon="1.987789">
        <ele>581.20</ele>
        <time>1970-01-01T03:02:01Z</time>
      </trkpt>
      <trkpt lat="41.612562" lon="1.987760">
        <ele>581.20</ele>
        <time>1970-01-01T03:02:02Z</time>
      </trkpt>
      <trkpt lat="41.612499" lon="1.987727">
        <ele>580.80</ele>
        <time>1970-01-01T03:02:03Z</time>
      </trkpt>
      <trkpt lat="41.612365" lon="1.987653">
        <ele>579.80</ele>
        <time>1970-01-01T03:02:05Z</time>
      </trkpt>
      <trkpt lat="41.612243" lon="1.987583">
        <ele>578.60</ele>
        <time>1970-01-01T03:02:07Z</time>
      </trkpt>
      <trkpt lat="41.612198" lon="1.987552">
        <ele>578.00</ele>
        <time>1970-01-01T03:02:08Z</time>
      </trkpt>
      <trkpt lat="41.612156" lon="1.987509">
        <ele>577.60</ele>
        <time>1970-01-01T03:02:09Z</time>
      </trkpt>
      <trkpt lat="41.612114" lon="1.987457">
        <ele>576.80</ele>
        <time>1970-01-01T03:02:10Z</time>
      </trkpt>
      <trkpt lat="41.612073" lon="1.987401">
        <ele>576.20</ele>
        <time>1970-01-01T03:02:11Z</time>
      </trkpt>
      <trkpt lat="41.612001" lon="1.987309">
        <ele>574.60</ele>
        <time>1970-01-01T03:02:13Z</time>
      </trkpt>
      <trkpt lat="41.611957" lon="1.987270">
        <ele>573.80</ele>
        <time>1970-01-01T03:02:14Z</time>
      </trkpt>
      <trkpt lat="41.611910" lon="1.987238">
        <ele>573.00</ele>
        <time>1970-01-01T03:02:15Z</time>
      </trkpt>
      <trkpt lat="41.611862" lon="1.987210">
        <ele>572.20</ele>
        <time>1970-01-01T03:02:16Z</time>
      </trkpt>
      <trkpt lat="41.611808" lon="1.987171">
        <ele>571.60</ele>
        <time>1970-01-01T03:02:17Z</time>
      </trkpt>
      <trkpt lat="41.611750" lon="1.987132">
        <ele>571.20</ele>
        <time>1970-01-01T03:02:18Z</time>
      </trkpt>
      <trkpt lat="41.611688" lon="1.987098">
        <ele>571.00</ele>
        <time>1970-01-01T03:02:19Z</time>
      </trkpt>
      <trkpt lat="41.611632" lon="1.987055">
        <ele>570.80</ele>
        <time>1970-01-01T03:02:20Z</time>
      </trkpt>
      <trkpt lat="41.611533" lon="1.986967">
        <ele>570.60</ele>
        <time>1970-01-01T03:02:22Z</time>
      </trkpt>
      <trkpt lat="41.611483" lon="1.986925">
        <ele>570.60</ele>
        <time>1970-01-01T03:02:23Z</time>
      </trkpt>
      <trkpt lat="41.611435" lon="1.986880">
        <ele>570.60</ele>
        <time>1970-01-01T03:02:24Z</time>
      </trkpt>
      <trkpt lat="41.611383" lon="1.986845">
        <ele>570.60</ele>
        <time>1970-01-01T03:02:25Z</time>
      </trkpt>
      <trkpt lat="41.611326" lon="1.986832">
        <ele>570.20</ele>
        <time>1970-01-01T03:02:26Z</time>
      </trkpt>
      <trkpt lat="41.611264" lon="1.986835">
        <ele>570.20</ele>
        <time>1970-01-01T03:02:27Z</time>
      </trkpt>
      <trkpt lat="41.611201" lon="1.986847">
        <ele>569.80</ele>
        <time>1970-01-01T03:02:28Z</time>
      </trkpt>
      <trkpt lat="41.611095" lon="1.986892">
        <ele>569.40</ele>
        <time>1970-01-01T03:02:30Z</time>
      </trkpt>
      <trkpt lat="41.611043" lon="1.986901">
        <ele>569.40</ele>
        <time>1970-01-01T03:02:31Z</time>
      </trkpt>
      <trkpt lat="41.610940" lon="1.986859">
        <ele>569.40</ele>
        <time>1970-01-01T03:02:32Z</time>
      </trkpt>
      <trkpt lat="41.610915" lon="1.986837">
        <ele>569.20</ele>
        <time>1970-01-01T03:02:33Z</time>
      </trkpt>
      <trkpt lat="41.610890" lon="1.986816">
        <ele>569.20</ele>
        <time>1970-01-01T03:02:34Z</time>
      </trkpt>
      <trkpt lat="41.610813" lon="1.986711">
        <ele>568.40</ele>
        <time>1970-01-01T03:02:36Z</time>
      </trkpt>
      <trkpt lat="41.610779" lon="1.986664">
        <ele>567.40</ele>
        <time>1970-01-01T03:02:37Z</time>
      </trkpt>
      <trkpt lat="41.610743" lon="1.986606">
        <ele>566.40</ele>
        <time>1970-01-01T03:02:38Z</time>
      </trkpt>
      <trkpt lat="41.610668" lon="1.986495">
        <ele>564.80</ele>
        <time>1970-01-01T03:02:40Z</time>
      </trkpt>
      <trkpt lat="41.610581" lon="1.986403">
        <ele>563.60</ele>
        <time>1970-01-01T03:02:42Z</time>
      </trkpt>
      <trkpt lat="41.610538" lon="1.986363">
        <ele>563.20</ele>
        <time>1970-01-01T03:02:43Z</time>
      </trkpt>
      <trkpt lat="41.610492" lon="1.986335">
        <ele>562.80</ele>
        <time>1970-01-01T03:02:44Z</time>
      </trkpt>
      <trkpt lat="41.610447" lon="1.986307">
        <ele>562.20</ele>
        <time>1970-01-01T03:02:45Z</time>
      </trkpt>
      <trkpt lat="41.610398" lon="1.986277">
        <ele>562.20</ele>
        <time>1970-01-01T03:02:46Z</time>
      </trkpt>
      <trkpt lat="41.610347" lon="1.986255">
        <ele>562.00</ele>
        <time>1970-01-01T03:02:47Z</time>
      </trkpt>
      <trkpt lat="41.610298" lon="1.986245">
        <ele>561.80</ele>
        <time>1970-01-01T03:02:48Z</time>
      </trkpt>
      <trkpt lat="41.610207" lon="1.986204">
        <ele>561.20</ele>
        <time>1970-01-01T03:02:50Z</time>
      </trkpt>
      <trkpt lat="41.610159" lon="1.986188">
        <ele>560.80</ele>
        <time>1970-01-01T03:02:51Z</time>
      </trkpt>
      <trkpt lat="41.610107" lon="1.986180">
        <ele>560.60</ele>
        <time>1970-01-01T03:02:52Z</time>
      </trkpt>
      <trkpt lat="41.610007" lon="1.986149">
        <ele>560.40</ele>
        <time>1970-01-01T03:02:54Z</time>
      </trkpt>
      <trkpt lat="41.609959" lon="1.986123">
        <ele>560.20</ele>
        <time>1970-01-01T03:02:55Z</time>
      </trkpt>
      <trkpt lat="41.609907" lon="1.986095">
        <ele>559.80</ele>
        <time>1970-01-01T03:02:56Z</time>
      </trkpt>
      <trkpt lat="41.609803" lon="1.986031">
        <ele>558.60</ele>
        <time>1970-01-01T03:02:58Z</time>
      </trkpt>
      <trkpt lat="41.609714" lon="1.985967">
        <ele>557.80</ele>
        <time>1970-01-01T03:03:00Z</time>
      </trkpt>
      <trkpt lat="41.609682" lon="1.985948">
        <ele>557.20</ele>
        <time>1970-01-01T03:03:01Z</time>
      </trkpt>
      <trkpt lat="41.609661" lon="1.985923">
        <ele>556.60</ele>
        <time>1970-01-01T03:03:02Z</time>
      </trkpt>
      <trkpt lat="41.609646" lon="1.985886">
        <ele>556.00</ele>
        <time>1970-01-01T03:03:03Z</time>
      </trkpt>
      <trkpt lat="41.609625" lon="1.985848">
        <ele>555.20</ele>
        <time>1970-01-01T03:03:04Z</time>
      </trkpt>
      <trkpt lat="41.609608" lon="1.985797">
        <ele>554.40</ele>
        <time>1970-01-01T03:03:05Z</time>
      </trkpt>
      <trkpt lat="41.609595" lon="1.985738">
        <ele>553.60</ele>
        <time>1970-01-01T03:03:06Z</time>
      </trkpt>
      <trkpt lat="41.609583" lon="1.985614">
        <ele>553.20</ele>
        <time>1970-01-01T03:03:08Z</time>
      </trkpt>
      <trkpt lat="41.609557" lon="1.985483">
        <ele>553.00</ele>
        <time>1970-01-01T03:03:10Z</time>
      </trkpt>
      <trkpt lat="41.609538" lon="1.985415">
        <ele>552.60</ele>
        <time>1970-01-01T03:03:11Z</time>
      </trkpt>
      <trkpt lat="41.609512" lon="1.985354">
        <ele>552.60</ele>
        <time>1970-01-01T03:03:12Z</time>
      </trkpt>
      <trkpt lat="41.609470" lon="1.985307">
        <ele>552.40</ele>
        <time>1970-01-01T03:03:13Z</time>
      </trkpt>
      <trkpt lat="41.609421" lon="1.985272">
        <ele>552.40</ele>
        <time>1970-01-01T03:03:14Z</time>
      </trkpt>
      <trkpt lat="41.609304" lon="1.985218">
        <ele>552.40</ele>
        <time>1970-01-01T03:03:16Z</time>
      </trkpt>
      <trkpt lat="41.609239" lon="1.985193">
        <ele>552.40</ele>
        <time>1970-01-01T03:03:17Z</time>
      </trkpt>
      <trkpt lat="41.609179" lon="1.985168">
        <ele>552.40</ele>
        <time>1970-01-01T03:03:18Z</time>
      </trkpt>
      <trkpt lat="41.609131" lon="1.985134">
        <ele>552.40</ele>
        <time>1970-01-01T03:03:19Z</time>
      </trkpt>
      <trkpt lat="41.609098" lon="1.985087">
        <ele>552.20</ele>
        <time>1970-01-01T03:03:20Z</time>
      </trkpt>
      <trkpt lat="41.609067" lon="1.985029">
        <ele>552.20</ele>
        <time>1970-01-01T03:03:21Z</time>
      </trkpt>
      <trkpt lat="41.609027" lon="1.984968">
        <ele>552.20</ele>
        <time>1970-01-01T03:03:22Z</time>
      </trkpt>
      <trkpt lat="41.608936" lon="1.984872">
        <ele>551.80</ele>
        <time>1970-01-01T03:03:24Z</time>
      </trkpt>
      <trkpt lat="41.608887" lon="1.984832">
        <ele>551.40</ele>
        <time>1970-01-01T03:03:25Z</time>
      </trkpt>
      <trkpt lat="41.608786" lon="1.984788">
        <ele>551.20</ele>
        <time>1970-01-01T03:03:26Z</time>
      </trkpt>
      <trkpt lat="41.608736" lon="1.984787">
        <ele>550.80</ele>
        <time>1970-01-01T03:03:28Z</time>
      </trkpt>
      <trkpt lat="41.608634" lon="1.984792">
        <ele>550.00</ele>
        <time>1970-01-01T03:03:30Z</time>
      </trkpt>
      <trkpt lat="41.608515" lon="1.984798">
        <ele>549.40</ele>
        <time>1970-01-01T03:03:32Z</time>
      </trkpt>
      <trkpt lat="41.608449" lon="1.984800">
        <ele>549.20</ele>
        <time>1970-01-01T03:03:33Z</time>
      </trkpt>
      <trkpt lat="41.608381" lon="1.984796">
        <ele>548.80</ele>
        <time>1970-01-01T03:03:34Z</time>
      </trkpt>
      <trkpt lat="41.608255" lon="1.984784">
        <ele>548.40</ele>
        <time>1970-01-01T03:03:36Z</time>
      </trkpt>
      <trkpt lat="41.608146" lon="1.984782">
        <ele>548.00</ele>
        <time>1970-01-01T03:03:38Z</time>
      </trkpt>
      <trkpt lat="41.608087" lon="1.984784">
        <ele>547.80</ele>
        <time>1970-01-01T03:03:39Z</time>
      </trkpt>
      <trkpt lat="41.608024" lon="1.984786">
        <ele>547.60</ele>
        <time>1970-01-01T03:03:40Z</time>
      </trkpt>
      <trkpt lat="41.607908" lon="1.984792">
        <ele>547.20</ele>
        <time>1970-01-01T03:03:42Z</time>
      </trkpt>
      <trkpt lat="41.607855" lon="1.984791">
        <ele>546.80</ele>
        <time>1970-01-01T03:03:43Z</time>
      </trkpt>
      <trkpt lat="41.607804" lon="1.984786">
        <ele>546.80</ele>
        <time>1970-01-01T03:03:44Z</time>
      </trkpt>
      <trkpt lat="41.607710" lon="1.984773">
        <ele>546.80</ele>
        <time>1970-01-01T03:03:46Z</time>
      </trkpt>
      <trkpt lat="41.607656" lon="1.984752">
        <ele>546.60</ele>
        <time>1970-01-01T03:03:47Z</time>
      </trkpt>
      <trkpt lat="41.607603" lon="1.984725">
        <ele>546.60</ele>
        <time>1970-01-01T03:03:48Z</time>
      </trkpt>
      <trkpt lat="41.607515" lon="1.984644">
        <ele>546.60</ele>
        <time>1970-01-01T03:03:50Z</time>
      </trkpt>
      <trkpt lat="41.607476" lon="1.984609">
        <ele>546.40</ele>
        <time>1970-01-01T03:03:51Z</time>
      </trkpt>
      <trkpt lat="41.607434" lon="1.984590">
        <ele>546.40</ele>
        <time>1970-01-01T03:03:52Z</time>
      </trkpt>
      <trkpt lat="41.607387" lon="1.984575">
        <ele>546.40</ele>
        <time>1970-01-01T03:03:53Z</time>
      </trkpt>
      <trkpt lat="41.607348" lon="1.984547">
        <ele>546.40</ele>
        <time>1970-01-01T03:03:54Z</time>
      </trkpt>
      <trkpt lat="41.607319" lon="1.984503">
        <ele>546.40</ele>
        <time>1970-01-01T03:03:55Z</time>
      </trkpt>
      <trkpt lat="41.607302" lon="1.984447">
        <ele>546.40</ele>
        <time>1970-01-01T03:03:56Z</time>
      </trkpt>
      <trkpt lat="41.607283" lon="1.984337">
        <ele>546.20</ele>
        <time>1970-01-01T03:03:58Z</time>
      </trkpt>
      <trkpt lat="41.607275" lon="1.984283">
        <ele>546.20</ele>
        <time>1970-01-01T03:03:59Z</time>
      </trkpt>
      <trkpt lat="41.607268" lon="1.984218">
        <ele>546.20</ele>
        <time>1970-01-01T03:04:00Z</time>
      </trkpt>
      <trkpt lat="41.607247" lon="1.984078">
        <ele>546.00</ele>
        <time>1970-01-01T03:04:02Z</time>
      </trkpt>
      <trkpt lat="41.607242" lon="1.984015">
        <ele>545.60</ele>
        <time>1970-01-01T03:04:03Z</time>
      </trkpt>
      <trkpt lat="41.607249" lon="1.983966">
        <ele>545.40</ele>
        <time>1970-01-01T03:04:04Z</time>
      </trkpt>
      <trkpt lat="41.607274" lon="1.983860">
        <ele>544.60</ele>
        <time>1970-01-01T03:04:06Z</time>
      </trkpt>
      <trkpt lat="41.607284" lon="1.983799">
        <ele>544.60</ele>
        <time>1970-01-01T03:04:07Z</time>
      </trkpt>
      <trkpt lat="41.607289" lon="1.983728">
        <ele>544.40</ele>
        <time>1970-01-01T03:04:08Z</time>
      </trkpt>
      <trkpt lat="41.607284" lon="1.983592">
        <ele>544.00</ele>
        <time>1970-01-01T03:04:10Z</time>
      </trkpt>
      <trkpt lat="41.607274" lon="1.983527">
        <ele>544.00</ele>
        <time>1970-01-01T03:04:11Z</time>
      </trkpt>
      <trkpt lat="41.607263" lon="1.983462">
        <ele>544.00</ele>
        <time>1970-01-01T03:04:12Z</time>
      </trkpt>
      <trkpt lat="41.607249" lon="1.983331">
        <ele>543.80</ele>
        <time>1970-01-01T03:04:14Z</time>
      </trkpt>
      <trkpt lat="41.607231" lon="1.983205">
        <ele>543.40</ele>
        <time>1970-01-01T03:04:16Z</time>
      </trkpt>
      <trkpt lat="41.607207" lon="1.983145">
        <ele>543.20</ele>
        <time>1970-01-01T03:04:17Z</time>
      </trkpt>
      <trkpt lat="41.607171" lon="1.983095">
        <ele>543.00</ele>
        <time>1970-01-01T03:04:18Z</time>
      </trkpt>
      <trkpt lat="41.607084" lon="1.983059">
        <ele>542.80</ele>
        <time>1970-01-01T03:04:20Z</time>
      </trkpt>
      <trkpt lat="41.607005" lon="1.983076">
        <ele>542.60</ele>
        <time>1970-01-01T03:04:22Z</time>
      </trkpt>
      <trkpt lat="41.606952" lon="1.983108">
        <ele>542.20</ele>
        <time>1970-01-01T03:04:24Z</time>
      </trkpt>
      <trkpt lat="41.606944" lon="1.983118">
        <ele>542.00</ele>
        <time>1970-01-01T03:04:25Z</time>
      </trkpt>
      <trkpt lat="41.606939" lon="1.983122">
        <ele>542.00</ele>
        <time>1970-01-01T03:04:26Z</time>
      </trkpt>
      <trkpt lat="41.606939" lon="1.983122">
        <ele>541.40</ele>
        <time>1970-01-01T03:04:28Z</time>
      </trkpt>
      <trkpt lat="41.606939" lon="1.983124">
        <ele>541.00</ele>
        <time>1970-01-01T03:04:29Z</time>
      </trkpt>
      <trkpt lat="41.606938" lon="1.983124">
        <ele>540.40</ele>
        <time>1970-01-01T03:04:30Z</time>
      </trkpt>
      <trkpt lat="41.606939" lon="1.983125">
        <ele>539.80</ele>
        <time>1970-01-01T03:04:31Z</time>
      </trkpt>
      <trkpt lat="41.606939" lon="1.983125">
        <ele>539.40</ele>
        <time>1970-01-01T03:04:32Z</time>
      </trkpt>
      <trkpt lat="41.606939" lon="1.983126">
        <ele>539.00</ele>
        <time>1970-01-01T03:04:34Z</time>
      </trkpt>
      <trkpt lat="41.606939" lon="1.983125">
        <ele>538.80</ele>
        <time>1970-01-01T03:04:36Z</time>
      </trkpt>
      <trkpt lat="41.606939" lon="1.983125">
        <ele>538.80</ele>
        <time>1970-01-01T03:04:38Z</time>
      </trkpt>
      <trkpt lat="41.606939" lon="1.983124">
        <ele>538.80</ele>
        <time>1970-01-01T03:04:40Z</time>
      </trkpt>
      <trkpt lat="41.606939" lon="1.983124">
        <ele>538.80</ele>
        <time>1970-01-01T03:04:41Z</time>
      </trkpt>
      <trkpt lat="41.606939" lon="1.983124">
        <ele>538.80</ele>
        <time>1970-01-01T03:04:42Z</time>
      </trkpt>
      <trkpt lat="41.606939" lon="1.983123">
        <ele>538.80</ele>
        <time>1970-01-01T03:04:44Z</time>
      </trkpt>
      <trkpt lat="41.606936" lon="1.983116">
        <ele>538.80</ele>
        <time>1970-01-01T03:04:46Z</time>
      </trkpt>
      <trkpt lat="41.606934" lon="1.983101">
        <ele>538.80</ele>
        <time>1970-01-01T03:04:47Z</time>
      </trkpt>
      <trkpt lat="41.606939" lon="1.983074">
        <ele>538.80</ele>
        <time>1970-01-01T03:04:48Z</time>
      </trkpt>
      <trkpt lat="41.606953" lon="1.983032">
        <ele>538.80</ele>
        <time>1970-01-01T03:04:49Z</time>
      </trkpt>
      <trkpt lat="41.606973" lon="1.982989">
        <ele>538.80</ele>
        <time>1970-01-01T03:04:50Z</time>
      </trkpt>
      <trkpt lat="41.607047" lon="1.982899">
        <ele>538.80</ele>
        <time>1970-01-01T03:04:52Z</time>
      </trkpt>
      <trkpt lat="41.607100" lon="1.982848">
        <ele>538.80</ele>
        <time>1970-01-01T03:04:53Z</time>
      </trkpt>
      <trkpt lat="41.607157" lon="1.982798">
        <ele>538.80</ele>
        <time>1970-01-01T03:04:54Z</time>
      </trkpt>
      <trkpt lat="41.607281" lon="1.982702">
        <ele>538.80</ele>
        <time>1970-01-01T03:04:56Z</time>
      </trkpt>
      <trkpt lat="41.607346" lon="1.982665">
        <ele>538.60</ele>
        <time>1970-01-01T03:04:57Z</time>
      </trkpt>
      <trkpt lat="41.607411" lon="1.982635">
        <ele>538.40</ele>
        <time>1970-01-01T03:04:58Z</time>
      </trkpt>
      <trkpt lat="41.607476" lon="1.982607">
        <ele>537.80</ele>
        <time>1970-01-01T03:04:59Z</time>
      </trkpt>
      <trkpt lat="41.607539" lon="1.982579">
        <ele>537.00</ele>
        <time>1970-01-01T03:05:00Z</time>
      </trkpt>
      <trkpt lat="41.607601" lon="1.982542">
        <ele>536.20</ele>
        <time>1970-01-01T03:05:01Z</time>
      </trkpt>
      <trkpt lat="41.607664" lon="1.982483">
        <ele>535.20</ele>
        <time>1970-01-01T03:05:02Z</time>
      </trkpt>
      <trkpt lat="41.607770" lon="1.982276">
        <ele>533.80</ele>
        <time>1970-01-01T03:05:04Z</time>
      </trkpt>
      <trkpt lat="41.607826" lon="1.982155">
        <ele>532.20</ele>
        <time>1970-01-01T03:05:05Z</time>
      </trkpt>
      <trkpt lat="41.607885" lon="1.982034">
        <ele>530.40</ele>
        <time>1970-01-01T03:05:06Z</time>
      </trkpt>
      <trkpt lat="41.607941" lon="1.981916">
        <ele>528.40</ele>
        <time>1970-01-01T03:05:07Z</time>
      </trkpt>
      <trkpt lat="41.607986" lon="1.981800">
        <ele>526.60</ele>
        <time>1970-01-01T03:05:08Z</time>
      </trkpt>
      <trkpt lat="41.608019" lon="1.981686">
        <ele>524.60</ele>
        <time>1970-01-01T03:05:09Z</time>
      </trkpt>
      <trkpt lat="41.608036" lon="1.981569">
        <ele>522.80</ele>
        <time>1970-01-01T03:05:10Z</time>
      </trkpt>
      <trkpt lat="41.608043" lon="1.981438">
        <ele>521.00</ele>
        <time>1970-01-01T03:05:11Z</time>
      </trkpt>
      <trkpt lat="41.608048" lon="1.981302">
        <ele>519.20</ele>
        <time>1970-01-01T03:05:12Z</time>
      </trkpt>
      <trkpt lat="41.608048" lon="1.981161">
        <ele>517.40</ele>
        <time>1970-01-01T03:05:13Z</time>
      </trkpt>
      <trkpt lat="41.608046" lon="1.981015">
        <ele>516.00</ele>
        <time>1970-01-01T03:05:14Z</time>
      </trkpt>
      <trkpt lat="41.608044" lon="1.980872">
        <ele>515.00</ele>
        <time>1970-01-01T03:05:15Z</time>
      </trkpt>
      <trkpt lat="41.608045" lon="1.980747">
        <ele>514.00</ele>
        <time>1970-01-01T03:05:16Z</time>
      </trkpt>
      <trkpt lat="41.608055" lon="1.980643">
        <ele>513.00</ele>
        <time>1970-01-01T03:05:17Z</time>
      </trkpt>
      <trkpt lat="41.608082" lon="1.980550">
        <ele>512.20</ele>
        <time>1970-01-01T03:05:18Z</time>
      </trkpt>
      <trkpt lat="41.608129" lon="1.980458">
        <ele>511.20</ele>
        <time>1970-01-01T03:05:19Z</time>
      </trkpt>
      <trkpt lat="41.608185" lon="1.980360">
        <ele>510.20</ele>
        <time>1970-01-01T03:05:20Z</time>
      </trkpt>
      <trkpt lat="41.608237" lon="1.980252">
        <ele>509.20</ele>
        <time>1970-01-01T03:05:21Z</time>
      </trkpt>
      <trkpt lat="41.608284" lon="1.980139">
        <ele>508.20</ele>
        <time>1970-01-01T03:05:22Z</time>
      </trkpt>
      <trkpt lat="41.608327" lon="1.980030">
        <ele>507.00</ele>
        <time>1970-01-01T03:05:23Z</time>
      </trkpt>
      <trkpt lat="41.608370" lon="1.979927">
        <ele>507.00</ele>
        <time>1970-01-01T03:05:24Z</time>
      </trkpt>
      <trkpt lat="41.608409" lon="1.979837">
        <ele>505.40</ele>
        <time>1970-01-01T03:05:25Z</time>
      </trkpt>
      <trkpt lat="41.608443" lon="1.979769">
        <ele>503.80</ele>
        <time>1970-01-01T03:05:26Z</time>
      </trkpt>
      <trkpt lat="41.608477" lon="1.979723">
        <ele>502.60</ele>
        <time>1970-01-01T03:05:27Z</time>
      </trkpt>
      <trkpt lat="41.608515" lon="1.979694">
        <ele>501.40</ele>
        <time>1970-01-01T03:05:28Z</time>
      </trkpt>
      <trkpt lat="41.608556" lon="1.979689">
        <ele>500.20</ele>
        <time>1970-01-01T03:05:29Z</time>
      </trkpt>
      <trkpt lat="41.608599" lon="1.979718">
        <ele>499.00</ele>
        <time>1970-01-01T03:05:30Z</time>
      </trkpt>
      <trkpt lat="41.608635" lon="1.979760">
        <ele>497.60</ele>
        <time>1970-01-01T03:05:31Z</time>
      </trkpt>
      <trkpt lat="41.608666" lon="1.979812">
        <ele>496.20</ele>
        <time>1970-01-01T03:05:32Z</time>
      </trkpt>
      <trkpt lat="41.608693" lon="1.979868">
        <ele>494.60</ele>
        <time>1970-01-01T03:05:33Z</time>
      </trkpt>
      <trkpt lat="41.608717" lon="1.979926">
        <ele>493.00</ele>
        <time>1970-01-01T03:05:34Z</time>
      </trkpt>
      <trkpt lat="41.608737" lon="1.979980">
        <ele>491.40</ele>
        <time>1970-01-01T03:05:35Z</time>
      </trkpt>
      <trkpt lat="41.608751" lon="1.980033">
        <ele>490.00</ele>
        <time>1970-01-01T03:05:36Z</time>
      </trkpt>
      <trkpt lat="41.608763" lon="1.980086">
        <ele>489.00</ele>
        <time>1970-01-01T03:05:37Z</time>
      </trkpt>
      <trkpt lat="41.608770" lon="1.980139">
        <ele>488.40</ele>
        <time>1970-01-01T03:05:38Z</time>
      </trkpt>
      <trkpt lat="41.608778" lon="1.980194">
        <ele>487.80</ele>
        <time>1970-01-01T03:05:39Z</time>
      </trkpt>
      <trkpt lat="41.608780" lon="1.980248">
        <ele>487.40</ele>
        <time>1970-01-01T03:05:40Z</time>
      </trkpt>
      <trkpt lat="41.608790" lon="1.980364">
        <ele>487.20</ele>
        <time>1970-01-01T03:05:42Z</time>
      </trkpt>
      <trkpt lat="41.608802" lon="1.980474">
        <ele>487.00</ele>
        <time>1970-01-01T03:05:44Z</time>
      </trkpt>
      <trkpt lat="41.608807" lon="1.980572">
        <ele>487.00</ele>
        <time>1970-01-01T03:05:46Z</time>
      </trkpt>
      <trkpt lat="41.608801" lon="1.980652">
        <ele>487.00</ele>
        <time>1970-01-01T03:05:48Z</time>
      </trkpt>
      <trkpt lat="41.608801" lon="1.980688">
        <ele>487.00</ele>
        <time>1970-01-01T03:05:49Z</time>
      </trkpt>
      <trkpt lat="41.608797" lon="1.980720">
        <ele>487.00</ele>
        <time>1970-01-01T03:05:50Z</time>
      </trkpt>
      <trkpt lat="41.608782" lon="1.980789">
        <ele>487.00</ele>
        <time>1970-01-01T03:05:52Z</time>
      </trkpt>
      <trkpt lat="41.608749" lon="1.980864">
        <ele>487.40</ele>
        <time>1970-01-01T03:05:54Z</time>
      </trkpt>
      <trkpt lat="41.608728" lon="1.980909">
        <ele>487.60</ele>
        <time>1970-01-01T03:05:55Z</time>
      </trkpt>
      <trkpt lat="41.608712" lon="1.980960">
        <ele>487.80</ele>
        <time>1970-01-01T03:05:56Z</time>
      </trkpt>
      <trkpt lat="41.608687" lon="1.981062">
        <ele>488.20</ele>
        <time>1970-01-01T03:05:58Z</time>
      </trkpt>
      <trkpt lat="41.608656" lon="1.981171">
        <ele>488.40</ele>
        <time>1970-01-01T03:06:00Z</time>
      </trkpt>
      <trkpt lat="41.608621" lon="1.981283">
        <ele>488.40</ele>
        <time>1970-01-01T03:06:02Z</time>
      </trkpt>
      <trkpt lat="41.608569" lon="1.981383">
        <ele>488.60</ele>
        <time>1970-01-01T03:06:04Z</time>
      </trkpt>
      <trkpt lat="41.608517" lon="1.981490">
        <ele>488.80</ele>
        <time>1970-01-01T03:06:06Z</time>
      </trkpt>
      <trkpt lat="41.608474" lon="1.981604">
        <ele>489.00</ele>
        <time>1970-01-01T03:06:08Z</time>
      </trkpt>
      <trkpt lat="41.608432" lon="1.981718">
        <ele>489.20</ele>
        <time>1970-01-01T03:06:10Z</time>
      </trkpt>
      <trkpt lat="41.608389" lon="1.981834">
        <ele>489.40</ele>
        <time>1970-01-01T03:06:12Z</time>
      </trkpt>
      <trkpt lat="41.608347" lon="1.981951">
        <ele>489.40</ele>
        <time>1970-01-01T03:06:14Z</time>
      </trkpt>
      <trkpt lat="41.608300" lon="1.982063">
        <ele>489.40</ele>
        <time>1970-01-01T03:06:16Z</time>
      </trkpt>
      <trkpt lat="41.608274" lon="1.982108">
        <ele>489.60</ele>
        <time>1970-01-01T03:06:17Z</time>
      </trkpt>
      <trkpt lat="41.608245" lon="1.982151">
        <ele>489.60</ele>
        <time>1970-01-01T03:06:18Z</time>
      </trkpt>
      <trkpt lat="41.608214" lon="1.982191">
        <ele>489.60</ele>
        <time>1970-01-01T03:06:19Z</time>
      </trkpt>
      <trkpt lat="41.608180" lon="1.982231">
        <ele>489.60</ele>
        <time>1970-01-01T03:06:20Z</time>
      </trkpt>
      <trkpt lat="41.608121" lon="1.982314">
        <ele>489.60</ele>
        <time>1970-01-01T03:06:22Z</time>
      </trkpt>
      <trkpt lat="41.608075" lon="1.982404">
        <ele>489.60</ele>
        <time>1970-01-01T03:06:24Z</time>
      </trkpt>
      <trkpt lat="41.608061" lon="1.982454">
        <ele>489.80</ele>
        <time>1970-01-01T03:06:25Z</time>
      </trkpt>
      <trkpt lat="41.608048" lon="1.982505">
        <ele>489.80</ele>
        <time>1970-01-01T03:06:26Z</time>
      </trkpt>
      <trkpt lat="41.608033" lon="1.982614">
        <ele>489.80</ele>
        <time>1970-01-01T03:06:28Z</time>
      </trkpt>
      <trkpt lat="41.608026" lon="1.982723">
        <ele>489.80</ele>
        <time>1970-01-01T03:06:30Z</time>
      </trkpt>
      <trkpt lat="41.608028" lon="1.982785">
        <ele>489.80</ele>
        <time>1970-01-01T03:06:31Z</time>
      </trkpt>
      <trkpt lat="41.608029" lon="1.982845">
        <ele>489.80</ele>
        <time>1970-01-01T03:06:32Z</time>
      </trkpt>
      <trkpt lat="41.608023" lon="1.982906">
        <ele>489.80</ele>
        <time>1970-01-01T03:06:33Z</time>
      </trkpt>
      <trkpt lat="41.608012" lon="1.982969">
        <ele>489.80</ele>
        <time>1970-01-01T03:06:34Z</time>
      </trkpt>
      <trkpt lat="41.607982" lon="1.983091">
        <ele>489.80</ele>
        <time>1970-01-01T03:06:36Z</time>
      </trkpt>
      <trkpt lat="41.607973" lon="1.983152">
        <ele>489.80</ele>
        <time>1970-01-01T03:06:37Z</time>
      </trkpt>
      <trkpt lat="41.607973" lon="1.983209">
        <ele>489.80</ele>
        <time>1970-01-01T03:06:38Z</time>
      </trkpt>
      <trkpt lat="41.607989" lon="1.983318">
        <ele>489.80</ele>
        <time>1970-01-01T03:06:40Z</time>
      </trkpt>
      <trkpt lat="41.608045" lon="1.983409">
        <ele>489.60</ele>
        <time>1970-01-01T03:06:42Z</time>
      </trkpt>
      <trkpt lat="41.608092" lon="1.983422">
        <ele>489.60</ele>
        <time>1970-01-01T03:06:43Z</time>
      </trkpt>
      <trkpt lat="41.608142" lon="1.983419">
        <ele>489.60</ele>
        <time>1970-01-01T03:06:44Z</time>
      </trkpt>
      <trkpt lat="41.608221" lon="1.983418">
        <ele>489.20</ele>
        <time>1970-01-01T03:06:46Z</time>
      </trkpt>
      <trkpt lat="41.608251" lon="1.983429">
        <ele>489.00</ele>
        <time>1970-01-01T03:06:47Z</time>
      </trkpt>
      <trkpt lat="41.608279" lon="1.983435">
        <ele>488.80</ele>
        <time>1970-01-01T03:06:48Z</time>
      </trkpt>
      <trkpt lat="41.608305" lon="1.983439">
        <ele>488.80</ele>
        <time>1970-01-01T03:06:49Z</time>
      </trkpt>
      <trkpt lat="41.608330" lon="1.983441">
        <ele>488.80</ele>
        <time>1970-01-01T03:06:50Z</time>
      </trkpt>
      <trkpt lat="41.608383" lon="1.983435">
        <ele>488.60</ele>
        <time>1970-01-01T03:06:52Z</time>
      </trkpt>
      <trkpt lat="41.608411" lon="1.983427">
        <ele>488.60</ele>
        <time>1970-01-01T03:06:53Z</time>
      </trkpt>
      <trkpt lat="41.608440" lon="1.983411">
        <ele>488.60</ele>
        <time>1970-01-01T03:06:54Z</time>
      </trkpt>
      <trkpt lat="41.608490" lon="1.983350">
        <ele>488.40</ele>
        <time>1970-01-01T03:06:56Z</time>
      </trkpt>
      <trkpt lat="41.608514" lon="1.983319">
        <ele>488.20</ele>
        <time>1970-01-01T03:06:57Z</time>
      </trkpt>
      <trkpt lat="41.608542" lon="1.983293">
        <ele>488.20</ele>
        <time>1970-01-01T03:06:58Z</time>
      </trkpt>
      <trkpt lat="41.608605" lon="1.983262">
        <ele>488.00</ele>
        <time>1970-01-01T03:07:00Z</time>
      </trkpt>
      <trkpt lat="41.608672" lon="1.983235">
        <ele>488.00</ele>
        <time>1970-01-01T03:07:02Z</time>
      </trkpt>
      <trkpt lat="41.608737" lon="1.983211">
        <ele>488.00</ele>
        <time>1970-01-01T03:07:04Z</time>
      </trkpt>
      <trkpt lat="41.608805" lon="1.983194">
        <ele>487.80</ele>
        <time>1970-01-01T03:07:06Z</time>
      </trkpt>
      <trkpt lat="41.608882" lon="1.983195">
        <ele>487.60</ele>
        <time>1970-01-01T03:07:08Z</time>
      </trkpt>
      <trkpt lat="41.608919" lon="1.983197">
        <ele>487.40</ele>
        <time>1970-01-01T03:07:09Z</time>
      </trkpt>
      <trkpt lat="41.608953" lon="1.983192">
        <ele>487.20</ele>
        <time>1970-01-01T03:07:10Z</time>
      </trkpt>
      <trkpt lat="41.609016" lon="1.983172">
        <ele>487.00</ele>
        <time>1970-01-01T03:07:12Z</time>
      </trkpt>
      <trkpt lat="41.609048" lon="1.983160">
        <ele>487.00</ele>
        <time>1970-01-01T03:07:13Z</time>
      </trkpt>
      <trkpt lat="41.609077" lon="1.983143">
        <ele>487.00</ele>
        <time>1970-01-01T03:07:14Z</time>
      </trkpt>
      <trkpt lat="41.609141" lon="1.983120">
        <ele>487.00</ele>
        <time>1970-01-01T03:07:16Z</time>
      </trkpt>
      <trkpt lat="41.609207" lon="1.983097">
        <ele>487.00</ele>
        <time>1970-01-01T03:07:18Z</time>
      </trkpt>
      <trkpt lat="41.609243" lon="1.983088">
        <ele>487.00</ele>
        <time>1970-01-01T03:07:19Z</time>
      </trkpt>
      <trkpt lat="41.609282" lon="1.983077">
        <ele>487.00</ele>
        <time>1970-01-01T03:07:20Z</time>
      </trkpt>
      <trkpt lat="41.609362" lon="1.983057">
        <ele>487.00</ele>
        <time>1970-01-01T03:07:22Z</time>
      </trkpt>
      <trkpt lat="41.609434" lon="1.983029">
        <ele>487.00</ele>
        <time>1970-01-01T03:07:24Z</time>
      </trkpt>
      <trkpt lat="41.609507" lon="1.983010">
        <ele>487.00</ele>
        <time>1970-01-01T03:07:26Z</time>
      </trkpt>
      <trkpt lat="41.609583" lon="1.983027">
        <ele>487.00</ele>
        <time>1970-01-01T03:07:28Z</time>
      </trkpt>
      <trkpt lat="41.609659" lon="1.983073">
        <ele>487.20</ele>
        <time>1970-01-01T03:07:30Z</time>
      </trkpt>
      <trkpt lat="41.609730" lon="1.983136">
        <ele>487.40</ele>
        <time>1970-01-01T03:07:32Z</time>
      </trkpt>
      <trkpt lat="41.609793" lon="1.983219">
        <ele>487.80</ele>
        <time>1970-01-01T03:07:34Z</time>
      </trkpt>
      <trkpt lat="41.609817" lon="1.983260">
        <ele>488.00</ele>
        <time>1970-01-01T03:07:35Z</time>
      </trkpt>
      <trkpt lat="41.609837" lon="1.983308">
        <ele>488.20</ele>
        <time>1970-01-01T03:07:36Z</time>
      </trkpt>
      <trkpt lat="41.609868" lon="1.983407">
        <ele>488.20</ele>
        <time>1970-01-01T03:07:38Z</time>
      </trkpt>
      <trkpt lat="41.609868" lon="1.983517">
        <ele>488.60</ele>
        <time>1970-01-01T03:07:40Z</time>
      </trkpt>
      <trkpt lat="41.609844" lon="1.983629">
        <ele>488.80</ele>
        <time>1970-01-01T03:07:42Z</time>
      </trkpt>
      <trkpt lat="41.609827" lon="1.983683">
        <ele>489.00</ele>
        <time>1970-01-01T03:07:43Z</time>
      </trkpt>
      <trkpt lat="41.609808" lon="1.983736">
        <ele>489.00</ele>
        <time>1970-01-01T03:07:44Z</time>
      </trkpt>
      <trkpt lat="41.609787" lon="1.983789">
        <ele>489.00</ele>
        <time>1970-01-01T03:07:45Z</time>
      </trkpt>
      <trkpt lat="41.609768" lon="1.983838">
        <ele>489.20</ele>
        <time>1970-01-01T03:07:46Z</time>
      </trkpt>
      <trkpt lat="41.609728" lon="1.983934">
        <ele>489.40</ele>
        <time>1970-01-01T03:07:48Z</time>
      </trkpt>
      <trkpt lat="41.609722" lon="1.983989">
        <ele>489.60</ele>
        <time>1970-01-01T03:07:49Z</time>
      </trkpt>
      <trkpt lat="41.609727" lon="1.984046">
        <ele>489.80</ele>
        <time>1970-01-01T03:07:50Z</time>
      </trkpt>
      <trkpt lat="41.609768" lon="1.984128">
        <ele>490.40</ele>
        <time>1970-01-01T03:07:52Z</time>
      </trkpt>
      <trkpt lat="41.609802" lon="1.984151">
        <ele>490.60</ele>
        <time>1970-01-01T03:07:53Z</time>
      </trkpt>
      <trkpt lat="41.609843" lon="1.984166">
        <ele>490.80</ele>
        <time>1970-01-01T03:07:54Z</time>
      </trkpt>
      <trkpt lat="41.609886" lon="1.984183">
        <ele>490.80</ele>
        <time>1970-01-01T03:07:55Z</time>
      </trkpt>
      <trkpt lat="41.609924" lon="1.984203">
        <ele>491.00</ele>
        <time>1970-01-01T03:07:56Z</time>
      </trkpt>
      <trkpt lat="41.609961" lon="1.984227">
        <ele>491.40</ele>
        <time>1970-01-01T03:07:57Z</time>
      </trkpt>
      <trkpt lat="41.609996" lon="1.984259">
        <ele>491.40</ele>
        <time>1970-01-01T03:07:58Z</time>
      </trkpt>
      <trkpt lat="41.610032" lon="1.984295">
        <ele>491.80</ele>
        <time>1970-01-01T03:07:59Z</time>
      </trkpt>
      <trkpt lat="41.610066" lon="1.984339">
        <ele>492.00</ele>
        <time>1970-01-01T03:08:00Z</time>
      </trkpt>
      <trkpt lat="41.610126" lon="1.984433">
        <ele>492.40</ele>
        <time>1970-01-01T03:08:02Z</time>
      </trkpt>
      <trkpt lat="41.610155" lon="1.984478">
        <ele>492.60</ele>
        <time>1970-01-01T03:08:03Z</time>
      </trkpt>
      <trkpt lat="41.610182" lon="1.984521">
        <ele>492.80</ele>
        <time>1970-01-01T03:08:04Z</time>
      </trkpt>
      <trkpt lat="41.610213" lon="1.984623">
        <ele>493.00</ele>
        <time>1970-01-01T03:08:06Z</time>
      </trkpt>
      <trkpt lat="41.610217" lon="1.984674">
        <ele>493.20</ele>
        <time>1970-01-01T03:08:07Z</time>
      </trkpt>
      <trkpt lat="41.610217" lon="1.984725">
        <ele>493.40</ele>
        <time>1970-01-01T03:08:08Z</time>
      </trkpt>
      <trkpt lat="41.610216" lon="1.984775">
        <ele>493.40</ele>
        <time>1970-01-01T03:08:09Z</time>
      </trkpt>
      <trkpt lat="41.610217" lon="1.984825">
        <ele>493.60</ele>
        <time>1970-01-01T03:08:10Z</time>
      </trkpt>
      <trkpt lat="41.610219" lon="1.984869">
        <ele>493.80</ele>
        <time>1970-01-01T03:08:11Z</time>
      </trkpt>
      <trkpt lat="41.610220" lon="1.984908">
        <ele>494.20</ele>
        <time>1970-01-01T03:08:12Z</time>
      </trkpt>
      <trkpt lat="41.610222" lon="1.984941">
        <ele>494.40</ele>
        <time>1970-01-01T03:08:13Z</time>
      </trkpt>
      <trkpt lat="41.610226" lon="1.984973">
        <ele>494.80</ele>
        <time>1970-01-01T03:08:14Z</time>
      </trkpt>
      <trkpt lat="41.610232" lon="1.985005">
        <ele>495.00</ele>
        <time>1970-01-01T03:08:15Z</time>
      </trkpt>
      <trkpt lat="41.610251" lon="1.985034">
        <ele>495.20</ele>
        <time>1970-01-01T03:08:16Z</time>
      </trkpt>
      <trkpt lat="41.610281" lon="1.985057">
        <ele>495.60</ele>
        <time>1970-01-01T03:08:17Z</time>
      </trkpt>
      <trkpt lat="41.610310" lon="1.985072">
        <ele>495.80</ele>
        <time>1970-01-01T03:08:18Z</time>
      </trkpt>
      <trkpt lat="41.610340" lon="1.985078">
        <ele>496.00</ele>
        <time>1970-01-01T03:08:19Z</time>
      </trkpt>
      <trkpt lat="41.610373" lon="1.985084">
        <ele>496.40</ele>
        <time>1970-01-01T03:08:20Z</time>
      </trkpt>
      <trkpt lat="41.610404" lon="1.985084">
        <ele>496.80</ele>
        <time>1970-01-01T03:08:21Z</time>
      </trkpt>
      <trkpt lat="41.610429" lon="1.985086">
        <ele>497.20</ele>
        <time>1970-01-01T03:08:22Z</time>
      </trkpt>
      <trkpt lat="41.610485" lon="1.985093">
        <ele>498.00</ele>
        <time>1970-01-01T03:08:24Z</time>
      </trkpt>
      <trkpt lat="41.610540" lon="1.985099">
        <ele>498.40</ele>
        <time>1970-01-01T03:08:26Z</time>
      </trkpt>
      <trkpt lat="41.610598" lon="1.985108">
        <ele>499.20</ele>
        <time>1970-01-01T03:08:28Z</time>
      </trkpt>
      <trkpt lat="41.610627" lon="1.985113">
        <ele>499.40</ele>
        <time>1970-01-01T03:08:29Z</time>
      </trkpt>
      <trkpt lat="41.610657" lon="1.985120">
        <ele>499.60</ele>
        <time>1970-01-01T03:08:30Z</time>
      </trkpt>
      <trkpt lat="41.610715" lon="1.985142">
        <ele>500.40</ele>
        <time>1970-01-01T03:08:32Z</time>
      </trkpt>
      <trkpt lat="41.610741" lon="1.985156">
        <ele>500.60</ele>
        <time>1970-01-01T03:08:33Z</time>
      </trkpt>
      <trkpt lat="41.610765" lon="1.985173">
        <ele>500.80</ele>
        <time>1970-01-01T03:08:34Z</time>
      </trkpt>
      <trkpt lat="41.610789" lon="1.985189">
        <ele>501.00</ele>
        <time>1970-01-01T03:08:35Z</time>
      </trkpt>
      <trkpt lat="41.610808" lon="1.985206">
        <ele>501.40</ele>
        <time>1970-01-01T03:08:36Z</time>
      </trkpt>
      <trkpt lat="41.610850" lon="1.985242">
        <ele>501.80</ele>
        <time>1970-01-01T03:08:38Z</time>
      </trkpt>
      <trkpt lat="41.610906" lon="1.985257">
        <ele>502.40</ele>
        <time>1970-01-01T03:08:40Z</time>
      </trkpt>
      <trkpt lat="41.610964" lon="1.985235">
        <ele>502.80</ele>
        <time>1970-01-01T03:08:42Z</time>
      </trkpt>
      <trkpt lat="41.611011" lon="1.985200">
        <ele>503.40</ele>
        <time>1970-01-01T03:08:44Z</time>
      </trkpt>
      <trkpt lat="41.611034" lon="1.985180">
        <ele>503.60</ele>
        <time>1970-01-01T03:08:45Z</time>
      </trkpt>
      <trkpt lat="41.611060" lon="1.985162">
        <ele>503.80</ele>
        <time>1970-01-01T03:08:46Z</time>
      </trkpt>
      <trkpt lat="41.611087" lon="1.985144">
        <ele>503.80</ele>
        <time>1970-01-01T03:08:47Z</time>
      </trkpt>
      <trkpt lat="41.611119" lon="1.985127">
        <ele>504.00</ele>
        <time>1970-01-01T03:08:48Z</time>
      </trkpt>
      <trkpt lat="41.611199" lon="1.985089">
        <ele>504.20</ele>
        <time>1970-01-01T03:08:50Z</time>
      </trkpt>
      <trkpt lat="41.611258" lon="1.985009">
        <ele>504.00</ele>
        <time>1970-01-01T03:08:52Z</time>
      </trkpt>
      <trkpt lat="41.611268" lon="1.984961">
        <ele>504.20</ele>
        <time>1970-01-01T03:08:53Z</time>
      </trkpt>
      <trkpt lat="41.611275" lon="1.984912">
        <ele>504.20</ele>
        <time>1970-01-01T03:08:54Z</time>
      </trkpt>
      <trkpt lat="41.611288" lon="1.984819">
        <ele>504.40</ele>
        <time>1970-01-01T03:08:56Z</time>
      </trkpt>
      <trkpt lat="41.611304" lon="1.984734">
        <ele>504.60</ele>
        <time>1970-01-01T03:08:58Z</time>
      </trkpt>
      <trkpt lat="41.611330" lon="1.984655">
        <ele>504.80</ele>
        <time>1970-01-01T03:09:00Z</time>
      </trkpt>
      <trkpt lat="41.611359" lon="1.984588">
        <ele>504.80</ele>
        <time>1970-01-01T03:09:02Z</time>
      </trkpt>
      <trkpt lat="41.611376" lon="1.984525">
        <ele>505.00</ele>
        <time>1970-01-01T03:09:04Z</time>
      </trkpt>
      <trkpt lat="41.611371" lon="1.984461">
        <ele>505.00</ele>
        <time>1970-01-01T03:09:06Z</time>
      </trkpt>
      <trkpt lat="41.611369" lon="1.984399">
        <ele>505.40</ele>
        <time>1970-01-01T03:09:08Z</time>
      </trkpt>
      <trkpt lat="41.611368" lon="1.984369">
        <ele>505.80</ele>
        <time>1970-01-01T03:09:09Z</time>
      </trkpt>
      <trkpt lat="41.611367" lon="1.984340">
        <ele>506.00</ele>
        <time>1970-01-01T03:09:10Z</time>
      </trkpt>
      <trkpt lat="41.611370" lon="1.984288">
        <ele>506.40</ele>
        <time>1970-01-01T03:09:12Z</time>
      </trkpt>
      <trkpt lat="41.611371" lon="1.984264">
        <ele>506.80</ele>
        <time>1970-01-01T03:09:13Z</time>
      </trkpt>
      <trkpt lat="41.611369" lon="1.984243">
        <ele>507.00</ele>
        <time>1970-01-01T03:09:14Z</time>
      </trkpt>
      <trkpt lat="41.611365" lon="1.984204">
        <ele>507.20</ele>
        <time>1970-01-01T03:09:16Z</time>
      </trkpt>
      <trkpt lat="41.611368" lon="1.984167">
        <ele>507.40</ele>
        <time>1970-01-01T03:09:18Z</time>
      </trkpt>
      <trkpt lat="41.611369" lon="1.984133">
        <ele>507.60</ele>
        <time>1970-01-01T03:09:20Z</time>
      </trkpt>
      <trkpt lat="41.611379" lon="1.984093">
        <ele>507.60</ele>
        <time>1970-01-01T03:09:22Z</time>
      </trkpt>
      <trkpt lat="41.611388" lon="1.984059">
        <ele>507.60</ele>
        <time>1970-01-01T03:09:24Z</time>
      </trkpt>
      <trkpt lat="41.611396" lon="1.984034">
        <ele>507.60</ele>
        <time>1970-01-01T03:09:26Z</time>
      </trkpt>
      <trkpt lat="41.611402" lon="1.984018">
        <ele>507.40</ele>
        <time>1970-01-01T03:09:28Z</time>
      </trkpt>
      <trkpt lat="41.611412" lon="1.984002">
        <ele>507.20</ele>
        <time>1970-01-01T03:09:30Z</time>
      </trkpt>
      <trkpt lat="41.611415" lon="1.983996">
        <ele>506.80</ele>
        <time>1970-01-01T03:09:32Z</time>
      </trkpt>
      <trkpt lat="41.611415" lon="1.983998">
        <ele>506.60</ele>
        <time>1970-01-01T03:09:34Z</time>
      </trkpt>
      <trkpt lat="41.611415" lon="1.983998">
        <ele>506.60</ele>
        <time>1970-01-01T03:09:36Z</time>
      </trkpt>
      <trkpt lat="41.611415" lon="1.984000">
        <ele>506.40</ele>
        <time>1970-01-01T03:09:38Z</time>
      </trkpt>
      <trkpt lat="41.611414" lon="1.984000">
        <ele>506.20</ele>
        <time>1970-01-01T03:09:40Z</time>
      </trkpt>
      <trkpt lat="41.611414" lon="1.984000">
        <ele>506.20</ele>
        <time>1970-01-01T03:09:42Z</time>
      </trkpt>
      <trkpt lat="41.611414" lon="1.983999">
        <ele>506.20</ele>
        <time>1970-01-01T03:09:44Z</time>
      </trkpt>
      <trkpt lat="41.611414" lon="1.983999">
        <ele>506.20</ele>
        <time>1970-01-01T03:09:46Z</time>
      </trkpt>
      <trkpt lat="41.611414" lon="1.983999">
        <ele>506.00</ele>
        <time>1970-01-01T03:09:48Z</time>
      </trkpt>
      <trkpt lat="41.611414" lon="1.983999">
        <ele>506.00</ele>
        <time>1970-01-01T03:09:50Z</time>
      </trkpt>
      <trkpt lat="41.611414" lon="1.983999">
        <ele>506.00</ele>
        <time>1970-01-01T03:09:52Z</time>
      </trkpt>
      <trkpt lat="41.611414" lon="1.983999">
        <ele>506.20</ele>
        <time>1970-01-01T03:09:54Z</time>
      </trkpt>
      <trkpt lat="41.611414" lon="1.983999">
        <ele>506.20</ele>
        <time>1970-01-01T03:09:56Z</time>
      </trkpt>
      <trkpt lat="41.611414" lon="1.983999">
        <ele>506.20</ele>
        <time>1970-01-01T03:09:58Z</time>
      </trkpt>
      <trkpt lat="41.611413" lon="1.983998">
        <ele>506.20</ele>
        <time>1970-01-01T03:10:00Z</time>
      </trkpt>
      <trkpt lat="41.611413" lon="1.983996">
        <ele>506.20</ele>
        <time>1970-01-01T03:10:02Z</time>
      </trkpt>
      <trkpt lat="41.611414" lon="1.983996">
        <ele>506.20</ele>
        <time>1970-01-01T03:10:04Z</time>
      </trkpt>
      <trkpt lat="41.611414" lon="1.983996">
        <ele>506.20</ele>
        <time>1970-01-01T03:10:05Z</time>
      </trkpt>
      <trkpt lat="41.611414" lon="1.983996">
        <ele>506.20</ele>
        <time>1970-01-01T03:10:06Z</time>
      </trkpt>
      <trkpt lat="41.611414" lon="1.983996">
        <ele>506.20</ele>
        <time>1970-01-01T03:10:08Z</time>
      </trkpt>
      <trkpt lat="41.611426" lon="1.983991">
        <ele>506.20</ele>
        <time>1970-01-01T03:10:09Z</time>
      </trkpt>
      <trkpt lat="41.611441" lon="1.983978">
        <ele>506.20</ele>
        <time>1970-01-01T03:10:10Z</time>
      </trkpt>
      <trkpt lat="41.611467" lon="1.983955">
        <ele>506.20</ele>
        <time>1970-01-01T03:10:11Z</time>
      </trkpt>
      <trkpt lat="41.611497" lon="1.983920">
        <ele>506.20</ele>
        <time>1970-01-01T03:10:12Z</time>
      </trkpt>
      <trkpt lat="41.611567" lon="1.983827">
        <ele>506.20</ele>
        <time>1970-01-01T03:10:14Z</time>
      </trkpt>
      <trkpt lat="41.611608" lon="1.983775">
        <ele>506.20</ele>
        <time>1970-01-01T03:10:15Z</time>
      </trkpt>
      <trkpt lat="41.611653" lon="1.983723">
        <ele>506.20</ele>
        <time>1970-01-01T03:10:16Z</time>
      </trkpt>
      <trkpt lat="41.611745" lon="1.983604">
        <ele>506.20</ele>
        <time>1970-01-01T03:10:18Z</time>
      </trkpt>
      <trkpt lat="41.611804" lon="1.983437">
        <ele>506.00</ele>
        <time>1970-01-01T03:10:20Z</time>
      </trkpt>
      <trkpt lat="41.611830" lon="1.983358">
        <ele>505.80</ele>
        <time>1970-01-01T03:10:21Z</time>
      </trkpt>
      <trkpt lat="41.611867" lon="1.983285">
        <ele>505.60</ele>
        <time>1970-01-01T03:10:22Z</time>
      </trkpt>
      <trkpt lat="41.611913" lon="1.983221">
        <ele>505.20</ele>
        <time>1970-01-01T03:10:23Z</time>
      </trkpt>
      <trkpt lat="41.611967" lon="1.983164">
        <ele>504.60</ele>
        <time>1970-01-01T03:10:24Z</time>
      </trkpt>
      <trkpt lat="41.612085" lon="1.983055">
        <ele>503.80</ele>
        <time>1970-01-01T03:10:26Z</time>
      </trkpt>
      <trkpt lat="41.612125" lon="1.982981">
        <ele>503.60</ele>
        <time>1970-01-01T03:10:27Z</time>
      </trkpt>
      <trkpt lat="41.612148" lon="1.982893">
        <ele>503.20</ele>
        <time>1970-01-01T03:10:28Z</time>
      </trkpt>
      <trkpt lat="41.612158" lon="1.982686">
        <ele>502.00</ele>
        <time>1970-01-01T03:10:30Z</time>
      </trkpt>
      <trkpt lat="41.612146" lon="1.982470">
        <ele>500.40</ele>
        <time>1970-01-01T03:10:32Z</time>
      </trkpt>
      <trkpt lat="41.612131" lon="1.982287">
        <ele>499.00</ele>
        <time>1970-01-01T03:10:34Z</time>
      </trkpt>
      <trkpt lat="41.612055" lon="1.982139">
        <ele>497.80</ele>
        <time>1970-01-01T03:10:36Z</time>
      </trkpt>
      <trkpt lat="41.611994" lon="1.982067">
        <ele>497.20</ele>
        <time>1970-01-01T03:10:37Z</time>
      </trkpt>
      <trkpt lat="41.611932" lon="1.981994">
        <ele>496.40</ele>
        <time>1970-01-01T03:10:38Z</time>
      </trkpt>
      <trkpt lat="41.611870" lon="1.981930">
        <ele>495.60</ele>
        <time>1970-01-01T03:10:39Z</time>
      </trkpt>
      <trkpt lat="41.611805" lon="1.981883">
        <ele>494.20</ele>
        <time>1970-01-01T03:10:40Z</time>
      </trkpt>
      <trkpt lat="41.611744" lon="1.981839">
        <ele>492.60</ele>
        <time>1970-01-01T03:10:41Z</time>
      </trkpt>
      <trkpt lat="41.611693" lon="1.981789">
        <ele>491.00</ele>
        <time>1970-01-01T03:10:42Z</time>
      </trkpt>
      <trkpt lat="41.611661" lon="1.981734">
        <ele>489.60</ele>
        <time>1970-01-01T03:10:43Z</time>
      </trkpt>
      <trkpt lat="41.611649" lon="1.981677">
        <ele>488.40</ele>
        <time>1970-01-01T03:10:44Z</time>
      </trkpt>
      <trkpt lat="41.611655" lon="1.981617">
        <ele>487.00</ele>
        <time>1970-01-01T03:10:45Z</time>
      </trkpt>
      <trkpt lat="41.611676" lon="1.981550">
        <ele>485.60</ele>
        <time>1970-01-01T03:10:46Z</time>
      </trkpt>
      <trkpt lat="41.611706" lon="1.981474">
        <ele>484.20</ele>
        <time>1970-01-01T03:10:47Z</time>
      </trkpt>
      <trkpt lat="41.611737" lon="1.981395">
        <ele>482.80</ele>
        <time>1970-01-01T03:10:48Z</time>
      </trkpt>
      <trkpt lat="41.611758" lon="1.981309">
        <ele>481.80</ele>
        <time>1970-01-01T03:10:49Z</time>
      </trkpt>
      <trkpt lat="41.611762" lon="1.981212">
        <ele>480.40</ele>
        <time>1970-01-01T03:10:50Z</time>
      </trkpt>
      <trkpt lat="41.611750" lon="1.981099">
        <ele>479.20</ele>
        <time>1970-01-01T03:10:51Z</time>
      </trkpt>
      <trkpt lat="41.611726" lon="1.980979">
        <ele>476.80</ele>
        <time>1970-01-01T03:10:52Z</time>
      </trkpt>
      <trkpt lat="41.611701" lon="1.980861">
        <ele>475.80</ele>
        <time>1970-01-01T03:10:53Z</time>
      </trkpt>
      <trkpt lat="41.611675" lon="1.980751">
        <ele>474.80</ele>
        <time>1970-01-01T03:10:54Z</time>
      </trkpt>
      <trkpt lat="41.611645" lon="1.980658">
        <ele>473.80</ele>
        <time>1970-01-01T03:10:55Z</time>
      </trkpt>
      <trkpt lat="41.611622" lon="1.980572">
        <ele>472.40</ele>
        <time>1970-01-01T03:10:56Z</time>
      </trkpt>
      <trkpt lat="41.611605" lon="1.980485">
        <ele>471.00</ele>
        <time>1970-01-01T03:10:57Z</time>
      </trkpt>
      <trkpt lat="41.611588" lon="1.980396">
        <ele>469.80</ele>
        <time>1970-01-01T03:10:58Z</time>
      </trkpt>
      <trkpt lat="41.611563" lon="1.980306">
        <ele>468.40</ele>
        <time>1970-01-01T03:10:59Z</time>
      </trkpt>
      <trkpt lat="41.611529" lon="1.980214">
        <ele>467.20</ele>
        <time>1970-01-01T03:11:00Z</time>
      </trkpt>
      <trkpt lat="41.611487" lon="1.980123">
        <ele>465.40</ele>
        <time>1970-01-01T03:11:01Z</time>
      </trkpt>
      <trkpt lat="41.611441" lon="1.980037">
        <ele>463.80</ele>
        <time>1970-01-01T03:11:02Z</time>
      </trkpt>
      <trkpt lat="41.611393" lon="1.979954">
        <ele>462.20</ele>
        <time>1970-01-01T03:11:03Z</time>
      </trkpt>
      <trkpt lat="41.611346" lon="1.979873">
        <ele>460.60</ele>
        <time>1970-01-01T03:11:04Z</time>
      </trkpt>
      <trkpt lat="41.611302" lon="1.979791">
        <ele>459.40</ele>
        <time>1970-01-01T03:11:05Z</time>
      </trkpt>
      <trkpt lat="41.611264" lon="1.979708">
        <ele>458.20</ele>
        <time>1970-01-01T03:11:06Z</time>
      </trkpt>
      <trkpt lat="41.611234" lon="1.979621">
        <ele>457.00</ele>
        <time>1970-01-01T03:11:07Z</time>
      </trkpt>
      <trkpt lat="41.611207" lon="1.979529">
        <ele>456.00</ele>
        <time>1970-01-01T03:11:08Z</time>
      </trkpt>
      <trkpt lat="41.611133" lon="1.979341">
        <ele>454.60</ele>
        <time>1970-01-01T03:11:10Z</time>
      </trkpt>
      <trkpt lat="41.611037" lon="1.979195">
        <ele>453.80</ele>
        <time>1970-01-01T03:11:12Z</time>
      </trkpt>
      <trkpt lat="41.610992" lon="1.979125">
        <ele>453.60</ele>
        <time>1970-01-01T03:11:13Z</time>
      </trkpt>
      <trkpt lat="41.610952" lon="1.979049">
        <ele>453.40</ele>
        <time>1970-01-01T03:11:14Z</time>
      </trkpt>
      <trkpt lat="41.610893" lon="1.978875">
        <ele>453.00</ele>
        <time>1970-01-01T03:11:16Z</time>
      </trkpt>
      <trkpt lat="41.610847" lon="1.978661">
        <ele>451.80</ele>
        <time>1970-01-01T03:11:18Z</time>
      </trkpt>
      <trkpt lat="41.610825" lon="1.978558">
        <ele>450.60</ele>
        <time>1970-01-01T03:11:19Z</time>
      </trkpt>
      <trkpt lat="41.610815" lon="1.978463">
        <ele>448.20</ele>
        <time>1970-01-01T03:11:20Z</time>
      </trkpt>
      <trkpt lat="41.610819" lon="1.978376">
        <ele>447.00</ele>
        <time>1970-01-01T03:11:21Z</time>
      </trkpt>
      <trkpt lat="41.610839" lon="1.978299">
        <ele>446.00</ele>
        <time>1970-01-01T03:11:22Z</time>
      </trkpt>
      <trkpt lat="41.610875" lon="1.978238">
        <ele>445.20</ele>
        <time>1970-01-01T03:11:23Z</time>
      </trkpt>
      <trkpt lat="41.610926" lon="1.978201">
        <ele>444.40</ele>
        <time>1970-01-01T03:11:24Z</time>
      </trkpt>
      <trkpt lat="41.611052" lon="1.978180">
        <ele>442.60</ele>
        <time>1970-01-01T03:11:26Z</time>
      </trkpt>
      <trkpt lat="41.611119" lon="1.978194">
        <ele>441.40</ele>
        <time>1970-01-01T03:11:27Z</time>
      </trkpt>
      <trkpt lat="41.611180" lon="1.978219">
        <ele>440.20</ele>
        <time>1970-01-01T03:11:28Z</time>
      </trkpt>
      <trkpt lat="41.611229" lon="1.978244">
        <ele>439.20</ele>
        <time>1970-01-01T03:11:29Z</time>
      </trkpt>
      <trkpt lat="41.611267" lon="1.978245">
        <ele>438.00</ele>
        <time>1970-01-01T03:11:30Z</time>
      </trkpt>
      <trkpt lat="41.611293" lon="1.978222">
        <ele>437.00</ele>
        <time>1970-01-01T03:11:31Z</time>
      </trkpt>
      <trkpt lat="41.611309" lon="1.978180">
        <ele>436.00</ele>
        <time>1970-01-01T03:11:32Z</time>
      </trkpt>
      <trkpt lat="41.611309" lon="1.978122">
        <ele>435.20</ele>
        <time>1970-01-01T03:11:33Z</time>
      </trkpt>
      <trkpt lat="41.611299" lon="1.978056">
        <ele>434.40</ele>
        <time>1970-01-01T03:11:34Z</time>
      </trkpt>
      <trkpt lat="41.611278" lon="1.977989">
        <ele>433.40</ele>
        <time>1970-01-01T03:11:35Z</time>
      </trkpt>
      <trkpt lat="41.611250" lon="1.977918">
        <ele>432.40</ele>
        <time>1970-01-01T03:11:36Z</time>
      </trkpt>
      <trkpt lat="41.611212" lon="1.977847">
        <ele>431.00</ele>
        <time>1970-01-01T03:11:37Z</time>
      </trkpt>
      <trkpt lat="41.611163" lon="1.977777">
        <ele>429.80</ele>
        <time>1970-01-01T03:11:38Z</time>
      </trkpt>
      <trkpt lat="41.611104" lon="1.977704">
        <ele>428.60</ele>
        <time>1970-01-01T03:11:39Z</time>
      </trkpt>
      <trkpt lat="41.611037" lon="1.977630">
        <ele>427.80</ele>
        <time>1970-01-01T03:11:40Z</time>
      </trkpt>
      <trkpt lat="41.610962" lon="1.977558">
        <ele>426.80</ele>
        <time>1970-01-01T03:11:41Z</time>
      </trkpt>
      <trkpt lat="41.610883" lon="1.977491">
        <ele>426.00</ele>
        <time>1970-01-01T03:11:42Z</time>
      </trkpt>
      <trkpt lat="41.610798" lon="1.977429">
        <ele>425.20</ele>
        <time>1970-01-01T03:11:43Z</time>
      </trkpt>
      <trkpt lat="41.610712" lon="1.977372">
        <ele>424.20</ele>
        <time>1970-01-01T03:11:44Z</time>
      </trkpt>
      <trkpt lat="41.610626" lon="1.977320">
        <ele>423.00</ele>
        <time>1970-01-01T03:11:45Z</time>
      </trkpt>
      <trkpt lat="41.610549" lon="1.977273">
        <ele>422.00</ele>
        <time>1970-01-01T03:11:46Z</time>
      </trkpt>
      <trkpt lat="41.610487" lon="1.977242">
        <ele>420.80</ele>
        <time>1970-01-01T03:11:47Z</time>
      </trkpt>
      <trkpt lat="41.610439" lon="1.977221">
        <ele>419.80</ele>
        <time>1970-01-01T03:11:48Z</time>
      </trkpt>
      <trkpt lat="41.610392" lon="1.977205">
        <ele>417.80</ele>
        <time>1970-01-01T03:11:49Z</time>
      </trkpt>
      <trkpt lat="41.610345" lon="1.977187">
        <ele>417.00</ele>
        <time>1970-01-01T03:11:50Z</time>
      </trkpt>
      <trkpt lat="41.610297" lon="1.977161">
        <ele>416.00</ele>
        <time>1970-01-01T03:11:51Z</time>
      </trkpt>
      <trkpt lat="41.610245" lon="1.977125">
        <ele>415.00</ele>
        <time>1970-01-01T03:11:52Z</time>
      </trkpt>
      <trkpt lat="41.610189" lon="1.977083">
        <ele>414.20</ele>
        <time>1970-01-01T03:11:53Z</time>
      </trkpt>
      <trkpt lat="41.610116" lon="1.977033">
        <ele>413.00</ele>
        <time>1970-01-01T03:11:54Z</time>
      </trkpt>
      <trkpt lat="41.610044" lon="1.976980">
        <ele>412.00</ele>
        <time>1970-01-01T03:11:55Z</time>
      </trkpt>
      <trkpt lat="41.609984" lon="1.976932">
        <ele>411.20</ele>
        <time>1970-01-01T03:11:56Z</time>
      </trkpt>
      <trkpt lat="41.609940" lon="1.976885">
        <ele>410.40</ele>
        <time>1970-01-01T03:11:57Z</time>
      </trkpt>
      <trkpt lat="41.609919" lon="1.976843">
        <ele>409.80</ele>
        <time>1970-01-01T03:11:58Z</time>
      </trkpt>
      <trkpt lat="41.609926" lon="1.976805">
        <ele>409.20</ele>
        <time>1970-01-01T03:11:59Z</time>
      </trkpt>
      <trkpt lat="41.609955" lon="1.976777">
        <ele>408.40</ele>
        <time>1970-01-01T03:12:00Z</time>
      </trkpt>
      <trkpt lat="41.609996" lon="1.976756">
        <ele>407.40</ele>
        <time>1970-01-01T03:12:01Z</time>
      </trkpt>
      <trkpt lat="41.610046" lon="1.976728">
        <ele>406.40</ele>
        <time>1970-01-01T03:12:02Z</time>
      </trkpt>
      <trkpt lat="41.610105" lon="1.976694">
        <ele>405.20</ele>
        <time>1970-01-01T03:12:03Z</time>
      </trkpt>
      <trkpt lat="41.610170" lon="1.976650">
        <ele>404.00</ele>
        <time>1970-01-01T03:12:04Z</time>
      </trkpt>
      <trkpt lat="41.610226" lon="1.976599">
        <ele>402.80</ele>
        <time>1970-01-01T03:12:05Z</time>
      </trkpt>
      <trkpt lat="41.610260" lon="1.976543">
        <ele>401.80</ele>
        <time>1970-01-01T03:12:06Z</time>
      </trkpt>
      <trkpt lat="41.610280" lon="1.976493">
        <ele>401.20</ele>
        <time>1970-01-01T03:12:07Z</time>
      </trkpt>
      <trkpt lat="41.610271" lon="1.976444">
        <ele>400.60</ele>
        <time>1970-01-01T03:12:08Z</time>
      </trkpt>
      <trkpt lat="41.610245" lon="1.976406">
        <ele>400.00</ele>
        <time>1970-01-01T03:12:09Z</time>
      </trkpt>
      <trkpt lat="41.610212" lon="1.976390">
        <ele>399.40</ele>
        <time>1970-01-01T03:12:10Z</time>
      </trkpt>
      <trkpt lat="41.610175" lon="1.976385">
        <ele>398.60</ele>
        <time>1970-01-01T03:12:11Z</time>
      </trkpt>
      <trkpt lat="41.610140" lon="1.976383">
        <ele>398.00</ele>
        <time>1970-01-01T03:12:12Z</time>
      </trkpt>
      <trkpt lat="41.610098" lon="1.976376">
        <ele>397.20</ele>
        <time>1970-01-01T03:12:13Z</time>
      </trkpt>
      <trkpt lat="41.610056" lon="1.976365">
        <ele>396.40</ele>
        <time>1970-01-01T03:12:14Z</time>
      </trkpt>
      <trkpt lat="41.610016" lon="1.976355">
        <ele>396.00</ele>
        <time>1970-01-01T03:12:15Z</time>
      </trkpt>
      <trkpt lat="41.609977" lon="1.976344">
        <ele>395.80</ele>
        <time>1970-01-01T03:12:16Z</time>
      </trkpt>
      <trkpt lat="41.609903" lon="1.976322">
        <ele>395.80</ele>
        <time>1970-01-01T03:12:18Z</time>
      </trkpt>
      <trkpt lat="41.609869" lon="1.976307">
        <ele>395.80</ele>
        <time>1970-01-01T03:12:19Z</time>
      </trkpt>
      <trkpt lat="41.609836" lon="1.976285">
        <ele>395.80</ele>
        <time>1970-01-01T03:12:20Z</time>
      </trkpt>
      <trkpt lat="41.609772" lon="1.976227">
        <ele>395.80</ele>
        <time>1970-01-01T03:12:22Z</time>
      </trkpt>
      <trkpt lat="41.609706" lon="1.976173">
        <ele>396.00</ele>
        <time>1970-01-01T03:12:24Z</time>
      </trkpt>
      <trkpt lat="41.609633" lon="1.976111">
        <ele>396.40</ele>
        <time>1970-01-01T03:12:26Z</time>
      </trkpt>
      <trkpt lat="41.609597" lon="1.976082">
        <ele>396.60</ele>
        <time>1970-01-01T03:12:27Z</time>
      </trkpt>
      <trkpt lat="41.609558" lon="1.976060">
        <ele>396.60</ele>
        <time>1970-01-01T03:12:28Z</time>
      </trkpt>
      <trkpt lat="41.609472" lon="1.976027">
        <ele>397.00</ele>
        <time>1970-01-01T03:12:30Z</time>
      </trkpt>
      <trkpt lat="41.609423" lon="1.976014">
        <ele>397.20</ele>
        <time>1970-01-01T03:12:31Z</time>
      </trkpt>
      <trkpt lat="41.609373" lon="1.976000">
        <ele>397.40</ele>
        <time>1970-01-01T03:12:32Z</time>
      </trkpt>
      <trkpt lat="41.609322" lon="1.975990">
        <ele>397.40</ele>
        <time>1970-01-01T03:12:33Z</time>
      </trkpt>
      <trkpt lat="41.609265" lon="1.975983">
        <ele>397.40</ele>
        <time>1970-01-01T03:12:34Z</time>
      </trkpt>
      <trkpt lat="41.609209" lon="1.975982">
        <ele>397.40</ele>
        <time>1970-01-01T03:12:35Z</time>
      </trkpt>
      <trkpt lat="41.609155" lon="1.975983">
        <ele>397.40</ele>
        <time>1970-01-01T03:12:36Z</time>
      </trkpt>
      <trkpt lat="41.609067" lon="1.975979">
        <ele>397.40</ele>
        <time>1970-01-01T03:12:38Z</time>
      </trkpt>
      <trkpt lat="41.609024" lon="1.975976">
        <ele>397.40</ele>
        <time>1970-01-01T03:12:40Z</time>
      </trkpt>
      <trkpt lat="41.609008" lon="1.975970">
        <ele>397.00</ele>
        <time>1970-01-01T03:12:42Z</time>
      </trkpt>
      <trkpt lat="41.608999" lon="1.975962">
        <ele>396.60</ele>
        <time>1970-01-01T03:12:43Z</time>
      </trkpt>
      <trkpt lat="41.608991" lon="1.975956">
        <ele>396.40</ele>
        <time>1970-01-01T03:12:44Z</time>
      </trkpt>
      <trkpt lat="41.608988" lon="1.975954">
        <ele>395.80</ele>
        <time>1970-01-01T03:12:45Z</time>
      </trkpt>
      <trkpt lat="41.608978" lon="1.975958">
        <ele>394.40</ele>
        <time>1970-01-01T03:12:46Z</time>
      </trkpt>
      <trkpt lat="41.608963" lon="1.975968">
        <ele>393.40</ele>
        <time>1970-01-01T03:12:48Z</time>
      </trkpt>
      <trkpt lat="41.608957" lon="1.975969">
        <ele>393.00</ele>
        <time>1970-01-01T03:12:50Z</time>
      </trkpt>
      <trkpt lat="41.608957" lon="1.975966">
        <ele>392.80</ele>
        <time>1970-01-01T03:12:52Z</time>
      </trkpt>
      <trkpt lat="41.608957" lon="1.975964">
        <ele>392.60</ele>
        <time>1970-01-01T03:12:53Z</time>
      </trkpt>
      <trkpt lat="41.608957" lon="1.975963">
        <ele>392.60</ele>
        <time>1970-01-01T03:12:54Z</time>
      </trkpt>
      <trkpt lat="41.608956" lon="1.975964">
        <ele>392.40</ele>
        <time>1970-01-01T03:12:56Z</time>
      </trkpt>
      <trkpt lat="41.608956" lon="1.975964">
        <ele>392.40</ele>
        <time>1970-01-01T03:12:57Z</time>
      </trkpt>
      <trkpt lat="41.608956" lon="1.975963">
        <ele>392.20</ele>
        <time>1970-01-01T03:12:58Z</time>
      </trkpt>
      <trkpt lat="41.608956" lon="1.975963">
        <ele>392.20</ele>
        <time>1970-01-01T03:13:00Z</time>
      </trkpt>
      <trkpt lat="41.608956" lon="1.975963">
        <ele>392.00</ele>
        <time>1970-01-01T03:13:02Z</time>
      </trkpt>
      <trkpt lat="41.608956" lon="1.975963">
        <ele>392.00</ele>
        <time>1970-01-01T03:13:04Z</time>
      </trkpt>
      <trkpt lat="41.608955" lon="1.975963">
        <ele>392.00</ele>
        <time>1970-01-01T03:13:06Z</time>
      </trkpt>
      <trkpt lat="41.608955" lon="1.975962">
        <ele>392.00</ele>
        <time>1970-01-01T03:13:07Z</time>
      </trkpt>
      <trkpt lat="41.608955" lon="1.975962">
        <ele>392.00</ele>
        <time>1970-01-01T03:13:08Z</time>
      </trkpt>
      <trkpt lat="41.608954" lon="1.975963">
        <ele>392.00</ele>
        <time>1970-01-01T03:13:10Z</time>
      </trkpt>
      <trkpt lat="41.608954" lon="1.975963">
        <ele>392.00</ele>
        <time>1970-01-01T03:13:12Z</time>
      </trkpt>
      <trkpt lat="41.608956" lon="1.975963">
        <ele>392.00</ele>
        <time>1970-01-01T03:13:14Z</time>
      </trkpt>
      <trkpt lat="41.608956" lon="1.975961">
        <ele>392.00</ele>
        <time>1970-01-01T03:13:16Z</time>
      </trkpt>
      <trkpt lat="41.608950" lon="1.975960">
        <ele>392.00</ele>
        <time>1970-01-01T03:13:18Z</time>
      </trkpt>
      <trkpt lat="41.608938" lon="1.975957">
        <ele>392.00</ele>
        <time>1970-01-01T03:13:19Z</time>
      </trkpt>
      <trkpt lat="41.608923" lon="1.975949">
        <ele>392.00</ele>
        <time>1970-01-01T03:13:20Z</time>
      </trkpt>
      <trkpt lat="41.608882" lon="1.975905">
        <ele>392.00</ele>
        <time>1970-01-01T03:13:22Z</time>
      </trkpt>
      <trkpt lat="41.608852" lon="1.975876">
        <ele>392.00</ele>
        <time>1970-01-01T03:13:23Z</time>
      </trkpt>
      <trkpt lat="41.608824" lon="1.975846">
        <ele>392.00</ele>
        <time>1970-01-01T03:13:24Z</time>
      </trkpt>
      <trkpt lat="41.608798" lon="1.975783">
        <ele>392.00</ele>
        <time>1970-01-01T03:13:26Z</time>
      </trkpt>
      <trkpt lat="41.608802" lon="1.975742">
        <ele>392.00</ele>
        <time>1970-01-01T03:13:27Z</time>
      </trkpt>
      <trkpt lat="41.608810" lon="1.975690">
        <ele>391.80</ele>
        <time>1970-01-01T03:13:28Z</time>
      </trkpt>
      <trkpt lat="41.608823" lon="1.975567">
        <ele>391.60</ele>
        <time>1970-01-01T03:13:30Z</time>
      </trkpt>
      <trkpt lat="41.608826" lon="1.975505">
        <ele>391.60</ele>
        <time>1970-01-01T03:13:31Z</time>
      </trkpt>
      <trkpt lat="41.608826" lon="1.975441">
        <ele>391.20</ele>
        <time>1970-01-01T03:13:32Z</time>
      </trkpt>
      <trkpt lat="41.608829" lon="1.975375">
        <ele>391.00</ele>
        <time>1970-01-01T03:13:33Z</time>
      </trkpt>
      <trkpt lat="41.608835" lon="1.975307">
        <ele>390.60</ele>
        <time>1970-01-01T03:13:34Z</time>
      </trkpt>
      <trkpt lat="41.608838" lon="1.975162">
        <ele>390.40</ele>
        <time>1970-01-01T03:13:36Z</time>
      </trkpt>
      <trkpt lat="41.608837" lon="1.975081">
        <ele>390.40</ele>
        <time>1970-01-01T03:13:37Z</time>
      </trkpt>
      <trkpt lat="41.608834" lon="1.975002">
        <ele>390.20</ele>
        <time>1970-01-01T03:13:38Z</time>
      </trkpt>
      <trkpt lat="41.608834" lon="1.974845">
        <ele>390.20</ele>
        <time>1970-01-01T03:13:40Z</time>
      </trkpt>
      <trkpt lat="41.608837" lon="1.974693">
        <ele>390.20</ele>
        <time>1970-01-01T03:13:42Z</time>
      </trkpt>
      <trkpt lat="41.608849" lon="1.974545">
        <ele>390.20</ele>
        <time>1970-01-01T03:13:44Z</time>
      </trkpt>
      <trkpt lat="41.608867" lon="1.974407">
        <ele>390.20</ele>
        <time>1970-01-01T03:13:46Z</time>
      </trkpt>
      <trkpt lat="41.608887" lon="1.974277">
        <ele>390.20</ele>
        <time>1970-01-01T03:13:48Z</time>
      </trkpt>
      <trkpt lat="41.608901" lon="1.974154">
        <ele>390.40</ele>
        <time>1970-01-01T03:13:50Z</time>
      </trkpt>
      <trkpt lat="41.608905" lon="1.974092">
        <ele>390.40</ele>
        <time>1970-01-01T03:13:51Z</time>
      </trkpt>
      <trkpt lat="41.608911" lon="1.974032">
        <ele>390.60</ele>
        <time>1970-01-01T03:13:52Z</time>
      </trkpt>
      <trkpt lat="41.608933" lon="1.973913">
        <ele>390.80</ele>
        <time>1970-01-01T03:13:54Z</time>
      </trkpt>
      <trkpt lat="41.608957" lon="1.973795">
        <ele>391.40</ele>
        <time>1970-01-01T03:13:56Z</time>
      </trkpt>
      <trkpt lat="41.608971" lon="1.973736">
        <ele>391.60</ele>
        <time>1970-01-01T03:13:57Z</time>
      </trkpt>
      <trkpt lat="41.608990" lon="1.973679">
        <ele>392.00</ele>
        <time>1970-01-01T03:13:58Z</time>
      </trkpt>
      <trkpt lat="41.609035" lon="1.973570">
        <ele>392.60</ele>
        <time>1970-01-01T03:14:00Z</time>
      </trkpt>
      <trkpt lat="41.609089" lon="1.973473">
        <ele>393.00</ele>
        <time>1970-01-01T03:14:02Z</time>
      </trkpt>
      <trkpt lat="41.609152" lon="1.973389">
        <ele>393.20</ele>
        <time>1970-01-01T03:14:04Z</time>
      </trkpt>
      <trkpt lat="41.609223" lon="1.973323">
        <ele>393.40</ele>
        <time>1970-01-01T03:14:06Z</time>
      </trkpt>
      <trkpt lat="41.609298" lon="1.973267">
        <ele>393.80</ele>
        <time>1970-01-01T03:14:08Z</time>
      </trkpt>
      <trkpt lat="41.609368" lon="1.973202">
        <ele>394.20</ele>
        <time>1970-01-01T03:14:10Z</time>
      </trkpt>
      <trkpt lat="41.609429" lon="1.973118">
        <ele>394.60</ele>
        <time>1970-01-01T03:14:12Z</time>
      </trkpt>
      <trkpt lat="41.609460" lon="1.973063">
        <ele>395.20</ele>
        <time>1970-01-01T03:14:13Z</time>
      </trkpt>
      <trkpt lat="41.609478" lon="1.972999">
        <ele>395.60</ele>
        <time>1970-01-01T03:14:14Z</time>
      </trkpt>
      <trkpt lat="41.609494" lon="1.972870">
        <ele>396.20</ele>
        <time>1970-01-01T03:14:16Z</time>
      </trkpt>
      <trkpt lat="41.609492" lon="1.972805">
        <ele>396.40</ele>
        <time>1970-01-01T03:14:17Z</time>
      </trkpt>
      <trkpt lat="41.609486" lon="1.972743">
        <ele>396.80</ele>
        <time>1970-01-01T03:14:18Z</time>
      </trkpt>
      <trkpt lat="41.609480" lon="1.972681">
        <ele>397.00</ele>
        <time>1970-01-01T03:14:19Z</time>
      </trkpt>
      <trkpt lat="41.609479" lon="1.972621">
        <ele>397.00</ele>
        <time>1970-01-01T03:14:20Z</time>
      </trkpt>
      <trkpt lat="41.609481" lon="1.972563">
        <ele>397.20</ele>
        <time>1970-01-01T03:14:21Z</time>
      </trkpt>
      <trkpt lat="41.609488" lon="1.972508">
        <ele>397.60</ele>
        <time>1970-01-01T03:14:22Z</time>
      </trkpt>
      <trkpt lat="41.609501" lon="1.972394">
        <ele>398.40</ele>
        <time>1970-01-01T03:14:24Z</time>
      </trkpt>
      <trkpt lat="41.609514" lon="1.972286">
        <ele>398.80</ele>
        <time>1970-01-01T03:14:26Z</time>
      </trkpt>
      <trkpt lat="41.609520" lon="1.972234">
        <ele>399.20</ele>
        <time>1970-01-01T03:14:27Z</time>
      </trkpt>
      <trkpt lat="41.609526" lon="1.972183">
        <ele>399.40</ele>
        <time>1970-01-01T03:14:28Z</time>
      </trkpt>
      <trkpt lat="41.609538" lon="1.972078">
        <ele>399.80</ele>
        <time>1970-01-01T03:14:30Z</time>
      </trkpt>
      <trkpt lat="41.609545" lon="1.972026">
        <ele>400.00</ele>
        <time>1970-01-01T03:14:31Z</time>
      </trkpt>
      <trkpt lat="41.609550" lon="1.971975">
        <ele>400.00</ele>
        <time>1970-01-01T03:14:32Z</time>
      </trkpt>
      <trkpt lat="41.609555" lon="1.971883">
        <ele>400.60</ele>
        <time>1970-01-01T03:14:34Z</time>
      </trkpt>
      <trkpt lat="41.609563" lon="1.971797">
        <ele>401.00</ele>
        <time>1970-01-01T03:14:36Z</time>
      </trkpt>
      <trkpt lat="41.609568" lon="1.971702">
        <ele>401.60</ele>
        <time>1970-01-01T03:14:38Z</time>
      </trkpt>
      <trkpt lat="41.609563" lon="1.971616">
        <ele>402.20</ele>
        <time>1970-01-01T03:14:40Z</time>
      </trkpt>
      <trkpt lat="41.609551" lon="1.971531">
        <ele>402.80</ele>
        <time>1970-01-01T03:14:42Z</time>
      </trkpt>
      <trkpt lat="41.609526" lon="1.971448">
        <ele>403.20</ele>
        <time>1970-01-01T03:14:44Z</time>
      </trkpt>
      <trkpt lat="41.609493" lon="1.971354">
        <ele>403.80</ele>
        <time>1970-01-01T03:14:46Z</time>
      </trkpt>
      <trkpt lat="41.609465" lon="1.971306">
        <ele>404.00</ele>
        <time>1970-01-01T03:14:47Z</time>
      </trkpt>
      <trkpt lat="41.609435" lon="1.971263">
        <ele>404.20</ele>
        <time>1970-01-01T03:14:48Z</time>
      </trkpt>
      <trkpt lat="41.609413" lon="1.971219">
        <ele>404.00</ele>
        <time>1970-01-01T03:14:49Z</time>
      </trkpt>
      <trkpt lat="41.609395" lon="1.971171">
        <ele>404.40</ele>
        <time>1970-01-01T03:14:50Z</time>
      </trkpt>
      <trkpt lat="41.609366" lon="1.971069">
        <ele>404.40</ele>
        <time>1970-01-01T03:14:52Z</time>
      </trkpt>
      <trkpt lat="41.609328" lon="1.970986">
        <ele>404.40</ele>
        <time>1970-01-01T03:14:54Z</time>
      </trkpt>
      <trkpt lat="41.609297" lon="1.970955">
        <ele>404.40</ele>
        <time>1970-01-01T03:14:55Z</time>
      </trkpt>
      <trkpt lat="41.609264" lon="1.970925">
        <ele>404.60</ele>
        <time>1970-01-01T03:14:56Z</time>
      </trkpt>
      <trkpt lat="41.609188" lon="1.970874">
        <ele>404.60</ele>
        <time>1970-01-01T03:14:58Z</time>
      </trkpt>
      <trkpt lat="41.609082" lon="1.970809">
        <ele>404.60</ele>
        <time>1970-01-01T03:15:00Z</time>
      </trkpt>
      <trkpt lat="41.608997" lon="1.970671">
        <ele>404.60</ele>
        <time>1970-01-01T03:15:02Z</time>
      </trkpt>
      <trkpt lat="41.608974" lon="1.970577">
        <ele>404.60</ele>
        <time>1970-01-01T03:15:03Z</time>
      </trkpt>
      <trkpt lat="41.608967" lon="1.970473">
        <ele>404.60</ele>
        <time>1970-01-01T03:15:04Z</time>
      </trkpt>
      <trkpt lat="41.608997" lon="1.970258">
        <ele>404.60</ele>
        <time>1970-01-01T03:15:06Z</time>
      </trkpt>
      <trkpt lat="41.609023" lon="1.970147">
        <ele>404.60</ele>
        <time>1970-01-01T03:15:07Z</time>
      </trkpt>
      <trkpt lat="41.609050" lon="1.970033">
        <ele>404.40</ele>
        <time>1970-01-01T03:15:08Z</time>
      </trkpt>
      <trkpt lat="41.609106" lon="1.969801">
        <ele>403.20</ele>
        <time>1970-01-01T03:15:10Z</time>
      </trkpt>
      <trkpt lat="41.609137" lon="1.969683">
        <ele>402.80</ele>
        <time>1970-01-01T03:15:11Z</time>
      </trkpt>
      <trkpt lat="41.609168" lon="1.969563">
        <ele>402.40</ele>
        <time>1970-01-01T03:15:12Z</time>
      </trkpt>
      <trkpt lat="41.609198" lon="1.969442">
        <ele>401.60</ele>
        <time>1970-01-01T03:15:13Z</time>
      </trkpt>
      <trkpt lat="41.609227" lon="1.969320">
        <ele>401.00</ele>
        <time>1970-01-01T03:15:14Z</time>
      </trkpt>
      <trkpt lat="41.609254" lon="1.969195">
        <ele>400.20</ele>
        <time>1970-01-01T03:15:15Z</time>
      </trkpt>
      <trkpt lat="41.609282" lon="1.969070">
        <ele>399.40</ele>
        <time>1970-01-01T03:15:16Z</time>
      </trkpt>
      <trkpt lat="41.609317" lon="1.968952">
        <ele>398.80</ele>
        <time>1970-01-01T03:15:17Z</time>
      </trkpt>
      <trkpt lat="41.609360" lon="1.968852">
        <ele>398.20</ele>
        <time>1970-01-01T03:15:18Z</time>
      </trkpt>
      <trkpt lat="41.609407" lon="1.968781">
        <ele>397.40</ele>
        <time>1970-01-01T03:15:19Z</time>
      </trkpt>
      <trkpt lat="41.609452" lon="1.968729">
        <ele>397.00</ele>
        <time>1970-01-01T03:15:20Z</time>
      </trkpt>
      <trkpt lat="41.609492" lon="1.968694">
        <ele>396.40</ele>
        <time>1970-01-01T03:15:21Z</time>
      </trkpt>
      <trkpt lat="41.609527" lon="1.968668">
        <ele>396.20</ele>
        <time>1970-01-01T03:15:22Z</time>
      </trkpt>
      <trkpt lat="41.609591" lon="1.968634">
        <ele>396.00</ele>
        <time>1970-01-01T03:15:24Z</time>
      </trkpt>
      <trkpt lat="41.609649" lon="1.968625">
        <ele>395.80</ele>
        <time>1970-01-01T03:15:26Z</time>
      </trkpt>
      <trkpt lat="41.609676" lon="1.968623">
        <ele>395.80</ele>
        <time>1970-01-01T03:15:27Z</time>
      </trkpt>
      <trkpt lat="41.609702" lon="1.968620">
        <ele>395.80</ele>
        <time>1970-01-01T03:15:28Z</time>
      </trkpt>
      <trkpt lat="41.609749" lon="1.968604">
        <ele>395.80</ele>
        <time>1970-01-01T03:15:30Z</time>
      </trkpt>
      <trkpt lat="41.609795" lon="1.968586">
        <ele>396.40</ele>
        <time>1970-01-01T03:15:32Z</time>
      </trkpt>
      <trkpt lat="41.609838" lon="1.968561">
        <ele>397.20</ele>
        <time>1970-01-01T03:15:34Z</time>
      </trkpt>
      <trkpt lat="41.609860" lon="1.968550">
        <ele>397.60</ele>
        <time>1970-01-01T03:15:35Z</time>
      </trkpt>
      <trkpt lat="41.609882" lon="1.968543">
        <ele>397.80</ele>
        <time>1970-01-01T03:15:36Z</time>
      </trkpt>
      <trkpt lat="41.609925" lon="1.968527">
        <ele>398.60</ele>
        <time>1970-01-01T03:15:38Z</time>
      </trkpt>
      <trkpt lat="41.609969" lon="1.968507">
        <ele>399.40</ele>
        <time>1970-01-01T03:15:40Z</time>
      </trkpt>
      <trkpt lat="41.610009" lon="1.968484">
        <ele>400.00</ele>
        <time>1970-01-01T03:15:42Z</time>
      </trkpt>
      <trkpt lat="41.610053" lon="1.968466">
        <ele>400.60</ele>
        <time>1970-01-01T03:15:44Z</time>
      </trkpt>
      <trkpt lat="41.610076" lon="1.968457">
        <ele>401.00</ele>
        <time>1970-01-01T03:15:45Z</time>
      </trkpt>
      <trkpt lat="41.610098" lon="1.968445">
        <ele>401.40</ele>
        <time>1970-01-01T03:15:46Z</time>
      </trkpt>
      <trkpt lat="41.610117" lon="1.968429">
        <ele>401.60</ele>
        <time>1970-01-01T03:15:47Z</time>
      </trkpt>
      <trkpt lat="41.610135" lon="1.968414">
        <ele>402.00</ele>
        <time>1970-01-01T03:15:48Z</time>
      </trkpt>
      <trkpt lat="41.610169" lon="1.968378">
        <ele>402.80</ele>
        <time>1970-01-01T03:15:50Z</time>
      </trkpt>
      <trkpt lat="41.610186" lon="1.968358">
        <ele>403.20</ele>
        <time>1970-01-01T03:15:51Z</time>
      </trkpt>
      <trkpt lat="41.610201" lon="1.968334">
        <ele>403.40</ele>
        <time>1970-01-01T03:15:52Z</time>
      </trkpt>
      <trkpt lat="41.610225" lon="1.968281">
        <ele>404.20</ele>
        <time>1970-01-01T03:15:54Z</time>
      </trkpt>
      <trkpt lat="41.610237" lon="1.968253">
        <ele>404.40</ele>
        <time>1970-01-01T03:15:55Z</time>
      </trkpt>
      <trkpt lat="41.610245" lon="1.968226">
        <ele>404.80</ele>
        <time>1970-01-01T03:15:56Z</time>
      </trkpt>
      <trkpt lat="41.610263" lon="1.968170">
        <ele>405.20</ele>
        <time>1970-01-01T03:15:58Z</time>
      </trkpt>
      <trkpt lat="41.610278" lon="1.968114">
        <ele>405.80</ele>
        <time>1970-01-01T03:16:00Z</time>
      </trkpt>
      <trkpt lat="41.610282" lon="1.968086">
        <ele>406.20</ele>
        <time>1970-01-01T03:16:01Z</time>
      </trkpt>
      <trkpt lat="41.610286" lon="1.968058">
        <ele>406.60</ele>
        <time>1970-01-01T03:16:02Z</time>
      </trkpt>
      <trkpt lat="41.610295" lon="1.968004">
        <ele>407.40</ele>
        <time>1970-01-01T03:16:04Z</time>
      </trkpt>
      <trkpt lat="41.610298" lon="1.967953">
        <ele>408.20</ele>
        <time>1970-01-01T03:16:06Z</time>
      </trkpt>
      <trkpt lat="41.610294" lon="1.967926">
        <ele>408.40</ele>
        <time>1970-01-01T03:16:07Z</time>
      </trkpt>
      <trkpt lat="41.610292" lon="1.967899">
        <ele>408.80</ele>
        <time>1970-01-01T03:16:08Z</time>
      </trkpt>
      <trkpt lat="41.610289" lon="1.967875">
        <ele>409.00</ele>
        <time>1970-01-01T03:16:09Z</time>
      </trkpt>
      <trkpt lat="41.610281" lon="1.967853">
        <ele>409.40</ele>
        <time>1970-01-01T03:16:10Z</time>
      </trkpt>
      <trkpt lat="41.610276" lon="1.967830">
        <ele>409.60</ele>
        <time>1970-01-01T03:16:11Z</time>
      </trkpt>
      <trkpt lat="41.610272" lon="1.967806">
        <ele>410.00</ele>
        <time>1970-01-01T03:16:12Z</time>
      </trkpt>
      <trkpt lat="41.610265" lon="1.967756">
        <ele>410.40</ele>
        <time>1970-01-01T03:16:14Z</time>
      </trkpt>
      <trkpt lat="41.610259" lon="1.967730">
        <ele>410.60</ele>
        <time>1970-01-01T03:16:15Z</time>
      </trkpt>
      <trkpt lat="41.610254" lon="1.967706">
        <ele>410.80</ele>
        <time>1970-01-01T03:16:16Z</time>
      </trkpt>
      <trkpt lat="41.610243" lon="1.967654">
        <ele>411.20</ele>
        <time>1970-01-01T03:16:18Z</time>
      </trkpt>
      <trkpt lat="41.610224" lon="1.967594">
        <ele>411.40</ele>
        <time>1970-01-01T03:16:20Z</time>
      </trkpt>
      <trkpt lat="41.610205" lon="1.967531">
        <ele>411.80</ele>
        <time>1970-01-01T03:16:22Z</time>
      </trkpt>
      <trkpt lat="41.610197" lon="1.967473">
        <ele>412.20</ele>
        <time>1970-01-01T03:16:24Z</time>
      </trkpt>
      <trkpt lat="41.610190" lon="1.967411">
        <ele>412.40</ele>
        <time>1970-01-01T03:16:26Z</time>
      </trkpt>
      <trkpt lat="41.610186" lon="1.967380">
        <ele>412.60</ele>
        <time>1970-01-01T03:16:27Z</time>
      </trkpt>
      <trkpt lat="41.610183" lon="1.967347">
        <ele>412.80</ele>
        <time>1970-01-01T03:16:28Z</time>
      </trkpt>
      <trkpt lat="41.610173" lon="1.967285">
        <ele>413.40</ele>
        <time>1970-01-01T03:16:30Z</time>
      </trkpt>
      <trkpt lat="41.610166" lon="1.967254">
        <ele>413.60</ele>
        <time>1970-01-01T03:16:31Z</time>
      </trkpt>
      <trkpt lat="41.610161" lon="1.967224">
        <ele>414.00</ele>
        <time>1970-01-01T03:16:32Z</time>
      </trkpt>
      <trkpt lat="41.610152" lon="1.967165">
        <ele>414.40</ele>
        <time>1970-01-01T03:16:34Z</time>
      </trkpt>
      <trkpt lat="41.610148" lon="1.967136">
        <ele>415.00</ele>
        <time>1970-01-01T03:16:35Z</time>
      </trkpt>
      <trkpt lat="41.610144" lon="1.967108">
        <ele>415.40</ele>
        <time>1970-01-01T03:16:36Z</time>
      </trkpt>
      <trkpt lat="41.610133" lon="1.967052">
        <ele>416.00</ele>
        <time>1970-01-01T03:16:38Z</time>
      </trkpt>
      <trkpt lat="41.610118" lon="1.967000">
        <ele>416.60</ele>
        <time>1970-01-01T03:16:40Z</time>
      </trkpt>
      <trkpt lat="41.610103" lon="1.966950">
        <ele>417.20</ele>
        <time>1970-01-01T03:16:42Z</time>
      </trkpt>
      <trkpt lat="41.610090" lon="1.966897">
        <ele>417.80</ele>
        <time>1970-01-01T03:16:44Z</time>
      </trkpt>
      <trkpt lat="41.610075" lon="1.966848">
        <ele>418.40</ele>
        <time>1970-01-01T03:16:46Z</time>
      </trkpt>
      <trkpt lat="41.610056" lon="1.966802">
        <ele>418.80</ele>
        <time>1970-01-01T03:16:48Z</time>
      </trkpt>
      <trkpt lat="41.610032" lon="1.966754">
        <ele>419.40</ele>
        <time>1970-01-01T03:16:50Z</time>
      </trkpt>
      <trkpt lat="41.610021" lon="1.966729">
        <ele>419.60</ele>
        <time>1970-01-01T03:16:51Z</time>
      </trkpt>
      <trkpt lat="41.610010" lon="1.966704">
        <ele>419.80</ele>
        <time>1970-01-01T03:16:52Z</time>
      </trkpt>
      <trkpt lat="41.609987" lon="1.966660">
        <ele>420.20</ele>
        <time>1970-01-01T03:16:54Z</time>
      </trkpt>
      <trkpt lat="41.609964" lon="1.966616">
        <ele>420.60</ele>
        <time>1970-01-01T03:16:56Z</time>
      </trkpt>
      <trkpt lat="41.609952" lon="1.966593">
        <ele>420.60</ele>
        <time>1970-01-01T03:16:57Z</time>
      </trkpt>
      <trkpt lat="41.609939" lon="1.966571">
        <ele>421.00</ele>
        <time>1970-01-01T03:16:58Z</time>
      </trkpt>
      <trkpt lat="41.609923" lon="1.966551">
        <ele>421.20</ele>
        <time>1970-01-01T03:16:59Z</time>
      </trkpt>
      <trkpt lat="41.609908" lon="1.966533">
        <ele>421.40</ele>
        <time>1970-01-01T03:17:00Z</time>
      </trkpt>
      <trkpt lat="41.609893" lon="1.966516">
        <ele>421.80</ele>
        <time>1970-01-01T03:17:01Z</time>
      </trkpt>
      <trkpt lat="41.609880" lon="1.966497">
        <ele>422.00</ele>
        <time>1970-01-01T03:17:02Z</time>
      </trkpt>
      <trkpt lat="41.609857" lon="1.966451">
        <ele>422.80</ele>
        <time>1970-01-01T03:17:04Z</time>
      </trkpt>
      <trkpt lat="41.609832" lon="1.966405">
        <ele>423.20</ele>
        <time>1970-01-01T03:17:06Z</time>
      </trkpt>
      <trkpt lat="41.609819" lon="1.966383">
        <ele>423.40</ele>
        <time>1970-01-01T03:17:07Z</time>
      </trkpt>
      <trkpt lat="41.609807" lon="1.966362">
        <ele>423.60</ele>
        <time>1970-01-01T03:17:08Z</time>
      </trkpt>
      <trkpt lat="41.609793" lon="1.966341">
        <ele>424.00</ele>
        <time>1970-01-01T03:17:09Z</time>
      </trkpt>
      <trkpt lat="41.609778" lon="1.966320">
        <ele>424.40</ele>
        <time>1970-01-01T03:17:10Z</time>
      </trkpt>
      <trkpt lat="41.609751" lon="1.966281">
        <ele>425.00</ele>
        <time>1970-01-01T03:17:12Z</time>
      </trkpt>
      <trkpt lat="41.609738" lon="1.966259">
        <ele>425.00</ele>
        <time>1970-01-01T03:17:13Z</time>
      </trkpt>
      <trkpt lat="41.609725" lon="1.966236">
        <ele>425.20</ele>
        <time>1970-01-01T03:17:14Z</time>
      </trkpt>
      <trkpt lat="41.609712" lon="1.966212">
        <ele>425.20</ele>
        <time>1970-01-01T03:17:15Z</time>
      </trkpt>
      <trkpt lat="41.609698" lon="1.966187">
        <ele>425.40</ele>
        <time>1970-01-01T03:17:16Z</time>
      </trkpt>
      <trkpt lat="41.609674" lon="1.966138">
        <ele>425.60</ele>
        <time>1970-01-01T03:17:18Z</time>
      </trkpt>
      <trkpt lat="41.609647" lon="1.966094">
        <ele>426.20</ele>
        <time>1970-01-01T03:17:20Z</time>
      </trkpt>
      <trkpt lat="41.609618" lon="1.966052">
        <ele>426.40</ele>
        <time>1970-01-01T03:17:22Z</time>
      </trkpt>
      <trkpt lat="41.609603" lon="1.966033">
        <ele>426.80</ele>
        <time>1970-01-01T03:17:23Z</time>
      </trkpt>
      <trkpt lat="41.609588" lon="1.966013">
        <ele>427.00</ele>
        <time>1970-01-01T03:17:24Z</time>
      </trkpt>
      <trkpt lat="41.609572" lon="1.965994">
        <ele>427.20</ele>
        <time>1970-01-01T03:17:25Z</time>
      </trkpt>
      <trkpt lat="41.609557" lon="1.965974">
        <ele>427.40</ele>
        <time>1970-01-01T03:17:26Z</time>
      </trkpt>
      <trkpt lat="41.609527" lon="1.965933">
        <ele>428.00</ele>
        <time>1970-01-01T03:17:28Z</time>
      </trkpt>
      <trkpt lat="41.609515" lon="1.965908">
        <ele>428.40</ele>
        <time>1970-01-01T03:17:29Z</time>
      </trkpt>
      <trkpt lat="41.609504" lon="1.965882">
        <ele>428.60</ele>
        <time>1970-01-01T03:17:30Z</time>
      </trkpt>
      <trkpt lat="41.609494" lon="1.965858">
        <ele>428.80</ele>
        <time>1970-01-01T03:17:31Z</time>
      </trkpt>
      <trkpt lat="41.609484" lon="1.965833">
        <ele>429.00</ele>
        <time>1970-01-01T03:17:32Z</time>
      </trkpt>
      <trkpt lat="41.609475" lon="1.965809">
        <ele>429.60</ele>
        <time>1970-01-01T03:17:33Z</time>
      </trkpt>
      <trkpt lat="41.609467" lon="1.965787">
        <ele>429.80</ele>
        <time>1970-01-01T03:17:34Z</time>
      </trkpt>
      <trkpt lat="41.609442" lon="1.965739">
        <ele>430.20</ele>
        <time>1970-01-01T03:17:36Z</time>
      </trkpt>
      <trkpt lat="41.609414" lon="1.965693">
        <ele>430.40</ele>
        <time>1970-01-01T03:17:38Z</time>
      </trkpt>
      <trkpt lat="41.609386" lon="1.965646">
        <ele>430.60</ele>
        <time>1970-01-01T03:17:40Z</time>
      </trkpt>
      <trkpt lat="41.609360" lon="1.965598">
        <ele>431.20</ele>
        <time>1970-01-01T03:17:42Z</time>
      </trkpt>
      <trkpt lat="41.609347" lon="1.965576">
        <ele>431.40</ele>
        <time>1970-01-01T03:17:43Z</time>
      </trkpt>
      <trkpt lat="41.609335" lon="1.965554">
        <ele>431.60</ele>
        <time>1970-01-01T03:17:44Z</time>
      </trkpt>
      <trkpt lat="41.609308" lon="1.965510">
        <ele>432.20</ele>
        <time>1970-01-01T03:17:46Z</time>
      </trkpt>
      <trkpt lat="41.609294" lon="1.965483">
        <ele>432.40</ele>
        <time>1970-01-01T03:17:47Z</time>
      </trkpt>
      <trkpt lat="41.609280" lon="1.965458">
        <ele>433.00</ele>
        <time>1970-01-01T03:17:48Z</time>
      </trkpt>
      <trkpt lat="41.609249" lon="1.965411">
        <ele>433.40</ele>
        <time>1970-01-01T03:17:50Z</time>
      </trkpt>
      <trkpt lat="41.609234" lon="1.965390">
        <ele>433.80</ele>
        <time>1970-01-01T03:17:51Z</time>
      </trkpt>
      <trkpt lat="41.609222" lon="1.965367">
        <ele>434.00</ele>
        <time>1970-01-01T03:17:52Z</time>
      </trkpt>
      <trkpt lat="41.609193" lon="1.965316">
        <ele>434.40</ele>
        <time>1970-01-01T03:17:54Z</time>
      </trkpt>
      <trkpt lat="41.609161" lon="1.965265">
        <ele>434.80</ele>
        <time>1970-01-01T03:17:56Z</time>
      </trkpt>
      <trkpt lat="41.609134" lon="1.965211">
        <ele>435.00</ele>
        <time>1970-01-01T03:17:58Z</time>
      </trkpt>
      <trkpt lat="41.609112" lon="1.965155">
        <ele>435.40</ele>
        <time>1970-01-01T03:18:00Z</time>
      </trkpt>
      <trkpt lat="41.609092" lon="1.965098">
        <ele>435.80</ele>
        <time>1970-01-01T03:18:02Z</time>
      </trkpt>
      <trkpt lat="41.609085" lon="1.965070">
        <ele>436.20</ele>
        <time>1970-01-01T03:18:03Z</time>
      </trkpt>
      <trkpt lat="41.609082" lon="1.965038">
        <ele>436.20</ele>
        <time>1970-01-01T03:18:04Z</time>
      </trkpt>
      <trkpt lat="41.609081" lon="1.964974">
        <ele>436.60</ele>
        <time>1970-01-01T03:18:06Z</time>
      </trkpt>
      <trkpt lat="41.609091" lon="1.964911">
        <ele>437.00</ele>
        <time>1970-01-01T03:18:08Z</time>
      </trkpt>
      <trkpt lat="41.609099" lon="1.964881">
        <ele>437.00</ele>
        <time>1970-01-01T03:18:09Z</time>
      </trkpt>
      <trkpt lat="41.609110" lon="1.964854">
        <ele>437.40</ele>
        <time>1970-01-01T03:18:10Z</time>
      </trkpt>
      <trkpt lat="41.609137" lon="1.964813">
        <ele>437.80</ele>
        <time>1970-01-01T03:18:12Z</time>
      </trkpt>
      <trkpt lat="41.609161" lon="1.964781">
        <ele>438.20</ele>
        <time>1970-01-01T03:18:14Z</time>
      </trkpt>
      <trkpt lat="41.609174" lon="1.964765">
        <ele>438.40</ele>
        <time>1970-01-01T03:18:15Z</time>
      </trkpt>
      <trkpt lat="41.609189" lon="1.964754">
        <ele>438.60</ele>
        <time>1970-01-01T03:18:16Z</time>
      </trkpt>
      <trkpt lat="41.609219" lon="1.964733">
        <ele>439.00</ele>
        <time>1970-01-01T03:18:18Z</time>
      </trkpt>
      <trkpt lat="41.609236" lon="1.964723">
        <ele>439.40</ele>
        <time>1970-01-01T03:18:19Z</time>
      </trkpt>
      <trkpt lat="41.609256" lon="1.964713">
        <ele>439.60</ele>
        <time>1970-01-01T03:18:20Z</time>
      </trkpt>
      <trkpt lat="41.609291" lon="1.964693">
        <ele>440.00</ele>
        <time>1970-01-01T03:18:22Z</time>
      </trkpt>
      <trkpt lat="41.609312" lon="1.964685">
        <ele>440.40</ele>
        <time>1970-01-01T03:18:23Z</time>
      </trkpt>
      <trkpt lat="41.609334" lon="1.964682">
        <ele>440.60</ele>
        <time>1970-01-01T03:18:24Z</time>
      </trkpt>
      <trkpt lat="41.609354" lon="1.964683">
        <ele>441.00</ele>
        <time>1970-01-01T03:18:25Z</time>
      </trkpt>
      <trkpt lat="41.609373" lon="1.964684">
        <ele>441.20</ele>
        <time>1970-01-01T03:18:26Z</time>
      </trkpt>
      <trkpt lat="41.609393" lon="1.964685">
        <ele>441.40</ele>
        <time>1970-01-01T03:18:27Z</time>
      </trkpt>
      <trkpt lat="41.609413" lon="1.964685">
        <ele>441.60</ele>
        <time>1970-01-01T03:18:28Z</time>
      </trkpt>
      <trkpt lat="41.609452" lon="1.964677">
        <ele>442.00</ele>
        <time>1970-01-01T03:18:30Z</time>
      </trkpt>
      <trkpt lat="41.609472" lon="1.964670">
        <ele>442.40</ele>
        <time>1970-01-01T03:18:31Z</time>
      </trkpt>
      <trkpt lat="41.609492" lon="1.964666">
        <ele>442.80</ele>
        <time>1970-01-01T03:18:32Z</time>
      </trkpt>
      <trkpt lat="41.609529" lon="1.964665">
        <ele>443.20</ele>
        <time>1970-01-01T03:18:34Z</time>
      </trkpt>
      <trkpt lat="41.609548" lon="1.964662">
        <ele>443.40</ele>
        <time>1970-01-01T03:18:35Z</time>
      </trkpt>
      <trkpt lat="41.609567" lon="1.964658">
        <ele>443.80</ele>
        <time>1970-01-01T03:18:36Z</time>
      </trkpt>
      <trkpt lat="41.609603" lon="1.964647">
        <ele>444.20</ele>
        <time>1970-01-01T03:18:38Z</time>
      </trkpt>
      <trkpt lat="41.609622" lon="1.964642">
        <ele>444.60</ele>
        <time>1970-01-01T03:18:39Z</time>
      </trkpt>
      <trkpt lat="41.609641" lon="1.964637">
        <ele>444.80</ele>
        <time>1970-01-01T03:18:40Z</time>
      </trkpt>
      <trkpt lat="41.609683" lon="1.964639">
        <ele>445.40</ele>
        <time>1970-01-01T03:18:42Z</time>
      </trkpt>
      <trkpt lat="41.609703" lon="1.964639">
        <ele>445.60</ele>
        <time>1970-01-01T03:18:43Z</time>
      </trkpt>
      <trkpt lat="41.609724" lon="1.964638">
        <ele>446.00</ele>
        <time>1970-01-01T03:18:44Z</time>
      </trkpt>
      <trkpt lat="41.609743" lon="1.964640">
        <ele>446.20</ele>
        <time>1970-01-01T03:18:45Z</time>
      </trkpt>
      <trkpt lat="41.609764" lon="1.964642">
        <ele>446.40</ele>
        <time>1970-01-01T03:18:46Z</time>
      </trkpt>
      <trkpt lat="41.609782" lon="1.964645">
        <ele>446.80</ele>
        <time>1970-01-01T03:18:47Z</time>
      </trkpt>
      <trkpt lat="41.609796" lon="1.964655">
        <ele>446.80</ele>
        <time>1970-01-01T03:18:48Z</time>
      </trkpt>
      <trkpt lat="41.609811" lon="1.964664">
        <ele>447.00</ele>
        <time>1970-01-01T03:18:49Z</time>
      </trkpt>
      <trkpt lat="41.609828" lon="1.964672">
        <ele>447.20</ele>
        <time>1970-01-01T03:18:50Z</time>
      </trkpt>
      <trkpt lat="41.609845" lon="1.964681">
        <ele>447.40</ele>
        <time>1970-01-01T03:18:51Z</time>
      </trkpt>
      <trkpt lat="41.609863" lon="1.964689">
        <ele>447.60</ele>
        <time>1970-01-01T03:18:52Z</time>
      </trkpt>
      <trkpt lat="41.609881" lon="1.964695">
        <ele>447.80</ele>
        <time>1970-01-01T03:18:53Z</time>
      </trkpt>
      <trkpt lat="41.609900" lon="1.964703">
        <ele>448.00</ele>
        <time>1970-01-01T03:18:54Z</time>
      </trkpt>
      <trkpt lat="41.609936" lon="1.964717">
        <ele>448.60</ele>
        <time>1970-01-01T03:18:56Z</time>
      </trkpt>
      <trkpt lat="41.609953" lon="1.964726">
        <ele>448.80</ele>
        <time>1970-01-01T03:18:57Z</time>
      </trkpt>
      <trkpt lat="41.609969" lon="1.964736">
        <ele>449.20</ele>
        <time>1970-01-01T03:18:58Z</time>
      </trkpt>
      <trkpt lat="41.610002" lon="1.964757">
        <ele>450.00</ele>
        <time>1970-01-01T03:19:00Z</time>
      </trkpt>
      <trkpt lat="41.610038" lon="1.964776">
        <ele>450.40</ele>
        <time>1970-01-01T03:19:02Z</time>
      </trkpt>
      <trkpt lat="41.610076" lon="1.964788">
        <ele>451.00</ele>
        <time>1970-01-01T03:19:04Z</time>
      </trkpt>
      <trkpt lat="41.610096" lon="1.964789">
        <ele>451.20</ele>
        <time>1970-01-01T03:19:05Z</time>
      </trkpt>
      <trkpt lat="41.610119" lon="1.964791">
        <ele>451.20</ele>
        <time>1970-01-01T03:19:06Z</time>
      </trkpt>
      <trkpt lat="41.610163" lon="1.964784">
        <ele>451.60</ele>
        <time>1970-01-01T03:19:08Z</time>
      </trkpt>
      <trkpt lat="41.610206" lon="1.964770">
        <ele>452.20</ele>
        <time>1970-01-01T03:19:10Z</time>
      </trkpt>
      <trkpt lat="41.610246" lon="1.964740">
        <ele>452.60</ele>
        <time>1970-01-01T03:19:12Z</time>
      </trkpt>
      <trkpt lat="41.610264" lon="1.964723">
        <ele>452.80</ele>
        <time>1970-01-01T03:19:13Z</time>
      </trkpt>
      <trkpt lat="41.610281" lon="1.964706">
        <ele>453.00</ele>
        <time>1970-01-01T03:19:14Z</time>
      </trkpt>
      <trkpt lat="41.610296" lon="1.964686">
        <ele>453.20</ele>
        <time>1970-01-01T03:19:15Z</time>
      </trkpt>
      <trkpt lat="41.610309" lon="1.964662">
        <ele>453.40</ele>
        <time>1970-01-01T03:19:16Z</time>
      </trkpt>
      <trkpt lat="41.610331" lon="1.964612">
        <ele>453.60</ele>
        <time>1970-01-01T03:19:18Z</time>
      </trkpt>
      <trkpt lat="41.610353" lon="1.964559">
        <ele>454.00</ele>
        <time>1970-01-01T03:19:20Z</time>
      </trkpt>
      <trkpt lat="41.610364" lon="1.964532">
        <ele>454.40</ele>
        <time>1970-01-01T03:19:21Z</time>
      </trkpt>
      <trkpt lat="41.610373" lon="1.964503">
        <ele>454.60</ele>
        <time>1970-01-01T03:19:22Z</time>
      </trkpt>
      <trkpt lat="41.610389" lon="1.964443">
        <ele>454.80</ele>
        <time>1970-01-01T03:19:24Z</time>
      </trkpt>
      <trkpt lat="41.610404" lon="1.964382">
        <ele>455.00</ele>
        <time>1970-01-01T03:19:26Z</time>
      </trkpt>
      <trkpt lat="41.610418" lon="1.964322">
        <ele>455.20</ele>
        <time>1970-01-01T03:19:28Z</time>
      </trkpt>
      <trkpt lat="41.610433" lon="1.964261">
        <ele>455.60</ele>
        <time>1970-01-01T03:19:30Z</time>
      </trkpt>
      <trkpt lat="41.610453" lon="1.964199">
        <ele>456.20</ele>
        <time>1970-01-01T03:19:32Z</time>
      </trkpt>
      <trkpt lat="41.610474" lon="1.964135">
        <ele>456.40</ele>
        <time>1970-01-01T03:19:34Z</time>
      </trkpt>
      <trkpt lat="41.610490" lon="1.964074">
        <ele>456.80</ele>
        <time>1970-01-01T03:19:36Z</time>
      </trkpt>
      <trkpt lat="41.610508" lon="1.964015">
        <ele>457.00</ele>
        <time>1970-01-01T03:19:38Z</time>
      </trkpt>
      <trkpt lat="41.610524" lon="1.963960">
        <ele>457.20</ele>
        <time>1970-01-01T03:19:40Z</time>
      </trkpt>
      <trkpt lat="41.610549" lon="1.963911">
        <ele>457.60</ele>
        <time>1970-01-01T03:19:42Z</time>
      </trkpt>
      <trkpt lat="41.610564" lon="1.963891">
        <ele>457.80</ele>
        <time>1970-01-01T03:19:43Z</time>
      </trkpt>
      <trkpt lat="41.610580" lon="1.963872">
        <ele>458.00</ele>
        <time>1970-01-01T03:19:44Z</time>
      </trkpt>
      <trkpt lat="41.610615" lon="1.963843">
        <ele>458.40</ele>
        <time>1970-01-01T03:19:46Z</time>
      </trkpt>
      <trkpt lat="41.610650" lon="1.963831">
        <ele>458.80</ele>
        <time>1970-01-01T03:19:48Z</time>
      </trkpt>
      <trkpt lat="41.610667" lon="1.963833">
        <ele>459.00</ele>
        <time>1970-01-01T03:19:49Z</time>
      </trkpt>
      <trkpt lat="41.610683" lon="1.963836">
        <ele>459.20</ele>
        <time>1970-01-01T03:19:50Z</time>
      </trkpt>
      <trkpt lat="41.610718" lon="1.963858">
        <ele>459.60</ele>
        <time>1970-01-01T03:19:52Z</time>
      </trkpt>
      <trkpt lat="41.610743" lon="1.963889">
        <ele>460.00</ele>
        <time>1970-01-01T03:19:54Z</time>
      </trkpt>
      <trkpt lat="41.610767" lon="1.963916">
        <ele>460.60</ele>
        <time>1970-01-01T03:19:56Z</time>
      </trkpt>
      <trkpt lat="41.610795" lon="1.963944">
        <ele>461.40</ele>
        <time>1970-01-01T03:19:58Z</time>
      </trkpt>
      <trkpt lat="41.610824" lon="1.963979">
        <ele>462.00</ele>
        <time>1970-01-01T03:20:00Z</time>
      </trkpt>
      <trkpt lat="41.610839" lon="1.963994">
        <ele>462.00</ele>
        <time>1970-01-01T03:20:01Z</time>
      </trkpt>
      <trkpt lat="41.610851" lon="1.964006">
        <ele>462.20</ele>
        <time>1970-01-01T03:20:02Z</time>
      </trkpt>
      <trkpt lat="41.610874" lon="1.964028">
        <ele>463.00</ele>
        <time>1970-01-01T03:20:04Z</time>
      </trkpt>
      <trkpt lat="41.610904" lon="1.964044">
        <ele>463.40</ele>
        <time>1970-01-01T03:20:06Z</time>
      </trkpt>
      <trkpt lat="41.610921" lon="1.964055">
        <ele>463.60</ele>
        <time>1970-01-01T03:20:07Z</time>
      </trkpt>
      <trkpt lat="41.610938" lon="1.964064">
        <ele>464.00</ele>
        <time>1970-01-01T03:20:08Z</time>
      </trkpt>
      <trkpt lat="41.610975" lon="1.964078">
        <ele>464.40</ele>
        <time>1970-01-01T03:20:10Z</time>
      </trkpt>
      <trkpt lat="41.611015" lon="1.964084">
        <ele>464.80</ele>
        <time>1970-01-01T03:20:12Z</time>
      </trkpt>
      <trkpt lat="41.611056" lon="1.964076">
        <ele>465.40</ele>
        <time>1970-01-01T03:20:14Z</time>
      </trkpt>
      <trkpt lat="41.611076" lon="1.964067">
        <ele>465.60</ele>
        <time>1970-01-01T03:20:15Z</time>
      </trkpt>
      <trkpt lat="41.611096" lon="1.964056">
        <ele>466.00</ele>
        <time>1970-01-01T03:20:16Z</time>
      </trkpt>
      <trkpt lat="41.611134" lon="1.964032">
        <ele>466.40</ele>
        <time>1970-01-01T03:20:18Z</time>
      </trkpt>
      <trkpt lat="41.611169" lon="1.964008">
        <ele>466.80</ele>
        <time>1970-01-01T03:20:20Z</time>
      </trkpt>
      <trkpt lat="41.611186" lon="1.963993">
        <ele>467.20</ele>
        <time>1970-01-01T03:20:21Z</time>
      </trkpt>
      <trkpt lat="41.611204" lon="1.963979">
        <ele>467.40</ele>
        <time>1970-01-01T03:20:22Z</time>
      </trkpt>
      <trkpt lat="41.611238" lon="1.963954">
        <ele>467.80</ele>
        <time>1970-01-01T03:20:24Z</time>
      </trkpt>
      <trkpt lat="41.611253" lon="1.963939">
        <ele>468.00</ele>
        <time>1970-01-01T03:20:25Z</time>
      </trkpt>
      <trkpt lat="41.611270" lon="1.963927">
        <ele>468.20</ele>
        <time>1970-01-01T03:20:26Z</time>
      </trkpt>
      <trkpt lat="41.611306" lon="1.963908">
        <ele>469.20</ele>
        <time>1970-01-01T03:20:28Z</time>
      </trkpt>
      <trkpt lat="41.611339" lon="1.963898">
        <ele>469.60</ele>
        <time>1970-01-01T03:20:30Z</time>
      </trkpt>
      <trkpt lat="41.611368" lon="1.963877">
        <ele>470.00</ele>
        <time>1970-01-01T03:20:32Z</time>
      </trkpt>
      <trkpt lat="41.611385" lon="1.963867">
        <ele>470.20</ele>
        <time>1970-01-01T03:20:33Z</time>
      </trkpt>
      <trkpt lat="41.611400" lon="1.963855">
        <ele>470.40</ele>
        <time>1970-01-01T03:20:34Z</time>
      </trkpt>
      <trkpt lat="41.611429" lon="1.963829">
        <ele>471.00</ele>
        <time>1970-01-01T03:20:36Z</time>
      </trkpt>
      <trkpt lat="41.611458" lon="1.963799">
        <ele>471.60</ele>
        <time>1970-01-01T03:20:38Z</time>
      </trkpt>
      <trkpt lat="41.611485" lon="1.963760">
        <ele>472.00</ele>
        <time>1970-01-01T03:20:40Z</time>
      </trkpt>
      <trkpt lat="41.611507" lon="1.963710">
        <ele>472.60</ele>
        <time>1970-01-01T03:20:42Z</time>
      </trkpt>
      <trkpt lat="41.611517" lon="1.963685">
        <ele>472.80</ele>
        <time>1970-01-01T03:20:43Z</time>
      </trkpt>
      <trkpt lat="41.611527" lon="1.963661">
        <ele>472.80</ele>
        <time>1970-01-01T03:20:44Z</time>
      </trkpt>
      <trkpt lat="41.611554" lon="1.963613">
        <ele>473.00</ele>
        <time>1970-01-01T03:20:46Z</time>
      </trkpt>
      <trkpt lat="41.611570" lon="1.963563">
        <ele>473.40</ele>
        <time>1970-01-01T03:20:48Z</time>
      </trkpt>
      <trkpt lat="41.611572" lon="1.963509">
        <ele>473.80</ele>
        <time>1970-01-01T03:20:50Z</time>
      </trkpt>
      <trkpt lat="41.611572" lon="1.963483">
        <ele>474.00</ele>
        <time>1970-01-01T03:20:51Z</time>
      </trkpt>
      <trkpt lat="41.611569" lon="1.963458">
        <ele>474.20</ele>
        <time>1970-01-01T03:20:52Z</time>
      </trkpt>
      <trkpt lat="41.611561" lon="1.963411">
        <ele>474.60</ele>
        <time>1970-01-01T03:20:54Z</time>
      </trkpt>
      <trkpt lat="41.611552" lon="1.963364">
        <ele>475.20</ele>
        <time>1970-01-01T03:20:56Z</time>
      </trkpt>
      <trkpt lat="41.611552" lon="1.963315">
        <ele>475.60</ele>
        <time>1970-01-01T03:20:58Z</time>
      </trkpt>
      <trkpt lat="41.611540" lon="1.963271">
        <ele>475.80</ele>
        <time>1970-01-01T03:21:00Z</time>
      </trkpt>
      <trkpt lat="41.611529" lon="1.963233">
        <ele>476.20</ele>
        <time>1970-01-01T03:21:02Z</time>
      </trkpt>
      <trkpt lat="41.611524" lon="1.963192">
        <ele>476.60</ele>
        <time>1970-01-01T03:21:04Z</time>
      </trkpt>
      <trkpt lat="41.611522" lon="1.963172">
        <ele>476.80</ele>
        <time>1970-01-01T03:21:05Z</time>
      </trkpt>
      <trkpt lat="41.611522" lon="1.963152">
        <ele>477.00</ele>
        <time>1970-01-01T03:21:06Z</time>
      </trkpt>
      <trkpt lat="41.611520" lon="1.963108">
        <ele>477.40</ele>
        <time>1970-01-01T03:21:08Z</time>
      </trkpt>
      <trkpt lat="41.611521" lon="1.963066">
        <ele>477.80</ele>
        <time>1970-01-01T03:21:10Z</time>
      </trkpt>
      <trkpt lat="41.611523" lon="1.963023">
        <ele>478.40</ele>
        <time>1970-01-01T03:21:12Z</time>
      </trkpt>
      <trkpt lat="41.611524" lon="1.962984">
        <ele>478.60</ele>
        <time>1970-01-01T03:21:14Z</time>
      </trkpt>
      <trkpt lat="41.611531" lon="1.962946">
        <ele>479.00</ele>
        <time>1970-01-01T03:21:16Z</time>
      </trkpt>
      <trkpt lat="41.611540" lon="1.962906">
        <ele>479.40</ele>
        <time>1970-01-01T03:21:18Z</time>
      </trkpt>
      <trkpt lat="41.611553" lon="1.962872">
        <ele>480.00</ele>
        <time>1970-01-01T03:21:20Z</time>
      </trkpt>
      <trkpt lat="41.611563" lon="1.962853">
        <ele>480.20</ele>
        <time>1970-01-01T03:21:21Z</time>
      </trkpt>
      <trkpt lat="41.611569" lon="1.962832">
        <ele>480.40</ele>
        <time>1970-01-01T03:21:22Z</time>
      </trkpt>
      <trkpt lat="41.611573" lon="1.962813">
        <ele>480.60</ele>
        <time>1970-01-01T03:21:23Z</time>
      </trkpt>
      <trkpt lat="41.611576" lon="1.962795">
        <ele>480.80</ele>
        <time>1970-01-01T03:21:24Z</time>
      </trkpt>
      <trkpt lat="41.611583" lon="1.962759">
        <ele>481.40</ele>
        <time>1970-01-01T03:21:26Z</time>
      </trkpt>
      <trkpt lat="41.611587" lon="1.962740">
        <ele>481.80</ele>
        <time>1970-01-01T03:21:27Z</time>
      </trkpt>
      <trkpt lat="41.611590" lon="1.962722">
        <ele>481.80</ele>
        <time>1970-01-01T03:21:28Z</time>
      </trkpt>
      <trkpt lat="41.611590" lon="1.962680">
        <ele>482.00</ele>
        <time>1970-01-01T03:21:30Z</time>
      </trkpt>
      <trkpt lat="41.611582" lon="1.962638">
        <ele>482.40</ele>
        <time>1970-01-01T03:21:32Z</time>
      </trkpt>
      <trkpt lat="41.611569" lon="1.962598">
        <ele>483.00</ele>
        <time>1970-01-01T03:21:34Z</time>
      </trkpt>
      <trkpt lat="41.611547" lon="1.962562">
        <ele>483.40</ele>
        <time>1970-01-01T03:21:36Z</time>
      </trkpt>
      <trkpt lat="41.611518" lon="1.962530">
        <ele>483.80</ele>
        <time>1970-01-01T03:21:38Z</time>
      </trkpt>
      <trkpt lat="41.611507" lon="1.962511">
        <ele>484.00</ele>
        <time>1970-01-01T03:21:39Z</time>
      </trkpt>
      <trkpt lat="41.611496" lon="1.962492">
        <ele>484.20</ele>
        <time>1970-01-01T03:21:40Z</time>
      </trkpt>
      <trkpt lat="41.611473" lon="1.962453">
        <ele>484.60</ele>
        <time>1970-01-01T03:21:42Z</time>
      </trkpt>
      <trkpt lat="41.611455" lon="1.962409">
        <ele>485.00</ele>
        <time>1970-01-01T03:21:44Z</time>
      </trkpt>
      <trkpt lat="41.611447" lon="1.962386">
        <ele>485.00</ele>
        <time>1970-01-01T03:21:45Z</time>
      </trkpt>
      <trkpt lat="41.611440" lon="1.962362">
        <ele>485.20</ele>
        <time>1970-01-01T03:21:46Z</time>
      </trkpt>
      <trkpt lat="41.611434" lon="1.962337">
        <ele>485.40</ele>
        <time>1970-01-01T03:21:47Z</time>
      </trkpt>
      <trkpt lat="41.611429" lon="1.962313">
        <ele>485.60</ele>
        <time>1970-01-01T03:21:48Z</time>
      </trkpt>
      <trkpt lat="41.611428" lon="1.962262">
        <ele>486.00</ele>
        <time>1970-01-01T03:21:50Z</time>
      </trkpt>
      <trkpt lat="41.611433" lon="1.962235">
        <ele>486.20</ele>
        <time>1970-01-01T03:21:51Z</time>
      </trkpt>
      <trkpt lat="41.611439" lon="1.962207">
        <ele>486.40</ele>
        <time>1970-01-01T03:21:52Z</time>
      </trkpt>
      <trkpt lat="41.611447" lon="1.962177">
        <ele>486.60</ele>
        <time>1970-01-01T03:21:53Z</time>
      </trkpt>
      <trkpt lat="41.611454" lon="1.962148">
        <ele>487.20</ele>
        <time>1970-01-01T03:21:54Z</time>
      </trkpt>
      <trkpt lat="41.611463" lon="1.962121">
        <ele>487.40</ele>
        <time>1970-01-01T03:21:55Z</time>
      </trkpt>
      <trkpt lat="41.611476" lon="1.962098">
        <ele>487.60</ele>
        <time>1970-01-01T03:21:56Z</time>
      </trkpt>
      <trkpt lat="41.611510" lon="1.962061">
        <ele>488.00</ele>
        <time>1970-01-01T03:21:58Z</time>
      </trkpt>
      <trkpt lat="41.611528" lon="1.962046">
        <ele>488.20</ele>
        <time>1970-01-01T03:21:59Z</time>
      </trkpt>
      <trkpt lat="41.611548" lon="1.962034">
        <ele>488.20</ele>
        <time>1970-01-01T03:22:00Z</time>
      </trkpt>
      <trkpt lat="41.611569" lon="1.962025">
        <ele>488.40</ele>
        <time>1970-01-01T03:22:01Z</time>
      </trkpt>
      <trkpt lat="41.611587" lon="1.962016">
        <ele>488.60</ele>
        <time>1970-01-01T03:22:02Z</time>
      </trkpt>
      <trkpt lat="41.611621" lon="1.961999">
        <ele>489.00</ele>
        <time>1970-01-01T03:22:04Z</time>
      </trkpt>
      <trkpt lat="41.611656" lon="1.961979">
        <ele>489.20</ele>
        <time>1970-01-01T03:22:06Z</time>
      </trkpt>
      <trkpt lat="41.611675" lon="1.961967">
        <ele>489.60</ele>
        <time>1970-01-01T03:22:07Z</time>
      </trkpt>
      <trkpt lat="41.611692" lon="1.961958">
        <ele>489.80</ele>
        <time>1970-01-01T03:22:08Z</time>
      </trkpt>
      <trkpt lat="41.611725" lon="1.961940">
        <ele>490.20</ele>
        <time>1970-01-01T03:22:10Z</time>
      </trkpt>
      <trkpt lat="41.611743" lon="1.961935">
        <ele>490.40</ele>
        <time>1970-01-01T03:22:11Z</time>
      </trkpt>
      <trkpt lat="41.611764" lon="1.961933">
        <ele>490.80</ele>
        <time>1970-01-01T03:22:12Z</time>
      </trkpt>
      <trkpt lat="41.611807" lon="1.961931">
        <ele>491.40</ele>
        <time>1970-01-01T03:22:14Z</time>
      </trkpt>
      <trkpt lat="41.611828" lon="1.961931">
        <ele>491.60</ele>
        <time>1970-01-01T03:22:15Z</time>
      </trkpt>
      <trkpt lat="41.611849" lon="1.961930">
        <ele>492.00</ele>
        <time>1970-01-01T03:22:16Z</time>
      </trkpt>
      <trkpt lat="41.611892" lon="1.961934">
        <ele>492.60</ele>
        <time>1970-01-01T03:22:18Z</time>
      </trkpt>
      <trkpt lat="41.611913" lon="1.961936">
        <ele>492.80</ele>
        <time>1970-01-01T03:22:19Z</time>
      </trkpt>
      <trkpt lat="41.611933" lon="1.961938">
        <ele>493.20</ele>
        <time>1970-01-01T03:22:20Z</time>
      </trkpt>
      <trkpt lat="41.611975" lon="1.961942">
        <ele>493.40</ele>
        <time>1970-01-01T03:22:22Z</time>
      </trkpt>
      <trkpt lat="41.612018" lon="1.961943">
        <ele>494.00</ele>
        <time>1970-01-01T03:22:24Z</time>
      </trkpt>
      <trkpt lat="41.612058" lon="1.961937">
        <ele>494.40</ele>
        <time>1970-01-01T03:22:26Z</time>
      </trkpt>
      <trkpt lat="41.612093" lon="1.961926">
        <ele>494.80</ele>
        <time>1970-01-01T03:22:28Z</time>
      </trkpt>
      <trkpt lat="41.612111" lon="1.961918">
        <ele>495.00</ele>
        <time>1970-01-01T03:22:29Z</time>
      </trkpt>
      <trkpt lat="41.612128" lon="1.961909">
        <ele>495.20</ele>
        <time>1970-01-01T03:22:30Z</time>
      </trkpt>
      <trkpt lat="41.612160" lon="1.961884">
        <ele>495.40</ele>
        <time>1970-01-01T03:22:32Z</time>
      </trkpt>
      <trkpt lat="41.612190" lon="1.961855">
        <ele>495.80</ele>
        <time>1970-01-01T03:22:34Z</time>
      </trkpt>
      <trkpt lat="41.612221" lon="1.961816">
        <ele>496.20</ele>
        <time>1970-01-01T03:22:36Z</time>
      </trkpt>
      <trkpt lat="41.612235" lon="1.961793">
        <ele>496.40</ele>
        <time>1970-01-01T03:22:37Z</time>
      </trkpt>
      <trkpt lat="41.612247" lon="1.961768">
        <ele>496.80</ele>
        <time>1970-01-01T03:22:38Z</time>
      </trkpt>
      <trkpt lat="41.612262" lon="1.961713">
        <ele>497.20</ele>
        <time>1970-01-01T03:22:40Z</time>
      </trkpt>
      <trkpt lat="41.612270" lon="1.961686">
        <ele>497.40</ele>
        <time>1970-01-01T03:22:41Z</time>
      </trkpt>
      <trkpt lat="41.612277" lon="1.961659">
        <ele>497.60</ele>
        <time>1970-01-01T03:22:42Z</time>
      </trkpt>
      <trkpt lat="41.612285" lon="1.961631">
        <ele>497.80</ele>
        <time>1970-01-01T03:22:43Z</time>
      </trkpt>
      <trkpt lat="41.612296" lon="1.961603">
        <ele>498.00</ele>
        <time>1970-01-01T03:22:44Z</time>
      </trkpt>
      <trkpt lat="41.612319" lon="1.961555">
        <ele>498.40</ele>
        <time>1970-01-01T03:22:46Z</time>
      </trkpt>
      <trkpt lat="41.612328" lon="1.961507">
        <ele>499.00</ele>
        <time>1970-01-01T03:22:48Z</time>
      </trkpt>
      <trkpt lat="41.612332" lon="1.961482">
        <ele>499.20</ele>
        <time>1970-01-01T03:22:49Z</time>
      </trkpt>
      <trkpt lat="41.612336" lon="1.961459">
        <ele>499.40</ele>
        <time>1970-01-01T03:22:50Z</time>
      </trkpt>
      <trkpt lat="41.612341" lon="1.961413">
        <ele>499.80</ele>
        <time>1970-01-01T03:22:52Z</time>
      </trkpt>
      <trkpt lat="41.612343" lon="1.961361">
        <ele>500.40</ele>
        <time>1970-01-01T03:22:54Z</time>
      </trkpt>
      <trkpt lat="41.612338" lon="1.961310">
        <ele>501.00</ele>
        <time>1970-01-01T03:22:56Z</time>
      </trkpt>
      <trkpt lat="41.612334" lon="1.961284">
        <ele>501.20</ele>
        <time>1970-01-01T03:22:57Z</time>
      </trkpt>
      <trkpt lat="41.612329" lon="1.961260">
        <ele>501.40</ele>
        <time>1970-01-01T03:22:58Z</time>
      </trkpt>
      <trkpt lat="41.612311" lon="1.961212">
        <ele>501.80</ele>
        <time>1970-01-01T03:23:00Z</time>
      </trkpt>
      <trkpt lat="41.612290" lon="1.961168">
        <ele>502.00</ele>
        <time>1970-01-01T03:23:02Z</time>
      </trkpt>
      <trkpt lat="41.612276" lon="1.961148">
        <ele>502.20</ele>
        <time>1970-01-01T03:23:03Z</time>
      </trkpt>
      <trkpt lat="41.612261" lon="1.961132">
        <ele>502.40</ele>
        <time>1970-01-01T03:23:04Z</time>
      </trkpt>
      <trkpt lat="41.612230" lon="1.961101">
        <ele>502.60</ele>
        <time>1970-01-01T03:23:06Z</time>
      </trkpt>
      <trkpt lat="41.612194" lon="1.961076">
        <ele>503.00</ele>
        <time>1970-01-01T03:23:08Z</time>
      </trkpt>
      <trkpt lat="41.612174" lon="1.961066">
        <ele>503.20</ele>
        <time>1970-01-01T03:23:09Z</time>
      </trkpt>
      <trkpt lat="41.612153" lon="1.961056">
        <ele>503.20</ele>
        <time>1970-01-01T03:23:10Z</time>
      </trkpt>
      <trkpt lat="41.612111" lon="1.961038">
        <ele>503.60</ele>
        <time>1970-01-01T03:23:12Z</time>
      </trkpt>
      <trkpt lat="41.612072" lon="1.961016">
        <ele>504.00</ele>
        <time>1970-01-01T03:23:14Z</time>
      </trkpt>
      <trkpt lat="41.612052" lon="1.961008">
        <ele>504.20</ele>
        <time>1970-01-01T03:23:15Z</time>
      </trkpt>
      <trkpt lat="41.612032" lon="1.961005">
        <ele>504.60</ele>
        <time>1970-01-01T03:23:16Z</time>
      </trkpt>
      <trkpt lat="41.612010" lon="1.961004">
        <ele>504.80</ele>
        <time>1970-01-01T03:23:17Z</time>
      </trkpt>
      <trkpt lat="41.611987" lon="1.961002">
        <ele>504.80</ele>
        <time>1970-01-01T03:23:18Z</time>
      </trkpt>
      <trkpt lat="41.611946" lon="1.960993">
        <ele>505.00</ele>
        <time>1970-01-01T03:23:20Z</time>
      </trkpt>
      <trkpt lat="41.611925" lon="1.960993">
        <ele>505.60</ele>
        <time>1970-01-01T03:23:21Z</time>
      </trkpt>
      <trkpt lat="41.611905" lon="1.960994">
        <ele>505.60</ele>
        <time>1970-01-01T03:23:22Z</time>
      </trkpt>
      <trkpt lat="41.611861" lon="1.960997">
        <ele>506.00</ele>
        <time>1970-01-01T03:23:24Z</time>
      </trkpt>
      <trkpt lat="41.611836" lon="1.960995">
        <ele>506.00</ele>
        <time>1970-01-01T03:23:25Z</time>
      </trkpt>
      <trkpt lat="41.611812" lon="1.960994">
        <ele>506.20</ele>
        <time>1970-01-01T03:23:26Z</time>
      </trkpt>
      <trkpt lat="41.611764" lon="1.960989">
        <ele>506.60</ele>
        <time>1970-01-01T03:23:28Z</time>
      </trkpt>
      <trkpt lat="41.611719" lon="1.960980">
        <ele>506.80</ele>
        <time>1970-01-01T03:23:30Z</time>
      </trkpt>
      <trkpt lat="41.611681" lon="1.960968">
        <ele>507.00</ele>
        <time>1970-01-01T03:23:32Z</time>
      </trkpt>
      <trkpt lat="41.611640" lon="1.960956">
        <ele>507.40</ele>
        <time>1970-01-01T03:23:34Z</time>
      </trkpt>
      <trkpt lat="41.611620" lon="1.960948">
        <ele>507.60</ele>
        <time>1970-01-01T03:23:35Z</time>
      </trkpt>
      <trkpt lat="41.611602" lon="1.960940">
        <ele>508.00</ele>
        <time>1970-01-01T03:23:36Z</time>
      </trkpt>
      <trkpt lat="41.611565" lon="1.960921">
        <ele>508.40</ele>
        <time>1970-01-01T03:23:38Z</time>
      </trkpt>
      <trkpt lat="41.611547" lon="1.960910">
        <ele>508.60</ele>
        <time>1970-01-01T03:23:39Z</time>
      </trkpt>
      <trkpt lat="41.611528" lon="1.960901">
        <ele>509.00</ele>
        <time>1970-01-01T03:23:40Z</time>
      </trkpt>
      <trkpt lat="41.611490" lon="1.960888">
        <ele>509.20</ele>
        <time>1970-01-01T03:23:42Z</time>
      </trkpt>
      <trkpt lat="41.611452" lon="1.960881">
        <ele>509.60</ele>
        <time>1970-01-01T03:23:44Z</time>
      </trkpt>
      <trkpt lat="41.611432" lon="1.960882">
        <ele>510.00</ele>
        <time>1970-01-01T03:23:45Z</time>
      </trkpt>
      <trkpt lat="41.611411" lon="1.960884">
        <ele>510.00</ele>
        <time>1970-01-01T03:23:46Z</time>
      </trkpt>
      <trkpt lat="41.611359" lon="1.960898">
        <ele>510.60</ele>
        <time>1970-01-01T03:23:48Z</time>
      </trkpt>
      <trkpt lat="41.611333" lon="1.960904">
        <ele>510.80</ele>
        <time>1970-01-01T03:23:49Z</time>
      </trkpt>
      <trkpt lat="41.611308" lon="1.960909">
        <ele>511.40</ele>
        <time>1970-01-01T03:23:50Z</time>
      </trkpt>
      <trkpt lat="41.611262" lon="1.960919">
        <ele>511.80</ele>
        <time>1970-01-01T03:23:52Z</time>
      </trkpt>
      <trkpt lat="41.611219" lon="1.960932">
        <ele>512.20</ele>
        <time>1970-01-01T03:23:54Z</time>
      </trkpt>
      <trkpt lat="41.611198" lon="1.960938">
        <ele>512.40</ele>
        <time>1970-01-01T03:23:55Z</time>
      </trkpt>
      <trkpt lat="41.611177" lon="1.960946">
        <ele>512.60</ele>
        <time>1970-01-01T03:23:56Z</time>
      </trkpt>
      <trkpt lat="41.611155" lon="1.960950">
        <ele>512.60</ele>
        <time>1970-01-01T03:23:57Z</time>
      </trkpt>
      <trkpt lat="41.611131" lon="1.960948">
        <ele>512.80</ele>
        <time>1970-01-01T03:23:58Z</time>
      </trkpt>
      <trkpt lat="41.611085" lon="1.960936">
        <ele>513.20</ele>
        <time>1970-01-01T03:24:00Z</time>
      </trkpt>
      <trkpt lat="41.611045" lon="1.960913">
        <ele>513.60</ele>
        <time>1970-01-01T03:24:02Z</time>
      </trkpt>
      <trkpt lat="41.611016" lon="1.960882">
        <ele>514.00</ele>
        <time>1970-01-01T03:24:04Z</time>
      </trkpt>
      <trkpt lat="41.610998" lon="1.960840">
        <ele>514.20</ele>
        <time>1970-01-01T03:24:06Z</time>
      </trkpt>
      <trkpt lat="41.610988" lon="1.960786">
        <ele>514.60</ele>
        <time>1970-01-01T03:24:08Z</time>
      </trkpt>
      <trkpt lat="41.610981" lon="1.960757">
        <ele>514.80</ele>
        <time>1970-01-01T03:24:09Z</time>
      </trkpt>
      <trkpt lat="41.610974" lon="1.960729">
        <ele>514.80</ele>
        <time>1970-01-01T03:24:10Z</time>
      </trkpt>
      <trkpt lat="41.610957" lon="1.960679">
        <ele>515.20</ele>
        <time>1970-01-01T03:24:12Z</time>
      </trkpt>
      <trkpt lat="41.610935" lon="1.960635">
        <ele>515.60</ele>
        <time>1970-01-01T03:24:14Z</time>
      </trkpt>
      <trkpt lat="41.610922" lon="1.960613">
        <ele>515.80</ele>
        <time>1970-01-01T03:24:15Z</time>
      </trkpt>
      <trkpt lat="41.610906" lon="1.960589">
        <ele>516.00</ele>
        <time>1970-01-01T03:24:16Z</time>
      </trkpt>
      <trkpt lat="41.610890" lon="1.960568">
        <ele>516.20</ele>
        <time>1970-01-01T03:24:17Z</time>
      </trkpt>
      <trkpt lat="41.610872" lon="1.960549">
        <ele>516.20</ele>
        <time>1970-01-01T03:24:18Z</time>
      </trkpt>
      <trkpt lat="41.610853" lon="1.960531">
        <ele>517.00</ele>
        <time>1970-01-01T03:24:19Z</time>
      </trkpt>
      <trkpt lat="41.610833" lon="1.960513">
        <ele>517.60</ele>
        <time>1970-01-01T03:24:20Z</time>
      </trkpt>
      <trkpt lat="41.610793" lon="1.960477">
        <ele>518.40</ele>
        <time>1970-01-01T03:24:22Z</time>
      </trkpt>
      <trkpt lat="41.610749" lon="1.960446">
        <ele>518.60</ele>
        <time>1970-01-01T03:24:24Z</time>
      </trkpt>
      <trkpt lat="41.610724" lon="1.960432">
        <ele>518.60</ele>
        <time>1970-01-01T03:24:25Z</time>
      </trkpt>
      <trkpt lat="41.610700" lon="1.960416">
        <ele>518.80</ele>
        <time>1970-01-01T03:24:26Z</time>
      </trkpt>
      <trkpt lat="41.610655" lon="1.960387">
        <ele>519.00</ele>
        <time>1970-01-01T03:24:28Z</time>
      </trkpt>
      <trkpt lat="41.610611" lon="1.960362">
        <ele>519.40</ele>
        <time>1970-01-01T03:24:30Z</time>
      </trkpt>
      <trkpt lat="41.610587" lon="1.960348">
        <ele>519.40</ele>
        <time>1970-01-01T03:24:31Z</time>
      </trkpt>
      <trkpt lat="41.610564" lon="1.960332">
        <ele>519.40</ele>
        <time>1970-01-01T03:24:32Z</time>
      </trkpt>
      <trkpt lat="41.610521" lon="1.960299">
        <ele>519.60</ele>
        <time>1970-01-01T03:24:34Z</time>
      </trkpt>
      <trkpt lat="41.610477" lon="1.960265">
        <ele>519.80</ele>
        <time>1970-01-01T03:24:36Z</time>
      </trkpt>
      <trkpt lat="41.610431" lon="1.960232">
        <ele>520.00</ele>
        <time>1970-01-01T03:24:38Z</time>
      </trkpt>
      <trkpt lat="41.610386" lon="1.960192">
        <ele>520.20</ele>
        <time>1970-01-01T03:24:40Z</time>
      </trkpt>
      <trkpt lat="41.610343" lon="1.960148">
        <ele>520.40</ele>
        <time>1970-01-01T03:24:42Z</time>
      </trkpt>
      <trkpt lat="41.610305" lon="1.960105">
        <ele>520.60</ele>
        <time>1970-01-01T03:24:44Z</time>
      </trkpt>
      <trkpt lat="41.610272" lon="1.960060">
        <ele>520.80</ele>
        <time>1970-01-01T03:24:46Z</time>
      </trkpt>
      <trkpt lat="41.610238" lon="1.960014">
        <ele>521.00</ele>
        <time>1970-01-01T03:24:48Z</time>
      </trkpt>
      <trkpt lat="41.610220" lon="1.959994">
        <ele>521.40</ele>
        <time>1970-01-01T03:24:49Z</time>
      </trkpt>
      <trkpt lat="41.610201" lon="1.959976">
        <ele>521.60</ele>
        <time>1970-01-01T03:24:50Z</time>
      </trkpt>
      <trkpt lat="41.610161" lon="1.959941">
        <ele>522.00</ele>
        <time>1970-01-01T03:24:52Z</time>
      </trkpt>
      <trkpt lat="41.610126" lon="1.959901">
        <ele>522.40</ele>
        <time>1970-01-01T03:24:54Z</time>
      </trkpt>
      <trkpt lat="41.610088" lon="1.959871">
        <ele>522.60</ele>
        <time>1970-01-01T03:24:56Z</time>
      </trkpt>
      <trkpt lat="41.610055" lon="1.959837">
        <ele>522.80</ele>
        <time>1970-01-01T03:24:58Z</time>
      </trkpt>
      <trkpt lat="41.610025" lon="1.959799">
        <ele>523.20</ele>
        <time>1970-01-01T03:25:00Z</time>
      </trkpt>
      <trkpt lat="41.610008" lon="1.959780">
        <ele>523.40</ele>
        <time>1970-01-01T03:25:01Z</time>
      </trkpt>
      <trkpt lat="41.609990" lon="1.959761">
        <ele>523.60</ele>
        <time>1970-01-01T03:25:02Z</time>
      </trkpt>
      <trkpt lat="41.609972" lon="1.959738">
        <ele>523.80</ele>
        <time>1970-01-01T03:25:03Z</time>
      </trkpt>
      <trkpt lat="41.609957" lon="1.959714">
        <ele>523.80</ele>
        <time>1970-01-01T03:25:04Z</time>
      </trkpt>
      <trkpt lat="41.609928" lon="1.959666">
        <ele>524.20</ele>
        <time>1970-01-01T03:25:06Z</time>
      </trkpt>
      <trkpt lat="41.609913" lon="1.959643">
        <ele>524.60</ele>
        <time>1970-01-01T03:25:07Z</time>
      </trkpt>
      <trkpt lat="41.609895" lon="1.959622">
        <ele>524.80</ele>
        <time>1970-01-01T03:25:08Z</time>
      </trkpt>
      <trkpt lat="41.609860" lon="1.959577">
        <ele>525.00</ele>
        <time>1970-01-01T03:25:10Z</time>
      </trkpt>
      <trkpt lat="41.609842" lon="1.959558">
        <ele>525.20</ele>
        <time>1970-01-01T03:25:11Z</time>
      </trkpt>
      <trkpt lat="41.609823" lon="1.959544">
        <ele>525.40</ele>
        <time>1970-01-01T03:25:12Z</time>
      </trkpt>
      <trkpt lat="41.609802" lon="1.959532">
        <ele>525.60</ele>
        <time>1970-01-01T03:25:13Z</time>
      </trkpt>
      <trkpt lat="41.609782" lon="1.959519">
        <ele>525.80</ele>
        <time>1970-01-01T03:25:14Z</time>
      </trkpt>
      <trkpt lat="41.609740" lon="1.959492">
        <ele>526.40</ele>
        <time>1970-01-01T03:25:16Z</time>
      </trkpt>
      <trkpt lat="41.609720" lon="1.959479">
        <ele>527.00</ele>
        <time>1970-01-01T03:25:17Z</time>
      </trkpt>
      <trkpt lat="41.609700" lon="1.959467">
        <ele>527.20</ele>
        <time>1970-01-01T03:25:18Z</time>
      </trkpt>
      <trkpt lat="41.609660" lon="1.959441">
        <ele>527.80</ele>
        <time>1970-01-01T03:25:20Z</time>
      </trkpt>
      <trkpt lat="41.609622" lon="1.959414">
        <ele>528.00</ele>
        <time>1970-01-01T03:25:22Z</time>
      </trkpt>
      <trkpt lat="41.609587" lon="1.959388">
        <ele>528.60</ele>
        <time>1970-01-01T03:25:24Z</time>
      </trkpt>
      <trkpt lat="41.609553" lon="1.959359">
        <ele>529.00</ele>
        <time>1970-01-01T03:25:26Z</time>
      </trkpt>
      <trkpt lat="41.609539" lon="1.959344">
        <ele>529.20</ele>
        <time>1970-01-01T03:25:27Z</time>
      </trkpt>
      <trkpt lat="41.609525" lon="1.959328">
        <ele>529.40</ele>
        <time>1970-01-01T03:25:28Z</time>
      </trkpt>
      <trkpt lat="41.609498" lon="1.959290">
        <ele>529.80</ele>
        <time>1970-01-01T03:25:30Z</time>
      </trkpt>
      <trkpt lat="41.609469" lon="1.959245">
        <ele>530.20</ele>
        <time>1970-01-01T03:25:32Z</time>
      </trkpt>
      <trkpt lat="41.609456" lon="1.959222">
        <ele>530.60</ele>
        <time>1970-01-01T03:25:33Z</time>
      </trkpt>
      <trkpt lat="41.609445" lon="1.959197">
        <ele>530.80</ele>
        <time>1970-01-01T03:25:34Z</time>
      </trkpt>
      <trkpt lat="41.609436" lon="1.959146">
        <ele>530.80</ele>
        <time>1970-01-01T03:25:36Z</time>
      </trkpt>
      <trkpt lat="41.609434" lon="1.959092">
        <ele>531.00</ele>
        <time>1970-01-01T03:25:38Z</time>
      </trkpt>
      <trkpt lat="41.609438" lon="1.959063">
        <ele>531.20</ele>
        <time>1970-01-01T03:25:39Z</time>
      </trkpt>
      <trkpt lat="41.609443" lon="1.959034">
        <ele>531.40</ele>
        <time>1970-01-01T03:25:40Z</time>
      </trkpt>
      <trkpt lat="41.609448" lon="1.959005">
        <ele>531.60</ele>
        <time>1970-01-01T03:25:41Z</time>
      </trkpt>
      <trkpt lat="41.609451" lon="1.958975">
        <ele>532.00</ele>
        <time>1970-01-01T03:25:42Z</time>
      </trkpt>
      <trkpt lat="41.609454" lon="1.958915">
        <ele>532.60</ele>
        <time>1970-01-01T03:25:44Z</time>
      </trkpt>
      <trkpt lat="41.609456" lon="1.958886">
        <ele>533.00</ele>
        <time>1970-01-01T03:25:45Z</time>
      </trkpt>
      <trkpt lat="41.609454" lon="1.958857">
        <ele>533.00</ele>
        <time>1970-01-01T03:25:46Z</time>
      </trkpt>
      <trkpt lat="41.609448" lon="1.958799">
        <ele>533.40</ele>
        <time>1970-01-01T03:25:48Z</time>
      </trkpt>
      <trkpt lat="41.609444" lon="1.958738">
        <ele>533.80</ele>
        <time>1970-01-01T03:25:50Z</time>
      </trkpt>
      <trkpt lat="41.609441" lon="1.958708">
        <ele>534.20</ele>
        <time>1970-01-01T03:25:51Z</time>
      </trkpt>
      <trkpt lat="41.609439" lon="1.958677">
        <ele>534.40</ele>
        <time>1970-01-01T03:25:52Z</time>
      </trkpt>
      <trkpt lat="41.609432" lon="1.958617">
        <ele>535.00</ele>
        <time>1970-01-01T03:25:54Z</time>
      </trkpt>
      <trkpt lat="41.609427" lon="1.958590">
        <ele>535.00</ele>
        <time>1970-01-01T03:25:55Z</time>
      </trkpt>
      <trkpt lat="41.609424" lon="1.958562">
        <ele>535.40</ele>
        <time>1970-01-01T03:25:56Z</time>
      </trkpt>
      <trkpt lat="41.609419" lon="1.958506">
        <ele>535.40</ele>
        <time>1970-01-01T03:25:58Z</time>
      </trkpt>
      <trkpt lat="41.609424" lon="1.958449">
        <ele>535.60</ele>
        <time>1970-01-01T03:26:00Z</time>
      </trkpt>
      <trkpt lat="41.609437" lon="1.958392">
        <ele>536.00</ele>
        <time>1970-01-01T03:26:02Z</time>
      </trkpt>
      <trkpt lat="41.609445" lon="1.958363">
        <ele>536.20</ele>
        <time>1970-01-01T03:26:03Z</time>
      </trkpt>
      <trkpt lat="41.609457" lon="1.958335">
        <ele>536.40</ele>
        <time>1970-01-01T03:26:04Z</time>
      </trkpt>
      <trkpt lat="41.609487" lon="1.958288">
        <ele>536.60</ele>
        <time>1970-01-01T03:26:06Z</time>
      </trkpt>
      <trkpt lat="41.609520" lon="1.958250">
        <ele>536.80</ele>
        <time>1970-01-01T03:26:08Z</time>
      </trkpt>
      <trkpt lat="41.609537" lon="1.958230">
        <ele>537.00</ele>
        <time>1970-01-01T03:26:09Z</time>
      </trkpt>
      <trkpt lat="41.609554" lon="1.958213">
        <ele>537.20</ele>
        <time>1970-01-01T03:26:10Z</time>
      </trkpt>
      <trkpt lat="41.609589" lon="1.958179">
        <ele>537.60</ele>
        <time>1970-01-01T03:26:12Z</time>
      </trkpt>
      <trkpt lat="41.609625" lon="1.958150">
        <ele>538.20</ele>
        <time>1970-01-01T03:26:14Z</time>
      </trkpt>
      <trkpt lat="41.609645" lon="1.958136">
        <ele>538.20</ele>
        <time>1970-01-01T03:26:15Z</time>
      </trkpt>
      <trkpt lat="41.609663" lon="1.958120">
        <ele>538.40</ele>
        <time>1970-01-01T03:26:16Z</time>
      </trkpt>
      <trkpt lat="41.609697" lon="1.958081">
        <ele>538.80</ele>
        <time>1970-01-01T03:26:18Z</time>
      </trkpt>
      <trkpt lat="41.609730" lon="1.958039">
        <ele>539.40</ele>
        <time>1970-01-01T03:26:20Z</time>
      </trkpt>
      <trkpt lat="41.609764" lon="1.957996">
        <ele>540.00</ele>
        <time>1970-01-01T03:26:22Z</time>
      </trkpt>
      <trkpt lat="41.609796" lon="1.957949">
        <ele>540.60</ele>
        <time>1970-01-01T03:26:24Z</time>
      </trkpt>
      <trkpt lat="41.609824" lon="1.957898">
        <ele>541.00</ele>
        <time>1970-01-01T03:26:26Z</time>
      </trkpt>
      <trkpt lat="41.609838" lon="1.957873">
        <ele>541.20</ele>
        <time>1970-01-01T03:26:27Z</time>
      </trkpt>
      <trkpt lat="41.609854" lon="1.957849">
        <ele>541.40</ele>
        <time>1970-01-01T03:26:28Z</time>
      </trkpt>
      <trkpt lat="41.609882" lon="1.957797">
        <ele>541.60</ele>
        <time>1970-01-01T03:26:30Z</time>
      </trkpt>
      <trkpt lat="41.609899" lon="1.957774">
        <ele>541.60</ele>
        <time>1970-01-01T03:26:31Z</time>
      </trkpt>
      <trkpt lat="41.609918" lon="1.957755">
        <ele>541.80</ele>
        <time>1970-01-01T03:26:32Z</time>
      </trkpt>
      <trkpt lat="41.609963" lon="1.957727">
        <ele>542.20</ele>
        <time>1970-01-01T03:26:34Z</time>
      </trkpt>
      <trkpt lat="41.610016" lon="1.957726">
        <ele>542.40</ele>
        <time>1970-01-01T03:26:36Z</time>
      </trkpt>
      <trkpt lat="41.610064" lon="1.957747">
        <ele>542.20</ele>
        <time>1970-01-01T03:26:38Z</time>
      </trkpt>
      <trkpt lat="41.610108" lon="1.957782">
        <ele>542.40</ele>
        <time>1970-01-01T03:26:40Z</time>
      </trkpt>
      <trkpt lat="41.610149" lon="1.957823">
        <ele>542.60</ele>
        <time>1970-01-01T03:26:42Z</time>
      </trkpt>
      <trkpt lat="41.610189" lon="1.957862">
        <ele>542.80</ele>
        <time>1970-01-01T03:26:44Z</time>
      </trkpt>
      <trkpt lat="41.610232" lon="1.957893">
        <ele>543.20</ele>
        <time>1970-01-01T03:26:46Z</time>
      </trkpt>
      <trkpt lat="41.610274" lon="1.957918">
        <ele>543.40</ele>
        <time>1970-01-01T03:26:48Z</time>
      </trkpt>
      <trkpt lat="41.610318" lon="1.957936">
        <ele>543.60</ele>
        <time>1970-01-01T03:26:50Z</time>
      </trkpt>
      <trkpt lat="41.610363" lon="1.957931">
        <ele>544.00</ele>
        <time>1970-01-01T03:26:52Z</time>
      </trkpt>
      <trkpt lat="41.610385" lon="1.957925">
        <ele>544.20</ele>
        <time>1970-01-01T03:26:53Z</time>
      </trkpt>
      <trkpt lat="41.610407" lon="1.957919">
        <ele>544.40</ele>
        <time>1970-01-01T03:26:54Z</time>
      </trkpt>
      <trkpt lat="41.610453" lon="1.957905">
        <ele>544.60</ele>
        <time>1970-01-01T03:26:56Z</time>
      </trkpt>
      <trkpt lat="41.610497" lon="1.957901">
        <ele>544.80</ele>
        <time>1970-01-01T03:26:58Z</time>
      </trkpt>
      <trkpt lat="41.610537" lon="1.957898">
        <ele>545.20</ele>
        <time>1970-01-01T03:27:00Z</time>
      </trkpt>
      <trkpt lat="41.610576" lon="1.957887">
        <ele>545.40</ele>
        <time>1970-01-01T03:27:02Z</time>
      </trkpt>
      <trkpt lat="41.610612" lon="1.957865">
        <ele>545.60</ele>
        <time>1970-01-01T03:27:04Z</time>
      </trkpt>
      <trkpt lat="41.610628" lon="1.957848">
        <ele>545.80</ele>
        <time>1970-01-01T03:27:05Z</time>
      </trkpt>
      <trkpt lat="41.610641" lon="1.957829">
        <ele>546.00</ele>
        <time>1970-01-01T03:27:06Z</time>
      </trkpt>
      <trkpt lat="41.610651" lon="1.957809">
        <ele>546.20</ele>
        <time>1970-01-01T03:27:07Z</time>
      </trkpt>
      <trkpt lat="41.610659" lon="1.957786">
        <ele>546.40</ele>
        <time>1970-01-01T03:27:08Z</time>
      </trkpt>
      <trkpt lat="41.610666" lon="1.957735">
        <ele>547.20</ele>
        <time>1970-01-01T03:27:10Z</time>
      </trkpt>
      <trkpt lat="41.610665" lon="1.957678">
        <ele>548.00</ele>
        <time>1970-01-01T03:27:12Z</time>
      </trkpt>
      <trkpt lat="41.610663" lon="1.957649">
        <ele>548.40</ele>
        <time>1970-01-01T03:27:13Z</time>
      </trkpt>
      <trkpt lat="41.610661" lon="1.957621">
        <ele>548.60</ele>
        <time>1970-01-01T03:27:14Z</time>
      </trkpt>
      <trkpt lat="41.610651" lon="1.957565">
        <ele>549.00</ele>
        <time>1970-01-01T03:27:16Z</time>
      </trkpt>
      <trkpt lat="41.610637" lon="1.957512">
        <ele>549.40</ele>
        <time>1970-01-01T03:27:18Z</time>
      </trkpt>
      <trkpt lat="41.610627" lon="1.957453">
        <ele>549.60</ele>
        <time>1970-01-01T03:27:20Z</time>
      </trkpt>
      <trkpt lat="41.610618" lon="1.957423">
        <ele>550.00</ele>
        <time>1970-01-01T03:27:21Z</time>
      </trkpt>
      <trkpt lat="41.610606" lon="1.957399">
        <ele>550.20</ele>
        <time>1970-01-01T03:27:22Z</time>
      </trkpt>
      <trkpt lat="41.610594" lon="1.957375">
        <ele>550.60</ele>
        <time>1970-01-01T03:27:23Z</time>
      </trkpt>
      <trkpt lat="41.610585" lon="1.957349">
        <ele>550.80</ele>
        <time>1970-01-01T03:27:24Z</time>
      </trkpt>
      <trkpt lat="41.610573" lon="1.957295">
        <ele>551.40</ele>
        <time>1970-01-01T03:27:26Z</time>
      </trkpt>
      <trkpt lat="41.610568" lon="1.957268">
        <ele>551.40</ele>
        <time>1970-01-01T03:27:27Z</time>
      </trkpt>
      <trkpt lat="41.610561" lon="1.957242">
        <ele>551.40</ele>
        <time>1970-01-01T03:27:28Z</time>
      </trkpt>
      <trkpt lat="41.610553" lon="1.957217">
        <ele>551.80</ele>
        <time>1970-01-01T03:27:29Z</time>
      </trkpt>
      <trkpt lat="41.610544" lon="1.957190">
        <ele>552.00</ele>
        <time>1970-01-01T03:27:30Z</time>
      </trkpt>
      <trkpt lat="41.610532" lon="1.957133">
        <ele>552.40</ele>
        <time>1970-01-01T03:27:32Z</time>
      </trkpt>
      <trkpt lat="41.610528" lon="1.957076">
        <ele>552.80</ele>
        <time>1970-01-01T03:27:34Z</time>
      </trkpt>
      <trkpt lat="41.610526" lon="1.957048">
        <ele>553.00</ele>
        <time>1970-01-01T03:27:35Z</time>
      </trkpt>
      <trkpt lat="41.610523" lon="1.957024">
        <ele>553.20</ele>
        <time>1970-01-01T03:27:36Z</time>
      </trkpt>
      <trkpt lat="41.610518" lon="1.956980">
        <ele>553.60</ele>
        <time>1970-01-01T03:27:38Z</time>
      </trkpt>
      <trkpt lat="41.610515" lon="1.956937">
        <ele>554.00</ele>
        <time>1970-01-01T03:27:40Z</time>
      </trkpt>
      <trkpt lat="41.610515" lon="1.956916">
        <ele>554.40</ele>
        <time>1970-01-01T03:27:41Z</time>
      </trkpt>
      <trkpt lat="41.610519" lon="1.956894">
        <ele>554.80</ele>
        <time>1970-01-01T03:27:42Z</time>
      </trkpt>
      <trkpt lat="41.610530" lon="1.956843">
        <ele>555.40</ele>
        <time>1970-01-01T03:27:44Z</time>
      </trkpt>
      <trkpt lat="41.610529" lon="1.956795">
        <ele>555.80</ele>
        <time>1970-01-01T03:27:46Z</time>
      </trkpt>
      <trkpt lat="41.610529" lon="1.956753">
        <ele>556.60</ele>
        <time>1970-01-01T03:27:48Z</time>
      </trkpt>
      <trkpt lat="41.610537" lon="1.956710">
        <ele>557.00</ele>
        <time>1970-01-01T03:27:50Z</time>
      </trkpt>
      <trkpt lat="41.610549" lon="1.956669">
        <ele>557.20</ele>
        <time>1970-01-01T03:27:52Z</time>
      </trkpt>
      <trkpt lat="41.610566" lon="1.956627">
        <ele>557.40</ele>
        <time>1970-01-01T03:27:54Z</time>
      </trkpt>
      <trkpt lat="41.610577" lon="1.956607">
        <ele>557.60</ele>
        <time>1970-01-01T03:27:55Z</time>
      </trkpt>
      <trkpt lat="41.610589" lon="1.956589">
        <ele>557.60</ele>
        <time>1970-01-01T03:27:56Z</time>
      </trkpt>
      <trkpt lat="41.610612" lon="1.956550">
        <ele>557.80</ele>
        <time>1970-01-01T03:27:58Z</time>
      </trkpt>
      <trkpt lat="41.610630" lon="1.956508">
        <ele>558.00</ele>
        <time>1970-01-01T03:28:00Z</time>
      </trkpt>
      <trkpt lat="41.610654" lon="1.956472">
        <ele>558.20</ele>
        <time>1970-01-01T03:28:02Z</time>
      </trkpt>
      <trkpt lat="41.610683" lon="1.956433">
        <ele>558.20</ele>
        <time>1970-01-01T03:28:04Z</time>
      </trkpt>
      <trkpt lat="41.610715" lon="1.956391">
        <ele>558.40</ele>
        <time>1970-01-01T03:28:06Z</time>
      </trkpt>
      <trkpt lat="41.610729" lon="1.956369">
        <ele>558.40</ele>
        <time>1970-01-01T03:28:07Z</time>
      </trkpt>
      <trkpt lat="41.610744" lon="1.956350">
        <ele>558.40</ele>
        <time>1970-01-01T03:28:08Z</time>
      </trkpt>
      <trkpt lat="41.610774" lon="1.956318">
        <ele>558.40</ele>
        <time>1970-01-01T03:28:10Z</time>
      </trkpt>
      <trkpt lat="41.610799" lon="1.956281">
        <ele>558.60</ele>
        <time>1970-01-01T03:28:12Z</time>
      </trkpt>
      <trkpt lat="41.610807" lon="1.956259">
        <ele>558.80</ele>
        <time>1970-01-01T03:28:13Z</time>
      </trkpt>
      <trkpt lat="41.610810" lon="1.956232">
        <ele>558.80</ele>
        <time>1970-01-01T03:28:14Z</time>
      </trkpt>
      <trkpt lat="41.610796" lon="1.956178">
        <ele>559.20</ele>
        <time>1970-01-01T03:28:16Z</time>
      </trkpt>
      <trkpt lat="41.610778" lon="1.956159">
        <ele>559.40</ele>
        <time>1970-01-01T03:28:17Z</time>
      </trkpt>
      <trkpt lat="41.610752" lon="1.956149">
        <ele>559.40</ele>
        <time>1970-01-01T03:28:18Z</time>
      </trkpt>
      <trkpt lat="41.610691" lon="1.956166">
        <ele>559.40</ele>
        <time>1970-01-01T03:28:20Z</time>
      </trkpt>
      <trkpt lat="41.610634" lon="1.956211">
        <ele>559.60</ele>
        <time>1970-01-01T03:28:22Z</time>
      </trkpt>
      <trkpt lat="41.610590" lon="1.956277">
        <ele>559.60</ele>
        <time>1970-01-01T03:28:24Z</time>
      </trkpt>
      <trkpt lat="41.610572" lon="1.956315">
        <ele>559.60</ele>
        <time>1970-01-01T03:28:25Z</time>
      </trkpt>
      <trkpt lat="41.610556" lon="1.956352">
        <ele>559.60</ele>
        <time>1970-01-01T03:28:26Z</time>
      </trkpt>
      <trkpt lat="41.610535" lon="1.956433">
        <ele>559.20</ele>
        <time>1970-01-01T03:28:28Z</time>
      </trkpt>
      <trkpt lat="41.610518" lon="1.956526">
        <ele>559.00</ele>
        <time>1970-01-01T03:28:30Z</time>
      </trkpt>
      <trkpt lat="41.610489" lon="1.956621">
        <ele>559.00</ele>
        <time>1970-01-01T03:28:32Z</time>
      </trkpt>
      <trkpt lat="41.610445" lon="1.956708">
        <ele>558.80</ele>
        <time>1970-01-01T03:28:34Z</time>
      </trkpt>
      <trkpt lat="41.610397" lon="1.956784">
        <ele>558.60</ele>
        <time>1970-01-01T03:28:36Z</time>
      </trkpt>
      <trkpt lat="41.610342" lon="1.956842">
        <ele>558.40</ele>
        <time>1970-01-01T03:28:38Z</time>
      </trkpt>
      <trkpt lat="41.610284" lon="1.956881">
        <ele>558.40</ele>
        <time>1970-01-01T03:28:40Z</time>
      </trkpt>
      <trkpt lat="41.610227" lon="1.956898">
        <ele>558.40</ele>
        <time>1970-01-01T03:28:42Z</time>
      </trkpt>
      <trkpt lat="41.610175" lon="1.956901">
        <ele>558.40</ele>
        <time>1970-01-01T03:28:44Z</time>
      </trkpt>
      <trkpt lat="41.610127" lon="1.956895">
        <ele>558.40</ele>
        <time>1970-01-01T03:28:46Z</time>
      </trkpt>
      <trkpt lat="41.610080" lon="1.956878">
        <ele>558.80</ele>
        <time>1970-01-01T03:28:48Z</time>
      </trkpt>
      <trkpt lat="41.610058" lon="1.956868">
        <ele>559.40</ele>
        <time>1970-01-01T03:28:49Z</time>
      </trkpt>
      <trkpt lat="41.610037" lon="1.956860">
        <ele>559.60</ele>
        <time>1970-01-01T03:28:50Z</time>
      </trkpt>
      <trkpt lat="41.610016" lon="1.956854">
        <ele>559.60</ele>
        <time>1970-01-01T03:28:51Z</time>
      </trkpt>
      <trkpt lat="41.609994" lon="1.956847">
        <ele>560.20</ele>
        <time>1970-01-01T03:28:52Z</time>
      </trkpt>
      <trkpt lat="41.609953" lon="1.956834">
        <ele>560.80</ele>
        <time>1970-01-01T03:28:54Z</time>
      </trkpt>
      <trkpt lat="41.609932" lon="1.956830">
        <ele>561.00</ele>
        <time>1970-01-01T03:28:55Z</time>
      </trkpt>
      <trkpt lat="41.609911" lon="1.956827">
        <ele>561.40</ele>
        <time>1970-01-01T03:28:56Z</time>
      </trkpt>
      <trkpt lat="41.609890" lon="1.956826">
        <ele>561.60</ele>
        <time>1970-01-01T03:28:57Z</time>
      </trkpt>
      <trkpt lat="41.609868" lon="1.956829">
        <ele>561.80</ele>
        <time>1970-01-01T03:28:58Z</time>
      </trkpt>
      <trkpt lat="41.609825" lon="1.956842">
        <ele>562.20</ele>
        <time>1970-01-01T03:29:00Z</time>
      </trkpt>
      <trkpt lat="41.609782" lon="1.956864">
        <ele>563.00</ele>
        <time>1970-01-01T03:29:02Z</time>
      </trkpt>
      <trkpt lat="41.609739" lon="1.956890">
        <ele>563.80</ele>
        <time>1970-01-01T03:29:04Z</time>
      </trkpt>
      <trkpt lat="41.609700" lon="1.956921">
        <ele>564.40</ele>
        <time>1970-01-01T03:29:06Z</time>
      </trkpt>
      <trkpt lat="41.609679" lon="1.956935">
        <ele>564.80</ele>
        <time>1970-01-01T03:29:07Z</time>
      </trkpt>
      <trkpt lat="41.609660" lon="1.956950">
        <ele>565.00</ele>
        <time>1970-01-01T03:29:08Z</time>
      </trkpt>
      <trkpt lat="41.609624" lon="1.956985">
        <ele>565.40</ele>
        <time>1970-01-01T03:29:10Z</time>
      </trkpt>
      <trkpt lat="41.609590" lon="1.957025">
        <ele>565.80</ele>
        <time>1970-01-01T03:29:12Z</time>
      </trkpt>
      <trkpt lat="41.609575" lon="1.957050">
        <ele>566.00</ele>
        <time>1970-01-01T03:29:13Z</time>
      </trkpt>
      <trkpt lat="41.609560" lon="1.957075">
        <ele>566.40</ele>
        <time>1970-01-01T03:29:14Z</time>
      </trkpt>
      <trkpt lat="41.609530" lon="1.957128">
        <ele>567.00</ele>
        <time>1970-01-01T03:29:16Z</time>
      </trkpt>
      <trkpt lat="41.609498" lon="1.957176">
        <ele>567.80</ele>
        <time>1970-01-01T03:29:18Z</time>
      </trkpt>
      <trkpt lat="41.609467" lon="1.957225">
        <ele>568.20</ele>
        <time>1970-01-01T03:29:20Z</time>
      </trkpt>
      <trkpt lat="41.609454" lon="1.957252">
        <ele>568.40</ele>
        <time>1970-01-01T03:29:21Z</time>
      </trkpt>
      <trkpt lat="41.609439" lon="1.957276">
        <ele>568.40</ele>
        <time>1970-01-01T03:29:22Z</time>
      </trkpt>
      <trkpt lat="41.609407" lon="1.957324">
        <ele>568.60</ele>
        <time>1970-01-01T03:29:24Z</time>
      </trkpt>
      <trkpt lat="41.609376" lon="1.957371">
        <ele>569.00</ele>
        <time>1970-01-01T03:29:26Z</time>
      </trkpt>
      <trkpt lat="41.609345" lon="1.957417">
        <ele>569.20</ele>
        <time>1970-01-01T03:29:28Z</time>
      </trkpt>
      <trkpt lat="41.609314" lon="1.957464">
        <ele>569.40</ele>
        <time>1970-01-01T03:29:30Z</time>
      </trkpt>
      <trkpt lat="41.609281" lon="1.957509">
        <ele>569.60</ele>
        <time>1970-01-01T03:29:32Z</time>
      </trkpt>
      <trkpt lat="41.609251" lon="1.957563">
        <ele>569.80</ele>
        <time>1970-01-01T03:29:34Z</time>
      </trkpt>
      <trkpt lat="41.609217" lon="1.957613">
        <ele>570.20</ele>
        <time>1970-01-01T03:29:36Z</time>
      </trkpt>
      <trkpt lat="41.609199" lon="1.957638">
        <ele>570.40</ele>
        <time>1970-01-01T03:29:37Z</time>
      </trkpt>
      <trkpt lat="41.609181" lon="1.957663">
        <ele>570.60</ele>
        <time>1970-01-01T03:29:38Z</time>
      </trkpt>
      <trkpt lat="41.609142" lon="1.957714">
        <ele>570.80</ele>
        <time>1970-01-01T03:29:40Z</time>
      </trkpt>
      <trkpt lat="41.609105" lon="1.957770">
        <ele>571.00</ele>
        <time>1970-01-01T03:29:42Z</time>
      </trkpt>
      <trkpt lat="41.609065" lon="1.957824">
        <ele>571.40</ele>
        <time>1970-01-01T03:29:44Z</time>
      </trkpt>
      <trkpt lat="41.609046" lon="1.957853">
        <ele>571.60</ele>
        <time>1970-01-01T03:29:45Z</time>
      </trkpt>
      <trkpt lat="41.609028" lon="1.957882">
        <ele>571.60</ele>
        <time>1970-01-01T03:29:46Z</time>
      </trkpt>
      <trkpt lat="41.608989" lon="1.957936">
        <ele>572.00</ele>
        <time>1970-01-01T03:29:48Z</time>
      </trkpt>
      <trkpt lat="41.608945" lon="1.957988">
        <ele>572.40</ele>
        <time>1970-01-01T03:29:50Z</time>
      </trkpt>
      <trkpt lat="41.608907" lon="1.958040">
        <ele>572.40</ele>
        <time>1970-01-01T03:29:52Z</time>
      </trkpt>
      <trkpt lat="41.608889" lon="1.958067">
        <ele>572.60</ele>
        <time>1970-01-01T03:29:53Z</time>
      </trkpt>
      <trkpt lat="41.608870" lon="1.958094">
        <ele>572.60</ele>
        <time>1970-01-01T03:29:54Z</time>
      </trkpt>
      <trkpt lat="41.608834" lon="1.958150">
        <ele>572.60</ele>
        <time>1970-01-01T03:29:56Z</time>
      </trkpt>
      <trkpt lat="41.608801" lon="1.958208">
        <ele>573.00</ele>
        <time>1970-01-01T03:29:58Z</time>
      </trkpt>
      <trkpt lat="41.608768" lon="1.958268">
        <ele>573.20</ele>
        <time>1970-01-01T03:30:00Z</time>
      </trkpt>
      <trkpt lat="41.608726" lon="1.958327">
        <ele>573.60</ele>
        <time>1970-01-01T03:30:02Z</time>
      </trkpt>
      <trkpt lat="41.608702" lon="1.958355">
        <ele>573.60</ele>
        <time>1970-01-01T03:30:03Z</time>
      </trkpt>
      <trkpt lat="41.608675" lon="1.958377">
        <ele>573.60</ele>
        <time>1970-01-01T03:30:04Z</time>
      </trkpt>
      <trkpt lat="41.608617" lon="1.958428">
        <ele>573.80</ele>
        <time>1970-01-01T03:30:06Z</time>
      </trkpt>
      <trkpt lat="41.608552" lon="1.958478">
        <ele>574.00</ele>
        <time>1970-01-01T03:30:08Z</time>
      </trkpt>
      <trkpt lat="41.608517" lon="1.958501">
        <ele>574.20</ele>
        <time>1970-01-01T03:30:09Z</time>
      </trkpt>
      <trkpt lat="41.608485" lon="1.958532">
        <ele>574.20</ele>
        <time>1970-01-01T03:30:10Z</time>
      </trkpt>
      <trkpt lat="41.608419" lon="1.958583">
        <ele>574.40</ele>
        <time>1970-01-01T03:30:12Z</time>
      </trkpt>
      <trkpt lat="41.608350" lon="1.958627">
        <ele>574.60</ele>
        <time>1970-01-01T03:30:14Z</time>
      </trkpt>
      <trkpt lat="41.608275" lon="1.958682">
        <ele>574.60</ele>
        <time>1970-01-01T03:30:16Z</time>
      </trkpt>
      <trkpt lat="41.608196" lon="1.958747">
        <ele>574.60</ele>
        <time>1970-01-01T03:30:18Z</time>
      </trkpt>
      <trkpt lat="41.608108" lon="1.958805">
        <ele>574.60</ele>
        <time>1970-01-01T03:30:20Z</time>
      </trkpt>
      <trkpt lat="41.608011" lon="1.958853">
        <ele>574.60</ele>
        <time>1970-01-01T03:30:22Z</time>
      </trkpt>
      <trkpt lat="41.607906" lon="1.958877">
        <ele>574.60</ele>
        <time>1970-01-01T03:30:24Z</time>
      </trkpt>
      <trkpt lat="41.607795" lon="1.958878">
        <ele>574.60</ele>
        <time>1970-01-01T03:30:26Z</time>
      </trkpt>
      <trkpt lat="41.607739" lon="1.958871">
        <ele>574.60</ele>
        <time>1970-01-01T03:30:27Z</time>
      </trkpt>
      <trkpt lat="41.607685" lon="1.958868">
        <ele>574.60</ele>
        <time>1970-01-01T03:30:28Z</time>
      </trkpt>
      <trkpt lat="41.607576" lon="1.958853">
        <ele>574.60</ele>
        <time>1970-01-01T03:30:30Z</time>
      </trkpt>
      <trkpt lat="41.607471" lon="1.958828">
        <ele>574.60</ele>
        <time>1970-01-01T03:30:32Z</time>
      </trkpt>
      <trkpt lat="41.607373" lon="1.958793">
        <ele>574.60</ele>
        <time>1970-01-01T03:30:34Z</time>
      </trkpt>
      <trkpt lat="41.607324" lon="1.958772">
        <ele>574.60</ele>
        <time>1970-01-01T03:30:35Z</time>
      </trkpt>
      <trkpt lat="41.607276" lon="1.958751">
        <ele>574.80</ele>
        <time>1970-01-01T03:30:36Z</time>
      </trkpt>
      <trkpt lat="41.607182" lon="1.958708">
        <ele>574.80</ele>
        <time>1970-01-01T03:30:38Z</time>
      </trkpt>
      <trkpt lat="41.607088" lon="1.958660">
        <ele>575.00</ele>
        <time>1970-01-01T03:30:40Z</time>
      </trkpt>
      <trkpt lat="41.606994" lon="1.958621">
        <ele>575.00</ele>
        <time>1970-01-01T03:30:42Z</time>
      </trkpt>
      <trkpt lat="41.606946" lon="1.958608">
        <ele>575.00</ele>
        <time>1970-01-01T03:30:43Z</time>
      </trkpt>
      <trkpt lat="41.606897" lon="1.958602">
        <ele>575.20</ele>
        <time>1970-01-01T03:30:44Z</time>
      </trkpt>
      <trkpt lat="41.606794" lon="1.958618">
        <ele>575.40</ele>
        <time>1970-01-01T03:30:46Z</time>
      </trkpt>
      <trkpt lat="41.606743" lon="1.958644">
        <ele>575.40</ele>
        <time>1970-01-01T03:30:47Z</time>
      </trkpt>
      <trkpt lat="41.606693" lon="1.958686">
        <ele>575.40</ele>
        <time>1970-01-01T03:30:48Z</time>
      </trkpt>
      <trkpt lat="41.606588" lon="1.958798">
        <ele>575.40</ele>
        <time>1970-01-01T03:30:50Z</time>
      </trkpt>
      <trkpt lat="41.606532" lon="1.958859">
        <ele>575.40</ele>
        <time>1970-01-01T03:30:51Z</time>
      </trkpt>
      <trkpt lat="41.606473" lon="1.958924">
        <ele>575.40</ele>
        <time>1970-01-01T03:30:52Z</time>
      </trkpt>
      <trkpt lat="41.606347" lon="1.959043">
        <ele>575.40</ele>
        <time>1970-01-01T03:30:54Z</time>
      </trkpt>
      <trkpt lat="41.606201" lon="1.959128">
        <ele>575.00</ele>
        <time>1970-01-01T03:30:56Z</time>
      </trkpt>
      <trkpt lat="41.606041" lon="1.959182">
        <ele>574.00</ele>
        <time>1970-01-01T03:30:58Z</time>
      </trkpt>
      <trkpt lat="41.605957" lon="1.959200">
        <ele>573.60</ele>
        <time>1970-01-01T03:30:59Z</time>
      </trkpt>
      <trkpt lat="41.605872" lon="1.959210">
        <ele>573.20</ele>
        <time>1970-01-01T03:31:00Z</time>
      </trkpt>
      <trkpt lat="41.605790" lon="1.959208">
        <ele>572.80</ele>
        <time>1970-01-01T03:31:01Z</time>
      </trkpt>
      <trkpt lat="41.605710" lon="1.959198">
        <ele>572.40</ele>
        <time>1970-01-01T03:31:02Z</time>
      </trkpt>
      <trkpt lat="41.605559" lon="1.959139">
        <ele>571.60</ele>
        <time>1970-01-01T03:31:04Z</time>
      </trkpt>
      <trkpt lat="41.605488" lon="1.959103">
        <ele>571.20</ele>
        <time>1970-01-01T03:31:05Z</time>
      </trkpt>
      <trkpt lat="41.605420" lon="1.959070">
        <ele>570.80</ele>
        <time>1970-01-01T03:31:06Z</time>
      </trkpt>
      <trkpt lat="41.605294" lon="1.959011">
        <ele>570.00</ele>
        <time>1970-01-01T03:31:08Z</time>
      </trkpt>
      <trkpt lat="41.605174" lon="1.958973">
        <ele>570.00</ele>
        <time>1970-01-01T03:31:10Z</time>
      </trkpt>
      <trkpt lat="41.605062" lon="1.958961">
        <ele>570.00</ele>
        <time>1970-01-01T03:31:12Z</time>
      </trkpt>
      <trkpt lat="41.604958" lon="1.958956">
        <ele>569.80</ele>
        <time>1970-01-01T03:31:14Z</time>
      </trkpt>
      <trkpt lat="41.604867" lon="1.958947">
        <ele>569.80</ele>
        <time>1970-01-01T03:31:16Z</time>
      </trkpt>
      <trkpt lat="41.604782" lon="1.958935">
        <ele>570.00</ele>
        <time>1970-01-01T03:31:18Z</time>
      </trkpt>
      <trkpt lat="41.604707" lon="1.958920">
        <ele>570.20</ele>
        <time>1970-01-01T03:31:20Z</time>
      </trkpt>
      <trkpt lat="41.607920" lon="1.958877">
        <ele>613.80</ele>
        <time>1970-01-01T03:41:21Z</time>
      </trkpt>
      <trkpt lat="41.607815" lon="1.958886">
        <ele>613.60</ele>
        <time>1970-01-01T03:41:23Z</time>
      </trkpt>
      <trkpt lat="41.607763" lon="1.958881">
        <ele>613.60</ele>
        <time>1970-01-01T03:41:24Z</time>
      </trkpt>
      <trkpt lat="41.607659" lon="1.958866">
        <ele>613.60</ele>
        <time>1970-01-01T03:41:26Z</time>
      </trkpt>
      <trkpt lat="41.607558" lon="1.958849">
        <ele>613.60</ele>
        <time>1970-01-01T03:41:28Z</time>
      </trkpt>
      <trkpt lat="41.607510" lon="1.958836">
        <ele>613.60</ele>
        <time>1970-01-01T03:41:29Z</time>
      </trkpt>
      <trkpt lat="41.607325" lon="1.958766">
        <ele>614.00</ele>
        <time>1970-01-01T03:41:33Z</time>
      </trkpt>
      <trkpt lat="41.607146" lon="1.958675">
        <ele>614.40</ele>
        <time>1970-01-01T03:41:37Z</time>
      </trkpt>
      <trkpt lat="41.606959" lon="1.958591">
        <ele>614.40</ele>
        <time>1970-01-01T03:41:41Z</time>
      </trkpt>
      <trkpt lat="41.606910" lon="1.958585">
        <ele>614.20</ele>
        <time>1970-01-01T03:41:42Z</time>
      </trkpt>
      <trkpt lat="41.606726" lon="1.958661">
        <ele>614.20</ele>
        <time>1970-01-01T03:41:46Z</time>
      </trkpt>
      <trkpt lat="41.606683" lon="1.958699">
        <ele>614.20</ele>
        <time>1970-01-01T03:41:47Z</time>
      </trkpt>
      <trkpt lat="41.606487" lon="1.958915">
        <ele>614.20</ele>
        <time>1970-01-01T03:41:51Z</time>
      </trkpt>
      <trkpt lat="41.606293" lon="1.959075">
        <ele>614.00</ele>
        <time>1970-01-01T03:41:54Z</time>
      </trkpt>
      <trkpt lat="41.606218" lon="1.959111">
        <ele>614.00</ele>
        <time>1970-01-01T03:41:55Z</time>
      </trkpt>
      <trkpt lat="41.605926" lon="1.959178">
        <ele>613.00</ele>
        <time>1970-01-01T03:41:59Z</time>
      </trkpt>
      <trkpt lat="41.605854" lon="1.959181">
        <ele>612.60</ele>
        <time>1970-01-01T03:42:00Z</time>
      </trkpt>
      <trkpt lat="41.605783" lon="1.959180">
        <ele>612.20</ele>
        <time>1970-01-01T03:42:01Z</time>
      </trkpt>
      <trkpt lat="41.605716" lon="1.959168">
        <ele>611.20</ele>
        <time>1970-01-01T03:42:02Z</time>
      </trkpt>
      <trkpt lat="41.605592" lon="1.959114">
        <ele>610.60</ele>
        <time>1970-01-01T03:42:04Z</time>
      </trkpt>
      <trkpt lat="41.605464" lon="1.959055">
        <ele>610.00</ele>
        <time>1970-01-01T03:42:06Z</time>
      </trkpt>
      <trkpt lat="41.605278" lon="1.958971">
        <ele>609.40</ele>
        <time>1970-01-01T03:42:09Z</time>
      </trkpt>
      <trkpt lat="41.605216" lon="1.958955">
        <ele>609.20</ele>
        <time>1970-01-01T03:42:10Z</time>
      </trkpt>
      <trkpt lat="41.605157" lon="1.958949">
        <ele>609.00</ele>
        <time>1970-01-01T03:42:11Z</time>
      </trkpt>
      <trkpt lat="41.605038" lon="1.958947">
        <ele>609.00</ele>
        <time>1970-01-01T03:42:13Z</time>
      </trkpt>
      <trkpt lat="41.604931" lon="1.958937">
        <ele>609.00</ele>
        <time>1970-01-01T03:42:15Z</time>
      </trkpt>
      <trkpt lat="41.604749" lon="1.958902">
        <ele>609.00</ele>
        <time>1970-01-01T03:42:19Z</time>
      </trkpt>
      <trkpt lat="41.604664" lon="1.958876">
        <ele>609.20</ele>
        <time>1970-01-01T03:42:21Z</time>
      </trkpt>
      <trkpt lat="41.604624" lon="1.958853">
        <ele>609.40</ele>
        <time>1970-01-01T03:42:22Z</time>
      </trkpt>
      <trkpt lat="41.604509" lon="1.958760">
        <ele>610.20</ele>
        <time>1970-01-01T03:42:25Z</time>
      </trkpt>
      <trkpt lat="41.604472" lon="1.958725">
        <ele>610.40</ele>
        <time>1970-01-01T03:42:26Z</time>
      </trkpt>
      <trkpt lat="41.604439" lon="1.958685">
        <ele>610.80</ele>
        <time>1970-01-01T03:42:27Z</time>
      </trkpt>
      <trkpt lat="41.604368" lon="1.958602">
        <ele>611.60</ele>
        <time>1970-01-01T03:42:29Z</time>
      </trkpt>
      <trkpt lat="41.604282" lon="1.958525">
        <ele>612.40</ele>
        <time>1970-01-01T03:42:31Z</time>
      </trkpt>
      <trkpt lat="41.604240" lon="1.958487">
        <ele>612.60</ele>
        <time>1970-01-01T03:42:32Z</time>
      </trkpt>
      <trkpt lat="41.604106" lon="1.958377">
        <ele>613.60</ele>
        <time>1970-01-01T03:42:35Z</time>
      </trkpt>
      <trkpt lat="41.604062" lon="1.958348">
        <ele>613.80</ele>
        <time>1970-01-01T03:42:36Z</time>
      </trkpt>
      <trkpt lat="41.603869" lon="1.958258">
        <ele>615.00</ele>
        <time>1970-01-01T03:42:40Z</time>
      </trkpt>
      <trkpt lat="41.603815" lon="1.958243">
        <ele>615.00</ele>
        <time>1970-01-01T03:42:41Z</time>
      </trkpt>
      <trkpt lat="41.603475" lon="1.958218">
        <ele>615.20</ele>
        <time>1970-01-01T03:42:47Z</time>
      </trkpt>
      <trkpt lat="41.603415" lon="1.958229">
        <ele>615.20</ele>
        <time>1970-01-01T03:42:48Z</time>
      </trkpt>
      <trkpt lat="41.603174" lon="1.958396">
        <ele>614.80</ele>
        <time>1970-01-01T03:42:52Z</time>
      </trkpt>
      <trkpt lat="41.602893" lon="1.958569">
        <ele>614.00</ele>
        <time>1970-01-01T03:42:56Z</time>
      </trkpt>
      <trkpt lat="41.602819" lon="1.958601">
        <ele>613.40</ele>
        <time>1970-01-01T03:42:57Z</time>
      </trkpt>
      <trkpt lat="41.602747" lon="1.958641">
        <ele>612.80</ele>
        <time>1970-01-01T03:42:58Z</time>
      </trkpt>
      <trkpt lat="41.602679" lon="1.958694">
        <ele>612.40</ele>
        <time>1970-01-01T03:42:59Z</time>
      </trkpt>
      <trkpt lat="41.602611" lon="1.958758">
        <ele>611.60</ele>
        <time>1970-01-01T03:43:00Z</time>
      </trkpt>
      <trkpt lat="41.602541" lon="1.958827">
        <ele>611.00</ele>
        <time>1970-01-01T03:43:01Z</time>
      </trkpt>
      <trkpt lat="41.602397" lon="1.958980">
        <ele>610.40</ele>
        <time>1970-01-01T03:43:03Z</time>
      </trkpt>
      <trkpt lat="41.602321" lon="1.959065">
        <ele>610.00</ele>
        <time>1970-01-01T03:43:04Z</time>
      </trkpt>
      <trkpt lat="41.602243" lon="1.959156">
        <ele>609.80</ele>
        <time>1970-01-01T03:43:05Z</time>
      </trkpt>
      <trkpt lat="41.602001" lon="1.959475">
        <ele>608.80</ele>
        <time>1970-01-01T03:43:08Z</time>
      </trkpt>
      <trkpt lat="41.601926" lon="1.959594">
        <ele>608.40</ele>
        <time>1970-01-01T03:43:09Z</time>
      </trkpt>
      <trkpt lat="41.601780" lon="1.959823">
        <ele>607.40</ele>
        <time>1970-01-01T03:43:11Z</time>
      </trkpt>
      <trkpt lat="41.601656" lon="1.960007">
        <ele>605.40</ele>
        <time>1970-01-01T03:43:13Z</time>
      </trkpt>
      <trkpt lat="41.601605" lon="1.960070">
        <ele>604.00</ele>
        <time>1970-01-01T03:43:14Z</time>
      </trkpt>
      <trkpt lat="41.601559" lon="1.960126">
        <ele>602.60</ele>
        <time>1970-01-01T03:43:15Z</time>
      </trkpt>
      <trkpt lat="41.601518" lon="1.960181">
        <ele>601.00</ele>
        <time>1970-01-01T03:43:16Z</time>
      </trkpt>
      <trkpt lat="41.601481" lon="1.960245">
        <ele>599.60</ele>
        <time>1970-01-01T03:43:17Z</time>
      </trkpt>
      <trkpt lat="41.601441" lon="1.960309">
        <ele>598.60</ele>
        <time>1970-01-01T03:43:18Z</time>
      </trkpt>
      <trkpt lat="41.601325" lon="1.960422">
        <ele>597.00</ele>
        <time>1970-01-01T03:43:20Z</time>
      </trkpt>
      <trkpt lat="41.601253" lon="1.960473">
        <ele>596.60</ele>
        <time>1970-01-01T03:43:21Z</time>
      </trkpt>
      <trkpt lat="41.601026" lon="1.960635">
        <ele>595.80</ele>
        <time>1970-01-01T03:43:24Z</time>
      </trkpt>
      <trkpt lat="41.600957" lon="1.960704">
        <ele>595.80</ele>
        <time>1970-01-01T03:43:25Z</time>
      </trkpt>
      <trkpt lat="41.600809" lon="1.960966">
        <ele>593.60</ele>
        <time>1970-01-01T03:43:28Z</time>
      </trkpt>
      <trkpt lat="41.600775" lon="1.961060">
        <ele>592.80</ele>
        <time>1970-01-01T03:43:29Z</time>
      </trkpt>
      <trkpt lat="41.600742" lon="1.961157">
        <ele>592.00</ele>
        <time>1970-01-01T03:43:30Z</time>
      </trkpt>
      <trkpt lat="41.600662" lon="1.961344">
        <ele>590.60</ele>
        <time>1970-01-01T03:43:32Z</time>
      </trkpt>
      <trkpt lat="41.600612" lon="1.961432">
        <ele>590.20</ele>
        <time>1970-01-01T03:43:33Z</time>
      </trkpt>
      <trkpt lat="41.600381" lon="1.961841">
        <ele>589.60</ele>
        <time>1970-01-01T03:43:38Z</time>
      </trkpt>
      <trkpt lat="41.600348" lon="1.961920">
        <ele>589.60</ele>
        <time>1970-01-01T03:43:39Z</time>
      </trkpt>
      <trkpt lat="41.600320" lon="1.962096">
        <ele>589.40</ele>
        <time>1970-01-01T03:43:41Z</time>
      </trkpt>
      <trkpt lat="41.600322" lon="1.962288">
        <ele>589.20</ele>
        <time>1970-01-01T03:43:43Z</time>
      </trkpt>
      <trkpt lat="41.600326" lon="1.962490">
        <ele>588.40</ele>
        <time>1970-01-01T03:43:45Z</time>
      </trkpt>
      <trkpt lat="41.600322" lon="1.962594">
        <ele>588.20</ele>
        <time>1970-01-01T03:43:46Z</time>
      </trkpt>
      <trkpt lat="41.600272" lon="1.963019">
        <ele>587.40</ele>
        <time>1970-01-01T03:43:50Z</time>
      </trkpt>
      <trkpt lat="41.600255" lon="1.963111">
        <ele>587.00</ele>
        <time>1970-01-01T03:43:51Z</time>
      </trkpt>
      <trkpt lat="41.600233" lon="1.963191">
        <ele>586.60</ele>
        <time>1970-01-01T03:43:52Z</time>
      </trkpt>
      <trkpt lat="41.600202" lon="1.963256">
        <ele>586.00</ele>
        <time>1970-01-01T03:43:53Z</time>
      </trkpt>
      <trkpt lat="41.600162" lon="1.963284">
        <ele>585.40</ele>
        <time>1970-01-01T03:43:54Z</time>
      </trkpt>
      <trkpt lat="41.600123" lon="1.963291">
        <ele>584.60</ele>
        <time>1970-01-01T03:43:55Z</time>
      </trkpt>
      <trkpt lat="41.600064" lon="1.963280">
        <ele>583.60</ele>
        <time>1970-01-01T03:43:57Z</time>
      </trkpt>
      <trkpt lat="41.600044" lon="1.963278">
        <ele>583.20</ele>
        <time>1970-01-01T03:43:58Z</time>
      </trkpt>
      <trkpt lat="41.600016" lon="1.963279">
        <ele>581.80</ele>
        <time>1970-01-01T03:44:00Z</time>
      </trkpt>
      <trkpt lat="41.600000" lon="1.963274">
        <ele>581.20</ele>
        <time>1970-01-01T03:44:01Z</time>
      </trkpt>
      <trkpt lat="41.599981" lon="1.963270">
        <ele>580.80</ele>
        <time>1970-01-01T03:44:02Z</time>
      </trkpt>
      <trkpt lat="41.599954" lon="1.963265">
        <ele>580.40</ele>
        <time>1970-01-01T03:44:03Z</time>
      </trkpt>
      <trkpt lat="41.599873" lon="1.963246">
        <ele>579.80</ele>
        <time>1970-01-01T03:44:05Z</time>
      </trkpt>
      <trkpt lat="41.599824" lon="1.963228">
        <ele>579.60</ele>
        <time>1970-01-01T03:44:06Z</time>
      </trkpt>
      <trkpt lat="41.599654" lon="1.963160">
        <ele>579.40</ele>
        <time>1970-01-01T03:44:09Z</time>
      </trkpt>
      <trkpt lat="41.599392" lon="1.963024">
        <ele>578.40</ele>
        <time>1970-01-01T03:44:13Z</time>
      </trkpt>
      <trkpt lat="41.599234" lon="1.962942">
        <ele>577.80</ele>
        <time>1970-01-01T03:44:15Z</time>
      </trkpt>
      <trkpt lat="41.599153" lon="1.962927">
        <ele>577.40</ele>
        <time>1970-01-01T03:44:16Z</time>
      </trkpt>
      <trkpt lat="41.599080" lon="1.962930">
        <ele>577.00</ele>
        <time>1970-01-01T03:44:17Z</time>
      </trkpt>
      <trkpt lat="41.598943" lon="1.962981">
        <ele>576.00</ele>
        <time>1970-01-01T03:44:19Z</time>
      </trkpt>
      <trkpt lat="41.598812" lon="1.963063">
        <ele>574.80</ele>
        <time>1970-01-01T03:44:21Z</time>
      </trkpt>
      <trkpt lat="41.598749" lon="1.963110">
        <ele>573.80</ele>
        <time>1970-01-01T03:44:22Z</time>
      </trkpt>
      <trkpt lat="41.598685" lon="1.963148">
        <ele>572.00</ele>
        <time>1970-01-01T03:44:23Z</time>
      </trkpt>
      <trkpt lat="41.598565" lon="1.963229">
        <ele>571.20</ele>
        <time>1970-01-01T03:44:25Z</time>
      </trkpt>
      <trkpt lat="41.598516" lon="1.963278">
        <ele>571.00</ele>
        <time>1970-01-01T03:44:26Z</time>
      </trkpt>
      <trkpt lat="41.598473" lon="1.963335">
        <ele>570.80</ele>
        <time>1970-01-01T03:44:27Z</time>
      </trkpt>
      <trkpt lat="41.598378" lon="1.963524">
        <ele>570.40</ele>
        <time>1970-01-01T03:44:30Z</time>
      </trkpt>
      <trkpt lat="41.598344" lon="1.963583">
        <ele>570.20</ele>
        <time>1970-01-01T03:44:31Z</time>
      </trkpt>
      <trkpt lat="41.598277" lon="1.963710">
        <ele>569.60</ele>
        <time>1970-01-01T03:44:33Z</time>
      </trkpt>
      <trkpt lat="41.598252" lon="1.963782">
        <ele>569.60</ele>
        <time>1970-01-01T03:44:34Z</time>
      </trkpt>
      <trkpt lat="41.598222" lon="1.963924">
        <ele>569.40</ele>
        <time>1970-01-01T03:44:36Z</time>
      </trkpt>
      <trkpt lat="41.598198" lon="1.964061">
        <ele>569.00</ele>
        <time>1970-01-01T03:44:38Z</time>
      </trkpt>
      <trkpt lat="41.598164" lon="1.964236">
        <ele>568.40</ele>
        <time>1970-01-01T03:44:41Z</time>
      </trkpt>
      <trkpt lat="41.598149" lon="1.964365">
        <ele>568.20</ele>
        <time>1970-01-01T03:44:43Z</time>
      </trkpt>
      <trkpt lat="41.598142" lon="1.964434">
        <ele>568.20</ele>
        <time>1970-01-01T03:44:44Z</time>
      </trkpt>
      <trkpt lat="41.598096" lon="1.964643">
        <ele>568.20</ele>
        <time>1970-01-01T03:44:47Z</time>
      </trkpt>
      <trkpt lat="41.598039" lon="1.964778">
        <ele>568.20</ele>
        <time>1970-01-01T03:44:49Z</time>
      </trkpt>
      <trkpt lat="41.597868" lon="1.964965">
        <ele>568.80</ele>
        <time>1970-01-01T03:44:53Z</time>
      </trkpt>
      <trkpt lat="41.597662" lon="1.965138">
        <ele>568.80</ele>
        <time>1970-01-01T03:44:57Z</time>
      </trkpt>
      <trkpt lat="41.597621" lon="1.965169">
        <ele>568.80</ele>
        <time>1970-01-01T03:44:58Z</time>
      </trkpt>
      <trkpt lat="41.597529" lon="1.965214">
        <ele>568.00</ele>
        <time>1970-01-01T03:45:02Z</time>
      </trkpt>
      <trkpt lat="41.597514" lon="1.965217">
        <ele>567.40</ele>
        <time>1970-01-01T03:45:03Z</time>
      </trkpt>
      <trkpt lat="41.597487" lon="1.965231">
        <ele>565.40</ele>
        <time>1970-01-01T03:45:05Z</time>
      </trkpt>
      <trkpt lat="41.597480" lon="1.965233">
        <ele>564.80</ele>
        <time>1970-01-01T03:45:06Z</time>
      </trkpt>
      <trkpt lat="41.597476" lon="1.965232">
        <ele>564.40</ele>
        <time>1970-01-01T03:45:07Z</time>
      </trkpt>
      <trkpt lat="41.597474" lon="1.965231">
        <ele>564.20</ele>
        <time>1970-01-01T03:45:08Z</time>
      </trkpt>
      <trkpt lat="41.597430" lon="1.965266">
        <ele>564.00</ele>
        <time>1970-01-01T03:45:12Z</time>
      </trkpt>
      <trkpt lat="41.597403" lon="1.965287">
        <ele>564.00</ele>
        <time>1970-01-01T03:45:13Z</time>
      </trkpt>
      <trkpt lat="41.597307" lon="1.965353">
        <ele>563.80</ele>
        <time>1970-01-01T03:45:16Z</time>
      </trkpt>
      <trkpt lat="41.597277" lon="1.965355">
        <ele>563.80</ele>
        <time>1970-01-01T03:45:17Z</time>
      </trkpt>
      <trkpt lat="41.597186" lon="1.965457">
        <ele>563.20</ele>
        <time>1970-01-01T03:45:21Z</time>
      </trkpt>
      <trkpt lat="41.597101" lon="1.965596">
        <ele>562.80</ele>
        <time>1970-01-01T03:45:25Z</time>
      </trkpt>
      <trkpt lat="41.597039" lon="1.965670">
        <ele>562.60</ele>
        <time>1970-01-01T03:45:27Z</time>
      </trkpt>
      <trkpt lat="41.597007" lon="1.965716">
        <ele>562.60</ele>
        <time>1970-01-01T03:45:28Z</time>
      </trkpt>
      <trkpt lat="41.596974" lon="1.965763">
        <ele>562.40</ele>
        <time>1970-01-01T03:45:29Z</time>
      </trkpt>
      <trkpt lat="41.596903" lon="1.965842">
        <ele>562.20</ele>
        <time>1970-01-01T03:45:31Z</time>
      </trkpt>
      <trkpt lat="41.596875" lon="1.965885">
        <ele>562.20</ele>
        <time>1970-01-01T03:45:32Z</time>
      </trkpt>
      <trkpt lat="41.596846" lon="1.965918">
        <ele>562.20</ele>
        <time>1970-01-01T03:45:33Z</time>
      </trkpt>
      <trkpt lat="41.596818" lon="1.965939">
        <ele>562.00</ele>
        <time>1970-01-01T03:45:34Z</time>
      </trkpt>
      <trkpt lat="41.596795" lon="1.965958">
        <ele>561.40</ele>
        <time>1970-01-01T03:45:36Z</time>
      </trkpt>
      <trkpt lat="41.596798" lon="1.965962">
        <ele>561.00</ele>
        <time>1970-01-01T03:45:37Z</time>
      </trkpt>
      <trkpt lat="41.596799" lon="1.965964">
        <ele>560.80</ele>
        <time>1970-01-01T03:45:38Z</time>
      </trkpt>
      <trkpt lat="41.596734" lon="1.965995">
        <ele>560.20</ele>
        <time>1970-01-01T03:45:46Z</time>
      </trkpt>
      <trkpt lat="41.596708" lon="1.966013">
        <ele>560.00</ele>
        <time>1970-01-01T03:45:47Z</time>
      </trkpt>
      <trkpt lat="41.596663" lon="1.966053">
        <ele>560.00</ele>
        <time>1970-01-01T03:45:49Z</time>
      </trkpt>
      <trkpt lat="41.596608" lon="1.966078">
        <ele>559.80</ele>
        <time>1970-01-01T03:45:51Z</time>
      </trkpt>
      <trkpt lat="41.596541" lon="1.966121">
        <ele>559.60</ele>
        <time>1970-01-01T03:45:54Z</time>
      </trkpt>
      <trkpt lat="41.596478" lon="1.966163">
        <ele>559.40</ele>
        <time>1970-01-01T03:45:56Z</time>
      </trkpt>
      <trkpt lat="41.596363" lon="1.966289">
        <ele>558.80</ele>
        <time>1970-01-01T03:46:00Z</time>
      </trkpt>
      <trkpt lat="41.596342" lon="1.966329">
        <ele>558.80</ele>
        <time>1970-01-01T03:46:01Z</time>
      </trkpt>
      <trkpt lat="41.596338" lon="1.966498">
        <ele>558.00</ele>
        <time>1970-01-01T03:46:04Z</time>
      </trkpt>
      <trkpt lat="41.596325" lon="1.966545">
        <ele>557.80</ele>
        <time>1970-01-01T03:46:05Z</time>
      </trkpt>
      <trkpt lat="41.596313" lon="1.966613">
        <ele>556.80</ele>
        <time>1970-01-01T03:46:07Z</time>
      </trkpt>
      <trkpt lat="41.596321" lon="1.966648">
        <ele>556.40</ele>
        <time>1970-01-01T03:46:08Z</time>
      </trkpt>
      <trkpt lat="41.596340" lon="1.966701">
        <ele>555.20</ele>
        <time>1970-01-01T03:46:10Z</time>
      </trkpt>
      <trkpt lat="41.596319" lon="1.966780">
        <ele>554.40</ele>
        <time>1970-01-01T03:46:13Z</time>
      </trkpt>
      <trkpt lat="41.596308" lon="1.966816">
        <ele>554.20</ele>
        <time>1970-01-01T03:46:14Z</time>
      </trkpt>
      <trkpt lat="41.596224" lon="1.967022">
        <ele>553.80</ele>
        <time>1970-01-01T03:46:18Z</time>
      </trkpt>
      <trkpt lat="41.596131" lon="1.967075">
        <ele>553.60</ele>
        <time>1970-01-01T03:46:21Z</time>
      </trkpt>
      <trkpt lat="41.596069" lon="1.967093">
        <ele>553.20</ele>
        <time>1970-01-01T03:46:23Z</time>
      </trkpt>
      <trkpt lat="41.596049" lon="1.967108">
        <ele>552.80</ele>
        <time>1970-01-01T03:46:24Z</time>
      </trkpt>
      <trkpt lat="41.595998" lon="1.967119">
        <ele>552.20</ele>
        <time>1970-01-01T03:46:26Z</time>
      </trkpt>
      <trkpt lat="41.595889" lon="1.967168">
        <ele>551.80</ele>
        <time>1970-01-01T03:46:30Z</time>
      </trkpt>
      <trkpt lat="41.595845" lon="1.967217">
        <ele>551.80</ele>
        <time>1970-01-01T03:46:32Z</time>
      </trkpt>
      <trkpt lat="41.595787" lon="1.967273">
        <ele>551.80</ele>
        <time>1970-01-01T03:46:35Z</time>
      </trkpt>
      <trkpt lat="41.595690" lon="1.967327">
        <ele>551.80</ele>
        <time>1970-01-01T03:46:40Z</time>
      </trkpt>
      <trkpt lat="41.595653" lon="1.967360">
        <ele>552.20</ele>
        <time>1970-01-01T03:46:42Z</time>
      </trkpt>
      <trkpt lat="41.595634" lon="1.967374">
        <ele>553.40</ele>
        <time>1970-01-01T03:46:43Z</time>
      </trkpt>
      <trkpt lat="41.595618" lon="1.967390">
        <ele>553.80</ele>
        <time>1970-01-01T03:46:44Z</time>
      </trkpt>
      <trkpt lat="41.595603" lon="1.967408">
        <ele>554.20</ele>
        <time>1970-01-01T03:46:45Z</time>
      </trkpt>
      <trkpt lat="41.595578" lon="1.967429">
        <ele>554.80</ele>
        <time>1970-01-01T03:46:46Z</time>
      </trkpt>
      <trkpt lat="41.595500" lon="1.967503">
        <ele>556.00</ele>
        <time>1970-01-01T03:46:49Z</time>
      </trkpt>
      <trkpt lat="41.595467" lon="1.967521">
        <ele>556.20</ele>
        <time>1970-01-01T03:46:50Z</time>
      </trkpt>
      <trkpt lat="41.595406" lon="1.967530">
        <ele>556.40</ele>
        <time>1970-01-01T03:46:52Z</time>
      </trkpt>
      <trkpt lat="41.595326" lon="1.967555">
        <ele>556.40</ele>
        <time>1970-01-01T03:46:56Z</time>
      </trkpt>
      <trkpt lat="41.595309" lon="1.967562">
        <ele>556.40</ele>
        <time>1970-01-01T03:46:57Z</time>
      </trkpt>
      <trkpt lat="41.595295" lon="1.967572">
        <ele>556.40</ele>
        <time>1970-01-01T03:46:58Z</time>
      </trkpt>
      <trkpt lat="41.595288" lon="1.967623">
        <ele>555.40</ele>
        <time>1970-01-01T03:47:00Z</time>
      </trkpt>
      <trkpt lat="41.595286" lon="1.967656">
        <ele>554.60</ele>
        <time>1970-01-01T03:47:01Z</time>
      </trkpt>
      <trkpt lat="41.595283" lon="1.967686">
        <ele>553.80</ele>
        <time>1970-01-01T03:47:02Z</time>
      </trkpt>
      <trkpt lat="41.595269" lon="1.967715">
        <ele>553.20</ele>
        <time>1970-01-01T03:47:03Z</time>
      </trkpt>
      <trkpt lat="41.595245" lon="1.967728">
        <ele>552.80</ele>
        <time>1970-01-01T03:47:04Z</time>
      </trkpt>
      <trkpt lat="41.595207" lon="1.967737">
        <ele>552.20</ele>
        <time>1970-01-01T03:47:05Z</time>
      </trkpt>
      <trkpt lat="41.595132" lon="1.967761">
        <ele>550.80</ele>
        <time>1970-01-01T03:47:07Z</time>
      </trkpt>
      <trkpt lat="41.595066" lon="1.967789">
        <ele>549.60</ele>
        <time>1970-01-01T03:47:09Z</time>
      </trkpt>
      <trkpt lat="41.595039" lon="1.967811">
        <ele>549.20</ele>
        <time>1970-01-01T03:47:10Z</time>
      </trkpt>
      <trkpt lat="41.595017" lon="1.967843">
        <ele>548.60</ele>
        <time>1970-01-01T03:47:11Z</time>
      </trkpt>
      <trkpt lat="41.594991" lon="1.967870">
        <ele>547.40</ele>
        <time>1970-01-01T03:47:12Z</time>
      </trkpt>
      <trkpt lat="41.594919" lon="1.967922">
        <ele>545.60</ele>
        <time>1970-01-01T03:47:14Z</time>
      </trkpt>
      <trkpt lat="41.594869" lon="1.967962">
        <ele>544.80</ele>
        <time>1970-01-01T03:47:15Z</time>
      </trkpt>
      <trkpt lat="41.594820" lon="1.967998">
        <ele>544.20</ele>
        <time>1970-01-01T03:47:16Z</time>
      </trkpt>
      <trkpt lat="41.594739" lon="1.968065">
        <ele>543.20</ele>
        <time>1970-01-01T03:47:18Z</time>
      </trkpt>
      <trkpt lat="41.594657" lon="1.968117">
        <ele>542.40</ele>
        <time>1970-01-01T03:47:20Z</time>
      </trkpt>
      <trkpt lat="41.594622" lon="1.968127">
        <ele>541.80</ele>
        <time>1970-01-01T03:47:21Z</time>
      </trkpt>
      <trkpt lat="41.594587" lon="1.968132">
        <ele>541.20</ele>
        <time>1970-01-01T03:47:22Z</time>
      </trkpt>
      <trkpt lat="41.594525" lon="1.968146">
        <ele>540.80</ele>
        <time>1970-01-01T03:47:24Z</time>
      </trkpt>
      <trkpt lat="41.594507" lon="1.968146">
        <ele>540.60</ele>
        <time>1970-01-01T03:47:25Z</time>
      </trkpt>
      <trkpt lat="41.594495" lon="1.968152">
        <ele>540.60</ele>
        <time>1970-01-01T03:47:27Z</time>
      </trkpt>
      <trkpt lat="41.594449" lon="1.968129">
        <ele>540.20</ele>
        <time>1970-01-01T03:47:30Z</time>
      </trkpt>
      <trkpt lat="41.594428" lon="1.968122">
        <ele>540.20</ele>
        <time>1970-01-01T03:47:31Z</time>
      </trkpt>
      <trkpt lat="41.594408" lon="1.968131">
        <ele>540.00</ele>
        <time>1970-01-01T03:47:32Z</time>
      </trkpt>
      <trkpt lat="41.594398" lon="1.968157">
        <ele>540.00</ele>
        <time>1970-01-01T03:47:33Z</time>
      </trkpt>
      <trkpt lat="41.594382" lon="1.968238">
        <ele>540.00</ele>
        <time>1970-01-01T03:47:35Z</time>
      </trkpt>
      <trkpt lat="41.594351" lon="1.968320">
        <ele>540.00</ele>
        <time>1970-01-01T03:47:37Z</time>
      </trkpt>
      <trkpt lat="41.594313" lon="1.968402">
        <ele>539.60</ele>
        <time>1970-01-01T03:47:39Z</time>
      </trkpt>
      <trkpt lat="41.594258" lon="1.968456">
        <ele>538.80</ele>
        <time>1970-01-01T03:47:41Z</time>
      </trkpt>
      <trkpt lat="41.594241" lon="1.968489">
        <ele>538.40</ele>
        <time>1970-01-01T03:47:42Z</time>
      </trkpt>
      <trkpt lat="41.594218" lon="1.968572">
        <ele>538.20</ele>
        <time>1970-01-01T03:47:44Z</time>
      </trkpt>
      <trkpt lat="41.594208" lon="1.968611">
        <ele>538.00</ele>
        <time>1970-01-01T03:47:45Z</time>
      </trkpt>
      <trkpt lat="41.594198" lon="1.968679">
        <ele>537.20</ele>
        <time>1970-01-01T03:47:47Z</time>
      </trkpt>
      <trkpt lat="41.594191" lon="1.968706">
        <ele>536.80</ele>
        <time>1970-01-01T03:47:48Z</time>
      </trkpt>
      <trkpt lat="41.594183" lon="1.968734">
        <ele>536.40</ele>
        <time>1970-01-01T03:47:49Z</time>
      </trkpt>
      <trkpt lat="41.594172" lon="1.968763">
        <ele>536.00</ele>
        <time>1970-01-01T03:47:50Z</time>
      </trkpt>
      <trkpt lat="41.594144" lon="1.968803">
        <ele>534.80</ele>
        <time>1970-01-01T03:47:52Z</time>
      </trkpt>
      <trkpt lat="41.594120" lon="1.968811">
        <ele>534.20</ele>
        <time>1970-01-01T03:47:53Z</time>
      </trkpt>
      <trkpt lat="41.594096" lon="1.968816">
        <ele>533.60</ele>
        <time>1970-01-01T03:47:54Z</time>
      </trkpt>
      <trkpt lat="41.594047" lon="1.968844">
        <ele>532.40</ele>
        <time>1970-01-01T03:47:56Z</time>
      </trkpt>
      <trkpt lat="41.594033" lon="1.968877">
        <ele>531.60</ele>
        <time>1970-01-01T03:47:57Z</time>
      </trkpt>
      <trkpt lat="41.594022" lon="1.968900">
        <ele>531.20</ele>
        <time>1970-01-01T03:47:58Z</time>
      </trkpt>
      <trkpt lat="41.593986" lon="1.968965">
        <ele>530.00</ele>
        <time>1970-01-01T03:48:01Z</time>
      </trkpt>
      <trkpt lat="41.593968" lon="1.968978">
        <ele>529.40</ele>
        <time>1970-01-01T03:48:02Z</time>
      </trkpt>
      <trkpt lat="41.593952" lon="1.968971">
        <ele>528.80</ele>
        <time>1970-01-01T03:48:03Z</time>
      </trkpt>
      <trkpt lat="41.593914" lon="1.968941">
        <ele>527.60</ele>
        <time>1970-01-01T03:48:05Z</time>
      </trkpt>
      <trkpt lat="41.593886" lon="1.968930">
        <ele>527.00</ele>
        <time>1970-01-01T03:48:06Z</time>
      </trkpt>
      <trkpt lat="41.593861" lon="1.968936">
        <ele>526.40</ele>
        <time>1970-01-01T03:48:07Z</time>
      </trkpt>
      <trkpt lat="41.593825" lon="1.968984">
        <ele>524.80</ele>
        <time>1970-01-01T03:48:09Z</time>
      </trkpt>
      <trkpt lat="41.593775" lon="1.969071">
        <ele>523.60</ele>
        <time>1970-01-01T03:48:12Z</time>
      </trkpt>
      <trkpt lat="41.593761" lon="1.969110">
        <ele>523.40</ele>
        <time>1970-01-01T03:48:13Z</time>
      </trkpt>
      <trkpt lat="41.593750" lon="1.969159">
        <ele>523.00</ele>
        <time>1970-01-01T03:48:14Z</time>
      </trkpt>
      <trkpt lat="41.593723" lon="1.969255">
        <ele>522.20</ele>
        <time>1970-01-01T03:48:16Z</time>
      </trkpt>
      <trkpt lat="41.593656" lon="1.969322">
        <ele>521.60</ele>
        <time>1970-01-01T03:48:19Z</time>
      </trkpt>
      <trkpt lat="41.593626" lon="1.969314">
        <ele>521.00</ele>
        <time>1970-01-01T03:48:20Z</time>
      </trkpt>
      <trkpt lat="41.593572" lon="1.969277">
        <ele>520.00</ele>
        <time>1970-01-01T03:48:22Z</time>
      </trkpt>
      <trkpt lat="41.593543" lon="1.969245">
        <ele>519.40</ele>
        <time>1970-01-01T03:48:23Z</time>
      </trkpt>
      <trkpt lat="41.593472" lon="1.969201">
        <ele>518.80</ele>
        <time>1970-01-01T03:48:25Z</time>
      </trkpt>
      <trkpt lat="41.593420" lon="1.969225">
        <ele>517.80</ele>
        <time>1970-01-01T03:48:27Z</time>
      </trkpt>
      <trkpt lat="41.593396" lon="1.969240">
        <ele>517.20</ele>
        <time>1970-01-01T03:48:28Z</time>
      </trkpt>
      <trkpt lat="41.593302" lon="1.969266">
        <ele>516.00</ele>
        <time>1970-01-01T03:48:31Z</time>
      </trkpt>
      <trkpt lat="41.593234" lon="1.969273">
        <ele>514.80</ele>
        <time>1970-01-01T03:48:33Z</time>
      </trkpt>
      <trkpt lat="41.593181" lon="1.969291">
        <ele>513.80</ele>
        <time>1970-01-01T03:48:35Z</time>
      </trkpt>
      <trkpt lat="41.593164" lon="1.969310">
        <ele>513.40</ele>
        <time>1970-01-01T03:48:36Z</time>
      </trkpt>
      <trkpt lat="41.593141" lon="1.969322">
        <ele>512.60</ele>
        <time>1970-01-01T03:48:37Z</time>
      </trkpt>
      <trkpt lat="41.593078" lon="1.969318">
        <ele>512.20</ele>
        <time>1970-01-01T03:48:39Z</time>
      </trkpt>
      <trkpt lat="41.593050" lon="1.969332">
        <ele>511.80</ele>
        <time>1970-01-01T03:48:40Z</time>
      </trkpt>
      <trkpt lat="41.593030" lon="1.969361">
        <ele>511.40</ele>
        <time>1970-01-01T03:48:41Z</time>
      </trkpt>
      <trkpt lat="41.592971" lon="1.969415">
        <ele>510.20</ele>
        <time>1970-01-01T03:48:43Z</time>
      </trkpt>
      <trkpt lat="41.592940" lon="1.969437">
        <ele>510.00</ele>
        <time>1970-01-01T03:48:44Z</time>
      </trkpt>
      <trkpt lat="41.592852" lon="1.969590">
        <ele>509.20</ele>
        <time>1970-01-01T03:48:48Z</time>
      </trkpt>
      <trkpt lat="41.592827" lon="1.969624">
        <ele>509.00</ele>
        <time>1970-01-01T03:48:49Z</time>
      </trkpt>
      <trkpt lat="41.592779" lon="1.969733">
        <ele>508.80</ele>
        <time>1970-01-01T03:48:52Z</time>
      </trkpt>
      <trkpt lat="41.592755" lon="1.969807">
        <ele>508.80</ele>
        <time>1970-01-01T03:48:54Z</time>
      </trkpt>
      <trkpt lat="41.592714" lon="1.969879">
        <ele>508.60</ele>
        <time>1970-01-01T03:48:58Z</time>
      </trkpt>
      <trkpt lat="41.592710" lon="1.969884">
        <ele>508.20</ele>
        <time>1970-01-01T03:48:59Z</time>
      </trkpt>
      <trkpt lat="41.592610" lon="1.969957">
        <ele>506.80</ele>
        <time>1970-01-01T03:49:10Z</time>
      </trkpt>
      <trkpt lat="41.592592" lon="1.969976">
        <ele>506.60</ele>
        <time>1970-01-01T03:49:11Z</time>
      </trkpt>
      <trkpt lat="41.592584" lon="1.969995">
        <ele>506.60</ele>
        <time>1970-01-01T03:49:12Z</time>
      </trkpt>
      <trkpt lat="41.592576" lon="1.970044">
        <ele>506.60</ele>
        <time>1970-01-01T03:49:15Z</time>
      </trkpt>
      <trkpt lat="41.592565" lon="1.970100">
        <ele>506.60</ele>
        <time>1970-01-01T03:49:17Z</time>
      </trkpt>
      <trkpt lat="41.592474" lon="1.970218">
        <ele>506.80</ele>
        <time>1970-01-01T03:49:22Z</time>
      </trkpt>
      <trkpt lat="41.592405" lon="1.970261">
        <ele>507.00</ele>
        <time>1970-01-01T03:49:25Z</time>
      </trkpt>
      <trkpt lat="41.592380" lon="1.970277">
        <ele>507.20</ele>
        <time>1970-01-01T03:49:26Z</time>
      </trkpt>
      <trkpt lat="41.592334" lon="1.970306">
        <ele>507.20</ele>
        <time>1970-01-01T03:49:28Z</time>
      </trkpt>
      <trkpt lat="41.592281" lon="1.970364">
        <ele>507.20</ele>
        <time>1970-01-01T03:49:30Z</time>
      </trkpt>
      <trkpt lat="41.592153" lon="1.970450">
        <ele>507.20</ele>
        <time>1970-01-01T03:49:34Z</time>
      </trkpt>
      <trkpt lat="41.592103" lon="1.970601">
        <ele>506.60</ele>
        <time>1970-01-01T03:49:37Z</time>
      </trkpt>
      <trkpt lat="41.592042" lon="1.970685">
        <ele>505.80</ele>
        <time>1970-01-01T03:49:39Z</time>
      </trkpt>
      <trkpt lat="41.592018" lon="1.970736">
        <ele>505.40</ele>
        <time>1970-01-01T03:49:40Z</time>
      </trkpt>
      <trkpt lat="41.592006" lon="1.970789">
        <ele>504.80</ele>
        <time>1970-01-01T03:49:41Z</time>
      </trkpt>
      <trkpt lat="41.591991" lon="1.970830">
        <ele>504.20</ele>
        <time>1970-01-01T03:49:42Z</time>
      </trkpt>
      <trkpt lat="41.591927" lon="1.970939">
        <ele>503.40</ele>
        <time>1970-01-01T03:49:45Z</time>
      </trkpt>
      <trkpt lat="41.591882" lon="1.971059">
        <ele>503.20</ele>
        <time>1970-01-01T03:49:47Z</time>
      </trkpt>
      <trkpt lat="41.591825" lon="1.971166">
        <ele>503.00</ele>
        <time>1970-01-01T03:49:49Z</time>
      </trkpt>
      <trkpt lat="41.591771" lon="1.971257">
        <ele>502.80</ele>
        <time>1970-01-01T03:49:51Z</time>
      </trkpt>
      <trkpt lat="41.591733" lon="1.971318">
        <ele>502.80</ele>
        <time>1970-01-01T03:49:52Z</time>
      </trkpt>
      <trkpt lat="41.591646" lon="1.971489">
        <ele>502.00</ele>
        <time>1970-01-01T03:49:55Z</time>
      </trkpt>
      <trkpt lat="41.591611" lon="1.971536">
        <ele>501.60</ele>
        <time>1970-01-01T03:49:56Z</time>
      </trkpt>
      <trkpt lat="41.591568" lon="1.971576">
        <ele>501.00</ele>
        <time>1970-01-01T03:49:57Z</time>
      </trkpt>
      <trkpt lat="41.591435" lon="1.971733">
        <ele>500.00</ele>
        <time>1970-01-01T03:50:00Z</time>
      </trkpt>
      <trkpt lat="41.591392" lon="1.971788">
        <ele>499.20</ele>
        <time>1970-01-01T03:50:01Z</time>
      </trkpt>
      <trkpt lat="41.591351" lon="1.971851">
        <ele>498.40</ele>
        <time>1970-01-01T03:50:02Z</time>
      </trkpt>
      <trkpt lat="41.591317" lon="1.971917">
        <ele>497.60</ele>
        <time>1970-01-01T03:50:03Z</time>
      </trkpt>
      <trkpt lat="41.591292" lon="1.971983">
        <ele>497.20</ele>
        <time>1970-01-01T03:50:04Z</time>
      </trkpt>
      <trkpt lat="41.591237" lon="1.972122">
        <ele>495.80</ele>
        <time>1970-01-01T03:50:06Z</time>
      </trkpt>
      <trkpt lat="41.591207" lon="1.972190">
        <ele>495.20</ele>
        <time>1970-01-01T03:50:07Z</time>
      </trkpt>
      <trkpt lat="41.591179" lon="1.972266">
        <ele>494.60</ele>
        <time>1970-01-01T03:50:08Z</time>
      </trkpt>
      <trkpt lat="41.591149" lon="1.972335">
        <ele>494.00</ele>
        <time>1970-01-01T03:50:09Z</time>
      </trkpt>
      <trkpt lat="41.591117" lon="1.972399">
        <ele>493.40</ele>
        <time>1970-01-01T03:50:10Z</time>
      </trkpt>
      <trkpt lat="41.591053" lon="1.972517">
        <ele>492.20</ele>
        <time>1970-01-01T03:50:12Z</time>
      </trkpt>
      <trkpt lat="41.590987" lon="1.972606">
        <ele>491.40</ele>
        <time>1970-01-01T03:50:14Z</time>
      </trkpt>
      <trkpt lat="41.590951" lon="1.972642">
        <ele>490.80</ele>
        <time>1970-01-01T03:50:15Z</time>
      </trkpt>
      <trkpt lat="41.590867" lon="1.972709">
        <ele>490.00</ele>
        <time>1970-01-01T03:50:17Z</time>
      </trkpt>
      <trkpt lat="41.590825" lon="1.972746">
        <ele>489.60</ele>
        <time>1970-01-01T03:50:18Z</time>
      </trkpt>
      <trkpt lat="41.590751" lon="1.972929">
        <ele>488.00</ele>
        <time>1970-01-01T03:50:21Z</time>
      </trkpt>
      <trkpt lat="41.590802" lon="1.973042">
        <ele>486.80</ele>
        <time>1970-01-01T03:50:23Z</time>
      </trkpt>
      <trkpt lat="41.590888" lon="1.973138">
        <ele>485.20</ele>
        <time>1970-01-01T03:50:25Z</time>
      </trkpt>
      <trkpt lat="41.590958" lon="1.973276">
        <ele>483.40</ele>
        <time>1970-01-01T03:50:27Z</time>
      </trkpt>
      <trkpt lat="41.590984" lon="1.973359">
        <ele>482.60</ele>
        <time>1970-01-01T03:50:28Z</time>
      </trkpt>
      <trkpt lat="41.591011" lon="1.973443">
        <ele>482.00</ele>
        <time>1970-01-01T03:50:29Z</time>
      </trkpt>
      <trkpt lat="41.591074" lon="1.973702">
        <ele>480.60</ele>
        <time>1970-01-01T03:50:32Z</time>
      </trkpt>
      <trkpt lat="41.591088" lon="1.973772">
        <ele>480.00</ele>
        <time>1970-01-01T03:50:34Z</time>
      </trkpt>
      <trkpt lat="41.591089" lon="1.973780">
        <ele>479.40</ele>
        <time>1970-01-01T03:50:36Z</time>
      </trkpt>
      <trkpt lat="41.591105" lon="1.973814">
        <ele>477.80</ele>
        <time>1970-01-01T03:50:52Z</time>
      </trkpt>
      <trkpt lat="41.591135" lon="1.973876">
        <ele>477.80</ele>
        <time>1970-01-01T03:50:54Z</time>
      </trkpt>
      <trkpt lat="41.591226" lon="1.974034">
        <ele>477.80</ele>
        <time>1970-01-01T03:50:57Z</time>
      </trkpt>
      <trkpt lat="41.591265" lon="1.974096">
        <ele>477.60</ele>
        <time>1970-01-01T03:50:58Z</time>
      </trkpt>
      <trkpt lat="41.591336" lon="1.974286">
        <ele>477.40</ele>
        <time>1970-01-01T03:51:01Z</time>
      </trkpt>
      <trkpt lat="41.591346" lon="1.974377">
        <ele>476.80</ele>
        <time>1970-01-01T03:51:03Z</time>
      </trkpt>
      <trkpt lat="41.591334" lon="1.974413">
        <ele>476.60</ele>
        <time>1970-01-01T03:51:04Z</time>
      </trkpt>
      <trkpt lat="41.591262" lon="1.974422">
        <ele>475.40</ele>
        <time>1970-01-01T03:51:07Z</time>
      </trkpt>
      <trkpt lat="41.591206" lon="1.974385">
        <ele>474.40</ele>
        <time>1970-01-01T03:51:09Z</time>
      </trkpt>
      <trkpt lat="41.591132" lon="1.974351">
        <ele>473.80</ele>
        <time>1970-01-01T03:51:11Z</time>
      </trkpt>
      <trkpt lat="41.591057" lon="1.974333">
        <ele>473.00</ele>
        <time>1970-01-01T03:51:13Z</time>
      </trkpt>
      <trkpt lat="41.590976" lon="1.974296">
        <ele>471.60</ele>
        <time>1970-01-01T03:51:16Z</time>
      </trkpt>
      <trkpt lat="41.590912" lon="1.974264">
        <ele>470.40</ele>
        <time>1970-01-01T03:51:19Z</time>
      </trkpt>
      <trkpt lat="41.590863" lon="1.974284">
        <ele>470.00</ele>
        <time>1970-01-01T03:51:21Z</time>
      </trkpt>
      <trkpt lat="41.590847" lon="1.974348">
        <ele>469.80</ele>
        <time>1970-01-01T03:51:23Z</time>
      </trkpt>
      <trkpt lat="41.590853" lon="1.974393">
        <ele>469.80</ele>
        <time>1970-01-01T03:51:24Z</time>
      </trkpt>
      <trkpt lat="41.590868" lon="1.974436">
        <ele>469.60</ele>
        <time>1970-01-01T03:51:25Z</time>
      </trkpt>
      <trkpt lat="41.590887" lon="1.974481">
        <ele>469.60</ele>
        <time>1970-01-01T03:51:26Z</time>
      </trkpt>
      <trkpt lat="41.590926" lon="1.974587">
        <ele>468.80</ele>
        <time>1970-01-01T03:51:28Z</time>
      </trkpt>
      <trkpt lat="41.590952" lon="1.974647">
        <ele>468.40</ele>
        <time>1970-01-01T03:51:29Z</time>
      </trkpt>
      <trkpt lat="41.590985" lon="1.974727">
        <ele>467.80</ele>
        <time>1970-01-01T03:51:30Z</time>
      </trkpt>
      <trkpt lat="41.591023" lon="1.974814">
        <ele>467.40</ele>
        <time>1970-01-01T03:51:31Z</time>
      </trkpt>
      <trkpt lat="41.591048" lon="1.974912">
        <ele>467.00</ele>
        <time>1970-01-01T03:51:32Z</time>
      </trkpt>
      <trkpt lat="41.591061" lon="1.975014">
        <ele>466.60</ele>
        <time>1970-01-01T03:51:33Z</time>
      </trkpt>
      <trkpt lat="41.591060" lon="1.975125">
        <ele>466.00</ele>
        <time>1970-01-01T03:51:34Z</time>
      </trkpt>
      <trkpt lat="41.591055" lon="1.975248">
        <ele>465.20</ele>
        <time>1970-01-01T03:51:35Z</time>
      </trkpt>
      <trkpt lat="41.591042" lon="1.975386">
        <ele>464.40</ele>
        <time>1970-01-01T03:51:36Z</time>
      </trkpt>
      <trkpt lat="41.590990" lon="1.975693">
        <ele>462.40</ele>
        <time>1970-01-01T03:51:38Z</time>
      </trkpt>
      <trkpt lat="41.590966" lon="1.975849">
        <ele>461.00</ele>
        <time>1970-01-01T03:51:39Z</time>
      </trkpt>
      <trkpt lat="41.590945" lon="1.976004">
        <ele>459.80</ele>
        <time>1970-01-01T03:51:40Z</time>
      </trkpt>
      <trkpt lat="41.590878" lon="1.976300">
        <ele>458.00</ele>
        <time>1970-01-01T03:51:42Z</time>
      </trkpt>
      <trkpt lat="41.590832" lon="1.976429">
        <ele>456.20</ele>
        <time>1970-01-01T03:51:43Z</time>
      </trkpt>
      <trkpt lat="41.590779" lon="1.976536">
        <ele>454.40</ele>
        <time>1970-01-01T03:51:44Z</time>
      </trkpt>
      <trkpt lat="41.590725" lon="1.976625">
        <ele>452.80</ele>
        <time>1970-01-01T03:51:45Z</time>
      </trkpt>
      <trkpt lat="41.590675" lon="1.976695">
        <ele>451.40</ele>
        <time>1970-01-01T03:51:46Z</time>
      </trkpt>
      <trkpt lat="41.590626" lon="1.976754">
        <ele>450.00</ele>
        <time>1970-01-01T03:51:47Z</time>
      </trkpt>
      <trkpt lat="41.590577" lon="1.976809">
        <ele>448.80</ele>
        <time>1970-01-01T03:51:48Z</time>
      </trkpt>
      <trkpt lat="41.590523" lon="1.976868">
        <ele>447.60</ele>
        <time>1970-01-01T03:51:49Z</time>
      </trkpt>
      <trkpt lat="41.590465" lon="1.976937">
        <ele>446.60</ele>
        <time>1970-01-01T03:51:50Z</time>
      </trkpt>
      <trkpt lat="41.590356" lon="1.977094">
        <ele>445.00</ele>
        <time>1970-01-01T03:51:52Z</time>
      </trkpt>
      <trkpt lat="41.590269" lon="1.977256">
        <ele>444.00</ele>
        <time>1970-01-01T03:51:54Z</time>
      </trkpt>
      <trkpt lat="41.590253" lon="1.977344">
        <ele>443.80</ele>
        <time>1970-01-01T03:51:55Z</time>
      </trkpt>
      <trkpt lat="41.590242" lon="1.977531">
        <ele>443.20</ele>
        <time>1970-01-01T03:51:57Z</time>
      </trkpt>
      <trkpt lat="41.590221" lon="1.977636">
        <ele>442.40</ele>
        <time>1970-01-01T03:51:58Z</time>
      </trkpt>
      <trkpt lat="41.590185" lon="1.977749">
        <ele>441.20</ele>
        <time>1970-01-01T03:51:59Z</time>
      </trkpt>
      <trkpt lat="41.590134" lon="1.977867">
        <ele>440.20</ele>
        <time>1970-01-01T03:52:00Z</time>
      </trkpt>
      <trkpt lat="41.590075" lon="1.977991">
        <ele>439.40</ele>
        <time>1970-01-01T03:52:01Z</time>
      </trkpt>
      <trkpt lat="41.589973" lon="1.978226">
        <ele>438.00</ele>
        <time>1970-01-01T03:52:03Z</time>
      </trkpt>
      <trkpt lat="41.589933" lon="1.978329">
        <ele>437.20</ele>
        <time>1970-01-01T03:52:04Z</time>
      </trkpt>
      <trkpt lat="41.589902" lon="1.978413">
        <ele>436.00</ele>
        <time>1970-01-01T03:52:05Z</time>
      </trkpt>
      <trkpt lat="41.589876" lon="1.978464">
        <ele>434.80</ele>
        <time>1970-01-01T03:52:06Z</time>
      </trkpt>
      <trkpt lat="41.589853" lon="1.978472">
        <ele>433.00</ele>
        <time>1970-01-01T03:52:07Z</time>
      </trkpt>
      <trkpt lat="41.589838" lon="1.978452">
        <ele>430.60</ele>
        <time>1970-01-01T03:52:08Z</time>
      </trkpt>
      <trkpt lat="41.589829" lon="1.978420">
        <ele>428.40</ele>
        <time>1970-01-01T03:52:09Z</time>
      </trkpt>
      <trkpt lat="41.589829" lon="1.978383">
        <ele>426.20</ele>
        <time>1970-01-01T03:52:10Z</time>
      </trkpt>
      <trkpt lat="41.589839" lon="1.978340">
        <ele>424.20</ele>
        <time>1970-01-01T03:52:11Z</time>
      </trkpt>
      <trkpt lat="41.589851" lon="1.978290">
        <ele>422.80</ele>
        <time>1970-01-01T03:52:12Z</time>
      </trkpt>
      <trkpt lat="41.589861" lon="1.978231">
        <ele>421.60</ele>
        <time>1970-01-01T03:52:13Z</time>
      </trkpt>
      <trkpt lat="41.589873" lon="1.978162">
        <ele>420.60</ele>
        <time>1970-01-01T03:52:14Z</time>
      </trkpt>
      <trkpt lat="41.589901" lon="1.978016">
        <ele>419.60</ele>
        <time>1970-01-01T03:52:16Z</time>
      </trkpt>
      <trkpt lat="41.589911" lon="1.977942">
        <ele>419.40</ele>
        <time>1970-01-01T03:52:17Z</time>
      </trkpt>
      <trkpt lat="41.589885" lon="1.977792">
        <ele>419.00</ele>
        <time>1970-01-01T03:52:19Z</time>
      </trkpt>
      <trkpt lat="41.589749" lon="1.977622">
        <ele>418.20</ele>
        <time>1970-01-01T03:52:22Z</time>
      </trkpt>
      <trkpt lat="41.589687" lon="1.977580">
        <ele>418.00</ele>
        <time>1970-01-01T03:52:23Z</time>
      </trkpt>
      <trkpt lat="41.589541" lon="1.977548">
        <ele>417.20</ele>
        <time>1970-01-01T03:52:25Z</time>
      </trkpt>
      <trkpt lat="41.589467" lon="1.977544">
        <ele>417.20</ele>
        <time>1970-01-01T03:52:26Z</time>
      </trkpt>
      <trkpt lat="41.589350" lon="1.977532">
        <ele>417.00</ele>
        <time>1970-01-01T03:52:28Z</time>
      </trkpt>
      <trkpt lat="41.589308" lon="1.977546">
        <ele>416.80</ele>
        <time>1970-01-01T03:52:29Z</time>
      </trkpt>
      <trkpt lat="41.589289" lon="1.977623">
        <ele>416.60</ele>
        <time>1970-01-01T03:52:31Z</time>
      </trkpt>
      <trkpt lat="41.589311" lon="1.977667">
        <ele>415.80</ele>
        <time>1970-01-01T03:52:32Z</time>
      </trkpt>
      <trkpt lat="41.589347" lon="1.977702">
        <ele>414.80</ele>
        <time>1970-01-01T03:52:33Z</time>
      </trkpt>
      <trkpt lat="41.589401" lon="1.977724">
        <ele>413.40</ele>
        <time>1970-01-01T03:52:34Z</time>
      </trkpt>
      <trkpt lat="41.589453" lon="1.977751">
        <ele>412.20</ele>
        <time>1970-01-01T03:52:35Z</time>
      </trkpt>
      <trkpt lat="41.589562" lon="1.977817">
        <ele>410.80</ele>
        <time>1970-01-01T03:52:37Z</time>
      </trkpt>
      <trkpt lat="41.589604" lon="1.977878">
        <ele>410.00</ele>
        <time>1970-01-01T03:52:38Z</time>
      </trkpt>
      <trkpt lat="41.589619" lon="1.977956">
        <ele>409.40</ele>
        <time>1970-01-01T03:52:39Z</time>
      </trkpt>
      <trkpt lat="41.589610" lon="1.978034">
        <ele>409.00</ele>
        <time>1970-01-01T03:52:40Z</time>
      </trkpt>
      <trkpt lat="41.589537" lon="1.978192">
        <ele>408.00</ele>
        <time>1970-01-01T03:52:42Z</time>
      </trkpt>
      <trkpt lat="41.589483" lon="1.978276">
        <ele>407.40</ele>
        <time>1970-01-01T03:52:43Z</time>
      </trkpt>
      <trkpt lat="41.589354" lon="1.978445">
        <ele>406.60</ele>
        <time>1970-01-01T03:52:45Z</time>
      </trkpt>
      <trkpt lat="41.589165" lon="1.978714">
        <ele>405.20</ele>
        <time>1970-01-01T03:52:48Z</time>
      </trkpt>
      <trkpt lat="41.589116" lon="1.978813">
        <ele>405.00</ele>
        <time>1970-01-01T03:52:49Z</time>
      </trkpt>
      <trkpt lat="41.589012" lon="1.978998">
        <ele>404.00</ele>
        <time>1970-01-01T03:52:51Z</time>
      </trkpt>
      <trkpt lat="41.588954" lon="1.979077">
        <ele>402.00</ele>
        <time>1970-01-01T03:52:52Z</time>
      </trkpt>
      <trkpt lat="41.588813" lon="1.979182">
        <ele>400.80</ele>
        <time>1970-01-01T03:52:54Z</time>
      </trkpt>
      <trkpt lat="41.588741" lon="1.979208">
        <ele>400.40</ele>
        <time>1970-01-01T03:52:55Z</time>
      </trkpt>
      <trkpt lat="41.588675" lon="1.979243">
        <ele>400.40</ele>
        <time>1970-01-01T03:52:56Z</time>
      </trkpt>
      <trkpt lat="41.588643" lon="1.979312">
        <ele>400.20</ele>
        <time>1970-01-01T03:52:57Z</time>
      </trkpt>
      <trkpt lat="41.588664" lon="1.979527">
        <ele>400.00</ele>
        <time>1970-01-01T03:53:00Z</time>
      </trkpt>
      <trkpt lat="41.588822" lon="1.979709">
        <ele>399.60</ele>
        <time>1970-01-01T03:53:03Z</time>
      </trkpt>
      <trkpt lat="41.588870" lon="1.979778">
        <ele>399.40</ele>
        <time>1970-01-01T03:53:04Z</time>
      </trkpt>
      <trkpt lat="41.588934" lon="1.979939">
        <ele>398.60</ele>
        <time>1970-01-01T03:53:06Z</time>
      </trkpt>
      <trkpt lat="41.588904" lon="1.980120">
        <ele>398.00</ele>
        <time>1970-01-01T03:53:08Z</time>
      </trkpt>
      <trkpt lat="41.588836" lon="1.980306">
        <ele>397.40</ele>
        <time>1970-01-01T03:53:10Z</time>
      </trkpt>
      <trkpt lat="41.588724" lon="1.980482">
        <ele>396.00</ele>
        <time>1970-01-01T03:53:12Z</time>
      </trkpt>
      <trkpt lat="41.588618" lon="1.980592">
        <ele>395.00</ele>
        <time>1970-01-01T03:53:14Z</time>
      </trkpt>
      <trkpt lat="41.588583" lon="1.980623">
        <ele>394.40</ele>
        <time>1970-01-01T03:53:15Z</time>
      </trkpt>
      <trkpt lat="41.588540" lon="1.980649">
        <ele>393.60</ele>
        <time>1970-01-01T03:53:17Z</time>
      </trkpt>
      <trkpt lat="41.588505" lon="1.980656">
        <ele>390.40</ele>
        <time>1970-01-01T03:53:19Z</time>
      </trkpt>
      <trkpt lat="41.588490" lon="1.980657">
        <ele>389.00</ele>
        <time>1970-01-01T03:53:20Z</time>
      </trkpt>
      <trkpt lat="41.588483" lon="1.980665">
        <ele>388.00</ele>
        <time>1970-01-01T03:53:21Z</time>
      </trkpt>
      <trkpt lat="41.588480" lon="1.980664">
        <ele>387.40</ele>
        <time>1970-01-01T03:53:22Z</time>
      </trkpt>
      <trkpt lat="41.588466" lon="1.980716">
        <ele>385.80</ele>
        <time>1970-01-01T03:53:33Z</time>
      </trkpt>
      <trkpt lat="41.588402" lon="1.980802">
        <ele>385.60</ele>
        <time>1970-01-01T03:53:36Z</time>
      </trkpt>
      <trkpt lat="41.588369" lon="1.980838">
        <ele>385.60</ele>
        <time>1970-01-01T03:53:37Z</time>
      </trkpt>
      <trkpt lat="41.588294" lon="1.980924">
        <ele>385.60</ele>
        <time>1970-01-01T03:53:39Z</time>
      </trkpt>
      <trkpt lat="41.588221" lon="1.981009">
        <ele>385.60</ele>
        <time>1970-01-01T03:53:41Z</time>
      </trkpt>
      <trkpt lat="41.588186" lon="1.981054">
        <ele>385.60</ele>
        <time>1970-01-01T03:53:42Z</time>
      </trkpt>
      <trkpt lat="41.588083" lon="1.981172">
        <ele>385.00</ele>
        <time>1970-01-01T03:53:45Z</time>
      </trkpt>
      <trkpt lat="41.588054" lon="1.981202">
        <ele>384.60</ele>
        <time>1970-01-01T03:53:46Z</time>
      </trkpt>
      <trkpt lat="41.587973" lon="1.981357">
        <ele>384.40</ele>
        <time>1970-01-01T03:53:50Z</time>
      </trkpt>
      <trkpt lat="41.587955" lon="1.981475">
        <ele>384.40</ele>
        <time>1970-01-01T03:53:53Z</time>
      </trkpt>
      <trkpt lat="41.587928" lon="1.981654">
        <ele>384.40</ele>
        <time>1970-01-01T03:53:57Z</time>
      </trkpt>
      <trkpt lat="41.587918" lon="1.981699">
        <ele>384.40</ele>
        <time>1970-01-01T03:53:58Z</time>
      </trkpt>
      <trkpt lat="41.587911" lon="1.981744">
        <ele>384.40</ele>
        <time>1970-01-01T03:53:59Z</time>
      </trkpt>
      <trkpt lat="41.587893" lon="1.981842">
        <ele>384.40</ele>
        <time>1970-01-01T03:54:01Z</time>
      </trkpt>
      <trkpt lat="41.587866" lon="1.981877">
        <ele>384.40</ele>
        <time>1970-01-01T03:54:03Z</time>
      </trkpt>
      <trkpt lat="41.587856" lon="1.981882">
        <ele>384.40</ele>
        <time>1970-01-01T03:54:04Z</time>
      </trkpt>
      <trkpt lat="41.587819" lon="1.981888">
        <ele>383.40</ele>
        <time>1970-01-01T03:54:07Z</time>
      </trkpt>
      <trkpt lat="41.587765" lon="1.981877">
        <ele>382.20</ele>
        <time>1970-01-01T03:54:11Z</time>
      </trkpt>
      <trkpt lat="41.587696" lon="1.981859">
        <ele>381.00</ele>
        <time>1970-01-01T03:54:15Z</time>
      </trkpt>
      <trkpt lat="41.587663" lon="1.981839">
        <ele>380.40</ele>
        <time>1970-01-01T03:54:17Z</time>
      </trkpt>
      <trkpt lat="41.587642" lon="1.981837">
        <ele>380.00</ele>
        <time>1970-01-01T03:54:18Z</time>
      </trkpt>
      <trkpt lat="41.587576" lon="1.981836">
        <ele>378.40</ele>
        <time>1970-01-01T03:54:21Z</time>
      </trkpt>
      <trkpt lat="41.587556" lon="1.981840">
        <ele>377.80</ele>
        <time>1970-01-01T03:54:22Z</time>
      </trkpt>
      <trkpt lat="41.587534" lon="1.981842">
        <ele>377.40</ele>
        <time>1970-01-01T03:54:23Z</time>
      </trkpt>
      <trkpt lat="41.587519" lon="1.981839">
        <ele>376.80</ele>
        <time>1970-01-01T03:54:24Z</time>
      </trkpt>
      <trkpt lat="41.587513" lon="1.981835">
        <ele>376.40</ele>
        <time>1970-01-01T03:54:25Z</time>
      </trkpt>
      <trkpt lat="41.587502" lon="1.981831">
        <ele>375.80</ele>
        <time>1970-01-01T03:54:26Z</time>
      </trkpt>
      <trkpt lat="41.587477" lon="1.981810">
        <ele>374.60</ele>
        <time>1970-01-01T03:54:28Z</time>
      </trkpt>
      <trkpt lat="41.587435" lon="1.981785">
        <ele>373.20</ele>
        <time>1970-01-01T03:54:30Z</time>
      </trkpt>
      <trkpt lat="41.587412" lon="1.981770">
        <ele>372.80</ele>
        <time>1970-01-01T03:54:31Z</time>
      </trkpt>
      <trkpt lat="41.587395" lon="1.981754">
        <ele>372.20</ele>
        <time>1970-01-01T03:54:32Z</time>
      </trkpt>
      <trkpt lat="41.587381" lon="1.981734">
        <ele>371.60</ele>
        <time>1970-01-01T03:54:33Z</time>
      </trkpt>
      <trkpt lat="41.587357" lon="1.981713">
        <ele>371.00</ele>
        <time>1970-01-01T03:54:35Z</time>
      </trkpt>
      <trkpt lat="41.587355" lon="1.981715">
        <ele>370.60</ele>
        <time>1970-01-01T03:54:36Z</time>
      </trkpt>
      <trkpt lat="41.587351" lon="1.981721">
        <ele>370.20</ele>
        <time>1970-01-01T03:54:37Z</time>
      </trkpt>
      <trkpt lat="41.587256" lon="1.981702">
        <ele>365.00</ele>
        <time>1970-01-01T03:54:54Z</time>
      </trkpt>
      <trkpt lat="41.587229" lon="1.981698">
        <ele>365.00</ele>
        <time>1970-01-01T03:54:55Z</time>
      </trkpt>
      <trkpt lat="41.587200" lon="1.981694">
        <ele>365.00</ele>
        <time>1970-01-01T03:54:56Z</time>
      </trkpt>
      <trkpt lat="41.587135" lon="1.981689">
        <ele>364.60</ele>
        <time>1970-01-01T03:55:00Z</time>
      </trkpt>
      <trkpt lat="41.587101" lon="1.981723">
        <ele>363.40</ele>
        <time>1970-01-01T03:55:03Z</time>
      </trkpt>
      <trkpt lat="41.587085" lon="1.981775">
        <ele>361.80</ele>
        <time>1970-01-01T03:55:05Z</time>
      </trkpt>
      <trkpt lat="41.587079" lon="1.981827">
        <ele>360.60</ele>
        <time>1970-01-01T03:55:07Z</time>
      </trkpt>
      <trkpt lat="41.587078" lon="1.981835">
        <ele>359.80</ele>
        <time>1970-01-01T03:55:09Z</time>
      </trkpt>
      <trkpt lat="41.587053" lon="1.981900">
        <ele>359.20</ele>
        <time>1970-01-01T03:55:13Z</time>
      </trkpt>
      <trkpt lat="41.587020" lon="1.981949">
        <ele>359.00</ele>
        <time>1970-01-01T03:55:15Z</time>
      </trkpt>
      <trkpt lat="41.587002" lon="1.981972">
        <ele>358.80</ele>
        <time>1970-01-01T03:55:16Z</time>
      </trkpt>
      <trkpt lat="41.586987" lon="1.982003">
        <ele>358.80</ele>
        <time>1970-01-01T03:55:17Z</time>
      </trkpt>
      <trkpt lat="41.586955" lon="1.982061">
        <ele>358.80</ele>
        <time>1970-01-01T03:55:19Z</time>
      </trkpt>
      <trkpt lat="41.586935" lon="1.982090">
        <ele>358.60</ele>
        <time>1970-01-01T03:55:20Z</time>
      </trkpt>
      <trkpt lat="41.586892" lon="1.982143">
        <ele>358.20</ele>
        <time>1970-01-01T03:55:23Z</time>
      </trkpt>
      <trkpt lat="41.586876" lon="1.982155">
        <ele>357.60</ele>
        <time>1970-01-01T03:55:24Z</time>
      </trkpt>
      <trkpt lat="41.586854" lon="1.982162">
        <ele>357.00</ele>
        <time>1970-01-01T03:55:25Z</time>
      </trkpt>
      <trkpt lat="41.586787" lon="1.982182">
        <ele>355.80</ele>
        <time>1970-01-01T03:55:28Z</time>
      </trkpt>
      <trkpt lat="41.586770" lon="1.982204">
        <ele>355.20</ele>
        <time>1970-01-01T03:55:29Z</time>
      </trkpt>
      <trkpt lat="41.586756" lon="1.982242">
        <ele>354.60</ele>
        <time>1970-01-01T03:55:30Z</time>
      </trkpt>
      <trkpt lat="41.586721" lon="1.982339">
        <ele>353.60</ele>
        <time>1970-01-01T03:55:32Z</time>
      </trkpt>
      <trkpt lat="41.586699" lon="1.982384">
        <ele>352.80</ele>
        <time>1970-01-01T03:55:33Z</time>
      </trkpt>
      <trkpt lat="41.586679" lon="1.982424">
        <ele>352.40</ele>
        <time>1970-01-01T03:55:34Z</time>
      </trkpt>
      <trkpt lat="41.586649" lon="1.982514">
        <ele>351.40</ele>
        <time>1970-01-01T03:55:36Z</time>
      </trkpt>
      <trkpt lat="41.586625" lon="1.982542">
        <ele>350.60</ele>
        <time>1970-01-01T03:55:37Z</time>
      </trkpt>
      <trkpt lat="41.586594" lon="1.982575">
        <ele>349.20</ele>
        <time>1970-01-01T03:55:38Z</time>
      </trkpt>
      <trkpt lat="41.586533" lon="1.982675">
        <ele>348.60</ele>
        <time>1970-01-01T03:55:42Z</time>
      </trkpt>
      <trkpt lat="41.586503" lon="1.982760">
        <ele>348.20</ele>
        <time>1970-01-01T03:55:45Z</time>
      </trkpt>
      <trkpt lat="41.586475" lon="1.982812">
        <ele>348.20</ele>
        <time>1970-01-01T03:55:47Z</time>
      </trkpt>
      <trkpt lat="41.586390" lon="1.982966">
        <ele>347.80</ele>
        <time>1970-01-01T03:55:51Z</time>
      </trkpt>
      <trkpt lat="41.586352" lon="1.983039">
        <ele>347.20</ele>
        <time>1970-01-01T03:55:53Z</time>
      </trkpt>
      <trkpt lat="41.586317" lon="1.983109">
        <ele>346.80</ele>
        <time>1970-01-01T03:55:55Z</time>
      </trkpt>
      <trkpt lat="41.586291" lon="1.983179">
        <ele>345.80</ele>
        <time>1970-01-01T03:55:57Z</time>
      </trkpt>
      <trkpt lat="41.586263" lon="1.983265">
        <ele>344.40</ele>
        <time>1970-01-01T03:56:00Z</time>
      </trkpt>
      <trkpt lat="41.586225" lon="1.983331">
        <ele>342.80</ele>
        <time>1970-01-01T03:56:03Z</time>
      </trkpt>
      <trkpt lat="41.586203" lon="1.983345">
        <ele>342.40</ele>
        <time>1970-01-01T03:56:04Z</time>
      </trkpt>
      <trkpt lat="41.586179" lon="1.983366">
        <ele>341.80</ele>
        <time>1970-01-01T03:56:05Z</time>
      </trkpt>
      <trkpt lat="41.586165" lon="1.983398">
        <ele>340.80</ele>
        <time>1970-01-01T03:56:06Z</time>
      </trkpt>
      <trkpt lat="41.586149" lon="1.983469">
        <ele>339.80</ele>
        <time>1970-01-01T03:56:08Z</time>
      </trkpt>
      <trkpt lat="41.586132" lon="1.983498">
        <ele>339.20</ele>
        <time>1970-01-01T03:56:09Z</time>
      </trkpt>
      <trkpt lat="41.586112" lon="1.983532">
        <ele>338.60</ele>
        <time>1970-01-01T03:56:10Z</time>
      </trkpt>
      <trkpt lat="41.586091" lon="1.983559">
        <ele>338.20</ele>
        <time>1970-01-01T03:56:11Z</time>
      </trkpt>
      <trkpt lat="41.586071" lon="1.983574">
        <ele>337.60</ele>
        <time>1970-01-01T03:56:12Z</time>
      </trkpt>
      <trkpt lat="41.586020" lon="1.983586">
        <ele>336.80</ele>
        <time>1970-01-01T03:56:14Z</time>
      </trkpt>
      <trkpt lat="41.585976" lon="1.983584">
        <ele>335.40</ele>
        <time>1970-01-01T03:56:16Z</time>
      </trkpt>
      <trkpt lat="41.585946" lon="1.983597">
        <ele>334.20</ele>
        <time>1970-01-01T03:56:18Z</time>
      </trkpt>
      <trkpt lat="41.585942" lon="1.983643">
        <ele>332.80</ele>
        <time>1970-01-01T03:56:20Z</time>
      </trkpt>
      <trkpt lat="41.585947" lon="1.983694">
        <ele>331.60</ele>
        <time>1970-01-01T03:56:22Z</time>
      </trkpt>
      <trkpt lat="41.585933" lon="1.983758">
        <ele>331.20</ele>
        <time>1970-01-01T03:56:24Z</time>
      </trkpt>
      <trkpt lat="41.585913" lon="1.983831">
        <ele>330.40</ele>
        <time>1970-01-01T03:56:26Z</time>
      </trkpt>
      <trkpt lat="41.585902" lon="1.983918">
        <ele>329.60</ele>
        <time>1970-01-01T03:56:29Z</time>
      </trkpt>
      <trkpt lat="41.585893" lon="1.983938">
        <ele>329.20</ele>
        <time>1970-01-01T03:56:30Z</time>
      </trkpt>
      <trkpt lat="41.585880" lon="1.983953">
        <ele>328.00</ele>
        <time>1970-01-01T03:56:32Z</time>
      </trkpt>
      <trkpt lat="41.585878" lon="1.983965">
        <ele>327.20</ele>
        <time>1970-01-01T03:56:33Z</time>
      </trkpt>
      <trkpt lat="41.585873" lon="1.983981">
        <ele>326.40</ele>
        <time>1970-01-01T03:56:34Z</time>
      </trkpt>
      <trkpt lat="41.585871" lon="1.983996">
        <ele>325.20</ele>
        <time>1970-01-01T03:56:35Z</time>
      </trkpt>
      <trkpt lat="41.585849" lon="1.984055">
        <ele>324.00</ele>
        <time>1970-01-01T03:56:38Z</time>
      </trkpt>
      <trkpt lat="41.585842" lon="1.984087">
        <ele>323.60</ele>
        <time>1970-01-01T03:56:40Z</time>
      </trkpt>
      <trkpt lat="41.585828" lon="1.984157">
        <ele>322.60</ele>
        <time>1970-01-01T03:56:44Z</time>
      </trkpt>
      <trkpt lat="41.585809" lon="1.984205">
        <ele>321.40</ele>
        <time>1970-01-01T03:56:46Z</time>
      </trkpt>
      <trkpt lat="41.585795" lon="1.984236">
        <ele>321.20</ele>
        <time>1970-01-01T03:56:47Z</time>
      </trkpt>
      <trkpt lat="41.585787" lon="1.984263">
        <ele>321.00</ele>
        <time>1970-01-01T03:56:48Z</time>
      </trkpt>
      <trkpt lat="41.585784" lon="1.984285">
        <ele>320.80</ele>
        <time>1970-01-01T03:56:49Z</time>
      </trkpt>
      <trkpt lat="41.585778" lon="1.984313">
        <ele>319.80</ele>
        <time>1970-01-01T03:56:51Z</time>
      </trkpt>
      <trkpt lat="41.585775" lon="1.984328">
        <ele>318.60</ele>
        <time>1970-01-01T03:56:53Z</time>
      </trkpt>
      <trkpt lat="41.585693" lon="1.984453">
        <ele>314.40</ele>
        <time>1970-01-01T03:57:43Z</time>
      </trkpt>
      <trkpt lat="41.585679" lon="1.984483">
        <ele>314.20</ele>
        <time>1970-01-01T03:57:44Z</time>
      </trkpt>
      <trkpt lat="41.585659" lon="1.984506">
        <ele>313.80</ele>
        <time>1970-01-01T03:57:45Z</time>
      </trkpt>
      <trkpt lat="41.585633" lon="1.984550">
        <ele>313.00</ele>
        <time>1970-01-01T03:57:47Z</time>
      </trkpt>
      <trkpt lat="41.585614" lon="1.984603">
        <ele>312.00</ele>
        <time>1970-01-01T03:57:49Z</time>
      </trkpt>
      <trkpt lat="41.585604" lon="1.984637">
        <ele>311.60</ele>
        <time>1970-01-01T03:57:50Z</time>
      </trkpt>
      <trkpt lat="41.585587" lon="1.984706">
        <ele>310.40</ele>
        <time>1970-01-01T03:57:52Z</time>
      </trkpt>
      <trkpt lat="41.585578" lon="1.984743">
        <ele>310.00</ele>
        <time>1970-01-01T03:57:53Z</time>
      </trkpt>
      <trkpt lat="41.585576" lon="1.984770">
        <ele>309.60</ele>
        <time>1970-01-01T03:57:54Z</time>
      </trkpt>
      <trkpt lat="41.585574" lon="1.984794">
        <ele>309.20</ele>
        <time>1970-01-01T03:57:55Z</time>
      </trkpt>
      <trkpt lat="41.585567" lon="1.984816">
        <ele>308.80</ele>
        <time>1970-01-01T03:57:56Z</time>
      </trkpt>
      <trkpt lat="41.585542" lon="1.984873">
        <ele>307.40</ele>
        <time>1970-01-01T03:57:59Z</time>
      </trkpt>
      <trkpt lat="41.585540" lon="1.984890">
        <ele>306.80</ele>
        <time>1970-01-01T03:58:00Z</time>
      </trkpt>
      <trkpt lat="41.585541" lon="1.984913">
        <ele>306.00</ele>
        <time>1970-01-01T03:58:01Z</time>
      </trkpt>
      <trkpt lat="41.585539" lon="1.984931">
        <ele>305.60</ele>
        <time>1970-01-01T03:58:02Z</time>
      </trkpt>
      <trkpt lat="41.585531" lon="1.984954">
        <ele>305.20</ele>
        <time>1970-01-01T03:58:03Z</time>
      </trkpt>
      <trkpt lat="41.585511" lon="1.984981">
        <ele>305.20</ele>
        <time>1970-01-01T03:58:04Z</time>
      </trkpt>
      <trkpt lat="41.585467" lon="1.985027">
        <ele>304.80</ele>
        <time>1970-01-01T03:58:06Z</time>
      </trkpt>
      <trkpt lat="41.585440" lon="1.985045">
        <ele>304.60</ele>
        <time>1970-01-01T03:58:07Z</time>
      </trkpt>
      <trkpt lat="41.585391" lon="1.985082">
        <ele>303.80</ele>
        <time>1970-01-01T03:58:09Z</time>
      </trkpt>
      <trkpt lat="41.585373" lon="1.985096">
        <ele>303.40</ele>
        <time>1970-01-01T03:58:10Z</time>
      </trkpt>
      <trkpt lat="41.585338" lon="1.985128">
        <ele>302.00</ele>
        <time>1970-01-01T03:58:13Z</time>
      </trkpt>
      <trkpt lat="41.585327" lon="1.985159">
        <ele>301.80</ele>
        <time>1970-01-01T03:58:14Z</time>
      </trkpt>
      <trkpt lat="41.585273" lon="1.985228">
        <ele>300.80</ele>
        <time>1970-01-01T03:58:17Z</time>
      </trkpt>
      <trkpt lat="41.585228" lon="1.985254">
        <ele>300.20</ele>
        <time>1970-01-01T03:58:19Z</time>
      </trkpt>
      <trkpt lat="41.585132" lon="1.985265">
        <ele>299.80</ele>
        <time>1970-01-01T03:58:23Z</time>
      </trkpt>
      <trkpt lat="41.585086" lon="1.985290">
        <ele>299.40</ele>
        <time>1970-01-01T03:58:25Z</time>
      </trkpt>
      <trkpt lat="41.585029" lon="1.985306">
        <ele>298.60</ele>
        <time>1970-01-01T03:58:27Z</time>
      </trkpt>
      <trkpt lat="41.584965" lon="1.985309">
        <ele>298.20</ele>
        <time>1970-01-01T03:58:29Z</time>
      </trkpt>
      <trkpt lat="41.584898" lon="1.985303">
        <ele>297.40</ele>
        <time>1970-01-01T03:58:31Z</time>
      </trkpt>
      <trkpt lat="41.584814" lon="1.985317">
        <ele>296.40</ele>
        <time>1970-01-01T03:58:33Z</time>
      </trkpt>
      <trkpt lat="41.584769" lon="1.985305">
        <ele>296.00</ele>
        <time>1970-01-01T03:58:34Z</time>
      </trkpt>
      <trkpt lat="41.584636" lon="1.985218">
        <ele>294.40</ele>
        <time>1970-01-01T03:58:37Z</time>
      </trkpt>
      <trkpt lat="41.584590" lon="1.985179">
        <ele>293.80</ele>
        <time>1970-01-01T03:58:38Z</time>
      </trkpt>
      <trkpt lat="41.584546" lon="1.985145">
        <ele>293.20</ele>
        <time>1970-01-01T03:58:39Z</time>
      </trkpt>
      <trkpt lat="41.584467" lon="1.985086">
        <ele>292.40</ele>
        <time>1970-01-01T03:58:41Z</time>
      </trkpt>
      <trkpt lat="41.584425" lon="1.985067">
        <ele>291.80</ele>
        <time>1970-01-01T03:58:42Z</time>
      </trkpt>
      <trkpt lat="41.584385" lon="1.985051">
        <ele>291.40</ele>
        <time>1970-01-01T03:58:43Z</time>
      </trkpt>
      <trkpt lat="41.584295" lon="1.985061">
        <ele>290.60</ele>
        <time>1970-01-01T03:58:45Z</time>
      </trkpt>
      <trkpt lat="41.584198" lon="1.985035">
        <ele>289.80</ele>
        <time>1970-01-01T03:58:47Z</time>
      </trkpt>
      <trkpt lat="41.584155" lon="1.985031">
        <ele>289.60</ele>
        <time>1970-01-01T03:58:48Z</time>
      </trkpt>
      <trkpt lat="41.584086" lon="1.985062">
        <ele>289.20</ele>
        <time>1970-01-01T03:58:50Z</time>
      </trkpt>
      <trkpt lat="41.584033" lon="1.985102">
        <ele>288.40</ele>
        <time>1970-01-01T03:58:53Z</time>
      </trkpt>
      <trkpt lat="41.584016" lon="1.985103">
        <ele>288.00</ele>
        <time>1970-01-01T03:58:54Z</time>
      </trkpt>
      <trkpt lat="41.583997" lon="1.985095">
        <ele>286.40</ele>
        <time>1970-01-01T03:58:55Z</time>
      </trkpt>
      <trkpt lat="41.583956" lon="1.985068">
        <ele>285.00</ele>
        <time>1970-01-01T03:58:57Z</time>
      </trkpt>
      <trkpt lat="41.583937" lon="1.985060">
        <ele>284.60</ele>
        <time>1970-01-01T03:58:58Z</time>
      </trkpt>
      <trkpt lat="41.583887" lon="1.985026">
        <ele>284.00</ele>
        <time>1970-01-01T03:59:00Z</time>
      </trkpt>
      <trkpt lat="41.583801" lon="1.984978">
        <ele>283.40</ele>
        <time>1970-01-01T03:59:03Z</time>
      </trkpt>
      <trkpt lat="41.583721" lon="1.984917">
        <ele>283.00</ele>
        <time>1970-01-01T03:59:06Z</time>
      </trkpt>
      <trkpt lat="41.583676" lon="1.984889">
        <ele>282.60</ele>
        <time>1970-01-01T03:59:08Z</time>
      </trkpt>
      <trkpt lat="41.583642" lon="1.984877">
        <ele>282.60</ele>
        <time>1970-01-01T03:59:10Z</time>
      </trkpt>
      <trkpt lat="41.583612" lon="1.984889">
        <ele>282.20</ele>
        <time>1970-01-01T03:59:12Z</time>
      </trkpt>
      <trkpt lat="41.583578" lon="1.984920">
        <ele>282.20</ele>
        <time>1970-01-01T03:59:14Z</time>
      </trkpt>
      <trkpt lat="41.583537" lon="1.984971">
        <ele>282.00</ele>
        <time>1970-01-01T03:59:17Z</time>
      </trkpt>
      <trkpt lat="41.583521" lon="1.984986">
        <ele>282.00</ele>
        <time>1970-01-01T03:59:18Z</time>
      </trkpt>
      <trkpt lat="41.583507" lon="1.985005">
        <ele>282.00</ele>
        <time>1970-01-01T03:59:19Z</time>
      </trkpt>
      <trkpt lat="41.583501" lon="1.985015">
        <ele>281.80</ele>
        <time>1970-01-01T03:59:20Z</time>
      </trkpt>
      <trkpt lat="41.583499" lon="1.985021">
        <ele>281.40</ele>
        <time>1970-01-01T03:59:22Z</time>
      </trkpt>
      <trkpt lat="41.583464" lon="1.985058">
        <ele>280.40</ele>
        <time>1970-01-01T03:59:59Z</time>
      </trkpt>
      <trkpt lat="41.583429" lon="1.985110">
        <ele>280.40</ele>
        <time>1970-01-01T04:00:02Z</time>
      </trkpt>
      <trkpt lat="41.583406" lon="1.985165">
        <ele>280.20</ele>
        <time>1970-01-01T04:00:05Z</time>
      </trkpt>
      <trkpt lat="41.583393" lon="1.985189">
        <ele>280.20</ele>
        <time>1970-01-01T04:00:07Z</time>
      </trkpt>
      <trkpt lat="41.583393" lon="1.985195">
        <ele>280.20</ele>
        <time>1970-01-01T04:00:08Z</time>
      </trkpt>
      <trkpt lat="41.583392" lon="1.985197">
        <ele>280.20</ele>
        <time>1970-01-01T04:00:09Z</time>
      </trkpt>
      <trkpt lat="41.583410" lon="1.985311">
        <ele>284.20</ele>
        <time>1970-01-01T04:00:34Z</time>
      </trkpt>
      <trkpt lat="41.583444" lon="1.985324">
        <ele>284.40</ele>
        <time>1970-01-01T04:00:36Z</time>
      </trkpt>
      <trkpt lat="41.583504" lon="1.985345">
        <ele>284.40</ele>
        <time>1970-01-01T04:00:40Z</time>
      </trkpt>
      <trkpt lat="41.583535" lon="1.985367">
        <ele>284.40</ele>
        <time>1970-01-01T04:00:42Z</time>
      </trkpt>
      <trkpt lat="41.583607" lon="1.985397">
        <ele>285.60</ele>
        <time>1970-01-01T04:00:46Z</time>
      </trkpt>
      <trkpt lat="41.583656" lon="1.985438">
        <ele>286.20</ele>
        <time>1970-01-01T04:00:49Z</time>
      </trkpt>
      <trkpt lat="41.583694" lon="1.985472">
        <ele>286.60</ele>
        <time>1970-01-01T04:00:51Z</time>
      </trkpt>
      <trkpt lat="41.583754" lon="1.985558">
        <ele>287.80</ele>
        <time>1970-01-01T04:00:55Z</time>
      </trkpt>
      <trkpt lat="41.583776" lon="1.985653">
        <ele>288.80</ele>
        <time>1970-01-01T04:00:59Z</time>
      </trkpt>
      <trkpt lat="41.583778" lon="1.985673">
        <ele>289.20</ele>
        <time>1970-01-01T04:01:00Z</time>
      </trkpt>
      <trkpt lat="41.583780" lon="1.985733">
        <ele>289.80</ele>
        <time>1970-01-01T04:01:03Z</time>
      </trkpt>
      <trkpt lat="41.583771" lon="1.985755">
        <ele>290.20</ele>
        <time>1970-01-01T04:01:04Z</time>
      </trkpt>
      <trkpt lat="41.583744" lon="1.985790">
        <ele>290.80</ele>
        <time>1970-01-01T04:01:06Z</time>
      </trkpt>
      <trkpt lat="41.583729" lon="1.985802">
        <ele>291.20</ele>
        <time>1970-01-01T04:01:07Z</time>
      </trkpt>
      <trkpt lat="41.583646" lon="1.985843">
        <ele>292.40</ele>
        <time>1970-01-01T04:01:11Z</time>
      </trkpt>
      <trkpt lat="41.583621" lon="1.985848">
        <ele>292.60</ele>
        <time>1970-01-01T04:01:12Z</time>
      </trkpt>
      <trkpt lat="41.583574" lon="1.985867">
        <ele>293.40</ele>
        <time>1970-01-01T04:01:14Z</time>
      </trkpt>
      <trkpt lat="41.583490" lon="1.985890">
        <ele>294.00</ele>
        <time>1970-01-01T04:01:18Z</time>
      </trkpt>
      <trkpt lat="41.583467" lon="1.985892">
        <ele>294.40</ele>
        <time>1970-01-01T04:01:19Z</time>
      </trkpt>
      <trkpt lat="41.583343" lon="1.985911">
        <ele>295.20</ele>
        <time>1970-01-01T04:01:24Z</time>
      </trkpt>
      <trkpt lat="41.583321" lon="1.985910">
        <ele>295.40</ele>
        <time>1970-01-01T04:01:25Z</time>
      </trkpt>
      <trkpt lat="41.583164" lon="1.985944">
        <ele>296.60</ele>
        <time>1970-01-01T04:01:32Z</time>
      </trkpt>
      <trkpt lat="41.583141" lon="1.985951">
        <ele>296.80</ele>
        <time>1970-01-01T04:01:33Z</time>
      </trkpt>
      <trkpt lat="41.583048" lon="1.985974">
        <ele>297.60</ele>
        <time>1970-01-01T04:01:37Z</time>
      </trkpt>
      <trkpt lat="41.583001" lon="1.985985">
        <ele>298.00</ele>
        <time>1970-01-01T04:01:39Z</time>
      </trkpt>
      <trkpt lat="41.582916" lon="1.986000">
        <ele>299.00</ele>
        <time>1970-01-01T04:01:43Z</time>
      </trkpt>
      <trkpt lat="41.582845" lon="1.986009">
        <ele>299.60</ele>
        <time>1970-01-01T04:01:46Z</time>
      </trkpt>
      <trkpt lat="41.582802" lon="1.986032">
        <ele>300.20</ele>
        <time>1970-01-01T04:01:48Z</time>
      </trkpt>
      <trkpt lat="41.582747" lon="1.986105">
        <ele>300.80</ele>
        <time>1970-01-01T04:01:52Z</time>
      </trkpt>
      <trkpt lat="41.582749" lon="1.986155">
        <ele>301.20</ele>
        <time>1970-01-01T04:01:54Z</time>
      </trkpt>
      <trkpt lat="41.582783" lon="1.986219">
        <ele>301.80</ele>
        <time>1970-01-01T04:01:57Z</time>
      </trkpt>
      <trkpt lat="41.582819" lon="1.986248">
        <ele>302.20</ele>
        <time>1970-01-01T04:01:59Z</time>
      </trkpt>
      <trkpt lat="41.582905" lon="1.986265">
        <ele>303.20</ele>
        <time>1970-01-01T04:02:03Z</time>
      </trkpt>
      <trkpt lat="41.582929" lon="1.986266">
        <ele>303.40</ele>
        <time>1970-01-01T04:02:04Z</time>
      </trkpt>
      <trkpt lat="41.583056" lon="1.986285">
        <ele>304.60</ele>
        <time>1970-01-01T04:02:10Z</time>
      </trkpt>
      <trkpt lat="41.583153" lon="1.986290">
        <ele>305.60</ele>
        <time>1970-01-01T04:02:15Z</time>
      </trkpt>
      <trkpt lat="41.583243" lon="1.986311">
        <ele>306.80</ele>
        <time>1970-01-01T04:02:19Z</time>
      </trkpt>
      <trkpt lat="41.583263" lon="1.986316">
        <ele>306.80</ele>
        <time>1970-01-01T04:02:20Z</time>
      </trkpt>
      <trkpt lat="41.583301" lon="1.986332">
        <ele>307.60</ele>
        <time>1970-01-01T04:02:22Z</time>
      </trkpt>
      <trkpt lat="41.583383" lon="1.986358">
        <ele>308.60</ele>
        <time>1970-01-01T04:02:26Z</time>
      </trkpt>
      <trkpt lat="41.583524" lon="1.986395">
        <ele>310.00</ele>
        <time>1970-01-01T04:02:32Z</time>
      </trkpt>
      <trkpt lat="41.583569" lon="1.986414">
        <ele>310.60</ele>
        <time>1970-01-01T04:02:34Z</time>
      </trkpt>
      <trkpt lat="41.583610" lon="1.986434">
        <ele>311.00</ele>
        <time>1970-01-01T04:02:36Z</time>
      </trkpt>
      <trkpt lat="41.583714" lon="1.986498">
        <ele>312.20</ele>
        <time>1970-01-01T04:02:41Z</time>
      </trkpt>
      <trkpt lat="41.583738" lon="1.986513">
        <ele>312.40</ele>
        <time>1970-01-01T04:02:42Z</time>
      </trkpt>
      <trkpt lat="41.583845" lon="1.986605">
        <ele>313.00</ele>
        <time>1970-01-01T04:02:46Z</time>
      </trkpt>
      <trkpt lat="41.583896" lon="1.986659">
        <ele>313.40</ele>
        <time>1970-01-01T04:02:48Z</time>
      </trkpt>
      <trkpt lat="41.583922" lon="1.986683">
        <ele>313.40</ele>
        <time>1970-01-01T04:02:49Z</time>
      </trkpt>
      <trkpt lat="41.584111" lon="1.986832">
        <ele>314.40</ele>
        <time>1970-01-01T04:02:56Z</time>
      </trkpt>
      <trkpt lat="41.584323" lon="1.987017">
        <ele>315.40</ele>
        <time>1970-01-01T04:03:04Z</time>
      </trkpt>
      <trkpt lat="41.584459" lon="1.987136">
        <ele>316.40</ele>
        <time>1970-01-01T04:03:09Z</time>
      </trkpt>
      <trkpt lat="41.584488" lon="1.987159">
        <ele>316.60</ele>
        <time>1970-01-01T04:03:10Z</time>
      </trkpt>
      <trkpt lat="41.584665" lon="1.987297">
        <ele>317.20</ele>
        <time>1970-01-01T04:03:16Z</time>
      </trkpt>
      <trkpt lat="41.584715" lon="1.987355">
        <ele>317.40</ele>
        <time>1970-01-01T04:03:18Z</time>
      </trkpt>
      <trkpt lat="41.584801" lon="1.987500">
        <ele>317.80</ele>
        <time>1970-01-01T04:03:22Z</time>
      </trkpt>
      <trkpt lat="41.584873" lon="1.987663">
        <ele>318.60</ele>
        <time>1970-01-01T04:03:26Z</time>
      </trkpt>
      <trkpt lat="41.584899" lon="1.987751">
        <ele>318.80</ele>
        <time>1970-01-01T04:03:28Z</time>
      </trkpt>
      <trkpt lat="41.584974" lon="1.988021">
        <ele>319.40</ele>
        <time>1970-01-01T04:03:34Z</time>
      </trkpt>
      <trkpt lat="41.585004" lon="1.988111">
        <ele>319.60</ele>
        <time>1970-01-01T04:03:36Z</time>
      </trkpt>
      <trkpt lat="41.585118" lon="1.988501">
        <ele>320.00</ele>
        <time>1970-01-01T04:03:44Z</time>
      </trkpt>
      <trkpt lat="41.585238" lon="1.988891">
        <ele>320.20</ele>
        <time>1970-01-01T04:03:52Z</time>
      </trkpt>
      <trkpt lat="41.585363" lon="1.989280">
        <ele>320.40</ele>
        <time>1970-01-01T04:04:00Z</time>
      </trkpt>
      <trkpt lat="41.585380" lon="1.989325">
        <ele>320.60</ele>
        <time>1970-01-01T04:04:01Z</time>
      </trkpt>
      <trkpt lat="41.585402" lon="1.989366">
        <ele>320.60</ele>
        <time>1970-01-01T04:04:02Z</time>
      </trkpt>
      <trkpt lat="41.585453" lon="1.989495">
        <ele>320.80</ele>
        <time>1970-01-01T04:04:06Z</time>
      </trkpt>
      <trkpt lat="41.585462" lon="1.989519">
        <ele>320.80</ele>
        <time>1970-01-01T04:04:07Z</time>
      </trkpt>
      <trkpt lat="41.585450" lon="1.989599">
        <ele>321.00</ele>
        <time>1970-01-01T04:04:09Z</time>
      </trkpt>
      <trkpt lat="41.585355" lon="1.989721">
        <ele>321.40</ele>
        <time>1970-01-01T04:04:12Z</time>
      </trkpt>
      <trkpt lat="41.585066" lon="1.990058">
        <ele>321.60</ele>
        <time>1970-01-01T04:04:19Z</time>
      </trkpt>
      <trkpt lat="41.584735" lon="1.990441">
        <ele>320.80</ele>
        <time>1970-01-01T04:04:26Z</time>
      </trkpt>
      <trkpt lat="41.584398" lon="1.990877">
        <ele>320.60</ele>
        <time>1970-01-01T04:04:33Z</time>
      </trkpt>
      <trkpt lat="41.584364" lon="1.990950">
        <ele>320.40</ele>
        <time>1970-01-01T04:04:34Z</time>
      </trkpt>
      <trkpt lat="41.584304" lon="1.991196">
        <ele>320.40</ele>
        <time>1970-01-01T04:04:37Z</time>
      </trkpt>
      <trkpt lat="41.584287" lon="1.991367">
        <ele>320.40</ele>
        <time>1970-01-01T04:04:39Z</time>
      </trkpt>
      <trkpt lat="41.584248" lon="1.991793">
        <ele>319.80</ele>
        <time>1970-01-01T04:04:44Z</time>
      </trkpt>
      <trkpt lat="41.584223" lon="1.991958">
        <ele>319.60</ele>
        <time>1970-01-01T04:04:46Z</time>
      </trkpt>
      <trkpt lat="41.584162" lon="1.992165">
        <ele>319.20</ele>
        <time>1970-01-01T04:04:49Z</time>
      </trkpt>
      <trkpt lat="41.584087" lon="1.992332">
        <ele>318.80</ele>
        <time>1970-01-01T04:04:53Z</time>
      </trkpt>
      <trkpt lat="41.584071" lon="1.992501">
        <ele>318.60</ele>
        <time>1970-01-01T04:04:56Z</time>
      </trkpt>
      <trkpt lat="41.584055" lon="1.992562">
        <ele>318.40</ele>
        <time>1970-01-01T04:04:57Z</time>
      </trkpt>
      <trkpt lat="41.584040" lon="1.992622">
        <ele>318.40</ele>
        <time>1970-01-01T04:04:58Z</time>
      </trkpt>
      <trkpt lat="41.584000" lon="1.992798">
        <ele>318.40</ele>
        <time>1970-01-01T04:05:01Z</time>
      </trkpt>
      <trkpt lat="41.583981" lon="1.992900">
        <ele>318.20</ele>
        <time>1970-01-01T04:05:03Z</time>
      </trkpt>
      <trkpt lat="41.583974" lon="1.992944">
        <ele>318.20</ele>
        <time>1970-01-01T04:05:04Z</time>
      </trkpt>
      <trkpt lat="41.583905" lon="1.993059">
        <ele>318.00</ele>
        <time>1970-01-01T04:05:07Z</time>
      </trkpt>
      <trkpt lat="41.583874" lon="1.993097">
        <ele>318.00</ele>
        <time>1970-01-01T04:05:08Z</time>
      </trkpt>
      <trkpt lat="41.583779" lon="1.993212">
        <ele>317.80</ele>
        <time>1970-01-01T04:05:11Z</time>
      </trkpt>
      <trkpt lat="41.583722" lon="1.993281">
        <ele>317.80</ele>
        <time>1970-01-01T04:05:13Z</time>
      </trkpt>
      <trkpt lat="41.583587" lon="1.993336">
        <ele>317.60</ele>
        <time>1970-01-01T04:05:18Z</time>
      </trkpt>
      <trkpt lat="41.583483" lon="1.993335">
        <ele>317.40</ele>
        <time>1970-01-01T04:05:23Z</time>
      </trkpt>
      <trkpt lat="41.583347" lon="1.993297">
        <ele>317.40</ele>
        <time>1970-01-01T04:05:27Z</time>
      </trkpt>
      <trkpt lat="41.583178" lon="1.993234">
        <ele>317.20</ele>
        <time>1970-01-01T04:05:31Z</time>
      </trkpt>
      <trkpt lat="41.583111" lon="1.993244">
        <ele>317.20</ele>
        <time>1970-01-01T04:05:33Z</time>
      </trkpt>
      <trkpt lat="41.583048" lon="1.993297">
        <ele>317.20</ele>
        <time>1970-01-01T04:05:36Z</time>
      </trkpt>
      <trkpt lat="41.583036" lon="1.993316">
        <ele>317.00</ele>
        <time>1970-01-01T04:05:37Z</time>
      </trkpt>
      <trkpt lat="41.583004" lon="1.993471">
        <ele>316.80</ele>
        <time>1970-01-01T04:05:43Z</time>
      </trkpt>
      <trkpt lat="41.582991" lon="1.993630">
        <ele>316.80</ele>
        <time>1970-01-01T04:05:47Z</time>
      </trkpt>
      <trkpt lat="41.583041" lon="1.993837">
        <ele>316.80</ele>
        <time>1970-01-01T04:05:50Z</time>
      </trkpt>
      <trkpt lat="41.583072" lon="1.993913">
        <ele>316.60</ele>
        <time>1970-01-01T04:05:51Z</time>
      </trkpt>
      <trkpt lat="41.583185" lon="1.994177">
        <ele>316.40</ele>
        <time>1970-01-01T04:05:54Z</time>
      </trkpt>
      <trkpt lat="41.583258" lon="1.994389">
        <ele>315.80</ele>
        <time>1970-01-01T04:05:56Z</time>
      </trkpt>
      <trkpt lat="41.583307" lon="1.994634">
        <ele>315.20</ele>
        <time>1970-01-01T04:05:58Z</time>
      </trkpt>
      <trkpt lat="41.583322" lon="1.994766">
        <ele>314.80</ele>
        <time>1970-01-01T04:05:59Z</time>
      </trkpt>
      <trkpt lat="41.583341" lon="1.995047">
        <ele>313.80</ele>
        <time>1970-01-01T04:06:01Z</time>
      </trkpt>
      <trkpt lat="41.583346" lon="1.995332">
        <ele>312.40</ele>
        <time>1970-01-01T04:06:03Z</time>
      </trkpt>
      <trkpt lat="41.583324" lon="1.995600">
        <ele>311.20</ele>
        <time>1970-01-01T04:06:05Z</time>
      </trkpt>
      <trkpt lat="41.583294" lon="1.995709">
        <ele>310.40</ele>
        <time>1970-01-01T04:06:06Z</time>
      </trkpt>
      <trkpt lat="41.583255" lon="1.995810">
        <ele>309.80</ele>
        <time>1970-01-01T04:06:07Z</time>
      </trkpt>
      <trkpt lat="41.583165" lon="1.995997">
        <ele>307.80</ele>
        <time>1970-01-01T04:06:09Z</time>
      </trkpt>
      <trkpt lat="41.583116" lon="1.996078">
        <ele>307.00</ele>
        <time>1970-01-01T04:06:10Z</time>
      </trkpt>
      <trkpt lat="41.583065" lon="1.996147">
        <ele>306.20</ele>
        <time>1970-01-01T04:06:11Z</time>
      </trkpt>
      <trkpt lat="41.582962" lon="1.996245">
        <ele>304.80</ele>
        <time>1970-01-01T04:06:13Z</time>
      </trkpt>
      <trkpt lat="41.582908" lon="1.996288">
        <ele>304.20</ele>
        <time>1970-01-01T04:06:14Z</time>
      </trkpt>
      <trkpt lat="41.582849" lon="1.996320">
        <ele>303.80</ele>
        <time>1970-01-01T04:06:15Z</time>
      </trkpt>
      <trkpt lat="41.582729" lon="1.996309">
        <ele>303.00</ele>
        <time>1970-01-01T04:06:17Z</time>
      </trkpt>
      <trkpt lat="41.582668" lon="1.996275">
        <ele>302.60</ele>
        <time>1970-01-01T04:06:18Z</time>
      </trkpt>
      <trkpt lat="41.582541" lon="1.996256">
        <ele>301.80</ele>
        <time>1970-01-01T04:06:20Z</time>
      </trkpt>
      <trkpt lat="41.582433" lon="1.996357">
        <ele>301.20</ele>
        <time>1970-01-01T04:06:22Z</time>
      </trkpt>
      <trkpt lat="41.582398" lon="1.996525">
        <ele>299.80</ele>
        <time>1970-01-01T04:06:24Z</time>
      </trkpt>
      <trkpt lat="41.582390" lon="1.996599">
        <ele>299.40</ele>
        <time>1970-01-01T04:06:25Z</time>
      </trkpt>
      <trkpt lat="41.582367" lon="1.996657">
        <ele>299.20</ele>
        <time>1970-01-01T04:06:26Z</time>
      </trkpt>
      <trkpt lat="41.582331" lon="1.996691">
        <ele>298.80</ele>
        <time>1970-01-01T04:06:27Z</time>
      </trkpt>
      <trkpt lat="41.582293" lon="1.996722">
        <ele>298.60</ele>
        <time>1970-01-01T04:06:28Z</time>
      </trkpt>
      <trkpt lat="41.582222" lon="1.996810">
        <ele>297.80</ele>
        <time>1970-01-01T04:06:30Z</time>
      </trkpt>
      <trkpt lat="41.582188" lon="1.996865">
        <ele>297.40</ele>
        <time>1970-01-01T04:06:31Z</time>
      </trkpt>
      <trkpt lat="41.582122" lon="1.996983">
        <ele>297.00</ele>
        <time>1970-01-01T04:06:33Z</time>
      </trkpt>
      <trkpt lat="41.582022" lon="1.997168">
        <ele>296.80</ele>
        <time>1970-01-01T04:06:36Z</time>
      </trkpt>
      <trkpt lat="41.581879" lon="1.997450">
        <ele>296.40</ele>
        <time>1970-01-01T04:06:40Z</time>
      </trkpt>
      <trkpt lat="41.581732" lon="1.997751">
        <ele>296.00</ele>
        <time>1970-01-01T04:06:44Z</time>
      </trkpt>
      <trkpt lat="41.581679" lon="1.997904">
        <ele>295.80</ele>
        <time>1970-01-01T04:06:46Z</time>
      </trkpt>
      <trkpt lat="41.581566" lon="1.998206">
        <ele>295.40</ele>
        <time>1970-01-01T04:06:50Z</time>
      </trkpt>
      <trkpt lat="41.581509" lon="1.998369">
        <ele>294.60</ele>
        <time>1970-01-01T04:06:52Z</time>
      </trkpt>
      <trkpt lat="41.581408" lon="1.998628">
        <ele>294.20</ele>
        <time>1970-01-01T04:06:55Z</time>
      </trkpt>
      <trkpt lat="41.581320" lon="1.998892">
        <ele>293.60</ele>
        <time>1970-01-01T04:06:58Z</time>
      </trkpt>
      <trkpt lat="41.581198" lon="1.999240">
        <ele>293.00</ele>
        <time>1970-01-01T04:07:02Z</time>
      </trkpt>
      <trkpt lat="41.581138" lon="1.999390">
        <ele>292.80</ele>
        <time>1970-01-01T04:07:04Z</time>
      </trkpt>
      <trkpt lat="41.581072" lon="1.999535">
        <ele>292.60</ele>
        <time>1970-01-01T04:07:06Z</time>
      </trkpt>
      <trkpt lat="41.580954" lon="1.999850">
        <ele>292.00</ele>
        <time>1970-01-01T04:07:10Z</time>
      </trkpt>
      <trkpt lat="41.580925" lon="1.999930">
        <ele>292.00</ele>
        <time>1970-01-01T04:07:11Z</time>
      </trkpt>
      <trkpt lat="41.580800" lon="2.000240">
        <ele>291.80</ele>
        <time>1970-01-01T04:07:15Z</time>
      </trkpt>
      <trkpt lat="41.580771" lon="2.000310">
        <ele>291.80</ele>
        <time>1970-01-01T04:07:16Z</time>
      </trkpt>
      <trkpt lat="41.580744" lon="2.000378">
        <ele>291.60</ele>
        <time>1970-01-01T04:07:17Z</time>
      </trkpt>
      <trkpt lat="41.580718" lon="2.000443">
        <ele>291.40</ele>
        <time>1970-01-01T04:07:18Z</time>
      </trkpt>
      <trkpt lat="41.580674" lon="2.000570">
        <ele>291.40</ele>
        <time>1970-01-01T04:07:20Z</time>
      </trkpt>
      <trkpt lat="41.580590" lon="2.000822">
        <ele>291.20</ele>
        <time>1970-01-01T04:07:24Z</time>
      </trkpt>
      <trkpt lat="41.580566" lon="2.000896">
        <ele>291.20</ele>
        <time>1970-01-01T04:07:25Z</time>
      </trkpt>
      <trkpt lat="41.580509" lon="2.001056">
        <ele>291.20</ele>
        <time>1970-01-01T04:07:27Z</time>
      </trkpt>
      <trkpt lat="41.580390" lon="2.001377">
        <ele>290.80</ele>
        <time>1970-01-01T04:07:31Z</time>
      </trkpt>
      <trkpt lat="41.580247" lon="2.001626">
        <ele>290.20</ele>
        <time>1970-01-01T04:07:35Z</time>
      </trkpt>
      <trkpt lat="41.580140" lon="2.001818">
        <ele>290.20</ele>
        <time>1970-01-01T04:07:38Z</time>
      </trkpt>
      <trkpt lat="41.580029" lon="2.001910">
        <ele>290.20</ele>
        <time>1970-01-01T04:07:40Z</time>
      </trkpt>
      <trkpt lat="41.579804" lon="2.002100">
        <ele>290.00</ele>
        <time>1970-01-01T04:07:44Z</time>
      </trkpt>
      <trkpt lat="41.579505" lon="2.002318">
        <ele>289.60</ele>
        <time>1970-01-01T04:07:50Z</time>
      </trkpt>
      <trkpt lat="41.579350" lon="2.002416">
        <ele>289.40</ele>
        <time>1970-01-01T04:07:54Z</time>
      </trkpt>
      <trkpt lat="41.579324" lon="2.002431">
        <ele>289.20</ele>
        <time>1970-01-01T04:07:55Z</time>
      </trkpt>
      <trkpt lat="41.579234" lon="2.002460">
        <ele>288.60</ele>
        <time>1970-01-01T04:07:58Z</time>
      </trkpt>
      <trkpt lat="41.579184" lon="2.002513">
        <ele>288.20</ele>
        <time>1970-01-01T04:08:00Z</time>
      </trkpt>
      <trkpt lat="41.579124" lon="2.002662">
        <ele>287.80</ele>
        <time>1970-01-01T04:08:05Z</time>
      </trkpt>
      <trkpt lat="41.579138" lon="2.002671">
        <ele>287.60</ele>
        <time>1970-01-01T04:08:06Z</time>
      </trkpt>
      <trkpt lat="41.579174" lon="2.002645">
        <ele>287.60</ele>
        <time>1970-01-01T04:08:08Z</time>
      </trkpt>
      <trkpt lat="41.579210" lon="2.002604">
        <ele>287.40</ele>
        <time>1970-01-01T04:08:10Z</time>
      </trkpt>
      <trkpt lat="41.579245" lon="2.002570">
        <ele>286.80</ele>
        <time>1970-01-01T04:08:13Z</time>
      </trkpt>
      <trkpt lat="41.579253" lon="2.002560">
        <ele>286.80</ele>
        <time>1970-01-01T04:08:14Z</time>
      </trkpt>
      <trkpt lat="41.579237" lon="2.002540">
        <ele>286.80</ele>
        <time>1970-01-01T04:08:16Z</time>
      </trkpt>
      <trkpt lat="41.579207" lon="2.002605">
        <ele>287.00</ele>
        <time>1970-01-01T04:08:20Z</time>
      </trkpt>
      <trkpt lat="41.579205" lon="2.002613">
        <ele>287.00</ele>
        <time>1970-01-01T04:08:21Z</time>
      </trkpt>
      <trkpt lat="41.579201" lon="2.002627">
        <ele>287.20</ele>
        <time>1970-01-01T04:08:24Z</time>
      </trkpt>
      <trkpt lat="41.579299" lon="2.002631">
        <ele>287.00</ele>
        <time>1970-01-01T04:08:36Z</time>
      </trkpt>
      <trkpt lat="41.579317" lon="2.002644">
        <ele>287.00</ele>
        <time>1970-01-01T04:08:37Z</time>
      </trkpt>
      <trkpt lat="41.579390" lon="2.002739">
        <ele>287.20</ele>
        <time>1970-01-01T04:08:41Z</time>
      </trkpt>
      <trkpt lat="41.579437" lon="2.002797">
        <ele>287.20</ele>
        <time>1970-01-01T04:08:43Z</time>
      </trkpt>
      <trkpt lat="41.579508" lon="2.002890">
        <ele>287.40</ele>
        <time>1970-01-01T04:08:46Z</time>
      </trkpt>
      <trkpt lat="41.579578" lon="2.002979">
        <ele>287.40</ele>
        <time>1970-01-01T04:08:49Z</time>
      </trkpt>
      <trkpt lat="41.579642" lon="2.003137">
        <ele>287.60</ele>
        <time>1970-01-01T04:08:53Z</time>
      </trkpt>
      <trkpt lat="41.579746" lon="2.003197">
        <ele>288.00</ele>
        <time>1970-01-01T04:08:56Z</time>
      </trkpt>
      <trkpt lat="41.579839" lon="2.003248">
        <ele>288.60</ele>
        <time>1970-01-01T04:08:59Z</time>
      </trkpt>
      <trkpt lat="41.579867" lon="2.003287">
        <ele>288.80</ele>
        <time>1970-01-01T04:09:00Z</time>
      </trkpt>
      <trkpt lat="41.579896" lon="2.003329">
        <ele>288.80</ele>
        <time>1970-01-01T04:09:01Z</time>
      </trkpt>
      <trkpt lat="41.579956" lon="2.003415">
        <ele>289.00</ele>
        <time>1970-01-01T04:09:03Z</time>
      </trkpt>
      <trkpt lat="41.580057" lon="2.003549">
        <ele>289.20</ele>
        <time>1970-01-01T04:09:06Z</time>
      </trkpt>
      <trkpt lat="41.580128" lon="2.003639">
        <ele>289.60</ele>
        <time>1970-01-01T04:09:08Z</time>
      </trkpt>
      <trkpt lat="41.580301" lon="2.003885">
        <ele>290.40</ele>
        <time>1970-01-01T04:09:13Z</time>
      </trkpt>
      <trkpt lat="41.580314" lon="2.003948">
        <ele>290.20</ele>
        <time>1970-01-01T04:09:14Z</time>
      </trkpt>
      <trkpt lat="41.580315" lon="2.004155">
        <ele>290.40</ele>
        <time>1970-01-01T04:09:17Z</time>
      </trkpt>
      <trkpt lat="41.580309" lon="2.004497">
        <ele>290.40</ele>
        <time>1970-01-01T04:09:22Z</time>
      </trkpt>
      <trkpt lat="41.580299" lon="2.004984">
        <ele>289.60</ele>
        <time>1970-01-01T04:09:28Z</time>
      </trkpt>
      <trkpt lat="41.580289" lon="2.005345">
        <ele>288.80</ele>
        <time>1970-01-01T04:09:32Z</time>
      </trkpt>
      <trkpt lat="41.580289" lon="2.005529">
        <ele>288.20</ele>
        <time>1970-01-01T04:09:34Z</time>
      </trkpt>
      <trkpt lat="41.580288" lon="2.005622">
        <ele>288.00</ele>
        <time>1970-01-01T04:09:35Z</time>
      </trkpt>
      <trkpt lat="41.580278" lon="2.005918">
        <ele>287.00</ele>
        <time>1970-01-01T04:09:38Z</time>
      </trkpt>
      <trkpt lat="41.580263" lon="2.006137">
        <ele>286.80</ele>
        <time>1970-01-01T04:09:40Z</time>
      </trkpt>
      <trkpt lat="41.580173" lon="2.006421">
        <ele>286.20</ele>
        <time>1970-01-01T04:09:43Z</time>
      </trkpt>
      <trkpt lat="41.580086" lon="2.006556">
        <ele>286.00</ele>
        <time>1970-01-01T04:09:45Z</time>
      </trkpt>
      <trkpt lat="41.579954" lon="2.006731">
        <ele>285.80</ele>
        <time>1970-01-01T04:09:48Z</time>
      </trkpt>
      <trkpt lat="41.579791" lon="2.006954">
        <ele>285.80</ele>
        <time>1970-01-01T04:09:53Z</time>
      </trkpt>
      <trkpt lat="41.579732" lon="2.007041">
        <ele>286.20</ele>
        <time>1970-01-01T04:09:57Z</time>
      </trkpt>
      <trkpt lat="41.579736" lon="2.007053">
        <ele>286.40</ele>
        <time>1970-01-01T04:09:58Z</time>
      </trkpt>
      <trkpt lat="41.579746" lon="2.007073">
        <ele>286.40</ele>
        <time>1970-01-01T04:10:00Z</time>
      </trkpt>
      <trkpt lat="41.579732" lon="2.007084">
        <ele>286.60</ele>
        <time>1970-01-01T04:10:02Z</time>
      </trkpt>
      <trkpt lat="41.579720" lon="2.007063">
        <ele>286.80</ele>
        <time>1970-01-01T04:10:05Z</time>
      </trkpt>
      <trkpt lat="41.579719" lon="2.007062">
        <ele>287.00</ele>
        <time>1970-01-01T04:10:06Z</time>
      </trkpt>
      <trkpt lat="41.579718" lon="2.007061">
        <ele>287.20</ele>
        <time>1970-01-01T04:10:07Z</time>
      </trkpt>
      <trkpt lat="41.579706" lon="2.007081">
        <ele>287.60</ele>
        <time>1970-01-01T04:10:42Z</time>
      </trkpt>
      <trkpt lat="41.579699" lon="2.007107">
        <ele>287.60</ele>
        <time>1970-01-01T04:10:43Z</time>
      </trkpt>
      <trkpt lat="41.579692" lon="2.007142">
        <ele>287.60</ele>
        <time>1970-01-01T04:10:44Z</time>
      </trkpt>
      <trkpt lat="41.579669" lon="2.007230">
        <ele>287.60</ele>
        <time>1970-01-01T04:10:46Z</time>
      </trkpt>
      <trkpt lat="41.579657" lon="2.007330">
        <ele>287.60</ele>
        <time>1970-01-01T04:10:48Z</time>
      </trkpt>
      <trkpt lat="41.579656" lon="2.007439">
        <ele>287.80</ele>
        <time>1970-01-01T04:10:50Z</time>
      </trkpt>
      <trkpt lat="41.579662" lon="2.007544">
        <ele>287.80</ele>
        <time>1970-01-01T04:10:52Z</time>
      </trkpt>
      <trkpt lat="41.579667" lon="2.007597">
        <ele>287.80</ele>
        <time>1970-01-01T04:10:53Z</time>
      </trkpt>
      <trkpt lat="41.579683" lon="2.007763">
        <ele>288.60</ele>
        <time>1970-01-01T04:10:56Z</time>
      </trkpt>
      <trkpt lat="41.579684" lon="2.007825">
        <ele>288.80</ele>
        <time>1970-01-01T04:10:57Z</time>
      </trkpt>
      <trkpt lat="41.579683" lon="2.007887">
        <ele>289.00</ele>
        <time>1970-01-01T04:10:58Z</time>
      </trkpt>
      <trkpt lat="41.579684" lon="2.007949">
        <ele>289.40</ele>
        <time>1970-01-01T04:10:59Z</time>
      </trkpt>
      <trkpt lat="41.579697" lon="2.008150">
        <ele>290.60</ele>
        <time>1970-01-01T04:11:02Z</time>
      </trkpt>
      <trkpt lat="41.579703" lon="2.008220">
        <ele>291.00</ele>
        <time>1970-01-01T04:11:03Z</time>
      </trkpt>
      <trkpt lat="41.579727" lon="2.008511">
        <ele>291.60</ele>
        <time>1970-01-01T04:11:07Z</time>
      </trkpt>
      <trkpt lat="41.579739" lon="2.008643">
        <ele>291.80</ele>
        <time>1970-01-01T04:11:09Z</time>
      </trkpt>
      <trkpt lat="41.579783" lon="2.009173">
        <ele>292.60</ele>
        <time>1970-01-01T04:11:17Z</time>
      </trkpt>
      <trkpt lat="41.579789" lon="2.009238">
        <ele>292.60</ele>
        <time>1970-01-01T04:11:18Z</time>
      </trkpt>
      <trkpt lat="41.579794" lon="2.009305">
        <ele>292.60</ele>
        <time>1970-01-01T04:11:19Z</time>
      </trkpt>
      <trkpt lat="41.579813" lon="2.009573">
        <ele>293.20</ele>
        <time>1970-01-01T04:11:23Z</time>
      </trkpt>
      <trkpt lat="41.579821" lon="2.009707">
        <ele>293.60</ele>
        <time>1970-01-01T04:11:25Z</time>
      </trkpt>
      <trkpt lat="41.579829" lon="2.009776">
        <ele>293.80</ele>
        <time>1970-01-01T04:11:26Z</time>
      </trkpt>
      <trkpt lat="41.579835" lon="2.010196">
        <ele>295.00</ele>
        <time>1970-01-01T04:11:32Z</time>
      </trkpt>
      <trkpt lat="41.579840" lon="2.010269">
        <ele>295.00</ele>
        <time>1970-01-01T04:11:33Z</time>
      </trkpt>
      <trkpt lat="41.579855" lon="2.010620">
        <ele>296.00</ele>
        <time>1970-01-01T04:11:38Z</time>
      </trkpt>
      <trkpt lat="41.579861" lon="2.010825">
        <ele>296.60</ele>
        <time>1970-01-01T04:11:41Z</time>
      </trkpt>
      <trkpt lat="41.579878" lon="2.011298">
        <ele>297.00</ele>
        <time>1970-01-01T04:11:48Z</time>
      </trkpt>
      <trkpt lat="41.579882" lon="2.011360">
        <ele>297.00</ele>
        <time>1970-01-01T04:11:49Z</time>
      </trkpt>
      <trkpt lat="41.579896" lon="2.011611">
        <ele>297.40</ele>
        <time>1970-01-01T04:11:54Z</time>
      </trkpt>
      <trkpt lat="41.579888" lon="2.011729">
        <ele>297.80</ele>
        <time>1970-01-01T04:11:58Z</time>
      </trkpt>
      <trkpt lat="41.579891" lon="2.011816">
        <ele>298.00</ele>
        <time>1970-01-01T04:12:02Z</time>
      </trkpt>
      <trkpt lat="41.579888" lon="2.011894">
        <ele>298.00</ele>
        <time>1970-01-01T04:12:04Z</time>
      </trkpt>
      <trkpt lat="41.579902" lon="2.012155">
        <ele>298.40</ele>
        <time>1970-01-01T04:12:09Z</time>
      </trkpt>
      <trkpt lat="41.579910" lon="2.012275">
        <ele>298.40</ele>
        <time>1970-01-01T04:12:11Z</time>
      </trkpt>
      <trkpt lat="41.579922" lon="2.012655">
        <ele>298.80</ele>
        <time>1970-01-01T04:12:17Z</time>
      </trkpt>
      <trkpt lat="41.579933" lon="2.012917">
        <ele>299.00</ele>
        <time>1970-01-01T04:12:21Z</time>
      </trkpt>
      <trkpt lat="41.579951" lon="2.013125">
        <ele>299.20</ele>
        <time>1970-01-01T04:12:24Z</time>
      </trkpt>
      <trkpt lat="41.579975" lon="2.013409">
        <ele>300.20</ele>
        <time>1970-01-01T04:12:28Z</time>
      </trkpt>
      <trkpt lat="41.580004" lon="2.013697">
        <ele>301.20</ele>
        <time>1970-01-01T04:12:32Z</time>
      </trkpt>
      <trkpt lat="41.580014" lon="2.013841">
        <ele>301.60</ele>
        <time>1970-01-01T04:12:34Z</time>
      </trkpt>
      <trkpt lat="41.580048" lon="2.014348">
        <ele>301.80</ele>
        <time>1970-01-01T04:12:41Z</time>
      </trkpt>
      <trkpt lat="41.580100" lon="2.015027">
        <ele>302.20</ele>
        <time>1970-01-01T04:12:50Z</time>
      </trkpt>
      <trkpt lat="41.580108" lon="2.015101">
        <ele>302.40</ele>
        <time>1970-01-01T04:12:51Z</time>
      </trkpt>
      <trkpt lat="41.580164" lon="2.015539">
        <ele>302.60</ele>
        <time>1970-01-01T04:12:57Z</time>
      </trkpt>
      <trkpt lat="41.580206" lon="2.015952">
        <ele>303.00</ele>
        <time>1970-01-01T04:13:03Z</time>
      </trkpt>
      <trkpt lat="41.580213" lon="2.016021">
        <ele>303.20</ele>
        <time>1970-01-01T04:13:04Z</time>
      </trkpt>
      <trkpt lat="41.580224" lon="2.016584">
        <ele>303.80</ele>
        <time>1970-01-01T04:13:12Z</time>
      </trkpt>
      <trkpt lat="41.580172" lon="2.017012">
        <ele>304.20</ele>
        <time>1970-01-01T04:13:18Z</time>
      </trkpt>
      <trkpt lat="41.580151" lon="2.017152">
        <ele>304.60</ele>
        <time>1970-01-01T04:13:20Z</time>
      </trkpt>
      <trkpt lat="41.580095" lon="2.017572">
        <ele>305.00</ele>
        <time>1970-01-01T04:13:27Z</time>
      </trkpt>
      <trkpt lat="41.580056" lon="2.017733">
        <ele>305.00</ele>
        <time>1970-01-01T04:13:31Z</time>
      </trkpt>
      <trkpt lat="41.579966" lon="2.017878">
        <ele>305.00</ele>
        <time>1970-01-01T04:13:35Z</time>
      </trkpt>
      <trkpt lat="41.579944" lon="2.018065">
        <ele>305.00</ele>
        <time>1970-01-01T04:13:38Z</time>
      </trkpt>
      <trkpt lat="41.579995" lon="2.018328">
        <ele>304.80</ele>
        <time>1970-01-01T04:13:42Z</time>
      </trkpt>
      <trkpt lat="41.580018" lon="2.018754">
        <ele>304.80</ele>
        <time>1970-01-01T04:13:48Z</time>
      </trkpt>
      <trkpt lat="41.580029" lon="2.019290">
        <ele>305.20</ele>
        <time>1970-01-01T04:13:55Z</time>
      </trkpt>
      <trkpt lat="41.580029" lon="2.019498">
        <ele>305.40</ele>
        <time>1970-01-01T04:13:58Z</time>
      </trkpt>
      <trkpt lat="41.580018" lon="2.019697">
        <ele>305.40</ele>
        <time>1970-01-01T04:14:01Z</time>
      </trkpt>
      <trkpt lat="41.580028" lon="2.020225">
        <ele>305.40</ele>
        <time>1970-01-01T04:14:08Z</time>
      </trkpt>
      <trkpt lat="41.580040" lon="2.020454">
        <ele>305.40</ele>
        <time>1970-01-01T04:14:11Z</time>
      </trkpt>
      <trkpt lat="41.580055" lon="2.020764">
        <ele>305.40</ele>
        <time>1970-01-01T04:14:15Z</time>
      </trkpt>
      <trkpt lat="41.580098" lon="2.021540">
        <ele>305.80</ele>
        <time>1970-01-01T04:14:25Z</time>
      </trkpt>
      <trkpt lat="41.580129" lon="2.022171">
        <ele>305.60</ele>
        <time>1970-01-01T04:14:33Z</time>
      </trkpt>
      <trkpt lat="41.580132" lon="2.022249">
        <ele>305.80</ele>
        <time>1970-01-01T04:14:34Z</time>
      </trkpt>
      <trkpt lat="41.580162" lon="2.023003">
        <ele>306.00</ele>
        <time>1970-01-01T04:14:44Z</time>
      </trkpt>
      <trkpt lat="41.580166" lon="2.023156">
        <ele>306.00</ele>
        <time>1970-01-01T04:14:46Z</time>
      </trkpt>
      <trkpt lat="41.580180" lon="2.023589">
        <ele>306.80</ele>
        <time>1970-01-01T04:14:52Z</time>
      </trkpt>
      <trkpt lat="41.580189" lon="2.023924">
        <ele>307.00</ele>
        <time>1970-01-01T04:14:58Z</time>
      </trkpt>
      <trkpt lat="41.580174" lon="2.023990">
        <ele>307.00</ele>
        <time>1970-01-01T04:15:02Z</time>
      </trkpt>
      <trkpt lat="41.580169" lon="2.024040">
        <ele>307.20</ele>
        <time>1970-01-01T04:15:04Z</time>
      </trkpt>
      <trkpt lat="41.580178" lon="2.024114">
        <ele>307.20</ele>
        <time>1970-01-01T04:15:06Z</time>
      </trkpt>
      <trkpt lat="41.580186" lon="2.024165">
        <ele>307.40</ele>
        <time>1970-01-01T04:15:07Z</time>
      </trkpt>
      <trkpt lat="41.580195" lon="2.024283">
        <ele>307.40</ele>
        <time>1970-01-01T04:15:09Z</time>
      </trkpt>
      <trkpt lat="41.580195" lon="2.024347">
        <ele>307.40</ele>
        <time>1970-01-01T04:15:10Z</time>
      </trkpt>
      <trkpt lat="41.580207" lon="2.024868">
        <ele>307.40</ele>
        <time>1970-01-01T04:15:17Z</time>
      </trkpt>
      <trkpt lat="41.580231" lon="2.025545">
        <ele>306.80</ele>
        <time>1970-01-01T04:15:25Z</time>
      </trkpt>
      <trkpt lat="41.580261" lon="2.026335">
        <ele>306.00</ele>
        <time>1970-01-01T04:15:34Z</time>
      </trkpt>
      <trkpt lat="41.580267" lon="2.026425">
        <ele>306.00</ele>
        <time>1970-01-01T04:15:35Z</time>
      </trkpt>
      <trkpt lat="41.580320" lon="2.027033">
        <ele>304.80</ele>
        <time>1970-01-01T04:15:42Z</time>
      </trkpt>
      <trkpt lat="41.580326" lon="2.027116">
        <ele>304.60</ele>
        <time>1970-01-01T04:15:43Z</time>
      </trkpt>
      <trkpt lat="41.580349" lon="2.027514">
        <ele>304.40</ele>
        <time>1970-01-01T04:15:48Z</time>
      </trkpt>
      <trkpt lat="41.580350" lon="2.027590">
        <ele>304.40</ele>
        <time>1970-01-01T04:15:49Z</time>
      </trkpt>
      <trkpt lat="41.580355" lon="2.027812">
        <ele>304.20</ele>
        <time>1970-01-01T04:15:52Z</time>
      </trkpt>
      <trkpt lat="41.580328" lon="2.028038">
        <ele>304.20</ele>
        <time>1970-01-01T04:15:55Z</time>
      </trkpt>
      <trkpt lat="41.580371" lon="2.028262">
        <ele>304.20</ele>
        <time>1970-01-01T04:15:58Z</time>
      </trkpt>
      <trkpt lat="41.580455" lon="2.028597">
        <ele>304.00</ele>
        <time>1970-01-01T04:16:03Z</time>
      </trkpt>
      <trkpt lat="41.580498" lon="2.028853">
        <ele>303.80</ele>
        <time>1970-01-01T04:16:06Z</time>
      </trkpt>
      <trkpt lat="41.580570" lon="2.029199">
        <ele>303.00</ele>
        <time>1970-01-01T04:16:10Z</time>
      </trkpt>
      <trkpt lat="41.580605" lon="2.029372">
        <ele>302.60</ele>
        <time>1970-01-01T04:16:12Z</time>
      </trkpt>
      <trkpt lat="41.580658" lon="2.029713">
        <ele>301.40</ele>
        <time>1970-01-01T04:16:16Z</time>
      </trkpt>
      <trkpt lat="41.580670" lon="2.029794">
        <ele>301.40</ele>
        <time>1970-01-01T04:16:17Z</time>
      </trkpt>
      <trkpt lat="41.580707" lon="2.030265">
        <ele>301.00</ele>
        <time>1970-01-01T04:16:23Z</time>
      </trkpt>
      <trkpt lat="41.580710" lon="2.030348">
        <ele>301.00</ele>
        <time>1970-01-01T04:16:24Z</time>
      </trkpt>
      <trkpt lat="41.580643" lon="2.030671">
        <ele>301.00</ele>
        <time>1970-01-01T04:16:28Z</time>
      </trkpt>
      <trkpt lat="41.580592" lon="2.030820">
        <ele>301.00</ele>
        <time>1970-01-01T04:16:30Z</time>
      </trkpt>
      <trkpt lat="41.580531" lon="2.030959">
        <ele>300.80</ele>
        <time>1970-01-01T04:16:32Z</time>
      </trkpt>
      <trkpt lat="41.580503" lon="2.031028">
        <ele>300.60</ele>
        <time>1970-01-01T04:16:33Z</time>
      </trkpt>
      <trkpt lat="41.580451" lon="2.031158">
        <ele>300.40</ele>
        <time>1970-01-01T04:16:35Z</time>
      </trkpt>
      <trkpt lat="41.580337" lon="2.031368">
        <ele>299.40</ele>
        <time>1970-01-01T04:16:39Z</time>
      </trkpt>
      <trkpt lat="41.580320" lon="2.031455">
        <ele>299.00</ele>
        <time>1970-01-01T04:16:41Z</time>
      </trkpt>
      <trkpt lat="41.580331" lon="2.031496">
        <ele>299.00</ele>
        <time>1970-01-01T04:16:42Z</time>
      </trkpt>
      <trkpt lat="41.580423" lon="2.031602">
        <ele>298.80</ele>
        <time>1970-01-01T04:16:45Z</time>
      </trkpt>
      <trkpt lat="41.580460" lon="2.031636">
        <ele>298.80</ele>
        <time>1970-01-01T04:16:46Z</time>
      </trkpt>
      <trkpt lat="41.580635" lon="2.031770">
        <ele>298.80</ele>
        <time>1970-01-01T04:16:50Z</time>
      </trkpt>
      <trkpt lat="41.580769" lon="2.031888">
        <ele>298.80</ele>
        <time>1970-01-01T04:16:53Z</time>
      </trkpt>
      <trkpt lat="41.581025" lon="2.032119">
        <ele>299.00</ele>
        <time>1970-01-01T04:16:59Z</time>
      </trkpt>
      <trkpt lat="41.581111" lon="2.032196">
        <ele>299.20</ele>
        <time>1970-01-01T04:17:01Z</time>
      </trkpt>
      <trkpt lat="41.581282" lon="2.032346">
        <ele>299.40</ele>
        <time>1970-01-01T04:17:05Z</time>
      </trkpt>
      <trkpt lat="41.581496" lon="2.032530">
        <ele>299.60</ele>
        <time>1970-01-01T04:17:10Z</time>
      </trkpt>
      <trkpt lat="41.581678" lon="2.032675">
        <ele>299.80</ele>
        <time>1970-01-01T04:17:14Z</time>
      </trkpt>
      <trkpt lat="41.581769" lon="2.032749">
        <ele>299.80</ele>
        <time>1970-01-01T04:17:16Z</time>
      </trkpt>
      <trkpt lat="41.581856" lon="2.032823">
        <ele>300.20</ele>
        <time>1970-01-01T04:17:18Z</time>
      </trkpt>
      <trkpt lat="41.582104" lon="2.033033">
        <ele>300.80</ele>
        <time>1970-01-01T04:17:24Z</time>
      </trkpt>
      <trkpt lat="41.582290" lon="2.033188">
        <ele>301.20</ele>
        <time>1970-01-01T04:17:29Z</time>
      </trkpt>
      <trkpt lat="41.582325" lon="2.033216">
        <ele>301.20</ele>
        <time>1970-01-01T04:17:30Z</time>
      </trkpt>
      <trkpt lat="41.582561" lon="2.033418">
        <ele>302.40</ele>
        <time>1970-01-01T04:17:37Z</time>
      </trkpt>
      <trkpt lat="41.582805" lon="2.033614">
        <ele>303.00</ele>
        <time>1970-01-01T04:17:44Z</time>
      </trkpt>
      <trkpt lat="41.582864" lon="2.033665">
        <ele>303.60</ele>
        <time>1970-01-01T04:17:46Z</time>
      </trkpt>
      <trkpt lat="41.582949" lon="2.033769">
        <ele>304.00</ele>
        <time>1970-01-01T04:17:50Z</time>
      </trkpt>
      <trkpt lat="41.583018" lon="2.033970">
        <ele>304.60</ele>
        <time>1970-01-01T04:17:55Z</time>
      </trkpt>
      <trkpt lat="41.583048" lon="2.034057">
        <ele>304.60</ele>
        <time>1970-01-01T04:17:57Z</time>
      </trkpt>
      <trkpt lat="41.583062" lon="2.034154">
        <ele>304.60</ele>
        <time>1970-01-01T04:18:00Z</time>
      </trkpt>
      <trkpt lat="41.583057" lon="2.034182">
        <ele>304.60</ele>
        <time>1970-01-01T04:18:01Z</time>
      </trkpt>
      <trkpt lat="41.583044" lon="2.034281">
        <ele>304.60</ele>
        <time>1970-01-01T04:18:04Z</time>
      </trkpt>
      <trkpt lat="41.583028" lon="2.034526">
        <ele>304.60</ele>
        <time>1970-01-01T04:18:10Z</time>
      </trkpt>
      <trkpt lat="41.582942" lon="2.034733">
        <ele>305.00</ele>
        <time>1970-01-01T04:18:15Z</time>
      </trkpt>
      <trkpt lat="41.582922" lon="2.034777">
        <ele>305.20</ele>
        <time>1970-01-01T04:18:16Z</time>
      </trkpt>
      <trkpt lat="41.582861" lon="2.034954">
        <ele>305.60</ele>
        <time>1970-01-01T04:18:20Z</time>
      </trkpt>
      <trkpt lat="41.582832" lon="2.035035">
        <ele>305.60</ele>
        <time>1970-01-01T04:18:22Z</time>
      </trkpt>
      <trkpt lat="41.582704" lon="2.035322">
        <ele>306.20</ele>
        <time>1970-01-01T04:18:30Z</time>
      </trkpt>
      <trkpt lat="41.582668" lon="2.035437">
        <ele>306.60</ele>
        <time>1970-01-01T04:18:34Z</time>
      </trkpt>
      <trkpt lat="41.582669" lon="2.035514">
        <ele>306.80</ele>
        <time>1970-01-01T04:18:36Z</time>
      </trkpt>
      <trkpt lat="41.582679" lon="2.035631">
        <ele>307.60</ele>
        <time>1970-01-01T04:18:39Z</time>
      </trkpt>
      <trkpt lat="41.582691" lon="2.035716">
        <ele>308.00</ele>
        <time>1970-01-01T04:18:42Z</time>
      </trkpt>
      <trkpt lat="41.582695" lon="2.035755">
        <ele>308.60</ele>
        <time>1970-01-01T04:18:44Z</time>
      </trkpt>
      <trkpt lat="41.582699" lon="2.035799">
        <ele>309.40</ele>
        <time>1970-01-01T04:18:47Z</time>
      </trkpt>
      <trkpt lat="41.582697" lon="2.035815">
        <ele>309.60</ele>
        <time>1970-01-01T04:18:48Z</time>
      </trkpt>
      <trkpt lat="41.582699" lon="2.035847">
        <ele>310.20</ele>
        <time>1970-01-01T04:18:50Z</time>
      </trkpt>
      <trkpt lat="41.582698" lon="2.035913">
        <ele>310.40</ele>
        <time>1970-01-01T04:18:53Z</time>
      </trkpt>
      <trkpt lat="41.582692" lon="2.035945">
        <ele>310.40</ele>
        <time>1970-01-01T04:18:58Z</time>
      </trkpt>
      <trkpt lat="41.582692" lon="2.035944">
        <ele>310.40</ele>
        <time>1970-01-01T04:18:59Z</time>
      </trkpt>
      <trkpt lat="41.582676" lon="2.035980">
        <ele>310.00</ele>
        <time>1970-01-01T04:19:11Z</time>
      </trkpt>
      <trkpt lat="41.582641" lon="2.036024">
        <ele>310.00</ele>
        <time>1970-01-01T04:19:13Z</time>
      </trkpt>
      <trkpt lat="41.582589" lon="2.036078">
        <ele>310.00</ele>
        <time>1970-01-01T04:19:15Z</time>
      </trkpt>
      <trkpt lat="41.582519" lon="2.036154">
        <ele>309.80</ele>
        <time>1970-01-01T04:19:17Z</time>
      </trkpt>
      <trkpt lat="41.582360" lon="2.036257">
        <ele>309.60</ele>
        <time>1970-01-01T04:19:21Z</time>
      </trkpt>
      <trkpt lat="41.582300" lon="2.036322">
        <ele>308.80</ele>
        <time>1970-01-01T04:19:23Z</time>
      </trkpt>
      <trkpt lat="41.582271" lon="2.036363">
        <ele>308.60</ele>
        <time>1970-01-01T04:19:24Z</time>
      </trkpt>
      <trkpt lat="41.582247" lon="2.036409">
        <ele>308.20</ele>
        <time>1970-01-01T04:19:25Z</time>
      </trkpt>
      <trkpt lat="41.582227" lon="2.036462">
        <ele>307.40</ele>
        <time>1970-01-01T04:19:26Z</time>
      </trkpt>
      <trkpt lat="41.582180" lon="2.036572">
        <ele>306.40</ele>
        <time>1970-01-01T04:19:28Z</time>
      </trkpt>
      <trkpt lat="41.582151" lon="2.036625">
        <ele>306.20</ele>
        <time>1970-01-01T04:19:29Z</time>
      </trkpt>
      <trkpt lat="41.582067" lon="2.036699">
        <ele>305.60</ele>
        <time>1970-01-01T04:19:31Z</time>
      </trkpt>
      <trkpt lat="41.581982" lon="2.036704">
        <ele>304.80</ele>
        <time>1970-01-01T04:19:33Z</time>
      </trkpt>
      <trkpt lat="41.581947" lon="2.036692">
        <ele>304.40</ele>
        <time>1970-01-01T04:19:34Z</time>
      </trkpt>
      <trkpt lat="41.581918" lon="2.036688">
        <ele>303.80</ele>
        <time>1970-01-01T04:19:35Z</time>
      </trkpt>
      <trkpt lat="41.581887" lon="2.036732">
        <ele>302.60</ele>
        <time>1970-01-01T04:19:37Z</time>
      </trkpt>
      <trkpt lat="41.581891" lon="2.036768">
        <ele>302.20</ele>
        <time>1970-01-01T04:19:38Z</time>
      </trkpt>
      <trkpt lat="41.581905" lon="2.036802">
        <ele>301.60</ele>
        <time>1970-01-01T04:19:39Z</time>
      </trkpt>
      <trkpt lat="41.581922" lon="2.036829">
        <ele>301.20</ele>
        <time>1970-01-01T04:19:40Z</time>
      </trkpt>
      <trkpt lat="41.581968" lon="2.036933">
        <ele>300.40</ele>
        <time>1970-01-01T04:19:44Z</time>
      </trkpt>
      <trkpt lat="41.582070" lon="2.036933">
        <ele>299.40</ele>
        <time>1970-01-01T04:19:47Z</time>
      </trkpt>
      <trkpt lat="41.582109" lon="2.036927">
        <ele>298.60</ele>
        <time>1970-01-01T04:19:48Z</time>
      </trkpt>
      <trkpt lat="41.582150" lon="2.036919">
        <ele>298.20</ele>
        <time>1970-01-01T04:19:49Z</time>
      </trkpt>
      <trkpt lat="41.582291" lon="2.036886">
        <ele>297.80</ele>
        <time>1970-01-01T04:19:52Z</time>
      </trkpt>
      <trkpt lat="41.582344" lon="2.036875">
        <ele>297.60</ele>
        <time>1970-01-01T04:19:53Z</time>
      </trkpt>
      <trkpt lat="41.582518" lon="2.036838">
        <ele>297.40</ele>
        <time>1970-01-01T04:19:56Z</time>
      </trkpt>
      <trkpt lat="41.582581" lon="2.036826">
        <ele>297.40</ele>
        <time>1970-01-01T04:19:57Z</time>
      </trkpt>
      <trkpt lat="41.582779" lon="2.036790">
        <ele>297.40</ele>
        <time>1970-01-01T04:20:00Z</time>
      </trkpt>
      <trkpt lat="41.582985" lon="2.036748">
        <ele>297.40</ele>
        <time>1970-01-01T04:20:03Z</time>
      </trkpt>
      <trkpt lat="41.583201" lon="2.036704">
        <ele>297.40</ele>
        <time>1970-01-01T04:20:06Z</time>
      </trkpt>
      <trkpt lat="41.583350" lon="2.036676">
        <ele>297.40</ele>
        <time>1970-01-01T04:20:08Z</time>
      </trkpt>
      <trkpt lat="41.583643" lon="2.036617">
        <ele>297.40</ele>
        <time>1970-01-01T04:20:12Z</time>
      </trkpt>
      <trkpt lat="41.583927" lon="2.036558">
        <ele>297.20</ele>
        <time>1970-01-01T04:20:16Z</time>
      </trkpt>
      <trkpt lat="41.583996" lon="2.036544">
        <ele>297.40</ele>
        <time>1970-01-01T04:20:17Z</time>
      </trkpt>
      <trkpt lat="41.584203" lon="2.036529">
        <ele>297.40</ele>
        <time>1970-01-01T04:20:20Z</time>
      </trkpt>
      <trkpt lat="41.584337" lon="2.036577">
        <ele>297.20</ele>
        <time>1970-01-01T04:20:22Z</time>
      </trkpt>
      <trkpt lat="41.584452" lon="2.036679">
        <ele>297.00</ele>
        <time>1970-01-01T04:20:24Z</time>
      </trkpt>
      <trkpt lat="41.584496" lon="2.036752">
        <ele>297.00</ele>
        <time>1970-01-01T04:20:25Z</time>
      </trkpt>
      <trkpt lat="41.584566" lon="2.036922">
        <ele>297.00</ele>
        <time>1970-01-01T04:20:27Z</time>
      </trkpt>
      <trkpt lat="41.584659" lon="2.037190">
        <ele>297.20</ele>
        <time>1970-01-01T04:20:30Z</time>
      </trkpt>
      <trkpt lat="41.584903" lon="2.037910">
        <ele>297.20</ele>
        <time>1970-01-01T04:20:38Z</time>
      </trkpt>
      <trkpt lat="41.584936" lon="2.038004">
        <ele>297.20</ele>
        <time>1970-01-01T04:20:39Z</time>
      </trkpt>
      <trkpt lat="41.585193" lon="2.038740">
        <ele>297.20</ele>
        <time>1970-01-01T04:20:47Z</time>
      </trkpt>
      <trkpt lat="41.585239" lon="2.038906">
        <ele>297.20</ele>
        <time>1970-01-01T04:20:49Z</time>
      </trkpt>
      <trkpt lat="41.585207" lon="2.039032">
        <ele>297.20</ele>
        <time>1970-01-01T04:20:51Z</time>
      </trkpt>
      <trkpt lat="41.585097" lon="2.039089">
        <ele>297.40</ele>
        <time>1970-01-01T04:20:54Z</time>
      </trkpt>
      <trkpt lat="41.585006" lon="2.039084">
        <ele>297.40</ele>
        <time>1970-01-01T04:20:56Z</time>
      </trkpt>
      <trkpt lat="41.584914" lon="2.039081">
        <ele>297.80</ele>
        <time>1970-01-01T04:20:58Z</time>
      </trkpt>
      <trkpt lat="41.584782" lon="2.039081">
        <ele>298.80</ele>
        <time>1970-01-01T04:21:01Z</time>
      </trkpt>
      <trkpt lat="41.584738" lon="2.039074">
        <ele>299.00</ele>
        <time>1970-01-01T04:21:02Z</time>
      </trkpt>
      <trkpt lat="41.584608" lon="2.039056">
        <ele>299.40</ele>
        <time>1970-01-01T04:21:05Z</time>
      </trkpt>
      <trkpt lat="41.584471" lon="2.039039">
        <ele>300.00</ele>
        <time>1970-01-01T04:21:08Z</time>
      </trkpt>
      <trkpt lat="41.584381" lon="2.039026">
        <ele>300.60</ele>
        <time>1970-01-01T04:21:10Z</time>
      </trkpt>
      <trkpt lat="41.584289" lon="2.039008">
        <ele>300.80</ele>
        <time>1970-01-01T04:21:12Z</time>
      </trkpt>
      <trkpt lat="41.584038" lon="2.038979">
        <ele>301.00</ele>
        <time>1970-01-01T04:21:18Z</time>
      </trkpt>
      <trkpt lat="41.584014" lon="2.038973">
        <ele>301.20</ele>
        <time>1970-01-01T04:21:19Z</time>
      </trkpt>
      <trkpt lat="41.583975" lon="2.038966">
        <ele>301.40</ele>
        <time>1970-01-01T04:21:22Z</time>
      </trkpt>
      <trkpt lat="41.583922" lon="2.038959">
        <ele>301.60</ele>
        <time>1970-01-01T04:21:27Z</time>
      </trkpt>
      <trkpt lat="41.583892" lon="2.038957">
        <ele>301.60</ele>
        <time>1970-01-01T04:21:29Z</time>
      </trkpt>
      <trkpt lat="41.583845" lon="2.038957">
        <ele>301.80</ele>
        <time>1970-01-01T04:21:31Z</time>
      </trkpt>
      <trkpt lat="41.583698" lon="2.038983">
        <ele>302.00</ele>
        <time>1970-01-01T04:21:35Z</time>
      </trkpt>
      <trkpt lat="41.583656" lon="2.038999">
        <ele>302.00</ele>
        <time>1970-01-01T04:21:36Z</time>
      </trkpt>
      <trkpt lat="41.583530" lon="2.039048">
        <ele>302.00</ele>
        <time>1970-01-01T04:21:39Z</time>
      </trkpt>
      <trkpt lat="41.583406" lon="2.039121">
        <ele>302.00</ele>
        <time>1970-01-01T04:21:42Z</time>
      </trkpt>
      <trkpt lat="41.583325" lon="2.039173">
        <ele>302.00</ele>
        <time>1970-01-01T04:21:44Z</time>
      </trkpt>
      <trkpt lat="41.583217" lon="2.039258">
        <ele>302.20</ele>
        <time>1970-01-01T04:21:47Z</time>
      </trkpt>
      <trkpt lat="41.583150" lon="2.039344">
        <ele>302.40</ele>
        <time>1970-01-01T04:21:49Z</time>
      </trkpt>
      <trkpt lat="41.583028" lon="2.039557">
        <ele>302.40</ele>
        <time>1970-01-01T04:21:53Z</time>
      </trkpt>
      <trkpt lat="41.582948" lon="2.039734">
        <ele>302.80</ele>
        <time>1970-01-01T04:21:56Z</time>
      </trkpt>
      <trkpt lat="41.582873" lon="2.039924">
        <ele>303.00</ele>
        <time>1970-01-01T04:21:59Z</time>
      </trkpt>
      <trkpt lat="41.582822" lon="2.040121">
        <ele>303.20</ele>
        <time>1970-01-01T04:22:02Z</time>
      </trkpt>
      <trkpt lat="41.582813" lon="2.040190">
        <ele>303.20</ele>
        <time>1970-01-01T04:22:03Z</time>
      </trkpt>
      <trkpt lat="41.582802" lon="2.040671">
        <ele>303.60</ele>
        <time>1970-01-01T04:22:09Z</time>
      </trkpt>
      <trkpt lat="41.582817" lon="2.040853">
        <ele>303.60</ele>
        <time>1970-01-01T04:22:11Z</time>
      </trkpt>
      <trkpt lat="41.582877" lon="2.041124">
        <ele>303.60</ele>
        <time>1970-01-01T04:22:14Z</time>
      </trkpt>
      <trkpt lat="41.583039" lon="2.041734">
        <ele>303.00</ele>
        <time>1970-01-01T04:22:21Z</time>
      </trkpt>
      <trkpt lat="41.583063" lon="2.041824">
        <ele>302.80</ele>
        <time>1970-01-01T04:22:22Z</time>
      </trkpt>
      <trkpt lat="41.583150" lon="2.042225">
        <ele>302.40</ele>
        <time>1970-01-01T04:22:27Z</time>
      </trkpt>
      <trkpt lat="41.583189" lon="2.042426">
        <ele>302.40</ele>
        <time>1970-01-01T04:22:30Z</time>
      </trkpt>
      <trkpt lat="41.583205" lon="2.042581">
        <ele>302.40</ele>
        <time>1970-01-01T04:22:32Z</time>
      </trkpt>
      <trkpt lat="41.583170" lon="2.042988">
        <ele>302.20</ele>
        <time>1970-01-01T04:22:36Z</time>
      </trkpt>
      <trkpt lat="41.583138" lon="2.043451">
        <ele>302.00</ele>
        <time>1970-01-01T04:22:40Z</time>
      </trkpt>
      <trkpt lat="41.583105" lon="2.043697">
        <ele>302.00</ele>
        <time>1970-01-01T04:22:42Z</time>
      </trkpt>
      <trkpt lat="41.583087" lon="2.043825">
        <ele>301.00</ele>
        <time>1970-01-01T04:22:43Z</time>
      </trkpt>
      <trkpt lat="41.583048" lon="2.044085">
        <ele>300.00</ele>
        <time>1970-01-01T04:22:45Z</time>
      </trkpt>
      <trkpt lat="41.582988" lon="2.044336">
        <ele>298.20</ele>
        <time>1970-01-01T04:22:47Z</time>
      </trkpt>
      <trkpt lat="41.582946" lon="2.044455">
        <ele>297.40</ele>
        <time>1970-01-01T04:22:48Z</time>
      </trkpt>
      <trkpt lat="41.582894" lon="2.044561">
        <ele>296.80</ele>
        <time>1970-01-01T04:22:49Z</time>
      </trkpt>
      <trkpt lat="41.582834" lon="2.044656">
        <ele>296.60</ele>
        <time>1970-01-01T04:22:50Z</time>
      </trkpt>
      <trkpt lat="41.582707" lon="2.044833">
        <ele>295.40</ele>
        <time>1970-01-01T04:22:52Z</time>
      </trkpt>
      <trkpt lat="41.582592" lon="2.045020">
        <ele>294.00</ele>
        <time>1970-01-01T04:22:54Z</time>
      </trkpt>
      <trkpt lat="41.582468" lon="2.045191">
        <ele>292.60</ele>
        <time>1970-01-01T04:22:56Z</time>
      </trkpt>
      <trkpt lat="41.582408" lon="2.045270">
        <ele>292.00</ele>
        <time>1970-01-01T04:22:57Z</time>
      </trkpt>
      <trkpt lat="41.582350" lon="2.045348">
        <ele>291.40</ele>
        <time>1970-01-01T04:22:58Z</time>
      </trkpt>
      <trkpt lat="41.582290" lon="2.045422">
        <ele>290.60</ele>
        <time>1970-01-01T04:22:59Z</time>
      </trkpt>
      <trkpt lat="41.582225" lon="2.045483">
        <ele>290.00</ele>
        <time>1970-01-01T04:23:00Z</time>
      </trkpt>
      <trkpt lat="41.582155" lon="2.045531">
        <ele>289.20</ele>
        <time>1970-01-01T04:23:01Z</time>
      </trkpt>
      <trkpt lat="41.582084" lon="2.045566">
        <ele>288.60</ele>
        <time>1970-01-01T04:23:02Z</time>
      </trkpt>
      <trkpt lat="41.582016" lon="2.045592">
        <ele>288.20</ele>
        <time>1970-01-01T04:23:03Z</time>
      </trkpt>
      <trkpt lat="41.581896" lon="2.045650">
        <ele>287.80</ele>
        <time>1970-01-01T04:23:05Z</time>
      </trkpt>
      <trkpt lat="41.581793" lon="2.045712">
        <ele>287.80</ele>
        <time>1970-01-01T04:23:07Z</time>
      </trkpt>
      <trkpt lat="41.581688" lon="2.045763">
        <ele>287.80</ele>
        <time>1970-01-01T04:23:09Z</time>
      </trkpt>
      <trkpt lat="41.581584" lon="2.045819">
        <ele>288.00</ele>
        <time>1970-01-01T04:23:11Z</time>
      </trkpt>
      <trkpt lat="41.581485" lon="2.045905">
        <ele>288.60</ele>
        <time>1970-01-01T04:23:13Z</time>
      </trkpt>
      <trkpt lat="41.581413" lon="2.046050">
        <ele>289.40</ele>
        <time>1970-01-01T04:23:15Z</time>
      </trkpt>
      <trkpt lat="41.581387" lon="2.046242">
        <ele>289.60</ele>
        <time>1970-01-01T04:23:17Z</time>
      </trkpt>
      <trkpt lat="41.581391" lon="2.046424">
        <ele>289.80</ele>
        <time>1970-01-01T04:23:19Z</time>
      </trkpt>
      <trkpt lat="41.581386" lon="2.046550">
        <ele>290.00</ele>
        <time>1970-01-01T04:23:22Z</time>
      </trkpt>
      <trkpt lat="41.581359" lon="2.046577">
        <ele>290.00</ele>
        <time>1970-01-01T04:23:26Z</time>
      </trkpt>
      <trkpt lat="41.581315" lon="2.046594">
        <ele>289.60</ele>
        <time>1970-01-01T04:23:40Z</time>
      </trkpt>
      <trkpt lat="41.581303" lon="2.046594">
        <ele>289.60</ele>
        <time>1970-01-01T04:23:41Z</time>
      </trkpt>
      <trkpt lat="41.581278" lon="2.046577">
        <ele>289.60</ele>
        <time>1970-01-01T04:23:43Z</time>
      </trkpt>
      <trkpt lat="41.581249" lon="2.046556">
        <ele>289.60</ele>
        <time>1970-01-01T04:23:45Z</time>
      </trkpt>
      <trkpt lat="41.581186" lon="2.046534">
        <ele>289.40</ele>
        <time>1970-01-01T04:23:48Z</time>
      </trkpt>
      <trkpt lat="41.581164" lon="2.046528">
        <ele>289.40</ele>
        <time>1970-01-01T04:23:49Z</time>
      </trkpt>
      <trkpt lat="41.581105" lon="2.046513">
        <ele>289.40</ele>
        <time>1970-01-01T04:23:51Z</time>
      </trkpt>
      <trkpt lat="41.581024" lon="2.046497">
        <ele>289.40</ele>
        <time>1970-01-01T04:23:53Z</time>
      </trkpt>
      <trkpt lat="41.580872" lon="2.046443">
        <ele>289.20</ele>
        <time>1970-01-01T04:23:56Z</time>
      </trkpt>
      <trkpt lat="41.580761" lon="2.046383">
        <ele>289.20</ele>
        <time>1970-01-01T04:23:58Z</time>
      </trkpt>
      <trkpt lat="41.580612" lon="2.046312">
        <ele>289.20</ele>
        <time>1970-01-01T04:24:01Z</time>
      </trkpt>
      <trkpt lat="41.580525" lon="2.046263">
        <ele>289.20</ele>
        <time>1970-01-01T04:24:03Z</time>
      </trkpt>
      <trkpt lat="41.580314" lon="2.046215">
        <ele>288.60</ele>
        <time>1970-01-01T04:24:07Z</time>
      </trkpt>
      <trkpt lat="41.580234" lon="2.046184">
        <ele>288.40</ele>
        <time>1970-01-01T04:24:09Z</time>
      </trkpt>
      <trkpt lat="41.580162" lon="2.046138">
        <ele>288.20</ele>
        <time>1970-01-01T04:24:11Z</time>
      </trkpt>
      <trkpt lat="41.580127" lon="2.046121">
        <ele>288.00</ele>
        <time>1970-01-01T04:24:12Z</time>
      </trkpt>
      <trkpt lat="41.580056" lon="2.046120">
        <ele>287.60</ele>
        <time>1970-01-01T04:24:14Z</time>
      </trkpt>
      <trkpt lat="41.580023" lon="2.046139">
        <ele>287.40</ele>
        <time>1970-01-01T04:24:15Z</time>
      </trkpt>
      <trkpt lat="41.579992" lon="2.046155">
        <ele>287.20</ele>
        <time>1970-01-01T04:24:16Z</time>
      </trkpt>
      <trkpt lat="41.579885" lon="2.046207">
        <ele>287.00</ele>
        <time>1970-01-01T04:24:19Z</time>
      </trkpt>
      <trkpt lat="41.579839" lon="2.046219">
        <ele>287.00</ele>
        <time>1970-01-01T04:24:20Z</time>
      </trkpt>
      <trkpt lat="41.579676" lon="2.046316">
        <ele>286.80</ele>
        <time>1970-01-01T04:24:24Z</time>
      </trkpt>
      <trkpt lat="41.579602" lon="2.046356">
        <ele>286.80</ele>
        <time>1970-01-01T04:24:26Z</time>
      </trkpt>
      <trkpt lat="41.579443" lon="2.046437">
        <ele>286.60</ele>
        <time>1970-01-01T04:24:30Z</time>
      </trkpt>
      <trkpt lat="41.579346" lon="2.046469">
        <ele>286.60</ele>
        <time>1970-01-01T04:24:32Z</time>
      </trkpt>
      <trkpt lat="41.579246" lon="2.046482">
        <ele>286.40</ele>
        <time>1970-01-01T04:24:34Z</time>
      </trkpt>
      <trkpt lat="41.579081" lon="2.046568">
        <ele>286.40</ele>
        <time>1970-01-01T04:24:38Z</time>
      </trkpt>
      <trkpt lat="41.579031" lon="2.046588">
        <ele>286.20</ele>
        <time>1970-01-01T04:24:40Z</time>
      </trkpt>
      <trkpt lat="41.578952" lon="2.046620">
        <ele>286.00</ele>
        <time>1970-01-01T04:24:42Z</time>
      </trkpt>
      <trkpt lat="41.578731" lon="2.046676">
        <ele>285.80</ele>
        <time>1970-01-01T04:24:47Z</time>
      </trkpt>
      <trkpt lat="41.578688" lon="2.046691">
        <ele>285.60</ele>
        <time>1970-01-01T04:24:48Z</time>
      </trkpt>
      <trkpt lat="41.578619" lon="2.046755">
        <ele>285.20</ele>
        <time>1970-01-01T04:24:50Z</time>
      </trkpt>
      <trkpt lat="41.578489" lon="2.046863">
        <ele>284.00</ele>
        <time>1970-01-01T04:24:54Z</time>
      </trkpt>
      <trkpt lat="41.578446" lon="2.046888">
        <ele>283.80</ele>
        <time>1970-01-01T04:24:55Z</time>
      </trkpt>
      <trkpt lat="41.578402" lon="2.046919">
        <ele>283.40</ele>
        <time>1970-01-01T04:24:56Z</time>
      </trkpt>
      <trkpt lat="41.578320" lon="2.046988">
        <ele>282.80</ele>
        <time>1970-01-01T04:24:58Z</time>
      </trkpt>
      <trkpt lat="41.578250" lon="2.047045">
        <ele>282.40</ele>
        <time>1970-01-01T04:25:00Z</time>
      </trkpt>
      <trkpt lat="41.578137" lon="2.047119">
        <ele>281.80</ele>
        <time>1970-01-01T04:25:03Z</time>
      </trkpt>
      <trkpt lat="41.578044" lon="2.047142">
        <ele>281.80</ele>
        <time>1970-01-01T04:25:05Z</time>
      </trkpt>
      <trkpt lat="41.577835" lon="2.047238">
        <ele>281.60</ele>
        <time>1970-01-01T04:25:09Z</time>
      </trkpt>
      <trkpt lat="41.577578" lon="2.047303">
        <ele>281.40</ele>
        <time>1970-01-01T04:25:13Z</time>
      </trkpt>
      <trkpt lat="41.577503" lon="2.047300">
        <ele>281.20</ele>
        <time>1970-01-01T04:25:14Z</time>
      </trkpt>
      <trkpt lat="41.577305" lon="2.047396">
        <ele>280.60</ele>
        <time>1970-01-01T04:25:17Z</time>
      </trkpt>
      <trkpt lat="41.577234" lon="2.047500">
        <ele>280.00</ele>
        <time>1970-01-01T04:25:19Z</time>
      </trkpt>
      <trkpt lat="41.577201" lon="2.047543">
        <ele>279.40</ele>
        <time>1970-01-01T04:25:20Z</time>
      </trkpt>
      <trkpt lat="41.577168" lon="2.047580">
        <ele>278.80</ele>
        <time>1970-01-01T04:25:21Z</time>
      </trkpt>
      <trkpt lat="41.577131" lon="2.047618">
        <ele>278.40</ele>
        <time>1970-01-01T04:25:22Z</time>
      </trkpt>
      <trkpt lat="41.577055" lon="2.047704">
        <ele>277.20</ele>
        <time>1970-01-01T04:25:24Z</time>
      </trkpt>
      <trkpt lat="41.576988" lon="2.047769">
        <ele>276.40</ele>
        <time>1970-01-01T04:25:26Z</time>
      </trkpt>
      <trkpt lat="41.576897" lon="2.047834">
        <ele>276.00</ele>
        <time>1970-01-01T04:25:29Z</time>
      </trkpt>
      <trkpt lat="41.576877" lon="2.047858">
        <ele>276.00</ele>
        <time>1970-01-01T04:25:30Z</time>
      </trkpt>
      <trkpt lat="41.576758" lon="2.047942">
        <ele>275.80</ele>
        <time>1970-01-01T04:25:34Z</time>
      </trkpt>
      <trkpt lat="41.576672" lon="2.048019">
        <ele>275.60</ele>
        <time>1970-01-01T04:25:37Z</time>
      </trkpt>
      <trkpt lat="41.576602" lon="2.048057">
        <ele>275.40</ele>
        <time>1970-01-01T04:25:39Z</time>
      </trkpt>
      <trkpt lat="41.576520" lon="2.048096">
        <ele>275.40</ele>
        <time>1970-01-01T04:25:41Z</time>
      </trkpt>
      <trkpt lat="41.576439" lon="2.048185">
        <ele>275.20</ele>
        <time>1970-01-01T04:25:43Z</time>
      </trkpt>
      <trkpt lat="41.576391" lon="2.048232">
        <ele>275.00</ele>
        <time>1970-01-01T04:25:44Z</time>
      </trkpt>
      <trkpt lat="41.576340" lon="2.048268">
        <ele>275.00</ele>
        <time>1970-01-01T04:25:45Z</time>
      </trkpt>
      <trkpt lat="41.576245" lon="2.048322">
        <ele>274.80</ele>
        <time>1970-01-01T04:25:47Z</time>
      </trkpt>
      <trkpt lat="41.576111" lon="2.048467">
        <ele>273.80</ele>
        <time>1970-01-01T04:25:51Z</time>
      </trkpt>
      <trkpt lat="41.575911" lon="2.048569">
        <ele>272.80</ele>
        <time>1970-01-01T04:25:55Z</time>
      </trkpt>
      <trkpt lat="41.575849" lon="2.048601">
        <ele>272.20</ele>
        <time>1970-01-01T04:25:56Z</time>
      </trkpt>
      <trkpt lat="41.575717" lon="2.048665">
        <ele>272.00</ele>
        <time>1970-01-01T04:25:58Z</time>
      </trkpt>
      <trkpt lat="41.575665" lon="2.048683">
        <ele>271.80</ele>
        <time>1970-01-01T04:25:59Z</time>
      </trkpt>
      <trkpt lat="41.575553" lon="2.048623">
        <ele>271.20</ele>
        <time>1970-01-01T04:26:02Z</time>
      </trkpt>
      <trkpt lat="41.575522" lon="2.048575">
        <ele>270.80</ele>
        <time>1970-01-01T04:26:03Z</time>
      </trkpt>
      <trkpt lat="41.575490" lon="2.048524">
        <ele>270.40</ele>
        <time>1970-01-01T04:26:04Z</time>
      </trkpt>
      <trkpt lat="41.575454" lon="2.048486">
        <ele>270.00</ele>
        <time>1970-01-01T04:26:05Z</time>
      </trkpt>
      <trkpt lat="41.575413" lon="2.048463">
        <ele>269.80</ele>
        <time>1970-01-01T04:26:06Z</time>
      </trkpt>
      <trkpt lat="41.575247" lon="2.048473">
        <ele>269.60</ele>
        <time>1970-01-01T04:26:09Z</time>
      </trkpt>
      <trkpt lat="41.575184" lon="2.048490">
        <ele>269.40</ele>
        <time>1970-01-01T04:26:10Z</time>
      </trkpt>
      <trkpt lat="41.575051" lon="2.048542">
        <ele>269.00</ele>
        <time>1970-01-01T04:26:12Z</time>
      </trkpt>
      <trkpt lat="41.574929" lon="2.048625">
        <ele>268.60</ele>
        <time>1970-01-01T04:26:14Z</time>
      </trkpt>
      <trkpt lat="41.574819" lon="2.048716">
        <ele>268.40</ele>
        <time>1970-01-01T04:26:16Z</time>
      </trkpt>
      <trkpt lat="41.574709" lon="2.048777">
        <ele>267.80</ele>
        <time>1970-01-01T04:26:18Z</time>
      </trkpt>
      <trkpt lat="41.574653" lon="2.048794">
        <ele>267.60</ele>
        <time>1970-01-01T04:26:19Z</time>
      </trkpt>
      <trkpt lat="41.574497" lon="2.048761">
        <ele>266.60</ele>
        <time>1970-01-01T04:26:22Z</time>
      </trkpt>
      <trkpt lat="41.574451" lon="2.048733">
        <ele>266.60</ele>
        <time>1970-01-01T04:26:23Z</time>
      </trkpt>
      <trkpt lat="41.574407" lon="2.048712">
        <ele>266.60</ele>
        <time>1970-01-01T04:26:24Z</time>
      </trkpt>
      <trkpt lat="41.574300" lon="2.048681">
        <ele>266.60</ele>
        <time>1970-01-01T04:26:27Z</time>
      </trkpt>
      <trkpt lat="41.574191" lon="2.048742">
        <ele>266.80</ele>
        <time>1970-01-01T04:26:31Z</time>
      </trkpt>
      <trkpt lat="41.574150" lon="2.048759">
        <ele>266.80</ele>
        <time>1970-01-01T04:26:32Z</time>
      </trkpt>
      <trkpt lat="41.574031" lon="2.048839">
        <ele>267.00</ele>
        <time>1970-01-01T04:26:35Z</time>
      </trkpt>
      <trkpt lat="41.573913" lon="2.048892">
        <ele>267.00</ele>
        <time>1970-01-01T04:26:38Z</time>
      </trkpt>
      <trkpt lat="41.573884" lon="2.048903">
        <ele>267.00</ele>
        <time>1970-01-01T04:26:39Z</time>
      </trkpt>
      <trkpt lat="41.573818" lon="2.048927">
        <ele>266.20</ele>
        <time>1970-01-01T04:26:42Z</time>
      </trkpt>
      <trkpt lat="41.573796" lon="2.048949">
        <ele>266.20</ele>
        <time>1970-01-01T04:26:43Z</time>
      </trkpt>
      <trkpt lat="41.573686" lon="2.048980">
        <ele>265.80</ele>
        <time>1970-01-01T04:26:46Z</time>
      </trkpt>
      <trkpt lat="41.573649" lon="2.048990">
        <ele>265.80</ele>
        <time>1970-01-01T04:26:47Z</time>
      </trkpt>
      <trkpt lat="41.573597" lon="2.049017">
        <ele>265.60</ele>
        <time>1970-01-01T04:26:49Z</time>
      </trkpt>
      <trkpt lat="41.573566" lon="2.049031">
        <ele>265.60</ele>
        <time>1970-01-01T04:26:51Z</time>
      </trkpt>
      <trkpt lat="41.573446" lon="2.049056">
        <ele>264.40</ele>
        <time>1970-01-01T04:26:56Z</time>
      </trkpt>
      <trkpt lat="41.573407" lon="2.049073">
        <ele>264.40</ele>
        <time>1970-01-01T04:26:57Z</time>
      </trkpt>
      <trkpt lat="41.573234" lon="2.049117">
        <ele>264.20</ele>
        <time>1970-01-01T04:27:01Z</time>
      </trkpt>
      <trkpt lat="41.573124" lon="2.049190">
        <ele>264.20</ele>
        <time>1970-01-01T04:27:04Z</time>
      </trkpt>
      <trkpt lat="41.573088" lon="2.049207">
        <ele>264.20</ele>
        <time>1970-01-01T04:27:05Z</time>
      </trkpt>
      <trkpt lat="41.572957" lon="2.049194">
        <ele>263.80</ele>
        <time>1970-01-01T04:27:08Z</time>
      </trkpt>
      <trkpt lat="41.572806" lon="2.049245">
        <ele>263.60</ele>
        <time>1970-01-01T04:27:11Z</time>
      </trkpt>
      <trkpt lat="41.572752" lon="2.049266">
        <ele>263.40</ele>
        <time>1970-01-01T04:27:12Z</time>
      </trkpt>
      <trkpt lat="41.572643" lon="2.049303">
        <ele>263.40</ele>
        <time>1970-01-01T04:27:14Z</time>
      </trkpt>
      <trkpt lat="41.572478" lon="2.049329">
        <ele>262.60</ele>
        <time>1970-01-01T04:27:17Z</time>
      </trkpt>
      <trkpt lat="41.572420" lon="2.049327">
        <ele>262.20</ele>
        <time>1970-01-01T04:27:18Z</time>
      </trkpt>
      <trkpt lat="41.572256" lon="2.049322">
        <ele>261.60</ele>
        <time>1970-01-01T04:27:21Z</time>
      </trkpt>
      <trkpt lat="41.572094" lon="2.049329">
        <ele>261.40</ele>
        <time>1970-01-01T04:27:24Z</time>
      </trkpt>
      <trkpt lat="41.571968" lon="2.049332">
        <ele>261.20</ele>
        <time>1970-01-01T04:27:27Z</time>
      </trkpt>
      <trkpt lat="41.571939" lon="2.049334">
        <ele>261.20</ele>
        <time>1970-01-01T04:27:28Z</time>
      </trkpt>
      <trkpt lat="41.571730" lon="2.049366">
        <ele>260.20</ele>
        <time>1970-01-01T04:27:33Z</time>
      </trkpt>
      <trkpt lat="41.571681" lon="2.049374">
        <ele>260.20</ele>
        <time>1970-01-01T04:27:34Z</time>
      </trkpt>
      <trkpt lat="41.571543" lon="2.049382">
        <ele>260.00</ele>
        <time>1970-01-01T04:27:37Z</time>
      </trkpt>
      <trkpt lat="41.571443" lon="2.049356">
        <ele>259.60</ele>
        <time>1970-01-01T04:27:40Z</time>
      </trkpt>
      <trkpt lat="41.571401" lon="2.049342">
        <ele>259.40</ele>
        <time>1970-01-01T04:27:41Z</time>
      </trkpt>
      <trkpt lat="41.571271" lon="2.049251">
        <ele>259.20</ele>
        <time>1970-01-01T04:27:44Z</time>
      </trkpt>
      <trkpt lat="41.571223" lon="2.049245">
        <ele>259.00</ele>
        <time>1970-01-01T04:27:45Z</time>
      </trkpt>
      <trkpt lat="41.571143" lon="2.049298">
        <ele>258.60</ele>
        <time>1970-01-01T04:27:47Z</time>
      </trkpt>
      <trkpt lat="41.571105" lon="2.049337">
        <ele>258.60</ele>
        <time>1970-01-01T04:27:48Z</time>
      </trkpt>
      <trkpt lat="41.571061" lon="2.049367">
        <ele>258.40</ele>
        <time>1970-01-01T04:27:49Z</time>
      </trkpt>
      <trkpt lat="41.570965" lon="2.049372">
        <ele>258.00</ele>
        <time>1970-01-01T04:27:51Z</time>
      </trkpt>
      <trkpt lat="41.570856" lon="2.049351">
        <ele>257.40</ele>
        <time>1970-01-01T04:27:53Z</time>
      </trkpt>
      <trkpt lat="41.570763" lon="2.049347">
        <ele>257.20</ele>
        <time>1970-01-01T04:27:55Z</time>
      </trkpt>
      <trkpt lat="41.570715" lon="2.049357">
        <ele>257.00</ele>
        <time>1970-01-01T04:27:56Z</time>
      </trkpt>
      <trkpt lat="41.570612" lon="2.049389">
        <ele>256.80</ele>
        <time>1970-01-01T04:27:58Z</time>
      </trkpt>
      <trkpt lat="41.570549" lon="2.049420">
        <ele>256.60</ele>
        <time>1970-01-01T04:27:59Z</time>
      </trkpt>
      <trkpt lat="41.570479" lon="2.049452">
        <ele>256.40</ele>
        <time>1970-01-01T04:28:00Z</time>
      </trkpt>
      <trkpt lat="41.570337" lon="2.049508">
        <ele>255.20</ele>
        <time>1970-01-01T04:28:02Z</time>
      </trkpt>
      <trkpt lat="41.570207" lon="2.049584">
        <ele>253.80</ele>
        <time>1970-01-01T04:28:04Z</time>
      </trkpt>
      <trkpt lat="41.570123" lon="2.049714">
        <ele>252.40</ele>
        <time>1970-01-01T04:28:06Z</time>
      </trkpt>
      <trkpt lat="41.570092" lon="2.049789">
        <ele>251.40</ele>
        <time>1970-01-01T04:28:07Z</time>
      </trkpt>
      <trkpt lat="41.570060" lon="2.049865">
        <ele>250.60</ele>
        <time>1970-01-01T04:28:08Z</time>
      </trkpt>
      <trkpt lat="41.570025" lon="2.049940">
        <ele>249.40</ele>
        <time>1970-01-01T04:28:09Z</time>
      </trkpt>
      <trkpt lat="41.569987" lon="2.050015">
        <ele>248.00</ele>
        <time>1970-01-01T04:28:10Z</time>
      </trkpt>
      <trkpt lat="41.569945" lon="2.050087">
        <ele>246.80</ele>
        <time>1970-01-01T04:28:11Z</time>
      </trkpt>
      <trkpt lat="41.569899" lon="2.050151">
        <ele>245.60</ele>
        <time>1970-01-01T04:28:12Z</time>
      </trkpt>
      <trkpt lat="41.569856" lon="2.050214">
        <ele>244.80</ele>
        <time>1970-01-01T04:28:13Z</time>
      </trkpt>
      <trkpt lat="41.569817" lon="2.050275">
        <ele>244.20</ele>
        <time>1970-01-01T04:28:14Z</time>
      </trkpt>
      <trkpt lat="41.569775" lon="2.050324">
        <ele>243.20</ele>
        <time>1970-01-01T04:28:15Z</time>
      </trkpt>
      <trkpt lat="41.569734" lon="2.050357">
        <ele>242.80</ele>
        <time>1970-01-01T04:28:16Z</time>
      </trkpt>
      <trkpt lat="41.569699" lon="2.050385">
        <ele>242.40</ele>
        <time>1970-01-01T04:28:17Z</time>
      </trkpt>
      <trkpt lat="41.569593" lon="2.050436">
        <ele>241.80</ele>
        <time>1970-01-01T04:28:20Z</time>
      </trkpt>
      <trkpt lat="41.569552" lon="2.050438">
        <ele>241.60</ele>
        <time>1970-01-01T04:28:21Z</time>
      </trkpt>
      <trkpt lat="41.569508" lon="2.050436">
        <ele>241.40</ele>
        <time>1970-01-01T04:28:22Z</time>
      </trkpt>
      <trkpt lat="41.569460" lon="2.050443">
        <ele>241.00</ele>
        <time>1970-01-01T04:28:23Z</time>
      </trkpt>
      <trkpt lat="41.569355" lon="2.050485">
        <ele>240.60</ele>
        <time>1970-01-01T04:28:25Z</time>
      </trkpt>
      <trkpt lat="41.569108" lon="2.050569">
        <ele>239.60</ele>
        <time>1970-01-01T04:28:29Z</time>
      </trkpt>
      <trkpt lat="41.569041" lon="2.050594">
        <ele>239.40</ele>
        <time>1970-01-01T04:28:30Z</time>
      </trkpt>
      <trkpt lat="41.568975" lon="2.050611">
        <ele>239.00</ele>
        <time>1970-01-01T04:28:31Z</time>
      </trkpt>
      <trkpt lat="41.568792" lon="2.050655">
        <ele>238.40</ele>
        <time>1970-01-01T04:28:34Z</time>
      </trkpt>
      <trkpt lat="41.568731" lon="2.050668">
        <ele>238.40</ele>
        <time>1970-01-01T04:28:35Z</time>
      </trkpt>
      <trkpt lat="41.568598" lon="2.050663">
        <ele>237.40</ele>
        <time>1970-01-01T04:28:37Z</time>
      </trkpt>
      <trkpt lat="41.568461" lon="2.050669">
        <ele>236.80</ele>
        <time>1970-01-01T04:28:39Z</time>
      </trkpt>
      <trkpt lat="41.568390" lon="2.050678">
        <ele>236.40</ele>
        <time>1970-01-01T04:28:40Z</time>
      </trkpt>
      <trkpt lat="41.568199" lon="2.050722">
        <ele>236.00</ele>
        <time>1970-01-01T04:28:43Z</time>
      </trkpt>
      <trkpt lat="41.568139" lon="2.050741">
        <ele>236.00</ele>
        <time>1970-01-01T04:28:44Z</time>
      </trkpt>
      <trkpt lat="41.567996" lon="2.050847">
        <ele>235.80</ele>
        <time>1970-01-01T04:28:47Z</time>
      </trkpt>
      <trkpt lat="41.567955" lon="2.050876">
        <ele>235.80</ele>
        <time>1970-01-01T04:28:48Z</time>
      </trkpt>
      <trkpt lat="41.567860" lon="2.050919">
        <ele>235.60</ele>
        <time>1970-01-01T04:28:51Z</time>
      </trkpt>
      <trkpt lat="41.567808" lon="2.050946">
        <ele>235.40</ele>
        <time>1970-01-01T04:28:53Z</time>
      </trkpt>
      <trkpt lat="41.567733" lon="2.050952">
        <ele>235.20</ele>
        <time>1970-01-01T04:28:55Z</time>
      </trkpt>
      <trkpt lat="41.567686" lon="2.050953">
        <ele>235.20</ele>
        <time>1970-01-01T04:28:56Z</time>
      </trkpt>
      <trkpt lat="41.567569" lon="2.051077">
        <ele>235.00</ele>
        <time>1970-01-01T04:28:59Z</time>
      </trkpt>
      <trkpt lat="41.567549" lon="2.051341">
        <ele>235.00</ele>
        <time>1970-01-01T04:29:03Z</time>
      </trkpt>
      <trkpt lat="41.567594" lon="2.051464">
        <ele>234.20</ele>
        <time>1970-01-01T04:29:05Z</time>
      </trkpt>
      <trkpt lat="41.567618" lon="2.051599">
        <ele>233.60</ele>
        <time>1970-01-01T04:29:07Z</time>
      </trkpt>
      <trkpt lat="41.567622" lon="2.051674">
        <ele>233.60</ele>
        <time>1970-01-01T04:29:08Z</time>
      </trkpt>
      <trkpt lat="41.567623" lon="2.051827">
        <ele>233.40</ele>
        <time>1970-01-01T04:29:10Z</time>
      </trkpt>
      <trkpt lat="41.567612" lon="2.051905">
        <ele>233.40</ele>
        <time>1970-01-01T04:29:11Z</time>
      </trkpt>
      <trkpt lat="41.567558" lon="2.052180">
        <ele>233.40</ele>
        <time>1970-01-01T04:29:15Z</time>
      </trkpt>
      <trkpt lat="41.567556" lon="2.052249">
        <ele>233.40</ele>
        <time>1970-01-01T04:29:16Z</time>
      </trkpt>
      <trkpt lat="41.567548" lon="2.052319">
        <ele>233.40</ele>
        <time>1970-01-01T04:29:17Z</time>
      </trkpt>
      <trkpt lat="41.567490" lon="2.052433">
        <ele>233.40</ele>
        <time>1970-01-01T04:29:19Z</time>
      </trkpt>
      <trkpt lat="41.567416" lon="2.052496">
        <ele>233.40</ele>
        <time>1970-01-01T04:29:21Z</time>
      </trkpt>
      <trkpt lat="41.567353" lon="2.052535">
        <ele>233.80</ele>
        <time>1970-01-01T04:29:23Z</time>
      </trkpt>
      <trkpt lat="41.567280" lon="2.052577">
        <ele>233.60</ele>
        <time>1970-01-01T04:29:25Z</time>
      </trkpt>
      <trkpt lat="41.567193" lon="2.052606">
        <ele>233.80</ele>
        <time>1970-01-01T04:29:27Z</time>
      </trkpt>
      <trkpt lat="41.567016" lon="2.052656">
        <ele>233.80</ele>
        <time>1970-01-01T04:29:32Z</time>
      </trkpt>
      <trkpt lat="41.566920" lon="2.052710">
        <ele>233.80</ele>
        <time>1970-01-01T04:29:37Z</time>
      </trkpt>
      <trkpt lat="41.566812" lon="2.052709">
        <ele>233.60</ele>
        <time>1970-01-01T04:29:40Z</time>
      </trkpt>
      <trkpt lat="41.566788" lon="2.052683">
        <ele>233.60</ele>
        <time>1970-01-01T04:29:41Z</time>
      </trkpt>
      <trkpt lat="41.566707" lon="2.052610">
        <ele>233.40</ele>
        <time>1970-01-01T04:29:45Z</time>
      </trkpt>
      <trkpt lat="41.566653" lon="2.052616">
        <ele>233.40</ele>
        <time>1970-01-01T04:29:47Z</time>
      </trkpt>
      <trkpt lat="41.566576" lon="2.052652">
        <ele>233.40</ele>
        <time>1970-01-01T04:29:50Z</time>
      </trkpt>
      <trkpt lat="41.566490" lon="2.052758">
        <ele>233.40</ele>
        <time>1970-01-01T04:29:53Z</time>
      </trkpt>
      <trkpt lat="41.566464" lon="2.052812">
        <ele>233.40</ele>
        <time>1970-01-01T04:29:54Z</time>
      </trkpt>
      <trkpt lat="41.566391" lon="2.052969">
        <ele>233.40</ele>
        <time>1970-01-01T04:29:58Z</time>
      </trkpt>
      <trkpt lat="41.566329" lon="2.053099">
        <ele>233.00</ele>
        <time>1970-01-01T04:30:03Z</time>
      </trkpt>
      <trkpt lat="41.566285" lon="2.053327">
        <ele>232.80</ele>
        <time>1970-01-01T04:30:08Z</time>
      </trkpt>
      <trkpt lat="41.566280" lon="2.053375">
        <ele>232.80</ele>
        <time>1970-01-01T04:30:09Z</time>
      </trkpt>
      <trkpt lat="41.566258" lon="2.053510">
        <ele>232.80</ele>
        <time>1970-01-01T04:30:12Z</time>
      </trkpt>
      <trkpt lat="41.566241" lon="2.053610">
        <ele>233.00</ele>
        <time>1970-01-01T04:30:14Z</time>
      </trkpt>
      <trkpt lat="41.566231" lon="2.053797">
        <ele>234.00</ele>
        <time>1970-01-01T04:30:18Z</time>
      </trkpt>
      <trkpt lat="41.566235" lon="2.053879">
        <ele>234.60</ele>
        <time>1970-01-01T04:30:20Z</time>
      </trkpt>
      <trkpt lat="41.566241" lon="2.053923">
        <ele>235.00</ele>
        <time>1970-01-01T04:30:21Z</time>
      </trkpt>
      <trkpt lat="41.566252" lon="2.054014">
        <ele>235.40</ele>
        <time>1970-01-01T04:30:23Z</time>
      </trkpt>
      <trkpt lat="41.566234" lon="2.054109">
        <ele>236.40</ele>
        <time>1970-01-01T04:30:25Z</time>
      </trkpt>
      <trkpt lat="41.566224" lon="2.054208">
        <ele>237.40</ele>
        <time>1970-01-01T04:30:27Z</time>
      </trkpt>
      <trkpt lat="41.566214" lon="2.054369">
        <ele>238.20</ele>
        <time>1970-01-01T04:30:30Z</time>
      </trkpt>
      <trkpt lat="41.566208" lon="2.054429">
        <ele>238.40</ele>
        <time>1970-01-01T04:30:31Z</time>
      </trkpt>
      <trkpt lat="41.566201" lon="2.054490">
        <ele>238.40</ele>
        <time>1970-01-01T04:30:32Z</time>
      </trkpt>
      <trkpt lat="41.566183" lon="2.054663">
        <ele>238.40</ele>
        <time>1970-01-01T04:30:36Z</time>
      </trkpt>
      <trkpt lat="41.566184" lon="2.054797">
        <ele>238.40</ele>
        <time>1970-01-01T04:30:39Z</time>
      </trkpt>
      <trkpt lat="41.566159" lon="2.054985">
        <ele>238.40</ele>
        <time>1970-01-01T04:30:42Z</time>
      </trkpt>
      <trkpt lat="41.566152" lon="2.055047">
        <ele>238.40</ele>
        <time>1970-01-01T04:30:43Z</time>
      </trkpt>
      <trkpt lat="41.566148" lon="2.055100">
        <ele>238.20</ele>
        <time>1970-01-01T04:30:44Z</time>
      </trkpt>
      <trkpt lat="41.566146" lon="2.055143">
        <ele>238.20</ele>
        <time>1970-01-01T04:30:45Z</time>
      </trkpt>
      <trkpt lat="41.566136" lon="2.055249">
        <ele>238.00</ele>
        <time>1970-01-01T04:30:48Z</time>
      </trkpt>
      <trkpt lat="41.566127" lon="2.055300">
        <ele>238.00</ele>
        <time>1970-01-01T04:30:49Z</time>
      </trkpt>
      <trkpt lat="41.566108" lon="2.055499">
        <ele>237.80</ele>
        <time>1970-01-01T04:30:52Z</time>
      </trkpt>
      <trkpt lat="41.566083" lon="2.055843">
        <ele>237.60</ele>
        <time>1970-01-01T04:30:57Z</time>
      </trkpt>
      <trkpt lat="41.566078" lon="2.055897">
        <ele>237.40</ele>
        <time>1970-01-01T04:30:58Z</time>
      </trkpt>
      <trkpt lat="41.566002" lon="2.055978">
        <ele>237.00</ele>
        <time>1970-01-01T04:31:01Z</time>
      </trkpt>
      <trkpt lat="41.565839" lon="2.055966">
        <ele>236.40</ele>
        <time>1970-01-01T04:31:06Z</time>
      </trkpt>
      <trkpt lat="41.565690" lon="2.055936">
        <ele>236.00</ele>
        <time>1970-01-01T04:31:11Z</time>
      </trkpt>
      <trkpt lat="41.565662" lon="2.055931">
        <ele>235.80</ele>
        <time>1970-01-01T04:31:12Z</time>
      </trkpt>
      <trkpt lat="41.565613" lon="2.055930">
        <ele>235.80</ele>
        <time>1970-01-01T04:31:14Z</time>
      </trkpt>
      <trkpt lat="41.565574" lon="2.055981">
        <ele>235.60</ele>
        <time>1970-01-01T04:31:16Z</time>
      </trkpt>
      <trkpt lat="41.565545" lon="2.056054">
        <ele>235.60</ele>
        <time>1970-01-01T04:31:18Z</time>
      </trkpt>
      <trkpt lat="41.565536" lon="2.056105">
        <ele>235.60</ele>
        <time>1970-01-01T04:31:19Z</time>
      </trkpt>
      <trkpt lat="41.565529" lon="2.056164">
        <ele>235.60</ele>
        <time>1970-01-01T04:31:20Z</time>
      </trkpt>
      <trkpt lat="41.565486" lon="2.056588">
        <ele>235.60</ele>
        <time>1970-01-01T04:31:26Z</time>
      </trkpt>
      <trkpt lat="41.565443" lon="2.057102">
        <ele>235.40</ele>
        <time>1970-01-01T04:31:33Z</time>
      </trkpt>
      <trkpt lat="41.565437" lon="2.057167">
        <ele>235.20</ele>
        <time>1970-01-01T04:31:34Z</time>
      </trkpt>
      <trkpt lat="41.565436" lon="2.057227">
        <ele>235.20</ele>
        <time>1970-01-01T04:31:35Z</time>
      </trkpt>
      <trkpt lat="41.565443" lon="2.057423">
        <ele>235.00</ele>
        <time>1970-01-01T04:31:38Z</time>
      </trkpt>
      <trkpt lat="41.565438" lon="2.057497">
        <ele>235.00</ele>
        <time>1970-01-01T04:31:39Z</time>
      </trkpt>
      <trkpt lat="41.565409" lon="2.057749">
        <ele>234.80</ele>
        <time>1970-01-01T04:31:42Z</time>
      </trkpt>
      <trkpt lat="41.565370" lon="2.058132">
        <ele>234.20</ele>
        <time>1970-01-01T04:31:46Z</time>
      </trkpt>
      <trkpt lat="41.565350" lon="2.058230">
        <ele>234.20</ele>
        <time>1970-01-01T04:31:47Z</time>
      </trkpt>
      <trkpt lat="41.565331" lon="2.058329">
        <ele>234.00</ele>
        <time>1970-01-01T04:31:48Z</time>
      </trkpt>
      <trkpt lat="41.565296" lon="2.058761">
        <ele>233.20</ele>
        <time>1970-01-01T04:31:52Z</time>
      </trkpt>
      <trkpt lat="41.565274" lon="2.058978">
        <ele>232.80</ele>
        <time>1970-01-01T04:31:54Z</time>
      </trkpt>
      <trkpt lat="41.565250" lon="2.059345">
        <ele>232.00</ele>
        <time>1970-01-01T04:31:58Z</time>
      </trkpt>
      <trkpt lat="41.565243" lon="2.059415">
        <ele>231.80</ele>
        <time>1970-01-01T04:31:59Z</time>
      </trkpt>
      <trkpt lat="41.565233" lon="2.059473">
        <ele>231.20</ele>
        <time>1970-01-01T04:32:00Z</time>
      </trkpt>
      <trkpt lat="41.565219" lon="2.059522">
        <ele>230.60</ele>
        <time>1970-01-01T04:32:01Z</time>
      </trkpt>
      <trkpt lat="41.565198" lon="2.059636">
        <ele>230.00</ele>
        <time>1970-01-01T04:32:03Z</time>
      </trkpt>
      <trkpt lat="41.565192" lon="2.059704">
        <ele>229.80</ele>
        <time>1970-01-01T04:32:04Z</time>
      </trkpt>
      <trkpt lat="41.565185" lon="2.059779">
        <ele>229.60</ele>
        <time>1970-01-01T04:32:05Z</time>
      </trkpt>
      <trkpt lat="41.565159" lon="2.060017">
        <ele>229.60</ele>
        <time>1970-01-01T04:32:08Z</time>
      </trkpt>
      <trkpt lat="41.565109" lon="2.060603">
        <ele>228.80</ele>
        <time>1970-01-01T04:32:15Z</time>
      </trkpt>
      <trkpt lat="41.565100" lon="2.060692">
        <ele>228.80</ele>
        <time>1970-01-01T04:32:16Z</time>
      </trkpt>
      <trkpt lat="41.565093" lon="2.060779">
        <ele>228.60</ele>
        <time>1970-01-01T04:32:17Z</time>
      </trkpt>
      <trkpt lat="41.565079" lon="2.060976">
        <ele>228.20</ele>
        <time>1970-01-01T04:32:20Z</time>
      </trkpt>
      <trkpt lat="41.565062" lon="2.061197">
        <ele>227.40</ele>
        <time>1970-01-01T04:32:24Z</time>
      </trkpt>
      <trkpt lat="41.565054" lon="2.061276">
        <ele>227.40</ele>
        <time>1970-01-01T04:32:25Z</time>
      </trkpt>
      <trkpt lat="41.564998" lon="2.061546">
        <ele>226.80</ele>
        <time>1970-01-01T04:32:28Z</time>
      </trkpt>
      <trkpt lat="41.564967" lon="2.061639">
        <ele>226.60</ele>
        <time>1970-01-01T04:32:29Z</time>
      </trkpt>
      <trkpt lat="41.564881" lon="2.061809">
        <ele>226.40</ele>
        <time>1970-01-01T04:32:31Z</time>
      </trkpt>
      <trkpt lat="41.564780" lon="2.061966">
        <ele>226.00</ele>
        <time>1970-01-01T04:32:33Z</time>
      </trkpt>
      <trkpt lat="41.564675" lon="2.062122">
        <ele>225.40</ele>
        <time>1970-01-01T04:32:35Z</time>
      </trkpt>
      <trkpt lat="41.564633" lon="2.062205">
        <ele>225.00</ele>
        <time>1970-01-01T04:32:36Z</time>
      </trkpt>
      <trkpt lat="41.564602" lon="2.062288">
        <ele>224.80</ele>
        <time>1970-01-01T04:32:37Z</time>
      </trkpt>
      <trkpt lat="41.564565" lon="2.062474">
        <ele>224.00</ele>
        <time>1970-01-01T04:32:40Z</time>
      </trkpt>
      <trkpt lat="41.564565" lon="2.062503">
        <ele>223.80</ele>
        <time>1970-01-01T04:32:41Z</time>
      </trkpt>
      <trkpt lat="41.564580" lon="2.062550">
        <ele>223.60</ele>
        <time>1970-01-01T04:32:43Z</time>
      </trkpt>
      <trkpt lat="41.564689" lon="2.062603">
        <ele>222.80</ele>
        <time>1970-01-01T04:32:48Z</time>
      </trkpt>
      <trkpt lat="41.564727" lon="2.062618">
        <ele>222.60</ele>
        <time>1970-01-01T04:32:49Z</time>
      </trkpt>
      <trkpt lat="41.564767" lon="2.062631">
        <ele>222.60</ele>
        <time>1970-01-01T04:32:50Z</time>
      </trkpt>
      <trkpt lat="41.564899" lon="2.062653">
        <ele>222.60</ele>
        <time>1970-01-01T04:32:53Z</time>
      </trkpt>
      <trkpt lat="41.565036" lon="2.062676">
        <ele>222.60</ele>
        <time>1970-01-01T04:32:56Z</time>
      </trkpt>
      <trkpt lat="41.565171" lon="2.062709">
        <ele>223.40</ele>
        <time>1970-01-01T04:32:59Z</time>
      </trkpt>
      <trkpt lat="41.565215" lon="2.062724">
        <ele>223.80</ele>
        <time>1970-01-01T04:33:00Z</time>
      </trkpt>
      <trkpt lat="41.565305" lon="2.062752">
        <ele>224.40</ele>
        <time>1970-01-01T04:33:02Z</time>
      </trkpt>
      <trkpt lat="41.565397" lon="2.062782">
        <ele>224.80</ele>
        <time>1970-01-01T04:33:04Z</time>
      </trkpt>
      <trkpt lat="41.565440" lon="2.062800">
        <ele>225.00</ele>
        <time>1970-01-01T04:33:05Z</time>
      </trkpt>
      <trkpt lat="41.565475" lon="2.062832">
        <ele>225.20</ele>
        <time>1970-01-01T04:33:06Z</time>
      </trkpt>
      <trkpt lat="41.565562" lon="2.063040">
        <ele>225.60</ele>
        <time>1970-01-01T04:33:10Z</time>
      </trkpt>
      <trkpt lat="41.565625" lon="2.063310">
        <ele>225.60</ele>
        <time>1970-01-01T04:33:14Z</time>
      </trkpt>
      <trkpt lat="41.565703" lon="2.063560">
        <ele>225.40</ele>
        <time>1970-01-01T04:33:18Z</time>
      </trkpt>
      <trkpt lat="41.565740" lon="2.063652">
        <ele>225.20</ele>
        <time>1970-01-01T04:33:20Z</time>
      </trkpt>
      <trkpt lat="41.565772" lon="2.063740">
        <ele>224.80</ele>
        <time>1970-01-01T04:33:22Z</time>
      </trkpt>
      <trkpt lat="41.565776" lon="2.063847">
        <ele>224.60</ele>
        <time>1970-01-01T04:33:24Z</time>
      </trkpt>
      <trkpt lat="41.565768" lon="2.063951">
        <ele>224.60</ele>
        <time>1970-01-01T04:33:26Z</time>
      </trkpt>
      <trkpt lat="41.565754" lon="2.064041">
        <ele>224.60</ele>
        <time>1970-01-01T04:33:28Z</time>
      </trkpt>
      <trkpt lat="41.565737" lon="2.064142">
        <ele>223.80</ele>
        <time>1970-01-01T04:33:30Z</time>
      </trkpt>
      <trkpt lat="41.565721" lon="2.064200">
        <ele>223.60</ele>
        <time>1970-01-01T04:33:31Z</time>
      </trkpt>
      <trkpt lat="41.565649" lon="2.064392">
        <ele>223.20</ele>
        <time>1970-01-01T04:33:34Z</time>
      </trkpt>
      <trkpt lat="41.565639" lon="2.064460">
        <ele>223.00</ele>
        <time>1970-01-01T04:33:35Z</time>
      </trkpt>
      <trkpt lat="41.565583" lon="2.064734">
        <ele>222.80</ele>
        <time>1970-01-01T04:33:39Z</time>
      </trkpt>
      <trkpt lat="41.565546" lon="2.064788">
        <ele>222.60</ele>
        <time>1970-01-01T04:33:40Z</time>
      </trkpt>
      <trkpt lat="41.565459" lon="2.064886">
        <ele>221.80</ele>
        <time>1970-01-01T04:33:42Z</time>
      </trkpt>
      <trkpt lat="41.565344" lon="2.065069">
        <ele>220.80</ele>
        <time>1970-01-01T04:33:45Z</time>
      </trkpt>
      <trkpt lat="41.565304" lon="2.065131">
        <ele>220.40</ele>
        <time>1970-01-01T04:33:46Z</time>
      </trkpt>
      <trkpt lat="41.565154" lon="2.065336">
        <ele>219.40</ele>
        <time>1970-01-01T04:33:50Z</time>
      </trkpt>
      <trkpt lat="41.565139" lon="2.065389">
        <ele>219.20</ele>
        <time>1970-01-01T04:33:51Z</time>
      </trkpt>
      <trkpt lat="41.565175" lon="2.065489">
        <ele>219.00</ele>
        <time>1970-01-01T04:33:53Z</time>
      </trkpt>
      <trkpt lat="41.565237" lon="2.065550">
        <ele>218.00</ele>
        <time>1970-01-01T04:33:55Z</time>
      </trkpt>
      <trkpt lat="41.565253" lon="2.065589">
        <ele>217.40</ele>
        <time>1970-01-01T04:33:56Z</time>
      </trkpt>
      <trkpt lat="41.565260" lon="2.065633">
        <ele>216.80</ele>
        <time>1970-01-01T04:33:57Z</time>
      </trkpt>
      <trkpt lat="41.565262" lon="2.065736">
        <ele>215.40</ele>
        <time>1970-01-01T04:33:59Z</time>
      </trkpt>
      <trkpt lat="41.565265" lon="2.065790">
        <ele>215.00</ele>
        <time>1970-01-01T04:34:00Z</time>
      </trkpt>
      <trkpt lat="41.565268" lon="2.065838">
        <ele>214.60</ele>
        <time>1970-01-01T04:34:01Z</time>
      </trkpt>
      <trkpt lat="41.565284" lon="2.065929">
        <ele>214.40</ele>
        <time>1970-01-01T04:34:03Z</time>
      </trkpt>
      <trkpt lat="41.565302" lon="2.066017">
        <ele>214.40</ele>
        <time>1970-01-01T04:34:05Z</time>
      </trkpt>
      <trkpt lat="41.565316" lon="2.066124">
        <ele>214.40</ele>
        <time>1970-01-01T04:34:07Z</time>
      </trkpt>
      <trkpt lat="41.565316" lon="2.066297">
        <ele>214.80</ele>
        <time>1970-01-01T04:34:10Z</time>
      </trkpt>
      <trkpt lat="41.565312" lon="2.066359">
        <ele>215.20</ele>
        <time>1970-01-01T04:34:11Z</time>
      </trkpt>
      <trkpt lat="41.565300" lon="2.066485">
        <ele>216.60</ele>
        <time>1970-01-01T04:34:13Z</time>
      </trkpt>
      <trkpt lat="41.565286" lon="2.066616">
        <ele>217.80</ele>
        <time>1970-01-01T04:34:15Z</time>
      </trkpt>
      <trkpt lat="41.565269" lon="2.066827">
        <ele>218.40</ele>
        <time>1970-01-01T04:34:18Z</time>
      </trkpt>
      <trkpt lat="41.565256" lon="2.067188">
        <ele>218.60</ele>
        <time>1970-01-01T04:34:22Z</time>
      </trkpt>
      <trkpt lat="41.565241" lon="2.067524">
        <ele>218.60</ele>
        <time>1970-01-01T04:34:25Z</time>
      </trkpt>
      <trkpt lat="41.565256" lon="2.067638">
        <ele>218.40</ele>
        <time>1970-01-01T04:34:26Z</time>
      </trkpt>
      <trkpt lat="41.565281" lon="2.067738">
        <ele>218.00</ele>
        <time>1970-01-01T04:34:27Z</time>
      </trkpt>
      <trkpt lat="41.565333" lon="2.067912">
        <ele>216.80</ele>
        <time>1970-01-01T04:34:29Z</time>
      </trkpt>
      <trkpt lat="41.565354" lon="2.067992">
        <ele>216.00</ele>
        <time>1970-01-01T04:34:30Z</time>
      </trkpt>
      <trkpt lat="41.565386" lon="2.068108">
        <ele>214.20</ele>
        <time>1970-01-01T04:34:32Z</time>
      </trkpt>
      <trkpt lat="41.565393" lon="2.068136">
        <ele>213.20</ele>
        <time>1970-01-01T04:34:33Z</time>
      </trkpt>
      <trkpt lat="41.565395" lon="2.068155">
        <ele>212.20</ele>
        <time>1970-01-01T04:34:34Z</time>
      </trkpt>
      <trkpt lat="41.565397" lon="2.068172">
        <ele>211.00</ele>
        <time>1970-01-01T04:34:36Z</time>
      </trkpt>
      <trkpt lat="41.565396" lon="2.068173">
        <ele>210.60</ele>
        <time>1970-01-01T04:34:37Z</time>
      </trkpt>
      <trkpt lat="41.565385" lon="2.068244">
        <ele>210.00</ele>
        <time>1970-01-01T04:34:45Z</time>
      </trkpt>
      <trkpt lat="41.565412" lon="2.068308">
        <ele>209.80</ele>
        <time>1970-01-01T04:34:47Z</time>
      </trkpt>
      <trkpt lat="41.565455" lon="2.068442">
        <ele>209.20</ele>
        <time>1970-01-01T04:34:50Z</time>
      </trkpt>
      <trkpt lat="41.565469" lon="2.068490">
        <ele>209.00</ele>
        <time>1970-01-01T04:34:51Z</time>
      </trkpt>
      <trkpt lat="41.565497" lon="2.068569">
        <ele>209.00</ele>
        <time>1970-01-01T04:34:53Z</time>
      </trkpt>
      <trkpt lat="41.565529" lon="2.068625">
        <ele>209.00</ele>
        <time>1970-01-01T04:34:55Z</time>
      </trkpt>
      <trkpt lat="41.565577" lon="2.068808">
        <ele>209.00</ele>
        <time>1970-01-01T04:34:59Z</time>
      </trkpt>
      <trkpt lat="41.565599" lon="2.068910">
        <ele>209.00</ele>
        <time>1970-01-01T04:35:01Z</time>
      </trkpt>
      <trkpt lat="41.565632" lon="2.069070">
        <ele>210.20</ele>
        <time>1970-01-01T04:35:04Z</time>
      </trkpt>
      <trkpt lat="41.565698" lon="2.069309">
        <ele>211.00</ele>
        <time>1970-01-01T04:35:09Z</time>
      </trkpt>
      <trkpt lat="41.565713" lon="2.069355">
        <ele>211.40</ele>
        <time>1970-01-01T04:35:10Z</time>
      </trkpt>
      <trkpt lat="41.565731" lon="2.069404">
        <ele>211.60</ele>
        <time>1970-01-01T04:35:11Z</time>
      </trkpt>
      <trkpt lat="41.565822" lon="2.069624">
        <ele>212.00</ele>
        <time>1970-01-01T04:35:15Z</time>
      </trkpt>
      <trkpt lat="41.566024" lon="2.070132">
        <ele>212.00</ele>
        <time>1970-01-01T04:35:22Z</time>
      </trkpt>
      <trkpt lat="41.566110" lon="2.070365">
        <ele>211.60</ele>
        <time>1970-01-01T04:35:25Z</time>
      </trkpt>
      <trkpt lat="41.566200" lon="2.070591">
        <ele>211.20</ele>
        <time>1970-01-01T04:35:28Z</time>
      </trkpt>
      <trkpt lat="41.566217" lon="2.070668">
        <ele>211.00</ele>
        <time>1970-01-01T04:35:29Z</time>
      </trkpt>
      <trkpt lat="41.566222" lon="2.070889">
        <ele>210.40</ele>
        <time>1970-01-01T04:35:32Z</time>
      </trkpt>
      <trkpt lat="41.566226" lon="2.070951">
        <ele>210.40</ele>
        <time>1970-01-01T04:35:33Z</time>
      </trkpt>
      <trkpt lat="41.566241" lon="2.071005">
        <ele>210.40</ele>
        <time>1970-01-01T04:35:34Z</time>
      </trkpt>
      <trkpt lat="41.566291" lon="2.071075">
        <ele>210.20</ele>
        <time>1970-01-01T04:35:36Z</time>
      </trkpt>
      <trkpt lat="41.566364" lon="2.071107">
        <ele>210.20</ele>
        <time>1970-01-01T04:35:38Z</time>
      </trkpt>
      <trkpt lat="41.566488" lon="2.071144">
        <ele>210.40</ele>
        <time>1970-01-01T04:35:41Z</time>
      </trkpt>
      <trkpt lat="41.566609" lon="2.071179">
        <ele>210.60</ele>
        <time>1970-01-01T04:35:44Z</time>
      </trkpt>
      <trkpt lat="41.566728" lon="2.071215">
        <ele>210.80</ele>
        <time>1970-01-01T04:35:47Z</time>
      </trkpt>
      <trkpt lat="41.566812" lon="2.071246">
        <ele>211.20</ele>
        <time>1970-01-01T04:35:49Z</time>
      </trkpt>
      <trkpt lat="41.566980" lon="2.071302">
        <ele>211.80</ele>
        <time>1970-01-01T04:35:53Z</time>
      </trkpt>
      <trkpt lat="41.567150" lon="2.071357">
        <ele>212.20</ele>
        <time>1970-01-01T04:35:57Z</time>
      </trkpt>
      <trkpt lat="41.567300" lon="2.071399">
        <ele>212.40</ele>
        <time>1970-01-01T04:36:01Z</time>
      </trkpt>
      <trkpt lat="41.567512" lon="2.071466">
        <ele>213.00</ele>
        <time>1970-01-01T04:36:08Z</time>
      </trkpt>
      <trkpt lat="41.567539" lon="2.071479">
        <ele>213.20</ele>
        <time>1970-01-01T04:36:09Z</time>
      </trkpt>
      <trkpt lat="41.567578" lon="2.071525">
        <ele>213.40</ele>
        <time>1970-01-01T04:36:11Z</time>
      </trkpt>
      <trkpt lat="41.567579" lon="2.071561">
        <ele>213.60</ele>
        <time>1970-01-01T04:36:12Z</time>
      </trkpt>
      <trkpt lat="41.567511" lon="2.071759">
        <ele>213.60</ele>
        <time>1970-01-01T04:36:16Z</time>
      </trkpt>
      <trkpt lat="41.567355" lon="2.072125">
        <ele>213.60</ele>
        <time>1970-01-01T04:36:22Z</time>
      </trkpt>
      <trkpt lat="41.567331" lon="2.072181">
        <ele>213.60</ele>
        <time>1970-01-01T04:36:23Z</time>
      </trkpt>
      <trkpt lat="41.567235" lon="2.072390">
        <ele>213.20</ele>
        <time>1970-01-01T04:36:27Z</time>
      </trkpt>
      <trkpt lat="41.567208" lon="2.072449">
        <ele>213.00</ele>
        <time>1970-01-01T04:36:28Z</time>
      </trkpt>
      <trkpt lat="41.567161" lon="2.072588">
        <ele>212.80</ele>
        <time>1970-01-01T04:36:30Z</time>
      </trkpt>
      <trkpt lat="41.567043" lon="2.072974">
        <ele>211.80</ele>
        <time>1970-01-01T04:36:35Z</time>
      </trkpt>
      <trkpt lat="41.567020" lon="2.073054">
        <ele>211.40</ele>
        <time>1970-01-01T04:36:36Z</time>
      </trkpt>
      <trkpt lat="41.566969" lon="2.073219">
        <ele>210.40</ele>
        <time>1970-01-01T04:36:38Z</time>
      </trkpt>
      <trkpt lat="41.566886" lon="2.073487">
        <ele>209.40</ele>
        <time>1970-01-01T04:36:41Z</time>
      </trkpt>
      <trkpt lat="41.566858" lon="2.073578">
        <ele>209.20</ele>
        <time>1970-01-01T04:36:42Z</time>
      </trkpt>
      <trkpt lat="41.566780" lon="2.073847">
        <ele>208.40</ele>
        <time>1970-01-01T04:36:45Z</time>
      </trkpt>
      <trkpt lat="41.566755" lon="2.073933">
        <ele>208.20</ele>
        <time>1970-01-01T04:36:46Z</time>
      </trkpt>
      <trkpt lat="41.566713" lon="2.074106">
        <ele>207.60</ele>
        <time>1970-01-01T04:36:48Z</time>
      </trkpt>
      <trkpt lat="41.566692" lon="2.074286">
        <ele>207.00</ele>
        <time>1970-01-01T04:36:50Z</time>
      </trkpt>
      <trkpt lat="41.566654" lon="2.074657">
        <ele>205.60</ele>
        <time>1970-01-01T04:36:54Z</time>
      </trkpt>
      <trkpt lat="41.566622" lon="2.074944">
        <ele>205.00</ele>
        <time>1970-01-01T04:36:57Z</time>
      </trkpt>
      <trkpt lat="41.566614" lon="2.075139">
        <ele>204.60</ele>
        <time>1970-01-01T04:36:59Z</time>
      </trkpt>
      <trkpt lat="41.566602" lon="2.075336">
        <ele>204.00</ele>
        <time>1970-01-01T04:37:01Z</time>
      </trkpt>
      <trkpt lat="41.566574" lon="2.075535">
        <ele>203.40</ele>
        <time>1970-01-01T04:37:03Z</time>
      </trkpt>
      <trkpt lat="41.566548" lon="2.075632">
        <ele>203.20</ele>
        <time>1970-01-01T04:37:04Z</time>
      </trkpt>
      <trkpt lat="41.566376" lon="2.075974">
        <ele>202.40</ele>
        <time>1970-01-01T04:37:08Z</time>
      </trkpt>
      <trkpt lat="41.566328" lon="2.076049">
        <ele>202.20</ele>
        <time>1970-01-01T04:37:09Z</time>
      </trkpt>
      <trkpt lat="41.566218" lon="2.076301">
        <ele>202.00</ele>
        <time>1970-01-01T04:37:12Z</time>
      </trkpt>
      <trkpt lat="41.566208" lon="2.076586">
        <ele>201.40</ele>
        <time>1970-01-01T04:37:15Z</time>
      </trkpt>
      <trkpt lat="41.566231" lon="2.076763">
        <ele>201.40</ele>
        <time>1970-01-01T04:37:17Z</time>
      </trkpt>
      <trkpt lat="41.566263" lon="2.076929">
        <ele>201.40</ele>
        <time>1970-01-01T04:37:19Z</time>
      </trkpt>
      <trkpt lat="41.566270" lon="2.077012">
        <ele>201.40</ele>
        <time>1970-01-01T04:37:20Z</time>
      </trkpt>
      <trkpt lat="41.566232" lon="2.077169">
        <ele>201.40</ele>
        <time>1970-01-01T04:37:22Z</time>
      </trkpt>
      <trkpt lat="41.566064" lon="2.077299">
        <ele>201.60</ele>
        <time>1970-01-01T04:37:25Z</time>
      </trkpt>
      <trkpt lat="41.565999" lon="2.077329">
        <ele>201.60</ele>
        <time>1970-01-01T04:37:26Z</time>
      </trkpt>
      <trkpt lat="41.565669" lon="2.077515">
        <ele>201.80</ele>
        <time>1970-01-01T04:37:31Z</time>
      </trkpt>
      <trkpt lat="41.565342" lon="2.077745">
        <ele>201.00</ele>
        <time>1970-01-01T04:37:36Z</time>
      </trkpt>
      <trkpt lat="41.565280" lon="2.077796">
        <ele>200.40</ele>
        <time>1970-01-01T04:37:37Z</time>
      </trkpt>
      <trkpt lat="41.565234" lon="2.077849">
        <ele>199.80</ele>
        <time>1970-01-01T04:37:38Z</time>
      </trkpt>
      <trkpt lat="41.565215" lon="2.077904">
        <ele>199.20</ele>
        <time>1970-01-01T04:37:39Z</time>
      </trkpt>
      <trkpt lat="41.565232" lon="2.077976">
        <ele>198.40</ele>
        <time>1970-01-01T04:37:41Z</time>
      </trkpt>
      <trkpt lat="41.565248" lon="2.078002">
        <ele>198.00</ele>
        <time>1970-01-01T04:37:42Z</time>
      </trkpt>
      <trkpt lat="41.565318" lon="2.078161">
        <ele>197.40</ele>
        <time>1970-01-01T04:37:46Z</time>
      </trkpt>
      <trkpt lat="41.565344" lon="2.078206">
        <ele>197.40</ele>
        <time>1970-01-01T04:37:47Z</time>
      </trkpt>
      <trkpt lat="41.565499" lon="2.078455">
        <ele>197.20</ele>
        <time>1970-01-01T04:37:52Z</time>
      </trkpt>
      <trkpt lat="41.565596" lon="2.078600">
        <ele>197.40</ele>
        <time>1970-01-01T04:37:55Z</time>
      </trkpt>
      <trkpt lat="41.565684" lon="2.078731">
        <ele>197.40</ele>
        <time>1970-01-01T04:37:58Z</time>
      </trkpt>
      <trkpt lat="41.565717" lon="2.078795">
        <ele>197.20</ele>
        <time>1970-01-01T04:38:00Z</time>
      </trkpt>
      <trkpt lat="41.565709" lon="2.078826">
        <ele>197.20</ele>
        <time>1970-01-01T04:38:01Z</time>
      </trkpt>
      <trkpt lat="41.565621" lon="2.078992">
        <ele>197.00</ele>
        <time>1970-01-01T04:38:05Z</time>
      </trkpt>
      <trkpt lat="41.565572" lon="2.079092">
        <ele>197.00</ele>
        <time>1970-01-01T04:38:07Z</time>
      </trkpt>
      <trkpt lat="41.565504" lon="2.079254">
        <ele>196.80</ele>
        <time>1970-01-01T04:38:10Z</time>
      </trkpt>
      <trkpt lat="41.565422" lon="2.079423">
        <ele>196.60</ele>
        <time>1970-01-01T04:38:13Z</time>
      </trkpt>
      <trkpt lat="41.565349" lon="2.079599">
        <ele>196.40</ele>
        <time>1970-01-01T04:38:16Z</time>
      </trkpt>
      <trkpt lat="41.565329" lon="2.079666">
        <ele>196.40</ele>
        <time>1970-01-01T04:38:17Z</time>
      </trkpt>
      <trkpt lat="41.565317" lon="2.079968">
        <ele>195.60</ele>
        <time>1970-01-01T04:38:21Z</time>
      </trkpt>
      <trkpt lat="41.565299" lon="2.080119">
        <ele>195.40</ele>
        <time>1970-01-01T04:38:23Z</time>
      </trkpt>
      <trkpt lat="41.565250" lon="2.080579">
        <ele>194.60</ele>
        <time>1970-01-01T04:38:29Z</time>
      </trkpt>
      <trkpt lat="41.565246" lon="2.080665">
        <ele>194.40</ele>
        <time>1970-01-01T04:38:30Z</time>
      </trkpt>
      <trkpt lat="41.565246" lon="2.080754">
        <ele>194.20</ele>
        <time>1970-01-01T04:38:31Z</time>
      </trkpt>
      <trkpt lat="41.565242" lon="2.081023">
        <ele>194.00</ele>
        <time>1970-01-01T04:38:34Z</time>
      </trkpt>
      <trkpt lat="41.565236" lon="2.081202">
        <ele>193.80</ele>
        <time>1970-01-01T04:38:36Z</time>
      </trkpt>
      <trkpt lat="41.565221" lon="2.081389">
        <ele>193.00</ele>
        <time>1970-01-01T04:38:38Z</time>
      </trkpt>
      <trkpt lat="41.565191" lon="2.081657">
        <ele>192.40</ele>
        <time>1970-01-01T04:38:41Z</time>
      </trkpt>
      <trkpt lat="41.565162" lon="2.081831">
        <ele>192.00</ele>
        <time>1970-01-01T04:38:43Z</time>
      </trkpt>
      <trkpt lat="41.565126" lon="2.081996">
        <ele>191.60</ele>
        <time>1970-01-01T04:38:45Z</time>
      </trkpt>
      <trkpt lat="41.565089" lon="2.082167">
        <ele>191.00</ele>
        <time>1970-01-01T04:38:47Z</time>
      </trkpt>
      <trkpt lat="41.565071" lon="2.082250">
        <ele>190.80</ele>
        <time>1970-01-01T04:38:48Z</time>
      </trkpt>
      <trkpt lat="41.565007" lon="2.082507">
        <ele>189.60</ele>
        <time>1970-01-01T04:38:51Z</time>
      </trkpt>
      <trkpt lat="41.564976" lon="2.082580">
        <ele>189.40</ele>
        <time>1970-01-01T04:38:52Z</time>
      </trkpt>
      <trkpt lat="41.564933" lon="2.082649">
        <ele>189.20</ele>
        <time>1970-01-01T04:38:53Z</time>
      </trkpt>
      <trkpt lat="41.564876" lon="2.082772">
        <ele>188.40</ele>
        <time>1970-01-01T04:38:55Z</time>
      </trkpt>
      <trkpt lat="41.564860" lon="2.082863">
        <ele>188.00</ele>
        <time>1970-01-01T04:38:57Z</time>
      </trkpt>
      <trkpt lat="41.564916" lon="2.082998">
        <ele>187.80</ele>
        <time>1970-01-01T04:39:01Z</time>
      </trkpt>
      <trkpt lat="41.564946" lon="2.083024">
        <ele>187.80</ele>
        <time>1970-01-01T04:39:02Z</time>
      </trkpt>
      <trkpt lat="41.565069" lon="2.083123">
        <ele>187.60</ele>
        <time>1970-01-01T04:39:05Z</time>
      </trkpt>
      <trkpt lat="41.565217" lon="2.083240">
        <ele>187.20</ele>
        <time>1970-01-01T04:39:08Z</time>
      </trkpt>
      <trkpt lat="41.565267" lon="2.083283">
        <ele>187.00</ele>
        <time>1970-01-01T04:39:09Z</time>
      </trkpt>
      <trkpt lat="41.565354" lon="2.083379">
        <ele>186.40</ele>
        <time>1970-01-01T04:39:11Z</time>
      </trkpt>
      <trkpt lat="41.565403" lon="2.083418">
        <ele>186.20</ele>
        <time>1970-01-01T04:39:12Z</time>
      </trkpt>
      <trkpt lat="41.565455" lon="2.083452">
        <ele>186.00</ele>
        <time>1970-01-01T04:39:13Z</time>
      </trkpt>
      <trkpt lat="41.565595" lon="2.083558">
        <ele>185.40</ele>
        <time>1970-01-01T04:39:16Z</time>
      </trkpt>
      <trkpt lat="41.565780" lon="2.083680">
        <ele>185.20</ele>
        <time>1970-01-01T04:39:20Z</time>
      </trkpt>
      <trkpt lat="41.565822" lon="2.083706">
        <ele>185.20</ele>
        <time>1970-01-01T04:39:21Z</time>
      </trkpt>
      <trkpt lat="41.565860" lon="2.083728">
        <ele>185.00</ele>
        <time>1970-01-01T04:39:22Z</time>
      </trkpt>
      <trkpt lat="41.565891" lon="2.083745">
        <ele>185.00</ele>
        <time>1970-01-01T04:39:23Z</time>
      </trkpt>
      <trkpt lat="41.566124" lon="2.083844">
        <ele>184.60</ele>
        <time>1970-01-01T04:39:29Z</time>
      </trkpt>
      <trkpt lat="41.566211" lon="2.083893">
        <ele>184.60</ele>
        <time>1970-01-01T04:39:31Z</time>
      </trkpt>
      <trkpt lat="41.566280" lon="2.083983">
        <ele>184.60</ele>
        <time>1970-01-01T04:39:33Z</time>
      </trkpt>
      <trkpt lat="41.566287" lon="2.084200">
        <ele>184.60</ele>
        <time>1970-01-01T04:39:36Z</time>
      </trkpt>
      <trkpt lat="41.566223" lon="2.084348">
        <ele>184.40</ele>
        <time>1970-01-01T04:39:38Z</time>
      </trkpt>
      <trkpt lat="41.566147" lon="2.084508">
        <ele>184.20</ele>
        <time>1970-01-01T04:39:40Z</time>
      </trkpt>
      <trkpt lat="41.566003" lon="2.084751">
        <ele>184.00</ele>
        <time>1970-01-01T04:39:43Z</time>
      </trkpt>
      <trkpt lat="41.565840" lon="2.084998">
        <ele>183.40</ele>
        <time>1970-01-01T04:39:46Z</time>
      </trkpt>
      <trkpt lat="41.565721" lon="2.085152">
        <ele>182.80</ele>
        <time>1970-01-01T04:39:48Z</time>
      </trkpt>
      <trkpt lat="41.565593" lon="2.085297">
        <ele>181.40</ele>
        <time>1970-01-01T04:39:50Z</time>
      </trkpt>
      <trkpt lat="41.565455" lon="2.085430">
        <ele>180.20</ele>
        <time>1970-01-01T04:39:52Z</time>
      </trkpt>
      <trkpt lat="41.565312" lon="2.085553">
        <ele>179.40</ele>
        <time>1970-01-01T04:39:54Z</time>
      </trkpt>
      <trkpt lat="41.565241" lon="2.085615">
        <ele>178.80</ele>
        <time>1970-01-01T04:39:55Z</time>
      </trkpt>
      <trkpt lat="41.565172" lon="2.085671">
        <ele>178.40</ele>
        <time>1970-01-01T04:39:56Z</time>
      </trkpt>
      <trkpt lat="41.565053" lon="2.085754">
        <ele>177.80</ele>
        <time>1970-01-01T04:39:58Z</time>
      </trkpt>
      <trkpt lat="41.565002" lon="2.085781">
        <ele>177.60</ele>
        <time>1970-01-01T04:39:59Z</time>
      </trkpt>
      <trkpt lat="41.564824" lon="2.085866">
        <ele>176.60</ele>
        <time>1970-01-01T04:40:03Z</time>
      </trkpt>
      <trkpt lat="41.564754" lon="2.085917">
        <ele>175.80</ele>
        <time>1970-01-01T04:40:05Z</time>
      </trkpt>
      <trkpt lat="41.564715" lon="2.085942">
        <ele>175.60</ele>
        <time>1970-01-01T04:40:06Z</time>
      </trkpt>
      <trkpt lat="41.564671" lon="2.085962">
        <ele>175.40</ele>
        <time>1970-01-01T04:40:07Z</time>
      </trkpt>
      <trkpt lat="41.564463" lon="2.086053">
        <ele>174.80</ele>
        <time>1970-01-01T04:40:11Z</time>
      </trkpt>
      <trkpt lat="41.564407" lon="2.086079">
        <ele>174.80</ele>
        <time>1970-01-01T04:40:12Z</time>
      </trkpt>
      <trkpt lat="41.564090" lon="2.086237">
        <ele>174.00</ele>
        <time>1970-01-01T04:40:17Z</time>
      </trkpt>
      <trkpt lat="41.563782" lon="2.086411">
        <ele>173.00</ele>
        <time>1970-01-01T04:40:22Z</time>
      </trkpt>
      <trkpt lat="41.563721" lon="2.086442">
        <ele>173.00</ele>
        <time>1970-01-01T04:40:23Z</time>
      </trkpt>
      <trkpt lat="41.563546" lon="2.086518">
        <ele>172.00</ele>
        <time>1970-01-01T04:40:26Z</time>
      </trkpt>
      <trkpt lat="41.563335" lon="2.086627">
        <ele>171.20</ele>
        <time>1970-01-01T04:40:30Z</time>
      </trkpt>
      <trkpt lat="41.563227" lon="2.086707">
        <ele>170.80</ele>
        <time>1970-01-01T04:40:33Z</time>
      </trkpt>
      <trkpt lat="41.563187" lon="2.086726">
        <ele>170.60</ele>
        <time>1970-01-01T04:40:34Z</time>
      </trkpt>
      <trkpt lat="41.563042" lon="2.086803">
        <ele>170.20</ele>
        <time>1970-01-01T04:40:37Z</time>
      </trkpt>
      <trkpt lat="41.562948" lon="2.086871">
        <ele>170.20</ele>
        <time>1970-01-01T04:40:39Z</time>
      </trkpt>
      <trkpt lat="41.562814" lon="2.086961">
        <ele>170.00</ele>
        <time>1970-01-01T04:40:42Z</time>
      </trkpt>
      <trkpt lat="41.562717" lon="2.087010">
        <ele>169.80</ele>
        <time>1970-01-01T04:40:44Z</time>
      </trkpt>
      <trkpt lat="41.562562" lon="2.087085">
        <ele>169.60</ele>
        <time>1970-01-01T04:40:47Z</time>
      </trkpt>
      <trkpt lat="41.562418" lon="2.087119">
        <ele>169.60</ele>
        <time>1970-01-01T04:40:50Z</time>
      </trkpt>
      <trkpt lat="41.562336" lon="2.087150">
        <ele>169.40</ele>
        <time>1970-01-01T04:40:55Z</time>
      </trkpt>
      <trkpt lat="41.562316" lon="2.087164">
        <ele>169.40</ele>
        <time>1970-01-01T04:40:58Z</time>
      </trkpt>
      <trkpt lat="41.562278" lon="2.087190">
        <ele>169.60</ele>
        <time>1970-01-01T04:41:05Z</time>
      </trkpt>
      <trkpt lat="41.562260" lon="2.087220">
        <ele>169.60</ele>
        <time>1970-01-01T04:41:06Z</time>
      </trkpt>
      <trkpt lat="41.562260" lon="2.087375">
        <ele>169.40</ele>
        <time>1970-01-01T04:41:09Z</time>
      </trkpt>
      <trkpt lat="41.562274" lon="2.087437">
        <ele>169.40</ele>
        <time>1970-01-01T04:41:10Z</time>
      </trkpt>
      <trkpt lat="41.562347" lon="2.087816">
        <ele>169.40</ele>
        <time>1970-01-01T04:41:16Z</time>
      </trkpt>
      <trkpt lat="41.562379" lon="2.087992">
        <ele>169.40</ele>
        <time>1970-01-01T04:41:19Z</time>
      </trkpt>
      <trkpt lat="41.562411" lon="2.088167">
        <ele>169.80</ele>
        <time>1970-01-01T04:41:22Z</time>
      </trkpt>
      <trkpt lat="41.562430" lon="2.088279">
        <ele>170.20</ele>
        <time>1970-01-01T04:41:24Z</time>
      </trkpt>
      <trkpt lat="41.562447" lon="2.088388">
        <ele>170.60</ele>
        <time>1970-01-01T04:41:26Z</time>
      </trkpt>
      <trkpt lat="41.562469" lon="2.088589">
        <ele>171.60</ele>
        <time>1970-01-01T04:41:30Z</time>
      </trkpt>
      <trkpt lat="41.562473" lon="2.088631">
        <ele>171.80</ele>
        <time>1970-01-01T04:41:31Z</time>
      </trkpt>
      <trkpt lat="41.562478" lon="2.088826">
        <ele>172.80</ele>
        <time>1970-01-01T04:41:36Z</time>
      </trkpt>
      <trkpt lat="41.562458" lon="2.089250">
        <ele>173.60</ele>
        <time>1970-01-01T04:41:43Z</time>
      </trkpt>
      <trkpt lat="41.562396" lon="2.089889">
        <ele>173.80</ele>
        <time>1970-01-01T04:41:52Z</time>
      </trkpt>
      <trkpt lat="41.562363" lon="2.090188">
        <ele>173.80</ele>
        <time>1970-01-01T04:41:56Z</time>
      </trkpt>
      <trkpt lat="41.562335" lon="2.090420">
        <ele>174.00</ele>
        <time>1970-01-01T04:41:59Z</time>
      </trkpt>
      <trkpt lat="41.562310" lon="2.090651">
        <ele>174.00</ele>
        <time>1970-01-01T04:42:02Z</time>
      </trkpt>
      <trkpt lat="41.562281" lon="2.090893">
        <ele>174.20</ele>
        <time>1970-01-01T04:42:05Z</time>
      </trkpt>
      <trkpt lat="41.562219" lon="2.091385">
        <ele>174.60</ele>
        <time>1970-01-01T04:42:11Z</time>
      </trkpt>
      <trkpt lat="41.562196" lon="2.091490">
        <ele>174.60</ele>
        <time>1970-01-01T04:42:14Z</time>
      </trkpt>
      <trkpt lat="41.562165" lon="2.091593">
        <ele>174.80</ele>
        <time>1970-01-01T04:42:16Z</time>
      </trkpt>
      <trkpt lat="41.562149" lon="2.091649">
        <ele>174.80</ele>
        <time>1970-01-01T04:42:17Z</time>
      </trkpt>
      <trkpt lat="41.561997" lon="2.091860">
        <ele>174.80</ele>
        <time>1970-01-01T04:42:21Z</time>
      </trkpt>
      <trkpt lat="41.561919" lon="2.091980">
        <ele>174.80</ele>
        <time>1970-01-01T04:42:23Z</time>
      </trkpt>
      <trkpt lat="41.561805" lon="2.092165">
        <ele>174.40</ele>
        <time>1970-01-01T04:42:26Z</time>
      </trkpt>
      <trkpt lat="41.561576" lon="2.092533">
        <ele>173.20</ele>
        <time>1970-01-01T04:42:31Z</time>
      </trkpt>
      <trkpt lat="41.561479" lon="2.092701">
        <ele>172.60</ele>
        <time>1970-01-01T04:42:33Z</time>
      </trkpt>
      <trkpt lat="41.561365" lon="2.092871">
        <ele>171.80</ele>
        <time>1970-01-01T04:42:35Z</time>
      </trkpt>
      <trkpt lat="41.561305" lon="2.092958">
        <ele>171.00</ele>
        <time>1970-01-01T04:42:36Z</time>
      </trkpt>
      <trkpt lat="41.561245" lon="2.093048">
        <ele>170.60</ele>
        <time>1970-01-01T04:42:37Z</time>
      </trkpt>
      <trkpt lat="41.561063" lon="2.093321">
        <ele>169.40</ele>
        <time>1970-01-01T04:42:40Z</time>
      </trkpt>
      <trkpt lat="41.560887" lon="2.093609">
        <ele>168.20</ele>
        <time>1970-01-01T04:42:43Z</time>
      </trkpt>
      <trkpt lat="41.560775" lon="2.093802">
        <ele>167.20</ele>
        <time>1970-01-01T04:42:45Z</time>
      </trkpt>
      <trkpt lat="41.560719" lon="2.093895">
        <ele>166.80</ele>
        <time>1970-01-01T04:42:46Z</time>
      </trkpt>
      <trkpt lat="41.560556" lon="2.094171">
        <ele>165.60</ele>
        <time>1970-01-01T04:42:49Z</time>
      </trkpt>
      <trkpt lat="41.560443" lon="2.094346">
        <ele>164.80</ele>
        <time>1970-01-01T04:42:51Z</time>
      </trkpt>
      <trkpt lat="41.560384" lon="2.094429">
        <ele>164.40</ele>
        <time>1970-01-01T04:42:52Z</time>
      </trkpt>
      <trkpt lat="41.560279" lon="2.094604">
        <ele>163.80</ele>
        <time>1970-01-01T04:42:54Z</time>
      </trkpt>
      <trkpt lat="41.560123" lon="2.094845">
        <ele>163.40</ele>
        <time>1970-01-01T04:42:57Z</time>
      </trkpt>
      <trkpt lat="41.560036" lon="2.095004">
        <ele>162.80</ele>
        <time>1970-01-01T04:42:59Z</time>
      </trkpt>
      <trkpt lat="41.559911" lon="2.095231">
        <ele>162.00</ele>
        <time>1970-01-01T04:43:02Z</time>
      </trkpt>
      <trkpt lat="41.559825" lon="2.095372">
        <ele>161.80</ele>
        <time>1970-01-01T04:43:04Z</time>
      </trkpt>
      <trkpt lat="41.559658" lon="2.095656">
        <ele>161.00</ele>
        <time>1970-01-01T04:43:08Z</time>
      </trkpt>
      <trkpt lat="41.559612" lon="2.095721">
        <ele>160.80</ele>
        <time>1970-01-01T04:43:09Z</time>
      </trkpt>
      <trkpt lat="41.559527" lon="2.095860">
        <ele>160.60</ele>
        <time>1970-01-01T04:43:11Z</time>
      </trkpt>
      <trkpt lat="41.559361" lon="2.096112">
        <ele>160.00</ele>
        <time>1970-01-01T04:43:15Z</time>
      </trkpt>
      <trkpt lat="41.559320" lon="2.096149">
        <ele>159.80</ele>
        <time>1970-01-01T04:43:16Z</time>
      </trkpt>
      <trkpt lat="41.559288" lon="2.096186">
        <ele>159.80</ele>
        <time>1970-01-01T04:43:17Z</time>
      </trkpt>
      <trkpt lat="41.559229" lon="2.096272">
        <ele>159.60</ele>
        <time>1970-01-01T04:43:19Z</time>
      </trkpt>
      <trkpt lat="41.559199" lon="2.096320">
        <ele>159.40</ele>
        <time>1970-01-01T04:43:20Z</time>
      </trkpt>
      <trkpt lat="41.559128" lon="2.096419">
        <ele>158.80</ele>
        <time>1970-01-01T04:43:22Z</time>
      </trkpt>
      <trkpt lat="41.559032" lon="2.096582">
        <ele>158.60</ele>
        <time>1970-01-01T04:43:25Z</time>
      </trkpt>
      <trkpt lat="41.558959" lon="2.096691">
        <ele>158.40</ele>
        <time>1970-01-01T04:43:27Z</time>
      </trkpt>
      <trkpt lat="41.558864" lon="2.096767">
        <ele>158.20</ele>
        <time>1970-01-01T04:43:29Z</time>
      </trkpt>
      <trkpt lat="41.558742" lon="2.096802">
        <ele>158.20</ele>
        <time>1970-01-01T04:43:31Z</time>
      </trkpt>
      <trkpt lat="41.558535" lon="2.096846">
        <ele>157.80</ele>
        <time>1970-01-01T04:43:34Z</time>
      </trkpt>
      <trkpt lat="41.558467" lon="2.096859">
        <ele>157.80</ele>
        <time>1970-01-01T04:43:35Z</time>
      </trkpt>
      <trkpt lat="41.558340" lon="2.096905">
        <ele>157.60</ele>
        <time>1970-01-01T04:43:37Z</time>
      </trkpt>
      <trkpt lat="41.558286" lon="2.096941">
        <ele>157.40</ele>
        <time>1970-01-01T04:43:38Z</time>
      </trkpt>
      <trkpt lat="41.558240" lon="2.096969">
        <ele>157.20</ele>
        <time>1970-01-01T04:43:39Z</time>
      </trkpt>
      <trkpt lat="41.558157" lon="2.097015">
        <ele>156.80</ele>
        <time>1970-01-01T04:43:41Z</time>
      </trkpt>
      <trkpt lat="41.558106" lon="2.097034">
        <ele>156.60</ele>
        <time>1970-01-01T04:43:42Z</time>
      </trkpt>
      <trkpt lat="41.558044" lon="2.097052">
        <ele>156.40</ele>
        <time>1970-01-01T04:43:43Z</time>
      </trkpt>
      <trkpt lat="41.557974" lon="2.097068">
        <ele>156.40</ele>
        <time>1970-01-01T04:43:44Z</time>
      </trkpt>
      <trkpt lat="41.557819" lon="2.097092">
        <ele>156.00</ele>
        <time>1970-01-01T04:43:46Z</time>
      </trkpt>
      <trkpt lat="41.557656" lon="2.097116">
        <ele>155.60</ele>
        <time>1970-01-01T04:43:48Z</time>
      </trkpt>
      <trkpt lat="41.557578" lon="2.097131">
        <ele>155.60</ele>
        <time>1970-01-01T04:43:49Z</time>
      </trkpt>
      <trkpt lat="41.557380" lon="2.097163">
        <ele>155.40</ele>
        <time>1970-01-01T04:43:52Z</time>
      </trkpt>
      <trkpt lat="41.557197" lon="2.097197">
        <ele>154.80</ele>
        <time>1970-01-01T04:43:55Z</time>
      </trkpt>
      <trkpt lat="41.557128" lon="2.097195">
        <ele>154.20</ele>
        <time>1970-01-01T04:43:56Z</time>
      </trkpt>
      <trkpt lat="41.557059" lon="2.097195">
        <ele>153.60</ele>
        <time>1970-01-01T04:43:57Z</time>
      </trkpt>
      <trkpt lat="41.556629" lon="2.097244">
        <ele>153.20</ele>
        <time>1970-01-01T04:44:03Z</time>
      </trkpt>
      <trkpt lat="41.556487" lon="2.097261">
        <ele>152.80</ele>
        <time>1970-01-01T04:44:05Z</time>
      </trkpt>
      <trkpt lat="41.556231" lon="2.097299">
        <ele>152.00</ele>
        <time>1970-01-01T04:44:09Z</time>
      </trkpt>
      <trkpt lat="41.556113" lon="2.097313">
        <ele>151.60</ele>
        <time>1970-01-01T04:44:11Z</time>
      </trkpt>
      <trkpt lat="41.555831" lon="2.097345">
        <ele>150.80</ele>
        <time>1970-01-01T04:44:16Z</time>
      </trkpt>
      <trkpt lat="41.555786" lon="2.097376">
        <ele>150.60</ele>
        <time>1970-01-01T04:44:17Z</time>
      </trkpt>
      <trkpt lat="41.555514" lon="2.097425">
        <ele>149.80</ele>
        <time>1970-01-01T04:44:22Z</time>
      </trkpt>
      <trkpt lat="41.555476" lon="2.097453">
        <ele>149.80</ele>
        <time>1970-01-01T04:44:23Z</time>
      </trkpt>
      <trkpt lat="41.555450" lon="2.097498">
        <ele>149.80</ele>
        <time>1970-01-01T04:44:24Z</time>
      </trkpt>
      <trkpt lat="41.555411" lon="2.097606">
        <ele>149.80</ele>
        <time>1970-01-01T04:44:26Z</time>
      </trkpt>
      <trkpt lat="41.555326" lon="2.097636">
        <ele>148.60</ele>
        <time>1970-01-01T04:44:29Z</time>
      </trkpt>
      <trkpt lat="41.555280" lon="2.097654">
        <ele>148.40</ele>
        <time>1970-01-01T04:44:33Z</time>
      </trkpt>
      <trkpt lat="41.555244" lon="2.097649">
        <ele>148.40</ele>
        <time>1970-01-01T04:44:34Z</time>
      </trkpt>
      <trkpt lat="41.555166" lon="2.097676">
        <ele>148.20</ele>
        <time>1970-01-01T04:44:37Z</time>
      </trkpt>
      <trkpt lat="41.555027" lon="2.097734">
        <ele>148.40</ele>
        <time>1970-01-01T04:44:41Z</time>
      </trkpt>
      <trkpt lat="41.554879" lon="2.097792">
        <ele>148.40</ele>
        <time>1970-01-01T04:44:45Z</time>
      </trkpt>
      <trkpt lat="41.554616" lon="2.097808">
        <ele>147.80</ele>
        <time>1970-01-01T04:44:51Z</time>
      </trkpt>
      <trkpt lat="41.554563" lon="2.097817">
        <ele>147.40</ele>
        <time>1970-01-01T04:44:52Z</time>
      </trkpt>
      <trkpt lat="41.554306" lon="2.097871">
        <ele>147.00</ele>
        <time>1970-01-01T04:44:57Z</time>
      </trkpt>
      <trkpt lat="41.554254" lon="2.097880">
        <ele>147.00</ele>
        <time>1970-01-01T04:44:58Z</time>
      </trkpt>
      <trkpt lat="41.554157" lon="2.097907">
        <ele>146.80</ele>
        <time>1970-01-01T04:45:00Z</time>
      </trkpt>
      <trkpt lat="41.554088" lon="2.097966">
        <ele>146.60</ele>
        <time>1970-01-01T04:45:02Z</time>
      </trkpt>
      <trkpt lat="41.553958" lon="2.098070">
        <ele>146.60</ele>
        <time>1970-01-01T04:45:06Z</time>
      </trkpt>
      <trkpt lat="41.553922" lon="2.098067">
        <ele>146.40</ele>
        <time>1970-01-01T04:45:07Z</time>
      </trkpt>
      <trkpt lat="41.553890" lon="2.098050">
        <ele>146.40</ele>
        <time>1970-01-01T04:45:08Z</time>
      </trkpt>
      <trkpt lat="41.553789" lon="2.098032">
        <ele>146.00</ele>
        <time>1970-01-01T04:45:11Z</time>
      </trkpt>
      <trkpt lat="41.553749" lon="2.098040">
        <ele>146.00</ele>
        <time>1970-01-01T04:45:12Z</time>
      </trkpt>
      <trkpt lat="41.553423" lon="2.098100">
        <ele>145.20</ele>
        <time>1970-01-01T04:45:19Z</time>
      </trkpt>
      <trkpt lat="41.553371" lon="2.098107">
        <ele>145.20</ele>
        <time>1970-01-01T04:45:20Z</time>
      </trkpt>
      <trkpt lat="41.553123" lon="2.098149">
        <ele>144.40</ele>
        <time>1970-01-01T04:45:25Z</time>
      </trkpt>
      <trkpt lat="41.553030" lon="2.098167">
        <ele>144.20</ele>
        <time>1970-01-01T04:45:27Z</time>
      </trkpt>
      <trkpt lat="41.552972" lon="2.098190">
        <ele>144.00</ele>
        <time>1970-01-01T04:45:29Z</time>
      </trkpt>
      <trkpt lat="41.552965" lon="2.098209">
        <ele>144.00</ele>
        <time>1970-01-01T04:45:30Z</time>
      </trkpt>
      <trkpt lat="41.552960" lon="2.098245">
        <ele>144.00</ele>
        <time>1970-01-01T04:45:31Z</time>
      </trkpt>
      <trkpt lat="41.552907" lon="2.098281">
        <ele>144.00</ele>
        <time>1970-01-01T04:45:33Z</time>
      </trkpt>
      <trkpt lat="41.552822" lon="2.098298">
        <ele>144.00</ele>
        <time>1970-01-01T04:45:35Z</time>
      </trkpt>
      <trkpt lat="41.552699" lon="2.098331">
        <ele>144.00</ele>
        <time>1970-01-01T04:45:38Z</time>
      </trkpt>
      <trkpt lat="41.552571" lon="2.098385">
        <ele>144.00</ele>
        <time>1970-01-01T04:45:42Z</time>
      </trkpt>
      <trkpt lat="41.552554" lon="2.098431">
        <ele>144.00</ele>
        <time>1970-01-01T04:45:43Z</time>
      </trkpt>
      <trkpt lat="41.552528" lon="2.098511">
        <ele>144.00</ele>
        <time>1970-01-01T04:45:45Z</time>
      </trkpt>
      <trkpt lat="41.552532" lon="2.098673">
        <ele>144.00</ele>
        <time>1970-01-01T04:45:49Z</time>
      </trkpt>
    </trkseg>
  </trk>
</gpx>
